<?xml version="1.0" encoding="UTF-8" standalone="no" ?>
<gpx xmlns="http://www.topografix.com/GPX/1/1" xmlns:xsi="http://www.w3.org/2001/XMLSchema-instance" xsi:schemaLocation="http://www.topografix.com/GPX/1/1 http://www.topografix.com/GPX/1/1/gpx.xsd" version="1.1" creator="VisuGPX - https://www.visugpx.com">
  <metadata>
    <name>Tournefeuille Cyclisme sur route</name>
  </metadata>
  <trk>
    <name><![CDATA[Tournefeuille Cyclisme sur route_1]]></name>
    <trkseg>
      <trkpt lat="43.5867" lon="1.32238">
        <ele>201.8</ele>
        <time>2024-05-20T05:46:20Z</time>
      </trkpt>
      <trkpt lat="43.58673" lon="1.32235">
        <ele>201.8</ele>
        <time>2024-05-20T05:46:21Z</time>
      </trkpt>
      <trkpt lat="43.58678" lon="1.3222">
        <ele>202.2</ele>
        <time>2024-05-20T05:46:41Z</time>
      </trkpt>
      <trkpt lat="43.58678" lon="1.32216">
        <ele>202.2</ele>
        <time>2024-05-20T05:46:42Z</time>
      </trkpt>
      <trkpt lat="43.58678" lon="1.32212">
        <ele>202.2</ele>
        <time>2024-05-20T05:46:43Z</time>
      </trkpt>
      <trkpt lat="43.58678" lon="1.32207">
        <ele>202.4</ele>
        <time>2024-05-20T05:46:44Z</time>
      </trkpt>
      <trkpt lat="43.58678" lon="1.32203">
        <ele>202.4</ele>
        <time>2024-05-20T05:46:45Z</time>
      </trkpt>
      <trkpt lat="43.58679" lon="1.32198">
        <ele>202.4</ele>
        <time>2024-05-20T05:46:46Z</time>
      </trkpt>
      <trkpt lat="43.58679" lon="1.32193">
        <ele>202.6</ele>
        <time>2024-05-20T05:46:47Z</time>
      </trkpt>
      <trkpt lat="43.58679" lon="1.32188">
        <ele>202.6</ele>
        <time>2024-05-20T05:46:48Z</time>
      </trkpt>
      <trkpt lat="43.5868" lon="1.32183">
        <ele>202.8</ele>
        <time>2024-05-20T05:46:49Z</time>
      </trkpt>
      <trkpt lat="43.58681" lon="1.32177">
        <ele>202.8</ele>
        <time>2024-05-20T05:46:50Z</time>
      </trkpt>
      <trkpt lat="43.58682" lon="1.32171">
        <ele>203</ele>
        <time>2024-05-20T05:46:51Z</time>
      </trkpt>
      <trkpt lat="43.58682" lon="1.32164">
        <ele>203</ele>
        <time>2024-05-20T05:46:52Z</time>
      </trkpt>
      <trkpt lat="43.58683" lon="1.32157">
        <ele>203.2</ele>
        <time>2024-05-20T05:46:53Z</time>
      </trkpt>
      <trkpt lat="43.58683" lon="1.3215">
        <ele>203.2</ele>
        <time>2024-05-20T05:46:54Z</time>
      </trkpt>
      <trkpt lat="43.58684" lon="1.32143">
        <ele>203.4</ele>
        <time>2024-05-20T05:46:55Z</time>
      </trkpt>
      <trkpt lat="43.58684" lon="1.32136">
        <ele>203.4</ele>
        <time>2024-05-20T05:46:56Z</time>
      </trkpt>
      <trkpt lat="43.58685" lon="1.32128">
        <ele>203.4</ele>
        <time>2024-05-20T05:46:57Z</time>
      </trkpt>
      <trkpt lat="43.58685" lon="1.3212">
        <ele>203.4</ele>
        <time>2024-05-20T05:46:58Z</time>
      </trkpt>
      <trkpt lat="43.58686" lon="1.32112">
        <ele>203.6</ele>
        <time>2024-05-20T05:46:59Z</time>
      </trkpt>
      <trkpt lat="43.58686" lon="1.32104">
        <ele>203.6</ele>
        <time>2024-05-20T05:47:00Z</time>
      </trkpt>
      <trkpt lat="43.58686" lon="1.32095">
        <ele>203.6</ele>
        <time>2024-05-20T05:47:01Z</time>
      </trkpt>
      <trkpt lat="43.58686" lon="1.32086">
        <ele>203.6</ele>
        <time>2024-05-20T05:47:02Z</time>
      </trkpt>
      <trkpt lat="43.58686" lon="1.32078">
        <ele>203.6</ele>
        <time>2024-05-20T05:47:03Z</time>
      </trkpt>
      <trkpt lat="43.58686" lon="1.3207">
        <ele>203.6</ele>
        <time>2024-05-20T05:47:04Z</time>
      </trkpt>
      <trkpt lat="43.58686" lon="1.32061">
        <ele>203.4</ele>
        <time>2024-05-20T05:47:05Z</time>
      </trkpt>
      <trkpt lat="43.58686" lon="1.32053">
        <ele>203.4</ele>
        <time>2024-05-20T05:47:06Z</time>
      </trkpt>
      <trkpt lat="43.58685" lon="1.32045">
        <ele>203.4</ele>
        <time>2024-05-20T05:47:07Z</time>
      </trkpt>
      <trkpt lat="43.58685" lon="1.32037">
        <ele>203.2</ele>
        <time>2024-05-20T05:47:08Z</time>
      </trkpt>
      <trkpt lat="43.58685" lon="1.3203">
        <ele>203.2</ele>
        <time>2024-05-20T05:47:09Z</time>
      </trkpt>
      <trkpt lat="43.58685" lon="1.32023">
        <ele>203</ele>
        <time>2024-05-20T05:47:10Z</time>
      </trkpt>
      <trkpt lat="43.58685" lon="1.32016">
        <ele>203</ele>
        <time>2024-05-20T05:47:11Z</time>
      </trkpt>
      <trkpt lat="43.58685" lon="1.32009">
        <ele>202.8</ele>
        <time>2024-05-20T05:47:12Z</time>
      </trkpt>
      <trkpt lat="43.58683" lon="1.32001">
        <ele>202.8</ele>
        <time>2024-05-20T05:47:13Z</time>
      </trkpt>
      <trkpt lat="43.58682" lon="1.31993">
        <ele>202.8</ele>
        <time>2024-05-20T05:47:14Z</time>
      </trkpt>
      <trkpt lat="43.5868" lon="1.31987">
        <ele>202.8</ele>
        <time>2024-05-20T05:47:15Z</time>
      </trkpt>
      <trkpt lat="43.58676" lon="1.31982">
        <ele>202.8</ele>
        <time>2024-05-20T05:47:16Z</time>
      </trkpt>
      <trkpt lat="43.58672" lon="1.31977">
        <ele>203</ele>
        <time>2024-05-20T05:47:17Z</time>
      </trkpt>
      <trkpt lat="43.58669" lon="1.31971">
        <ele>203</ele>
        <time>2024-05-20T05:47:18Z</time>
      </trkpt>
      <trkpt lat="43.58666" lon="1.31966">
        <ele>203.2</ele>
        <time>2024-05-20T05:47:19Z</time>
      </trkpt>
      <trkpt lat="43.58663" lon="1.31961">
        <ele>203.2</ele>
        <time>2024-05-20T05:47:20Z</time>
      </trkpt>
      <trkpt lat="43.58659" lon="1.31955">
        <ele>203.6</ele>
        <time>2024-05-20T05:47:21Z</time>
      </trkpt>
      <trkpt lat="43.58655" lon="1.31949">
        <ele>203.6</ele>
        <time>2024-05-20T05:47:22Z</time>
      </trkpt>
      <trkpt lat="43.58651" lon="1.31943">
        <ele>203.6</ele>
        <time>2024-05-20T05:47:23Z</time>
      </trkpt>
      <trkpt lat="43.58647" lon="1.31937">
        <ele>203.4</ele>
        <time>2024-05-20T05:47:24Z</time>
      </trkpt>
      <trkpt lat="43.58643" lon="1.3193">
        <ele>203.6</ele>
        <time>2024-05-20T05:47:25Z</time>
      </trkpt>
      <trkpt lat="43.5864" lon="1.31923">
        <ele>203.6</ele>
        <time>2024-05-20T05:47:26Z</time>
      </trkpt>
      <trkpt lat="43.58636" lon="1.31917">
        <ele>203.6</ele>
        <time>2024-05-20T05:47:27Z</time>
      </trkpt>
      <trkpt lat="43.58632" lon="1.3191">
        <ele>203.8</ele>
        <time>2024-05-20T05:47:28Z</time>
      </trkpt>
      <trkpt lat="43.58628" lon="1.31903">
        <ele>203.8</ele>
        <time>2024-05-20T05:47:29Z</time>
      </trkpt>
      <trkpt lat="43.58624" lon="1.31897">
        <ele>203.8</ele>
        <time>2024-05-20T05:47:30Z</time>
      </trkpt>
      <trkpt lat="43.5862" lon="1.31891">
        <ele>203.8</ele>
        <time>2024-05-20T05:47:31Z</time>
      </trkpt>
      <trkpt lat="43.58615" lon="1.31885">
        <ele>204</ele>
        <time>2024-05-20T05:47:32Z</time>
      </trkpt>
      <trkpt lat="43.58609" lon="1.31879">
        <ele>204</ele>
        <time>2024-05-20T05:47:33Z</time>
      </trkpt>
      <trkpt lat="43.58604" lon="1.31874">
        <ele>204</ele>
        <time>2024-05-20T05:47:34Z</time>
      </trkpt>
      <trkpt lat="43.58598" lon="1.3187">
        <ele>204</ele>
        <time>2024-05-20T05:47:35Z</time>
      </trkpt>
      <trkpt lat="43.58593" lon="1.31866">
        <ele>204</ele>
        <time>2024-05-20T05:47:36Z</time>
      </trkpt>
      <trkpt lat="43.58588" lon="1.31861">
        <ele>204</ele>
        <time>2024-05-20T05:47:37Z</time>
      </trkpt>
      <trkpt lat="43.58583" lon="1.31857">
        <ele>204.2</ele>
        <time>2024-05-20T05:47:38Z</time>
      </trkpt>
      <trkpt lat="43.58577" lon="1.31853">
        <ele>204.2</ele>
        <time>2024-05-20T05:47:39Z</time>
      </trkpt>
      <trkpt lat="43.58572" lon="1.31848">
        <ele>204.2</ele>
        <time>2024-05-20T05:47:40Z</time>
      </trkpt>
      <trkpt lat="43.58567" lon="1.31844">
        <ele>204.4</ele>
        <time>2024-05-20T05:47:41Z</time>
      </trkpt>
      <trkpt lat="43.58562" lon="1.31839">
        <ele>204.6</ele>
        <time>2024-05-20T05:47:42Z</time>
      </trkpt>
      <trkpt lat="43.58557" lon="1.31835">
        <ele>204.8</ele>
        <time>2024-05-20T05:47:43Z</time>
      </trkpt>
      <trkpt lat="43.58552" lon="1.3183">
        <ele>205</ele>
        <time>2024-05-20T05:47:44Z</time>
      </trkpt>
      <trkpt lat="43.58547" lon="1.31824">
        <ele>205</ele>
        <time>2024-05-20T05:47:45Z</time>
      </trkpt>
      <trkpt lat="43.58542" lon="1.31819">
        <ele>205</ele>
        <time>2024-05-20T05:47:46Z</time>
      </trkpt>
      <trkpt lat="43.58538" lon="1.31814">
        <ele>205.2</ele>
        <time>2024-05-20T05:47:47Z</time>
      </trkpt>
      <trkpt lat="43.58533" lon="1.31809">
        <ele>205.2</ele>
        <time>2024-05-20T05:47:48Z</time>
      </trkpt>
      <trkpt lat="43.58528" lon="1.31804">
        <ele>205.4</ele>
        <time>2024-05-20T05:47:49Z</time>
      </trkpt>
      <trkpt lat="43.58523" lon="1.31799">
        <ele>205.4</ele>
        <time>2024-05-20T05:47:50Z</time>
      </trkpt>
      <trkpt lat="43.58519" lon="1.31793">
        <ele>205.4</ele>
        <time>2024-05-20T05:47:51Z</time>
      </trkpt>
      <trkpt lat="43.58514" lon="1.31788">
        <ele>205.6</ele>
        <time>2024-05-20T05:47:52Z</time>
      </trkpt>
      <trkpt lat="43.5851" lon="1.31782">
        <ele>205.6</ele>
        <time>2024-05-20T05:47:53Z</time>
      </trkpt>
      <trkpt lat="43.58505" lon="1.31777">
        <ele>205.6</ele>
        <time>2024-05-20T05:47:54Z</time>
      </trkpt>
      <trkpt lat="43.585" lon="1.31772">
        <ele>205.8</ele>
        <time>2024-05-20T05:47:55Z</time>
      </trkpt>
      <trkpt lat="43.58495" lon="1.31766">
        <ele>205.8</ele>
        <time>2024-05-20T05:47:56Z</time>
      </trkpt>
      <trkpt lat="43.58491" lon="1.3176">
        <ele>206</ele>
        <time>2024-05-20T05:47:57Z</time>
      </trkpt>
      <trkpt lat="43.58486" lon="1.31754">
        <ele>206</ele>
        <time>2024-05-20T05:47:58Z</time>
      </trkpt>
      <trkpt lat="43.58482" lon="1.31749">
        <ele>206</ele>
        <time>2024-05-20T05:47:59Z</time>
      </trkpt>
      <trkpt lat="43.58477" lon="1.31743">
        <ele>206</ele>
        <time>2024-05-20T05:48:00Z</time>
      </trkpt>
      <trkpt lat="43.58472" lon="1.31738">
        <ele>206.2</ele>
        <time>2024-05-20T05:48:01Z</time>
      </trkpt>
      <trkpt lat="43.58467" lon="1.31733">
        <ele>206.2</ele>
        <time>2024-05-20T05:48:02Z</time>
      </trkpt>
      <trkpt lat="43.58463" lon="1.31727">
        <ele>206.4</ele>
        <time>2024-05-20T05:48:03Z</time>
      </trkpt>
      <trkpt lat="43.58458" lon="1.31722">
        <ele>206.4</ele>
        <time>2024-05-20T05:48:04Z</time>
      </trkpt>
      <trkpt lat="43.58453" lon="1.31716">
        <ele>206.4</ele>
        <time>2024-05-20T05:48:05Z</time>
      </trkpt>
      <trkpt lat="43.58449" lon="1.3171">
        <ele>206.4</ele>
        <time>2024-05-20T05:48:06Z</time>
      </trkpt>
      <trkpt lat="43.58444" lon="1.31705">
        <ele>206.6</ele>
        <time>2024-05-20T05:48:07Z</time>
      </trkpt>
      <trkpt lat="43.58439" lon="1.31699">
        <ele>206.6</ele>
        <time>2024-05-20T05:48:08Z</time>
      </trkpt>
      <trkpt lat="43.58435" lon="1.31693">
        <ele>206.6</ele>
        <time>2024-05-20T05:48:09Z</time>
      </trkpt>
      <trkpt lat="43.5843" lon="1.31688">
        <ele>206.6</ele>
        <time>2024-05-20T05:48:10Z</time>
      </trkpt>
      <trkpt lat="43.58425" lon="1.31682">
        <ele>206.6</ele>
        <time>2024-05-20T05:48:11Z</time>
      </trkpt>
      <trkpt lat="43.58421" lon="1.31675">
        <ele>206.6</ele>
        <time>2024-05-20T05:48:12Z</time>
      </trkpt>
      <trkpt lat="43.58416" lon="1.3167">
        <ele>206.6</ele>
        <time>2024-05-20T05:48:13Z</time>
      </trkpt>
      <trkpt lat="43.58412" lon="1.31664">
        <ele>206.2</ele>
        <time>2024-05-20T05:48:14Z</time>
      </trkpt>
      <trkpt lat="43.58408" lon="1.3166">
        <ele>206.2</ele>
        <time>2024-05-20T05:48:15Z</time>
      </trkpt>
      <trkpt lat="43.58404" lon="1.31656">
        <ele>206</ele>
        <time>2024-05-20T05:48:16Z</time>
      </trkpt>
      <trkpt lat="43.58401" lon="1.31653">
        <ele>206</ele>
        <time>2024-05-20T05:48:17Z</time>
      </trkpt>
      <trkpt lat="43.58399" lon="1.31651">
        <ele>206</ele>
        <time>2024-05-20T05:48:18Z</time>
      </trkpt>
      <trkpt lat="43.58398" lon="1.3165">
        <ele>206</ele>
        <time>2024-05-20T05:48:19Z</time>
      </trkpt>
      <trkpt lat="43.58396" lon="1.3165">
        <ele>205.8</ele>
        <time>2024-05-20T05:48:20Z</time>
      </trkpt>
      <trkpt lat="43.58394" lon="1.31648">
        <ele>205.6</ele>
        <time>2024-05-20T05:48:21Z</time>
      </trkpt>
      <trkpt lat="43.58392" lon="1.31645">
        <ele>205.6</ele>
        <time>2024-05-20T05:48:22Z</time>
      </trkpt>
      <trkpt lat="43.5839" lon="1.31642">
        <ele>205.4</ele>
        <time>2024-05-20T05:48:23Z</time>
      </trkpt>
      <trkpt lat="43.58387" lon="1.31639">
        <ele>205.4</ele>
        <time>2024-05-20T05:48:24Z</time>
      </trkpt>
      <trkpt lat="43.58384" lon="1.31634">
        <ele>205.2</ele>
        <time>2024-05-20T05:48:25Z</time>
      </trkpt>
      <trkpt lat="43.5838" lon="1.31631">
        <ele>205</ele>
        <time>2024-05-20T05:48:26Z</time>
      </trkpt>
      <trkpt lat="43.58376" lon="1.31626">
        <ele>205</ele>
        <time>2024-05-20T05:48:27Z</time>
      </trkpt>
      <trkpt lat="43.58371" lon="1.31621">
        <ele>205</ele>
        <time>2024-05-20T05:48:28Z</time>
      </trkpt>
      <trkpt lat="43.58366" lon="1.31615">
        <ele>204.8</ele>
        <time>2024-05-20T05:48:29Z</time>
      </trkpt>
      <trkpt lat="43.58361" lon="1.3161">
        <ele>204</ele>
        <time>2024-05-20T05:48:30Z</time>
      </trkpt>
      <trkpt lat="43.58355" lon="1.31605">
        <ele>203.8</ele>
        <time>2024-05-20T05:48:31Z</time>
      </trkpt>
      <trkpt lat="43.58349" lon="1.316">
        <ele>203.2</ele>
        <time>2024-05-20T05:48:32Z</time>
      </trkpt>
      <trkpt lat="43.58344" lon="1.31594">
        <ele>202.6</ele>
        <time>2024-05-20T05:48:33Z</time>
      </trkpt>
      <trkpt lat="43.58337" lon="1.31588">
        <ele>201.6</ele>
        <time>2024-05-20T05:48:34Z</time>
      </trkpt>
      <trkpt lat="43.58331" lon="1.31581">
        <ele>201.2</ele>
        <time>2024-05-20T05:48:35Z</time>
      </trkpt>
      <trkpt lat="43.58327" lon="1.31577">
        <ele>200</ele>
        <time>2024-05-20T05:48:36Z</time>
      </trkpt>
      <trkpt lat="43.58323" lon="1.31573">
        <ele>198.4</ele>
        <time>2024-05-20T05:48:37Z</time>
      </trkpt>
      <trkpt lat="43.58321" lon="1.31571">
        <ele>197.6</ele>
        <time>2024-05-20T05:48:38Z</time>
      </trkpt>
      <trkpt lat="43.58318" lon="1.3157">
        <ele>196.4</ele>
        <time>2024-05-20T05:48:39Z</time>
      </trkpt>
      <trkpt lat="43.58314" lon="1.31568">
        <ele>195.8</ele>
        <time>2024-05-20T05:48:40Z</time>
      </trkpt>
      <trkpt lat="43.5831" lon="1.31564">
        <ele>194.6</ele>
        <time>2024-05-20T05:48:41Z</time>
      </trkpt>
      <trkpt lat="43.58304" lon="1.31558">
        <ele>194.2</ele>
        <time>2024-05-20T05:48:42Z</time>
      </trkpt>
      <trkpt lat="43.583" lon="1.31554">
        <ele>193.8</ele>
        <time>2024-05-20T05:48:43Z</time>
      </trkpt>
      <trkpt lat="43.58294" lon="1.31549">
        <ele>193</ele>
        <time>2024-05-20T05:48:44Z</time>
      </trkpt>
      <trkpt lat="43.58289" lon="1.31542">
        <ele>192.6</ele>
        <time>2024-05-20T05:48:45Z</time>
      </trkpt>
      <trkpt lat="43.58283" lon="1.31535">
        <ele>191.8</ele>
        <time>2024-05-20T05:48:46Z</time>
      </trkpt>
      <trkpt lat="43.58276" lon="1.31528">
        <ele>191.6</ele>
        <time>2024-05-20T05:48:47Z</time>
      </trkpt>
      <trkpt lat="43.58271" lon="1.31523">
        <ele>191</ele>
        <time>2024-05-20T05:48:48Z</time>
      </trkpt>
      <trkpt lat="43.58264" lon="1.31517">
        <ele>190.8</ele>
        <time>2024-05-20T05:48:49Z</time>
      </trkpt>
      <trkpt lat="43.58258" lon="1.31511">
        <ele>190.4</ele>
        <time>2024-05-20T05:48:50Z</time>
      </trkpt>
      <trkpt lat="43.58251" lon="1.31506">
        <ele>190</ele>
        <time>2024-05-20T05:48:51Z</time>
      </trkpt>
      <trkpt lat="43.58245" lon="1.31501">
        <ele>189</ele>
        <time>2024-05-20T05:48:52Z</time>
      </trkpt>
      <trkpt lat="43.58238" lon="1.31497">
        <ele>188.6</ele>
        <time>2024-05-20T05:48:53Z</time>
      </trkpt>
      <trkpt lat="43.58231" lon="1.31492">
        <ele>188.6</ele>
        <time>2024-05-20T05:48:54Z</time>
      </trkpt>
      <trkpt lat="43.58224" lon="1.31486">
        <ele>188.2</ele>
        <time>2024-05-20T05:48:55Z</time>
      </trkpt>
      <trkpt lat="43.58219" lon="1.31478">
        <ele>187.8</ele>
        <time>2024-05-20T05:48:56Z</time>
      </trkpt>
      <trkpt lat="43.58213" lon="1.31471">
        <ele>187.4</ele>
        <time>2024-05-20T05:48:57Z</time>
      </trkpt>
      <trkpt lat="43.58207" lon="1.31463">
        <ele>187.2</ele>
        <time>2024-05-20T05:48:58Z</time>
      </trkpt>
      <trkpt lat="43.58201" lon="1.31455">
        <ele>186.8</ele>
        <time>2024-05-20T05:48:59Z</time>
      </trkpt>
      <trkpt lat="43.58196" lon="1.31447">
        <ele>186.6</ele>
        <time>2024-05-20T05:49:00Z</time>
      </trkpt>
      <trkpt lat="43.5819" lon="1.31439">
        <ele>186.2</ele>
        <time>2024-05-20T05:49:01Z</time>
      </trkpt>
      <trkpt lat="43.58184" lon="1.31431">
        <ele>186</ele>
        <time>2024-05-20T05:49:02Z</time>
      </trkpt>
      <trkpt lat="43.58178" lon="1.31423">
        <ele>185.8</ele>
        <time>2024-05-20T05:49:03Z</time>
      </trkpt>
      <trkpt lat="43.58172" lon="1.31415">
        <ele>185.4</ele>
        <time>2024-05-20T05:49:04Z</time>
      </trkpt>
      <trkpt lat="43.58166" lon="1.31407">
        <ele>185.2</ele>
        <time>2024-05-20T05:49:05Z</time>
      </trkpt>
      <trkpt lat="43.58161" lon="1.31399">
        <ele>184.8</ele>
        <time>2024-05-20T05:49:06Z</time>
      </trkpt>
      <trkpt lat="43.58155" lon="1.31391">
        <ele>184.6</ele>
        <time>2024-05-20T05:49:07Z</time>
      </trkpt>
      <trkpt lat="43.58149" lon="1.31382">
        <ele>184.4</ele>
        <time>2024-05-20T05:49:08Z</time>
      </trkpt>
      <trkpt lat="43.58144" lon="1.31374">
        <ele>184.2</ele>
        <time>2024-05-20T05:49:09Z</time>
      </trkpt>
      <trkpt lat="43.58138" lon="1.31367">
        <ele>183.8</ele>
        <time>2024-05-20T05:49:10Z</time>
      </trkpt>
      <trkpt lat="43.58132" lon="1.31359">
        <ele>183.6</ele>
        <time>2024-05-20T05:49:11Z</time>
      </trkpt>
      <trkpt lat="43.58127" lon="1.31352">
        <ele>183.6</ele>
        <time>2024-05-20T05:49:12Z</time>
      </trkpt>
      <trkpt lat="43.58121" lon="1.31344">
        <ele>183.4</ele>
        <time>2024-05-20T05:49:13Z</time>
      </trkpt>
      <trkpt lat="43.58116" lon="1.31337">
        <ele>183.4</ele>
        <time>2024-05-20T05:49:14Z</time>
      </trkpt>
      <trkpt lat="43.5811" lon="1.3133">
        <ele>183.4</ele>
        <time>2024-05-20T05:49:15Z</time>
      </trkpt>
      <trkpt lat="43.58105" lon="1.31322">
        <ele>183.4</ele>
        <time>2024-05-20T05:49:16Z</time>
      </trkpt>
      <trkpt lat="43.58099" lon="1.31315">
        <ele>183.2</ele>
        <time>2024-05-20T05:49:17Z</time>
      </trkpt>
      <trkpt lat="43.58094" lon="1.31308">
        <ele>183</ele>
        <time>2024-05-20T05:49:18Z</time>
      </trkpt>
      <trkpt lat="43.58088" lon="1.313">
        <ele>183.2</ele>
        <time>2024-05-20T05:49:19Z</time>
      </trkpt>
      <trkpt lat="43.58083" lon="1.31293">
        <ele>183</ele>
        <time>2024-05-20T05:49:20Z</time>
      </trkpt>
      <trkpt lat="43.58078" lon="1.31285">
        <ele>183</ele>
        <time>2024-05-20T05:49:21Z</time>
      </trkpt>
      <trkpt lat="43.58074" lon="1.31277">
        <ele>182.8</ele>
        <time>2024-05-20T05:49:22Z</time>
      </trkpt>
      <trkpt lat="43.58069" lon="1.3127">
        <ele>182.8</ele>
        <time>2024-05-20T05:49:23Z</time>
      </trkpt>
      <trkpt lat="43.58064" lon="1.31263">
        <ele>182.8</ele>
        <time>2024-05-20T05:49:24Z</time>
      </trkpt>
      <trkpt lat="43.58059" lon="1.31257">
        <ele>182.8</ele>
        <time>2024-05-20T05:49:25Z</time>
      </trkpt>
      <trkpt lat="43.58053" lon="1.3125">
        <ele>182.8</ele>
        <time>2024-05-20T05:49:26Z</time>
      </trkpt>
      <trkpt lat="43.58048" lon="1.31243">
        <ele>182.8</ele>
        <time>2024-05-20T05:49:27Z</time>
      </trkpt>
      <trkpt lat="43.58042" lon="1.31237">
        <ele>182.8</ele>
        <time>2024-05-20T05:49:28Z</time>
      </trkpt>
      <trkpt lat="43.58037" lon="1.3123">
        <ele>182.8</ele>
        <time>2024-05-20T05:49:29Z</time>
      </trkpt>
      <trkpt lat="43.58032" lon="1.31223">
        <ele>182.8</ele>
        <time>2024-05-20T05:49:30Z</time>
      </trkpt>
      <trkpt lat="43.58027" lon="1.31217">
        <ele>182.8</ele>
        <time>2024-05-20T05:49:31Z</time>
      </trkpt>
      <trkpt lat="43.58021" lon="1.3121">
        <ele>182.8</ele>
        <time>2024-05-20T05:49:32Z</time>
      </trkpt>
      <trkpt lat="43.58017" lon="1.31204">
        <ele>182.8</ele>
        <time>2024-05-20T05:49:33Z</time>
      </trkpt>
      <trkpt lat="43.58012" lon="1.31197">
        <ele>182.8</ele>
        <time>2024-05-20T05:49:34Z</time>
      </trkpt>
      <trkpt lat="43.58007" lon="1.31191">
        <ele>182.8</ele>
        <time>2024-05-20T05:49:35Z</time>
      </trkpt>
      <trkpt lat="43.58002" lon="1.31184">
        <ele>182.8</ele>
        <time>2024-05-20T05:49:36Z</time>
      </trkpt>
      <trkpt lat="43.57997" lon="1.31178">
        <ele>182.8</ele>
        <time>2024-05-20T05:49:37Z</time>
      </trkpt>
      <trkpt lat="43.57991" lon="1.31172">
        <ele>182.8</ele>
        <time>2024-05-20T05:49:38Z</time>
      </trkpt>
      <trkpt lat="43.57986" lon="1.31166">
        <ele>182.8</ele>
        <time>2024-05-20T05:49:39Z</time>
      </trkpt>
      <trkpt lat="43.57981" lon="1.31159">
        <ele>182.8</ele>
        <time>2024-05-20T05:49:40Z</time>
      </trkpt>
      <trkpt lat="43.57975" lon="1.31153">
        <ele>182.8</ele>
        <time>2024-05-20T05:49:41Z</time>
      </trkpt>
      <trkpt lat="43.5797" lon="1.31147">
        <ele>182.8</ele>
        <time>2024-05-20T05:49:42Z</time>
      </trkpt>
      <trkpt lat="43.57964" lon="1.31141">
        <ele>182.8</ele>
        <time>2024-05-20T05:49:43Z</time>
      </trkpt>
      <trkpt lat="43.57959" lon="1.31134">
        <ele>182.8</ele>
        <time>2024-05-20T05:49:44Z</time>
      </trkpt>
      <trkpt lat="43.57953" lon="1.31128">
        <ele>182.8</ele>
        <time>2024-05-20T05:49:45Z</time>
      </trkpt>
      <trkpt lat="43.57947" lon="1.31122">
        <ele>182.6</ele>
        <time>2024-05-20T05:49:46Z</time>
      </trkpt>
      <trkpt lat="43.57942" lon="1.31116">
        <ele>182.6</ele>
        <time>2024-05-20T05:49:47Z</time>
      </trkpt>
      <trkpt lat="43.57936" lon="1.3111">
        <ele>182.6</ele>
        <time>2024-05-20T05:49:48Z</time>
      </trkpt>
      <trkpt lat="43.5793" lon="1.31103">
        <ele>182.4</ele>
        <time>2024-05-20T05:49:49Z</time>
      </trkpt>
      <trkpt lat="43.57924" lon="1.31097">
        <ele>182.4</ele>
        <time>2024-05-20T05:49:50Z</time>
      </trkpt>
      <trkpt lat="43.57919" lon="1.31091">
        <ele>182.4</ele>
        <time>2024-05-20T05:49:51Z</time>
      </trkpt>
      <trkpt lat="43.57913" lon="1.31085">
        <ele>182.2</ele>
        <time>2024-05-20T05:49:52Z</time>
      </trkpt>
      <trkpt lat="43.57907" lon="1.31079">
        <ele>182.2</ele>
        <time>2024-05-20T05:49:53Z</time>
      </trkpt>
      <trkpt lat="43.57901" lon="1.31073">
        <ele>182.2</ele>
        <time>2024-05-20T05:49:54Z</time>
      </trkpt>
      <trkpt lat="43.57895" lon="1.31067">
        <ele>182.2</ele>
        <time>2024-05-20T05:49:55Z</time>
      </trkpt>
      <trkpt lat="43.5789" lon="1.31061">
        <ele>182</ele>
        <time>2024-05-20T05:49:56Z</time>
      </trkpt>
      <trkpt lat="43.57884" lon="1.31055">
        <ele>182</ele>
        <time>2024-05-20T05:49:57Z</time>
      </trkpt>
      <trkpt lat="43.57878" lon="1.31049">
        <ele>182</ele>
        <time>2024-05-20T05:49:58Z</time>
      </trkpt>
      <trkpt lat="43.57872" lon="1.31044">
        <ele>182</ele>
        <time>2024-05-20T05:49:59Z</time>
      </trkpt>
      <trkpt lat="43.57866" lon="1.31038">
        <ele>182</ele>
        <time>2024-05-20T05:50:00Z</time>
      </trkpt>
      <trkpt lat="43.57861" lon="1.31032">
        <ele>182</ele>
        <time>2024-05-20T05:50:01Z</time>
      </trkpt>
      <trkpt lat="43.57855" lon="1.31027">
        <ele>182</ele>
        <time>2024-05-20T05:50:02Z</time>
      </trkpt>
      <trkpt lat="43.57849" lon="1.31021">
        <ele>182</ele>
        <time>2024-05-20T05:50:03Z</time>
      </trkpt>
      <trkpt lat="43.57843" lon="1.31015">
        <ele>182</ele>
        <time>2024-05-20T05:50:04Z</time>
      </trkpt>
      <trkpt lat="43.57837" lon="1.31009">
        <ele>182</ele>
        <time>2024-05-20T05:50:05Z</time>
      </trkpt>
      <trkpt lat="43.57831" lon="1.31004">
        <ele>182</ele>
        <time>2024-05-20T05:50:06Z</time>
      </trkpt>
      <trkpt lat="43.57826" lon="1.30998">
        <ele>182</ele>
        <time>2024-05-20T05:50:07Z</time>
      </trkpt>
      <trkpt lat="43.5782" lon="1.30992">
        <ele>182</ele>
        <time>2024-05-20T05:50:08Z</time>
      </trkpt>
      <trkpt lat="43.57814" lon="1.30986">
        <ele>182</ele>
        <time>2024-05-20T05:50:09Z</time>
      </trkpt>
      <trkpt lat="43.57808" lon="1.30979">
        <ele>182</ele>
        <time>2024-05-20T05:50:10Z</time>
      </trkpt>
      <trkpt lat="43.57802" lon="1.30973">
        <ele>181.8</ele>
        <time>2024-05-20T05:50:11Z</time>
      </trkpt>
      <trkpt lat="43.57797" lon="1.30967">
        <ele>181.8</ele>
        <time>2024-05-20T05:50:12Z</time>
      </trkpt>
      <trkpt lat="43.57791" lon="1.30961">
        <ele>181.8</ele>
        <time>2024-05-20T05:50:13Z</time>
      </trkpt>
      <trkpt lat="43.57785" lon="1.30955">
        <ele>181.8</ele>
        <time>2024-05-20T05:50:14Z</time>
      </trkpt>
      <trkpt lat="43.5778" lon="1.30949">
        <ele>181.8</ele>
        <time>2024-05-20T05:50:15Z</time>
      </trkpt>
      <trkpt lat="43.57774" lon="1.30943">
        <ele>181.8</ele>
        <time>2024-05-20T05:50:16Z</time>
      </trkpt>
      <trkpt lat="43.57768" lon="1.30937">
        <ele>181.8</ele>
        <time>2024-05-20T05:50:17Z</time>
      </trkpt>
      <trkpt lat="43.57762" lon="1.30931">
        <ele>181.8</ele>
        <time>2024-05-20T05:50:18Z</time>
      </trkpt>
      <trkpt lat="43.57757" lon="1.30925">
        <ele>181.8</ele>
        <time>2024-05-20T05:50:19Z</time>
      </trkpt>
      <trkpt lat="43.57751" lon="1.30919">
        <ele>181.8</ele>
        <time>2024-05-20T05:50:20Z</time>
      </trkpt>
      <trkpt lat="43.57745" lon="1.30914">
        <ele>181.6</ele>
        <time>2024-05-20T05:50:21Z</time>
      </trkpt>
      <trkpt lat="43.57739" lon="1.30908">
        <ele>181.6</ele>
        <time>2024-05-20T05:50:22Z</time>
      </trkpt>
      <trkpt lat="43.57734" lon="1.30902">
        <ele>181.8</ele>
        <time>2024-05-20T05:50:23Z</time>
      </trkpt>
      <trkpt lat="43.57728" lon="1.30896">
        <ele>181.8</ele>
        <time>2024-05-20T05:50:24Z</time>
      </trkpt>
      <trkpt lat="43.57722" lon="1.30889">
        <ele>181.8</ele>
        <time>2024-05-20T05:50:25Z</time>
      </trkpt>
      <trkpt lat="43.57716" lon="1.30883">
        <ele>181.8</ele>
        <time>2024-05-20T05:50:26Z</time>
      </trkpt>
      <trkpt lat="43.5771" lon="1.30877">
        <ele>181.8</ele>
        <time>2024-05-20T05:50:27Z</time>
      </trkpt>
      <trkpt lat="43.57704" lon="1.30871">
        <ele>182</ele>
        <time>2024-05-20T05:50:28Z</time>
      </trkpt>
      <trkpt lat="43.577" lon="1.30867">
        <ele>182</ele>
        <time>2024-05-20T05:50:29Z</time>
      </trkpt>
      <trkpt lat="43.57694" lon="1.30861">
        <ele>182</ele>
        <time>2024-05-20T05:50:30Z</time>
      </trkpt>
      <trkpt lat="43.57687" lon="1.30854">
        <ele>182</ele>
        <time>2024-05-20T05:50:31Z</time>
      </trkpt>
      <trkpt lat="43.57681" lon="1.30848">
        <ele>182</ele>
        <time>2024-05-20T05:50:32Z</time>
      </trkpt>
      <trkpt lat="43.57676" lon="1.30843">
        <ele>182</ele>
        <time>2024-05-20T05:50:33Z</time>
      </trkpt>
      <trkpt lat="43.57671" lon="1.30838">
        <ele>182</ele>
        <time>2024-05-20T05:50:34Z</time>
      </trkpt>
      <trkpt lat="43.57666" lon="1.30832">
        <ele>182</ele>
        <time>2024-05-20T05:50:35Z</time>
      </trkpt>
      <trkpt lat="43.57659" lon="1.30825">
        <ele>182</ele>
        <time>2024-05-20T05:50:36Z</time>
      </trkpt>
      <trkpt lat="43.57654" lon="1.30818">
        <ele>182</ele>
        <time>2024-05-20T05:50:37Z</time>
      </trkpt>
      <trkpt lat="43.57649" lon="1.30812">
        <ele>182</ele>
        <time>2024-05-20T05:50:38Z</time>
      </trkpt>
      <trkpt lat="43.57645" lon="1.30807">
        <ele>182</ele>
        <time>2024-05-20T05:50:39Z</time>
      </trkpt>
      <trkpt lat="43.57639" lon="1.308">
        <ele>182</ele>
        <time>2024-05-20T05:50:40Z</time>
      </trkpt>
      <trkpt lat="43.57633" lon="1.30792">
        <ele>181.8</ele>
        <time>2024-05-20T05:50:41Z</time>
      </trkpt>
      <trkpt lat="43.57628" lon="1.30785">
        <ele>181.8</ele>
        <time>2024-05-20T05:50:42Z</time>
      </trkpt>
      <trkpt lat="43.57622" lon="1.30779">
        <ele>181.8</ele>
        <time>2024-05-20T05:50:43Z</time>
      </trkpt>
      <trkpt lat="43.57618" lon="1.30774">
        <ele>181.8</ele>
        <time>2024-05-20T05:50:44Z</time>
      </trkpt>
      <trkpt lat="43.57613" lon="1.30767">
        <ele>181.8</ele>
        <time>2024-05-20T05:50:45Z</time>
      </trkpt>
      <trkpt lat="43.57607" lon="1.30759">
        <ele>181.8</ele>
        <time>2024-05-20T05:50:46Z</time>
      </trkpt>
      <trkpt lat="43.57602" lon="1.30752">
        <ele>181.8</ele>
        <time>2024-05-20T05:50:47Z</time>
      </trkpt>
      <trkpt lat="43.57597" lon="1.30745">
        <ele>181.8</ele>
        <time>2024-05-20T05:50:48Z</time>
      </trkpt>
      <trkpt lat="43.57592" lon="1.30739">
        <ele>181.8</ele>
        <time>2024-05-20T05:50:49Z</time>
      </trkpt>
      <trkpt lat="43.57588" lon="1.30733">
        <ele>181.6</ele>
        <time>2024-05-20T05:50:50Z</time>
      </trkpt>
      <trkpt lat="43.57582" lon="1.30727">
        <ele>181.6</ele>
        <time>2024-05-20T05:50:51Z</time>
      </trkpt>
      <trkpt lat="43.57576" lon="1.30719">
        <ele>181.6</ele>
        <time>2024-05-20T05:50:52Z</time>
      </trkpt>
      <trkpt lat="43.57571" lon="1.30712">
        <ele>181.6</ele>
        <time>2024-05-20T05:50:53Z</time>
      </trkpt>
      <trkpt lat="43.57565" lon="1.30706">
        <ele>181.6</ele>
        <time>2024-05-20T05:50:54Z</time>
      </trkpt>
      <trkpt lat="43.57561" lon="1.307">
        <ele>181.6</ele>
        <time>2024-05-20T05:50:55Z</time>
      </trkpt>
      <trkpt lat="43.57556" lon="1.30694">
        <ele>181.6</ele>
        <time>2024-05-20T05:50:56Z</time>
      </trkpt>
      <trkpt lat="43.5755" lon="1.30686">
        <ele>181.6</ele>
        <time>2024-05-20T05:50:57Z</time>
      </trkpt>
      <trkpt lat="43.57544" lon="1.3068">
        <ele>181.6</ele>
        <time>2024-05-20T05:50:58Z</time>
      </trkpt>
      <trkpt lat="43.57539" lon="1.30673">
        <ele>181.6</ele>
        <time>2024-05-20T05:50:59Z</time>
      </trkpt>
      <trkpt lat="43.57535" lon="1.30668">
        <ele>181.6</ele>
        <time>2024-05-20T05:51:00Z</time>
      </trkpt>
      <trkpt lat="43.57529" lon="1.30662">
        <ele>181.6</ele>
        <time>2024-05-20T05:51:01Z</time>
      </trkpt>
      <trkpt lat="43.57523" lon="1.30655">
        <ele>181.6</ele>
        <time>2024-05-20T05:51:02Z</time>
      </trkpt>
      <trkpt lat="43.57517" lon="1.30649">
        <ele>181.6</ele>
        <time>2024-05-20T05:51:03Z</time>
      </trkpt>
      <trkpt lat="43.57511" lon="1.30643">
        <ele>181.6</ele>
        <time>2024-05-20T05:51:04Z</time>
      </trkpt>
      <trkpt lat="43.57507" lon="1.30638">
        <ele>181.6</ele>
        <time>2024-05-20T05:51:05Z</time>
      </trkpt>
      <trkpt lat="43.57502" lon="1.30632">
        <ele>181.6</ele>
        <time>2024-05-20T05:51:06Z</time>
      </trkpt>
      <trkpt lat="43.57495" lon="1.30625">
        <ele>181.6</ele>
        <time>2024-05-20T05:51:07Z</time>
      </trkpt>
      <trkpt lat="43.57491" lon="1.3062">
        <ele>181.8</ele>
        <time>2024-05-20T05:51:08Z</time>
      </trkpt>
      <trkpt lat="43.57485" lon="1.30614">
        <ele>181.8</ele>
        <time>2024-05-20T05:51:09Z</time>
      </trkpt>
      <trkpt lat="43.5748" lon="1.30607">
        <ele>181.8</ele>
        <time>2024-05-20T05:51:10Z</time>
      </trkpt>
      <trkpt lat="43.57474" lon="1.30602">
        <ele>181.8</ele>
        <time>2024-05-20T05:51:11Z</time>
      </trkpt>
      <trkpt lat="43.57469" lon="1.30596">
        <ele>181.8</ele>
        <time>2024-05-20T05:51:12Z</time>
      </trkpt>
      <trkpt lat="43.57463" lon="1.3059">
        <ele>181.8</ele>
        <time>2024-05-20T05:51:13Z</time>
      </trkpt>
      <trkpt lat="43.57457" lon="1.30584">
        <ele>181.6</ele>
        <time>2024-05-20T05:51:14Z</time>
      </trkpt>
      <trkpt lat="43.57452" lon="1.30579">
        <ele>181.6</ele>
        <time>2024-05-20T05:51:15Z</time>
      </trkpt>
      <trkpt lat="43.57446" lon="1.30573">
        <ele>181.6</ele>
        <time>2024-05-20T05:51:16Z</time>
      </trkpt>
      <trkpt lat="43.57441" lon="1.30567">
        <ele>181.6</ele>
        <time>2024-05-20T05:51:17Z</time>
      </trkpt>
      <trkpt lat="43.57435" lon="1.30562">
        <ele>181.6</ele>
        <time>2024-05-20T05:51:18Z</time>
      </trkpt>
      <trkpt lat="43.5743" lon="1.30556">
        <ele>181.6</ele>
        <time>2024-05-20T05:51:19Z</time>
      </trkpt>
      <trkpt lat="43.57425" lon="1.30551">
        <ele>181.6</ele>
        <time>2024-05-20T05:51:20Z</time>
      </trkpt>
      <trkpt lat="43.57419" lon="1.30545">
        <ele>181.6</ele>
        <time>2024-05-20T05:51:21Z</time>
      </trkpt>
      <trkpt lat="43.57414" lon="1.30539">
        <ele>181.6</ele>
        <time>2024-05-20T05:51:22Z</time>
      </trkpt>
      <trkpt lat="43.57409" lon="1.30533">
        <ele>181.6</ele>
        <time>2024-05-20T05:51:23Z</time>
      </trkpt>
      <trkpt lat="43.57404" lon="1.30528">
        <ele>181.6</ele>
        <time>2024-05-20T05:51:24Z</time>
      </trkpt>
      <trkpt lat="43.57399" lon="1.30522">
        <ele>181.6</ele>
        <time>2024-05-20T05:51:25Z</time>
      </trkpt>
      <trkpt lat="43.57393" lon="1.30516">
        <ele>181.6</ele>
        <time>2024-05-20T05:51:26Z</time>
      </trkpt>
      <trkpt lat="43.57388" lon="1.3051">
        <ele>181.8</ele>
        <time>2024-05-20T05:51:27Z</time>
      </trkpt>
      <trkpt lat="43.57382" lon="1.30504">
        <ele>181.8</ele>
        <time>2024-05-20T05:51:28Z</time>
      </trkpt>
      <trkpt lat="43.57377" lon="1.30499">
        <ele>182</ele>
        <time>2024-05-20T05:51:29Z</time>
      </trkpt>
      <trkpt lat="43.57371" lon="1.30493">
        <ele>182</ele>
        <time>2024-05-20T05:51:30Z</time>
      </trkpt>
      <trkpt lat="43.57366" lon="1.30487">
        <ele>182.2</ele>
        <time>2024-05-20T05:51:31Z</time>
      </trkpt>
      <trkpt lat="43.5736" lon="1.30482">
        <ele>182</ele>
        <time>2024-05-20T05:51:32Z</time>
      </trkpt>
      <trkpt lat="43.57355" lon="1.30476">
        <ele>182.2</ele>
        <time>2024-05-20T05:51:33Z</time>
      </trkpt>
      <trkpt lat="43.57348" lon="1.30469">
        <ele>182.2</ele>
        <time>2024-05-20T05:51:34Z</time>
      </trkpt>
      <trkpt lat="43.57343" lon="1.30463">
        <ele>182.2</ele>
        <time>2024-05-20T05:51:35Z</time>
      </trkpt>
      <trkpt lat="43.57337" lon="1.30458">
        <ele>182.2</ele>
        <time>2024-05-20T05:51:36Z</time>
      </trkpt>
      <trkpt lat="43.57333" lon="1.30453">
        <ele>182.2</ele>
        <time>2024-05-20T05:51:37Z</time>
      </trkpt>
      <trkpt lat="43.57328" lon="1.30447">
        <ele>182.2</ele>
        <time>2024-05-20T05:51:38Z</time>
      </trkpt>
      <trkpt lat="43.57322" lon="1.30441">
        <ele>182.2</ele>
        <time>2024-05-20T05:51:39Z</time>
      </trkpt>
      <trkpt lat="43.57317" lon="1.30435">
        <ele>182.2</ele>
        <time>2024-05-20T05:51:40Z</time>
      </trkpt>
      <trkpt lat="43.57313" lon="1.3043">
        <ele>182</ele>
        <time>2024-05-20T05:51:41Z</time>
      </trkpt>
      <trkpt lat="43.57309" lon="1.30426">
        <ele>181.8</ele>
        <time>2024-05-20T05:51:42Z</time>
      </trkpt>
      <trkpt lat="43.57305" lon="1.30421">
        <ele>181.8</ele>
        <time>2024-05-20T05:51:43Z</time>
      </trkpt>
      <trkpt lat="43.573" lon="1.30416">
        <ele>181.8</ele>
        <time>2024-05-20T05:51:44Z</time>
      </trkpt>
      <trkpt lat="43.57296" lon="1.30412">
        <ele>181.8</ele>
        <time>2024-05-20T05:51:45Z</time>
      </trkpt>
      <trkpt lat="43.57292" lon="1.30407">
        <ele>181.8</ele>
        <time>2024-05-20T05:51:46Z</time>
      </trkpt>
      <trkpt lat="43.57289" lon="1.30404">
        <ele>182.2</ele>
        <time>2024-05-20T05:51:47Z</time>
      </trkpt>
      <trkpt lat="43.57284" lon="1.30399">
        <ele>182.2</ele>
        <time>2024-05-20T05:51:48Z</time>
      </trkpt>
      <trkpt lat="43.57279" lon="1.30393">
        <ele>182.2</ele>
        <time>2024-05-20T05:51:49Z</time>
      </trkpt>
      <trkpt lat="43.57275" lon="1.30388">
        <ele>182.4</ele>
        <time>2024-05-20T05:51:50Z</time>
      </trkpt>
      <trkpt lat="43.5727" lon="1.30384">
        <ele>182.4</ele>
        <time>2024-05-20T05:51:51Z</time>
      </trkpt>
      <trkpt lat="43.57266" lon="1.30379">
        <ele>182.4</ele>
        <time>2024-05-20T05:51:52Z</time>
      </trkpt>
      <trkpt lat="43.57262" lon="1.30374">
        <ele>182.4</ele>
        <time>2024-05-20T05:51:53Z</time>
      </trkpt>
      <trkpt lat="43.57257" lon="1.30369">
        <ele>182.4</ele>
        <time>2024-05-20T05:51:54Z</time>
      </trkpt>
      <trkpt lat="43.57251" lon="1.30362">
        <ele>182.4</ele>
        <time>2024-05-20T05:51:55Z</time>
      </trkpt>
      <trkpt lat="43.57246" lon="1.30357">
        <ele>182.4</ele>
        <time>2024-05-20T05:51:56Z</time>
      </trkpt>
      <trkpt lat="43.57242" lon="1.30351">
        <ele>182.4</ele>
        <time>2024-05-20T05:51:57Z</time>
      </trkpt>
      <trkpt lat="43.57238" lon="1.30347">
        <ele>182.4</ele>
        <time>2024-05-20T05:51:58Z</time>
      </trkpt>
      <trkpt lat="43.57233" lon="1.30341">
        <ele>182.4</ele>
        <time>2024-05-20T05:51:59Z</time>
      </trkpt>
      <trkpt lat="43.57227" lon="1.30334">
        <ele>182.4</ele>
        <time>2024-05-20T05:52:00Z</time>
      </trkpt>
      <trkpt lat="43.57222" lon="1.30328">
        <ele>182.4</ele>
        <time>2024-05-20T05:52:01Z</time>
      </trkpt>
      <trkpt lat="43.57218" lon="1.30322">
        <ele>182.4</ele>
        <time>2024-05-20T05:52:02Z</time>
      </trkpt>
      <trkpt lat="43.57214" lon="1.30318">
        <ele>182.4</ele>
        <time>2024-05-20T05:52:03Z</time>
      </trkpt>
      <trkpt lat="43.57209" lon="1.30312">
        <ele>182.6</ele>
        <time>2024-05-20T05:52:04Z</time>
      </trkpt>
      <trkpt lat="43.57202" lon="1.30305">
        <ele>182.6</ele>
        <time>2024-05-20T05:52:05Z</time>
      </trkpt>
      <trkpt lat="43.57197" lon="1.303">
        <ele>182.6</ele>
        <time>2024-05-20T05:52:06Z</time>
      </trkpt>
      <trkpt lat="43.57192" lon="1.30294">
        <ele>182.6</ele>
        <time>2024-05-20T05:52:07Z</time>
      </trkpt>
      <trkpt lat="43.57188" lon="1.30289">
        <ele>182.6</ele>
        <time>2024-05-20T05:52:08Z</time>
      </trkpt>
      <trkpt lat="43.57183" lon="1.30283">
        <ele>182.6</ele>
        <time>2024-05-20T05:52:09Z</time>
      </trkpt>
      <trkpt lat="43.57177" lon="1.30276">
        <ele>182.4</ele>
        <time>2024-05-20T05:52:10Z</time>
      </trkpt>
      <trkpt lat="43.57172" lon="1.3027">
        <ele>182.4</ele>
        <time>2024-05-20T05:52:11Z</time>
      </trkpt>
      <trkpt lat="43.57166" lon="1.30265">
        <ele>182.4</ele>
        <time>2024-05-20T05:52:12Z</time>
      </trkpt>
      <trkpt lat="43.57161" lon="1.3026">
        <ele>182.4</ele>
        <time>2024-05-20T05:52:13Z</time>
      </trkpt>
      <trkpt lat="43.57157" lon="1.30255">
        <ele>182.4</ele>
        <time>2024-05-20T05:52:14Z</time>
      </trkpt>
      <trkpt lat="43.57152" lon="1.3025">
        <ele>182.4</ele>
        <time>2024-05-20T05:52:15Z</time>
      </trkpt>
      <trkpt lat="43.57146" lon="1.30243">
        <ele>182.4</ele>
        <time>2024-05-20T05:52:16Z</time>
      </trkpt>
      <trkpt lat="43.57141" lon="1.30238">
        <ele>182.4</ele>
        <time>2024-05-20T05:52:17Z</time>
      </trkpt>
      <trkpt lat="43.57136" lon="1.30233">
        <ele>182.4</ele>
        <time>2024-05-20T05:52:18Z</time>
      </trkpt>
      <trkpt lat="43.57132" lon="1.30228">
        <ele>182.4</ele>
        <time>2024-05-20T05:52:19Z</time>
      </trkpt>
      <trkpt lat="43.57127" lon="1.30222">
        <ele>182.4</ele>
        <time>2024-05-20T05:52:20Z</time>
      </trkpt>
      <trkpt lat="43.57122" lon="1.30215">
        <ele>182.4</ele>
        <time>2024-05-20T05:52:21Z</time>
      </trkpt>
      <trkpt lat="43.57117" lon="1.30209">
        <ele>182.4</ele>
        <time>2024-05-20T05:52:22Z</time>
      </trkpt>
      <trkpt lat="43.57112" lon="1.30202">
        <ele>182.4</ele>
        <time>2024-05-20T05:52:23Z</time>
      </trkpt>
      <trkpt lat="43.57109" lon="1.30197">
        <ele>182.6</ele>
        <time>2024-05-20T05:52:24Z</time>
      </trkpt>
      <trkpt lat="43.57104" lon="1.30189">
        <ele>182.6</ele>
        <time>2024-05-20T05:52:25Z</time>
      </trkpt>
      <trkpt lat="43.571" lon="1.3018">
        <ele>182.6</ele>
        <time>2024-05-20T05:52:26Z</time>
      </trkpt>
      <trkpt lat="43.57096" lon="1.30172">
        <ele>182.6</ele>
        <time>2024-05-20T05:52:27Z</time>
      </trkpt>
      <trkpt lat="43.57093" lon="1.30164">
        <ele>182.6</ele>
        <time>2024-05-20T05:52:28Z</time>
      </trkpt>
      <trkpt lat="43.5709" lon="1.30156">
        <ele>182.6</ele>
        <time>2024-05-20T05:52:29Z</time>
      </trkpt>
      <trkpt lat="43.57087" lon="1.30149">
        <ele>182.6</ele>
        <time>2024-05-20T05:52:30Z</time>
      </trkpt>
      <trkpt lat="43.57084" lon="1.30139">
        <ele>182.6</ele>
        <time>2024-05-20T05:52:31Z</time>
      </trkpt>
      <trkpt lat="43.57081" lon="1.30131">
        <ele>182.6</ele>
        <time>2024-05-20T05:52:32Z</time>
      </trkpt>
      <trkpt lat="43.57078" lon="1.30122">
        <ele>182.6</ele>
        <time>2024-05-20T05:52:33Z</time>
      </trkpt>
      <trkpt lat="43.57076" lon="1.30114">
        <ele>182.8</ele>
        <time>2024-05-20T05:52:34Z</time>
      </trkpt>
      <trkpt lat="43.57074" lon="1.30107">
        <ele>182.8</ele>
        <time>2024-05-20T05:52:35Z</time>
      </trkpt>
      <trkpt lat="43.57071" lon="1.30099">
        <ele>183</ele>
        <time>2024-05-20T05:52:36Z</time>
      </trkpt>
      <trkpt lat="43.57069" lon="1.30089">
        <ele>183</ele>
        <time>2024-05-20T05:52:37Z</time>
      </trkpt>
      <trkpt lat="43.57066" lon="1.3008">
        <ele>183</ele>
        <time>2024-05-20T05:52:38Z</time>
      </trkpt>
      <trkpt lat="43.57064" lon="1.30072">
        <ele>183.2</ele>
        <time>2024-05-20T05:52:39Z</time>
      </trkpt>
      <trkpt lat="43.57062" lon="1.30065">
        <ele>183.2</ele>
        <time>2024-05-20T05:52:40Z</time>
      </trkpt>
      <trkpt lat="43.57059" lon="1.30056">
        <ele>183.2</ele>
        <time>2024-05-20T05:52:41Z</time>
      </trkpt>
      <trkpt lat="43.57057" lon="1.30046">
        <ele>183</ele>
        <time>2024-05-20T05:52:42Z</time>
      </trkpt>
      <trkpt lat="43.57055" lon="1.30039">
        <ele>183.2</ele>
        <time>2024-05-20T05:52:43Z</time>
      </trkpt>
      <trkpt lat="43.57052" lon="1.30029">
        <ele>183.2</ele>
        <time>2024-05-20T05:52:44Z</time>
      </trkpt>
      <trkpt lat="43.5705" lon="1.30022">
        <ele>183.2</ele>
        <time>2024-05-20T05:52:45Z</time>
      </trkpt>
      <trkpt lat="43.57047" lon="1.30014">
        <ele>183.2</ele>
        <time>2024-05-20T05:52:46Z</time>
      </trkpt>
      <trkpt lat="43.57044" lon="1.30003">
        <ele>183.4</ele>
        <time>2024-05-20T05:52:47Z</time>
      </trkpt>
      <trkpt lat="43.57042" lon="1.29995">
        <ele>183.4</ele>
        <time>2024-05-20T05:52:48Z</time>
      </trkpt>
      <trkpt lat="43.57039" lon="1.29986">
        <ele>183.4</ele>
        <time>2024-05-20T05:52:49Z</time>
      </trkpt>
      <trkpt lat="43.57037" lon="1.29979">
        <ele>183.4</ele>
        <time>2024-05-20T05:52:50Z</time>
      </trkpt>
      <trkpt lat="43.57034" lon="1.2997">
        <ele>183.4</ele>
        <time>2024-05-20T05:52:51Z</time>
      </trkpt>
      <trkpt lat="43.57031" lon="1.2996">
        <ele>183.4</ele>
        <time>2024-05-20T05:52:52Z</time>
      </trkpt>
      <trkpt lat="43.57029" lon="1.29951">
        <ele>183.6</ele>
        <time>2024-05-20T05:52:53Z</time>
      </trkpt>
      <trkpt lat="43.57026" lon="1.29943">
        <ele>183.6</ele>
        <time>2024-05-20T05:52:54Z</time>
      </trkpt>
      <trkpt lat="43.57024" lon="1.29934">
        <ele>183.6</ele>
        <time>2024-05-20T05:52:55Z</time>
      </trkpt>
      <trkpt lat="43.57022" lon="1.29928">
        <ele>183.6</ele>
        <time>2024-05-20T05:52:56Z</time>
      </trkpt>
      <trkpt lat="43.57019" lon="1.29919">
        <ele>183.6</ele>
        <time>2024-05-20T05:52:57Z</time>
      </trkpt>
      <trkpt lat="43.57016" lon="1.29909">
        <ele>183.6</ele>
        <time>2024-05-20T05:52:58Z</time>
      </trkpt>
      <trkpt lat="43.57014" lon="1.299">
        <ele>183.4</ele>
        <time>2024-05-20T05:52:59Z</time>
      </trkpt>
      <trkpt lat="43.57011" lon="1.29892">
        <ele>183.4</ele>
        <time>2024-05-20T05:53:00Z</time>
      </trkpt>
      <trkpt lat="43.5701" lon="1.29885">
        <ele>183.4</ele>
        <time>2024-05-20T05:53:01Z</time>
      </trkpt>
      <trkpt lat="43.57007" lon="1.29876">
        <ele>183.4</ele>
        <time>2024-05-20T05:53:02Z</time>
      </trkpt>
      <trkpt lat="43.57004" lon="1.29866">
        <ele>183.6</ele>
        <time>2024-05-20T05:53:03Z</time>
      </trkpt>
      <trkpt lat="43.57002" lon="1.29857">
        <ele>183.6</ele>
        <time>2024-05-20T05:53:04Z</time>
      </trkpt>
      <trkpt lat="43.56999" lon="1.29849">
        <ele>183.8</ele>
        <time>2024-05-20T05:53:05Z</time>
      </trkpt>
      <trkpt lat="43.56997" lon="1.29842">
        <ele>183.8</ele>
        <time>2024-05-20T05:53:06Z</time>
      </trkpt>
      <trkpt lat="43.56995" lon="1.29833">
        <ele>184</ele>
        <time>2024-05-20T05:53:07Z</time>
      </trkpt>
      <trkpt lat="43.56992" lon="1.29825">
        <ele>184</ele>
        <time>2024-05-20T05:53:08Z</time>
      </trkpt>
      <trkpt lat="43.5699" lon="1.29816">
        <ele>184</ele>
        <time>2024-05-20T05:53:09Z</time>
      </trkpt>
      <trkpt lat="43.56987" lon="1.29808">
        <ele>184</ele>
        <time>2024-05-20T05:53:10Z</time>
      </trkpt>
      <trkpt lat="43.56985" lon="1.29799">
        <ele>184.2</ele>
        <time>2024-05-20T05:53:11Z</time>
      </trkpt>
      <trkpt lat="43.56982" lon="1.29791">
        <ele>184.2</ele>
        <time>2024-05-20T05:53:12Z</time>
      </trkpt>
      <trkpt lat="43.5698" lon="1.29782">
        <ele>184.2</ele>
        <time>2024-05-20T05:53:13Z</time>
      </trkpt>
      <trkpt lat="43.56977" lon="1.29774">
        <ele>184.4</ele>
        <time>2024-05-20T05:53:14Z</time>
      </trkpt>
      <trkpt lat="43.56975" lon="1.29765">
        <ele>184.4</ele>
        <time>2024-05-20T05:53:15Z</time>
      </trkpt>
      <trkpt lat="43.56972" lon="1.29757">
        <ele>184.4</ele>
        <time>2024-05-20T05:53:16Z</time>
      </trkpt>
      <trkpt lat="43.56969" lon="1.29748">
        <ele>184.4</ele>
        <time>2024-05-20T05:53:17Z</time>
      </trkpt>
      <trkpt lat="43.56967" lon="1.2974">
        <ele>184.4</ele>
        <time>2024-05-20T05:53:18Z</time>
      </trkpt>
      <trkpt lat="43.56964" lon="1.29731">
        <ele>184.2</ele>
        <time>2024-05-20T05:53:19Z</time>
      </trkpt>
      <trkpt lat="43.56962" lon="1.29723">
        <ele>184.2</ele>
        <time>2024-05-20T05:53:20Z</time>
      </trkpt>
      <trkpt lat="43.56959" lon="1.29715">
        <ele>184.2</ele>
        <time>2024-05-20T05:53:22Z</time>
      </trkpt>
      <trkpt lat="43.56956" lon="1.29707">
        <ele>184.4</ele>
        <time>2024-05-20T05:53:23Z</time>
      </trkpt>
      <trkpt lat="43.56954" lon="1.29698">
        <ele>184.4</ele>
        <time>2024-05-20T05:53:24Z</time>
      </trkpt>
      <trkpt lat="43.56951" lon="1.2969">
        <ele>184.6</ele>
        <time>2024-05-20T05:53:25Z</time>
      </trkpt>
      <trkpt lat="43.56949" lon="1.29681">
        <ele>184.4</ele>
        <time>2024-05-20T05:53:26Z</time>
      </trkpt>
      <trkpt lat="43.56946" lon="1.29673">
        <ele>184.6</ele>
        <time>2024-05-20T05:53:27Z</time>
      </trkpt>
      <trkpt lat="43.56943" lon="1.29665">
        <ele>184.6</ele>
        <time>2024-05-20T05:53:28Z</time>
      </trkpt>
      <trkpt lat="43.5694" lon="1.29657">
        <ele>184.8</ele>
        <time>2024-05-20T05:53:29Z</time>
      </trkpt>
      <trkpt lat="43.56937" lon="1.29649">
        <ele>184.8</ele>
        <time>2024-05-20T05:53:30Z</time>
      </trkpt>
      <trkpt lat="43.56934" lon="1.29641">
        <ele>184.8</ele>
        <time>2024-05-20T05:53:31Z</time>
      </trkpt>
      <trkpt lat="43.56931" lon="1.29633">
        <ele>184.8</ele>
        <time>2024-05-20T05:53:32Z</time>
      </trkpt>
      <trkpt lat="43.56929" lon="1.29625">
        <ele>184.8</ele>
        <time>2024-05-20T05:53:33Z</time>
      </trkpt>
      <trkpt lat="43.56926" lon="1.29616">
        <ele>184.8</ele>
        <time>2024-05-20T05:53:34Z</time>
      </trkpt>
      <trkpt lat="43.56923" lon="1.29607">
        <ele>184.8</ele>
        <time>2024-05-20T05:53:35Z</time>
      </trkpt>
      <trkpt lat="43.56921" lon="1.296">
        <ele>185</ele>
        <time>2024-05-20T05:53:36Z</time>
      </trkpt>
      <trkpt lat="43.56918" lon="1.29592">
        <ele>185</ele>
        <time>2024-05-20T05:53:37Z</time>
      </trkpt>
      <trkpt lat="43.56915" lon="1.29584">
        <ele>184.8</ele>
        <time>2024-05-20T05:53:38Z</time>
      </trkpt>
      <trkpt lat="43.56912" lon="1.29576">
        <ele>184.8</ele>
        <time>2024-05-20T05:53:39Z</time>
      </trkpt>
      <trkpt lat="43.56909" lon="1.29568">
        <ele>184.8</ele>
        <time>2024-05-20T05:53:40Z</time>
      </trkpt>
      <trkpt lat="43.56907" lon="1.29561">
        <ele>184.8</ele>
        <time>2024-05-20T05:53:41Z</time>
      </trkpt>
      <trkpt lat="43.56903" lon="1.29551">
        <ele>184.8</ele>
        <time>2024-05-20T05:53:42Z</time>
      </trkpt>
      <trkpt lat="43.56901" lon="1.29544">
        <ele>184.8</ele>
        <time>2024-05-20T05:53:43Z</time>
      </trkpt>
      <trkpt lat="43.56899" lon="1.29538">
        <ele>184.8</ele>
        <time>2024-05-20T05:53:44Z</time>
      </trkpt>
      <trkpt lat="43.56896" lon="1.29529">
        <ele>184.8</ele>
        <time>2024-05-20T05:53:45Z</time>
      </trkpt>
      <trkpt lat="43.56895" lon="1.29521">
        <ele>184.8</ele>
        <time>2024-05-20T05:53:46Z</time>
      </trkpt>
      <trkpt lat="43.56893" lon="1.29512">
        <ele>185</ele>
        <time>2024-05-20T05:53:47Z</time>
      </trkpt>
      <trkpt lat="43.5689" lon="1.29503">
        <ele>184.8</ele>
        <time>2024-05-20T05:53:48Z</time>
      </trkpt>
      <trkpt lat="43.56889" lon="1.29496">
        <ele>184.8</ele>
        <time>2024-05-20T05:53:49Z</time>
      </trkpt>
      <trkpt lat="43.56886" lon="1.29487">
        <ele>184.8</ele>
        <time>2024-05-20T05:53:50Z</time>
      </trkpt>
      <trkpt lat="43.56884" lon="1.29477">
        <ele>184.8</ele>
        <time>2024-05-20T05:53:51Z</time>
      </trkpt>
      <trkpt lat="43.56882" lon="1.29471">
        <ele>185</ele>
        <time>2024-05-20T05:53:52Z</time>
      </trkpt>
      <trkpt lat="43.5688" lon="1.29461">
        <ele>185</ele>
        <time>2024-05-20T05:53:53Z</time>
      </trkpt>
      <trkpt lat="43.56878" lon="1.29454">
        <ele>185</ele>
        <time>2024-05-20T05:53:54Z</time>
      </trkpt>
      <trkpt lat="43.56876" lon="1.29446">
        <ele>185</ele>
        <time>2024-05-20T05:53:55Z</time>
      </trkpt>
      <trkpt lat="43.56873" lon="1.29436">
        <ele>185</ele>
        <time>2024-05-20T05:53:56Z</time>
      </trkpt>
      <trkpt lat="43.56872" lon="1.29429">
        <ele>185.2</ele>
        <time>2024-05-20T05:53:57Z</time>
      </trkpt>
      <trkpt lat="43.56869" lon="1.29419">
        <ele>185.2</ele>
        <time>2024-05-20T05:53:58Z</time>
      </trkpt>
      <trkpt lat="43.56868" lon="1.29412">
        <ele>185.2</ele>
        <time>2024-05-20T05:53:59Z</time>
      </trkpt>
      <trkpt lat="43.56866" lon="1.29404">
        <ele>185.4</ele>
        <time>2024-05-20T05:54:00Z</time>
      </trkpt>
      <trkpt lat="43.56863" lon="1.29393">
        <ele>185.6</ele>
        <time>2024-05-20T05:54:01Z</time>
      </trkpt>
      <trkpt lat="43.56861" lon="1.29385">
        <ele>185.6</ele>
        <time>2024-05-20T05:54:02Z</time>
      </trkpt>
      <trkpt lat="43.56859" lon="1.29378">
        <ele>185.6</ele>
        <time>2024-05-20T05:54:03Z</time>
      </trkpt>
      <trkpt lat="43.56857" lon="1.29369">
        <ele>185.6</ele>
        <time>2024-05-20T05:54:04Z</time>
      </trkpt>
      <trkpt lat="43.56855" lon="1.29361">
        <ele>185.6</ele>
        <time>2024-05-20T05:54:05Z</time>
      </trkpt>
      <trkpt lat="43.56852" lon="1.2935">
        <ele>185.8</ele>
        <time>2024-05-20T05:54:06Z</time>
      </trkpt>
      <trkpt lat="43.56851" lon="1.29344">
        <ele>185.8</ele>
        <time>2024-05-20T05:54:07Z</time>
      </trkpt>
      <trkpt lat="43.56848" lon="1.29333">
        <ele>185.8</ele>
        <time>2024-05-20T05:54:08Z</time>
      </trkpt>
      <trkpt lat="43.56846" lon="1.29326">
        <ele>185.8</ele>
        <time>2024-05-20T05:54:09Z</time>
      </trkpt>
      <trkpt lat="43.56844" lon="1.29317">
        <ele>185.8</ele>
        <time>2024-05-20T05:54:10Z</time>
      </trkpt>
      <trkpt lat="43.56842" lon="1.29308">
        <ele>185.8</ele>
        <time>2024-05-20T05:54:11Z</time>
      </trkpt>
      <trkpt lat="43.5684" lon="1.29297">
        <ele>185.8</ele>
        <time>2024-05-20T05:54:12Z</time>
      </trkpt>
      <trkpt lat="43.56838" lon="1.2929">
        <ele>185.8</ele>
        <time>2024-05-20T05:54:13Z</time>
      </trkpt>
      <trkpt lat="43.56835" lon="1.29279">
        <ele>185.8</ele>
        <time>2024-05-20T05:54:14Z</time>
      </trkpt>
      <trkpt lat="43.56834" lon="1.29272">
        <ele>186</ele>
        <time>2024-05-20T05:54:15Z</time>
      </trkpt>
      <trkpt lat="43.56832" lon="1.29263">
        <ele>186</ele>
        <time>2024-05-20T05:54:16Z</time>
      </trkpt>
      <trkpt lat="43.56829" lon="1.29254">
        <ele>186</ele>
        <time>2024-05-20T05:54:17Z</time>
      </trkpt>
      <trkpt lat="43.56827" lon="1.29243">
        <ele>186</ele>
        <time>2024-05-20T05:54:18Z</time>
      </trkpt>
      <trkpt lat="43.56825" lon="1.29236">
        <ele>186</ele>
        <time>2024-05-20T05:54:19Z</time>
      </trkpt>
      <trkpt lat="43.56822" lon="1.29228">
        <ele>186</ele>
        <time>2024-05-20T05:54:20Z</time>
      </trkpt>
      <trkpt lat="43.5682" lon="1.29219">
        <ele>186</ele>
        <time>2024-05-20T05:54:21Z</time>
      </trkpt>
      <trkpt lat="43.56817" lon="1.29209">
        <ele>186</ele>
        <time>2024-05-20T05:54:22Z</time>
      </trkpt>
      <trkpt lat="43.56815" lon="1.29203">
        <ele>186.2</ele>
        <time>2024-05-20T05:54:23Z</time>
      </trkpt>
      <trkpt lat="43.56812" lon="1.29193">
        <ele>186.2</ele>
        <time>2024-05-20T05:54:24Z</time>
      </trkpt>
      <trkpt lat="43.56811" lon="1.29186">
        <ele>186.2</ele>
        <time>2024-05-20T05:54:25Z</time>
      </trkpt>
      <trkpt lat="43.56808" lon="1.29178">
        <ele>186.2</ele>
        <time>2024-05-20T05:54:26Z</time>
      </trkpt>
      <trkpt lat="43.56806" lon="1.29169">
        <ele>186.4</ele>
        <time>2024-05-20T05:54:27Z</time>
      </trkpt>
      <trkpt lat="43.56803" lon="1.29159">
        <ele>186.4</ele>
        <time>2024-05-20T05:54:28Z</time>
      </trkpt>
      <trkpt lat="43.56801" lon="1.29151">
        <ele>186.4</ele>
        <time>2024-05-20T05:54:29Z</time>
      </trkpt>
      <trkpt lat="43.56798" lon="1.29143">
        <ele>186.6</ele>
        <time>2024-05-20T05:54:30Z</time>
      </trkpt>
      <trkpt lat="43.56797" lon="1.29136">
        <ele>186.6</ele>
        <time>2024-05-20T05:54:31Z</time>
      </trkpt>
      <trkpt lat="43.56794" lon="1.29127">
        <ele>186.8</ele>
        <time>2024-05-20T05:54:32Z</time>
      </trkpt>
      <trkpt lat="43.56792" lon="1.29118">
        <ele>186.8</ele>
        <time>2024-05-20T05:54:33Z</time>
      </trkpt>
      <trkpt lat="43.5679" lon="1.29111">
        <ele>187</ele>
        <time>2024-05-20T05:54:34Z</time>
      </trkpt>
      <trkpt lat="43.56787" lon="1.29101">
        <ele>187</ele>
        <time>2024-05-20T05:54:35Z</time>
      </trkpt>
      <trkpt lat="43.56786" lon="1.29095">
        <ele>187.2</ele>
        <time>2024-05-20T05:54:36Z</time>
      </trkpt>
      <trkpt lat="43.56783" lon="1.29087">
        <ele>187.2</ele>
        <time>2024-05-20T05:54:37Z</time>
      </trkpt>
      <trkpt lat="43.56781" lon="1.29077">
        <ele>187.2</ele>
        <time>2024-05-20T05:54:38Z</time>
      </trkpt>
      <trkpt lat="43.56779" lon="1.29069">
        <ele>187.2</ele>
        <time>2024-05-20T05:54:39Z</time>
      </trkpt>
      <trkpt lat="43.56777" lon="1.29061">
        <ele>187.2</ele>
        <time>2024-05-20T05:54:40Z</time>
      </trkpt>
      <trkpt lat="43.56775" lon="1.29055">
        <ele>187.4</ele>
        <time>2024-05-20T05:54:41Z</time>
      </trkpt>
      <trkpt lat="43.56773" lon="1.29048">
        <ele>187.4</ele>
        <time>2024-05-20T05:54:42Z</time>
      </trkpt>
      <trkpt lat="43.56771" lon="1.29042">
        <ele>187.8</ele>
        <time>2024-05-20T05:54:43Z</time>
      </trkpt>
      <trkpt lat="43.56769" lon="1.29036">
        <ele>187.8</ele>
        <time>2024-05-20T05:54:44Z</time>
      </trkpt>
      <trkpt lat="43.56767" lon="1.29032">
        <ele>188</ele>
        <time>2024-05-20T05:54:45Z</time>
      </trkpt>
      <trkpt lat="43.56766" lon="1.29029">
        <ele>188</ele>
        <time>2024-05-20T05:54:46Z</time>
      </trkpt>
      <trkpt lat="43.56764" lon="1.29025">
        <ele>188.4</ele>
        <time>2024-05-20T05:54:47Z</time>
      </trkpt>
      <trkpt lat="43.56763" lon="1.29022">
        <ele>188.4</ele>
        <time>2024-05-20T05:54:48Z</time>
      </trkpt>
      <trkpt lat="43.56762" lon="1.2902">
        <ele>188.6</ele>
        <time>2024-05-20T05:54:49Z</time>
      </trkpt>
      <trkpt lat="43.5676" lon="1.29018">
        <ele>188.6</ele>
        <time>2024-05-20T05:54:50Z</time>
      </trkpt>
      <trkpt lat="43.56757" lon="1.29017">
        <ele>188.8</ele>
        <time>2024-05-20T05:54:51Z</time>
      </trkpt>
      <trkpt lat="43.56755" lon="1.29017">
        <ele>188.8</ele>
        <time>2024-05-20T05:54:52Z</time>
      </trkpt>
      <trkpt lat="43.56752" lon="1.29018">
        <ele>188.8</ele>
        <time>2024-05-20T05:54:53Z</time>
      </trkpt>
      <trkpt lat="43.56748" lon="1.29021">
        <ele>188.8</ele>
        <time>2024-05-20T05:54:54Z</time>
      </trkpt>
      <trkpt lat="43.56745" lon="1.29024">
        <ele>188.8</ele>
        <time>2024-05-20T05:54:55Z</time>
      </trkpt>
      <trkpt lat="43.5674" lon="1.2903">
        <ele>188.8</ele>
        <time>2024-05-20T05:54:56Z</time>
      </trkpt>
      <trkpt lat="43.56737" lon="1.29034">
        <ele>188.8</ele>
        <time>2024-05-20T05:54:57Z</time>
      </trkpt>
      <trkpt lat="43.56732" lon="1.29039">
        <ele>188.8</ele>
        <time>2024-05-20T05:54:58Z</time>
      </trkpt>
      <trkpt lat="43.56726" lon="1.29046">
        <ele>188.8</ele>
        <time>2024-05-20T05:54:59Z</time>
      </trkpt>
      <trkpt lat="43.56722" lon="1.29051">
        <ele>188.6</ele>
        <time>2024-05-20T05:55:00Z</time>
      </trkpt>
      <trkpt lat="43.56718" lon="1.29056">
        <ele>188.4</ele>
        <time>2024-05-20T05:55:01Z</time>
      </trkpt>
      <trkpt lat="43.56712" lon="1.29062">
        <ele>188.4</ele>
        <time>2024-05-20T05:55:02Z</time>
      </trkpt>
      <trkpt lat="43.56707" lon="1.29067">
        <ele>188.2</ele>
        <time>2024-05-20T05:55:03Z</time>
      </trkpt>
      <trkpt lat="43.56701" lon="1.29074">
        <ele>188.2</ele>
        <time>2024-05-20T05:55:04Z</time>
      </trkpt>
      <trkpt lat="43.56697" lon="1.29079">
        <ele>188</ele>
        <time>2024-05-20T05:55:05Z</time>
      </trkpt>
      <trkpt lat="43.5669" lon="1.29087">
        <ele>187.8</ele>
        <time>2024-05-20T05:55:06Z</time>
      </trkpt>
      <trkpt lat="43.56686" lon="1.29092">
        <ele>187.6</ele>
        <time>2024-05-20T05:55:07Z</time>
      </trkpt>
      <trkpt lat="43.56681" lon="1.29098">
        <ele>187.4</ele>
        <time>2024-05-20T05:55:08Z</time>
      </trkpt>
      <trkpt lat="43.56676" lon="1.29104">
        <ele>187.4</ele>
        <time>2024-05-20T05:55:09Z</time>
      </trkpt>
      <trkpt lat="43.56668" lon="1.29109">
        <ele>187.2</ele>
        <time>2024-05-20T05:55:10Z</time>
      </trkpt>
      <trkpt lat="43.56663" lon="1.2911">
        <ele>187.2</ele>
        <time>2024-05-20T05:55:11Z</time>
      </trkpt>
      <trkpt lat="43.56656" lon="1.29108">
        <ele>187</ele>
        <time>2024-05-20T05:55:12Z</time>
      </trkpt>
      <trkpt lat="43.56651" lon="1.29104">
        <ele>187</ele>
        <time>2024-05-20T05:55:13Z</time>
      </trkpt>
      <trkpt lat="43.56647" lon="1.29097">
        <ele>186.8</ele>
        <time>2024-05-20T05:55:14Z</time>
      </trkpt>
      <trkpt lat="43.56642" lon="1.2909">
        <ele>186.8</ele>
        <time>2024-05-20T05:55:15Z</time>
      </trkpt>
      <trkpt lat="43.56637" lon="1.29083">
        <ele>186.8</ele>
        <time>2024-05-20T05:55:16Z</time>
      </trkpt>
      <trkpt lat="43.56632" lon="1.29075">
        <ele>186.4</ele>
        <time>2024-05-20T05:55:17Z</time>
      </trkpt>
      <trkpt lat="43.56627" lon="1.29068">
        <ele>186.4</ele>
        <time>2024-05-20T05:55:18Z</time>
      </trkpt>
      <trkpt lat="43.56623" lon="1.2906">
        <ele>186.2</ele>
        <time>2024-05-20T05:55:19Z</time>
      </trkpt>
      <trkpt lat="43.56618" lon="1.29053">
        <ele>186.2</ele>
        <time>2024-05-20T05:55:20Z</time>
      </trkpt>
      <trkpt lat="43.56613" lon="1.29045">
        <ele>186</ele>
        <time>2024-05-20T05:55:21Z</time>
      </trkpt>
      <trkpt lat="43.56608" lon="1.29037">
        <ele>186</ele>
        <time>2024-05-20T05:55:22Z</time>
      </trkpt>
      <trkpt lat="43.56603" lon="1.29029">
        <ele>185.8</ele>
        <time>2024-05-20T05:55:23Z</time>
      </trkpt>
      <trkpt lat="43.56598" lon="1.29022">
        <ele>185.8</ele>
        <time>2024-05-20T05:55:24Z</time>
      </trkpt>
      <trkpt lat="43.56593" lon="1.29014">
        <ele>185.8</ele>
        <time>2024-05-20T05:55:25Z</time>
      </trkpt>
      <trkpt lat="43.56588" lon="1.29007">
        <ele>185.6</ele>
        <time>2024-05-20T05:55:26Z</time>
      </trkpt>
      <trkpt lat="43.56583" lon="1.28999">
        <ele>185.6</ele>
        <time>2024-05-20T05:55:27Z</time>
      </trkpt>
      <trkpt lat="43.56579" lon="1.28992">
        <ele>185.6</ele>
        <time>2024-05-20T05:55:28Z</time>
      </trkpt>
      <trkpt lat="43.56574" lon="1.28984">
        <ele>185.4</ele>
        <time>2024-05-20T05:55:29Z</time>
      </trkpt>
      <trkpt lat="43.56569" lon="1.28976">
        <ele>185.4</ele>
        <time>2024-05-20T05:55:30Z</time>
      </trkpt>
      <trkpt lat="43.56564" lon="1.28969">
        <ele>185.4</ele>
        <time>2024-05-20T05:55:31Z</time>
      </trkpt>
      <trkpt lat="43.56559" lon="1.28961">
        <ele>185.4</ele>
        <time>2024-05-20T05:55:32Z</time>
      </trkpt>
      <trkpt lat="43.56554" lon="1.28953">
        <ele>185.4</ele>
        <time>2024-05-20T05:55:33Z</time>
      </trkpt>
      <trkpt lat="43.5655" lon="1.28945">
        <ele>185.4</ele>
        <time>2024-05-20T05:55:34Z</time>
      </trkpt>
      <trkpt lat="43.56545" lon="1.28938">
        <ele>185.4</ele>
        <time>2024-05-20T05:55:35Z</time>
      </trkpt>
      <trkpt lat="43.5654" lon="1.2893">
        <ele>185.4</ele>
        <time>2024-05-20T05:55:36Z</time>
      </trkpt>
      <trkpt lat="43.56535" lon="1.28923">
        <ele>185.4</ele>
        <time>2024-05-20T05:55:37Z</time>
      </trkpt>
      <trkpt lat="43.56529" lon="1.28915">
        <ele>185.4</ele>
        <time>2024-05-20T05:55:38Z</time>
      </trkpt>
      <trkpt lat="43.56525" lon="1.28908">
        <ele>185.4</ele>
        <time>2024-05-20T05:55:39Z</time>
      </trkpt>
      <trkpt lat="43.5652" lon="1.28901">
        <ele>185.4</ele>
        <time>2024-05-20T05:55:40Z</time>
      </trkpt>
      <trkpt lat="43.56516" lon="1.28894">
        <ele>185.2</ele>
        <time>2024-05-20T05:55:41Z</time>
      </trkpt>
      <trkpt lat="43.56512" lon="1.28887">
        <ele>185.2</ele>
        <time>2024-05-20T05:55:42Z</time>
      </trkpt>
      <trkpt lat="43.56508" lon="1.28881">
        <ele>185.2</ele>
        <time>2024-05-20T05:55:43Z</time>
      </trkpt>
      <trkpt lat="43.56505" lon="1.28875">
        <ele>185.2</ele>
        <time>2024-05-20T05:55:44Z</time>
      </trkpt>
      <trkpt lat="43.56501" lon="1.28871">
        <ele>185.2</ele>
        <time>2024-05-20T05:55:45Z</time>
      </trkpt>
      <trkpt lat="43.56496" lon="1.28868">
        <ele>185.2</ele>
        <time>2024-05-20T05:55:46Z</time>
      </trkpt>
      <trkpt lat="43.56492" lon="1.28868">
        <ele>185.2</ele>
        <time>2024-05-20T05:55:47Z</time>
      </trkpt>
      <trkpt lat="43.56489" lon="1.28871">
        <ele>185.2</ele>
        <time>2024-05-20T05:55:48Z</time>
      </trkpt>
      <trkpt lat="43.56488" lon="1.28877">
        <ele>185.2</ele>
        <time>2024-05-20T05:55:49Z</time>
      </trkpt>
      <trkpt lat="43.56487" lon="1.28885">
        <ele>185.4</ele>
        <time>2024-05-20T05:55:50Z</time>
      </trkpt>
      <trkpt lat="43.56486" lon="1.28893">
        <ele>185.4</ele>
        <time>2024-05-20T05:55:51Z</time>
      </trkpt>
      <trkpt lat="43.56484" lon="1.28901">
        <ele>185.4</ele>
        <time>2024-05-20T05:55:52Z</time>
      </trkpt>
      <trkpt lat="43.5648" lon="1.28908">
        <ele>185.4</ele>
        <time>2024-05-20T05:55:53Z</time>
      </trkpt>
      <trkpt lat="43.56477" lon="1.28916">
        <ele>185.4</ele>
        <time>2024-05-20T05:55:54Z</time>
      </trkpt>
      <trkpt lat="43.56473" lon="1.28924">
        <ele>185.4</ele>
        <time>2024-05-20T05:55:55Z</time>
      </trkpt>
      <trkpt lat="43.5647" lon="1.28932">
        <ele>185.4</ele>
        <time>2024-05-20T05:55:56Z</time>
      </trkpt>
      <trkpt lat="43.56466" lon="1.2894">
        <ele>185.2</ele>
        <time>2024-05-20T05:55:57Z</time>
      </trkpt>
      <trkpt lat="43.56462" lon="1.28948">
        <ele>185.2</ele>
        <time>2024-05-20T05:55:58Z</time>
      </trkpt>
      <trkpt lat="43.56458" lon="1.28957">
        <ele>185.2</ele>
        <time>2024-05-20T05:55:59Z</time>
      </trkpt>
      <trkpt lat="43.56454" lon="1.28965">
        <ele>185.2</ele>
        <time>2024-05-20T05:56:00Z</time>
      </trkpt>
      <trkpt lat="43.56451" lon="1.28974">
        <ele>185</ele>
        <time>2024-05-20T05:56:01Z</time>
      </trkpt>
      <trkpt lat="43.56447" lon="1.28982">
        <ele>185</ele>
        <time>2024-05-20T05:56:02Z</time>
      </trkpt>
      <trkpt lat="43.56443" lon="1.28991">
        <ele>185</ele>
        <time>2024-05-20T05:56:03Z</time>
      </trkpt>
      <trkpt lat="43.56439" lon="1.28999">
        <ele>185</ele>
        <time>2024-05-20T05:56:04Z</time>
      </trkpt>
      <trkpt lat="43.56435" lon="1.29007">
        <ele>184.8</ele>
        <time>2024-05-20T05:56:05Z</time>
      </trkpt>
      <trkpt lat="43.56431" lon="1.29016">
        <ele>184.8</ele>
        <time>2024-05-20T05:56:06Z</time>
      </trkpt>
      <trkpt lat="43.56427" lon="1.29024">
        <ele>184.8</ele>
        <time>2024-05-20T05:56:07Z</time>
      </trkpt>
      <trkpt lat="43.56423" lon="1.29033">
        <ele>184.8</ele>
        <time>2024-05-20T05:56:08Z</time>
      </trkpt>
      <trkpt lat="43.56419" lon="1.29042">
        <ele>184.8</ele>
        <time>2024-05-20T05:56:09Z</time>
      </trkpt>
      <trkpt lat="43.56415" lon="1.29051">
        <ele>184.6</ele>
        <time>2024-05-20T05:56:10Z</time>
      </trkpt>
      <trkpt lat="43.56412" lon="1.29059">
        <ele>184.6</ele>
        <time>2024-05-20T05:56:11Z</time>
      </trkpt>
      <trkpt lat="43.56408" lon="1.29068">
        <ele>184.6</ele>
        <time>2024-05-20T05:56:12Z</time>
      </trkpt>
      <trkpt lat="43.56404" lon="1.29076">
        <ele>184.6</ele>
        <time>2024-05-20T05:56:13Z</time>
      </trkpt>
      <trkpt lat="43.56399" lon="1.29084">
        <ele>184.6</ele>
        <time>2024-05-20T05:56:14Z</time>
      </trkpt>
      <trkpt lat="43.56394" lon="1.29091">
        <ele>184.4</ele>
        <time>2024-05-20T05:56:15Z</time>
      </trkpt>
      <trkpt lat="43.56388" lon="1.29097">
        <ele>184.4</ele>
        <time>2024-05-20T05:56:16Z</time>
      </trkpt>
      <trkpt lat="43.56382" lon="1.29102">
        <ele>184.4</ele>
        <time>2024-05-20T05:56:17Z</time>
      </trkpt>
      <trkpt lat="43.56376" lon="1.29105">
        <ele>184.4</ele>
        <time>2024-05-20T05:56:18Z</time>
      </trkpt>
      <trkpt lat="43.5637" lon="1.2911">
        <ele>184.4</ele>
        <time>2024-05-20T05:56:19Z</time>
      </trkpt>
      <trkpt lat="43.56365" lon="1.29113">
        <ele>184.2</ele>
        <time>2024-05-20T05:56:20Z</time>
      </trkpt>
      <trkpt lat="43.56359" lon="1.29116">
        <ele>184.2</ele>
        <time>2024-05-20T05:56:21Z</time>
      </trkpt>
      <trkpt lat="43.56353" lon="1.29117">
        <ele>184.2</ele>
        <time>2024-05-20T05:56:22Z</time>
      </trkpt>
      <trkpt lat="43.56347" lon="1.29117">
        <ele>184.2</ele>
        <time>2024-05-20T05:56:23Z</time>
      </trkpt>
      <trkpt lat="43.56342" lon="1.29117">
        <ele>184.4</ele>
        <time>2024-05-20T05:56:24Z</time>
      </trkpt>
      <trkpt lat="43.56336" lon="1.29118">
        <ele>184.4</ele>
        <time>2024-05-20T05:56:25Z</time>
      </trkpt>
      <trkpt lat="43.56331" lon="1.29119">
        <ele>184.4</ele>
        <time>2024-05-20T05:56:26Z</time>
      </trkpt>
      <trkpt lat="43.56326" lon="1.29121">
        <ele>184.4</ele>
        <time>2024-05-20T05:56:27Z</time>
      </trkpt>
      <trkpt lat="43.56322" lon="1.29125">
        <ele>184.4</ele>
        <time>2024-05-20T05:56:28Z</time>
      </trkpt>
      <trkpt lat="43.56319" lon="1.29129">
        <ele>184.6</ele>
        <time>2024-05-20T05:56:29Z</time>
      </trkpt>
      <trkpt lat="43.56316" lon="1.29132">
        <ele>184.6</ele>
        <time>2024-05-20T05:56:30Z</time>
      </trkpt>
      <trkpt lat="43.56313" lon="1.29133">
        <ele>184.6</ele>
        <time>2024-05-20T05:56:31Z</time>
      </trkpt>
      <trkpt lat="43.56311" lon="1.29131">
        <ele>184.6</ele>
        <time>2024-05-20T05:56:32Z</time>
      </trkpt>
      <trkpt lat="43.56309" lon="1.29129">
        <ele>184.6</ele>
        <time>2024-05-20T05:56:33Z</time>
      </trkpt>
      <trkpt lat="43.56308" lon="1.29125">
        <ele>184.6</ele>
        <time>2024-05-20T05:56:34Z</time>
      </trkpt>
      <trkpt lat="43.56306" lon="1.29121">
        <ele>184.6</ele>
        <time>2024-05-20T05:56:35Z</time>
      </trkpt>
      <trkpt lat="43.56306" lon="1.29121">
        <ele>184.6</ele>
        <time>2024-05-20T05:56:36Z</time>
      </trkpt>
      <trkpt lat="43.56303" lon="1.29112">
        <ele>184.6</ele>
        <time>2024-05-20T05:56:37Z</time>
      </trkpt>
      <trkpt lat="43.56301" lon="1.29107">
        <ele>184.6</ele>
        <time>2024-05-20T05:56:38Z</time>
      </trkpt>
      <trkpt lat="43.56299" lon="1.29102">
        <ele>184.6</ele>
        <time>2024-05-20T05:56:39Z</time>
      </trkpt>
      <trkpt lat="43.56296" lon="1.29097">
        <ele>184.6</ele>
        <time>2024-05-20T05:56:40Z</time>
      </trkpt>
      <trkpt lat="43.56294" lon="1.29093">
        <ele>184.6</ele>
        <time>2024-05-20T05:56:41Z</time>
      </trkpt>
      <trkpt lat="43.56292" lon="1.2909">
        <ele>184.6</ele>
        <time>2024-05-20T05:56:42Z</time>
      </trkpt>
      <trkpt lat="43.56289" lon="1.29087">
        <ele>184.6</ele>
        <time>2024-05-20T05:56:43Z</time>
      </trkpt>
      <trkpt lat="43.56286" lon="1.29085">
        <ele>184.6</ele>
        <time>2024-05-20T05:56:44Z</time>
      </trkpt>
      <trkpt lat="43.56283" lon="1.29085">
        <ele>184.6</ele>
        <time>2024-05-20T05:56:45Z</time>
      </trkpt>
      <trkpt lat="43.56279" lon="1.29087">
        <ele>184.6</ele>
        <time>2024-05-20T05:56:46Z</time>
      </trkpt>
      <trkpt lat="43.56276" lon="1.29089">
        <ele>184.6</ele>
        <time>2024-05-20T05:56:47Z</time>
      </trkpt>
      <trkpt lat="43.56272" lon="1.29091">
        <ele>184.6</ele>
        <time>2024-05-20T05:56:48Z</time>
      </trkpt>
      <trkpt lat="43.56268" lon="1.29094">
        <ele>184.6</ele>
        <time>2024-05-20T05:56:49Z</time>
      </trkpt>
      <trkpt lat="43.56264" lon="1.29097">
        <ele>184.6</ele>
        <time>2024-05-20T05:56:50Z</time>
      </trkpt>
      <trkpt lat="43.56259" lon="1.291">
        <ele>184.6</ele>
        <time>2024-05-20T05:56:51Z</time>
      </trkpt>
      <trkpt lat="43.56255" lon="1.29103">
        <ele>184.6</ele>
        <time>2024-05-20T05:56:52Z</time>
      </trkpt>
      <trkpt lat="43.56251" lon="1.29105">
        <ele>184.6</ele>
        <time>2024-05-20T05:56:53Z</time>
      </trkpt>
      <trkpt lat="43.56247" lon="1.29108">
        <ele>184.6</ele>
        <time>2024-05-20T05:56:54Z</time>
      </trkpt>
      <trkpt lat="43.56242" lon="1.2911">
        <ele>184.4</ele>
        <time>2024-05-20T05:56:55Z</time>
      </trkpt>
      <trkpt lat="43.56238" lon="1.29113">
        <ele>184.4</ele>
        <time>2024-05-20T05:56:56Z</time>
      </trkpt>
      <trkpt lat="43.56234" lon="1.29116">
        <ele>184.4</ele>
        <time>2024-05-20T05:56:57Z</time>
      </trkpt>
      <trkpt lat="43.56231" lon="1.29119">
        <ele>184.4</ele>
        <time>2024-05-20T05:56:58Z</time>
      </trkpt>
      <trkpt lat="43.56229" lon="1.29122">
        <ele>184.4</ele>
        <time>2024-05-20T05:56:59Z</time>
      </trkpt>
      <trkpt lat="43.56227" lon="1.29126">
        <ele>184.4</ele>
        <time>2024-05-20T05:57:00Z</time>
      </trkpt>
      <trkpt lat="43.56226" lon="1.29128">
        <ele>184.6</ele>
        <time>2024-05-20T05:57:01Z</time>
      </trkpt>
      <trkpt lat="43.56225" lon="1.29129">
        <ele>184.6</ele>
        <time>2024-05-20T05:57:02Z</time>
      </trkpt>
      <trkpt lat="43.56224" lon="1.29129">
        <ele>184.6</ele>
        <time>2024-05-20T05:57:03Z</time>
      </trkpt>
      <trkpt lat="43.56223" lon="1.29129">
        <ele>184.6</ele>
        <time>2024-05-20T05:57:04Z</time>
      </trkpt>
      <trkpt lat="43.56223" lon="1.29129">
        <ele>184.6</ele>
        <time>2024-05-20T05:57:05Z</time>
      </trkpt>
      <trkpt lat="43.56223" lon="1.29129">
        <ele>184.6</ele>
        <time>2024-05-20T05:57:06Z</time>
      </trkpt>
      <trkpt lat="43.56223" lon="1.29129">
        <ele>184.6</ele>
        <time>2024-05-20T05:57:07Z</time>
      </trkpt>
      <trkpt lat="43.56223" lon="1.29125">
        <ele>184.4</ele>
        <time>2024-05-20T06:03:23Z</time>
      </trkpt>
      <trkpt lat="43.56225" lon="1.29121">
        <ele>184.4</ele>
        <time>2024-05-20T06:03:24Z</time>
      </trkpt>
      <trkpt lat="43.56227" lon="1.29119">
        <ele>184.4</ele>
        <time>2024-05-20T06:03:25Z</time>
      </trkpt>
      <trkpt lat="43.5623" lon="1.29116">
        <ele>184.4</ele>
        <time>2024-05-20T06:03:26Z</time>
      </trkpt>
      <trkpt lat="43.56234" lon="1.29114">
        <ele>184.4</ele>
        <time>2024-05-20T06:03:27Z</time>
      </trkpt>
      <trkpt lat="43.56237" lon="1.29111">
        <ele>184.4</ele>
        <time>2024-05-20T06:03:28Z</time>
      </trkpt>
      <trkpt lat="43.56239" lon="1.29108">
        <ele>184.2</ele>
        <time>2024-05-20T06:03:29Z</time>
      </trkpt>
      <trkpt lat="43.56241" lon="1.29105">
        <ele>184.2</ele>
        <time>2024-05-20T06:03:30Z</time>
      </trkpt>
      <trkpt lat="43.56244" lon="1.29102">
        <ele>184.2</ele>
        <time>2024-05-20T06:03:31Z</time>
      </trkpt>
      <trkpt lat="43.56246" lon="1.29099">
        <ele>184.2</ele>
        <time>2024-05-20T06:03:32Z</time>
      </trkpt>
      <trkpt lat="43.56249" lon="1.29096">
        <ele>184</ele>
        <time>2024-05-20T06:03:33Z</time>
      </trkpt>
      <trkpt lat="43.56252" lon="1.29093">
        <ele>184</ele>
        <time>2024-05-20T06:03:34Z</time>
      </trkpt>
      <trkpt lat="43.56255" lon="1.2909">
        <ele>184</ele>
        <time>2024-05-20T06:03:35Z</time>
      </trkpt>
      <trkpt lat="43.56258" lon="1.29087">
        <ele>184</ele>
        <time>2024-05-20T06:03:36Z</time>
      </trkpt>
      <trkpt lat="43.56261" lon="1.29084">
        <ele>184</ele>
        <time>2024-05-20T06:03:37Z</time>
      </trkpt>
      <trkpt lat="43.56264" lon="1.29082">
        <ele>184</ele>
        <time>2024-05-20T06:03:38Z</time>
      </trkpt>
      <trkpt lat="43.56268" lon="1.29079">
        <ele>184</ele>
        <time>2024-05-20T06:03:39Z</time>
      </trkpt>
      <trkpt lat="43.56272" lon="1.29076">
        <ele>184.2</ele>
        <time>2024-05-20T06:03:40Z</time>
      </trkpt>
      <trkpt lat="43.56274" lon="1.29073">
        <ele>184.2</ele>
        <time>2024-05-20T06:03:41Z</time>
      </trkpt>
      <trkpt lat="43.56276" lon="1.29069">
        <ele>184.2</ele>
        <time>2024-05-20T06:03:42Z</time>
      </trkpt>
      <trkpt lat="43.56277" lon="1.29064">
        <ele>184.2</ele>
        <time>2024-05-20T06:03:43Z</time>
      </trkpt>
      <trkpt lat="43.56277" lon="1.29059">
        <ele>184.2</ele>
        <time>2024-05-20T06:03:44Z</time>
      </trkpt>
      <trkpt lat="43.56277" lon="1.29054">
        <ele>184.4</ele>
        <time>2024-05-20T06:03:45Z</time>
      </trkpt>
      <trkpt lat="43.56277" lon="1.29049">
        <ele>184.4</ele>
        <time>2024-05-20T06:03:46Z</time>
      </trkpt>
      <trkpt lat="43.56277" lon="1.29043">
        <ele>184.4</ele>
        <time>2024-05-20T06:03:47Z</time>
      </trkpt>
      <trkpt lat="43.56278" lon="1.29037">
        <ele>184.4</ele>
        <time>2024-05-20T06:03:48Z</time>
      </trkpt>
      <trkpt lat="43.5628" lon="1.29032">
        <ele>184.4</ele>
        <time>2024-05-20T06:03:49Z</time>
      </trkpt>
      <trkpt lat="43.56283" lon="1.29027">
        <ele>184.4</ele>
        <time>2024-05-20T06:03:50Z</time>
      </trkpt>
      <trkpt lat="43.56286" lon="1.29023">
        <ele>184.4</ele>
        <time>2024-05-20T06:03:51Z</time>
      </trkpt>
      <trkpt lat="43.56291" lon="1.2902">
        <ele>184.4</ele>
        <time>2024-05-20T06:03:52Z</time>
      </trkpt>
      <trkpt lat="43.56295" lon="1.29019">
        <ele>184.4</ele>
        <time>2024-05-20T06:03:53Z</time>
      </trkpt>
      <trkpt lat="43.563" lon="1.2902">
        <ele>184.6</ele>
        <time>2024-05-20T06:03:54Z</time>
      </trkpt>
      <trkpt lat="43.56305" lon="1.29024">
        <ele>184.6</ele>
        <time>2024-05-20T06:03:55Z</time>
      </trkpt>
      <trkpt lat="43.56309" lon="1.2903">
        <ele>184.6</ele>
        <time>2024-05-20T06:03:56Z</time>
      </trkpt>
      <trkpt lat="43.56311" lon="1.29035">
        <ele>184.6</ele>
        <time>2024-05-20T06:03:57Z</time>
      </trkpt>
      <trkpt lat="43.56313" lon="1.29042">
        <ele>184.6</ele>
        <time>2024-05-20T06:03:58Z</time>
      </trkpt>
      <trkpt lat="43.56316" lon="1.29048">
        <ele>184.6</ele>
        <time>2024-05-20T06:03:59Z</time>
      </trkpt>
      <trkpt lat="43.56318" lon="1.29054">
        <ele>184.6</ele>
        <time>2024-05-20T06:04:00Z</time>
      </trkpt>
      <trkpt lat="43.56321" lon="1.29061">
        <ele>184.6</ele>
        <time>2024-05-20T06:04:01Z</time>
      </trkpt>
      <trkpt lat="43.56324" lon="1.29068">
        <ele>184.6</ele>
        <time>2024-05-20T06:04:02Z</time>
      </trkpt>
      <trkpt lat="43.56326" lon="1.29075">
        <ele>184.6</ele>
        <time>2024-05-20T06:04:03Z</time>
      </trkpt>
      <trkpt lat="43.56329" lon="1.29082">
        <ele>184.6</ele>
        <time>2024-05-20T06:04:04Z</time>
      </trkpt>
      <trkpt lat="43.56331" lon="1.2909">
        <ele>184.6</ele>
        <time>2024-05-20T06:04:05Z</time>
      </trkpt>
      <trkpt lat="43.56334" lon="1.29097">
        <ele>184.6</ele>
        <time>2024-05-20T06:04:06Z</time>
      </trkpt>
      <trkpt lat="43.56336" lon="1.29105">
        <ele>184.8</ele>
        <time>2024-05-20T06:04:07Z</time>
      </trkpt>
      <trkpt lat="43.56337" lon="1.29113">
        <ele>184.8</ele>
        <time>2024-05-20T06:04:08Z</time>
      </trkpt>
      <trkpt lat="43.56337" lon="1.29121">
        <ele>184.8</ele>
        <time>2024-05-20T06:04:09Z</time>
      </trkpt>
      <trkpt lat="43.56338" lon="1.29129">
        <ele>184.8</ele>
        <time>2024-05-20T06:04:10Z</time>
      </trkpt>
      <trkpt lat="43.56339" lon="1.29136">
        <ele>184.8</ele>
        <time>2024-05-20T06:04:11Z</time>
      </trkpt>
      <trkpt lat="43.56342" lon="1.29144">
        <ele>184.8</ele>
        <time>2024-05-20T06:04:12Z</time>
      </trkpt>
      <trkpt lat="43.56345" lon="1.29147">
        <ele>184.8</ele>
        <time>2024-05-20T06:04:13Z</time>
      </trkpt>
      <trkpt lat="43.5635" lon="1.29147">
        <ele>185</ele>
        <time>2024-05-20T06:04:14Z</time>
      </trkpt>
      <trkpt lat="43.56354" lon="1.29145">
        <ele>185</ele>
        <time>2024-05-20T06:04:15Z</time>
      </trkpt>
      <trkpt lat="43.56358" lon="1.29141">
        <ele>185</ele>
        <time>2024-05-20T06:04:16Z</time>
      </trkpt>
      <trkpt lat="43.56362" lon="1.29136">
        <ele>184.8</ele>
        <time>2024-05-20T06:04:17Z</time>
      </trkpt>
      <trkpt lat="43.56366" lon="1.2913">
        <ele>184.8</ele>
        <time>2024-05-20T06:04:18Z</time>
      </trkpt>
      <trkpt lat="43.5637" lon="1.29124">
        <ele>184.8</ele>
        <time>2024-05-20T06:04:19Z</time>
      </trkpt>
      <trkpt lat="43.56375" lon="1.29119">
        <ele>184.8</ele>
        <time>2024-05-20T06:04:20Z</time>
      </trkpt>
      <trkpt lat="43.5638" lon="1.29113">
        <ele>184.8</ele>
        <time>2024-05-20T06:04:21Z</time>
      </trkpt>
      <trkpt lat="43.56385" lon="1.29108">
        <ele>184.8</ele>
        <time>2024-05-20T06:04:22Z</time>
      </trkpt>
      <trkpt lat="43.5639" lon="1.29103">
        <ele>184.8</ele>
        <time>2024-05-20T06:04:23Z</time>
      </trkpt>
      <trkpt lat="43.56395" lon="1.29097">
        <ele>184.8</ele>
        <time>2024-05-20T06:04:24Z</time>
      </trkpt>
      <trkpt lat="43.56399" lon="1.29091">
        <ele>184.8</ele>
        <time>2024-05-20T06:04:25Z</time>
      </trkpt>
      <trkpt lat="43.56403" lon="1.29085">
        <ele>184.8</ele>
        <time>2024-05-20T06:04:26Z</time>
      </trkpt>
      <trkpt lat="43.56407" lon="1.29078">
        <ele>184.8</ele>
        <time>2024-05-20T06:04:27Z</time>
      </trkpt>
      <trkpt lat="43.56411" lon="1.2907">
        <ele>184.8</ele>
        <time>2024-05-20T06:04:28Z</time>
      </trkpt>
      <trkpt lat="43.56414" lon="1.29064">
        <ele>184.6</ele>
        <time>2024-05-20T06:04:29Z</time>
      </trkpt>
      <trkpt lat="43.56417" lon="1.29057">
        <ele>184.6</ele>
        <time>2024-05-20T06:04:30Z</time>
      </trkpt>
      <trkpt lat="43.5642" lon="1.2905">
        <ele>184.6</ele>
        <time>2024-05-20T06:04:31Z</time>
      </trkpt>
      <trkpt lat="43.56424" lon="1.29043">
        <ele>184.6</ele>
        <time>2024-05-20T06:04:32Z</time>
      </trkpt>
      <trkpt lat="43.56427" lon="1.29036">
        <ele>184.6</ele>
        <time>2024-05-20T06:04:33Z</time>
      </trkpt>
      <trkpt lat="43.5643" lon="1.29029">
        <ele>184.6</ele>
        <time>2024-05-20T06:04:34Z</time>
      </trkpt>
      <trkpt lat="43.56433" lon="1.29022">
        <ele>184.6</ele>
        <time>2024-05-20T06:04:35Z</time>
      </trkpt>
      <trkpt lat="43.56437" lon="1.29015">
        <ele>184.6</ele>
        <time>2024-05-20T06:04:36Z</time>
      </trkpt>
      <trkpt lat="43.5644" lon="1.29007">
        <ele>184.6</ele>
        <time>2024-05-20T06:04:37Z</time>
      </trkpt>
      <trkpt lat="43.56444" lon="1.29001">
        <ele>184.6</ele>
        <time>2024-05-20T06:04:38Z</time>
      </trkpt>
      <trkpt lat="43.56447" lon="1.28994">
        <ele>184.6</ele>
        <time>2024-05-20T06:04:39Z</time>
      </trkpt>
      <trkpt lat="43.56451" lon="1.28986">
        <ele>184.6</ele>
        <time>2024-05-20T06:04:40Z</time>
      </trkpt>
      <trkpt lat="43.56454" lon="1.28979">
        <ele>184.6</ele>
        <time>2024-05-20T06:04:41Z</time>
      </trkpt>
      <trkpt lat="43.56458" lon="1.28972">
        <ele>184.6</ele>
        <time>2024-05-20T06:04:42Z</time>
      </trkpt>
      <trkpt lat="43.56461" lon="1.28965">
        <ele>184.6</ele>
        <time>2024-05-20T06:04:43Z</time>
      </trkpt>
      <trkpt lat="43.56464" lon="1.28958">
        <ele>184.8</ele>
        <time>2024-05-20T06:04:44Z</time>
      </trkpt>
      <trkpt lat="43.56467" lon="1.28952">
        <ele>184.8</ele>
        <time>2024-05-20T06:04:45Z</time>
      </trkpt>
      <trkpt lat="43.56471" lon="1.28945">
        <ele>185</ele>
        <time>2024-05-20T06:04:46Z</time>
      </trkpt>
      <trkpt lat="43.56474" lon="1.28938">
        <ele>185</ele>
        <time>2024-05-20T06:04:47Z</time>
      </trkpt>
      <trkpt lat="43.56477" lon="1.28931">
        <ele>185.2</ele>
        <time>2024-05-20T06:04:48Z</time>
      </trkpt>
      <trkpt lat="43.5648" lon="1.28924">
        <ele>185</ele>
        <time>2024-05-20T06:04:49Z</time>
      </trkpt>
      <trkpt lat="43.56483" lon="1.28918">
        <ele>185</ele>
        <time>2024-05-20T06:04:50Z</time>
      </trkpt>
      <trkpt lat="43.56486" lon="1.28911">
        <ele>185</ele>
        <time>2024-05-20T06:04:51Z</time>
      </trkpt>
      <trkpt lat="43.56489" lon="1.28906">
        <ele>185</ele>
        <time>2024-05-20T06:04:52Z</time>
      </trkpt>
      <trkpt lat="43.56492" lon="1.289">
        <ele>185</ele>
        <time>2024-05-20T06:04:53Z</time>
      </trkpt>
      <trkpt lat="43.56495" lon="1.28895">
        <ele>185</ele>
        <time>2024-05-20T06:04:54Z</time>
      </trkpt>
      <trkpt lat="43.565" lon="1.28891">
        <ele>185</ele>
        <time>2024-05-20T06:04:55Z</time>
      </trkpt>
      <trkpt lat="43.56503" lon="1.28886">
        <ele>185</ele>
        <time>2024-05-20T06:04:56Z</time>
      </trkpt>
      <trkpt lat="43.56506" lon="1.2888">
        <ele>185</ele>
        <time>2024-05-20T06:04:57Z</time>
      </trkpt>
      <trkpt lat="43.56508" lon="1.28873">
        <ele>185</ele>
        <time>2024-05-20T06:04:58Z</time>
      </trkpt>
      <trkpt lat="43.56509" lon="1.28866">
        <ele>185</ele>
        <time>2024-05-20T06:04:59Z</time>
      </trkpt>
      <trkpt lat="43.56511" lon="1.28859">
        <ele>185</ele>
        <time>2024-05-20T06:05:00Z</time>
      </trkpt>
      <trkpt lat="43.56514" lon="1.28852">
        <ele>185.2</ele>
        <time>2024-05-20T06:05:01Z</time>
      </trkpt>
      <trkpt lat="43.56516" lon="1.28845">
        <ele>185.2</ele>
        <time>2024-05-20T06:05:02Z</time>
      </trkpt>
      <trkpt lat="43.56518" lon="1.28838">
        <ele>185.2</ele>
        <time>2024-05-20T06:05:03Z</time>
      </trkpt>
      <trkpt lat="43.56521" lon="1.28831">
        <ele>185.2</ele>
        <time>2024-05-20T06:05:04Z</time>
      </trkpt>
      <trkpt lat="43.56523" lon="1.28825">
        <ele>185.2</ele>
        <time>2024-05-20T06:05:05Z</time>
      </trkpt>
      <trkpt lat="43.56526" lon="1.28818">
        <ele>185.4</ele>
        <time>2024-05-20T06:05:06Z</time>
      </trkpt>
      <trkpt lat="43.56527" lon="1.28814">
        <ele>185.4</ele>
        <time>2024-05-20T06:05:07Z</time>
      </trkpt>
      <trkpt lat="43.56529" lon="1.28808">
        <ele>185.4</ele>
        <time>2024-05-20T06:05:08Z</time>
      </trkpt>
      <trkpt lat="43.56531" lon="1.28803">
        <ele>185.4</ele>
        <time>2024-05-20T06:05:09Z</time>
      </trkpt>
      <trkpt lat="43.56534" lon="1.28797">
        <ele>185.4</ele>
        <time>2024-05-20T06:05:10Z</time>
      </trkpt>
      <trkpt lat="43.56536" lon="1.28791">
        <ele>185.4</ele>
        <time>2024-05-20T06:05:11Z</time>
      </trkpt>
      <trkpt lat="43.56538" lon="1.28785">
        <ele>185.4</ele>
        <time>2024-05-20T06:05:12Z</time>
      </trkpt>
      <trkpt lat="43.5654" lon="1.28779">
        <ele>185.4</ele>
        <time>2024-05-20T06:05:13Z</time>
      </trkpt>
      <trkpt lat="43.56543" lon="1.28772">
        <ele>185.4</ele>
        <time>2024-05-20T06:05:14Z</time>
      </trkpt>
      <trkpt lat="43.56545" lon="1.28766">
        <ele>185.6</ele>
        <time>2024-05-20T06:05:15Z</time>
      </trkpt>
      <trkpt lat="43.56548" lon="1.28759">
        <ele>185.6</ele>
        <time>2024-05-20T06:05:16Z</time>
      </trkpt>
      <trkpt lat="43.5655" lon="1.28752">
        <ele>185.6</ele>
        <time>2024-05-20T06:05:17Z</time>
      </trkpt>
      <trkpt lat="43.56553" lon="1.28745">
        <ele>185.6</ele>
        <time>2024-05-20T06:05:18Z</time>
      </trkpt>
      <trkpt lat="43.56555" lon="1.28739">
        <ele>185.8</ele>
        <time>2024-05-20T06:05:19Z</time>
      </trkpt>
      <trkpt lat="43.56558" lon="1.28732">
        <ele>185.8</ele>
        <time>2024-05-20T06:05:20Z</time>
      </trkpt>
      <trkpt lat="43.5656" lon="1.28726">
        <ele>185.8</ele>
        <time>2024-05-20T06:05:21Z</time>
      </trkpt>
      <trkpt lat="43.56562" lon="1.28719">
        <ele>185.8</ele>
        <time>2024-05-20T06:05:22Z</time>
      </trkpt>
      <trkpt lat="43.56565" lon="1.28712">
        <ele>185.8</ele>
        <time>2024-05-20T06:05:23Z</time>
      </trkpt>
      <trkpt lat="43.56567" lon="1.28706">
        <ele>185.8</ele>
        <time>2024-05-20T06:05:24Z</time>
      </trkpt>
      <trkpt lat="43.5657" lon="1.28699">
        <ele>185.8</ele>
        <time>2024-05-20T06:05:25Z</time>
      </trkpt>
      <trkpt lat="43.56572" lon="1.28692">
        <ele>185.8</ele>
        <time>2024-05-20T06:05:26Z</time>
      </trkpt>
      <trkpt lat="43.56575" lon="1.28684">
        <ele>186</ele>
        <time>2024-05-20T06:05:27Z</time>
      </trkpt>
      <trkpt lat="43.56576" lon="1.28679">
        <ele>186.2</ele>
        <time>2024-05-20T06:05:28Z</time>
      </trkpt>
      <trkpt lat="43.56579" lon="1.28672">
        <ele>186.2</ele>
        <time>2024-05-20T06:05:29Z</time>
      </trkpt>
      <trkpt lat="43.56581" lon="1.28665">
        <ele>186.4</ele>
        <time>2024-05-20T06:05:30Z</time>
      </trkpt>
      <trkpt lat="43.56583" lon="1.28659">
        <ele>186.6</ele>
        <time>2024-05-20T06:05:31Z</time>
      </trkpt>
      <trkpt lat="43.56586" lon="1.28652">
        <ele>186.6</ele>
        <time>2024-05-20T06:05:32Z</time>
      </trkpt>
      <trkpt lat="43.56588" lon="1.28645">
        <ele>186.8</ele>
        <time>2024-05-20T06:05:33Z</time>
      </trkpt>
      <trkpt lat="43.5659" lon="1.28638">
        <ele>186.8</ele>
        <time>2024-05-20T06:05:34Z</time>
      </trkpt>
      <trkpt lat="43.56593" lon="1.28632">
        <ele>187</ele>
        <time>2024-05-20T06:05:35Z</time>
      </trkpt>
      <trkpt lat="43.56595" lon="1.28626">
        <ele>187</ele>
        <time>2024-05-20T06:05:36Z</time>
      </trkpt>
      <trkpt lat="43.56597" lon="1.28619">
        <ele>187</ele>
        <time>2024-05-20T06:05:37Z</time>
      </trkpt>
      <trkpt lat="43.56599" lon="1.28612">
        <ele>187.2</ele>
        <time>2024-05-20T06:05:38Z</time>
      </trkpt>
      <trkpt lat="43.56601" lon="1.28605">
        <ele>187.2</ele>
        <time>2024-05-20T06:05:39Z</time>
      </trkpt>
      <trkpt lat="43.56603" lon="1.28598">
        <ele>187.2</ele>
        <time>2024-05-20T06:05:40Z</time>
      </trkpt>
      <trkpt lat="43.56604" lon="1.28591">
        <ele>187.2</ele>
        <time>2024-05-20T06:05:41Z</time>
      </trkpt>
      <trkpt lat="43.56605" lon="1.28583">
        <ele>187.2</ele>
        <time>2024-05-20T06:05:42Z</time>
      </trkpt>
      <trkpt lat="43.56607" lon="1.28574">
        <ele>187.2</ele>
        <time>2024-05-20T06:05:43Z</time>
      </trkpt>
      <trkpt lat="43.56608" lon="1.28568">
        <ele>187.2</ele>
        <time>2024-05-20T06:05:44Z</time>
      </trkpt>
      <trkpt lat="43.56609" lon="1.28561">
        <ele>187.4</ele>
        <time>2024-05-20T06:05:45Z</time>
      </trkpt>
      <trkpt lat="43.56609" lon="1.28554">
        <ele>187.4</ele>
        <time>2024-05-20T06:05:46Z</time>
      </trkpt>
      <trkpt lat="43.5661" lon="1.28547">
        <ele>187.4</ele>
        <time>2024-05-20T06:05:47Z</time>
      </trkpt>
      <trkpt lat="43.56611" lon="1.2854">
        <ele>187.4</ele>
        <time>2024-05-20T06:05:48Z</time>
      </trkpt>
      <trkpt lat="43.56612" lon="1.28533">
        <ele>187.6</ele>
        <time>2024-05-20T06:05:49Z</time>
      </trkpt>
      <trkpt lat="43.56613" lon="1.28526">
        <ele>187.6</ele>
        <time>2024-05-20T06:05:50Z</time>
      </trkpt>
      <trkpt lat="43.56614" lon="1.28519">
        <ele>187.8</ele>
        <time>2024-05-20T06:05:51Z</time>
      </trkpt>
      <trkpt lat="43.56615" lon="1.28512">
        <ele>187.8</ele>
        <time>2024-05-20T06:05:52Z</time>
      </trkpt>
      <trkpt lat="43.56616" lon="1.28504">
        <ele>188</ele>
        <time>2024-05-20T06:05:53Z</time>
      </trkpt>
      <trkpt lat="43.56618" lon="1.28496">
        <ele>188.2</ele>
        <time>2024-05-20T06:05:54Z</time>
      </trkpt>
      <trkpt lat="43.56619" lon="1.28489">
        <ele>188.2</ele>
        <time>2024-05-20T06:05:55Z</time>
      </trkpt>
      <trkpt lat="43.5662" lon="1.28481">
        <ele>188.4</ele>
        <time>2024-05-20T06:05:56Z</time>
      </trkpt>
      <trkpt lat="43.56622" lon="1.28474">
        <ele>188.4</ele>
        <time>2024-05-20T06:05:57Z</time>
      </trkpt>
      <trkpt lat="43.56623" lon="1.28467">
        <ele>188.4</ele>
        <time>2024-05-20T06:05:58Z</time>
      </trkpt>
      <trkpt lat="43.56624" lon="1.28458">
        <ele>188.4</ele>
        <time>2024-05-20T06:05:59Z</time>
      </trkpt>
      <trkpt lat="43.56625" lon="1.28453">
        <ele>188.6</ele>
        <time>2024-05-20T06:06:00Z</time>
      </trkpt>
      <trkpt lat="43.56626" lon="1.28446">
        <ele>188.6</ele>
        <time>2024-05-20T06:06:01Z</time>
      </trkpt>
      <trkpt lat="43.56627" lon="1.28439">
        <ele>188.8</ele>
        <time>2024-05-20T06:06:02Z</time>
      </trkpt>
      <trkpt lat="43.56628" lon="1.28433">
        <ele>189</ele>
        <time>2024-05-20T06:06:03Z</time>
      </trkpt>
      <trkpt lat="43.56628" lon="1.28427">
        <ele>189</ele>
        <time>2024-05-20T06:06:04Z</time>
      </trkpt>
      <trkpt lat="43.56629" lon="1.28421">
        <ele>189.2</ele>
        <time>2024-05-20T06:06:05Z</time>
      </trkpt>
      <trkpt lat="43.56631" lon="1.28415">
        <ele>189.2</ele>
        <time>2024-05-20T06:06:06Z</time>
      </trkpt>
      <trkpt lat="43.56633" lon="1.28407">
        <ele>189.6</ele>
        <time>2024-05-20T06:06:07Z</time>
      </trkpt>
      <trkpt lat="43.56634" lon="1.28401">
        <ele>189.6</ele>
        <time>2024-05-20T06:06:08Z</time>
      </trkpt>
      <trkpt lat="43.56636" lon="1.28393">
        <ele>189.8</ele>
        <time>2024-05-20T06:06:09Z</time>
      </trkpt>
      <trkpt lat="43.56637" lon="1.28387">
        <ele>189.8</ele>
        <time>2024-05-20T06:06:10Z</time>
      </trkpt>
      <trkpt lat="43.56638" lon="1.2838">
        <ele>190</ele>
        <time>2024-05-20T06:06:11Z</time>
      </trkpt>
      <trkpt lat="43.56639" lon="1.28374">
        <ele>190.2</ele>
        <time>2024-05-20T06:06:12Z</time>
      </trkpt>
      <trkpt lat="43.56639" lon="1.28367">
        <ele>190.4</ele>
        <time>2024-05-20T06:06:13Z</time>
      </trkpt>
      <trkpt lat="43.56641" lon="1.28361">
        <ele>190.6</ele>
        <time>2024-05-20T06:06:14Z</time>
      </trkpt>
      <trkpt lat="43.56642" lon="1.28355">
        <ele>190.6</ele>
        <time>2024-05-20T06:06:15Z</time>
      </trkpt>
      <trkpt lat="43.56644" lon="1.28349">
        <ele>190.8</ele>
        <time>2024-05-20T06:06:16Z</time>
      </trkpt>
      <trkpt lat="43.56646" lon="1.28344">
        <ele>191</ele>
        <time>2024-05-20T06:06:17Z</time>
      </trkpt>
      <trkpt lat="43.56648" lon="1.2834">
        <ele>191.2</ele>
        <time>2024-05-20T06:06:18Z</time>
      </trkpt>
      <trkpt lat="43.5665" lon="1.28336">
        <ele>191.4</ele>
        <time>2024-05-20T06:06:19Z</time>
      </trkpt>
      <trkpt lat="43.56652" lon="1.28331">
        <ele>191.6</ele>
        <time>2024-05-20T06:06:20Z</time>
      </trkpt>
      <trkpt lat="43.56655" lon="1.28326">
        <ele>191.8</ele>
        <time>2024-05-20T06:06:21Z</time>
      </trkpt>
      <trkpt lat="43.56659" lon="1.28322">
        <ele>192</ele>
        <time>2024-05-20T06:06:22Z</time>
      </trkpt>
      <trkpt lat="43.56662" lon="1.28316">
        <ele>192.4</ele>
        <time>2024-05-20T06:06:23Z</time>
      </trkpt>
      <trkpt lat="43.56665" lon="1.28312">
        <ele>192.6</ele>
        <time>2024-05-20T06:06:24Z</time>
      </trkpt>
      <trkpt lat="43.56667" lon="1.28307">
        <ele>193</ele>
        <time>2024-05-20T06:06:25Z</time>
      </trkpt>
      <trkpt lat="43.5667" lon="1.28303">
        <ele>193</ele>
        <time>2024-05-20T06:06:26Z</time>
      </trkpt>
      <trkpt lat="43.56672" lon="1.28299">
        <ele>193.6</ele>
        <time>2024-05-20T06:06:27Z</time>
      </trkpt>
      <trkpt lat="43.56675" lon="1.28295">
        <ele>193.8</ele>
        <time>2024-05-20T06:06:28Z</time>
      </trkpt>
      <trkpt lat="43.56678" lon="1.2829">
        <ele>194</ele>
        <time>2024-05-20T06:06:29Z</time>
      </trkpt>
      <trkpt lat="43.5668" lon="1.28287">
        <ele>194.4</ele>
        <time>2024-05-20T06:06:30Z</time>
      </trkpt>
      <trkpt lat="43.56683" lon="1.28282">
        <ele>194.6</ele>
        <time>2024-05-20T06:06:31Z</time>
      </trkpt>
      <trkpt lat="43.56685" lon="1.28278">
        <ele>195</ele>
        <time>2024-05-20T06:06:32Z</time>
      </trkpt>
      <trkpt lat="43.56688" lon="1.28274">
        <ele>195.2</ele>
        <time>2024-05-20T06:06:33Z</time>
      </trkpt>
      <trkpt lat="43.56691" lon="1.28269">
        <ele>195.6</ele>
        <time>2024-05-20T06:06:34Z</time>
      </trkpt>
      <trkpt lat="43.56694" lon="1.28265">
        <ele>196</ele>
        <time>2024-05-20T06:06:35Z</time>
      </trkpt>
      <trkpt lat="43.56697" lon="1.2826">
        <ele>196.4</ele>
        <time>2024-05-20T06:06:36Z</time>
      </trkpt>
      <trkpt lat="43.56699" lon="1.28256">
        <ele>196.6</ele>
        <time>2024-05-20T06:06:37Z</time>
      </trkpt>
      <trkpt lat="43.56702" lon="1.28252">
        <ele>197</ele>
        <time>2024-05-20T06:06:38Z</time>
      </trkpt>
      <trkpt lat="43.56705" lon="1.28248">
        <ele>197.2</ele>
        <time>2024-05-20T06:06:39Z</time>
      </trkpt>
      <trkpt lat="43.56708" lon="1.28245">
        <ele>197.4</ele>
        <time>2024-05-20T06:06:40Z</time>
      </trkpt>
      <trkpt lat="43.5671" lon="1.28241">
        <ele>197.8</ele>
        <time>2024-05-20T06:06:41Z</time>
      </trkpt>
      <trkpt lat="43.56712" lon="1.28237">
        <ele>198.2</ele>
        <time>2024-05-20T06:06:42Z</time>
      </trkpt>
      <trkpt lat="43.56715" lon="1.28233">
        <ele>198.6</ele>
        <time>2024-05-20T06:06:43Z</time>
      </trkpt>
      <trkpt lat="43.56717" lon="1.2823">
        <ele>198.8</ele>
        <time>2024-05-20T06:06:44Z</time>
      </trkpt>
      <trkpt lat="43.5672" lon="1.28225">
        <ele>199.2</ele>
        <time>2024-05-20T06:06:45Z</time>
      </trkpt>
      <trkpt lat="43.56722" lon="1.28222">
        <ele>199.6</ele>
        <time>2024-05-20T06:06:46Z</time>
      </trkpt>
      <trkpt lat="43.56724" lon="1.28218">
        <ele>200</ele>
        <time>2024-05-20T06:06:47Z</time>
      </trkpt>
      <trkpt lat="43.56727" lon="1.28213">
        <ele>200.4</ele>
        <time>2024-05-20T06:06:48Z</time>
      </trkpt>
      <trkpt lat="43.56728" lon="1.28208">
        <ele>200.6</ele>
        <time>2024-05-20T06:06:49Z</time>
      </trkpt>
      <trkpt lat="43.5673" lon="1.28204">
        <ele>200.8</ele>
        <time>2024-05-20T06:06:50Z</time>
      </trkpt>
      <trkpt lat="43.56732" lon="1.28198">
        <ele>201</ele>
        <time>2024-05-20T06:06:51Z</time>
      </trkpt>
      <trkpt lat="43.56734" lon="1.28191">
        <ele>201.2</ele>
        <time>2024-05-20T06:06:52Z</time>
      </trkpt>
      <trkpt lat="43.56736" lon="1.28186">
        <ele>201.4</ele>
        <time>2024-05-20T06:06:53Z</time>
      </trkpt>
      <trkpt lat="43.56737" lon="1.2818">
        <ele>201.6</ele>
        <time>2024-05-20T06:06:54Z</time>
      </trkpt>
      <trkpt lat="43.56739" lon="1.28174">
        <ele>201.6</ele>
        <time>2024-05-20T06:06:55Z</time>
      </trkpt>
      <trkpt lat="43.5674" lon="1.28168">
        <ele>202</ele>
        <time>2024-05-20T06:06:56Z</time>
      </trkpt>
      <trkpt lat="43.56742" lon="1.28162">
        <ele>202.2</ele>
        <time>2024-05-20T06:06:57Z</time>
      </trkpt>
      <trkpt lat="43.56744" lon="1.28156">
        <ele>202.4</ele>
        <time>2024-05-20T06:06:58Z</time>
      </trkpt>
      <trkpt lat="43.56745" lon="1.28151">
        <ele>202.8</ele>
        <time>2024-05-20T06:06:59Z</time>
      </trkpt>
      <trkpt lat="43.56746" lon="1.28146">
        <ele>203</ele>
        <time>2024-05-20T06:07:00Z</time>
      </trkpt>
      <trkpt lat="43.56748" lon="1.2814">
        <ele>203.2</ele>
        <time>2024-05-20T06:07:01Z</time>
      </trkpt>
      <trkpt lat="43.5675" lon="1.28134">
        <ele>203</ele>
        <time>2024-05-20T06:07:02Z</time>
      </trkpt>
      <trkpt lat="43.56752" lon="1.28128">
        <ele>203.2</ele>
        <time>2024-05-20T06:07:03Z</time>
      </trkpt>
      <trkpt lat="43.56753" lon="1.28122">
        <ele>203.4</ele>
        <time>2024-05-20T06:07:04Z</time>
      </trkpt>
      <trkpt lat="43.56755" lon="1.28115">
        <ele>203.6</ele>
        <time>2024-05-20T06:07:05Z</time>
      </trkpt>
      <trkpt lat="43.56758" lon="1.28109">
        <ele>204</ele>
        <time>2024-05-20T06:07:06Z</time>
      </trkpt>
      <trkpt lat="43.56759" lon="1.28102">
        <ele>204.2</ele>
        <time>2024-05-20T06:07:07Z</time>
      </trkpt>
      <trkpt lat="43.56761" lon="1.28096">
        <ele>204.6</ele>
        <time>2024-05-20T06:07:08Z</time>
      </trkpt>
      <trkpt lat="43.56763" lon="1.28089">
        <ele>204.6</ele>
        <time>2024-05-20T06:07:09Z</time>
      </trkpt>
      <trkpt lat="43.56765" lon="1.28084">
        <ele>204.8</ele>
        <time>2024-05-20T06:07:10Z</time>
      </trkpt>
      <trkpt lat="43.56768" lon="1.28077">
        <ele>204.8</ele>
        <time>2024-05-20T06:07:11Z</time>
      </trkpt>
      <trkpt lat="43.56769" lon="1.28069">
        <ele>205.2</ele>
        <time>2024-05-20T06:07:12Z</time>
      </trkpt>
      <trkpt lat="43.5677" lon="1.28062">
        <ele>205.2</ele>
        <time>2024-05-20T06:07:13Z</time>
      </trkpt>
      <trkpt lat="43.5677" lon="1.28057">
        <ele>205.6</ele>
        <time>2024-05-20T06:07:14Z</time>
      </trkpt>
      <trkpt lat="43.5677" lon="1.28049">
        <ele>206</ele>
        <time>2024-05-20T06:07:15Z</time>
      </trkpt>
      <trkpt lat="43.5677" lon="1.28043">
        <ele>206</ele>
        <time>2024-05-20T06:07:16Z</time>
      </trkpt>
      <trkpt lat="43.56769" lon="1.28035">
        <ele>206.2</ele>
        <time>2024-05-20T06:07:17Z</time>
      </trkpt>
      <trkpt lat="43.56769" lon="1.28028">
        <ele>206.2</ele>
        <time>2024-05-20T06:07:18Z</time>
      </trkpt>
      <trkpt lat="43.56769" lon="1.28022">
        <ele>206.4</ele>
        <time>2024-05-20T06:07:19Z</time>
      </trkpt>
      <trkpt lat="43.56769" lon="1.28016">
        <ele>206.6</ele>
        <time>2024-05-20T06:07:20Z</time>
      </trkpt>
      <trkpt lat="43.56769" lon="1.28009">
        <ele>206.8</ele>
        <time>2024-05-20T06:07:21Z</time>
      </trkpt>
      <trkpt lat="43.56768" lon="1.28004">
        <ele>206.8</ele>
        <time>2024-05-20T06:07:22Z</time>
      </trkpt>
      <trkpt lat="43.56767" lon="1.27996">
        <ele>207.2</ele>
        <time>2024-05-20T06:07:23Z</time>
      </trkpt>
      <trkpt lat="43.56767" lon="1.27991">
        <ele>207.2</ele>
        <time>2024-05-20T06:07:24Z</time>
      </trkpt>
      <trkpt lat="43.56768" lon="1.27986">
        <ele>207.4</ele>
        <time>2024-05-20T06:07:25Z</time>
      </trkpt>
      <trkpt lat="43.56768" lon="1.27979">
        <ele>207.6</ele>
        <time>2024-05-20T06:07:26Z</time>
      </trkpt>
      <trkpt lat="43.56769" lon="1.27973">
        <ele>207.8</ele>
        <time>2024-05-20T06:07:27Z</time>
      </trkpt>
      <trkpt lat="43.56769" lon="1.27966">
        <ele>208</ele>
        <time>2024-05-20T06:07:28Z</time>
      </trkpt>
      <trkpt lat="43.5677" lon="1.27958">
        <ele>208.2</ele>
        <time>2024-05-20T06:07:29Z</time>
      </trkpt>
      <trkpt lat="43.5677" lon="1.27951">
        <ele>208.6</ele>
        <time>2024-05-20T06:07:30Z</time>
      </trkpt>
      <trkpt lat="43.56771" lon="1.27946">
        <ele>208.6</ele>
        <time>2024-05-20T06:07:31Z</time>
      </trkpt>
      <trkpt lat="43.56772" lon="1.27939">
        <ele>209</ele>
        <time>2024-05-20T06:07:32Z</time>
      </trkpt>
      <trkpt lat="43.56772" lon="1.27931">
        <ele>209.2</ele>
        <time>2024-05-20T06:07:33Z</time>
      </trkpt>
      <trkpt lat="43.56773" lon="1.27924">
        <ele>209.4</ele>
        <time>2024-05-20T06:07:34Z</time>
      </trkpt>
      <trkpt lat="43.56774" lon="1.27918">
        <ele>209.6</ele>
        <time>2024-05-20T06:07:35Z</time>
      </trkpt>
      <trkpt lat="43.56775" lon="1.27911">
        <ele>209.8</ele>
        <time>2024-05-20T06:07:36Z</time>
      </trkpt>
      <trkpt lat="43.56775" lon="1.27906">
        <ele>210</ele>
        <time>2024-05-20T06:07:37Z</time>
      </trkpt>
      <trkpt lat="43.56776" lon="1.27899">
        <ele>210</ele>
        <time>2024-05-20T06:07:38Z</time>
      </trkpt>
      <trkpt lat="43.56777" lon="1.2789">
        <ele>210.4</ele>
        <time>2024-05-20T06:07:39Z</time>
      </trkpt>
      <trkpt lat="43.56777" lon="1.27883">
        <ele>210.4</ele>
        <time>2024-05-20T06:07:40Z</time>
      </trkpt>
      <trkpt lat="43.56778" lon="1.27875">
        <ele>210.8</ele>
        <time>2024-05-20T06:07:41Z</time>
      </trkpt>
      <trkpt lat="43.56778" lon="1.27869">
        <ele>211</ele>
        <time>2024-05-20T06:07:42Z</time>
      </trkpt>
      <trkpt lat="43.56779" lon="1.27861">
        <ele>211</ele>
        <time>2024-05-20T06:07:43Z</time>
      </trkpt>
      <trkpt lat="43.5678" lon="1.27854">
        <ele>211.2</ele>
        <time>2024-05-20T06:07:44Z</time>
      </trkpt>
      <trkpt lat="43.56781" lon="1.27846">
        <ele>211.2</ele>
        <time>2024-05-20T06:07:45Z</time>
      </trkpt>
      <trkpt lat="43.56781" lon="1.27837">
        <ele>211.2</ele>
        <time>2024-05-20T06:07:46Z</time>
      </trkpt>
      <trkpt lat="43.56782" lon="1.27831">
        <ele>211.2</ele>
        <time>2024-05-20T06:07:47Z</time>
      </trkpt>
      <trkpt lat="43.56783" lon="1.27823">
        <ele>211.4</ele>
        <time>2024-05-20T06:07:48Z</time>
      </trkpt>
      <trkpt lat="43.56784" lon="1.27814">
        <ele>211.4</ele>
        <time>2024-05-20T06:07:49Z</time>
      </trkpt>
      <trkpt lat="43.56785" lon="1.27806">
        <ele>211.4</ele>
        <time>2024-05-20T06:07:50Z</time>
      </trkpt>
      <trkpt lat="43.56786" lon="1.278">
        <ele>211.6</ele>
        <time>2024-05-20T06:07:51Z</time>
      </trkpt>
      <trkpt lat="43.56787" lon="1.27792">
        <ele>211.6</ele>
        <time>2024-05-20T06:07:52Z</time>
      </trkpt>
      <trkpt lat="43.56788" lon="1.27785">
        <ele>211.6</ele>
        <time>2024-05-20T06:07:53Z</time>
      </trkpt>
      <trkpt lat="43.56789" lon="1.27778">
        <ele>211.6</ele>
        <time>2024-05-20T06:07:54Z</time>
      </trkpt>
      <trkpt lat="43.5679" lon="1.2777">
        <ele>211.8</ele>
        <time>2024-05-20T06:07:55Z</time>
      </trkpt>
      <trkpt lat="43.56791" lon="1.27763">
        <ele>211.8</ele>
        <time>2024-05-20T06:07:56Z</time>
      </trkpt>
      <trkpt lat="43.56791" lon="1.27755">
        <ele>211.8</ele>
        <time>2024-05-20T06:07:57Z</time>
      </trkpt>
      <trkpt lat="43.56792" lon="1.27748">
        <ele>211.8</ele>
        <time>2024-05-20T06:07:58Z</time>
      </trkpt>
      <trkpt lat="43.56793" lon="1.2774">
        <ele>212</ele>
        <time>2024-05-20T06:07:59Z</time>
      </trkpt>
      <trkpt lat="43.56794" lon="1.27731">
        <ele>212</ele>
        <time>2024-05-20T06:08:00Z</time>
      </trkpt>
      <trkpt lat="43.56795" lon="1.27723">
        <ele>212</ele>
        <time>2024-05-20T06:08:01Z</time>
      </trkpt>
      <trkpt lat="43.56795" lon="1.27714">
        <ele>212</ele>
        <time>2024-05-20T06:08:02Z</time>
      </trkpt>
      <trkpt lat="43.56795" lon="1.27707">
        <ele>212</ele>
        <time>2024-05-20T06:08:03Z</time>
      </trkpt>
      <trkpt lat="43.56795" lon="1.27699">
        <ele>212</ele>
        <time>2024-05-20T06:08:04Z</time>
      </trkpt>
      <trkpt lat="43.56794" lon="1.27691">
        <ele>212</ele>
        <time>2024-05-20T06:08:05Z</time>
      </trkpt>
      <trkpt lat="43.56793" lon="1.27683">
        <ele>212.2</ele>
        <time>2024-05-20T06:08:06Z</time>
      </trkpt>
      <trkpt lat="43.56791" lon="1.27675">
        <ele>212.2</ele>
        <time>2024-05-20T06:08:07Z</time>
      </trkpt>
      <trkpt lat="43.56789" lon="1.27667">
        <ele>212.4</ele>
        <time>2024-05-20T06:08:08Z</time>
      </trkpt>
      <trkpt lat="43.56787" lon="1.27659">
        <ele>212.4</ele>
        <time>2024-05-20T06:08:09Z</time>
      </trkpt>
      <trkpt lat="43.56785" lon="1.27651">
        <ele>212.4</ele>
        <time>2024-05-20T06:08:10Z</time>
      </trkpt>
      <trkpt lat="43.56782" lon="1.27641">
        <ele>212.4</ele>
        <time>2024-05-20T06:08:11Z</time>
      </trkpt>
      <trkpt lat="43.5678" lon="1.27634">
        <ele>212.6</ele>
        <time>2024-05-20T06:08:12Z</time>
      </trkpt>
      <trkpt lat="43.56777" lon="1.27626">
        <ele>212.6</ele>
        <time>2024-05-20T06:08:13Z</time>
      </trkpt>
      <trkpt lat="43.56775" lon="1.27618">
        <ele>212.6</ele>
        <time>2024-05-20T06:08:14Z</time>
      </trkpt>
      <trkpt lat="43.56772" lon="1.2761">
        <ele>212.6</ele>
        <time>2024-05-20T06:08:15Z</time>
      </trkpt>
      <trkpt lat="43.56769" lon="1.27602">
        <ele>212.6</ele>
        <time>2024-05-20T06:08:16Z</time>
      </trkpt>
      <trkpt lat="43.56766" lon="1.27594">
        <ele>212.6</ele>
        <time>2024-05-20T06:08:17Z</time>
      </trkpt>
      <trkpt lat="43.56762" lon="1.27584">
        <ele>212.8</ele>
        <time>2024-05-20T06:08:18Z</time>
      </trkpt>
      <trkpt lat="43.5676" lon="1.27577">
        <ele>212.8</ele>
        <time>2024-05-20T06:08:19Z</time>
      </trkpt>
      <trkpt lat="43.56757" lon="1.27569">
        <ele>212.8</ele>
        <time>2024-05-20T06:08:20Z</time>
      </trkpt>
      <trkpt lat="43.56753" lon="1.27561">
        <ele>212.8</ele>
        <time>2024-05-20T06:08:21Z</time>
      </trkpt>
      <trkpt lat="43.5675" lon="1.27553">
        <ele>212.6</ele>
        <time>2024-05-20T06:08:22Z</time>
      </trkpt>
      <trkpt lat="43.56747" lon="1.27545">
        <ele>212.8</ele>
        <time>2024-05-20T06:08:23Z</time>
      </trkpt>
      <trkpt lat="43.56743" lon="1.27536">
        <ele>212.8</ele>
        <time>2024-05-20T06:08:24Z</time>
      </trkpt>
      <trkpt lat="43.5674" lon="1.27529">
        <ele>212.8</ele>
        <time>2024-05-20T06:08:25Z</time>
      </trkpt>
      <trkpt lat="43.56737" lon="1.27521">
        <ele>212.6</ele>
        <time>2024-05-20T06:08:26Z</time>
      </trkpt>
      <trkpt lat="43.56734" lon="1.27513">
        <ele>212.6</ele>
        <time>2024-05-20T06:08:27Z</time>
      </trkpt>
      <trkpt lat="43.56731" lon="1.27504">
        <ele>212.6</ele>
        <time>2024-05-20T06:08:28Z</time>
      </trkpt>
      <trkpt lat="43.56727" lon="1.27496">
        <ele>212.6</ele>
        <time>2024-05-20T06:08:29Z</time>
      </trkpt>
      <trkpt lat="43.56724" lon="1.27488">
        <ele>212.6</ele>
        <time>2024-05-20T06:08:30Z</time>
      </trkpt>
      <trkpt lat="43.56721" lon="1.27479">
        <ele>212.6</ele>
        <time>2024-05-20T06:08:31Z</time>
      </trkpt>
      <trkpt lat="43.56718" lon="1.27471">
        <ele>212.6</ele>
        <time>2024-05-20T06:08:32Z</time>
      </trkpt>
      <trkpt lat="43.56714" lon="1.27463">
        <ele>212.6</ele>
        <time>2024-05-20T06:08:33Z</time>
      </trkpt>
      <trkpt lat="43.5671" lon="1.27454">
        <ele>212.6</ele>
        <time>2024-05-20T06:08:34Z</time>
      </trkpt>
      <trkpt lat="43.56707" lon="1.27447">
        <ele>212.6</ele>
        <time>2024-05-20T06:08:35Z</time>
      </trkpt>
      <trkpt lat="43.56704" lon="1.27439">
        <ele>212.6</ele>
        <time>2024-05-20T06:08:36Z</time>
      </trkpt>
      <trkpt lat="43.567" lon="1.27431">
        <ele>212.6</ele>
        <time>2024-05-20T06:08:37Z</time>
      </trkpt>
      <trkpt lat="43.56697" lon="1.27423">
        <ele>212.6</ele>
        <time>2024-05-20T06:08:38Z</time>
      </trkpt>
      <trkpt lat="43.56692" lon="1.27413">
        <ele>212.6</ele>
        <time>2024-05-20T06:08:39Z</time>
      </trkpt>
      <trkpt lat="43.5669" lon="1.27407">
        <ele>212.6</ele>
        <time>2024-05-20T06:08:40Z</time>
      </trkpt>
      <trkpt lat="43.56686" lon="1.27398">
        <ele>212.6</ele>
        <time>2024-05-20T06:08:41Z</time>
      </trkpt>
      <trkpt lat="43.56683" lon="1.2739">
        <ele>212.8</ele>
        <time>2024-05-20T06:08:42Z</time>
      </trkpt>
      <trkpt lat="43.56679" lon="1.27382">
        <ele>212.8</ele>
        <time>2024-05-20T06:08:43Z</time>
      </trkpt>
      <trkpt lat="43.56675" lon="1.27374">
        <ele>212.8</ele>
        <time>2024-05-20T06:08:44Z</time>
      </trkpt>
      <trkpt lat="43.56671" lon="1.27366">
        <ele>212.8</ele>
        <time>2024-05-20T06:08:45Z</time>
      </trkpt>
      <trkpt lat="43.56667" lon="1.27358">
        <ele>212.8</ele>
        <time>2024-05-20T06:08:46Z</time>
      </trkpt>
      <trkpt lat="43.56663" lon="1.2735">
        <ele>212.8</ele>
        <time>2024-05-20T06:08:47Z</time>
      </trkpt>
      <trkpt lat="43.5666" lon="1.27342">
        <ele>212.8</ele>
        <time>2024-05-20T06:08:48Z</time>
      </trkpt>
      <trkpt lat="43.56656" lon="1.27335">
        <ele>212.8</ele>
        <time>2024-05-20T06:08:49Z</time>
      </trkpt>
      <trkpt lat="43.56652" lon="1.27326">
        <ele>212.8</ele>
        <time>2024-05-20T06:08:50Z</time>
      </trkpt>
      <trkpt lat="43.56648" lon="1.27318">
        <ele>212.8</ele>
        <time>2024-05-20T06:08:51Z</time>
      </trkpt>
      <trkpt lat="43.56644" lon="1.2731">
        <ele>212.8</ele>
        <time>2024-05-20T06:08:52Z</time>
      </trkpt>
      <trkpt lat="43.5664" lon="1.27302">
        <ele>212.8</ele>
        <time>2024-05-20T06:08:53Z</time>
      </trkpt>
      <trkpt lat="43.56636" lon="1.27292">
        <ele>212.8</ele>
        <time>2024-05-20T06:08:54Z</time>
      </trkpt>
      <trkpt lat="43.56633" lon="1.27284">
        <ele>212.8</ele>
        <time>2024-05-20T06:08:55Z</time>
      </trkpt>
      <trkpt lat="43.56628" lon="1.27274">
        <ele>212.8</ele>
        <time>2024-05-20T06:08:56Z</time>
      </trkpt>
      <trkpt lat="43.56625" lon="1.27268">
        <ele>212.8</ele>
        <time>2024-05-20T06:08:57Z</time>
      </trkpt>
      <trkpt lat="43.56621" lon="1.27259">
        <ele>212.8</ele>
        <time>2024-05-20T06:08:58Z</time>
      </trkpt>
      <trkpt lat="43.56617" lon="1.27251">
        <ele>212.8</ele>
        <time>2024-05-20T06:08:59Z</time>
      </trkpt>
      <trkpt lat="43.56613" lon="1.27241">
        <ele>212.8</ele>
        <time>2024-05-20T06:09:00Z</time>
      </trkpt>
      <trkpt lat="43.56609" lon="1.27233">
        <ele>212.6</ele>
        <time>2024-05-20T06:09:01Z</time>
      </trkpt>
      <trkpt lat="43.56605" lon="1.27226">
        <ele>212.6</ele>
        <time>2024-05-20T06:09:02Z</time>
      </trkpt>
      <trkpt lat="43.56601" lon="1.27218">
        <ele>212.6</ele>
        <time>2024-05-20T06:09:03Z</time>
      </trkpt>
      <trkpt lat="43.56597" lon="1.2721">
        <ele>212.6</ele>
        <time>2024-05-20T06:09:04Z</time>
      </trkpt>
      <trkpt lat="43.56593" lon="1.27203">
        <ele>212.6</ele>
        <time>2024-05-20T06:09:05Z</time>
      </trkpt>
      <trkpt lat="43.56589" lon="1.27193">
        <ele>212.6</ele>
        <time>2024-05-20T06:09:06Z</time>
      </trkpt>
      <trkpt lat="43.56586" lon="1.27186">
        <ele>212.6</ele>
        <time>2024-05-20T06:09:07Z</time>
      </trkpt>
      <trkpt lat="43.56582" lon="1.27178">
        <ele>212.6</ele>
        <time>2024-05-20T06:09:08Z</time>
      </trkpt>
      <trkpt lat="43.56578" lon="1.2717">
        <ele>212.6</ele>
        <time>2024-05-20T06:09:09Z</time>
      </trkpt>
      <trkpt lat="43.56573" lon="1.27162">
        <ele>212.6</ele>
        <time>2024-05-20T06:09:10Z</time>
      </trkpt>
      <trkpt lat="43.56569" lon="1.27154">
        <ele>212.6</ele>
        <time>2024-05-20T06:09:11Z</time>
      </trkpt>
      <trkpt lat="43.56564" lon="1.27145">
        <ele>212.6</ele>
        <time>2024-05-20T06:09:12Z</time>
      </trkpt>
      <trkpt lat="43.56561" lon="1.27139">
        <ele>212.6</ele>
        <time>2024-05-20T06:09:13Z</time>
      </trkpt>
      <trkpt lat="43.56557" lon="1.27131">
        <ele>212.6</ele>
        <time>2024-05-20T06:09:14Z</time>
      </trkpt>
      <trkpt lat="43.56551" lon="1.27122">
        <ele>212.6</ele>
        <time>2024-05-20T06:09:15Z</time>
      </trkpt>
      <trkpt lat="43.56547" lon="1.27114">
        <ele>212.6</ele>
        <time>2024-05-20T06:09:16Z</time>
      </trkpt>
      <trkpt lat="43.56543" lon="1.27106">
        <ele>212.6</ele>
        <time>2024-05-20T06:09:17Z</time>
      </trkpt>
      <trkpt lat="43.56539" lon="1.271">
        <ele>212.6</ele>
        <time>2024-05-20T06:09:18Z</time>
      </trkpt>
      <trkpt lat="43.56535" lon="1.27092">
        <ele>212.6</ele>
        <time>2024-05-20T06:09:19Z</time>
      </trkpt>
      <trkpt lat="43.56531" lon="1.27084">
        <ele>212.6</ele>
        <time>2024-05-20T06:09:20Z</time>
      </trkpt>
      <trkpt lat="43.56526" lon="1.27076">
        <ele>212.4</ele>
        <time>2024-05-20T06:09:21Z</time>
      </trkpt>
      <trkpt lat="43.56521" lon="1.27066">
        <ele>212.4</ele>
        <time>2024-05-20T06:09:22Z</time>
      </trkpt>
      <trkpt lat="43.56518" lon="1.2706">
        <ele>212.4</ele>
        <time>2024-05-20T06:09:23Z</time>
      </trkpt>
      <trkpt lat="43.56513" lon="1.27051">
        <ele>212.4</ele>
        <time>2024-05-20T06:09:24Z</time>
      </trkpt>
      <trkpt lat="43.56509" lon="1.27042">
        <ele>212.4</ele>
        <time>2024-05-20T06:09:25Z</time>
      </trkpt>
      <trkpt lat="43.56504" lon="1.27032">
        <ele>212.4</ele>
        <time>2024-05-20T06:09:26Z</time>
      </trkpt>
      <trkpt lat="43.56501" lon="1.27026">
        <ele>212.4</ele>
        <time>2024-05-20T06:09:27Z</time>
      </trkpt>
      <trkpt lat="43.56496" lon="1.27015">
        <ele>212.2</ele>
        <time>2024-05-20T06:09:28Z</time>
      </trkpt>
      <trkpt lat="43.56493" lon="1.27008">
        <ele>212.2</ele>
        <time>2024-05-20T06:09:29Z</time>
      </trkpt>
      <trkpt lat="43.56489" lon="1.27">
        <ele>212.2</ele>
        <time>2024-05-20T06:09:30Z</time>
      </trkpt>
      <trkpt lat="43.56485" lon="1.26991">
        <ele>212.2</ele>
        <time>2024-05-20T06:09:31Z</time>
      </trkpt>
      <trkpt lat="43.56481" lon="1.26981">
        <ele>212.2</ele>
        <time>2024-05-20T06:09:32Z</time>
      </trkpt>
      <trkpt lat="43.56477" lon="1.26973">
        <ele>212.2</ele>
        <time>2024-05-20T06:09:33Z</time>
      </trkpt>
      <trkpt lat="43.56473" lon="1.26966">
        <ele>212.2</ele>
        <time>2024-05-20T06:09:34Z</time>
      </trkpt>
      <trkpt lat="43.56469" lon="1.26958">
        <ele>212.2</ele>
        <time>2024-05-20T06:09:35Z</time>
      </trkpt>
      <trkpt lat="43.56465" lon="1.26947">
        <ele>212.2</ele>
        <time>2024-05-20T06:09:36Z</time>
      </trkpt>
      <trkpt lat="43.56462" lon="1.2694">
        <ele>212.2</ele>
        <time>2024-05-20T06:09:37Z</time>
      </trkpt>
      <trkpt lat="43.56458" lon="1.26932">
        <ele>212.2</ele>
        <time>2024-05-20T06:09:38Z</time>
      </trkpt>
      <trkpt lat="43.56454" lon="1.26923">
        <ele>212.2</ele>
        <time>2024-05-20T06:09:39Z</time>
      </trkpt>
      <trkpt lat="43.5645" lon="1.26915">
        <ele>212.2</ele>
        <time>2024-05-20T06:09:40Z</time>
      </trkpt>
      <trkpt lat="43.56446" lon="1.26906">
        <ele>212.2</ele>
        <time>2024-05-20T06:09:41Z</time>
      </trkpt>
      <trkpt lat="43.56442" lon="1.26895">
        <ele>212.2</ele>
        <time>2024-05-20T06:09:42Z</time>
      </trkpt>
      <trkpt lat="43.56438" lon="1.26887">
        <ele>212.2</ele>
        <time>2024-05-20T06:09:43Z</time>
      </trkpt>
      <trkpt lat="43.56434" lon="1.26878">
        <ele>212.2</ele>
        <time>2024-05-20T06:09:44Z</time>
      </trkpt>
      <trkpt lat="43.56431" lon="1.26871">
        <ele>212.2</ele>
        <time>2024-05-20T06:09:45Z</time>
      </trkpt>
      <trkpt lat="43.56427" lon="1.26861">
        <ele>212.2</ele>
        <time>2024-05-20T06:09:46Z</time>
      </trkpt>
      <trkpt lat="43.56423" lon="1.26852">
        <ele>212.2</ele>
        <time>2024-05-20T06:09:47Z</time>
      </trkpt>
      <trkpt lat="43.56419" lon="1.26842">
        <ele>212.2</ele>
        <time>2024-05-20T06:09:48Z</time>
      </trkpt>
      <trkpt lat="43.56415" lon="1.26833">
        <ele>212.2</ele>
        <time>2024-05-20T06:09:49Z</time>
      </trkpt>
      <trkpt lat="43.56412" lon="1.26826">
        <ele>212.2</ele>
        <time>2024-05-20T06:09:50Z</time>
      </trkpt>
      <trkpt lat="43.56408" lon="1.26817">
        <ele>212.2</ele>
        <time>2024-05-20T06:09:51Z</time>
      </trkpt>
      <trkpt lat="43.56404" lon="1.26808">
        <ele>212.4</ele>
        <time>2024-05-20T06:09:52Z</time>
      </trkpt>
      <trkpt lat="43.564" lon="1.26799">
        <ele>212.4</ele>
        <time>2024-05-20T06:09:53Z</time>
      </trkpt>
      <trkpt lat="43.56396" lon="1.26791">
        <ele>212.4</ele>
        <time>2024-05-20T06:09:54Z</time>
      </trkpt>
      <trkpt lat="43.56393" lon="1.26782">
        <ele>212.4</ele>
        <time>2024-05-20T06:09:55Z</time>
      </trkpt>
      <trkpt lat="43.56389" lon="1.26774">
        <ele>212.4</ele>
        <time>2024-05-20T06:09:56Z</time>
      </trkpt>
      <trkpt lat="43.56385" lon="1.26766">
        <ele>212.4</ele>
        <time>2024-05-20T06:09:57Z</time>
      </trkpt>
      <trkpt lat="43.56381" lon="1.26759">
        <ele>212.4</ele>
        <time>2024-05-20T06:09:58Z</time>
      </trkpt>
      <trkpt lat="43.56377" lon="1.26751">
        <ele>212.4</ele>
        <time>2024-05-20T06:09:59Z</time>
      </trkpt>
      <trkpt lat="43.56373" lon="1.26741">
        <ele>212.4</ele>
        <time>2024-05-20T06:10:00Z</time>
      </trkpt>
      <trkpt lat="43.56369" lon="1.26734">
        <ele>212.4</ele>
        <time>2024-05-20T06:10:01Z</time>
      </trkpt>
      <trkpt lat="43.56366" lon="1.26726">
        <ele>212.4</ele>
        <time>2024-05-20T06:10:02Z</time>
      </trkpt>
      <trkpt lat="43.56362" lon="1.26718">
        <ele>212.4</ele>
        <time>2024-05-20T06:10:03Z</time>
      </trkpt>
      <trkpt lat="43.56357" lon="1.2671">
        <ele>212.4</ele>
        <time>2024-05-20T06:10:04Z</time>
      </trkpt>
      <trkpt lat="43.56353" lon="1.267">
        <ele>212.4</ele>
        <time>2024-05-20T06:10:05Z</time>
      </trkpt>
      <trkpt lat="43.56349" lon="1.26694">
        <ele>212.4</ele>
        <time>2024-05-20T06:10:06Z</time>
      </trkpt>
      <trkpt lat="43.56345" lon="1.26686">
        <ele>212.4</ele>
        <time>2024-05-20T06:10:07Z</time>
      </trkpt>
      <trkpt lat="43.56341" lon="1.26676">
        <ele>212.4</ele>
        <time>2024-05-20T06:10:08Z</time>
      </trkpt>
      <trkpt lat="43.56336" lon="1.26668">
        <ele>212.4</ele>
        <time>2024-05-20T06:10:09Z</time>
      </trkpt>
      <trkpt lat="43.56333" lon="1.26661">
        <ele>212.4</ele>
        <time>2024-05-20T06:10:10Z</time>
      </trkpt>
      <trkpt lat="43.56329" lon="1.26653">
        <ele>212.4</ele>
        <time>2024-05-20T06:10:11Z</time>
      </trkpt>
      <trkpt lat="43.56325" lon="1.26645">
        <ele>212.4</ele>
        <time>2024-05-20T06:10:12Z</time>
      </trkpt>
      <trkpt lat="43.56321" lon="1.26637">
        <ele>212.4</ele>
        <time>2024-05-20T06:10:13Z</time>
      </trkpt>
      <trkpt lat="43.56317" lon="1.2663">
        <ele>212.4</ele>
        <time>2024-05-20T06:10:14Z</time>
      </trkpt>
      <trkpt lat="43.56313" lon="1.26622">
        <ele>212.4</ele>
        <time>2024-05-20T06:10:15Z</time>
      </trkpt>
      <trkpt lat="43.56308" lon="1.26615">
        <ele>212.6</ele>
        <time>2024-05-20T06:10:16Z</time>
      </trkpt>
      <trkpt lat="43.56304" lon="1.26608">
        <ele>212.8</ele>
        <time>2024-05-20T06:10:17Z</time>
      </trkpt>
      <trkpt lat="43.56299" lon="1.26601">
        <ele>212.8</ele>
        <time>2024-05-20T06:10:18Z</time>
      </trkpt>
      <trkpt lat="43.56295" lon="1.26595">
        <ele>212.8</ele>
        <time>2024-05-20T06:10:19Z</time>
      </trkpt>
      <trkpt lat="43.5629" lon="1.26588">
        <ele>212.8</ele>
        <time>2024-05-20T06:10:20Z</time>
      </trkpt>
      <trkpt lat="43.56287" lon="1.26584">
        <ele>212.8</ele>
        <time>2024-05-20T06:10:21Z</time>
      </trkpt>
      <trkpt lat="43.56285" lon="1.26577">
        <ele>212.8</ele>
        <time>2024-05-20T06:10:22Z</time>
      </trkpt>
      <trkpt lat="43.56284" lon="1.2657">
        <ele>212.8</ele>
        <time>2024-05-20T06:10:23Z</time>
      </trkpt>
      <trkpt lat="43.56284" lon="1.26564">
        <ele>213</ele>
        <time>2024-05-20T06:10:24Z</time>
      </trkpt>
      <trkpt lat="43.56285" lon="1.2656">
        <ele>213</ele>
        <time>2024-05-20T06:10:25Z</time>
      </trkpt>
      <trkpt lat="43.56285" lon="1.26556">
        <ele>213.2</ele>
        <time>2024-05-20T06:10:26Z</time>
      </trkpt>
      <trkpt lat="43.56285" lon="1.26552">
        <ele>213.2</ele>
        <time>2024-05-20T06:10:27Z</time>
      </trkpt>
      <trkpt lat="43.56284" lon="1.26548">
        <ele>213.2</ele>
        <time>2024-05-20T06:10:28Z</time>
      </trkpt>
      <trkpt lat="43.56281" lon="1.26545">
        <ele>213.2</ele>
        <time>2024-05-20T06:10:29Z</time>
      </trkpt>
      <trkpt lat="43.56278" lon="1.26541">
        <ele>213.2</ele>
        <time>2024-05-20T06:10:30Z</time>
      </trkpt>
      <trkpt lat="43.56274" lon="1.26537">
        <ele>213.2</ele>
        <time>2024-05-20T06:10:31Z</time>
      </trkpt>
      <trkpt lat="43.5627" lon="1.26532">
        <ele>213.2</ele>
        <time>2024-05-20T06:10:32Z</time>
      </trkpt>
      <trkpt lat="43.56266" lon="1.26527">
        <ele>213.4</ele>
        <time>2024-05-20T06:10:33Z</time>
      </trkpt>
      <trkpt lat="43.56261" lon="1.26522">
        <ele>213.4</ele>
        <time>2024-05-20T06:10:34Z</time>
      </trkpt>
      <trkpt lat="43.56257" lon="1.26516">
        <ele>213.4</ele>
        <time>2024-05-20T06:10:35Z</time>
      </trkpt>
      <trkpt lat="43.56252" lon="1.26509">
        <ele>213.4</ele>
        <time>2024-05-20T06:10:36Z</time>
      </trkpt>
      <trkpt lat="43.56248" lon="1.26504">
        <ele>213.4</ele>
        <time>2024-05-20T06:10:37Z</time>
      </trkpt>
      <trkpt lat="43.56244" lon="1.26498">
        <ele>213.2</ele>
        <time>2024-05-20T06:10:38Z</time>
      </trkpt>
      <trkpt lat="43.56239" lon="1.26492">
        <ele>213.2</ele>
        <time>2024-05-20T06:10:39Z</time>
      </trkpt>
      <trkpt lat="43.56235" lon="1.26486">
        <ele>213.2</ele>
        <time>2024-05-20T06:10:40Z</time>
      </trkpt>
      <trkpt lat="43.56229" lon="1.2648">
        <ele>213.2</ele>
        <time>2024-05-20T06:10:41Z</time>
      </trkpt>
      <trkpt lat="43.56224" lon="1.26474">
        <ele>213.4</ele>
        <time>2024-05-20T06:10:42Z</time>
      </trkpt>
      <trkpt lat="43.56218" lon="1.26469">
        <ele>213.2</ele>
        <time>2024-05-20T06:10:43Z</time>
      </trkpt>
      <trkpt lat="43.56212" lon="1.26463">
        <ele>213.2</ele>
        <time>2024-05-20T06:10:44Z</time>
      </trkpt>
      <trkpt lat="43.56207" lon="1.26458">
        <ele>213.2</ele>
        <time>2024-05-20T06:10:45Z</time>
      </trkpt>
      <trkpt lat="43.562" lon="1.26453">
        <ele>213.2</ele>
        <time>2024-05-20T06:10:46Z</time>
      </trkpt>
      <trkpt lat="43.56194" lon="1.26447">
        <ele>213.2</ele>
        <time>2024-05-20T06:10:47Z</time>
      </trkpt>
      <trkpt lat="43.56188" lon="1.26442">
        <ele>213.2</ele>
        <time>2024-05-20T06:10:48Z</time>
      </trkpt>
      <trkpt lat="43.56182" lon="1.26437">
        <ele>213.4</ele>
        <time>2024-05-20T06:10:49Z</time>
      </trkpt>
      <trkpt lat="43.56176" lon="1.26431">
        <ele>213.4</ele>
        <time>2024-05-20T06:10:50Z</time>
      </trkpt>
      <trkpt lat="43.5617" lon="1.26425">
        <ele>213.4</ele>
        <time>2024-05-20T06:10:51Z</time>
      </trkpt>
      <trkpt lat="43.56165" lon="1.26419">
        <ele>213.4</ele>
        <time>2024-05-20T06:10:52Z</time>
      </trkpt>
      <trkpt lat="43.56159" lon="1.26413">
        <ele>213.6</ele>
        <time>2024-05-20T06:10:53Z</time>
      </trkpt>
      <trkpt lat="43.56153" lon="1.26407">
        <ele>213.6</ele>
        <time>2024-05-20T06:10:54Z</time>
      </trkpt>
      <trkpt lat="43.56148" lon="1.26401">
        <ele>213.6</ele>
        <time>2024-05-20T06:10:55Z</time>
      </trkpt>
      <trkpt lat="43.56142" lon="1.26394">
        <ele>213.8</ele>
        <time>2024-05-20T06:10:56Z</time>
      </trkpt>
      <trkpt lat="43.56137" lon="1.26387">
        <ele>213.8</ele>
        <time>2024-05-20T06:10:57Z</time>
      </trkpt>
      <trkpt lat="43.56132" lon="1.26381">
        <ele>213.8</ele>
        <time>2024-05-20T06:10:58Z</time>
      </trkpt>
      <trkpt lat="43.56126" lon="1.26374">
        <ele>213.8</ele>
        <time>2024-05-20T06:10:59Z</time>
      </trkpt>
      <trkpt lat="43.56121" lon="1.26367">
        <ele>213.8</ele>
        <time>2024-05-20T06:11:00Z</time>
      </trkpt>
      <trkpt lat="43.56116" lon="1.2636">
        <ele>213.8</ele>
        <time>2024-05-20T06:11:01Z</time>
      </trkpt>
      <trkpt lat="43.56111" lon="1.26354">
        <ele>213.8</ele>
        <time>2024-05-20T06:11:02Z</time>
      </trkpt>
      <trkpt lat="43.56106" lon="1.26347">
        <ele>213.8</ele>
        <time>2024-05-20T06:11:03Z</time>
      </trkpt>
      <trkpt lat="43.56101" lon="1.2634">
        <ele>214</ele>
        <time>2024-05-20T06:11:04Z</time>
      </trkpt>
      <trkpt lat="43.56096" lon="1.26333">
        <ele>214</ele>
        <time>2024-05-20T06:11:05Z</time>
      </trkpt>
      <trkpt lat="43.56091" lon="1.26326">
        <ele>214</ele>
        <time>2024-05-20T06:11:06Z</time>
      </trkpt>
      <trkpt lat="43.56086" lon="1.26319">
        <ele>214</ele>
        <time>2024-05-20T06:11:07Z</time>
      </trkpt>
      <trkpt lat="43.56081" lon="1.26313">
        <ele>214</ele>
        <time>2024-05-20T06:11:08Z</time>
      </trkpt>
      <trkpt lat="43.56076" lon="1.26306">
        <ele>214</ele>
        <time>2024-05-20T06:11:09Z</time>
      </trkpt>
      <trkpt lat="43.56072" lon="1.26299">
        <ele>214</ele>
        <time>2024-05-20T06:11:10Z</time>
      </trkpt>
      <trkpt lat="43.56067" lon="1.26292">
        <ele>214</ele>
        <time>2024-05-20T06:11:11Z</time>
      </trkpt>
      <trkpt lat="43.56062" lon="1.26285">
        <ele>214</ele>
        <time>2024-05-20T06:11:12Z</time>
      </trkpt>
      <trkpt lat="43.56057" lon="1.26279">
        <ele>214</ele>
        <time>2024-05-20T06:11:13Z</time>
      </trkpt>
      <trkpt lat="43.56053" lon="1.26272">
        <ele>214</ele>
        <time>2024-05-20T06:11:14Z</time>
      </trkpt>
      <trkpt lat="43.56048" lon="1.26265">
        <ele>214</ele>
        <time>2024-05-20T06:11:15Z</time>
      </trkpt>
      <trkpt lat="43.56044" lon="1.26259">
        <ele>214</ele>
        <time>2024-05-20T06:11:16Z</time>
      </trkpt>
      <trkpt lat="43.56039" lon="1.26252">
        <ele>214</ele>
        <time>2024-05-20T06:11:17Z</time>
      </trkpt>
      <trkpt lat="43.56035" lon="1.26245">
        <ele>214</ele>
        <time>2024-05-20T06:11:18Z</time>
      </trkpt>
      <trkpt lat="43.5603" lon="1.26238">
        <ele>214</ele>
        <time>2024-05-20T06:11:19Z</time>
      </trkpt>
      <trkpt lat="43.56025" lon="1.26232">
        <ele>214</ele>
        <time>2024-05-20T06:11:20Z</time>
      </trkpt>
      <trkpt lat="43.5602" lon="1.26225">
        <ele>214</ele>
        <time>2024-05-20T06:11:21Z</time>
      </trkpt>
      <trkpt lat="43.56015" lon="1.26218">
        <ele>214.2</ele>
        <time>2024-05-20T06:11:22Z</time>
      </trkpt>
      <trkpt lat="43.5601" lon="1.26211">
        <ele>214.2</ele>
        <time>2024-05-20T06:11:23Z</time>
      </trkpt>
      <trkpt lat="43.56005" lon="1.26205">
        <ele>214.2</ele>
        <time>2024-05-20T06:11:24Z</time>
      </trkpt>
      <trkpt lat="43.56" lon="1.26199">
        <ele>214.2</ele>
        <time>2024-05-20T06:11:25Z</time>
      </trkpt>
      <trkpt lat="43.55995" lon="1.26192">
        <ele>214.2</ele>
        <time>2024-05-20T06:11:26Z</time>
      </trkpt>
      <trkpt lat="43.55989" lon="1.26186">
        <ele>214.2</ele>
        <time>2024-05-20T06:11:27Z</time>
      </trkpt>
      <trkpt lat="43.55984" lon="1.26179">
        <ele>214.2</ele>
        <time>2024-05-20T06:11:28Z</time>
      </trkpt>
      <trkpt lat="43.55979" lon="1.26173">
        <ele>214.2</ele>
        <time>2024-05-20T06:11:29Z</time>
      </trkpt>
      <trkpt lat="43.55974" lon="1.26166">
        <ele>214.2</ele>
        <time>2024-05-20T06:11:30Z</time>
      </trkpt>
      <trkpt lat="43.55968" lon="1.26159">
        <ele>214.2</ele>
        <time>2024-05-20T06:11:31Z</time>
      </trkpt>
      <trkpt lat="43.55963" lon="1.26153">
        <ele>214.2</ele>
        <time>2024-05-20T06:11:32Z</time>
      </trkpt>
      <trkpt lat="43.55958" lon="1.26146">
        <ele>214.2</ele>
        <time>2024-05-20T06:11:33Z</time>
      </trkpt>
      <trkpt lat="43.55953" lon="1.26139">
        <ele>214.2</ele>
        <time>2024-05-20T06:11:34Z</time>
      </trkpt>
      <trkpt lat="43.55947" lon="1.26132">
        <ele>214.2</ele>
        <time>2024-05-20T06:11:35Z</time>
      </trkpt>
      <trkpt lat="43.55942" lon="1.26125">
        <ele>214.4</ele>
        <time>2024-05-20T06:11:36Z</time>
      </trkpt>
      <trkpt lat="43.55937" lon="1.26118">
        <ele>214.4</ele>
        <time>2024-05-20T06:11:37Z</time>
      </trkpt>
      <trkpt lat="43.55931" lon="1.26112">
        <ele>214.4</ele>
        <time>2024-05-20T06:11:38Z</time>
      </trkpt>
      <trkpt lat="43.55925" lon="1.26105">
        <ele>214.4</ele>
        <time>2024-05-20T06:11:39Z</time>
      </trkpt>
      <trkpt lat="43.55919" lon="1.26099">
        <ele>214.4</ele>
        <time>2024-05-20T06:11:40Z</time>
      </trkpt>
      <trkpt lat="43.55914" lon="1.26092">
        <ele>214.4</ele>
        <time>2024-05-20T06:11:41Z</time>
      </trkpt>
      <trkpt lat="43.55908" lon="1.26086">
        <ele>214.2</ele>
        <time>2024-05-20T06:11:42Z</time>
      </trkpt>
      <trkpt lat="43.55903" lon="1.26079">
        <ele>214.4</ele>
        <time>2024-05-20T06:11:43Z</time>
      </trkpt>
      <trkpt lat="43.55898" lon="1.26072">
        <ele>214.4</ele>
        <time>2024-05-20T06:11:44Z</time>
      </trkpt>
      <trkpt lat="43.55892" lon="1.26065">
        <ele>214.4</ele>
        <time>2024-05-20T06:11:45Z</time>
      </trkpt>
      <trkpt lat="43.55887" lon="1.26058">
        <ele>214.2</ele>
        <time>2024-05-20T06:11:46Z</time>
      </trkpt>
      <trkpt lat="43.55882" lon="1.26051">
        <ele>214.2</ele>
        <time>2024-05-20T06:11:47Z</time>
      </trkpt>
      <trkpt lat="43.55876" lon="1.26045">
        <ele>214.2</ele>
        <time>2024-05-20T06:11:48Z</time>
      </trkpt>
      <trkpt lat="43.55871" lon="1.26038">
        <ele>214.2</ele>
        <time>2024-05-20T06:11:49Z</time>
      </trkpt>
      <trkpt lat="43.55866" lon="1.26032">
        <ele>214.2</ele>
        <time>2024-05-20T06:11:50Z</time>
      </trkpt>
      <trkpt lat="43.5586" lon="1.26025">
        <ele>214.2</ele>
        <time>2024-05-20T06:11:51Z</time>
      </trkpt>
      <trkpt lat="43.55855" lon="1.26018">
        <ele>214.4</ele>
        <time>2024-05-20T06:11:52Z</time>
      </trkpt>
      <trkpt lat="43.55849" lon="1.26012">
        <ele>214.4</ele>
        <time>2024-05-20T06:11:53Z</time>
      </trkpt>
      <trkpt lat="43.55844" lon="1.26005">
        <ele>214.4</ele>
        <time>2024-05-20T06:11:54Z</time>
      </trkpt>
      <trkpt lat="43.55839" lon="1.25998">
        <ele>214.4</ele>
        <time>2024-05-20T06:11:55Z</time>
      </trkpt>
      <trkpt lat="43.55834" lon="1.25992">
        <ele>214.4</ele>
        <time>2024-05-20T06:11:56Z</time>
      </trkpt>
      <trkpt lat="43.55828" lon="1.25985">
        <ele>214.6</ele>
        <time>2024-05-20T06:11:57Z</time>
      </trkpt>
      <trkpt lat="43.55823" lon="1.25978">
        <ele>214.6</ele>
        <time>2024-05-20T06:11:58Z</time>
      </trkpt>
      <trkpt lat="43.55818" lon="1.25971">
        <ele>214.6</ele>
        <time>2024-05-20T06:11:59Z</time>
      </trkpt>
      <trkpt lat="43.55812" lon="1.25964">
        <ele>214.6</ele>
        <time>2024-05-20T06:12:00Z</time>
      </trkpt>
      <trkpt lat="43.55807" lon="1.25958">
        <ele>214.8</ele>
        <time>2024-05-20T06:12:01Z</time>
      </trkpt>
      <trkpt lat="43.55802" lon="1.25951">
        <ele>214.8</ele>
        <time>2024-05-20T06:12:02Z</time>
      </trkpt>
      <trkpt lat="43.55796" lon="1.25944">
        <ele>214.8</ele>
        <time>2024-05-20T06:12:03Z</time>
      </trkpt>
      <trkpt lat="43.55791" lon="1.25937">
        <ele>214.8</ele>
        <time>2024-05-20T06:12:04Z</time>
      </trkpt>
      <trkpt lat="43.55787" lon="1.25929">
        <ele>214.8</ele>
        <time>2024-05-20T06:12:05Z</time>
      </trkpt>
      <trkpt lat="43.55782" lon="1.25922">
        <ele>214.8</ele>
        <time>2024-05-20T06:12:06Z</time>
      </trkpt>
      <trkpt lat="43.55777" lon="1.25915">
        <ele>214.8</ele>
        <time>2024-05-20T06:12:07Z</time>
      </trkpt>
      <trkpt lat="43.55772" lon="1.25908">
        <ele>214.8</ele>
        <time>2024-05-20T06:12:08Z</time>
      </trkpt>
      <trkpt lat="43.55767" lon="1.25901">
        <ele>214.8</ele>
        <time>2024-05-20T06:12:09Z</time>
      </trkpt>
      <trkpt lat="43.55763" lon="1.25894">
        <ele>214.8</ele>
        <time>2024-05-20T06:12:10Z</time>
      </trkpt>
      <trkpt lat="43.55758" lon="1.25887">
        <ele>214.8</ele>
        <time>2024-05-20T06:12:11Z</time>
      </trkpt>
      <trkpt lat="43.55753" lon="1.25879">
        <ele>215</ele>
        <time>2024-05-20T06:12:12Z</time>
      </trkpt>
      <trkpt lat="43.55748" lon="1.25872">
        <ele>215</ele>
        <time>2024-05-20T06:12:13Z</time>
      </trkpt>
      <trkpt lat="43.55744" lon="1.25865">
        <ele>215</ele>
        <time>2024-05-20T06:12:14Z</time>
      </trkpt>
      <trkpt lat="43.55739" lon="1.25858">
        <ele>215</ele>
        <time>2024-05-20T06:12:15Z</time>
      </trkpt>
      <trkpt lat="43.55734" lon="1.2585">
        <ele>215</ele>
        <time>2024-05-20T06:12:16Z</time>
      </trkpt>
      <trkpt lat="43.55729" lon="1.25843">
        <ele>215</ele>
        <time>2024-05-20T06:12:17Z</time>
      </trkpt>
      <trkpt lat="43.55724" lon="1.25835">
        <ele>215.2</ele>
        <time>2024-05-20T06:12:18Z</time>
      </trkpt>
      <trkpt lat="43.55719" lon="1.25828">
        <ele>215.2</ele>
        <time>2024-05-20T06:12:19Z</time>
      </trkpt>
      <trkpt lat="43.55714" lon="1.2582">
        <ele>215.2</ele>
        <time>2024-05-20T06:12:20Z</time>
      </trkpt>
      <trkpt lat="43.55709" lon="1.25813">
        <ele>215.2</ele>
        <time>2024-05-20T06:12:21Z</time>
      </trkpt>
      <trkpt lat="43.55703" lon="1.25805">
        <ele>215.2</ele>
        <time>2024-05-20T06:12:22Z</time>
      </trkpt>
      <trkpt lat="43.55698" lon="1.25798">
        <ele>215.2</ele>
        <time>2024-05-20T06:12:23Z</time>
      </trkpt>
      <trkpt lat="43.55693" lon="1.25791">
        <ele>215.2</ele>
        <time>2024-05-20T06:12:24Z</time>
      </trkpt>
      <trkpt lat="43.55688" lon="1.25783">
        <ele>215.2</ele>
        <time>2024-05-20T06:12:25Z</time>
      </trkpt>
      <trkpt lat="43.55683" lon="1.25776">
        <ele>215.2</ele>
        <time>2024-05-20T06:12:26Z</time>
      </trkpt>
      <trkpt lat="43.55678" lon="1.25768">
        <ele>215.2</ele>
        <time>2024-05-20T06:12:27Z</time>
      </trkpt>
      <trkpt lat="43.55672" lon="1.25761">
        <ele>215.2</ele>
        <time>2024-05-20T06:12:28Z</time>
      </trkpt>
      <trkpt lat="43.55667" lon="1.25753">
        <ele>215.2</ele>
        <time>2024-05-20T06:12:29Z</time>
      </trkpt>
      <trkpt lat="43.55662" lon="1.25746">
        <ele>215.4</ele>
        <time>2024-05-20T06:12:30Z</time>
      </trkpt>
      <trkpt lat="43.55657" lon="1.25738">
        <ele>215.4</ele>
        <time>2024-05-20T06:12:31Z</time>
      </trkpt>
      <trkpt lat="43.55653" lon="1.2573">
        <ele>215.4</ele>
        <time>2024-05-20T06:12:32Z</time>
      </trkpt>
      <trkpt lat="43.55648" lon="1.25722">
        <ele>215.4</ele>
        <time>2024-05-20T06:12:33Z</time>
      </trkpt>
      <trkpt lat="43.55643" lon="1.25714">
        <ele>215.4</ele>
        <time>2024-05-20T06:12:34Z</time>
      </trkpt>
      <trkpt lat="43.55639" lon="1.25706">
        <ele>215.4</ele>
        <time>2024-05-20T06:12:35Z</time>
      </trkpt>
      <trkpt lat="43.55635" lon="1.25697">
        <ele>215.4</ele>
        <time>2024-05-20T06:12:36Z</time>
      </trkpt>
      <trkpt lat="43.55631" lon="1.25688">
        <ele>215.4</ele>
        <time>2024-05-20T06:12:37Z</time>
      </trkpt>
      <trkpt lat="43.55628" lon="1.25679">
        <ele>215.4</ele>
        <time>2024-05-20T06:12:38Z</time>
      </trkpt>
      <trkpt lat="43.55624" lon="1.2567">
        <ele>215.4</ele>
        <time>2024-05-20T06:12:39Z</time>
      </trkpt>
      <trkpt lat="43.55621" lon="1.2566">
        <ele>215.4</ele>
        <time>2024-05-20T06:12:40Z</time>
      </trkpt>
      <trkpt lat="43.55618" lon="1.25651">
        <ele>215.6</ele>
        <time>2024-05-20T06:12:41Z</time>
      </trkpt>
      <trkpt lat="43.55615" lon="1.25641">
        <ele>215.6</ele>
        <time>2024-05-20T06:12:42Z</time>
      </trkpt>
      <trkpt lat="43.55612" lon="1.2563">
        <ele>215.8</ele>
        <time>2024-05-20T06:12:43Z</time>
      </trkpt>
      <trkpt lat="43.55609" lon="1.25623">
        <ele>215.6</ele>
        <time>2024-05-20T06:12:44Z</time>
      </trkpt>
      <trkpt lat="43.55606" lon="1.25613">
        <ele>215.8</ele>
        <time>2024-05-20T06:12:45Z</time>
      </trkpt>
      <trkpt lat="43.55604" lon="1.25604">
        <ele>215.8</ele>
        <time>2024-05-20T06:12:46Z</time>
      </trkpt>
      <trkpt lat="43.556" lon="1.25594">
        <ele>215.8</ele>
        <time>2024-05-20T06:12:47Z</time>
      </trkpt>
      <trkpt lat="43.55597" lon="1.25585">
        <ele>215.8</ele>
        <time>2024-05-20T06:12:48Z</time>
      </trkpt>
      <trkpt lat="43.55594" lon="1.25576">
        <ele>215.8</ele>
        <time>2024-05-20T06:12:49Z</time>
      </trkpt>
      <trkpt lat="43.5559" lon="1.25567">
        <ele>215.8</ele>
        <time>2024-05-20T06:12:50Z</time>
      </trkpt>
      <trkpt lat="43.55587" lon="1.25557">
        <ele>215.8</ele>
        <time>2024-05-20T06:12:51Z</time>
      </trkpt>
      <trkpt lat="43.55584" lon="1.25548">
        <ele>215.8</ele>
        <time>2024-05-20T06:12:52Z</time>
      </trkpt>
      <trkpt lat="43.55581" lon="1.25539">
        <ele>215.8</ele>
        <time>2024-05-20T06:12:53Z</time>
      </trkpt>
      <trkpt lat="43.55577" lon="1.25529">
        <ele>215.8</ele>
        <time>2024-05-20T06:12:54Z</time>
      </trkpt>
      <trkpt lat="43.55574" lon="1.2552">
        <ele>216</ele>
        <time>2024-05-20T06:12:55Z</time>
      </trkpt>
      <trkpt lat="43.5557" lon="1.25511">
        <ele>216</ele>
        <time>2024-05-20T06:12:56Z</time>
      </trkpt>
      <trkpt lat="43.55567" lon="1.25501">
        <ele>216</ele>
        <time>2024-05-20T06:12:57Z</time>
      </trkpt>
      <trkpt lat="43.55563" lon="1.25492">
        <ele>216</ele>
        <time>2024-05-20T06:12:58Z</time>
      </trkpt>
      <trkpt lat="43.55559" lon="1.25483">
        <ele>216</ele>
        <time>2024-05-20T06:12:59Z</time>
      </trkpt>
      <trkpt lat="43.55555" lon="1.25474">
        <ele>216</ele>
        <time>2024-05-20T06:13:00Z</time>
      </trkpt>
      <trkpt lat="43.55551" lon="1.25466">
        <ele>216</ele>
        <time>2024-05-20T06:13:01Z</time>
      </trkpt>
      <trkpt lat="43.55547" lon="1.25457">
        <ele>216.2</ele>
        <time>2024-05-20T06:13:02Z</time>
      </trkpt>
      <trkpt lat="43.55542" lon="1.25449">
        <ele>216.2</ele>
        <time>2024-05-20T06:13:03Z</time>
      </trkpt>
      <trkpt lat="43.55538" lon="1.25441">
        <ele>216.4</ele>
        <time>2024-05-20T06:13:04Z</time>
      </trkpt>
      <trkpt lat="43.55533" lon="1.25433">
        <ele>216.4</ele>
        <time>2024-05-20T06:13:05Z</time>
      </trkpt>
      <trkpt lat="43.55529" lon="1.25425">
        <ele>216.6</ele>
        <time>2024-05-20T06:13:06Z</time>
      </trkpt>
      <trkpt lat="43.55524" lon="1.25417">
        <ele>216.6</ele>
        <time>2024-05-20T06:13:07Z</time>
      </trkpt>
      <trkpt lat="43.55519" lon="1.25409">
        <ele>216.6</ele>
        <time>2024-05-20T06:13:08Z</time>
      </trkpt>
      <trkpt lat="43.55513" lon="1.25401">
        <ele>216.6</ele>
        <time>2024-05-20T06:13:09Z</time>
      </trkpt>
      <trkpt lat="43.55508" lon="1.25394">
        <ele>216.6</ele>
        <time>2024-05-20T06:13:10Z</time>
      </trkpt>
      <trkpt lat="43.55503" lon="1.25386">
        <ele>216.6</ele>
        <time>2024-05-20T06:13:11Z</time>
      </trkpt>
      <trkpt lat="43.55498" lon="1.25378">
        <ele>216.6</ele>
        <time>2024-05-20T06:13:12Z</time>
      </trkpt>
      <trkpt lat="43.55493" lon="1.25371">
        <ele>216.6</ele>
        <time>2024-05-20T06:13:13Z</time>
      </trkpt>
      <trkpt lat="43.55488" lon="1.25363">
        <ele>216.6</ele>
        <time>2024-05-20T06:13:14Z</time>
      </trkpt>
      <trkpt lat="43.55483" lon="1.25356">
        <ele>216.6</ele>
        <time>2024-05-20T06:13:15Z</time>
      </trkpt>
      <trkpt lat="43.55477" lon="1.25348">
        <ele>216.4</ele>
        <time>2024-05-20T06:13:16Z</time>
      </trkpt>
      <trkpt lat="43.55472" lon="1.2534">
        <ele>216.4</ele>
        <time>2024-05-20T06:13:17Z</time>
      </trkpt>
      <trkpt lat="43.55467" lon="1.25332">
        <ele>216.4</ele>
        <time>2024-05-20T06:13:18Z</time>
      </trkpt>
      <trkpt lat="43.55462" lon="1.25324">
        <ele>216.4</ele>
        <time>2024-05-20T06:13:19Z</time>
      </trkpt>
      <trkpt lat="43.55458" lon="1.25316">
        <ele>216.4</ele>
        <time>2024-05-20T06:13:20Z</time>
      </trkpt>
      <trkpt lat="43.55453" lon="1.25307">
        <ele>216.4</ele>
        <time>2024-05-20T06:13:21Z</time>
      </trkpt>
      <trkpt lat="43.55449" lon="1.25299">
        <ele>216.4</ele>
        <time>2024-05-20T06:13:22Z</time>
      </trkpt>
      <trkpt lat="43.55445" lon="1.2529">
        <ele>216.4</ele>
        <time>2024-05-20T06:13:23Z</time>
      </trkpt>
      <trkpt lat="43.55441" lon="1.25281">
        <ele>216.2</ele>
        <time>2024-05-20T06:13:24Z</time>
      </trkpt>
      <trkpt lat="43.55437" lon="1.25271">
        <ele>216.2</ele>
        <time>2024-05-20T06:13:25Z</time>
      </trkpt>
      <trkpt lat="43.55433" lon="1.25262">
        <ele>216.2</ele>
        <time>2024-05-20T06:13:26Z</time>
      </trkpt>
      <trkpt lat="43.55429" lon="1.25253">
        <ele>216</ele>
        <time>2024-05-20T06:13:27Z</time>
      </trkpt>
      <trkpt lat="43.55426" lon="1.25243">
        <ele>216</ele>
        <time>2024-05-20T06:13:28Z</time>
      </trkpt>
      <trkpt lat="43.55422" lon="1.25233">
        <ele>216</ele>
        <time>2024-05-20T06:13:29Z</time>
      </trkpt>
      <trkpt lat="43.55419" lon="1.25223">
        <ele>216</ele>
        <time>2024-05-20T06:13:30Z</time>
      </trkpt>
      <trkpt lat="43.55415" lon="1.25212">
        <ele>216</ele>
        <time>2024-05-20T06:13:31Z</time>
      </trkpt>
      <trkpt lat="43.55412" lon="1.25204">
        <ele>216</ele>
        <time>2024-05-20T06:13:32Z</time>
      </trkpt>
      <trkpt lat="43.55409" lon="1.25194">
        <ele>216</ele>
        <time>2024-05-20T06:13:33Z</time>
      </trkpt>
      <trkpt lat="43.55405" lon="1.25185">
        <ele>216</ele>
        <time>2024-05-20T06:13:34Z</time>
      </trkpt>
      <trkpt lat="43.55402" lon="1.25175">
        <ele>216</ele>
        <time>2024-05-20T06:13:35Z</time>
      </trkpt>
      <trkpt lat="43.55398" lon="1.25165">
        <ele>216</ele>
        <time>2024-05-20T06:13:36Z</time>
      </trkpt>
      <trkpt lat="43.55395" lon="1.25156">
        <ele>216</ele>
        <time>2024-05-20T06:13:37Z</time>
      </trkpt>
      <trkpt lat="43.55391" lon="1.25146">
        <ele>216</ele>
        <time>2024-05-20T06:13:38Z</time>
      </trkpt>
      <trkpt lat="43.55387" lon="1.25136">
        <ele>216</ele>
        <time>2024-05-20T06:13:39Z</time>
      </trkpt>
      <trkpt lat="43.55384" lon="1.25127">
        <ele>215.8</ele>
        <time>2024-05-20T06:13:40Z</time>
      </trkpt>
      <trkpt lat="43.5538" lon="1.25118">
        <ele>215.8</ele>
        <time>2024-05-20T06:13:41Z</time>
      </trkpt>
      <trkpt lat="43.55376" lon="1.25108">
        <ele>215.8</ele>
        <time>2024-05-20T06:13:42Z</time>
      </trkpt>
      <trkpt lat="43.55372" lon="1.25099">
        <ele>215.8</ele>
        <time>2024-05-20T06:13:43Z</time>
      </trkpt>
      <trkpt lat="43.55368" lon="1.2509">
        <ele>215.8</ele>
        <time>2024-05-20T06:13:44Z</time>
      </trkpt>
      <trkpt lat="43.55364" lon="1.25082">
        <ele>215.8</ele>
        <time>2024-05-20T06:13:45Z</time>
      </trkpt>
      <trkpt lat="43.5536" lon="1.25073">
        <ele>215.8</ele>
        <time>2024-05-20T06:13:46Z</time>
      </trkpt>
      <trkpt lat="43.55355" lon="1.25065">
        <ele>215.8</ele>
        <time>2024-05-20T06:13:47Z</time>
      </trkpt>
      <trkpt lat="43.55351" lon="1.25056">
        <ele>215.8</ele>
        <time>2024-05-20T06:13:48Z</time>
      </trkpt>
      <trkpt lat="43.55346" lon="1.25048">
        <ele>215.8</ele>
        <time>2024-05-20T06:13:49Z</time>
      </trkpt>
      <trkpt lat="43.55341" lon="1.25038">
        <ele>215.8</ele>
        <time>2024-05-20T06:13:50Z</time>
      </trkpt>
      <trkpt lat="43.55337" lon="1.25031">
        <ele>215.8</ele>
        <time>2024-05-20T06:13:51Z</time>
      </trkpt>
      <trkpt lat="43.55333" lon="1.25022">
        <ele>215.8</ele>
        <time>2024-05-20T06:13:52Z</time>
      </trkpt>
      <trkpt lat="43.55329" lon="1.25013">
        <ele>215.8</ele>
        <time>2024-05-20T06:13:53Z</time>
      </trkpt>
      <trkpt lat="43.55325" lon="1.25004">
        <ele>215.8</ele>
        <time>2024-05-20T06:13:54Z</time>
      </trkpt>
      <trkpt lat="43.55321" lon="1.24995">
        <ele>215.8</ele>
        <time>2024-05-20T06:13:55Z</time>
      </trkpt>
      <trkpt lat="43.55318" lon="1.24985">
        <ele>215.8</ele>
        <time>2024-05-20T06:13:56Z</time>
      </trkpt>
      <trkpt lat="43.55314" lon="1.24976">
        <ele>215.8</ele>
        <time>2024-05-20T06:13:57Z</time>
      </trkpt>
      <trkpt lat="43.55311" lon="1.24966">
        <ele>215.8</ele>
        <time>2024-05-20T06:13:58Z</time>
      </trkpt>
      <trkpt lat="43.55308" lon="1.24956">
        <ele>215.8</ele>
        <time>2024-05-20T06:13:59Z</time>
      </trkpt>
      <trkpt lat="43.55305" lon="1.24946">
        <ele>215.8</ele>
        <time>2024-05-20T06:14:00Z</time>
      </trkpt>
      <trkpt lat="43.55302" lon="1.24936">
        <ele>215.8</ele>
        <time>2024-05-20T06:14:01Z</time>
      </trkpt>
      <trkpt lat="43.55299" lon="1.24926">
        <ele>215.8</ele>
        <time>2024-05-20T06:14:02Z</time>
      </trkpt>
      <trkpt lat="43.55296" lon="1.24915">
        <ele>215.8</ele>
        <time>2024-05-20T06:14:03Z</time>
      </trkpt>
      <trkpt lat="43.55293" lon="1.24905">
        <ele>215.8</ele>
        <time>2024-05-20T06:14:04Z</time>
      </trkpt>
      <trkpt lat="43.5529" lon="1.24895">
        <ele>215.8</ele>
        <time>2024-05-20T06:14:05Z</time>
      </trkpt>
      <trkpt lat="43.55287" lon="1.24886">
        <ele>215.8</ele>
        <time>2024-05-20T06:14:06Z</time>
      </trkpt>
      <trkpt lat="43.55285" lon="1.24876">
        <ele>215.8</ele>
        <time>2024-05-20T06:14:07Z</time>
      </trkpt>
      <trkpt lat="43.55282" lon="1.24866">
        <ele>215.8</ele>
        <time>2024-05-20T06:14:08Z</time>
      </trkpt>
      <trkpt lat="43.55279" lon="1.24857">
        <ele>215.8</ele>
        <time>2024-05-20T06:14:09Z</time>
      </trkpt>
      <trkpt lat="43.55277" lon="1.24847">
        <ele>215.8</ele>
        <time>2024-05-20T06:14:10Z</time>
      </trkpt>
      <trkpt lat="43.55274" lon="1.24837">
        <ele>215.8</ele>
        <time>2024-05-20T06:14:11Z</time>
      </trkpt>
      <trkpt lat="43.55271" lon="1.24828">
        <ele>215.8</ele>
        <time>2024-05-20T06:14:12Z</time>
      </trkpt>
      <trkpt lat="43.55268" lon="1.24818">
        <ele>215.8</ele>
        <time>2024-05-20T06:14:13Z</time>
      </trkpt>
      <trkpt lat="43.55266" lon="1.24808">
        <ele>215.8</ele>
        <time>2024-05-20T06:14:14Z</time>
      </trkpt>
      <trkpt lat="43.55263" lon="1.24798">
        <ele>215.8</ele>
        <time>2024-05-20T06:14:15Z</time>
      </trkpt>
      <trkpt lat="43.5526" lon="1.24789">
        <ele>215.8</ele>
        <time>2024-05-20T06:14:16Z</time>
      </trkpt>
      <trkpt lat="43.55258" lon="1.24779">
        <ele>216</ele>
        <time>2024-05-20T06:14:17Z</time>
      </trkpt>
      <trkpt lat="43.55255" lon="1.24769">
        <ele>215.8</ele>
        <time>2024-05-20T06:14:18Z</time>
      </trkpt>
      <trkpt lat="43.55252" lon="1.24759">
        <ele>215.8</ele>
        <time>2024-05-20T06:14:19Z</time>
      </trkpt>
      <trkpt lat="43.55249" lon="1.24749">
        <ele>215.8</ele>
        <time>2024-05-20T06:14:20Z</time>
      </trkpt>
      <trkpt lat="43.55247" lon="1.24739">
        <ele>215.8</ele>
        <time>2024-05-20T06:14:21Z</time>
      </trkpt>
      <trkpt lat="43.55244" lon="1.24729">
        <ele>215.8</ele>
        <time>2024-05-20T06:14:22Z</time>
      </trkpt>
      <trkpt lat="43.55241" lon="1.24719">
        <ele>215.8</ele>
        <time>2024-05-20T06:14:23Z</time>
      </trkpt>
      <trkpt lat="43.55239" lon="1.24709">
        <ele>215.8</ele>
        <time>2024-05-20T06:14:24Z</time>
      </trkpt>
      <trkpt lat="43.55236" lon="1.24699">
        <ele>215.8</ele>
        <time>2024-05-20T06:14:25Z</time>
      </trkpt>
      <trkpt lat="43.55233" lon="1.24689">
        <ele>215.8</ele>
        <time>2024-05-20T06:14:26Z</time>
      </trkpt>
      <trkpt lat="43.5523" lon="1.24679">
        <ele>215.8</ele>
        <time>2024-05-20T06:14:27Z</time>
      </trkpt>
      <trkpt lat="43.55227" lon="1.24669">
        <ele>215.6</ele>
        <time>2024-05-20T06:14:28Z</time>
      </trkpt>
      <trkpt lat="43.55224" lon="1.24659">
        <ele>215.6</ele>
        <time>2024-05-20T06:14:29Z</time>
      </trkpt>
      <trkpt lat="43.55221" lon="1.24649">
        <ele>215.6</ele>
        <time>2024-05-20T06:14:30Z</time>
      </trkpt>
      <trkpt lat="43.55219" lon="1.24638">
        <ele>215.6</ele>
        <time>2024-05-20T06:14:31Z</time>
      </trkpt>
      <trkpt lat="43.55216" lon="1.24628">
        <ele>215.6</ele>
        <time>2024-05-20T06:14:32Z</time>
      </trkpt>
      <trkpt lat="43.55214" lon="1.24618">
        <ele>215.6</ele>
        <time>2024-05-20T06:14:33Z</time>
      </trkpt>
      <trkpt lat="43.55211" lon="1.24608">
        <ele>215.6</ele>
        <time>2024-05-20T06:14:34Z</time>
      </trkpt>
      <trkpt lat="43.55208" lon="1.24598">
        <ele>215.6</ele>
        <time>2024-05-20T06:14:35Z</time>
      </trkpt>
      <trkpt lat="43.55206" lon="1.24588">
        <ele>215.6</ele>
        <time>2024-05-20T06:14:36Z</time>
      </trkpt>
      <trkpt lat="43.55203" lon="1.24576">
        <ele>215.6</ele>
        <time>2024-05-20T06:14:37Z</time>
      </trkpt>
      <trkpt lat="43.55201" lon="1.24567">
        <ele>215.6</ele>
        <time>2024-05-20T06:14:38Z</time>
      </trkpt>
      <trkpt lat="43.55198" lon="1.24557">
        <ele>215.6</ele>
        <time>2024-05-20T06:14:39Z</time>
      </trkpt>
      <trkpt lat="43.55195" lon="1.24547">
        <ele>215.6</ele>
        <time>2024-05-20T06:14:40Z</time>
      </trkpt>
      <trkpt lat="43.55192" lon="1.24538">
        <ele>215.6</ele>
        <time>2024-05-20T06:14:41Z</time>
      </trkpt>
      <trkpt lat="43.55188" lon="1.24528">
        <ele>215.6</ele>
        <time>2024-05-20T06:14:42Z</time>
      </trkpt>
      <trkpt lat="43.55184" lon="1.2452">
        <ele>215.6</ele>
        <time>2024-05-20T06:14:43Z</time>
      </trkpt>
      <trkpt lat="43.5518" lon="1.24511">
        <ele>215.6</ele>
        <time>2024-05-20T06:14:44Z</time>
      </trkpt>
      <trkpt lat="43.55176" lon="1.24503">
        <ele>215.4</ele>
        <time>2024-05-20T06:14:45Z</time>
      </trkpt>
      <trkpt lat="43.55172" lon="1.24495">
        <ele>215.2</ele>
        <time>2024-05-20T06:14:46Z</time>
      </trkpt>
      <trkpt lat="43.55169" lon="1.24487">
        <ele>215.2</ele>
        <time>2024-05-20T06:14:47Z</time>
      </trkpt>
      <trkpt lat="43.55165" lon="1.24479">
        <ele>215.2</ele>
        <time>2024-05-20T06:14:48Z</time>
      </trkpt>
      <trkpt lat="43.55163" lon="1.2447">
        <ele>215.2</ele>
        <time>2024-05-20T06:14:49Z</time>
      </trkpt>
      <trkpt lat="43.55162" lon="1.24461">
        <ele>215.2</ele>
        <time>2024-05-20T06:14:50Z</time>
      </trkpt>
      <trkpt lat="43.5516" lon="1.24452">
        <ele>215.2</ele>
        <time>2024-05-20T06:14:51Z</time>
      </trkpt>
      <trkpt lat="43.55158" lon="1.24445">
        <ele>215.2</ele>
        <time>2024-05-20T06:14:52Z</time>
      </trkpt>
      <trkpt lat="43.55153" lon="1.24438">
        <ele>215.2</ele>
        <time>2024-05-20T06:14:53Z</time>
      </trkpt>
      <trkpt lat="43.55148" lon="1.24435">
        <ele>215.2</ele>
        <time>2024-05-20T06:14:54Z</time>
      </trkpt>
      <trkpt lat="43.55142" lon="1.24434">
        <ele>215.2</ele>
        <time>2024-05-20T06:14:55Z</time>
      </trkpt>
      <trkpt lat="43.55134" lon="1.24433">
        <ele>215.4</ele>
        <time>2024-05-20T06:14:56Z</time>
      </trkpt>
      <trkpt lat="43.55129" lon="1.24433">
        <ele>215.4</ele>
        <time>2024-05-20T06:14:57Z</time>
      </trkpt>
      <trkpt lat="43.55122" lon="1.24431">
        <ele>215.4</ele>
        <time>2024-05-20T06:14:58Z</time>
      </trkpt>
      <trkpt lat="43.55115" lon="1.24427">
        <ele>215.6</ele>
        <time>2024-05-20T06:14:59Z</time>
      </trkpt>
      <trkpt lat="43.55109" lon="1.24423">
        <ele>215.6</ele>
        <time>2024-05-20T06:15:00Z</time>
      </trkpt>
      <trkpt lat="43.55103" lon="1.24418">
        <ele>215.8</ele>
        <time>2024-05-20T06:15:01Z</time>
      </trkpt>
      <trkpt lat="43.55097" lon="1.24414">
        <ele>215.8</ele>
        <time>2024-05-20T06:15:02Z</time>
      </trkpt>
      <trkpt lat="43.55092" lon="1.24409">
        <ele>215.8</ele>
        <time>2024-05-20T06:15:03Z</time>
      </trkpt>
      <trkpt lat="43.55086" lon="1.24403">
        <ele>215.8</ele>
        <time>2024-05-20T06:15:04Z</time>
      </trkpt>
      <trkpt lat="43.55081" lon="1.24398">
        <ele>215.8</ele>
        <time>2024-05-20T06:15:05Z</time>
      </trkpt>
      <trkpt lat="43.55075" lon="1.24392">
        <ele>215.8</ele>
        <time>2024-05-20T06:15:06Z</time>
      </trkpt>
      <trkpt lat="43.5507" lon="1.24387">
        <ele>215.8</ele>
        <time>2024-05-20T06:15:07Z</time>
      </trkpt>
      <trkpt lat="43.55065" lon="1.24382">
        <ele>215.6</ele>
        <time>2024-05-20T06:15:08Z</time>
      </trkpt>
      <trkpt lat="43.5506" lon="1.24376">
        <ele>215.6</ele>
        <time>2024-05-20T06:15:09Z</time>
      </trkpt>
      <trkpt lat="43.55055" lon="1.24371">
        <ele>215.6</ele>
        <time>2024-05-20T06:15:10Z</time>
      </trkpt>
      <trkpt lat="43.5505" lon="1.24365">
        <ele>215.6</ele>
        <time>2024-05-20T06:15:11Z</time>
      </trkpt>
      <trkpt lat="43.55045" lon="1.2436">
        <ele>215.6</ele>
        <time>2024-05-20T06:15:12Z</time>
      </trkpt>
      <trkpt lat="43.5504" lon="1.24355">
        <ele>215.6</ele>
        <time>2024-05-20T06:15:13Z</time>
      </trkpt>
      <trkpt lat="43.55035" lon="1.2435">
        <ele>215.8</ele>
        <time>2024-05-20T06:15:14Z</time>
      </trkpt>
      <trkpt lat="43.5503" lon="1.24344">
        <ele>215.8</ele>
        <time>2024-05-20T06:15:15Z</time>
      </trkpt>
      <trkpt lat="43.55025" lon="1.24339">
        <ele>215.8</ele>
        <time>2024-05-20T06:15:16Z</time>
      </trkpt>
      <trkpt lat="43.5502" lon="1.24333">
        <ele>216</ele>
        <time>2024-05-20T06:15:17Z</time>
      </trkpt>
      <trkpt lat="43.55014" lon="1.24327">
        <ele>216</ele>
        <time>2024-05-20T06:15:18Z</time>
      </trkpt>
      <trkpt lat="43.55009" lon="1.24321">
        <ele>216.2</ele>
        <time>2024-05-20T06:15:19Z</time>
      </trkpt>
      <trkpt lat="43.55003" lon="1.24315">
        <ele>216.2</ele>
        <time>2024-05-20T06:15:20Z</time>
      </trkpt>
      <trkpt lat="43.54998" lon="1.24309">
        <ele>216.2</ele>
        <time>2024-05-20T06:15:21Z</time>
      </trkpt>
      <trkpt lat="43.54992" lon="1.24303">
        <ele>216.4</ele>
        <time>2024-05-20T06:15:22Z</time>
      </trkpt>
      <trkpt lat="43.54986" lon="1.24296">
        <ele>216.4</ele>
        <time>2024-05-20T06:15:23Z</time>
      </trkpt>
      <trkpt lat="43.5498" lon="1.2429">
        <ele>216.4</ele>
        <time>2024-05-20T06:15:24Z</time>
      </trkpt>
      <trkpt lat="43.54975" lon="1.24284">
        <ele>216.4</ele>
        <time>2024-05-20T06:15:25Z</time>
      </trkpt>
      <trkpt lat="43.54969" lon="1.24277">
        <ele>216.4</ele>
        <time>2024-05-20T06:15:26Z</time>
      </trkpt>
      <trkpt lat="43.54964" lon="1.24271">
        <ele>216.4</ele>
        <time>2024-05-20T06:15:27Z</time>
      </trkpt>
      <trkpt lat="43.54958" lon="1.24264">
        <ele>216.4</ele>
        <time>2024-05-20T06:15:28Z</time>
      </trkpt>
      <trkpt lat="43.54953" lon="1.24258">
        <ele>216.4</ele>
        <time>2024-05-20T06:15:29Z</time>
      </trkpt>
      <trkpt lat="43.54947" lon="1.24252">
        <ele>216.4</ele>
        <time>2024-05-20T06:15:30Z</time>
      </trkpt>
      <trkpt lat="43.54941" lon="1.24245">
        <ele>216.4</ele>
        <time>2024-05-20T06:15:31Z</time>
      </trkpt>
      <trkpt lat="43.54936" lon="1.24239">
        <ele>216.4</ele>
        <time>2024-05-20T06:15:32Z</time>
      </trkpt>
      <trkpt lat="43.5493" lon="1.24232">
        <ele>216.4</ele>
        <time>2024-05-20T06:15:33Z</time>
      </trkpt>
      <trkpt lat="43.54924" lon="1.24226">
        <ele>216.4</ele>
        <time>2024-05-20T06:15:34Z</time>
      </trkpt>
      <trkpt lat="43.54918" lon="1.24219">
        <ele>216.4</ele>
        <time>2024-05-20T06:15:35Z</time>
      </trkpt>
      <trkpt lat="43.54913" lon="1.24213">
        <ele>216.4</ele>
        <time>2024-05-20T06:15:36Z</time>
      </trkpt>
      <trkpt lat="43.54907" lon="1.24206">
        <ele>216.2</ele>
        <time>2024-05-20T06:15:37Z</time>
      </trkpt>
      <trkpt lat="43.54901" lon="1.242">
        <ele>216.4</ele>
        <time>2024-05-20T06:15:38Z</time>
      </trkpt>
      <trkpt lat="43.54895" lon="1.24193">
        <ele>216.4</ele>
        <time>2024-05-20T06:15:39Z</time>
      </trkpt>
      <trkpt lat="43.54889" lon="1.24187">
        <ele>216.4</ele>
        <time>2024-05-20T06:15:40Z</time>
      </trkpt>
      <trkpt lat="43.54883" lon="1.24181">
        <ele>216.6</ele>
        <time>2024-05-20T06:15:41Z</time>
      </trkpt>
      <trkpt lat="43.54876" lon="1.24175">
        <ele>216.6</ele>
        <time>2024-05-20T06:15:42Z</time>
      </trkpt>
      <trkpt lat="43.5487" lon="1.24169">
        <ele>216.6</ele>
        <time>2024-05-20T06:15:43Z</time>
      </trkpt>
      <trkpt lat="43.54864" lon="1.24163">
        <ele>216.6</ele>
        <time>2024-05-20T06:15:44Z</time>
      </trkpt>
      <trkpt lat="43.54859" lon="1.24157">
        <ele>216.6</ele>
        <time>2024-05-20T06:15:45Z</time>
      </trkpt>
      <trkpt lat="43.54859" lon="1.24157">
        <ele>216.6</ele>
        <time>2024-05-20T06:15:46Z</time>
      </trkpt>
      <trkpt lat="43.54847" lon="1.24144">
        <ele>216.6</ele>
        <time>2024-05-20T06:15:47Z</time>
      </trkpt>
      <trkpt lat="43.54842" lon="1.24138">
        <ele>216.6</ele>
        <time>2024-05-20T06:15:48Z</time>
      </trkpt>
      <trkpt lat="43.54836" lon="1.24132">
        <ele>216.6</ele>
        <time>2024-05-20T06:15:49Z</time>
      </trkpt>
      <trkpt lat="43.5483" lon="1.24125">
        <ele>216.6</ele>
        <time>2024-05-20T06:15:50Z</time>
      </trkpt>
      <trkpt lat="43.54825" lon="1.24118">
        <ele>216.6</ele>
        <time>2024-05-20T06:15:51Z</time>
      </trkpt>
      <trkpt lat="43.54819" lon="1.24112">
        <ele>216.8</ele>
        <time>2024-05-20T06:15:52Z</time>
      </trkpt>
      <trkpt lat="43.54812" lon="1.24106">
        <ele>216.8</ele>
        <time>2024-05-20T06:15:53Z</time>
      </trkpt>
      <trkpt lat="43.54806" lon="1.24101">
        <ele>216.8</ele>
        <time>2024-05-20T06:15:54Z</time>
      </trkpt>
      <trkpt lat="43.54799" lon="1.24097">
        <ele>216.8</ele>
        <time>2024-05-20T06:15:55Z</time>
      </trkpt>
      <trkpt lat="43.54792" lon="1.24093">
        <ele>216.8</ele>
        <time>2024-05-20T06:15:56Z</time>
      </trkpt>
      <trkpt lat="43.54785" lon="1.24089">
        <ele>216.8</ele>
        <time>2024-05-20T06:15:57Z</time>
      </trkpt>
      <trkpt lat="43.54778" lon="1.24086">
        <ele>217</ele>
        <time>2024-05-20T06:15:58Z</time>
      </trkpt>
      <trkpt lat="43.54771" lon="1.24083">
        <ele>217</ele>
        <time>2024-05-20T06:15:59Z</time>
      </trkpt>
      <trkpt lat="43.54764" lon="1.24079">
        <ele>217</ele>
        <time>2024-05-20T06:16:00Z</time>
      </trkpt>
      <trkpt lat="43.54756" lon="1.24077">
        <ele>217</ele>
        <time>2024-05-20T06:16:01Z</time>
      </trkpt>
      <trkpt lat="43.54749" lon="1.24074">
        <ele>217</ele>
        <time>2024-05-20T06:16:02Z</time>
      </trkpt>
      <trkpt lat="43.54741" lon="1.24072">
        <ele>217</ele>
        <time>2024-05-20T06:16:03Z</time>
      </trkpt>
      <trkpt lat="43.54733" lon="1.2407">
        <ele>217</ele>
        <time>2024-05-20T06:16:04Z</time>
      </trkpt>
      <trkpt lat="43.54726" lon="1.24069">
        <ele>217</ele>
        <time>2024-05-20T06:16:05Z</time>
      </trkpt>
      <trkpt lat="43.54718" lon="1.24068">
        <ele>217</ele>
        <time>2024-05-20T06:16:06Z</time>
      </trkpt>
      <trkpt lat="43.5471" lon="1.24067">
        <ele>217</ele>
        <time>2024-05-20T06:16:07Z</time>
      </trkpt>
      <trkpt lat="43.54702" lon="1.24066">
        <ele>216.8</ele>
        <time>2024-05-20T06:16:08Z</time>
      </trkpt>
      <trkpt lat="43.54694" lon="1.24065">
        <ele>216.8</ele>
        <time>2024-05-20T06:16:09Z</time>
      </trkpt>
      <trkpt lat="43.54687" lon="1.24064">
        <ele>216.8</ele>
        <time>2024-05-20T06:16:10Z</time>
      </trkpt>
      <trkpt lat="43.54679" lon="1.24062">
        <ele>216.8</ele>
        <time>2024-05-20T06:16:11Z</time>
      </trkpt>
      <trkpt lat="43.54671" lon="1.2406">
        <ele>216.8</ele>
        <time>2024-05-20T06:16:12Z</time>
      </trkpt>
      <trkpt lat="43.54664" lon="1.24058">
        <ele>216.8</ele>
        <time>2024-05-20T06:16:13Z</time>
      </trkpt>
      <trkpt lat="43.54656" lon="1.24055">
        <ele>216.8</ele>
        <time>2024-05-20T06:16:14Z</time>
      </trkpt>
      <trkpt lat="43.54649" lon="1.24052">
        <ele>216.8</ele>
        <time>2024-05-20T06:16:15Z</time>
      </trkpt>
      <trkpt lat="43.54642" lon="1.24048">
        <ele>216.8</ele>
        <time>2024-05-20T06:16:16Z</time>
      </trkpt>
      <trkpt lat="43.54635" lon="1.24044">
        <ele>216.8</ele>
        <time>2024-05-20T06:16:17Z</time>
      </trkpt>
      <trkpt lat="43.54628" lon="1.2404">
        <ele>217</ele>
        <time>2024-05-20T06:16:18Z</time>
      </trkpt>
      <trkpt lat="43.54621" lon="1.24035">
        <ele>217</ele>
        <time>2024-05-20T06:16:19Z</time>
      </trkpt>
      <trkpt lat="43.54614" lon="1.2403">
        <ele>217</ele>
        <time>2024-05-20T06:16:20Z</time>
      </trkpt>
      <trkpt lat="43.54607" lon="1.24025">
        <ele>217</ele>
        <time>2024-05-20T06:16:21Z</time>
      </trkpt>
      <trkpt lat="43.546" lon="1.24021">
        <ele>216.8</ele>
        <time>2024-05-20T06:16:22Z</time>
      </trkpt>
      <trkpt lat="43.54593" lon="1.24016">
        <ele>217</ele>
        <time>2024-05-20T06:16:23Z</time>
      </trkpt>
      <trkpt lat="43.54587" lon="1.24011">
        <ele>217</ele>
        <time>2024-05-20T06:16:24Z</time>
      </trkpt>
      <trkpt lat="43.5458" lon="1.24006">
        <ele>217</ele>
        <time>2024-05-20T06:16:25Z</time>
      </trkpt>
      <trkpt lat="43.54573" lon="1.24001">
        <ele>217</ele>
        <time>2024-05-20T06:16:26Z</time>
      </trkpt>
      <trkpt lat="43.54566" lon="1.23996">
        <ele>217</ele>
        <time>2024-05-20T06:16:27Z</time>
      </trkpt>
      <trkpt lat="43.54559" lon="1.23992">
        <ele>216.8</ele>
        <time>2024-05-20T06:16:28Z</time>
      </trkpt>
      <trkpt lat="43.54552" lon="1.23988">
        <ele>217</ele>
        <time>2024-05-20T06:16:29Z</time>
      </trkpt>
      <trkpt lat="43.54545" lon="1.23984">
        <ele>217</ele>
        <time>2024-05-20T06:16:30Z</time>
      </trkpt>
      <trkpt lat="43.54538" lon="1.23979">
        <ele>217</ele>
        <time>2024-05-20T06:16:31Z</time>
      </trkpt>
      <trkpt lat="43.54531" lon="1.23974">
        <ele>217</ele>
        <time>2024-05-20T06:16:32Z</time>
      </trkpt>
      <trkpt lat="43.54524" lon="1.2397">
        <ele>217</ele>
        <time>2024-05-20T06:16:33Z</time>
      </trkpt>
      <trkpt lat="43.54518" lon="1.23965">
        <ele>217</ele>
        <time>2024-05-20T06:16:34Z</time>
      </trkpt>
      <trkpt lat="43.54511" lon="1.2396">
        <ele>217</ele>
        <time>2024-05-20T06:16:35Z</time>
      </trkpt>
      <trkpt lat="43.54504" lon="1.23955">
        <ele>217</ele>
        <time>2024-05-20T06:16:36Z</time>
      </trkpt>
      <trkpt lat="43.54498" lon="1.23949">
        <ele>216.8</ele>
        <time>2024-05-20T06:16:37Z</time>
      </trkpt>
      <trkpt lat="43.54491" lon="1.23944">
        <ele>216.8</ele>
        <time>2024-05-20T06:16:38Z</time>
      </trkpt>
      <trkpt lat="43.54485" lon="1.23939">
        <ele>216.8</ele>
        <time>2024-05-20T06:16:39Z</time>
      </trkpt>
      <trkpt lat="43.54478" lon="1.23934">
        <ele>217</ele>
        <time>2024-05-20T06:16:40Z</time>
      </trkpt>
      <trkpt lat="43.54472" lon="1.23929">
        <ele>216.8</ele>
        <time>2024-05-20T06:16:41Z</time>
      </trkpt>
      <trkpt lat="43.54465" lon="1.23924">
        <ele>216.8</ele>
        <time>2024-05-20T06:16:42Z</time>
      </trkpt>
      <trkpt lat="43.54458" lon="1.23919">
        <ele>217.2</ele>
        <time>2024-05-20T06:16:43Z</time>
      </trkpt>
      <trkpt lat="43.54452" lon="1.23915">
        <ele>217.2</ele>
        <time>2024-05-20T06:16:44Z</time>
      </trkpt>
      <trkpt lat="43.54445" lon="1.2391">
        <ele>217.2</ele>
        <time>2024-05-20T06:16:45Z</time>
      </trkpt>
      <trkpt lat="43.54439" lon="1.23905">
        <ele>217.2</ele>
        <time>2024-05-20T06:16:46Z</time>
      </trkpt>
      <trkpt lat="43.54432" lon="1.239">
        <ele>217.2</ele>
        <time>2024-05-20T06:16:47Z</time>
      </trkpt>
      <trkpt lat="43.54426" lon="1.23895">
        <ele>217.2</ele>
        <time>2024-05-20T06:16:48Z</time>
      </trkpt>
      <trkpt lat="43.54419" lon="1.2389">
        <ele>217.2</ele>
        <time>2024-05-20T06:16:49Z</time>
      </trkpt>
      <trkpt lat="43.54413" lon="1.23885">
        <ele>217.4</ele>
        <time>2024-05-20T06:16:50Z</time>
      </trkpt>
      <trkpt lat="43.54406" lon="1.2388">
        <ele>217.4</ele>
        <time>2024-05-20T06:16:51Z</time>
      </trkpt>
      <trkpt lat="43.544" lon="1.23875">
        <ele>217.6</ele>
        <time>2024-05-20T06:16:52Z</time>
      </trkpt>
      <trkpt lat="43.54394" lon="1.2387">
        <ele>217.6</ele>
        <time>2024-05-20T06:16:53Z</time>
      </trkpt>
      <trkpt lat="43.54387" lon="1.23866">
        <ele>217.6</ele>
        <time>2024-05-20T06:16:54Z</time>
      </trkpt>
      <trkpt lat="43.54381" lon="1.23861">
        <ele>217.6</ele>
        <time>2024-05-20T06:16:55Z</time>
      </trkpt>
      <trkpt lat="43.54374" lon="1.23856">
        <ele>217.8</ele>
        <time>2024-05-20T06:16:56Z</time>
      </trkpt>
      <trkpt lat="43.54368" lon="1.23851">
        <ele>217.8</ele>
        <time>2024-05-20T06:16:57Z</time>
      </trkpt>
      <trkpt lat="43.54361" lon="1.23846">
        <ele>217.8</ele>
        <time>2024-05-20T06:16:58Z</time>
      </trkpt>
      <trkpt lat="43.54355" lon="1.23841">
        <ele>218</ele>
        <time>2024-05-20T06:16:59Z</time>
      </trkpt>
      <trkpt lat="43.54348" lon="1.23837">
        <ele>218</ele>
        <time>2024-05-20T06:17:00Z</time>
      </trkpt>
      <trkpt lat="43.54342" lon="1.23832">
        <ele>218</ele>
        <time>2024-05-20T06:17:01Z</time>
      </trkpt>
      <trkpt lat="43.54336" lon="1.23827">
        <ele>218</ele>
        <time>2024-05-20T06:17:02Z</time>
      </trkpt>
      <trkpt lat="43.54329" lon="1.23822">
        <ele>218.2</ele>
        <time>2024-05-20T06:17:03Z</time>
      </trkpt>
      <trkpt lat="43.54323" lon="1.23817">
        <ele>218.2</ele>
        <time>2024-05-20T06:17:04Z</time>
      </trkpt>
      <trkpt lat="43.54317" lon="1.23812">
        <ele>218.2</ele>
        <time>2024-05-20T06:17:05Z</time>
      </trkpt>
      <trkpt lat="43.54311" lon="1.23807">
        <ele>218.2</ele>
        <time>2024-05-20T06:17:06Z</time>
      </trkpt>
      <trkpt lat="43.54305" lon="1.23801">
        <ele>218.2</ele>
        <time>2024-05-20T06:17:07Z</time>
      </trkpt>
      <trkpt lat="43.543" lon="1.23796">
        <ele>218.2</ele>
        <time>2024-05-20T06:17:08Z</time>
      </trkpt>
      <trkpt lat="43.54294" lon="1.23791">
        <ele>218.4</ele>
        <time>2024-05-20T06:17:09Z</time>
      </trkpt>
      <trkpt lat="43.54288" lon="1.23786">
        <ele>218.4</ele>
        <time>2024-05-20T06:17:10Z</time>
      </trkpt>
      <trkpt lat="43.54281" lon="1.23782">
        <ele>218.4</ele>
        <time>2024-05-20T06:17:11Z</time>
      </trkpt>
      <trkpt lat="43.54275" lon="1.23777">
        <ele>218.4</ele>
        <time>2024-05-20T06:17:12Z</time>
      </trkpt>
      <trkpt lat="43.54269" lon="1.23771">
        <ele>218.4</ele>
        <time>2024-05-20T06:17:13Z</time>
      </trkpt>
      <trkpt lat="43.54262" lon="1.23766">
        <ele>218.4</ele>
        <time>2024-05-20T06:17:14Z</time>
      </trkpt>
      <trkpt lat="43.54255" lon="1.23761">
        <ele>218.4</ele>
        <time>2024-05-20T06:17:15Z</time>
      </trkpt>
      <trkpt lat="43.54249" lon="1.23755">
        <ele>218.6</ele>
        <time>2024-05-20T06:17:16Z</time>
      </trkpt>
      <trkpt lat="43.54242" lon="1.2375">
        <ele>218.6</ele>
        <time>2024-05-20T06:17:17Z</time>
      </trkpt>
      <trkpt lat="43.54236" lon="1.23744">
        <ele>218.6</ele>
        <time>2024-05-20T06:17:18Z</time>
      </trkpt>
      <trkpt lat="43.54229" lon="1.23739">
        <ele>218.6</ele>
        <time>2024-05-20T06:17:19Z</time>
      </trkpt>
      <trkpt lat="43.54223" lon="1.23734">
        <ele>218.6</ele>
        <time>2024-05-20T06:17:20Z</time>
      </trkpt>
      <trkpt lat="43.54217" lon="1.23729">
        <ele>218.6</ele>
        <time>2024-05-20T06:17:21Z</time>
      </trkpt>
      <trkpt lat="43.5421" lon="1.23724">
        <ele>218.6</ele>
        <time>2024-05-20T06:17:22Z</time>
      </trkpt>
      <trkpt lat="43.54204" lon="1.23719">
        <ele>218.6</ele>
        <time>2024-05-20T06:17:23Z</time>
      </trkpt>
      <trkpt lat="43.54198" lon="1.23714">
        <ele>218.6</ele>
        <time>2024-05-20T06:17:24Z</time>
      </trkpt>
      <trkpt lat="43.54192" lon="1.23709">
        <ele>218.6</ele>
        <time>2024-05-20T06:17:25Z</time>
      </trkpt>
      <trkpt lat="43.54185" lon="1.23704">
        <ele>218.6</ele>
        <time>2024-05-20T06:17:26Z</time>
      </trkpt>
      <trkpt lat="43.54179" lon="1.23699">
        <ele>218.6</ele>
        <time>2024-05-20T06:17:27Z</time>
      </trkpt>
      <trkpt lat="43.54172" lon="1.23694">
        <ele>218.6</ele>
        <time>2024-05-20T06:17:28Z</time>
      </trkpt>
      <trkpt lat="43.54166" lon="1.23689">
        <ele>218.6</ele>
        <time>2024-05-20T06:17:29Z</time>
      </trkpt>
      <trkpt lat="43.54159" lon="1.23684">
        <ele>218.6</ele>
        <time>2024-05-20T06:17:30Z</time>
      </trkpt>
      <trkpt lat="43.54152" lon="1.2368">
        <ele>218.6</ele>
        <time>2024-05-20T06:17:31Z</time>
      </trkpt>
      <trkpt lat="43.54145" lon="1.23676">
        <ele>218.6</ele>
        <time>2024-05-20T06:17:32Z</time>
      </trkpt>
      <trkpt lat="43.54138" lon="1.23672">
        <ele>218.6</ele>
        <time>2024-05-20T06:17:33Z</time>
      </trkpt>
      <trkpt lat="43.54131" lon="1.23668">
        <ele>218.6</ele>
        <time>2024-05-20T06:17:34Z</time>
      </trkpt>
      <trkpt lat="43.54123" lon="1.23664">
        <ele>218.6</ele>
        <time>2024-05-20T06:17:35Z</time>
      </trkpt>
      <trkpt lat="43.54116" lon="1.23661">
        <ele>218.6</ele>
        <time>2024-05-20T06:17:36Z</time>
      </trkpt>
      <trkpt lat="43.54109" lon="1.23657">
        <ele>218.6</ele>
        <time>2024-05-20T06:17:37Z</time>
      </trkpt>
      <trkpt lat="43.54101" lon="1.23654">
        <ele>218.6</ele>
        <time>2024-05-20T06:17:38Z</time>
      </trkpt>
      <trkpt lat="43.54094" lon="1.2365">
        <ele>218.6</ele>
        <time>2024-05-20T06:17:39Z</time>
      </trkpt>
      <trkpt lat="43.54087" lon="1.23646">
        <ele>218.6</ele>
        <time>2024-05-20T06:17:40Z</time>
      </trkpt>
      <trkpt lat="43.5408" lon="1.23642">
        <ele>218.4</ele>
        <time>2024-05-20T06:17:41Z</time>
      </trkpt>
      <trkpt lat="43.54072" lon="1.23639">
        <ele>218.4</ele>
        <time>2024-05-20T06:17:42Z</time>
      </trkpt>
      <trkpt lat="43.54065" lon="1.23635">
        <ele>218.4</ele>
        <time>2024-05-20T06:17:43Z</time>
      </trkpt>
      <trkpt lat="43.54057" lon="1.23631">
        <ele>218.4</ele>
        <time>2024-05-20T06:17:44Z</time>
      </trkpt>
      <trkpt lat="43.5405" lon="1.23627">
        <ele>218.4</ele>
        <time>2024-05-20T06:17:45Z</time>
      </trkpt>
      <trkpt lat="43.54043" lon="1.23624">
        <ele>218.2</ele>
        <time>2024-05-20T06:17:46Z</time>
      </trkpt>
      <trkpt lat="43.54036" lon="1.23621">
        <ele>218</ele>
        <time>2024-05-20T06:17:47Z</time>
      </trkpt>
      <trkpt lat="43.54028" lon="1.2362">
        <ele>217.8</ele>
        <time>2024-05-20T06:17:48Z</time>
      </trkpt>
      <trkpt lat="43.54021" lon="1.23618">
        <ele>217.8</ele>
        <time>2024-05-20T06:17:49Z</time>
      </trkpt>
      <trkpt lat="43.54014" lon="1.23617">
        <ele>217.6</ele>
        <time>2024-05-20T06:17:50Z</time>
      </trkpt>
      <trkpt lat="43.54007" lon="1.23614">
        <ele>217.6</ele>
        <time>2024-05-20T06:17:51Z</time>
      </trkpt>
      <trkpt lat="43.54" lon="1.23611">
        <ele>217.6</ele>
        <time>2024-05-20T06:17:52Z</time>
      </trkpt>
      <trkpt lat="43.53994" lon="1.23606">
        <ele>217.6</ele>
        <time>2024-05-20T06:17:53Z</time>
      </trkpt>
      <trkpt lat="43.53988" lon="1.23601">
        <ele>217.6</ele>
        <time>2024-05-20T06:17:54Z</time>
      </trkpt>
      <trkpt lat="43.53983" lon="1.23594">
        <ele>217.6</ele>
        <time>2024-05-20T06:17:55Z</time>
      </trkpt>
      <trkpt lat="43.53979" lon="1.23587">
        <ele>217.6</ele>
        <time>2024-05-20T06:17:56Z</time>
      </trkpt>
      <trkpt lat="43.53974" lon="1.23579">
        <ele>218</ele>
        <time>2024-05-20T06:17:57Z</time>
      </trkpt>
      <trkpt lat="43.5397" lon="1.23571">
        <ele>218.2</ele>
        <time>2024-05-20T06:17:58Z</time>
      </trkpt>
      <trkpt lat="43.53966" lon="1.23563">
        <ele>218.4</ele>
        <time>2024-05-20T06:17:59Z</time>
      </trkpt>
      <trkpt lat="43.53962" lon="1.23555">
        <ele>218.4</ele>
        <time>2024-05-20T06:18:00Z</time>
      </trkpt>
      <trkpt lat="43.53958" lon="1.23547">
        <ele>218.4</ele>
        <time>2024-05-20T06:18:01Z</time>
      </trkpt>
      <trkpt lat="43.53954" lon="1.23539">
        <ele>218.4</ele>
        <time>2024-05-20T06:18:02Z</time>
      </trkpt>
      <trkpt lat="43.5395" lon="1.23532">
        <ele>218.6</ele>
        <time>2024-05-20T06:18:03Z</time>
      </trkpt>
      <trkpt lat="43.53946" lon="1.23524">
        <ele>218.6</ele>
        <time>2024-05-20T06:18:04Z</time>
      </trkpt>
      <trkpt lat="43.53942" lon="1.23516">
        <ele>218.6</ele>
        <time>2024-05-20T06:18:05Z</time>
      </trkpt>
      <trkpt lat="43.53938" lon="1.23507">
        <ele>218.6</ele>
        <time>2024-05-20T06:18:06Z</time>
      </trkpt>
      <trkpt lat="43.53934" lon="1.23499">
        <ele>218.6</ele>
        <time>2024-05-20T06:18:07Z</time>
      </trkpt>
      <trkpt lat="43.53929" lon="1.23491">
        <ele>218.8</ele>
        <time>2024-05-20T06:18:08Z</time>
      </trkpt>
      <trkpt lat="43.53925" lon="1.23483">
        <ele>218.8</ele>
        <time>2024-05-20T06:18:09Z</time>
      </trkpt>
      <trkpt lat="43.53921" lon="1.23475">
        <ele>219</ele>
        <time>2024-05-20T06:18:10Z</time>
      </trkpt>
      <trkpt lat="43.53917" lon="1.23467">
        <ele>219</ele>
        <time>2024-05-20T06:18:11Z</time>
      </trkpt>
      <trkpt lat="43.53912" lon="1.23459">
        <ele>219.2</ele>
        <time>2024-05-20T06:18:12Z</time>
      </trkpt>
      <trkpt lat="43.53908" lon="1.2345">
        <ele>219.2</ele>
        <time>2024-05-20T06:18:13Z</time>
      </trkpt>
      <trkpt lat="43.53904" lon="1.23442">
        <ele>219.2</ele>
        <time>2024-05-20T06:18:14Z</time>
      </trkpt>
      <trkpt lat="43.539" lon="1.23434">
        <ele>219.2</ele>
        <time>2024-05-20T06:18:15Z</time>
      </trkpt>
      <trkpt lat="43.53895" lon="1.23426">
        <ele>219.2</ele>
        <time>2024-05-20T06:18:16Z</time>
      </trkpt>
      <trkpt lat="43.53891" lon="1.23419">
        <ele>219.2</ele>
        <time>2024-05-20T06:18:17Z</time>
      </trkpt>
      <trkpt lat="43.53887" lon="1.23411">
        <ele>219.2</ele>
        <time>2024-05-20T06:18:18Z</time>
      </trkpt>
      <trkpt lat="43.53883" lon="1.23403">
        <ele>219.2</ele>
        <time>2024-05-20T06:18:19Z</time>
      </trkpt>
      <trkpt lat="43.53879" lon="1.23395">
        <ele>219.2</ele>
        <time>2024-05-20T06:18:20Z</time>
      </trkpt>
      <trkpt lat="43.53874" lon="1.23387">
        <ele>219.4</ele>
        <time>2024-05-20T06:18:21Z</time>
      </trkpt>
      <trkpt lat="43.5387" lon="1.23379">
        <ele>219.4</ele>
        <time>2024-05-20T06:18:22Z</time>
      </trkpt>
      <trkpt lat="43.53866" lon="1.23371">
        <ele>219.4</ele>
        <time>2024-05-20T06:18:23Z</time>
      </trkpt>
      <trkpt lat="43.53861" lon="1.23363">
        <ele>219.4</ele>
        <time>2024-05-20T06:18:24Z</time>
      </trkpt>
      <trkpt lat="43.53856" lon="1.23355">
        <ele>219.4</ele>
        <time>2024-05-20T06:18:25Z</time>
      </trkpt>
      <trkpt lat="43.53852" lon="1.23347">
        <ele>219.4</ele>
        <time>2024-05-20T06:18:26Z</time>
      </trkpt>
      <trkpt lat="43.53848" lon="1.23339">
        <ele>219.4</ele>
        <time>2024-05-20T06:18:27Z</time>
      </trkpt>
      <trkpt lat="43.53843" lon="1.2333">
        <ele>219.4</ele>
        <time>2024-05-20T06:18:28Z</time>
      </trkpt>
      <trkpt lat="43.53838" lon="1.23322">
        <ele>219.4</ele>
        <time>2024-05-20T06:18:29Z</time>
      </trkpt>
      <trkpt lat="43.53834" lon="1.23313">
        <ele>219.4</ele>
        <time>2024-05-20T06:18:30Z</time>
      </trkpt>
      <trkpt lat="43.5383" lon="1.23305">
        <ele>219.4</ele>
        <time>2024-05-20T06:18:31Z</time>
      </trkpt>
      <trkpt lat="43.53826" lon="1.23297">
        <ele>219.4</ele>
        <time>2024-05-20T06:18:32Z</time>
      </trkpt>
      <trkpt lat="43.53821" lon="1.23288">
        <ele>219.4</ele>
        <time>2024-05-20T06:18:33Z</time>
      </trkpt>
      <trkpt lat="43.53817" lon="1.2328">
        <ele>219.4</ele>
        <time>2024-05-20T06:18:34Z</time>
      </trkpt>
      <trkpt lat="43.53813" lon="1.23272">
        <ele>219.4</ele>
        <time>2024-05-20T06:18:35Z</time>
      </trkpt>
      <trkpt lat="43.53809" lon="1.23264">
        <ele>219.4</ele>
        <time>2024-05-20T06:18:36Z</time>
      </trkpt>
      <trkpt lat="43.53805" lon="1.23256">
        <ele>219.2</ele>
        <time>2024-05-20T06:18:37Z</time>
      </trkpt>
      <trkpt lat="43.53801" lon="1.23248">
        <ele>219.2</ele>
        <time>2024-05-20T06:18:38Z</time>
      </trkpt>
      <trkpt lat="43.53797" lon="1.2324">
        <ele>219.2</ele>
        <time>2024-05-20T06:18:39Z</time>
      </trkpt>
      <trkpt lat="43.53792" lon="1.23232">
        <ele>219.2</ele>
        <time>2024-05-20T06:18:40Z</time>
      </trkpt>
      <trkpt lat="43.53788" lon="1.23224">
        <ele>219.2</ele>
        <time>2024-05-20T06:18:41Z</time>
      </trkpt>
      <trkpt lat="43.53784" lon="1.23216">
        <ele>219.2</ele>
        <time>2024-05-20T06:18:42Z</time>
      </trkpt>
      <trkpt lat="43.53779" lon="1.23208">
        <ele>219.2</ele>
        <time>2024-05-20T06:18:43Z</time>
      </trkpt>
      <trkpt lat="43.53775" lon="1.232">
        <ele>219.2</ele>
        <time>2024-05-20T06:18:44Z</time>
      </trkpt>
      <trkpt lat="43.5377" lon="1.23193">
        <ele>219.2</ele>
        <time>2024-05-20T06:18:45Z</time>
      </trkpt>
      <trkpt lat="43.53766" lon="1.23185">
        <ele>219.4</ele>
        <time>2024-05-20T06:18:46Z</time>
      </trkpt>
      <trkpt lat="43.53761" lon="1.23177">
        <ele>219.4</ele>
        <time>2024-05-20T06:18:47Z</time>
      </trkpt>
      <trkpt lat="43.53757" lon="1.2317">
        <ele>219.4</ele>
        <time>2024-05-20T06:18:48Z</time>
      </trkpt>
      <trkpt lat="43.53752" lon="1.23162">
        <ele>219.4</ele>
        <time>2024-05-20T06:18:49Z</time>
      </trkpt>
      <trkpt lat="43.53747" lon="1.23155">
        <ele>219.6</ele>
        <time>2024-05-20T06:18:50Z</time>
      </trkpt>
      <trkpt lat="43.53742" lon="1.23148">
        <ele>219.6</ele>
        <time>2024-05-20T06:18:51Z</time>
      </trkpt>
      <trkpt lat="43.53737" lon="1.2314">
        <ele>219.6</ele>
        <time>2024-05-20T06:18:52Z</time>
      </trkpt>
      <trkpt lat="43.53732" lon="1.23133">
        <ele>219.6</ele>
        <time>2024-05-20T06:18:53Z</time>
      </trkpt>
      <trkpt lat="43.53726" lon="1.23126">
        <ele>219.6</ele>
        <time>2024-05-20T06:18:54Z</time>
      </trkpt>
      <trkpt lat="43.53721" lon="1.2312">
        <ele>219.6</ele>
        <time>2024-05-20T06:18:55Z</time>
      </trkpt>
      <trkpt lat="43.53715" lon="1.23114">
        <ele>219.6</ele>
        <time>2024-05-20T06:18:56Z</time>
      </trkpt>
      <trkpt lat="43.53709" lon="1.23107">
        <ele>219.6</ele>
        <time>2024-05-20T06:18:57Z</time>
      </trkpt>
      <trkpt lat="43.53703" lon="1.23101">
        <ele>219.6</ele>
        <time>2024-05-20T06:18:58Z</time>
      </trkpt>
      <trkpt lat="43.53697" lon="1.23095">
        <ele>219.6</ele>
        <time>2024-05-20T06:18:59Z</time>
      </trkpt>
      <trkpt lat="43.53691" lon="1.23088">
        <ele>219.4</ele>
        <time>2024-05-20T06:19:00Z</time>
      </trkpt>
      <trkpt lat="43.53685" lon="1.23082">
        <ele>219.6</ele>
        <time>2024-05-20T06:19:01Z</time>
      </trkpt>
      <trkpt lat="43.5368" lon="1.23076">
        <ele>219.6</ele>
        <time>2024-05-20T06:19:02Z</time>
      </trkpt>
      <trkpt lat="43.53674" lon="1.23069">
        <ele>219.4</ele>
        <time>2024-05-20T06:19:03Z</time>
      </trkpt>
      <trkpt lat="43.53668" lon="1.23063">
        <ele>219.4</ele>
        <time>2024-05-20T06:19:04Z</time>
      </trkpt>
      <trkpt lat="43.53663" lon="1.23057">
        <ele>219.4</ele>
        <time>2024-05-20T06:19:05Z</time>
      </trkpt>
      <trkpt lat="43.53657" lon="1.23051">
        <ele>219.4</ele>
        <time>2024-05-20T06:19:06Z</time>
      </trkpt>
      <trkpt lat="43.53651" lon="1.23045">
        <ele>219.4</ele>
        <time>2024-05-20T06:19:07Z</time>
      </trkpt>
      <trkpt lat="43.53645" lon="1.23039">
        <ele>219.4</ele>
        <time>2024-05-20T06:19:08Z</time>
      </trkpt>
      <trkpt lat="43.5364" lon="1.23033">
        <ele>219.4</ele>
        <time>2024-05-20T06:19:09Z</time>
      </trkpt>
      <trkpt lat="43.53635" lon="1.23028">
        <ele>219.4</ele>
        <time>2024-05-20T06:19:10Z</time>
      </trkpt>
      <trkpt lat="43.5363" lon="1.23023">
        <ele>219.4</ele>
        <time>2024-05-20T06:19:11Z</time>
      </trkpt>
      <trkpt lat="43.53626" lon="1.23019">
        <ele>219.4</ele>
        <time>2024-05-20T06:19:12Z</time>
      </trkpt>
      <trkpt lat="43.53623" lon="1.23016">
        <ele>219.2</ele>
        <time>2024-05-20T06:19:13Z</time>
      </trkpt>
      <trkpt lat="43.5362" lon="1.23013">
        <ele>219.2</ele>
        <time>2024-05-20T06:19:14Z</time>
      </trkpt>
      <trkpt lat="43.53619" lon="1.23012">
        <ele>219.2</ele>
        <time>2024-05-20T06:19:15Z</time>
      </trkpt>
      <trkpt lat="43.53618" lon="1.23011">
        <ele>219.2</ele>
        <time>2024-05-20T06:19:16Z</time>
      </trkpt>
      <trkpt lat="43.53617" lon="1.2301">
        <ele>219.2</ele>
        <time>2024-05-20T06:19:17Z</time>
      </trkpt>
      <trkpt lat="43.53617" lon="1.2301">
        <ele>219.2</ele>
        <time>2024-05-20T06:19:18Z</time>
      </trkpt>
      <trkpt lat="43.53617" lon="1.23009">
        <ele>219.4</ele>
        <time>2024-05-20T06:19:19Z</time>
      </trkpt>
      <trkpt lat="43.53617" lon="1.23009">
        <ele>219.4</ele>
        <time>2024-05-20T06:19:20Z</time>
      </trkpt>
      <trkpt lat="43.53617" lon="1.23009">
        <ele>219.4</ele>
        <time>2024-05-20T06:19:21Z</time>
      </trkpt>
      <trkpt lat="43.53616" lon="1.23009">
        <ele>219.4</ele>
        <time>2024-05-20T06:19:22Z</time>
      </trkpt>
      <trkpt lat="43.53616" lon="1.23009">
        <ele>219.4</ele>
        <time>2024-05-20T06:19:23Z</time>
      </trkpt>
      <trkpt lat="43.53613" lon="1.23006">
        <ele>219</ele>
        <time>2024-05-20T06:19:43Z</time>
      </trkpt>
      <trkpt lat="43.5361" lon="1.23003">
        <ele>219</ele>
        <time>2024-05-20T06:19:44Z</time>
      </trkpt>
      <trkpt lat="43.53607" lon="1.22999">
        <ele>218.8</ele>
        <time>2024-05-20T06:19:45Z</time>
      </trkpt>
      <trkpt lat="43.53603" lon="1.22996">
        <ele>218.8</ele>
        <time>2024-05-20T06:19:46Z</time>
      </trkpt>
      <trkpt lat="43.53598" lon="1.22991">
        <ele>218.8</ele>
        <time>2024-05-20T06:19:47Z</time>
      </trkpt>
      <trkpt lat="43.53594" lon="1.22987">
        <ele>218.8</ele>
        <time>2024-05-20T06:19:48Z</time>
      </trkpt>
      <trkpt lat="43.53589" lon="1.22983">
        <ele>218.6</ele>
        <time>2024-05-20T06:19:49Z</time>
      </trkpt>
      <trkpt lat="43.53585" lon="1.22979">
        <ele>218.6</ele>
        <time>2024-05-20T06:19:50Z</time>
      </trkpt>
      <trkpt lat="43.53579" lon="1.22974">
        <ele>218.6</ele>
        <time>2024-05-20T06:19:51Z</time>
      </trkpt>
      <trkpt lat="43.53575" lon="1.22969">
        <ele>218.6</ele>
        <time>2024-05-20T06:19:52Z</time>
      </trkpt>
      <trkpt lat="43.53571" lon="1.22965">
        <ele>218.6</ele>
        <time>2024-05-20T06:19:53Z</time>
      </trkpt>
      <trkpt lat="43.53566" lon="1.22961">
        <ele>218.6</ele>
        <time>2024-05-20T06:19:54Z</time>
      </trkpt>
      <trkpt lat="43.53562" lon="1.22956">
        <ele>218.6</ele>
        <time>2024-05-20T06:19:55Z</time>
      </trkpt>
      <trkpt lat="43.53556" lon="1.2295">
        <ele>218.6</ele>
        <time>2024-05-20T06:19:56Z</time>
      </trkpt>
      <trkpt lat="43.53551" lon="1.22945">
        <ele>218.6</ele>
        <time>2024-05-20T06:19:57Z</time>
      </trkpt>
      <trkpt lat="43.53547" lon="1.22941">
        <ele>218.6</ele>
        <time>2024-05-20T06:19:58Z</time>
      </trkpt>
      <trkpt lat="43.53542" lon="1.22936">
        <ele>218.6</ele>
        <time>2024-05-20T06:19:59Z</time>
      </trkpt>
      <trkpt lat="43.53536" lon="1.22929">
        <ele>218.6</ele>
        <time>2024-05-20T06:20:00Z</time>
      </trkpt>
      <trkpt lat="43.5353" lon="1.22924">
        <ele>218.6</ele>
        <time>2024-05-20T06:20:01Z</time>
      </trkpt>
      <trkpt lat="43.53526" lon="1.22919">
        <ele>218.6</ele>
        <time>2024-05-20T06:20:02Z</time>
      </trkpt>
      <trkpt lat="43.53521" lon="1.22914">
        <ele>218.6</ele>
        <time>2024-05-20T06:20:03Z</time>
      </trkpt>
      <trkpt lat="43.53515" lon="1.22908">
        <ele>218.8</ele>
        <time>2024-05-20T06:20:04Z</time>
      </trkpt>
      <trkpt lat="43.5351" lon="1.22903">
        <ele>218.8</ele>
        <time>2024-05-20T06:20:05Z</time>
      </trkpt>
      <trkpt lat="43.53504" lon="1.22896">
        <ele>218.8</ele>
        <time>2024-05-20T06:20:06Z</time>
      </trkpt>
      <trkpt lat="43.535" lon="1.22892">
        <ele>218.8</ele>
        <time>2024-05-20T06:20:07Z</time>
      </trkpt>
      <trkpt lat="43.53494" lon="1.22887">
        <ele>218.8</ele>
        <time>2024-05-20T06:20:08Z</time>
      </trkpt>
      <trkpt lat="43.53489" lon="1.22882">
        <ele>218.8</ele>
        <time>2024-05-20T06:20:09Z</time>
      </trkpt>
      <trkpt lat="43.53483" lon="1.22877">
        <ele>218.8</ele>
        <time>2024-05-20T06:20:10Z</time>
      </trkpt>
      <trkpt lat="43.53478" lon="1.22872">
        <ele>218.6</ele>
        <time>2024-05-20T06:20:11Z</time>
      </trkpt>
      <trkpt lat="43.53473" lon="1.22866">
        <ele>218.6</ele>
        <time>2024-05-20T06:20:12Z</time>
      </trkpt>
      <trkpt lat="43.53468" lon="1.22862">
        <ele>218.6</ele>
        <time>2024-05-20T06:20:13Z</time>
      </trkpt>
      <trkpt lat="43.53464" lon="1.22857">
        <ele>218.6</ele>
        <time>2024-05-20T06:20:14Z</time>
      </trkpt>
      <trkpt lat="43.5346" lon="1.22853">
        <ele>218.6</ele>
        <time>2024-05-20T06:20:15Z</time>
      </trkpt>
      <trkpt lat="43.53457" lon="1.2285">
        <ele>218.6</ele>
        <time>2024-05-20T06:20:16Z</time>
      </trkpt>
      <trkpt lat="43.53455" lon="1.22847">
        <ele>218.6</ele>
        <time>2024-05-20T06:20:17Z</time>
      </trkpt>
      <trkpt lat="43.53452" lon="1.22845">
        <ele>218.6</ele>
        <time>2024-05-20T06:20:18Z</time>
      </trkpt>
      <trkpt lat="43.5345" lon="1.22842">
        <ele>218.6</ele>
        <time>2024-05-20T06:20:19Z</time>
      </trkpt>
      <trkpt lat="43.53448" lon="1.2284">
        <ele>218.6</ele>
        <time>2024-05-20T06:20:20Z</time>
      </trkpt>
      <trkpt lat="43.53445" lon="1.22838">
        <ele>218.6</ele>
        <time>2024-05-20T06:20:21Z</time>
      </trkpt>
      <trkpt lat="43.53442" lon="1.22835">
        <ele>218.6</ele>
        <time>2024-05-20T06:20:22Z</time>
      </trkpt>
      <trkpt lat="43.53438" lon="1.22832">
        <ele>218.8</ele>
        <time>2024-05-20T06:20:23Z</time>
      </trkpt>
      <trkpt lat="43.53434" lon="1.2283">
        <ele>218.8</ele>
        <time>2024-05-20T06:20:24Z</time>
      </trkpt>
      <trkpt lat="43.53429" lon="1.22828">
        <ele>218.8</ele>
        <time>2024-05-20T06:20:25Z</time>
      </trkpt>
      <trkpt lat="43.53425" lon="1.22829">
        <ele>218.8</ele>
        <time>2024-05-20T06:20:26Z</time>
      </trkpt>
      <trkpt lat="43.5342" lon="1.22832">
        <ele>218.8</ele>
        <time>2024-05-20T06:20:27Z</time>
      </trkpt>
      <trkpt lat="43.53416" lon="1.22837">
        <ele>218.8</ele>
        <time>2024-05-20T06:20:28Z</time>
      </trkpt>
      <trkpt lat="43.53413" lon="1.22843">
        <ele>218.8</ele>
        <time>2024-05-20T06:20:29Z</time>
      </trkpt>
      <trkpt lat="43.5341" lon="1.2285">
        <ele>218.8</ele>
        <time>2024-05-20T06:20:30Z</time>
      </trkpt>
      <trkpt lat="43.53406" lon="1.22857">
        <ele>218.8</ele>
        <time>2024-05-20T06:20:31Z</time>
      </trkpt>
      <trkpt lat="43.53403" lon="1.22864">
        <ele>218.8</ele>
        <time>2024-05-20T06:20:32Z</time>
      </trkpt>
      <trkpt lat="43.53399" lon="1.22872">
        <ele>218.8</ele>
        <time>2024-05-20T06:20:33Z</time>
      </trkpt>
      <trkpt lat="43.53395" lon="1.22878">
        <ele>218.8</ele>
        <time>2024-05-20T06:20:34Z</time>
      </trkpt>
      <trkpt lat="43.53391" lon="1.22884">
        <ele>218.6</ele>
        <time>2024-05-20T06:20:35Z</time>
      </trkpt>
      <trkpt lat="43.53386" lon="1.22889">
        <ele>218.8</ele>
        <time>2024-05-20T06:20:36Z</time>
      </trkpt>
      <trkpt lat="43.53383" lon="1.22895">
        <ele>218.8</ele>
        <time>2024-05-20T06:20:37Z</time>
      </trkpt>
      <trkpt lat="43.53378" lon="1.22903">
        <ele>218.8</ele>
        <time>2024-05-20T06:20:38Z</time>
      </trkpt>
      <trkpt lat="43.53374" lon="1.22909">
        <ele>219</ele>
        <time>2024-05-20T06:20:39Z</time>
      </trkpt>
      <trkpt lat="43.53371" lon="1.22916">
        <ele>219</ele>
        <time>2024-05-20T06:20:40Z</time>
      </trkpt>
      <trkpt lat="43.53368" lon="1.22922">
        <ele>219</ele>
        <time>2024-05-20T06:20:41Z</time>
      </trkpt>
      <trkpt lat="43.53365" lon="1.22929">
        <ele>219</ele>
        <time>2024-05-20T06:20:42Z</time>
      </trkpt>
      <trkpt lat="43.53363" lon="1.22937">
        <ele>219</ele>
        <time>2024-05-20T06:20:43Z</time>
      </trkpt>
      <trkpt lat="43.53359" lon="1.22945">
        <ele>219.2</ele>
        <time>2024-05-20T06:20:44Z</time>
      </trkpt>
      <trkpt lat="43.53357" lon="1.22951">
        <ele>219.2</ele>
        <time>2024-05-20T06:20:45Z</time>
      </trkpt>
      <trkpt lat="43.53354" lon="1.22958">
        <ele>219.4</ele>
        <time>2024-05-20T06:20:46Z</time>
      </trkpt>
      <trkpt lat="43.5335" lon="1.22967">
        <ele>219.4</ele>
        <time>2024-05-20T06:20:47Z</time>
      </trkpt>
      <trkpt lat="43.53346" lon="1.22974">
        <ele>219.4</ele>
        <time>2024-05-20T06:20:48Z</time>
      </trkpt>
      <trkpt lat="43.53344" lon="1.22981">
        <ele>219.4</ele>
        <time>2024-05-20T06:20:49Z</time>
      </trkpt>
      <trkpt lat="43.53342" lon="1.22989">
        <ele>219.4</ele>
        <time>2024-05-20T06:20:50Z</time>
      </trkpt>
      <trkpt lat="43.5334" lon="1.22998">
        <ele>219.4</ele>
        <time>2024-05-20T06:20:51Z</time>
      </trkpt>
      <trkpt lat="43.53337" lon="1.23006">
        <ele>219.4</ele>
        <time>2024-05-20T06:20:52Z</time>
      </trkpt>
      <trkpt lat="43.53334" lon="1.23015">
        <ele>219.4</ele>
        <time>2024-05-20T06:20:53Z</time>
      </trkpt>
      <trkpt lat="43.53331" lon="1.23023">
        <ele>219.4</ele>
        <time>2024-05-20T06:20:54Z</time>
      </trkpt>
      <trkpt lat="43.53328" lon="1.23031">
        <ele>219.4</ele>
        <time>2024-05-20T06:20:55Z</time>
      </trkpt>
      <trkpt lat="43.53325" lon="1.23039">
        <ele>219.4</ele>
        <time>2024-05-20T06:20:56Z</time>
      </trkpt>
      <trkpt lat="43.53322" lon="1.2305">
        <ele>219.6</ele>
        <time>2024-05-20T06:20:57Z</time>
      </trkpt>
      <trkpt lat="43.5332" lon="1.23058">
        <ele>219.6</ele>
        <time>2024-05-20T06:20:58Z</time>
      </trkpt>
      <trkpt lat="43.53317" lon="1.23066">
        <ele>219.6</ele>
        <time>2024-05-20T06:20:59Z</time>
      </trkpt>
      <trkpt lat="43.53315" lon="1.23073">
        <ele>219.6</ele>
        <time>2024-05-20T06:21:00Z</time>
      </trkpt>
      <trkpt lat="43.53312" lon="1.23081">
        <ele>219.6</ele>
        <time>2024-05-20T06:21:01Z</time>
      </trkpt>
      <trkpt lat="43.53309" lon="1.23089">
        <ele>219.6</ele>
        <time>2024-05-20T06:21:02Z</time>
      </trkpt>
      <trkpt lat="43.53305" lon="1.231">
        <ele>219.6</ele>
        <time>2024-05-20T06:21:03Z</time>
      </trkpt>
      <trkpt lat="43.53303" lon="1.23107">
        <ele>219.6</ele>
        <time>2024-05-20T06:21:04Z</time>
      </trkpt>
      <trkpt lat="43.533" lon="1.23116">
        <ele>219.6</ele>
        <time>2024-05-20T06:21:05Z</time>
      </trkpt>
      <trkpt lat="43.53296" lon="1.23124">
        <ele>219.6</ele>
        <time>2024-05-20T06:21:06Z</time>
      </trkpt>
      <trkpt lat="43.53291" lon="1.23131">
        <ele>219.6</ele>
        <time>2024-05-20T06:21:07Z</time>
      </trkpt>
      <trkpt lat="43.53285" lon="1.23139">
        <ele>219.6</ele>
        <time>2024-05-20T06:21:08Z</time>
      </trkpt>
      <trkpt lat="43.5328" lon="1.23143">
        <ele>219.6</ele>
        <time>2024-05-20T06:21:09Z</time>
      </trkpt>
      <trkpt lat="43.53274" lon="1.23145">
        <ele>219.6</ele>
        <time>2024-05-20T06:21:10Z</time>
      </trkpt>
      <trkpt lat="43.53267" lon="1.23146">
        <ele>219.4</ele>
        <time>2024-05-20T06:21:11Z</time>
      </trkpt>
      <trkpt lat="43.5326" lon="1.23147">
        <ele>219.4</ele>
        <time>2024-05-20T06:21:12Z</time>
      </trkpt>
      <trkpt lat="43.53252" lon="1.23147">
        <ele>219.4</ele>
        <time>2024-05-20T06:21:13Z</time>
      </trkpt>
      <trkpt lat="43.53245" lon="1.23147">
        <ele>219.2</ele>
        <time>2024-05-20T06:21:14Z</time>
      </trkpt>
      <trkpt lat="43.53238" lon="1.23146">
        <ele>219.2</ele>
        <time>2024-05-20T06:21:15Z</time>
      </trkpt>
      <trkpt lat="43.53231" lon="1.23145">
        <ele>219.2</ele>
        <time>2024-05-20T06:21:16Z</time>
      </trkpt>
      <trkpt lat="43.53224" lon="1.23143">
        <ele>219.2</ele>
        <time>2024-05-20T06:21:17Z</time>
      </trkpt>
      <trkpt lat="43.53215" lon="1.23141">
        <ele>219</ele>
        <time>2024-05-20T06:21:18Z</time>
      </trkpt>
      <trkpt lat="43.53209" lon="1.23139">
        <ele>219</ele>
        <time>2024-05-20T06:21:19Z</time>
      </trkpt>
      <trkpt lat="43.53202" lon="1.23137">
        <ele>219</ele>
        <time>2024-05-20T06:21:20Z</time>
      </trkpt>
      <trkpt lat="43.53194" lon="1.23135">
        <ele>218.8</ele>
        <time>2024-05-20T06:21:21Z</time>
      </trkpt>
      <trkpt lat="43.53187" lon="1.23133">
        <ele>218.8</ele>
        <time>2024-05-20T06:21:22Z</time>
      </trkpt>
      <trkpt lat="43.5318" lon="1.2313">
        <ele>218.6</ele>
        <time>2024-05-20T06:21:23Z</time>
      </trkpt>
      <trkpt lat="43.53172" lon="1.23127">
        <ele>218.6</ele>
        <time>2024-05-20T06:21:24Z</time>
      </trkpt>
      <trkpt lat="43.53164" lon="1.23124">
        <ele>218.2</ele>
        <time>2024-05-20T06:21:25Z</time>
      </trkpt>
      <trkpt lat="43.53157" lon="1.23121">
        <ele>218</ele>
        <time>2024-05-20T06:21:26Z</time>
      </trkpt>
      <trkpt lat="43.53147" lon="1.23117">
        <ele>217.6</ele>
        <time>2024-05-20T06:21:27Z</time>
      </trkpt>
      <trkpt lat="43.5314" lon="1.23114">
        <ele>217.4</ele>
        <time>2024-05-20T06:21:28Z</time>
      </trkpt>
      <trkpt lat="43.53131" lon="1.2311">
        <ele>217</ele>
        <time>2024-05-20T06:21:29Z</time>
      </trkpt>
      <trkpt lat="43.53119" lon="1.23105">
        <ele>216.2</ele>
        <time>2024-05-20T06:21:30Z</time>
      </trkpt>
      <trkpt lat="43.53111" lon="1.23103">
        <ele>215.8</ele>
        <time>2024-05-20T06:21:31Z</time>
      </trkpt>
      <trkpt lat="43.531" lon="1.23101">
        <ele>215.4</ele>
        <time>2024-05-20T06:21:32Z</time>
      </trkpt>
      <trkpt lat="43.53089" lon="1.231">
        <ele>215</ele>
        <time>2024-05-20T06:21:33Z</time>
      </trkpt>
      <trkpt lat="43.53077" lon="1.231">
        <ele>214.2</ele>
        <time>2024-05-20T06:21:34Z</time>
      </trkpt>
      <trkpt lat="43.53065" lon="1.231">
        <ele>214</ele>
        <time>2024-05-20T06:21:35Z</time>
      </trkpt>
      <trkpt lat="43.53052" lon="1.23101">
        <ele>212.8</ele>
        <time>2024-05-20T06:21:36Z</time>
      </trkpt>
      <trkpt lat="43.53037" lon="1.231">
        <ele>212.2</ele>
        <time>2024-05-20T06:21:37Z</time>
      </trkpt>
      <trkpt lat="43.53027" lon="1.23099">
        <ele>210.6</ele>
        <time>2024-05-20T06:21:38Z</time>
      </trkpt>
      <trkpt lat="43.53014" lon="1.23099">
        <ele>208.8</ele>
        <time>2024-05-20T06:21:39Z</time>
      </trkpt>
      <trkpt lat="43.53001" lon="1.23098">
        <ele>208.4</ele>
        <time>2024-05-20T06:21:40Z</time>
      </trkpt>
      <trkpt lat="43.52986" lon="1.23099">
        <ele>207</ele>
        <time>2024-05-20T06:21:41Z</time>
      </trkpt>
      <trkpt lat="43.52976" lon="1.23099">
        <ele>206.6</ele>
        <time>2024-05-20T06:21:42Z</time>
      </trkpt>
      <trkpt lat="43.52964" lon="1.23098">
        <ele>205.2</ele>
        <time>2024-05-20T06:21:43Z</time>
      </trkpt>
      <trkpt lat="43.5295" lon="1.23099">
        <ele>204.2</ele>
        <time>2024-05-20T06:21:44Z</time>
      </trkpt>
      <trkpt lat="43.52939" lon="1.23102">
        <ele>202.8</ele>
        <time>2024-05-20T06:21:45Z</time>
      </trkpt>
      <trkpt lat="43.52931" lon="1.23104">
        <ele>202</ele>
        <time>2024-05-20T06:21:46Z</time>
      </trkpt>
      <trkpt lat="43.5292" lon="1.23106">
        <ele>201.8</ele>
        <time>2024-05-20T06:21:47Z</time>
      </trkpt>
      <trkpt lat="43.52911" lon="1.2311">
        <ele>201.6</ele>
        <time>2024-05-20T06:21:48Z</time>
      </trkpt>
      <trkpt lat="43.52902" lon="1.23113">
        <ele>201.6</ele>
        <time>2024-05-20T06:21:49Z</time>
      </trkpt>
      <trkpt lat="43.52893" lon="1.23117">
        <ele>201.6</ele>
        <time>2024-05-20T06:21:50Z</time>
      </trkpt>
      <trkpt lat="43.52886" lon="1.23121">
        <ele>201.6</ele>
        <time>2024-05-20T06:21:51Z</time>
      </trkpt>
      <trkpt lat="43.52878" lon="1.23124">
        <ele>201.6</ele>
        <time>2024-05-20T06:21:52Z</time>
      </trkpt>
      <trkpt lat="43.52871" lon="1.23127">
        <ele>201.6</ele>
        <time>2024-05-20T06:21:53Z</time>
      </trkpt>
      <trkpt lat="43.52863" lon="1.23131">
        <ele>201.8</ele>
        <time>2024-05-20T06:21:54Z</time>
      </trkpt>
      <trkpt lat="43.52855" lon="1.23134">
        <ele>202</ele>
        <time>2024-05-20T06:21:55Z</time>
      </trkpt>
      <trkpt lat="43.52847" lon="1.23137">
        <ele>202</ele>
        <time>2024-05-20T06:21:56Z</time>
      </trkpt>
      <trkpt lat="43.52839" lon="1.23139">
        <ele>202</ele>
        <time>2024-05-20T06:21:57Z</time>
      </trkpt>
      <trkpt lat="43.52831" lon="1.23141">
        <ele>202.2</ele>
        <time>2024-05-20T06:21:58Z</time>
      </trkpt>
      <trkpt lat="43.52822" lon="1.23144">
        <ele>202.2</ele>
        <time>2024-05-20T06:21:59Z</time>
      </trkpt>
      <trkpt lat="43.52816" lon="1.23147">
        <ele>202.2</ele>
        <time>2024-05-20T06:22:00Z</time>
      </trkpt>
      <trkpt lat="43.52808" lon="1.23151">
        <ele>202.2</ele>
        <time>2024-05-20T06:22:01Z</time>
      </trkpt>
      <trkpt lat="43.528" lon="1.23156">
        <ele>202.2</ele>
        <time>2024-05-20T06:22:02Z</time>
      </trkpt>
      <trkpt lat="43.5279" lon="1.23162">
        <ele>202</ele>
        <time>2024-05-20T06:22:03Z</time>
      </trkpt>
      <trkpt lat="43.52783" lon="1.23166">
        <ele>201.8</ele>
        <time>2024-05-20T06:22:04Z</time>
      </trkpt>
      <trkpt lat="43.52776" lon="1.23173">
        <ele>201.4</ele>
        <time>2024-05-20T06:22:05Z</time>
      </trkpt>
      <trkpt lat="43.52767" lon="1.23179">
        <ele>201.2</ele>
        <time>2024-05-20T06:22:06Z</time>
      </trkpt>
      <trkpt lat="43.5276" lon="1.23185">
        <ele>200.8</ele>
        <time>2024-05-20T06:22:07Z</time>
      </trkpt>
      <trkpt lat="43.5275" lon="1.23192">
        <ele>200.2</ele>
        <time>2024-05-20T06:22:08Z</time>
      </trkpt>
      <trkpt lat="43.52741" lon="1.23199">
        <ele>200</ele>
        <time>2024-05-20T06:22:09Z</time>
      </trkpt>
      <trkpt lat="43.52735" lon="1.23204">
        <ele>199.4</ele>
        <time>2024-05-20T06:22:10Z</time>
      </trkpt>
      <trkpt lat="43.52726" lon="1.23211">
        <ele>199</ele>
        <time>2024-05-20T06:22:11Z</time>
      </trkpt>
      <trkpt lat="43.52719" lon="1.23217">
        <ele>198.8</ele>
        <time>2024-05-20T06:22:12Z</time>
      </trkpt>
      <trkpt lat="43.52711" lon="1.23224">
        <ele>198.4</ele>
        <time>2024-05-20T06:22:13Z</time>
      </trkpt>
      <trkpt lat="43.52703" lon="1.2323">
        <ele>198</ele>
        <time>2024-05-20T06:22:14Z</time>
      </trkpt>
      <trkpt lat="43.52695" lon="1.23235">
        <ele>197.8</ele>
        <time>2024-05-20T06:22:15Z</time>
      </trkpt>
      <trkpt lat="43.52687" lon="1.23239">
        <ele>197.6</ele>
        <time>2024-05-20T06:22:16Z</time>
      </trkpt>
      <trkpt lat="43.52679" lon="1.23239">
        <ele>197.4</ele>
        <time>2024-05-20T06:22:17Z</time>
      </trkpt>
      <trkpt lat="43.52671" lon="1.23237">
        <ele>197.4</ele>
        <time>2024-05-20T06:22:18Z</time>
      </trkpt>
      <trkpt lat="43.52662" lon="1.23237">
        <ele>197.2</ele>
        <time>2024-05-20T06:22:19Z</time>
      </trkpt>
      <trkpt lat="43.52657" lon="1.2324">
        <ele>197</ele>
        <time>2024-05-20T06:22:20Z</time>
      </trkpt>
      <trkpt lat="43.5265" lon="1.23246">
        <ele>197</ele>
        <time>2024-05-20T06:22:21Z</time>
      </trkpt>
      <trkpt lat="43.52644" lon="1.2325">
        <ele>196.8</ele>
        <time>2024-05-20T06:22:22Z</time>
      </trkpt>
      <trkpt lat="43.52636" lon="1.23252">
        <ele>196.8</ele>
        <time>2024-05-20T06:22:23Z</time>
      </trkpt>
      <trkpt lat="43.52627" lon="1.23252">
        <ele>196.8</ele>
        <time>2024-05-20T06:22:24Z</time>
      </trkpt>
      <trkpt lat="43.52621" lon="1.23251">
        <ele>196.8</ele>
        <time>2024-05-20T06:22:25Z</time>
      </trkpt>
      <trkpt lat="43.52614" lon="1.23249">
        <ele>196.8</ele>
        <time>2024-05-20T06:22:26Z</time>
      </trkpt>
      <trkpt lat="43.52605" lon="1.23247">
        <ele>196.8</ele>
        <time>2024-05-20T06:22:27Z</time>
      </trkpt>
      <trkpt lat="43.52598" lon="1.23246">
        <ele>196.8</ele>
        <time>2024-05-20T06:22:28Z</time>
      </trkpt>
      <trkpt lat="43.5259" lon="1.23244">
        <ele>196.8</ele>
        <time>2024-05-20T06:22:29Z</time>
      </trkpt>
      <trkpt lat="43.52584" lon="1.23243">
        <ele>196.6</ele>
        <time>2024-05-20T06:22:30Z</time>
      </trkpt>
      <trkpt lat="43.52576" lon="1.23241">
        <ele>196.6</ele>
        <time>2024-05-20T06:22:31Z</time>
      </trkpt>
      <trkpt lat="43.52568" lon="1.2324">
        <ele>196.6</ele>
        <time>2024-05-20T06:22:32Z</time>
      </trkpt>
      <trkpt lat="43.52561" lon="1.23238">
        <ele>196.6</ele>
        <time>2024-05-20T06:22:33Z</time>
      </trkpt>
      <trkpt lat="43.52553" lon="1.23236">
        <ele>196.6</ele>
        <time>2024-05-20T06:22:34Z</time>
      </trkpt>
      <trkpt lat="43.52545" lon="1.23234">
        <ele>196.4</ele>
        <time>2024-05-20T06:22:35Z</time>
      </trkpt>
      <trkpt lat="43.52537" lon="1.23232">
        <ele>196.4</ele>
        <time>2024-05-20T06:22:36Z</time>
      </trkpt>
      <trkpt lat="43.52529" lon="1.23229">
        <ele>196.4</ele>
        <time>2024-05-20T06:22:37Z</time>
      </trkpt>
      <trkpt lat="43.52521" lon="1.23227">
        <ele>196.2</ele>
        <time>2024-05-20T06:22:38Z</time>
      </trkpt>
      <trkpt lat="43.52513" lon="1.23224">
        <ele>196.2</ele>
        <time>2024-05-20T06:22:39Z</time>
      </trkpt>
      <trkpt lat="43.52506" lon="1.23221">
        <ele>195.8</ele>
        <time>2024-05-20T06:22:40Z</time>
      </trkpt>
      <trkpt lat="43.52498" lon="1.23219">
        <ele>195.8</ele>
        <time>2024-05-20T06:22:41Z</time>
      </trkpt>
      <trkpt lat="43.5249" lon="1.23216">
        <ele>195.6</ele>
        <time>2024-05-20T06:22:42Z</time>
      </trkpt>
      <trkpt lat="43.52483" lon="1.23213">
        <ele>195.6</ele>
        <time>2024-05-20T06:22:43Z</time>
      </trkpt>
      <trkpt lat="43.52473" lon="1.2321">
        <ele>195.4</ele>
        <time>2024-05-20T06:22:44Z</time>
      </trkpt>
      <trkpt lat="43.52467" lon="1.23207">
        <ele>195.4</ele>
        <time>2024-05-20T06:22:45Z</time>
      </trkpt>
      <trkpt lat="43.5246" lon="1.23205">
        <ele>195.2</ele>
        <time>2024-05-20T06:22:46Z</time>
      </trkpt>
      <trkpt lat="43.52452" lon="1.23202">
        <ele>195</ele>
        <time>2024-05-20T06:22:47Z</time>
      </trkpt>
      <trkpt lat="43.52445" lon="1.23199">
        <ele>194.8</ele>
        <time>2024-05-20T06:22:48Z</time>
      </trkpt>
      <trkpt lat="43.52437" lon="1.23196">
        <ele>194.8</ele>
        <time>2024-05-20T06:22:49Z</time>
      </trkpt>
      <trkpt lat="43.5243" lon="1.23194">
        <ele>194.8</ele>
        <time>2024-05-20T06:22:50Z</time>
      </trkpt>
      <trkpt lat="43.52422" lon="1.23191">
        <ele>194.8</ele>
        <time>2024-05-20T06:22:51Z</time>
      </trkpt>
      <trkpt lat="43.52415" lon="1.23188">
        <ele>194.8</ele>
        <time>2024-05-20T06:22:52Z</time>
      </trkpt>
      <trkpt lat="43.52408" lon="1.23185">
        <ele>194.8</ele>
        <time>2024-05-20T06:22:53Z</time>
      </trkpt>
      <trkpt lat="43.524" lon="1.23183">
        <ele>194.8</ele>
        <time>2024-05-20T06:22:54Z</time>
      </trkpt>
      <trkpt lat="43.52393" lon="1.2318">
        <ele>194.8</ele>
        <time>2024-05-20T06:22:55Z</time>
      </trkpt>
      <trkpt lat="43.52385" lon="1.23177">
        <ele>194.8</ele>
        <time>2024-05-20T06:22:56Z</time>
      </trkpt>
      <trkpt lat="43.52378" lon="1.23174">
        <ele>195</ele>
        <time>2024-05-20T06:22:57Z</time>
      </trkpt>
      <trkpt lat="43.5237" lon="1.23172">
        <ele>195</ele>
        <time>2024-05-20T06:22:58Z</time>
      </trkpt>
      <trkpt lat="43.52363" lon="1.23169">
        <ele>195</ele>
        <time>2024-05-20T06:22:59Z</time>
      </trkpt>
      <trkpt lat="43.52354" lon="1.23166">
        <ele>195.2</ele>
        <time>2024-05-20T06:23:00Z</time>
      </trkpt>
      <trkpt lat="43.52348" lon="1.23165">
        <ele>195.2</ele>
        <time>2024-05-20T06:23:01Z</time>
      </trkpt>
      <trkpt lat="43.5234" lon="1.23162">
        <ele>195.4</ele>
        <time>2024-05-20T06:23:02Z</time>
      </trkpt>
      <trkpt lat="43.52333" lon="1.2316">
        <ele>195.4</ele>
        <time>2024-05-20T06:23:03Z</time>
      </trkpt>
      <trkpt lat="43.52325" lon="1.23157">
        <ele>195.6</ele>
        <time>2024-05-20T06:23:04Z</time>
      </trkpt>
      <trkpt lat="43.52318" lon="1.23155">
        <ele>195.6</ele>
        <time>2024-05-20T06:23:05Z</time>
      </trkpt>
      <trkpt lat="43.5231" lon="1.23152">
        <ele>195.6</ele>
        <time>2024-05-20T06:23:06Z</time>
      </trkpt>
      <trkpt lat="43.52302" lon="1.2315">
        <ele>195.6</ele>
        <time>2024-05-20T06:23:07Z</time>
      </trkpt>
      <trkpt lat="43.52295" lon="1.23148">
        <ele>195.6</ele>
        <time>2024-05-20T06:23:08Z</time>
      </trkpt>
      <trkpt lat="43.52287" lon="1.23145">
        <ele>195.6</ele>
        <time>2024-05-20T06:23:09Z</time>
      </trkpt>
      <trkpt lat="43.5228" lon="1.23143">
        <ele>195.6</ele>
        <time>2024-05-20T06:23:10Z</time>
      </trkpt>
      <trkpt lat="43.52273" lon="1.23141">
        <ele>195.8</ele>
        <time>2024-05-20T06:23:11Z</time>
      </trkpt>
      <trkpt lat="43.52265" lon="1.23139">
        <ele>195.8</ele>
        <time>2024-05-20T06:23:12Z</time>
      </trkpt>
      <trkpt lat="43.52258" lon="1.23136">
        <ele>195.8</ele>
        <time>2024-05-20T06:23:13Z</time>
      </trkpt>
      <trkpt lat="43.5225" lon="1.23134">
        <ele>195.8</ele>
        <time>2024-05-20T06:23:14Z</time>
      </trkpt>
      <trkpt lat="43.52242" lon="1.23132">
        <ele>195.8</ele>
        <time>2024-05-20T06:23:15Z</time>
      </trkpt>
      <trkpt lat="43.52233" lon="1.2313">
        <ele>195.8</ele>
        <time>2024-05-20T06:23:16Z</time>
      </trkpt>
      <trkpt lat="43.52227" lon="1.23128">
        <ele>195.8</ele>
        <time>2024-05-20T06:23:17Z</time>
      </trkpt>
      <trkpt lat="43.5222" lon="1.23126">
        <ele>195.8</ele>
        <time>2024-05-20T06:23:18Z</time>
      </trkpt>
      <trkpt lat="43.52212" lon="1.23124">
        <ele>195.8</ele>
        <time>2024-05-20T06:23:19Z</time>
      </trkpt>
      <trkpt lat="43.52205" lon="1.23122">
        <ele>195.8</ele>
        <time>2024-05-20T06:23:20Z</time>
      </trkpt>
      <trkpt lat="43.52197" lon="1.2312">
        <ele>195.8</ele>
        <time>2024-05-20T06:23:21Z</time>
      </trkpt>
      <trkpt lat="43.5219" lon="1.23118">
        <ele>195.8</ele>
        <time>2024-05-20T06:23:22Z</time>
      </trkpt>
      <trkpt lat="43.52183" lon="1.23116">
        <ele>195.8</ele>
        <time>2024-05-20T06:23:23Z</time>
      </trkpt>
      <trkpt lat="43.52175" lon="1.23114">
        <ele>195.8</ele>
        <time>2024-05-20T06:23:24Z</time>
      </trkpt>
      <trkpt lat="43.52168" lon="1.23112">
        <ele>195.8</ele>
        <time>2024-05-20T06:23:25Z</time>
      </trkpt>
      <trkpt lat="43.5216" lon="1.2311">
        <ele>195.8</ele>
        <time>2024-05-20T06:23:26Z</time>
      </trkpt>
      <trkpt lat="43.52152" lon="1.23108">
        <ele>195.8</ele>
        <time>2024-05-20T06:23:27Z</time>
      </trkpt>
      <trkpt lat="43.52145" lon="1.23106">
        <ele>195.8</ele>
        <time>2024-05-20T06:23:28Z</time>
      </trkpt>
      <trkpt lat="43.52137" lon="1.23104">
        <ele>195.8</ele>
        <time>2024-05-20T06:23:29Z</time>
      </trkpt>
      <trkpt lat="43.52129" lon="1.23102">
        <ele>195.8</ele>
        <time>2024-05-20T06:23:30Z</time>
      </trkpt>
      <trkpt lat="43.52122" lon="1.231">
        <ele>195.8</ele>
        <time>2024-05-20T06:23:31Z</time>
      </trkpt>
      <trkpt lat="43.52114" lon="1.23099">
        <ele>195.8</ele>
        <time>2024-05-20T06:23:32Z</time>
      </trkpt>
      <trkpt lat="43.52106" lon="1.23097">
        <ele>195.8</ele>
        <time>2024-05-20T06:23:33Z</time>
      </trkpt>
      <trkpt lat="43.52098" lon="1.23095">
        <ele>196</ele>
        <time>2024-05-20T06:23:34Z</time>
      </trkpt>
      <trkpt lat="43.5209" lon="1.23093">
        <ele>196.2</ele>
        <time>2024-05-20T06:23:35Z</time>
      </trkpt>
      <trkpt lat="43.52083" lon="1.23091">
        <ele>196.2</ele>
        <time>2024-05-20T06:23:36Z</time>
      </trkpt>
      <trkpt lat="43.52075" lon="1.23089">
        <ele>196.2</ele>
        <time>2024-05-20T06:23:37Z</time>
      </trkpt>
      <trkpt lat="43.52067" lon="1.23087">
        <ele>196.2</ele>
        <time>2024-05-20T06:23:38Z</time>
      </trkpt>
      <trkpt lat="43.52059" lon="1.23085">
        <ele>196.2</ele>
        <time>2024-05-20T06:23:39Z</time>
      </trkpt>
      <trkpt lat="43.52052" lon="1.23084">
        <ele>196.2</ele>
        <time>2024-05-20T06:23:40Z</time>
      </trkpt>
      <trkpt lat="43.52044" lon="1.23082">
        <ele>196.2</ele>
        <time>2024-05-20T06:23:41Z</time>
      </trkpt>
      <trkpt lat="43.52036" lon="1.2308">
        <ele>196.4</ele>
        <time>2024-05-20T06:23:42Z</time>
      </trkpt>
      <trkpt lat="43.52028" lon="1.23078">
        <ele>196.4</ele>
        <time>2024-05-20T06:23:43Z</time>
      </trkpt>
      <trkpt lat="43.52021" lon="1.23076">
        <ele>196.4</ele>
        <time>2024-05-20T06:23:44Z</time>
      </trkpt>
      <trkpt lat="43.52013" lon="1.23075">
        <ele>196.4</ele>
        <time>2024-05-20T06:23:45Z</time>
      </trkpt>
      <trkpt lat="43.52005" lon="1.23073">
        <ele>196.4</ele>
        <time>2024-05-20T06:23:46Z</time>
      </trkpt>
      <trkpt lat="43.51998" lon="1.23071">
        <ele>196.4</ele>
        <time>2024-05-20T06:23:47Z</time>
      </trkpt>
      <trkpt lat="43.5199" lon="1.23069">
        <ele>196.6</ele>
        <time>2024-05-20T06:23:48Z</time>
      </trkpt>
      <trkpt lat="43.51982" lon="1.23067">
        <ele>196.8</ele>
        <time>2024-05-20T06:23:49Z</time>
      </trkpt>
      <trkpt lat="43.51975" lon="1.23065">
        <ele>196.8</ele>
        <time>2024-05-20T06:23:50Z</time>
      </trkpt>
      <trkpt lat="43.51967" lon="1.23063">
        <ele>196.8</ele>
        <time>2024-05-20T06:23:51Z</time>
      </trkpt>
      <trkpt lat="43.5196" lon="1.23061">
        <ele>196.8</ele>
        <time>2024-05-20T06:23:52Z</time>
      </trkpt>
      <trkpt lat="43.51952" lon="1.23058">
        <ele>196.8</ele>
        <time>2024-05-20T06:23:53Z</time>
      </trkpt>
      <trkpt lat="43.51945" lon="1.23055">
        <ele>196.8</ele>
        <time>2024-05-20T06:23:54Z</time>
      </trkpt>
      <trkpt lat="43.51938" lon="1.2305">
        <ele>196.8</ele>
        <time>2024-05-20T06:23:55Z</time>
      </trkpt>
      <trkpt lat="43.51931" lon="1.23044">
        <ele>197</ele>
        <time>2024-05-20T06:23:56Z</time>
      </trkpt>
      <trkpt lat="43.51925" lon="1.23037">
        <ele>197</ele>
        <time>2024-05-20T06:23:57Z</time>
      </trkpt>
      <trkpt lat="43.51919" lon="1.2303">
        <ele>197</ele>
        <time>2024-05-20T06:23:58Z</time>
      </trkpt>
      <trkpt lat="43.51914" lon="1.23023">
        <ele>197</ele>
        <time>2024-05-20T06:23:59Z</time>
      </trkpt>
      <trkpt lat="43.51908" lon="1.23015">
        <ele>197</ele>
        <time>2024-05-20T06:24:00Z</time>
      </trkpt>
      <trkpt lat="43.51903" lon="1.23008">
        <ele>197</ele>
        <time>2024-05-20T06:24:01Z</time>
      </trkpt>
      <trkpt lat="43.51897" lon="1.23">
        <ele>197</ele>
        <time>2024-05-20T06:24:02Z</time>
      </trkpt>
      <trkpt lat="43.51892" lon="1.22993">
        <ele>197</ele>
        <time>2024-05-20T06:24:03Z</time>
      </trkpt>
      <trkpt lat="43.51886" lon="1.22985">
        <ele>197</ele>
        <time>2024-05-20T06:24:04Z</time>
      </trkpt>
      <trkpt lat="43.5188" lon="1.22978">
        <ele>197</ele>
        <time>2024-05-20T06:24:05Z</time>
      </trkpt>
      <trkpt lat="43.51874" lon="1.22971">
        <ele>197</ele>
        <time>2024-05-20T06:24:06Z</time>
      </trkpt>
      <trkpt lat="43.51869" lon="1.22965">
        <ele>197</ele>
        <time>2024-05-20T06:24:07Z</time>
      </trkpt>
      <trkpt lat="43.51863" lon="1.22958">
        <ele>197</ele>
        <time>2024-05-20T06:24:08Z</time>
      </trkpt>
      <trkpt lat="43.51856" lon="1.22952">
        <ele>197</ele>
        <time>2024-05-20T06:24:09Z</time>
      </trkpt>
      <trkpt lat="43.5185" lon="1.22946">
        <ele>197</ele>
        <time>2024-05-20T06:24:10Z</time>
      </trkpt>
      <trkpt lat="43.51844" lon="1.22939">
        <ele>197</ele>
        <time>2024-05-20T06:24:11Z</time>
      </trkpt>
      <trkpt lat="43.51838" lon="1.22933">
        <ele>197</ele>
        <time>2024-05-20T06:24:12Z</time>
      </trkpt>
      <trkpt lat="43.51832" lon="1.22927">
        <ele>197</ele>
        <time>2024-05-20T06:24:13Z</time>
      </trkpt>
      <trkpt lat="43.51825" lon="1.22921">
        <ele>197</ele>
        <time>2024-05-20T06:24:14Z</time>
      </trkpt>
      <trkpt lat="43.51819" lon="1.22915">
        <ele>197</ele>
        <time>2024-05-20T06:24:15Z</time>
      </trkpt>
      <trkpt lat="43.51812" lon="1.2291">
        <ele>197</ele>
        <time>2024-05-20T06:24:16Z</time>
      </trkpt>
      <trkpt lat="43.51806" lon="1.22904">
        <ele>197.2</ele>
        <time>2024-05-20T06:24:17Z</time>
      </trkpt>
      <trkpt lat="43.51799" lon="1.22899">
        <ele>197.2</ele>
        <time>2024-05-20T06:24:18Z</time>
      </trkpt>
      <trkpt lat="43.51793" lon="1.22893">
        <ele>197.2</ele>
        <time>2024-05-20T06:24:19Z</time>
      </trkpt>
      <trkpt lat="43.51786" lon="1.22888">
        <ele>197.2</ele>
        <time>2024-05-20T06:24:20Z</time>
      </trkpt>
      <trkpt lat="43.5178" lon="1.22882">
        <ele>197.2</ele>
        <time>2024-05-20T06:24:21Z</time>
      </trkpt>
      <trkpt lat="43.51773" lon="1.22877">
        <ele>197.2</ele>
        <time>2024-05-20T06:24:22Z</time>
      </trkpt>
      <trkpt lat="43.51766" lon="1.22871">
        <ele>197.2</ele>
        <time>2024-05-20T06:24:23Z</time>
      </trkpt>
      <trkpt lat="43.51759" lon="1.22866">
        <ele>197.2</ele>
        <time>2024-05-20T06:24:24Z</time>
      </trkpt>
      <trkpt lat="43.51751" lon="1.2286">
        <ele>197.4</ele>
        <time>2024-05-20T06:24:25Z</time>
      </trkpt>
      <trkpt lat="43.51745" lon="1.22856">
        <ele>197.4</ele>
        <time>2024-05-20T06:24:26Z</time>
      </trkpt>
      <trkpt lat="43.51739" lon="1.22851">
        <ele>197.4</ele>
        <time>2024-05-20T06:24:27Z</time>
      </trkpt>
      <trkpt lat="43.51732" lon="1.22845">
        <ele>197.4</ele>
        <time>2024-05-20T06:24:28Z</time>
      </trkpt>
      <trkpt lat="43.51725" lon="1.2284">
        <ele>197.4</ele>
        <time>2024-05-20T06:24:29Z</time>
      </trkpt>
      <trkpt lat="43.51718" lon="1.22835">
        <ele>197.6</ele>
        <time>2024-05-20T06:24:30Z</time>
      </trkpt>
      <trkpt lat="43.51712" lon="1.2283">
        <ele>197.6</ele>
        <time>2024-05-20T06:24:31Z</time>
      </trkpt>
      <trkpt lat="43.51705" lon="1.22825">
        <ele>197.8</ele>
        <time>2024-05-20T06:24:32Z</time>
      </trkpt>
      <trkpt lat="43.51698" lon="1.2282">
        <ele>197.8</ele>
        <time>2024-05-20T06:24:33Z</time>
      </trkpt>
      <trkpt lat="43.51691" lon="1.22816">
        <ele>197.8</ele>
        <time>2024-05-20T06:24:34Z</time>
      </trkpt>
      <trkpt lat="43.51685" lon="1.22811">
        <ele>198</ele>
        <time>2024-05-20T06:24:35Z</time>
      </trkpt>
      <trkpt lat="43.51678" lon="1.22807">
        <ele>198</ele>
        <time>2024-05-20T06:24:36Z</time>
      </trkpt>
      <trkpt lat="43.51672" lon="1.22804">
        <ele>198.2</ele>
        <time>2024-05-20T06:24:37Z</time>
      </trkpt>
      <trkpt lat="43.51665" lon="1.22801">
        <ele>198.2</ele>
        <time>2024-05-20T06:24:38Z</time>
      </trkpt>
      <trkpt lat="43.51659" lon="1.22798">
        <ele>198.6</ele>
        <time>2024-05-20T06:24:39Z</time>
      </trkpt>
      <trkpt lat="43.51652" lon="1.22795">
        <ele>198.6</ele>
        <time>2024-05-20T06:24:40Z</time>
      </trkpt>
      <trkpt lat="43.51644" lon="1.2279">
        <ele>198.8</ele>
        <time>2024-05-20T06:24:41Z</time>
      </trkpt>
      <trkpt lat="43.51638" lon="1.22784">
        <ele>198.8</ele>
        <time>2024-05-20T06:24:42Z</time>
      </trkpt>
      <trkpt lat="43.51632" lon="1.22776">
        <ele>198.8</ele>
        <time>2024-05-20T06:24:43Z</time>
      </trkpt>
      <trkpt lat="43.51629" lon="1.22766">
        <ele>198.8</ele>
        <time>2024-05-20T06:24:44Z</time>
      </trkpt>
      <trkpt lat="43.51626" lon="1.22756">
        <ele>198.8</ele>
        <time>2024-05-20T06:24:45Z</time>
      </trkpt>
      <trkpt lat="43.51625" lon="1.22745">
        <ele>198.8</ele>
        <time>2024-05-20T06:24:46Z</time>
      </trkpt>
      <trkpt lat="43.51624" lon="1.22734">
        <ele>198.8</ele>
        <time>2024-05-20T06:24:47Z</time>
      </trkpt>
      <trkpt lat="43.51622" lon="1.22723">
        <ele>198.6</ele>
        <time>2024-05-20T06:24:48Z</time>
      </trkpt>
      <trkpt lat="43.51621" lon="1.22712">
        <ele>198.4</ele>
        <time>2024-05-20T06:24:49Z</time>
      </trkpt>
      <trkpt lat="43.5162" lon="1.22701">
        <ele>198.2</ele>
        <time>2024-05-20T06:24:50Z</time>
      </trkpt>
      <trkpt lat="43.51619" lon="1.2269">
        <ele>198.2</ele>
        <time>2024-05-20T06:24:51Z</time>
      </trkpt>
      <trkpt lat="43.51617" lon="1.22679">
        <ele>198</ele>
        <time>2024-05-20T06:24:52Z</time>
      </trkpt>
      <trkpt lat="43.51616" lon="1.22668">
        <ele>198</ele>
        <time>2024-05-20T06:24:53Z</time>
      </trkpt>
      <trkpt lat="43.51615" lon="1.22658">
        <ele>197.6</ele>
        <time>2024-05-20T06:24:54Z</time>
      </trkpt>
      <trkpt lat="43.51614" lon="1.22647">
        <ele>197.6</ele>
        <time>2024-05-20T06:24:55Z</time>
      </trkpt>
      <trkpt lat="43.51612" lon="1.22636">
        <ele>197.6</ele>
        <time>2024-05-20T06:24:56Z</time>
      </trkpt>
      <trkpt lat="43.51611" lon="1.22626">
        <ele>197.6</ele>
        <time>2024-05-20T06:24:57Z</time>
      </trkpt>
      <trkpt lat="43.5161" lon="1.22615">
        <ele>197.6</ele>
        <time>2024-05-20T06:24:58Z</time>
      </trkpt>
      <trkpt lat="43.51608" lon="1.22605">
        <ele>197.4</ele>
        <time>2024-05-20T06:24:59Z</time>
      </trkpt>
      <trkpt lat="43.51607" lon="1.22595">
        <ele>197.4</ele>
        <time>2024-05-20T06:25:00Z</time>
      </trkpt>
      <trkpt lat="43.51606" lon="1.22584">
        <ele>197.4</ele>
        <time>2024-05-20T06:25:01Z</time>
      </trkpt>
      <trkpt lat="43.51604" lon="1.22574">
        <ele>197.4</ele>
        <time>2024-05-20T06:25:02Z</time>
      </trkpt>
      <trkpt lat="43.51603" lon="1.22563">
        <ele>197.4</ele>
        <time>2024-05-20T06:25:03Z</time>
      </trkpt>
      <trkpt lat="43.51601" lon="1.22552">
        <ele>197.2</ele>
        <time>2024-05-20T06:25:04Z</time>
      </trkpt>
      <trkpt lat="43.516" lon="1.22542">
        <ele>197.2</ele>
        <time>2024-05-20T06:25:05Z</time>
      </trkpt>
      <trkpt lat="43.51599" lon="1.22531">
        <ele>197.2</ele>
        <time>2024-05-20T06:25:06Z</time>
      </trkpt>
      <trkpt lat="43.51597" lon="1.22521">
        <ele>197.2</ele>
        <time>2024-05-20T06:25:07Z</time>
      </trkpt>
      <trkpt lat="43.51596" lon="1.22511">
        <ele>197.2</ele>
        <time>2024-05-20T06:25:08Z</time>
      </trkpt>
      <trkpt lat="43.51594" lon="1.225">
        <ele>197.2</ele>
        <time>2024-05-20T06:25:09Z</time>
      </trkpt>
      <trkpt lat="43.51593" lon="1.2249">
        <ele>197.2</ele>
        <time>2024-05-20T06:25:10Z</time>
      </trkpt>
      <trkpt lat="43.51591" lon="1.22478">
        <ele>197.2</ele>
        <time>2024-05-20T06:25:11Z</time>
      </trkpt>
      <trkpt lat="43.51589" lon="1.22469">
        <ele>197.2</ele>
        <time>2024-05-20T06:25:12Z</time>
      </trkpt>
      <trkpt lat="43.51588" lon="1.22459">
        <ele>197.2</ele>
        <time>2024-05-20T06:25:13Z</time>
      </trkpt>
      <trkpt lat="43.51586" lon="1.22449">
        <ele>197.2</ele>
        <time>2024-05-20T06:25:14Z</time>
      </trkpt>
      <trkpt lat="43.51583" lon="1.22437">
        <ele>197.2</ele>
        <time>2024-05-20T06:25:15Z</time>
      </trkpt>
      <trkpt lat="43.51582" lon="1.22428">
        <ele>197.2</ele>
        <time>2024-05-20T06:25:16Z</time>
      </trkpt>
      <trkpt lat="43.5158" lon="1.22416">
        <ele>197.2</ele>
        <time>2024-05-20T06:25:17Z</time>
      </trkpt>
      <trkpt lat="43.51578" lon="1.22408">
        <ele>197.2</ele>
        <time>2024-05-20T06:25:18Z</time>
      </trkpt>
      <trkpt lat="43.51576" lon="1.22397">
        <ele>197.2</ele>
        <time>2024-05-20T06:25:19Z</time>
      </trkpt>
      <trkpt lat="43.51574" lon="1.22387">
        <ele>197.2</ele>
        <time>2024-05-20T06:25:20Z</time>
      </trkpt>
      <trkpt lat="43.51572" lon="1.22376">
        <ele>197.2</ele>
        <time>2024-05-20T06:25:21Z</time>
      </trkpt>
      <trkpt lat="43.5157" lon="1.22366">
        <ele>197.2</ele>
        <time>2024-05-20T06:25:22Z</time>
      </trkpt>
      <trkpt lat="43.51568" lon="1.22356">
        <ele>197.2</ele>
        <time>2024-05-20T06:25:23Z</time>
      </trkpt>
      <trkpt lat="43.51567" lon="1.22345">
        <ele>197.2</ele>
        <time>2024-05-20T06:25:24Z</time>
      </trkpt>
      <trkpt lat="43.51565" lon="1.22335">
        <ele>197.2</ele>
        <time>2024-05-20T06:25:25Z</time>
      </trkpt>
      <trkpt lat="43.51563" lon="1.22324">
        <ele>197.2</ele>
        <time>2024-05-20T06:25:26Z</time>
      </trkpt>
      <trkpt lat="43.51561" lon="1.22314">
        <ele>197.2</ele>
        <time>2024-05-20T06:25:27Z</time>
      </trkpt>
      <trkpt lat="43.51559" lon="1.22303">
        <ele>197.2</ele>
        <time>2024-05-20T06:25:28Z</time>
      </trkpt>
      <trkpt lat="43.51557" lon="1.22293">
        <ele>197.2</ele>
        <time>2024-05-20T06:25:29Z</time>
      </trkpt>
      <trkpt lat="43.51555" lon="1.22283">
        <ele>197.2</ele>
        <time>2024-05-20T06:25:30Z</time>
      </trkpt>
      <trkpt lat="43.51552" lon="1.2227">
        <ele>197.2</ele>
        <time>2024-05-20T06:25:31Z</time>
      </trkpt>
      <trkpt lat="43.5155" lon="1.2226">
        <ele>197.4</ele>
        <time>2024-05-20T06:25:32Z</time>
      </trkpt>
      <trkpt lat="43.51549" lon="1.22252">
        <ele>197.4</ele>
        <time>2024-05-20T06:25:33Z</time>
      </trkpt>
      <trkpt lat="43.51547" lon="1.22242">
        <ele>197.4</ele>
        <time>2024-05-20T06:25:34Z</time>
      </trkpt>
      <trkpt lat="43.51545" lon="1.2223">
        <ele>197.6</ele>
        <time>2024-05-20T06:25:35Z</time>
      </trkpt>
      <trkpt lat="43.51543" lon="1.22222">
        <ele>197.6</ele>
        <time>2024-05-20T06:25:36Z</time>
      </trkpt>
      <trkpt lat="43.51541" lon="1.22212">
        <ele>197.8</ele>
        <time>2024-05-20T06:25:37Z</time>
      </trkpt>
      <trkpt lat="43.5154" lon="1.22203">
        <ele>198</ele>
        <time>2024-05-20T06:25:38Z</time>
      </trkpt>
      <trkpt lat="43.51538" lon="1.22193">
        <ele>198.2</ele>
        <time>2024-05-20T06:25:39Z</time>
      </trkpt>
      <trkpt lat="43.51536" lon="1.22184">
        <ele>198.4</ele>
        <time>2024-05-20T06:25:40Z</time>
      </trkpt>
      <trkpt lat="43.51534" lon="1.22176">
        <ele>198.4</ele>
        <time>2024-05-20T06:25:41Z</time>
      </trkpt>
      <trkpt lat="43.51533" lon="1.22168">
        <ele>198.6</ele>
        <time>2024-05-20T06:25:42Z</time>
      </trkpt>
      <trkpt lat="43.51532" lon="1.22159">
        <ele>198.6</ele>
        <time>2024-05-20T06:25:43Z</time>
      </trkpt>
      <trkpt lat="43.51532" lon="1.22152">
        <ele>199</ele>
        <time>2024-05-20T06:25:44Z</time>
      </trkpt>
      <trkpt lat="43.51531" lon="1.22144">
        <ele>199.4</ele>
        <time>2024-05-20T06:25:45Z</time>
      </trkpt>
      <trkpt lat="43.5153" lon="1.22137">
        <ele>199.8</ele>
        <time>2024-05-20T06:25:46Z</time>
      </trkpt>
      <trkpt lat="43.51529" lon="1.2213">
        <ele>200.2</ele>
        <time>2024-05-20T06:25:47Z</time>
      </trkpt>
      <trkpt lat="43.51528" lon="1.22123">
        <ele>200.6</ele>
        <time>2024-05-20T06:25:48Z</time>
      </trkpt>
      <trkpt lat="43.51526" lon="1.22115">
        <ele>200.8</ele>
        <time>2024-05-20T06:25:49Z</time>
      </trkpt>
      <trkpt lat="43.51525" lon="1.22107">
        <ele>201</ele>
        <time>2024-05-20T06:25:50Z</time>
      </trkpt>
      <trkpt lat="43.51524" lon="1.22102">
        <ele>201.4</ele>
        <time>2024-05-20T06:25:51Z</time>
      </trkpt>
      <trkpt lat="43.51522" lon="1.22095">
        <ele>201.6</ele>
        <time>2024-05-20T06:25:52Z</time>
      </trkpt>
      <trkpt lat="43.51521" lon="1.22087">
        <ele>202</ele>
        <time>2024-05-20T06:25:53Z</time>
      </trkpt>
      <trkpt lat="43.51519" lon="1.22082">
        <ele>202.4</ele>
        <time>2024-05-20T06:25:54Z</time>
      </trkpt>
      <trkpt lat="43.51518" lon="1.22076">
        <ele>202.8</ele>
        <time>2024-05-20T06:25:55Z</time>
      </trkpt>
      <trkpt lat="43.51517" lon="1.22071">
        <ele>203.2</ele>
        <time>2024-05-20T06:25:56Z</time>
      </trkpt>
      <trkpt lat="43.51515" lon="1.22065">
        <ele>203.4</ele>
        <time>2024-05-20T06:25:57Z</time>
      </trkpt>
      <trkpt lat="43.51513" lon="1.2206">
        <ele>204</ele>
        <time>2024-05-20T06:25:58Z</time>
      </trkpt>
      <trkpt lat="43.51511" lon="1.22054">
        <ele>204.2</ele>
        <time>2024-05-20T06:25:59Z</time>
      </trkpt>
      <trkpt lat="43.51509" lon="1.2205">
        <ele>204.8</ele>
        <time>2024-05-20T06:26:00Z</time>
      </trkpt>
      <trkpt lat="43.51507" lon="1.22045">
        <ele>205</ele>
        <time>2024-05-20T06:26:01Z</time>
      </trkpt>
      <trkpt lat="43.51505" lon="1.2204">
        <ele>205.6</ele>
        <time>2024-05-20T06:26:02Z</time>
      </trkpt>
      <trkpt lat="43.51503" lon="1.22035">
        <ele>205.8</ele>
        <time>2024-05-20T06:26:03Z</time>
      </trkpt>
      <trkpt lat="43.51502" lon="1.22029">
        <ele>206.4</ele>
        <time>2024-05-20T06:26:04Z</time>
      </trkpt>
      <trkpt lat="43.51501" lon="1.22025">
        <ele>206.8</ele>
        <time>2024-05-20T06:26:05Z</time>
      </trkpt>
      <trkpt lat="43.515" lon="1.2202">
        <ele>207.2</ele>
        <time>2024-05-20T06:26:06Z</time>
      </trkpt>
      <trkpt lat="43.51498" lon="1.22014">
        <ele>207.4</ele>
        <time>2024-05-20T06:26:07Z</time>
      </trkpt>
      <trkpt lat="43.51498" lon="1.22011">
        <ele>208</ele>
        <time>2024-05-20T06:26:08Z</time>
      </trkpt>
      <trkpt lat="43.51497" lon="1.22006">
        <ele>208.6</ele>
        <time>2024-05-20T06:26:09Z</time>
      </trkpt>
      <trkpt lat="43.51496" lon="1.22002">
        <ele>208.8</ele>
        <time>2024-05-20T06:26:10Z</time>
      </trkpt>
      <trkpt lat="43.51496" lon="1.21998">
        <ele>209.4</ele>
        <time>2024-05-20T06:26:11Z</time>
      </trkpt>
      <trkpt lat="43.51495" lon="1.21995">
        <ele>209.6</ele>
        <time>2024-05-20T06:26:12Z</time>
      </trkpt>
      <trkpt lat="43.51495" lon="1.2199">
        <ele>210.4</ele>
        <time>2024-05-20T06:26:13Z</time>
      </trkpt>
      <trkpt lat="43.51494" lon="1.21987">
        <ele>210.8</ele>
        <time>2024-05-20T06:26:14Z</time>
      </trkpt>
      <trkpt lat="43.51493" lon="1.21984">
        <ele>211.4</ele>
        <time>2024-05-20T06:26:15Z</time>
      </trkpt>
      <trkpt lat="43.51493" lon="1.21981">
        <ele>212</ele>
        <time>2024-05-20T06:26:16Z</time>
      </trkpt>
      <trkpt lat="43.51492" lon="1.21976">
        <ele>212.2</ele>
        <time>2024-05-20T06:26:17Z</time>
      </trkpt>
      <trkpt lat="43.51491" lon="1.21972">
        <ele>213</ele>
        <time>2024-05-20T06:26:18Z</time>
      </trkpt>
      <trkpt lat="43.5149" lon="1.21968">
        <ele>213.2</ele>
        <time>2024-05-20T06:26:19Z</time>
      </trkpt>
      <trkpt lat="43.51489" lon="1.21965">
        <ele>213.8</ele>
        <time>2024-05-20T06:26:20Z</time>
      </trkpt>
      <trkpt lat="43.51488" lon="1.21961">
        <ele>214</ele>
        <time>2024-05-20T06:26:21Z</time>
      </trkpt>
      <trkpt lat="43.51488" lon="1.21956">
        <ele>214.6</ele>
        <time>2024-05-20T06:26:22Z</time>
      </trkpt>
      <trkpt lat="43.51487" lon="1.21952">
        <ele>215.2</ele>
        <time>2024-05-20T06:26:23Z</time>
      </trkpt>
      <trkpt lat="43.51485" lon="1.21947">
        <ele>215.6</ele>
        <time>2024-05-20T06:26:24Z</time>
      </trkpt>
      <trkpt lat="43.51484" lon="1.21942">
        <ele>216.2</ele>
        <time>2024-05-20T06:26:25Z</time>
      </trkpt>
      <trkpt lat="43.51482" lon="1.21937">
        <ele>216.4</ele>
        <time>2024-05-20T06:26:26Z</time>
      </trkpt>
      <trkpt lat="43.51481" lon="1.2193">
        <ele>216.8</ele>
        <time>2024-05-20T06:26:27Z</time>
      </trkpt>
      <trkpt lat="43.5148" lon="1.21926">
        <ele>217</ele>
        <time>2024-05-20T06:26:28Z</time>
      </trkpt>
      <trkpt lat="43.51479" lon="1.21922">
        <ele>217.4</ele>
        <time>2024-05-20T06:26:29Z</time>
      </trkpt>
      <trkpt lat="43.51479" lon="1.21916">
        <ele>217.6</ele>
        <time>2024-05-20T06:26:30Z</time>
      </trkpt>
      <trkpt lat="43.51479" lon="1.21908">
        <ele>218</ele>
        <time>2024-05-20T06:26:31Z</time>
      </trkpt>
      <trkpt lat="43.51478" lon="1.21898">
        <ele>218.4</ele>
        <time>2024-05-20T06:26:32Z</time>
      </trkpt>
      <trkpt lat="43.51477" lon="1.21892">
        <ele>218.6</ele>
        <time>2024-05-20T06:26:33Z</time>
      </trkpt>
      <trkpt lat="43.51476" lon="1.21886">
        <ele>219</ele>
        <time>2024-05-20T06:26:34Z</time>
      </trkpt>
      <trkpt lat="43.51475" lon="1.2188">
        <ele>219.2</ele>
        <time>2024-05-20T06:26:35Z</time>
      </trkpt>
      <trkpt lat="43.51474" lon="1.21875">
        <ele>219.6</ele>
        <time>2024-05-20T06:26:36Z</time>
      </trkpt>
      <trkpt lat="43.51473" lon="1.21867">
        <ele>219.8</ele>
        <time>2024-05-20T06:26:37Z</time>
      </trkpt>
      <trkpt lat="43.51473" lon="1.21862">
        <ele>220.2</ele>
        <time>2024-05-20T06:26:38Z</time>
      </trkpt>
      <trkpt lat="43.51472" lon="1.21856">
        <ele>220.4</ele>
        <time>2024-05-20T06:26:39Z</time>
      </trkpt>
      <trkpt lat="43.5147" lon="1.2185">
        <ele>220.8</ele>
        <time>2024-05-20T06:26:40Z</time>
      </trkpt>
      <trkpt lat="43.51469" lon="1.21842">
        <ele>221.2</ele>
        <time>2024-05-20T06:26:41Z</time>
      </trkpt>
      <trkpt lat="43.51468" lon="1.21837">
        <ele>221.2</ele>
        <time>2024-05-20T06:26:42Z</time>
      </trkpt>
      <trkpt lat="43.51466" lon="1.21831">
        <ele>221.4</ele>
        <time>2024-05-20T06:26:43Z</time>
      </trkpt>
      <trkpt lat="43.51465" lon="1.21824">
        <ele>221.6</ele>
        <time>2024-05-20T06:26:44Z</time>
      </trkpt>
      <trkpt lat="43.51463" lon="1.21817">
        <ele>221.8</ele>
        <time>2024-05-20T06:26:45Z</time>
      </trkpt>
      <trkpt lat="43.51461" lon="1.2181">
        <ele>221.8</ele>
        <time>2024-05-20T06:26:46Z</time>
      </trkpt>
      <trkpt lat="43.5146" lon="1.21804">
        <ele>222</ele>
        <time>2024-05-20T06:26:47Z</time>
      </trkpt>
      <trkpt lat="43.51458" lon="1.21799">
        <ele>222.2</ele>
        <time>2024-05-20T06:26:48Z</time>
      </trkpt>
      <trkpt lat="43.51456" lon="1.21792">
        <ele>222.4</ele>
        <time>2024-05-20T06:26:49Z</time>
      </trkpt>
      <trkpt lat="43.51454" lon="1.21786">
        <ele>222.6</ele>
        <time>2024-05-20T06:26:50Z</time>
      </trkpt>
      <trkpt lat="43.51452" lon="1.21779">
        <ele>222.6</ele>
        <time>2024-05-20T06:26:51Z</time>
      </trkpt>
      <trkpt lat="43.51451" lon="1.21773">
        <ele>222.8</ele>
        <time>2024-05-20T06:26:52Z</time>
      </trkpt>
      <trkpt lat="43.51449" lon="1.21766">
        <ele>222.8</ele>
        <time>2024-05-20T06:26:53Z</time>
      </trkpt>
      <trkpt lat="43.51448" lon="1.21759">
        <ele>223</ele>
        <time>2024-05-20T06:26:54Z</time>
      </trkpt>
      <trkpt lat="43.51446" lon="1.21752">
        <ele>223.2</ele>
        <time>2024-05-20T06:26:55Z</time>
      </trkpt>
      <trkpt lat="43.51444" lon="1.21746">
        <ele>223.4</ele>
        <time>2024-05-20T06:26:56Z</time>
      </trkpt>
      <trkpt lat="43.51442" lon="1.21739">
        <ele>223.4</ele>
        <time>2024-05-20T06:26:57Z</time>
      </trkpt>
      <trkpt lat="43.5144" lon="1.21732">
        <ele>223.6</ele>
        <time>2024-05-20T06:26:58Z</time>
      </trkpt>
      <trkpt lat="43.51438" lon="1.21725">
        <ele>223.6</ele>
        <time>2024-05-20T06:26:59Z</time>
      </trkpt>
      <trkpt lat="43.51435" lon="1.21716">
        <ele>223.6</ele>
        <time>2024-05-20T06:27:00Z</time>
      </trkpt>
      <trkpt lat="43.51433" lon="1.2171">
        <ele>223.6</ele>
        <time>2024-05-20T06:27:01Z</time>
      </trkpt>
      <trkpt lat="43.51431" lon="1.21703">
        <ele>223.8</ele>
        <time>2024-05-20T06:27:02Z</time>
      </trkpt>
      <trkpt lat="43.51429" lon="1.21696">
        <ele>223.8</ele>
        <time>2024-05-20T06:27:03Z</time>
      </trkpt>
      <trkpt lat="43.51427" lon="1.21688">
        <ele>223.8</ele>
        <time>2024-05-20T06:27:04Z</time>
      </trkpt>
      <trkpt lat="43.51424" lon="1.2168">
        <ele>224</ele>
        <time>2024-05-20T06:27:05Z</time>
      </trkpt>
      <trkpt lat="43.51422" lon="1.21673">
        <ele>224</ele>
        <time>2024-05-20T06:27:06Z</time>
      </trkpt>
      <trkpt lat="43.5142" lon="1.21665">
        <ele>224.2</ele>
        <time>2024-05-20T06:27:07Z</time>
      </trkpt>
      <trkpt lat="43.51418" lon="1.21658">
        <ele>224.2</ele>
        <time>2024-05-20T06:27:08Z</time>
      </trkpt>
      <trkpt lat="43.51416" lon="1.2165">
        <ele>224.2</ele>
        <time>2024-05-20T06:27:09Z</time>
      </trkpt>
      <trkpt lat="43.51414" lon="1.21641">
        <ele>224.2</ele>
        <time>2024-05-20T06:27:10Z</time>
      </trkpt>
      <trkpt lat="43.51412" lon="1.21633">
        <ele>224.4</ele>
        <time>2024-05-20T06:27:11Z</time>
      </trkpt>
      <trkpt lat="43.5141" lon="1.21625">
        <ele>224.4</ele>
        <time>2024-05-20T06:27:12Z</time>
      </trkpt>
      <trkpt lat="43.51407" lon="1.21617">
        <ele>224.4</ele>
        <time>2024-05-20T06:27:13Z</time>
      </trkpt>
      <trkpt lat="43.51405" lon="1.21607">
        <ele>224.4</ele>
        <time>2024-05-20T06:27:14Z</time>
      </trkpt>
      <trkpt lat="43.51403" lon="1.21601">
        <ele>224.4</ele>
        <time>2024-05-20T06:27:15Z</time>
      </trkpt>
      <trkpt lat="43.51401" lon="1.21593">
        <ele>224.4</ele>
        <time>2024-05-20T06:27:16Z</time>
      </trkpt>
      <trkpt lat="43.51399" lon="1.21585">
        <ele>224.6</ele>
        <time>2024-05-20T06:27:17Z</time>
      </trkpt>
      <trkpt lat="43.51397" lon="1.21577">
        <ele>224.6</ele>
        <time>2024-05-20T06:27:18Z</time>
      </trkpt>
      <trkpt lat="43.51395" lon="1.21569">
        <ele>224.6</ele>
        <time>2024-05-20T06:27:19Z</time>
      </trkpt>
      <trkpt lat="43.51394" lon="1.21561">
        <ele>224.6</ele>
        <time>2024-05-20T06:27:20Z</time>
      </trkpt>
      <trkpt lat="43.51391" lon="1.21553">
        <ele>224.6</ele>
        <time>2024-05-20T06:27:21Z</time>
      </trkpt>
      <trkpt lat="43.51389" lon="1.21545">
        <ele>224.6</ele>
        <time>2024-05-20T06:27:22Z</time>
      </trkpt>
      <trkpt lat="43.51387" lon="1.21536">
        <ele>224.6</ele>
        <time>2024-05-20T06:27:23Z</time>
      </trkpt>
      <trkpt lat="43.51384" lon="1.21526">
        <ele>224.6</ele>
        <time>2024-05-20T06:27:24Z</time>
      </trkpt>
      <trkpt lat="43.51382" lon="1.2152">
        <ele>224.6</ele>
        <time>2024-05-20T06:27:25Z</time>
      </trkpt>
      <trkpt lat="43.5138" lon="1.21511">
        <ele>224.6</ele>
        <time>2024-05-20T06:27:26Z</time>
      </trkpt>
      <trkpt lat="43.51378" lon="1.21502">
        <ele>224.8</ele>
        <time>2024-05-20T06:27:27Z</time>
      </trkpt>
      <trkpt lat="43.51376" lon="1.21494">
        <ele>224.8</ele>
        <time>2024-05-20T06:27:28Z</time>
      </trkpt>
      <trkpt lat="43.51373" lon="1.21485">
        <ele>224.8</ele>
        <time>2024-05-20T06:27:29Z</time>
      </trkpt>
      <trkpt lat="43.51371" lon="1.21477">
        <ele>224.8</ele>
        <time>2024-05-20T06:27:30Z</time>
      </trkpt>
      <trkpt lat="43.51369" lon="1.21468">
        <ele>224.8</ele>
        <time>2024-05-20T06:27:31Z</time>
      </trkpt>
      <trkpt lat="43.51366" lon="1.21457">
        <ele>224.8</ele>
        <time>2024-05-20T06:27:32Z</time>
      </trkpt>
      <trkpt lat="43.51364" lon="1.21451">
        <ele>224.8</ele>
        <time>2024-05-20T06:27:33Z</time>
      </trkpt>
      <trkpt lat="43.51362" lon="1.21442">
        <ele>224.8</ele>
        <time>2024-05-20T06:27:34Z</time>
      </trkpt>
      <trkpt lat="43.5136" lon="1.21433">
        <ele>224.8</ele>
        <time>2024-05-20T06:27:35Z</time>
      </trkpt>
      <trkpt lat="43.51357" lon="1.21424">
        <ele>224.8</ele>
        <time>2024-05-20T06:27:36Z</time>
      </trkpt>
      <trkpt lat="43.51355" lon="1.21415">
        <ele>225</ele>
        <time>2024-05-20T06:27:37Z</time>
      </trkpt>
      <trkpt lat="43.51352" lon="1.21406">
        <ele>225</ele>
        <time>2024-05-20T06:27:38Z</time>
      </trkpt>
      <trkpt lat="43.5135" lon="1.21397">
        <ele>225</ele>
        <time>2024-05-20T06:27:39Z</time>
      </trkpt>
      <trkpt lat="43.51348" lon="1.21389">
        <ele>225</ele>
        <time>2024-05-20T06:27:40Z</time>
      </trkpt>
      <trkpt lat="43.51345" lon="1.2138">
        <ele>225</ele>
        <time>2024-05-20T06:27:41Z</time>
      </trkpt>
      <trkpt lat="43.51343" lon="1.21369">
        <ele>225</ele>
        <time>2024-05-20T06:27:42Z</time>
      </trkpt>
      <trkpt lat="43.51341" lon="1.2136">
        <ele>225</ele>
        <time>2024-05-20T06:27:43Z</time>
      </trkpt>
      <trkpt lat="43.51339" lon="1.21353">
        <ele>225</ele>
        <time>2024-05-20T06:27:44Z</time>
      </trkpt>
      <trkpt lat="43.51336" lon="1.21345">
        <ele>225</ele>
        <time>2024-05-20T06:27:45Z</time>
      </trkpt>
      <trkpt lat="43.51334" lon="1.21336">
        <ele>225</ele>
        <time>2024-05-20T06:27:46Z</time>
      </trkpt>
      <trkpt lat="43.51332" lon="1.21328">
        <ele>225</ele>
        <time>2024-05-20T06:27:47Z</time>
      </trkpt>
      <trkpt lat="43.5133" lon="1.2132">
        <ele>225</ele>
        <time>2024-05-20T06:27:48Z</time>
      </trkpt>
      <trkpt lat="43.51328" lon="1.21312">
        <ele>225</ele>
        <time>2024-05-20T06:27:49Z</time>
      </trkpt>
      <trkpt lat="43.51326" lon="1.21305">
        <ele>225</ele>
        <time>2024-05-20T06:27:50Z</time>
      </trkpt>
      <trkpt lat="43.51324" lon="1.21298">
        <ele>225</ele>
        <time>2024-05-20T06:27:51Z</time>
      </trkpt>
      <trkpt lat="43.51322" lon="1.21291">
        <ele>225</ele>
        <time>2024-05-20T06:27:52Z</time>
      </trkpt>
      <trkpt lat="43.5132" lon="1.21284">
        <ele>225</ele>
        <time>2024-05-20T06:27:53Z</time>
      </trkpt>
      <trkpt lat="43.51318" lon="1.2128">
        <ele>225.2</ele>
        <time>2024-05-20T06:27:54Z</time>
      </trkpt>
      <trkpt lat="43.51315" lon="1.21277">
        <ele>225.2</ele>
        <time>2024-05-20T06:27:55Z</time>
      </trkpt>
      <trkpt lat="43.51313" lon="1.21274">
        <ele>225.2</ele>
        <time>2024-05-20T06:27:56Z</time>
      </trkpt>
      <trkpt lat="43.51309" lon="1.21272">
        <ele>225.4</ele>
        <time>2024-05-20T06:27:57Z</time>
      </trkpt>
      <trkpt lat="43.51306" lon="1.21272">
        <ele>225.4</ele>
        <time>2024-05-20T06:27:58Z</time>
      </trkpt>
      <trkpt lat="43.51302" lon="1.21273">
        <ele>225.4</ele>
        <time>2024-05-20T06:27:59Z</time>
      </trkpt>
      <trkpt lat="43.51299" lon="1.21276">
        <ele>225.4</ele>
        <time>2024-05-20T06:28:00Z</time>
      </trkpt>
      <trkpt lat="43.51296" lon="1.2128">
        <ele>225.4</ele>
        <time>2024-05-20T06:28:01Z</time>
      </trkpt>
      <trkpt lat="43.51292" lon="1.21284">
        <ele>225.4</ele>
        <time>2024-05-20T06:28:02Z</time>
      </trkpt>
      <trkpt lat="43.51289" lon="1.21286">
        <ele>225.4</ele>
        <time>2024-05-20T06:28:03Z</time>
      </trkpt>
      <trkpt lat="43.51284" lon="1.21287">
        <ele>225.4</ele>
        <time>2024-05-20T06:28:04Z</time>
      </trkpt>
      <trkpt lat="43.51279" lon="1.21287">
        <ele>225.4</ele>
        <time>2024-05-20T06:28:05Z</time>
      </trkpt>
      <trkpt lat="43.51274" lon="1.21285">
        <ele>225.4</ele>
        <time>2024-05-20T06:28:06Z</time>
      </trkpt>
      <trkpt lat="43.51268" lon="1.21284">
        <ele>225.4</ele>
        <time>2024-05-20T06:28:07Z</time>
      </trkpt>
      <trkpt lat="43.51263" lon="1.21283">
        <ele>225.4</ele>
        <time>2024-05-20T06:28:08Z</time>
      </trkpt>
      <trkpt lat="43.51258" lon="1.21284">
        <ele>225.4</ele>
        <time>2024-05-20T06:28:09Z</time>
      </trkpt>
      <trkpt lat="43.51252" lon="1.21285">
        <ele>225.4</ele>
        <time>2024-05-20T06:28:10Z</time>
      </trkpt>
      <trkpt lat="43.51247" lon="1.21288">
        <ele>225.4</ele>
        <time>2024-05-20T06:28:11Z</time>
      </trkpt>
      <trkpt lat="43.51242" lon="1.21293">
        <ele>225.4</ele>
        <time>2024-05-20T06:28:12Z</time>
      </trkpt>
      <trkpt lat="43.51237" lon="1.21299">
        <ele>225.4</ele>
        <time>2024-05-20T06:28:13Z</time>
      </trkpt>
      <trkpt lat="43.51233" lon="1.21305">
        <ele>225.4</ele>
        <time>2024-05-20T06:28:14Z</time>
      </trkpt>
      <trkpt lat="43.51228" lon="1.2131">
        <ele>225.4</ele>
        <time>2024-05-20T06:28:15Z</time>
      </trkpt>
      <trkpt lat="43.51222" lon="1.21314">
        <ele>225.4</ele>
        <time>2024-05-20T06:28:16Z</time>
      </trkpt>
      <trkpt lat="43.51217" lon="1.21315">
        <ele>225.4</ele>
        <time>2024-05-20T06:28:17Z</time>
      </trkpt>
      <trkpt lat="43.51212" lon="1.21312">
        <ele>225.4</ele>
        <time>2024-05-20T06:28:18Z</time>
      </trkpt>
      <trkpt lat="43.51207" lon="1.21306">
        <ele>225.4</ele>
        <time>2024-05-20T06:28:19Z</time>
      </trkpt>
      <trkpt lat="43.51203" lon="1.21299">
        <ele>225.4</ele>
        <time>2024-05-20T06:28:20Z</time>
      </trkpt>
      <trkpt lat="43.51198" lon="1.2129">
        <ele>225.4</ele>
        <time>2024-05-20T06:28:21Z</time>
      </trkpt>
      <trkpt lat="43.51195" lon="1.21283">
        <ele>225.4</ele>
        <time>2024-05-20T06:28:22Z</time>
      </trkpt>
      <trkpt lat="43.51191" lon="1.21276">
        <ele>225.4</ele>
        <time>2024-05-20T06:28:23Z</time>
      </trkpt>
      <trkpt lat="43.51187" lon="1.21268">
        <ele>225.4</ele>
        <time>2024-05-20T06:28:24Z</time>
      </trkpt>
      <trkpt lat="43.51183" lon="1.21261">
        <ele>225.4</ele>
        <time>2024-05-20T06:28:25Z</time>
      </trkpt>
      <trkpt lat="43.51179" lon="1.21253">
        <ele>225.4</ele>
        <time>2024-05-20T06:28:26Z</time>
      </trkpt>
      <trkpt lat="43.51174" lon="1.21245">
        <ele>225.4</ele>
        <time>2024-05-20T06:28:27Z</time>
      </trkpt>
      <trkpt lat="43.5117" lon="1.21237">
        <ele>225.4</ele>
        <time>2024-05-20T06:28:28Z</time>
      </trkpt>
      <trkpt lat="43.51165" lon="1.2123">
        <ele>225.6</ele>
        <time>2024-05-20T06:28:29Z</time>
      </trkpt>
      <trkpt lat="43.5116" lon="1.21221">
        <ele>225.6</ele>
        <time>2024-05-20T06:28:30Z</time>
      </trkpt>
      <trkpt lat="43.51157" lon="1.21215">
        <ele>225.6</ele>
        <time>2024-05-20T06:28:31Z</time>
      </trkpt>
      <trkpt lat="43.51153" lon="1.21207">
        <ele>225.6</ele>
        <time>2024-05-20T06:28:32Z</time>
      </trkpt>
      <trkpt lat="43.51148" lon="1.212">
        <ele>225.6</ele>
        <time>2024-05-20T06:28:33Z</time>
      </trkpt>
      <trkpt lat="43.51143" lon="1.21193">
        <ele>225.8</ele>
        <time>2024-05-20T06:28:34Z</time>
      </trkpt>
      <trkpt lat="43.51137" lon="1.21185">
        <ele>225.8</ele>
        <time>2024-05-20T06:28:35Z</time>
      </trkpt>
      <trkpt lat="43.51132" lon="1.2118">
        <ele>225.8</ele>
        <time>2024-05-20T06:28:36Z</time>
      </trkpt>
      <trkpt lat="43.51127" lon="1.21174">
        <ele>225.8</ele>
        <time>2024-05-20T06:28:37Z</time>
      </trkpt>
      <trkpt lat="43.5112" lon="1.21167">
        <ele>225.8</ele>
        <time>2024-05-20T06:28:38Z</time>
      </trkpt>
      <trkpt lat="43.51116" lon="1.21163">
        <ele>226</ele>
        <time>2024-05-20T06:28:39Z</time>
      </trkpt>
      <trkpt lat="43.51111" lon="1.21157">
        <ele>226</ele>
        <time>2024-05-20T06:28:40Z</time>
      </trkpt>
      <trkpt lat="43.51105" lon="1.21152">
        <ele>226</ele>
        <time>2024-05-20T06:28:41Z</time>
      </trkpt>
      <trkpt lat="43.51101" lon="1.21146">
        <ele>226.2</ele>
        <time>2024-05-20T06:28:42Z</time>
      </trkpt>
      <trkpt lat="43.51096" lon="1.21141">
        <ele>226.2</ele>
        <time>2024-05-20T06:28:43Z</time>
      </trkpt>
      <trkpt lat="43.51091" lon="1.21136">
        <ele>226.4</ele>
        <time>2024-05-20T06:28:44Z</time>
      </trkpt>
      <trkpt lat="43.51086" lon="1.21131">
        <ele>226.6</ele>
        <time>2024-05-20T06:28:45Z</time>
      </trkpt>
      <trkpt lat="43.51081" lon="1.21126">
        <ele>226.6</ele>
        <time>2024-05-20T06:28:46Z</time>
      </trkpt>
      <trkpt lat="43.51076" lon="1.2112">
        <ele>226.8</ele>
        <time>2024-05-20T06:28:47Z</time>
      </trkpt>
      <trkpt lat="43.5107" lon="1.21115">
        <ele>226.8</ele>
        <time>2024-05-20T06:28:48Z</time>
      </trkpt>
      <trkpt lat="43.51064" lon="1.21108">
        <ele>226.8</ele>
        <time>2024-05-20T06:28:49Z</time>
      </trkpt>
      <trkpt lat="43.51059" lon="1.21104">
        <ele>226.8</ele>
        <time>2024-05-20T06:28:50Z</time>
      </trkpt>
      <trkpt lat="43.51054" lon="1.21098">
        <ele>226.8</ele>
        <time>2024-05-20T06:28:51Z</time>
      </trkpt>
      <trkpt lat="43.51048" lon="1.21092">
        <ele>226.8</ele>
        <time>2024-05-20T06:28:52Z</time>
      </trkpt>
      <trkpt lat="43.51042" lon="1.21086">
        <ele>226.8</ele>
        <time>2024-05-20T06:28:53Z</time>
      </trkpt>
      <trkpt lat="43.51036" lon="1.2108">
        <ele>227</ele>
        <time>2024-05-20T06:28:54Z</time>
      </trkpt>
      <trkpt lat="43.5103" lon="1.21074">
        <ele>227</ele>
        <time>2024-05-20T06:28:55Z</time>
      </trkpt>
      <trkpt lat="43.51024" lon="1.21068">
        <ele>227</ele>
        <time>2024-05-20T06:28:56Z</time>
      </trkpt>
      <trkpt lat="43.51017" lon="1.2106">
        <ele>227</ele>
        <time>2024-05-20T06:28:57Z</time>
      </trkpt>
      <trkpt lat="43.5101" lon="1.21054">
        <ele>227</ele>
        <time>2024-05-20T06:28:58Z</time>
      </trkpt>
      <trkpt lat="43.51004" lon="1.21047">
        <ele>227</ele>
        <time>2024-05-20T06:28:59Z</time>
      </trkpt>
      <trkpt lat="43.50998" lon="1.21042">
        <ele>227</ele>
        <time>2024-05-20T06:29:00Z</time>
      </trkpt>
      <trkpt lat="43.5099" lon="1.21035">
        <ele>227</ele>
        <time>2024-05-20T06:29:01Z</time>
      </trkpt>
      <trkpt lat="43.50985" lon="1.2103">
        <ele>227</ele>
        <time>2024-05-20T06:29:02Z</time>
      </trkpt>
      <trkpt lat="43.50978" lon="1.21025">
        <ele>227</ele>
        <time>2024-05-20T06:29:03Z</time>
      </trkpt>
      <trkpt lat="43.50971" lon="1.2102">
        <ele>227</ele>
        <time>2024-05-20T06:29:04Z</time>
      </trkpt>
      <trkpt lat="43.50965" lon="1.21014">
        <ele>227</ele>
        <time>2024-05-20T06:29:05Z</time>
      </trkpt>
      <trkpt lat="43.50958" lon="1.21009">
        <ele>227</ele>
        <time>2024-05-20T06:29:06Z</time>
      </trkpt>
      <trkpt lat="43.50952" lon="1.21004">
        <ele>227</ele>
        <time>2024-05-20T06:29:07Z</time>
      </trkpt>
      <trkpt lat="43.50944" lon="1.20997">
        <ele>227</ele>
        <time>2024-05-20T06:29:08Z</time>
      </trkpt>
      <trkpt lat="43.50938" lon="1.20993">
        <ele>227</ele>
        <time>2024-05-20T06:29:09Z</time>
      </trkpt>
      <trkpt lat="43.50932" lon="1.20988">
        <ele>227</ele>
        <time>2024-05-20T06:29:10Z</time>
      </trkpt>
      <trkpt lat="43.50926" lon="1.20983">
        <ele>227</ele>
        <time>2024-05-20T06:29:11Z</time>
      </trkpt>
      <trkpt lat="43.50919" lon="1.20977">
        <ele>227</ele>
        <time>2024-05-20T06:29:12Z</time>
      </trkpt>
      <trkpt lat="43.50913" lon="1.20972">
        <ele>227</ele>
        <time>2024-05-20T06:29:13Z</time>
      </trkpt>
      <trkpt lat="43.50907" lon="1.20967">
        <ele>227</ele>
        <time>2024-05-20T06:29:14Z</time>
      </trkpt>
      <trkpt lat="43.50901" lon="1.20961">
        <ele>227</ele>
        <time>2024-05-20T06:29:15Z</time>
      </trkpt>
      <trkpt lat="43.50895" lon="1.20956">
        <ele>227</ele>
        <time>2024-05-20T06:29:16Z</time>
      </trkpt>
      <trkpt lat="43.50888" lon="1.2095">
        <ele>227</ele>
        <time>2024-05-20T06:29:17Z</time>
      </trkpt>
      <trkpt lat="43.50883" lon="1.20945">
        <ele>227</ele>
        <time>2024-05-20T06:29:18Z</time>
      </trkpt>
      <trkpt lat="43.50878" lon="1.20939">
        <ele>227</ele>
        <time>2024-05-20T06:29:19Z</time>
      </trkpt>
      <trkpt lat="43.50872" lon="1.20932">
        <ele>227</ele>
        <time>2024-05-20T06:29:20Z</time>
      </trkpt>
      <trkpt lat="43.50866" lon="1.20926">
        <ele>227</ele>
        <time>2024-05-20T06:29:21Z</time>
      </trkpt>
      <trkpt lat="43.5086" lon="1.2092">
        <ele>227</ele>
        <time>2024-05-20T06:29:22Z</time>
      </trkpt>
      <trkpt lat="43.50854" lon="1.20915">
        <ele>227</ele>
        <time>2024-05-20T06:29:23Z</time>
      </trkpt>
      <trkpt lat="43.50848" lon="1.20909">
        <ele>227</ele>
        <time>2024-05-20T06:29:24Z</time>
      </trkpt>
      <trkpt lat="43.50842" lon="1.20903">
        <ele>227</ele>
        <time>2024-05-20T06:29:25Z</time>
      </trkpt>
      <trkpt lat="43.50836" lon="1.20896">
        <ele>227</ele>
        <time>2024-05-20T06:29:26Z</time>
      </trkpt>
      <trkpt lat="43.5083" lon="1.2089">
        <ele>227</ele>
        <time>2024-05-20T06:29:27Z</time>
      </trkpt>
      <trkpt lat="43.50824" lon="1.20884">
        <ele>227</ele>
        <time>2024-05-20T06:29:28Z</time>
      </trkpt>
      <trkpt lat="43.50816" lon="1.20877">
        <ele>227</ele>
        <time>2024-05-20T06:29:29Z</time>
      </trkpt>
      <trkpt lat="43.50811" lon="1.20873">
        <ele>227.2</ele>
        <time>2024-05-20T06:29:30Z</time>
      </trkpt>
      <trkpt lat="43.50805" lon="1.20868">
        <ele>227.2</ele>
        <time>2024-05-20T06:29:31Z</time>
      </trkpt>
      <trkpt lat="43.50798" lon="1.20863">
        <ele>227.2</ele>
        <time>2024-05-20T06:29:32Z</time>
      </trkpt>
      <trkpt lat="43.50792" lon="1.20859">
        <ele>227.2</ele>
        <time>2024-05-20T06:29:33Z</time>
      </trkpt>
      <trkpt lat="43.50785" lon="1.20854">
        <ele>227.4</ele>
        <time>2024-05-20T06:29:34Z</time>
      </trkpt>
      <trkpt lat="43.50778" lon="1.2085">
        <ele>227.4</ele>
        <time>2024-05-20T06:29:35Z</time>
      </trkpt>
      <trkpt lat="43.50772" lon="1.20846">
        <ele>227.4</ele>
        <time>2024-05-20T06:29:36Z</time>
      </trkpt>
      <trkpt lat="43.50766" lon="1.20842">
        <ele>227.4</ele>
        <time>2024-05-20T06:29:37Z</time>
      </trkpt>
      <trkpt lat="43.5076" lon="1.20837">
        <ele>227.4</ele>
        <time>2024-05-20T06:29:38Z</time>
      </trkpt>
      <trkpt lat="43.50753" lon="1.20831">
        <ele>227.4</ele>
        <time>2024-05-20T06:29:39Z</time>
      </trkpt>
      <trkpt lat="43.50747" lon="1.20826">
        <ele>227.4</ele>
        <time>2024-05-20T06:29:40Z</time>
      </trkpt>
      <trkpt lat="43.50741" lon="1.20821">
        <ele>227.2</ele>
        <time>2024-05-20T06:29:41Z</time>
      </trkpt>
      <trkpt lat="43.50734" lon="1.20816">
        <ele>227.2</ele>
        <time>2024-05-20T06:29:42Z</time>
      </trkpt>
      <trkpt lat="43.50727" lon="1.20811">
        <ele>227.2</ele>
        <time>2024-05-20T06:29:43Z</time>
      </trkpt>
      <trkpt lat="43.50721" lon="1.20807">
        <ele>227.2</ele>
        <time>2024-05-20T06:29:44Z</time>
      </trkpt>
      <trkpt lat="43.50712" lon="1.20802">
        <ele>227.2</ele>
        <time>2024-05-20T06:29:45Z</time>
      </trkpt>
      <trkpt lat="43.50707" lon="1.20798">
        <ele>227.2</ele>
        <time>2024-05-20T06:29:46Z</time>
      </trkpt>
      <trkpt lat="43.50699" lon="1.20794">
        <ele>227.2</ele>
        <time>2024-05-20T06:29:47Z</time>
      </trkpt>
      <trkpt lat="43.50692" lon="1.20791">
        <ele>227.2</ele>
        <time>2024-05-20T06:29:48Z</time>
      </trkpt>
      <trkpt lat="43.50684" lon="1.20788">
        <ele>227</ele>
        <time>2024-05-20T06:29:49Z</time>
      </trkpt>
      <trkpt lat="43.50677" lon="1.20787">
        <ele>227</ele>
        <time>2024-05-20T06:29:50Z</time>
      </trkpt>
      <trkpt lat="43.50669" lon="1.20786">
        <ele>227</ele>
        <time>2024-05-20T06:29:51Z</time>
      </trkpt>
      <trkpt lat="43.50661" lon="1.20785">
        <ele>227</ele>
        <time>2024-05-20T06:29:52Z</time>
      </trkpt>
      <trkpt lat="43.50653" lon="1.20784">
        <ele>227</ele>
        <time>2024-05-20T06:29:53Z</time>
      </trkpt>
      <trkpt lat="43.50645" lon="1.20783">
        <ele>227</ele>
        <time>2024-05-20T06:29:54Z</time>
      </trkpt>
      <trkpt lat="43.50638" lon="1.20782">
        <ele>227</ele>
        <time>2024-05-20T06:29:55Z</time>
      </trkpt>
      <trkpt lat="43.5063" lon="1.2078">
        <ele>227</ele>
        <time>2024-05-20T06:29:56Z</time>
      </trkpt>
      <trkpt lat="43.50622" lon="1.20779">
        <ele>227</ele>
        <time>2024-05-20T06:29:57Z</time>
      </trkpt>
      <trkpt lat="43.50614" lon="1.20778">
        <ele>227</ele>
        <time>2024-05-20T06:29:58Z</time>
      </trkpt>
      <trkpt lat="43.50606" lon="1.20777">
        <ele>227</ele>
        <time>2024-05-20T06:29:59Z</time>
      </trkpt>
      <trkpt lat="43.50597" lon="1.20776">
        <ele>226.8</ele>
        <time>2024-05-20T06:30:00Z</time>
      </trkpt>
      <trkpt lat="43.50589" lon="1.20775">
        <ele>226.8</ele>
        <time>2024-05-20T06:30:01Z</time>
      </trkpt>
      <trkpt lat="43.50581" lon="1.20774">
        <ele>226.8</ele>
        <time>2024-05-20T06:30:02Z</time>
      </trkpt>
      <trkpt lat="43.50573" lon="1.20773">
        <ele>226.6</ele>
        <time>2024-05-20T06:30:03Z</time>
      </trkpt>
      <trkpt lat="43.50565" lon="1.20773">
        <ele>226.6</ele>
        <time>2024-05-20T06:30:04Z</time>
      </trkpt>
      <trkpt lat="43.50557" lon="1.20773">
        <ele>226.4</ele>
        <time>2024-05-20T06:30:05Z</time>
      </trkpt>
      <trkpt lat="43.50549" lon="1.20772">
        <ele>226.4</ele>
        <time>2024-05-20T06:30:06Z</time>
      </trkpt>
      <trkpt lat="43.50541" lon="1.20772">
        <ele>226.2</ele>
        <time>2024-05-20T06:30:07Z</time>
      </trkpt>
      <trkpt lat="43.50533" lon="1.20772">
        <ele>226.2</ele>
        <time>2024-05-20T06:30:08Z</time>
      </trkpt>
      <trkpt lat="43.50525" lon="1.20772">
        <ele>226.2</ele>
        <time>2024-05-20T06:30:09Z</time>
      </trkpt>
      <trkpt lat="43.50517" lon="1.20772">
        <ele>225.8</ele>
        <time>2024-05-20T06:30:10Z</time>
      </trkpt>
      <trkpt lat="43.5051" lon="1.20772">
        <ele>225.8</ele>
        <time>2024-05-20T06:30:11Z</time>
      </trkpt>
      <trkpt lat="43.50502" lon="1.20772">
        <ele>226.2</ele>
        <time>2024-05-20T06:30:12Z</time>
      </trkpt>
      <trkpt lat="43.50495" lon="1.20772">
        <ele>226.2</ele>
        <time>2024-05-20T06:30:13Z</time>
      </trkpt>
      <trkpt lat="43.50487" lon="1.20772">
        <ele>226.2</ele>
        <time>2024-05-20T06:30:14Z</time>
      </trkpt>
      <trkpt lat="43.50479" lon="1.20771">
        <ele>226.2</ele>
        <time>2024-05-20T06:30:15Z</time>
      </trkpt>
      <trkpt lat="43.50472" lon="1.20772">
        <ele>226.4</ele>
        <time>2024-05-20T06:30:16Z</time>
      </trkpt>
      <trkpt lat="43.50464" lon="1.20771">
        <ele>226.4</ele>
        <time>2024-05-20T06:30:17Z</time>
      </trkpt>
      <trkpt lat="43.50456" lon="1.20771">
        <ele>226.4</ele>
        <time>2024-05-20T06:30:18Z</time>
      </trkpt>
      <trkpt lat="43.50449" lon="1.20771">
        <ele>226.6</ele>
        <time>2024-05-20T06:30:19Z</time>
      </trkpt>
      <trkpt lat="43.50441" lon="1.20771">
        <ele>226.6</ele>
        <time>2024-05-20T06:30:20Z</time>
      </trkpt>
      <trkpt lat="43.50434" lon="1.20771">
        <ele>226.8</ele>
        <time>2024-05-20T06:30:21Z</time>
      </trkpt>
      <trkpt lat="43.50427" lon="1.20771">
        <ele>226.8</ele>
        <time>2024-05-20T06:30:22Z</time>
      </trkpt>
      <trkpt lat="43.5042" lon="1.20771">
        <ele>227</ele>
        <time>2024-05-20T06:30:23Z</time>
      </trkpt>
      <trkpt lat="43.50414" lon="1.20771">
        <ele>227</ele>
        <time>2024-05-20T06:30:24Z</time>
      </trkpt>
      <trkpt lat="43.50408" lon="1.20771">
        <ele>227.2</ele>
        <time>2024-05-20T06:30:25Z</time>
      </trkpt>
      <trkpt lat="43.50402" lon="1.20771">
        <ele>227.2</ele>
        <time>2024-05-20T06:30:26Z</time>
      </trkpt>
      <trkpt lat="43.50396" lon="1.20771">
        <ele>227.2</ele>
        <time>2024-05-20T06:30:27Z</time>
      </trkpt>
      <trkpt lat="43.50391" lon="1.20771">
        <ele>227.4</ele>
        <time>2024-05-20T06:30:28Z</time>
      </trkpt>
      <trkpt lat="43.50385" lon="1.20771">
        <ele>227.4</ele>
        <time>2024-05-20T06:30:29Z</time>
      </trkpt>
      <trkpt lat="43.5038" lon="1.20771">
        <ele>227.4</ele>
        <time>2024-05-20T06:30:30Z</time>
      </trkpt>
      <trkpt lat="43.50374" lon="1.20771">
        <ele>227.4</ele>
        <time>2024-05-20T06:30:31Z</time>
      </trkpt>
      <trkpt lat="43.50369" lon="1.20771">
        <ele>227.6</ele>
        <time>2024-05-20T06:30:32Z</time>
      </trkpt>
      <trkpt lat="43.50364" lon="1.2077">
        <ele>227.6</ele>
        <time>2024-05-20T06:30:33Z</time>
      </trkpt>
      <trkpt lat="43.5036" lon="1.2077">
        <ele>227.8</ele>
        <time>2024-05-20T06:30:34Z</time>
      </trkpt>
      <trkpt lat="43.50355" lon="1.20769">
        <ele>227.8</ele>
        <time>2024-05-20T06:30:35Z</time>
      </trkpt>
      <trkpt lat="43.50351" lon="1.20769">
        <ele>227.8</ele>
        <time>2024-05-20T06:30:36Z</time>
      </trkpt>
      <trkpt lat="43.50348" lon="1.20768">
        <ele>228</ele>
        <time>2024-05-20T06:30:37Z</time>
      </trkpt>
      <trkpt lat="43.50345" lon="1.20767">
        <ele>228</ele>
        <time>2024-05-20T06:30:38Z</time>
      </trkpt>
      <trkpt lat="43.50342" lon="1.20766">
        <ele>228.2</ele>
        <time>2024-05-20T06:30:39Z</time>
      </trkpt>
      <trkpt lat="43.50339" lon="1.20764">
        <ele>228.2</ele>
        <time>2024-05-20T06:30:40Z</time>
      </trkpt>
      <trkpt lat="43.50335" lon="1.20762">
        <ele>228.2</ele>
        <time>2024-05-20T06:30:41Z</time>
      </trkpt>
      <trkpt lat="43.50331" lon="1.2076">
        <ele>228.2</ele>
        <time>2024-05-20T06:30:42Z</time>
      </trkpt>
      <trkpt lat="43.50327" lon="1.20758">
        <ele>228.2</ele>
        <time>2024-05-20T06:30:43Z</time>
      </trkpt>
      <trkpt lat="43.50322" lon="1.20754">
        <ele>228.2</ele>
        <time>2024-05-20T06:30:44Z</time>
      </trkpt>
      <trkpt lat="43.50317" lon="1.2075">
        <ele>228.4</ele>
        <time>2024-05-20T06:30:45Z</time>
      </trkpt>
      <trkpt lat="43.50312" lon="1.20746">
        <ele>228.4</ele>
        <time>2024-05-20T06:30:46Z</time>
      </trkpt>
      <trkpt lat="43.50307" lon="1.20741">
        <ele>228.4</ele>
        <time>2024-05-20T06:30:47Z</time>
      </trkpt>
      <trkpt lat="43.50302" lon="1.20736">
        <ele>228.4</ele>
        <time>2024-05-20T06:30:48Z</time>
      </trkpt>
      <trkpt lat="43.50296" lon="1.20731">
        <ele>228.6</ele>
        <time>2024-05-20T06:30:49Z</time>
      </trkpt>
      <trkpt lat="43.50291" lon="1.20726">
        <ele>228.6</ele>
        <time>2024-05-20T06:30:50Z</time>
      </trkpt>
      <trkpt lat="43.50285" lon="1.2072">
        <ele>228.6</ele>
        <time>2024-05-20T06:30:51Z</time>
      </trkpt>
      <trkpt lat="43.50279" lon="1.20714">
        <ele>228.6</ele>
        <time>2024-05-20T06:30:52Z</time>
      </trkpt>
      <trkpt lat="43.50273" lon="1.20709">
        <ele>228.8</ele>
        <time>2024-05-20T06:30:53Z</time>
      </trkpt>
      <trkpt lat="43.50267" lon="1.20704">
        <ele>228.8</ele>
        <time>2024-05-20T06:30:54Z</time>
      </trkpt>
      <trkpt lat="43.50261" lon="1.20698">
        <ele>228.8</ele>
        <time>2024-05-20T06:30:55Z</time>
      </trkpt>
      <trkpt lat="43.50255" lon="1.20693">
        <ele>228.8</ele>
        <time>2024-05-20T06:30:56Z</time>
      </trkpt>
      <trkpt lat="43.50249" lon="1.20687">
        <ele>229</ele>
        <time>2024-05-20T06:30:57Z</time>
      </trkpt>
      <trkpt lat="43.50243" lon="1.20682">
        <ele>229</ele>
        <time>2024-05-20T06:30:58Z</time>
      </trkpt>
      <trkpt lat="43.50237" lon="1.20676">
        <ele>229</ele>
        <time>2024-05-20T06:30:59Z</time>
      </trkpt>
      <trkpt lat="43.50232" lon="1.20671">
        <ele>229</ele>
        <time>2024-05-20T06:31:00Z</time>
      </trkpt>
      <trkpt lat="43.50226" lon="1.20666">
        <ele>229</ele>
        <time>2024-05-20T06:31:01Z</time>
      </trkpt>
      <trkpt lat="43.50221" lon="1.20661">
        <ele>229</ele>
        <time>2024-05-20T06:31:02Z</time>
      </trkpt>
      <trkpt lat="43.50215" lon="1.20656">
        <ele>229</ele>
        <time>2024-05-20T06:31:03Z</time>
      </trkpt>
      <trkpt lat="43.50209" lon="1.2065">
        <ele>229</ele>
        <time>2024-05-20T06:31:04Z</time>
      </trkpt>
      <trkpt lat="43.50203" lon="1.20645">
        <ele>229</ele>
        <time>2024-05-20T06:31:05Z</time>
      </trkpt>
      <trkpt lat="43.50197" lon="1.20639">
        <ele>228.6</ele>
        <time>2024-05-20T06:31:06Z</time>
      </trkpt>
      <trkpt lat="43.50191" lon="1.20633">
        <ele>228.6</ele>
        <time>2024-05-20T06:31:07Z</time>
      </trkpt>
      <trkpt lat="43.50184" lon="1.20627">
        <ele>228.6</ele>
        <time>2024-05-20T06:31:08Z</time>
      </trkpt>
      <trkpt lat="43.50178" lon="1.20621">
        <ele>228.6</ele>
        <time>2024-05-20T06:31:09Z</time>
      </trkpt>
      <trkpt lat="43.50171" lon="1.20615">
        <ele>228.6</ele>
        <time>2024-05-20T06:31:10Z</time>
      </trkpt>
      <trkpt lat="43.50165" lon="1.20609">
        <ele>228.6</ele>
        <time>2024-05-20T06:31:11Z</time>
      </trkpt>
      <trkpt lat="43.50158" lon="1.20603">
        <ele>228.6</ele>
        <time>2024-05-20T06:31:12Z</time>
      </trkpt>
      <trkpt lat="43.50152" lon="1.20597">
        <ele>228.4</ele>
        <time>2024-05-20T06:31:13Z</time>
      </trkpt>
      <trkpt lat="43.50146" lon="1.20591">
        <ele>228.4</ele>
        <time>2024-05-20T06:31:14Z</time>
      </trkpt>
      <trkpt lat="43.50139" lon="1.20585">
        <ele>228.4</ele>
        <time>2024-05-20T06:31:15Z</time>
      </trkpt>
      <trkpt lat="43.50133" lon="1.20579">
        <ele>228.2</ele>
        <time>2024-05-20T06:31:16Z</time>
      </trkpt>
      <trkpt lat="43.50127" lon="1.20573">
        <ele>228.2</ele>
        <time>2024-05-20T06:31:17Z</time>
      </trkpt>
      <trkpt lat="43.5012" lon="1.20567">
        <ele>228.2</ele>
        <time>2024-05-20T06:31:18Z</time>
      </trkpt>
      <trkpt lat="43.50114" lon="1.20561">
        <ele>228.2</ele>
        <time>2024-05-20T06:31:19Z</time>
      </trkpt>
      <trkpt lat="43.50108" lon="1.20555">
        <ele>228.2</ele>
        <time>2024-05-20T06:31:20Z</time>
      </trkpt>
      <trkpt lat="43.50102" lon="1.20549">
        <ele>228.2</ele>
        <time>2024-05-20T06:31:21Z</time>
      </trkpt>
      <trkpt lat="43.50096" lon="1.20543">
        <ele>228.2</ele>
        <time>2024-05-20T06:31:22Z</time>
      </trkpt>
      <trkpt lat="43.5009" lon="1.20537">
        <ele>228.2</ele>
        <time>2024-05-20T06:31:23Z</time>
      </trkpt>
      <trkpt lat="43.50084" lon="1.20531">
        <ele>228.4</ele>
        <time>2024-05-20T06:31:24Z</time>
      </trkpt>
      <trkpt lat="43.50078" lon="1.20525">
        <ele>228.4</ele>
        <time>2024-05-20T06:31:25Z</time>
      </trkpt>
      <trkpt lat="43.50072" lon="1.2052">
        <ele>228.4</ele>
        <time>2024-05-20T06:31:26Z</time>
      </trkpt>
      <trkpt lat="43.50066" lon="1.20514">
        <ele>228.4</ele>
        <time>2024-05-20T06:31:27Z</time>
      </trkpt>
      <trkpt lat="43.5006" lon="1.20508">
        <ele>228.4</ele>
        <time>2024-05-20T06:31:28Z</time>
      </trkpt>
      <trkpt lat="43.50054" lon="1.20502">
        <ele>228.4</ele>
        <time>2024-05-20T06:31:29Z</time>
      </trkpt>
      <trkpt lat="43.50048" lon="1.20496">
        <ele>228.4</ele>
        <time>2024-05-20T06:31:30Z</time>
      </trkpt>
      <trkpt lat="43.50041" lon="1.2049">
        <ele>228.4</ele>
        <time>2024-05-20T06:31:31Z</time>
      </trkpt>
      <trkpt lat="43.50035" lon="1.20484">
        <ele>228.6</ele>
        <time>2024-05-20T06:31:32Z</time>
      </trkpt>
      <trkpt lat="43.50029" lon="1.20478">
        <ele>228.6</ele>
        <time>2024-05-20T06:31:33Z</time>
      </trkpt>
      <trkpt lat="43.50022" lon="1.20472">
        <ele>228.6</ele>
        <time>2024-05-20T06:31:34Z</time>
      </trkpt>
      <trkpt lat="43.50016" lon="1.20466">
        <ele>228.6</ele>
        <time>2024-05-20T06:31:35Z</time>
      </trkpt>
      <trkpt lat="43.5001" lon="1.2046">
        <ele>228.6</ele>
        <time>2024-05-20T06:31:36Z</time>
      </trkpt>
      <trkpt lat="43.50004" lon="1.20454">
        <ele>228.6</ele>
        <time>2024-05-20T06:31:37Z</time>
      </trkpt>
      <trkpt lat="43.49998" lon="1.20447">
        <ele>228.6</ele>
        <time>2024-05-20T06:31:38Z</time>
      </trkpt>
      <trkpt lat="43.49991" lon="1.20441">
        <ele>228.6</ele>
        <time>2024-05-20T06:31:39Z</time>
      </trkpt>
      <trkpt lat="43.49985" lon="1.20435">
        <ele>228.8</ele>
        <time>2024-05-20T06:31:40Z</time>
      </trkpt>
      <trkpt lat="43.49978" lon="1.20429">
        <ele>228.8</ele>
        <time>2024-05-20T06:31:41Z</time>
      </trkpt>
      <trkpt lat="43.49971" lon="1.20423">
        <ele>228.8</ele>
        <time>2024-05-20T06:31:42Z</time>
      </trkpt>
      <trkpt lat="43.49964" lon="1.20416">
        <ele>229</ele>
        <time>2024-05-20T06:31:43Z</time>
      </trkpt>
      <trkpt lat="43.49958" lon="1.2041">
        <ele>229</ele>
        <time>2024-05-20T06:31:44Z</time>
      </trkpt>
      <trkpt lat="43.49951" lon="1.20404">
        <ele>229</ele>
        <time>2024-05-20T06:31:45Z</time>
      </trkpt>
      <trkpt lat="43.49945" lon="1.20398">
        <ele>229</ele>
        <time>2024-05-20T06:31:46Z</time>
      </trkpt>
      <trkpt lat="43.49938" lon="1.20392">
        <ele>229</ele>
        <time>2024-05-20T06:31:47Z</time>
      </trkpt>
      <trkpt lat="43.49932" lon="1.20386">
        <ele>229</ele>
        <time>2024-05-20T06:31:48Z</time>
      </trkpt>
      <trkpt lat="43.49925" lon="1.20379">
        <ele>229.2</ele>
        <time>2024-05-20T06:31:49Z</time>
      </trkpt>
      <trkpt lat="43.49919" lon="1.20373">
        <ele>229.2</ele>
        <time>2024-05-20T06:31:50Z</time>
      </trkpt>
      <trkpt lat="43.49913" lon="1.20367">
        <ele>229.2</ele>
        <time>2024-05-20T06:31:51Z</time>
      </trkpt>
      <trkpt lat="43.49906" lon="1.20361">
        <ele>229.4</ele>
        <time>2024-05-20T06:31:52Z</time>
      </trkpt>
      <trkpt lat="43.49899" lon="1.20354">
        <ele>229.2</ele>
        <time>2024-05-20T06:31:53Z</time>
      </trkpt>
      <trkpt lat="43.49893" lon="1.20348">
        <ele>229.2</ele>
        <time>2024-05-20T06:31:54Z</time>
      </trkpt>
      <trkpt lat="43.49886" lon="1.20341">
        <ele>229.4</ele>
        <time>2024-05-20T06:31:55Z</time>
      </trkpt>
      <trkpt lat="43.49879" lon="1.20335">
        <ele>229.4</ele>
        <time>2024-05-20T06:31:56Z</time>
      </trkpt>
      <trkpt lat="43.49872" lon="1.20328">
        <ele>229.6</ele>
        <time>2024-05-20T06:31:57Z</time>
      </trkpt>
      <trkpt lat="43.49866" lon="1.20322">
        <ele>229.6</ele>
        <time>2024-05-20T06:31:58Z</time>
      </trkpt>
      <trkpt lat="43.49859" lon="1.20316">
        <ele>229.8</ele>
        <time>2024-05-20T06:31:59Z</time>
      </trkpt>
      <trkpt lat="43.49852" lon="1.20309">
        <ele>229.8</ele>
        <time>2024-05-20T06:32:00Z</time>
      </trkpt>
      <trkpt lat="43.49845" lon="1.20303">
        <ele>230</ele>
        <time>2024-05-20T06:32:01Z</time>
      </trkpt>
      <trkpt lat="43.49837" lon="1.20297">
        <ele>230</ele>
        <time>2024-05-20T06:32:02Z</time>
      </trkpt>
      <trkpt lat="43.49831" lon="1.20291">
        <ele>230.2</ele>
        <time>2024-05-20T06:32:03Z</time>
      </trkpt>
      <trkpt lat="43.49824" lon="1.20286">
        <ele>230.2</ele>
        <time>2024-05-20T06:32:04Z</time>
      </trkpt>
      <trkpt lat="43.49817" lon="1.2028">
        <ele>230.2</ele>
        <time>2024-05-20T06:32:05Z</time>
      </trkpt>
      <trkpt lat="43.4981" lon="1.20276">
        <ele>230.2</ele>
        <time>2024-05-20T06:32:06Z</time>
      </trkpt>
      <trkpt lat="43.49803" lon="1.20272">
        <ele>230.2</ele>
        <time>2024-05-20T06:32:07Z</time>
      </trkpt>
      <trkpt lat="43.49796" lon="1.20268">
        <ele>230.2</ele>
        <time>2024-05-20T06:32:08Z</time>
      </trkpt>
      <trkpt lat="43.49789" lon="1.20265">
        <ele>230.4</ele>
        <time>2024-05-20T06:32:09Z</time>
      </trkpt>
      <trkpt lat="43.49782" lon="1.20262">
        <ele>230.4</ele>
        <time>2024-05-20T06:32:10Z</time>
      </trkpt>
      <trkpt lat="43.49775" lon="1.20259">
        <ele>230.4</ele>
        <time>2024-05-20T06:32:11Z</time>
      </trkpt>
      <trkpt lat="43.49768" lon="1.20257">
        <ele>230.4</ele>
        <time>2024-05-20T06:32:12Z</time>
      </trkpt>
      <trkpt lat="43.49761" lon="1.20254">
        <ele>230.4</ele>
        <time>2024-05-20T06:32:13Z</time>
      </trkpt>
      <trkpt lat="43.49754" lon="1.20251">
        <ele>230.4</ele>
        <time>2024-05-20T06:32:14Z</time>
      </trkpt>
      <trkpt lat="43.49747" lon="1.20249">
        <ele>230.6</ele>
        <time>2024-05-20T06:32:15Z</time>
      </trkpt>
      <trkpt lat="43.49739" lon="1.20246">
        <ele>230.6</ele>
        <time>2024-05-20T06:32:16Z</time>
      </trkpt>
      <trkpt lat="43.49732" lon="1.20243">
        <ele>230.6</ele>
        <time>2024-05-20T06:32:17Z</time>
      </trkpt>
      <trkpt lat="43.49725" lon="1.2024">
        <ele>230.8</ele>
        <time>2024-05-20T06:32:18Z</time>
      </trkpt>
      <trkpt lat="43.49718" lon="1.20237">
        <ele>230.8</ele>
        <time>2024-05-20T06:32:19Z</time>
      </trkpt>
      <trkpt lat="43.49711" lon="1.20233">
        <ele>230.8</ele>
        <time>2024-05-20T06:32:20Z</time>
      </trkpt>
      <trkpt lat="43.49704" lon="1.2023">
        <ele>230.8</ele>
        <time>2024-05-20T06:32:21Z</time>
      </trkpt>
      <trkpt lat="43.49697" lon="1.20225">
        <ele>230.8</ele>
        <time>2024-05-20T06:32:22Z</time>
      </trkpt>
      <trkpt lat="43.49691" lon="1.20221">
        <ele>230.8</ele>
        <time>2024-05-20T06:32:23Z</time>
      </trkpt>
      <trkpt lat="43.49684" lon="1.20216">
        <ele>230.8</ele>
        <time>2024-05-20T06:32:24Z</time>
      </trkpt>
      <trkpt lat="43.49677" lon="1.20212">
        <ele>231</ele>
        <time>2024-05-20T06:32:25Z</time>
      </trkpt>
      <trkpt lat="43.49671" lon="1.20207">
        <ele>231</ele>
        <time>2024-05-20T06:32:26Z</time>
      </trkpt>
      <trkpt lat="43.49665" lon="1.20202">
        <ele>231</ele>
        <time>2024-05-20T06:32:27Z</time>
      </trkpt>
      <trkpt lat="43.49658" lon="1.20198">
        <ele>231</ele>
        <time>2024-05-20T06:32:28Z</time>
      </trkpt>
      <trkpt lat="43.49652" lon="1.20193">
        <ele>231</ele>
        <time>2024-05-20T06:32:29Z</time>
      </trkpt>
      <trkpt lat="43.49645" lon="1.20188">
        <ele>231</ele>
        <time>2024-05-20T06:32:30Z</time>
      </trkpt>
      <trkpt lat="43.49639" lon="1.20184">
        <ele>231</ele>
        <time>2024-05-20T06:32:31Z</time>
      </trkpt>
      <trkpt lat="43.49633" lon="1.20179">
        <ele>231</ele>
        <time>2024-05-20T06:32:32Z</time>
      </trkpt>
      <trkpt lat="43.49626" lon="1.20174">
        <ele>231</ele>
        <time>2024-05-20T06:32:33Z</time>
      </trkpt>
      <trkpt lat="43.4962" lon="1.20169">
        <ele>231</ele>
        <time>2024-05-20T06:32:34Z</time>
      </trkpt>
      <trkpt lat="43.49613" lon="1.20165">
        <ele>231</ele>
        <time>2024-05-20T06:32:35Z</time>
      </trkpt>
      <trkpt lat="43.49607" lon="1.2016">
        <ele>231</ele>
        <time>2024-05-20T06:32:36Z</time>
      </trkpt>
      <trkpt lat="43.49601" lon="1.20155">
        <ele>231</ele>
        <time>2024-05-20T06:32:37Z</time>
      </trkpt>
      <trkpt lat="43.49595" lon="1.20151">
        <ele>231</ele>
        <time>2024-05-20T06:32:38Z</time>
      </trkpt>
      <trkpt lat="43.49589" lon="1.20146">
        <ele>231</ele>
        <time>2024-05-20T06:32:39Z</time>
      </trkpt>
      <trkpt lat="43.49583" lon="1.20141">
        <ele>231</ele>
        <time>2024-05-20T06:32:40Z</time>
      </trkpt>
      <trkpt lat="43.49577" lon="1.20137">
        <ele>231</ele>
        <time>2024-05-20T06:32:41Z</time>
      </trkpt>
      <trkpt lat="43.49571" lon="1.20132">
        <ele>231</ele>
        <time>2024-05-20T06:32:42Z</time>
      </trkpt>
      <trkpt lat="43.49565" lon="1.20128">
        <ele>231.2</ele>
        <time>2024-05-20T06:32:43Z</time>
      </trkpt>
      <trkpt lat="43.4956" lon="1.20123">
        <ele>231.2</ele>
        <time>2024-05-20T06:32:44Z</time>
      </trkpt>
      <trkpt lat="43.49554" lon="1.20119">
        <ele>231.2</ele>
        <time>2024-05-20T06:32:45Z</time>
      </trkpt>
      <trkpt lat="43.49549" lon="1.20115">
        <ele>231.2</ele>
        <time>2024-05-20T06:32:46Z</time>
      </trkpt>
      <trkpt lat="43.49544" lon="1.20111">
        <ele>231.2</ele>
        <time>2024-05-20T06:32:47Z</time>
      </trkpt>
      <trkpt lat="43.49539" lon="1.20107">
        <ele>231.2</ele>
        <time>2024-05-20T06:32:48Z</time>
      </trkpt>
      <trkpt lat="43.49535" lon="1.20104">
        <ele>231.2</ele>
        <time>2024-05-20T06:32:49Z</time>
      </trkpt>
      <trkpt lat="43.49532" lon="1.20101">
        <ele>231.2</ele>
        <time>2024-05-20T06:32:50Z</time>
      </trkpt>
      <trkpt lat="43.49528" lon="1.20097">
        <ele>231.4</ele>
        <time>2024-05-20T06:32:51Z</time>
      </trkpt>
      <trkpt lat="43.49524" lon="1.20094">
        <ele>231.4</ele>
        <time>2024-05-20T06:32:52Z</time>
      </trkpt>
      <trkpt lat="43.49521" lon="1.20092">
        <ele>231.4</ele>
        <time>2024-05-20T06:32:53Z</time>
      </trkpt>
      <trkpt lat="43.49518" lon="1.2009">
        <ele>231.4</ele>
        <time>2024-05-20T06:32:54Z</time>
      </trkpt>
      <trkpt lat="43.49516" lon="1.20088">
        <ele>231.4</ele>
        <time>2024-05-20T06:32:55Z</time>
      </trkpt>
      <trkpt lat="43.49514" lon="1.20085">
        <ele>231.6</ele>
        <time>2024-05-20T06:32:56Z</time>
      </trkpt>
      <trkpt lat="43.49512" lon="1.20083">
        <ele>231.6</ele>
        <time>2024-05-20T06:32:57Z</time>
      </trkpt>
      <trkpt lat="43.49511" lon="1.20081">
        <ele>231.8</ele>
        <time>2024-05-20T06:32:58Z</time>
      </trkpt>
      <trkpt lat="43.49509" lon="1.20079">
        <ele>231.8</ele>
        <time>2024-05-20T06:32:59Z</time>
      </trkpt>
      <trkpt lat="43.49506" lon="1.20078">
        <ele>231.8</ele>
        <time>2024-05-20T06:33:00Z</time>
      </trkpt>
      <trkpt lat="43.49503" lon="1.20077">
        <ele>231.8</ele>
        <time>2024-05-20T06:33:01Z</time>
      </trkpt>
      <trkpt lat="43.495" lon="1.20077">
        <ele>232</ele>
        <time>2024-05-20T06:33:02Z</time>
      </trkpt>
      <trkpt lat="43.49497" lon="1.20078">
        <ele>232</ele>
        <time>2024-05-20T06:33:03Z</time>
      </trkpt>
      <trkpt lat="43.49493" lon="1.2008">
        <ele>232</ele>
        <time>2024-05-20T06:33:04Z</time>
      </trkpt>
      <trkpt lat="43.49489" lon="1.20083">
        <ele>232</ele>
        <time>2024-05-20T06:33:05Z</time>
      </trkpt>
      <trkpt lat="43.49486" lon="1.20085">
        <ele>232</ele>
        <time>2024-05-20T06:33:06Z</time>
      </trkpt>
      <trkpt lat="43.49482" lon="1.20088">
        <ele>232</ele>
        <time>2024-05-20T06:33:07Z</time>
      </trkpt>
      <trkpt lat="43.49477" lon="1.20092">
        <ele>231.8</ele>
        <time>2024-05-20T06:33:08Z</time>
      </trkpt>
      <trkpt lat="43.49472" lon="1.20095">
        <ele>231.6</ele>
        <time>2024-05-20T06:33:09Z</time>
      </trkpt>
      <trkpt lat="43.49466" lon="1.20099">
        <ele>231.6</ele>
        <time>2024-05-20T06:33:10Z</time>
      </trkpt>
      <trkpt lat="43.49461" lon="1.20104">
        <ele>231.6</ele>
        <time>2024-05-20T06:33:11Z</time>
      </trkpt>
      <trkpt lat="43.49456" lon="1.20108">
        <ele>231.6</ele>
        <time>2024-05-20T06:33:12Z</time>
      </trkpt>
      <trkpt lat="43.4945" lon="1.20112">
        <ele>231.6</ele>
        <time>2024-05-20T06:33:13Z</time>
      </trkpt>
      <trkpt lat="43.49445" lon="1.20118">
        <ele>231.6</ele>
        <time>2024-05-20T06:33:14Z</time>
      </trkpt>
      <trkpt lat="43.49439" lon="1.20123">
        <ele>231.4</ele>
        <time>2024-05-20T06:33:15Z</time>
      </trkpt>
      <trkpt lat="43.49434" lon="1.20129">
        <ele>231.4</ele>
        <time>2024-05-20T06:33:16Z</time>
      </trkpt>
      <trkpt lat="43.49428" lon="1.20136">
        <ele>231.4</ele>
        <time>2024-05-20T06:33:17Z</time>
      </trkpt>
      <trkpt lat="43.49423" lon="1.20144">
        <ele>231.4</ele>
        <time>2024-05-20T06:33:18Z</time>
      </trkpt>
      <trkpt lat="43.49418" lon="1.20152">
        <ele>231.4</ele>
        <time>2024-05-20T06:33:19Z</time>
      </trkpt>
      <trkpt lat="43.49414" lon="1.2016">
        <ele>231.4</ele>
        <time>2024-05-20T06:33:20Z</time>
      </trkpt>
      <trkpt lat="43.49409" lon="1.20169">
        <ele>231.4</ele>
        <time>2024-05-20T06:33:21Z</time>
      </trkpt>
      <trkpt lat="43.49404" lon="1.20178">
        <ele>231.4</ele>
        <time>2024-05-20T06:33:22Z</time>
      </trkpt>
      <trkpt lat="43.494" lon="1.20187">
        <ele>231.4</ele>
        <time>2024-05-20T06:33:23Z</time>
      </trkpt>
      <trkpt lat="43.49395" lon="1.20197">
        <ele>231.2</ele>
        <time>2024-05-20T06:33:24Z</time>
      </trkpt>
      <trkpt lat="43.49391" lon="1.20207">
        <ele>231.2</ele>
        <time>2024-05-20T06:33:25Z</time>
      </trkpt>
      <trkpt lat="43.49387" lon="1.20217">
        <ele>231</ele>
        <time>2024-05-20T06:33:26Z</time>
      </trkpt>
      <trkpt lat="43.49383" lon="1.20227">
        <ele>231</ele>
        <time>2024-05-20T06:33:27Z</time>
      </trkpt>
      <trkpt lat="43.49379" lon="1.20237">
        <ele>231</ele>
        <time>2024-05-20T06:33:28Z</time>
      </trkpt>
      <trkpt lat="43.49374" lon="1.20248">
        <ele>231</ele>
        <time>2024-05-20T06:33:29Z</time>
      </trkpt>
      <trkpt lat="43.4937" lon="1.2026">
        <ele>231</ele>
        <time>2024-05-20T06:33:30Z</time>
      </trkpt>
      <trkpt lat="43.49366" lon="1.20271">
        <ele>231</ele>
        <time>2024-05-20T06:33:31Z</time>
      </trkpt>
      <trkpt lat="43.49362" lon="1.20282">
        <ele>231</ele>
        <time>2024-05-20T06:33:32Z</time>
      </trkpt>
      <trkpt lat="43.49358" lon="1.20292">
        <ele>231</ele>
        <time>2024-05-20T06:33:33Z</time>
      </trkpt>
      <trkpt lat="43.49354" lon="1.20303">
        <ele>230.8</ele>
        <time>2024-05-20T06:33:34Z</time>
      </trkpt>
      <trkpt lat="43.4935" lon="1.20313">
        <ele>230.8</ele>
        <time>2024-05-20T06:33:35Z</time>
      </trkpt>
      <trkpt lat="43.49346" lon="1.20324">
        <ele>230.8</ele>
        <time>2024-05-20T06:33:36Z</time>
      </trkpt>
      <trkpt lat="43.49342" lon="1.20334">
        <ele>230.8</ele>
        <time>2024-05-20T06:33:37Z</time>
      </trkpt>
      <trkpt lat="43.49338" lon="1.20345">
        <ele>230.6</ele>
        <time>2024-05-20T06:33:38Z</time>
      </trkpt>
      <trkpt lat="43.49334" lon="1.20356">
        <ele>230.6</ele>
        <time>2024-05-20T06:33:39Z</time>
      </trkpt>
      <trkpt lat="43.4933" lon="1.20367">
        <ele>230.6</ele>
        <time>2024-05-20T06:33:40Z</time>
      </trkpt>
      <trkpt lat="43.49326" lon="1.20378">
        <ele>230.6</ele>
        <time>2024-05-20T06:33:41Z</time>
      </trkpt>
      <trkpt lat="43.49322" lon="1.20388">
        <ele>230.6</ele>
        <time>2024-05-20T06:33:42Z</time>
      </trkpt>
      <trkpt lat="43.49318" lon="1.20399">
        <ele>230.6</ele>
        <time>2024-05-20T06:33:43Z</time>
      </trkpt>
      <trkpt lat="43.49314" lon="1.2041">
        <ele>230.6</ele>
        <time>2024-05-20T06:33:44Z</time>
      </trkpt>
      <trkpt lat="43.4931" lon="1.20422">
        <ele>230.6</ele>
        <time>2024-05-20T06:33:45Z</time>
      </trkpt>
      <trkpt lat="43.49306" lon="1.20433">
        <ele>230.4</ele>
        <time>2024-05-20T06:33:46Z</time>
      </trkpt>
      <trkpt lat="43.49302" lon="1.20445">
        <ele>230.4</ele>
        <time>2024-05-20T06:33:47Z</time>
      </trkpt>
      <trkpt lat="43.49299" lon="1.20457">
        <ele>230.2</ele>
        <time>2024-05-20T06:33:48Z</time>
      </trkpt>
      <trkpt lat="43.49295" lon="1.20469">
        <ele>230.2</ele>
        <time>2024-05-20T06:33:49Z</time>
      </trkpt>
      <trkpt lat="43.49292" lon="1.2048">
        <ele>230.2</ele>
        <time>2024-05-20T06:33:50Z</time>
      </trkpt>
      <trkpt lat="43.49289" lon="1.20493">
        <ele>230</ele>
        <time>2024-05-20T06:33:51Z</time>
      </trkpt>
      <trkpt lat="43.49287" lon="1.20505">
        <ele>230</ele>
        <time>2024-05-20T06:33:52Z</time>
      </trkpt>
      <trkpt lat="43.49284" lon="1.20517">
        <ele>229.8</ele>
        <time>2024-05-20T06:33:53Z</time>
      </trkpt>
      <trkpt lat="43.49281" lon="1.20529">
        <ele>229.8</ele>
        <time>2024-05-20T06:33:54Z</time>
      </trkpt>
      <trkpt lat="43.49278" lon="1.20542">
        <ele>229.6</ele>
        <time>2024-05-20T06:33:55Z</time>
      </trkpt>
      <trkpt lat="43.49275" lon="1.20554">
        <ele>229.6</ele>
        <time>2024-05-20T06:33:56Z</time>
      </trkpt>
      <trkpt lat="43.49273" lon="1.20566">
        <ele>229.4</ele>
        <time>2024-05-20T06:33:57Z</time>
      </trkpt>
      <trkpt lat="43.4927" lon="1.20578">
        <ele>229.4</ele>
        <time>2024-05-20T06:33:58Z</time>
      </trkpt>
      <trkpt lat="43.49268" lon="1.20591">
        <ele>229.4</ele>
        <time>2024-05-20T06:33:59Z</time>
      </trkpt>
      <trkpt lat="43.49265" lon="1.20603">
        <ele>229.4</ele>
        <time>2024-05-20T06:34:00Z</time>
      </trkpt>
      <trkpt lat="43.49263" lon="1.20616">
        <ele>229.2</ele>
        <time>2024-05-20T06:34:01Z</time>
      </trkpt>
      <trkpt lat="43.49261" lon="1.20629">
        <ele>228.8</ele>
        <time>2024-05-20T06:34:02Z</time>
      </trkpt>
      <trkpt lat="43.49259" lon="1.20642">
        <ele>228.8</ele>
        <time>2024-05-20T06:34:03Z</time>
      </trkpt>
      <trkpt lat="43.49257" lon="1.20655">
        <ele>228.4</ele>
        <time>2024-05-20T06:34:04Z</time>
      </trkpt>
      <trkpt lat="43.49255" lon="1.20668">
        <ele>228.2</ele>
        <time>2024-05-20T06:34:05Z</time>
      </trkpt>
      <trkpt lat="43.49254" lon="1.20682">
        <ele>227.8</ele>
        <time>2024-05-20T06:34:06Z</time>
      </trkpt>
      <trkpt lat="43.49252" lon="1.20696">
        <ele>227.8</ele>
        <time>2024-05-20T06:34:07Z</time>
      </trkpt>
      <trkpt lat="43.49251" lon="1.2071">
        <ele>227.6</ele>
        <time>2024-05-20T06:34:08Z</time>
      </trkpt>
      <trkpt lat="43.4925" lon="1.20724">
        <ele>227.4</ele>
        <time>2024-05-20T06:34:09Z</time>
      </trkpt>
      <trkpt lat="43.4925" lon="1.20739">
        <ele>227.2</ele>
        <time>2024-05-20T06:34:10Z</time>
      </trkpt>
      <trkpt lat="43.49249" lon="1.20754">
        <ele>226.8</ele>
        <time>2024-05-20T06:34:11Z</time>
      </trkpt>
      <trkpt lat="43.49247" lon="1.20769">
        <ele>226.6</ele>
        <time>2024-05-20T06:34:12Z</time>
      </trkpt>
      <trkpt lat="43.49245" lon="1.20785">
        <ele>226</ele>
        <time>2024-05-20T06:34:13Z</time>
      </trkpt>
      <trkpt lat="43.49243" lon="1.20801">
        <ele>225.6</ele>
        <time>2024-05-20T06:34:14Z</time>
      </trkpt>
      <trkpt lat="43.49241" lon="1.20817">
        <ele>225.2</ele>
        <time>2024-05-20T06:34:15Z</time>
      </trkpt>
      <trkpt lat="43.49237" lon="1.20833">
        <ele>225</ele>
        <time>2024-05-20T06:34:16Z</time>
      </trkpt>
      <trkpt lat="43.49234" lon="1.20849">
        <ele>224.2</ele>
        <time>2024-05-20T06:34:17Z</time>
      </trkpt>
      <trkpt lat="43.49229" lon="1.20865">
        <ele>224</ele>
        <time>2024-05-20T06:34:18Z</time>
      </trkpt>
      <trkpt lat="43.49225" lon="1.20882">
        <ele>223</ele>
        <time>2024-05-20T06:34:19Z</time>
      </trkpt>
      <trkpt lat="43.4922" lon="1.20898">
        <ele>222</ele>
        <time>2024-05-20T06:34:20Z</time>
      </trkpt>
      <trkpt lat="43.49214" lon="1.20914">
        <ele>221.6</ele>
        <time>2024-05-20T06:34:21Z</time>
      </trkpt>
      <trkpt lat="43.49209" lon="1.2093">
        <ele>220.8</ele>
        <time>2024-05-20T06:34:22Z</time>
      </trkpt>
      <trkpt lat="43.49203" lon="1.20946">
        <ele>220</ele>
        <time>2024-05-20T06:34:23Z</time>
      </trkpt>
      <trkpt lat="43.49196" lon="1.20962">
        <ele>218.8</ele>
        <time>2024-05-20T06:34:24Z</time>
      </trkpt>
      <trkpt lat="43.49189" lon="1.20977">
        <ele>218.4</ele>
        <time>2024-05-20T06:34:25Z</time>
      </trkpt>
      <trkpt lat="43.49181" lon="1.20992">
        <ele>217.4</ele>
        <time>2024-05-20T06:34:26Z</time>
      </trkpt>
      <trkpt lat="43.49172" lon="1.21006">
        <ele>216.4</ele>
        <time>2024-05-20T06:34:27Z</time>
      </trkpt>
      <trkpt lat="43.49172" lon="1.21006">
        <ele>215.2</ele>
        <time>2024-05-20T06:34:28Z</time>
      </trkpt>
      <trkpt lat="43.49151" lon="1.21036">
        <ele>214.2</ele>
        <time>2024-05-20T06:34:29Z</time>
      </trkpt>
      <trkpt lat="43.49142" lon="1.21046">
        <ele>213.6</ele>
        <time>2024-05-20T06:34:30Z</time>
      </trkpt>
      <trkpt lat="43.49132" lon="1.21058">
        <ele>212.2</ele>
        <time>2024-05-20T06:34:31Z</time>
      </trkpt>
      <trkpt lat="43.49121" lon="1.21069">
        <ele>211.6</ele>
        <time>2024-05-20T06:34:32Z</time>
      </trkpt>
      <trkpt lat="43.4911" lon="1.2108">
        <ele>210.2</ele>
        <time>2024-05-20T06:34:33Z</time>
      </trkpt>
      <trkpt lat="43.49099" lon="1.21091">
        <ele>209.6</ele>
        <time>2024-05-20T06:34:34Z</time>
      </trkpt>
      <trkpt lat="43.49088" lon="1.21101">
        <ele>208.6</ele>
        <time>2024-05-20T06:34:35Z</time>
      </trkpt>
      <trkpt lat="43.49078" lon="1.21111">
        <ele>208.2</ele>
        <time>2024-05-20T06:34:36Z</time>
      </trkpt>
      <trkpt lat="43.49067" lon="1.21121">
        <ele>207.6</ele>
        <time>2024-05-20T06:34:37Z</time>
      </trkpt>
      <trkpt lat="43.49057" lon="1.2113">
        <ele>207</ele>
        <time>2024-05-20T06:34:38Z</time>
      </trkpt>
      <trkpt lat="43.49047" lon="1.2114">
        <ele>206.8</ele>
        <time>2024-05-20T06:34:39Z</time>
      </trkpt>
      <trkpt lat="43.49036" lon="1.21149">
        <ele>206.4</ele>
        <time>2024-05-20T06:34:40Z</time>
      </trkpt>
      <trkpt lat="43.49026" lon="1.21158">
        <ele>206</ele>
        <time>2024-05-20T06:34:41Z</time>
      </trkpt>
      <trkpt lat="43.49016" lon="1.21167">
        <ele>205.6</ele>
        <time>2024-05-20T06:34:42Z</time>
      </trkpt>
      <trkpt lat="43.49005" lon="1.21175">
        <ele>205.6</ele>
        <time>2024-05-20T06:34:43Z</time>
      </trkpt>
      <trkpt lat="43.48994" lon="1.21183">
        <ele>205.2</ele>
        <time>2024-05-20T06:34:44Z</time>
      </trkpt>
      <trkpt lat="43.48983" lon="1.2119">
        <ele>205.4</ele>
        <time>2024-05-20T06:34:45Z</time>
      </trkpt>
      <trkpt lat="43.48973" lon="1.21196">
        <ele>205.2</ele>
        <time>2024-05-20T06:34:46Z</time>
      </trkpt>
      <trkpt lat="43.48963" lon="1.21202">
        <ele>205.2</ele>
        <time>2024-05-20T06:34:47Z</time>
      </trkpt>
      <trkpt lat="43.48953" lon="1.21208">
        <ele>205</ele>
        <time>2024-05-20T06:34:48Z</time>
      </trkpt>
      <trkpt lat="43.48944" lon="1.21213">
        <ele>204.6</ele>
        <time>2024-05-20T06:34:49Z</time>
      </trkpt>
      <trkpt lat="43.48934" lon="1.21218">
        <ele>204.6</ele>
        <time>2024-05-20T06:34:50Z</time>
      </trkpt>
      <trkpt lat="43.48925" lon="1.21222">
        <ele>204.2</ele>
        <time>2024-05-20T06:34:51Z</time>
      </trkpt>
      <trkpt lat="43.48916" lon="1.21227">
        <ele>204.2</ele>
        <time>2024-05-20T06:34:52Z</time>
      </trkpt>
      <trkpt lat="43.48907" lon="1.21231">
        <ele>204</ele>
        <time>2024-05-20T06:34:53Z</time>
      </trkpt>
      <trkpt lat="43.48896" lon="1.21236">
        <ele>204</ele>
        <time>2024-05-20T06:34:54Z</time>
      </trkpt>
      <trkpt lat="43.48889" lon="1.21238">
        <ele>203.8</ele>
        <time>2024-05-20T06:34:55Z</time>
      </trkpt>
      <trkpt lat="43.48881" lon="1.21242">
        <ele>203.8</ele>
        <time>2024-05-20T06:34:56Z</time>
      </trkpt>
      <trkpt lat="43.48872" lon="1.21246">
        <ele>203.8</ele>
        <time>2024-05-20T06:34:57Z</time>
      </trkpt>
      <trkpt lat="43.48863" lon="1.21249">
        <ele>203.8</ele>
        <time>2024-05-20T06:34:58Z</time>
      </trkpt>
      <trkpt lat="43.48854" lon="1.21253">
        <ele>203.8</ele>
        <time>2024-05-20T06:34:59Z</time>
      </trkpt>
      <trkpt lat="43.48846" lon="1.21257">
        <ele>203.8</ele>
        <time>2024-05-20T06:35:00Z</time>
      </trkpt>
      <trkpt lat="43.48837" lon="1.21261">
        <ele>203.8</ele>
        <time>2024-05-20T06:35:01Z</time>
      </trkpt>
      <trkpt lat="43.48828" lon="1.21266">
        <ele>203.8</ele>
        <time>2024-05-20T06:35:02Z</time>
      </trkpt>
      <trkpt lat="43.4882" lon="1.21271">
        <ele>203.8</ele>
        <time>2024-05-20T06:35:03Z</time>
      </trkpt>
      <trkpt lat="43.48812" lon="1.21277">
        <ele>203.8</ele>
        <time>2024-05-20T06:35:04Z</time>
      </trkpt>
      <trkpt lat="43.48804" lon="1.21283">
        <ele>203.8</ele>
        <time>2024-05-20T06:35:05Z</time>
      </trkpt>
      <trkpt lat="43.48796" lon="1.21289">
        <ele>203.8</ele>
        <time>2024-05-20T06:35:06Z</time>
      </trkpt>
      <trkpt lat="43.48788" lon="1.21296">
        <ele>204</ele>
        <time>2024-05-20T06:35:07Z</time>
      </trkpt>
      <trkpt lat="43.4878" lon="1.21302">
        <ele>204</ele>
        <time>2024-05-20T06:35:08Z</time>
      </trkpt>
      <trkpt lat="43.48771" lon="1.21309">
        <ele>203.8</ele>
        <time>2024-05-20T06:35:09Z</time>
      </trkpt>
      <trkpt lat="43.48763" lon="1.21315">
        <ele>203.8</ele>
        <time>2024-05-20T06:35:10Z</time>
      </trkpt>
      <trkpt lat="43.48755" lon="1.21321">
        <ele>203.8</ele>
        <time>2024-05-20T06:35:11Z</time>
      </trkpt>
      <trkpt lat="43.48748" lon="1.21327">
        <ele>203.8</ele>
        <time>2024-05-20T06:35:12Z</time>
      </trkpt>
      <trkpt lat="43.4874" lon="1.21334">
        <ele>203.8</ele>
        <time>2024-05-20T06:35:13Z</time>
      </trkpt>
      <trkpt lat="43.48732" lon="1.2134">
        <ele>203.8</ele>
        <time>2024-05-20T06:35:14Z</time>
      </trkpt>
      <trkpt lat="43.48724" lon="1.21347">
        <ele>203.8</ele>
        <time>2024-05-20T06:35:15Z</time>
      </trkpt>
      <trkpt lat="43.48715" lon="1.21354">
        <ele>203.8</ele>
        <time>2024-05-20T06:35:16Z</time>
      </trkpt>
      <trkpt lat="43.48707" lon="1.21361">
        <ele>203.8</ele>
        <time>2024-05-20T06:35:17Z</time>
      </trkpt>
      <trkpt lat="43.48698" lon="1.21368">
        <ele>203.8</ele>
        <time>2024-05-20T06:35:18Z</time>
      </trkpt>
      <trkpt lat="43.4869" lon="1.21374">
        <ele>203.8</ele>
        <time>2024-05-20T06:35:19Z</time>
      </trkpt>
      <trkpt lat="43.48682" lon="1.21381">
        <ele>203.8</ele>
        <time>2024-05-20T06:35:20Z</time>
      </trkpt>
      <trkpt lat="43.48674" lon="1.21388">
        <ele>203.8</ele>
        <time>2024-05-20T06:35:21Z</time>
      </trkpt>
      <trkpt lat="43.48666" lon="1.21396">
        <ele>203.6</ele>
        <time>2024-05-20T06:35:22Z</time>
      </trkpt>
      <trkpt lat="43.48659" lon="1.21404">
        <ele>203.6</ele>
        <time>2024-05-20T06:35:23Z</time>
      </trkpt>
      <trkpt lat="43.48651" lon="1.21413">
        <ele>203.8</ele>
        <time>2024-05-20T06:35:24Z</time>
      </trkpt>
      <trkpt lat="43.48644" lon="1.21422">
        <ele>203.8</ele>
        <time>2024-05-20T06:35:25Z</time>
      </trkpt>
      <trkpt lat="43.48638" lon="1.21432">
        <ele>203.8</ele>
        <time>2024-05-20T06:35:26Z</time>
      </trkpt>
      <trkpt lat="43.48632" lon="1.21443">
        <ele>203.8</ele>
        <time>2024-05-20T06:35:27Z</time>
      </trkpt>
      <trkpt lat="43.48626" lon="1.21454">
        <ele>203.8</ele>
        <time>2024-05-20T06:35:28Z</time>
      </trkpt>
      <trkpt lat="43.48621" lon="1.21465">
        <ele>203.8</ele>
        <time>2024-05-20T06:35:29Z</time>
      </trkpt>
      <trkpt lat="43.48615" lon="1.21476">
        <ele>203.8</ele>
        <time>2024-05-20T06:35:30Z</time>
      </trkpt>
      <trkpt lat="43.4861" lon="1.21487">
        <ele>203.8</ele>
        <time>2024-05-20T06:35:31Z</time>
      </trkpt>
      <trkpt lat="43.48604" lon="1.21499">
        <ele>203.6</ele>
        <time>2024-05-20T06:35:32Z</time>
      </trkpt>
      <trkpt lat="43.48599" lon="1.2151">
        <ele>203.6</ele>
        <time>2024-05-20T06:35:33Z</time>
      </trkpt>
      <trkpt lat="43.48594" lon="1.21521">
        <ele>203.6</ele>
        <time>2024-05-20T06:35:34Z</time>
      </trkpt>
      <trkpt lat="43.48589" lon="1.21532">
        <ele>203.6</ele>
        <time>2024-05-20T06:35:35Z</time>
      </trkpt>
      <trkpt lat="43.48583" lon="1.21543">
        <ele>203.4</ele>
        <time>2024-05-20T06:35:36Z</time>
      </trkpt>
      <trkpt lat="43.48578" lon="1.21554">
        <ele>203.4</ele>
        <time>2024-05-20T06:35:37Z</time>
      </trkpt>
      <trkpt lat="43.48572" lon="1.21566">
        <ele>203.4</ele>
        <time>2024-05-20T06:35:38Z</time>
      </trkpt>
      <trkpt lat="43.48567" lon="1.21577">
        <ele>203.4</ele>
        <time>2024-05-20T06:35:39Z</time>
      </trkpt>
      <trkpt lat="43.48561" lon="1.21587">
        <ele>203.2</ele>
        <time>2024-05-20T06:35:40Z</time>
      </trkpt>
      <trkpt lat="43.48555" lon="1.21598">
        <ele>203.2</ele>
        <time>2024-05-20T06:35:41Z</time>
      </trkpt>
      <trkpt lat="43.48548" lon="1.21608">
        <ele>203.2</ele>
        <time>2024-05-20T06:35:42Z</time>
      </trkpt>
      <trkpt lat="43.48541" lon="1.21618">
        <ele>203</ele>
        <time>2024-05-20T06:35:43Z</time>
      </trkpt>
      <trkpt lat="43.48533" lon="1.21627">
        <ele>202.8</ele>
        <time>2024-05-20T06:35:44Z</time>
      </trkpt>
      <trkpt lat="43.48524" lon="1.21637">
        <ele>202.8</ele>
        <time>2024-05-20T06:35:45Z</time>
      </trkpt>
      <trkpt lat="43.48517" lon="1.21644">
        <ele>202.6</ele>
        <time>2024-05-20T06:35:46Z</time>
      </trkpt>
      <trkpt lat="43.48509" lon="1.21651">
        <ele>202.6</ele>
        <time>2024-05-20T06:35:47Z</time>
      </trkpt>
      <trkpt lat="43.485" lon="1.21658">
        <ele>202.6</ele>
        <time>2024-05-20T06:35:48Z</time>
      </trkpt>
      <trkpt lat="43.48491" lon="1.21663">
        <ele>202.4</ele>
        <time>2024-05-20T06:35:49Z</time>
      </trkpt>
      <trkpt lat="43.48482" lon="1.21668">
        <ele>202.4</ele>
        <time>2024-05-20T06:35:50Z</time>
      </trkpt>
      <trkpt lat="43.48473" lon="1.21672">
        <ele>202.4</ele>
        <time>2024-05-20T06:35:51Z</time>
      </trkpt>
      <trkpt lat="43.48464" lon="1.21676">
        <ele>202.4</ele>
        <time>2024-05-20T06:35:52Z</time>
      </trkpt>
      <trkpt lat="43.48454" lon="1.21679">
        <ele>202.2</ele>
        <time>2024-05-20T06:35:53Z</time>
      </trkpt>
      <trkpt lat="43.48445" lon="1.21681">
        <ele>202.2</ele>
        <time>2024-05-20T06:35:54Z</time>
      </trkpt>
      <trkpt lat="43.48436" lon="1.21683">
        <ele>202.2</ele>
        <time>2024-05-20T06:35:55Z</time>
      </trkpt>
      <trkpt lat="43.48426" lon="1.21684">
        <ele>202.2</ele>
        <time>2024-05-20T06:35:56Z</time>
      </trkpt>
      <trkpt lat="43.48417" lon="1.21684">
        <ele>202.2</ele>
        <time>2024-05-20T06:35:57Z</time>
      </trkpt>
      <trkpt lat="43.4841" lon="1.21684">
        <ele>202.2</ele>
        <time>2024-05-20T06:35:58Z</time>
      </trkpt>
      <trkpt lat="43.48399" lon="1.21684">
        <ele>202.2</ele>
        <time>2024-05-20T06:35:59Z</time>
      </trkpt>
      <trkpt lat="43.4839" lon="1.21683">
        <ele>202.4</ele>
        <time>2024-05-20T06:36:00Z</time>
      </trkpt>
      <trkpt lat="43.48381" lon="1.21683">
        <ele>202.4</ele>
        <time>2024-05-20T06:36:01Z</time>
      </trkpt>
      <trkpt lat="43.48372" lon="1.21682">
        <ele>202.4</ele>
        <time>2024-05-20T06:36:02Z</time>
      </trkpt>
      <trkpt lat="43.48363" lon="1.21682">
        <ele>202.4</ele>
        <time>2024-05-20T06:36:03Z</time>
      </trkpt>
      <trkpt lat="43.48354" lon="1.21681">
        <ele>202.6</ele>
        <time>2024-05-20T06:36:04Z</time>
      </trkpt>
      <trkpt lat="43.48345" lon="1.21681">
        <ele>202.6</ele>
        <time>2024-05-20T06:36:05Z</time>
      </trkpt>
      <trkpt lat="43.48336" lon="1.21681">
        <ele>202.6</ele>
        <time>2024-05-20T06:36:06Z</time>
      </trkpt>
      <trkpt lat="43.48328" lon="1.2168">
        <ele>202.6</ele>
        <time>2024-05-20T06:36:07Z</time>
      </trkpt>
      <trkpt lat="43.48319" lon="1.2168">
        <ele>202.8</ele>
        <time>2024-05-20T06:36:08Z</time>
      </trkpt>
      <trkpt lat="43.4831" lon="1.21679">
        <ele>202.8</ele>
        <time>2024-05-20T06:36:09Z</time>
      </trkpt>
      <trkpt lat="43.48301" lon="1.21678">
        <ele>202.8</ele>
        <time>2024-05-20T06:36:10Z</time>
      </trkpt>
      <trkpt lat="43.48293" lon="1.21678">
        <ele>202.8</ele>
        <time>2024-05-20T06:36:11Z</time>
      </trkpt>
      <trkpt lat="43.48284" lon="1.21677">
        <ele>202.8</ele>
        <time>2024-05-20T06:36:12Z</time>
      </trkpt>
      <trkpt lat="43.48276" lon="1.21676">
        <ele>202.8</ele>
        <time>2024-05-20T06:36:13Z</time>
      </trkpt>
      <trkpt lat="43.48267" lon="1.21675">
        <ele>202.8</ele>
        <time>2024-05-20T06:36:14Z</time>
      </trkpt>
      <trkpt lat="43.48259" lon="1.21674">
        <ele>203</ele>
        <time>2024-05-20T06:36:15Z</time>
      </trkpt>
      <trkpt lat="43.4825" lon="1.21672">
        <ele>203</ele>
        <time>2024-05-20T06:36:16Z</time>
      </trkpt>
      <trkpt lat="43.48241" lon="1.21671">
        <ele>203</ele>
        <time>2024-05-20T06:36:17Z</time>
      </trkpt>
      <trkpt lat="43.48233" lon="1.21669">
        <ele>203</ele>
        <time>2024-05-20T06:36:18Z</time>
      </trkpt>
      <trkpt lat="43.48224" lon="1.21668">
        <ele>203.2</ele>
        <time>2024-05-20T06:36:19Z</time>
      </trkpt>
      <trkpt lat="43.48216" lon="1.21666">
        <ele>203.2</ele>
        <time>2024-05-20T06:36:20Z</time>
      </trkpt>
      <trkpt lat="43.48207" lon="1.21665">
        <ele>203.2</ele>
        <time>2024-05-20T06:36:21Z</time>
      </trkpt>
      <trkpt lat="43.48198" lon="1.21663">
        <ele>203.2</ele>
        <time>2024-05-20T06:36:22Z</time>
      </trkpt>
      <trkpt lat="43.4819" lon="1.21661">
        <ele>203.4</ele>
        <time>2024-05-20T06:36:23Z</time>
      </trkpt>
      <trkpt lat="43.48181" lon="1.21659">
        <ele>203.4</ele>
        <time>2024-05-20T06:36:24Z</time>
      </trkpt>
      <trkpt lat="43.48172" lon="1.21657">
        <ele>203.6</ele>
        <time>2024-05-20T06:36:25Z</time>
      </trkpt>
      <trkpt lat="43.48164" lon="1.21655">
        <ele>203.8</ele>
        <time>2024-05-20T06:36:26Z</time>
      </trkpt>
      <trkpt lat="43.48156" lon="1.21653">
        <ele>203.8</ele>
        <time>2024-05-20T06:36:27Z</time>
      </trkpt>
      <trkpt lat="43.48147" lon="1.21651">
        <ele>203.8</ele>
        <time>2024-05-20T06:36:28Z</time>
      </trkpt>
      <trkpt lat="43.48139" lon="1.21648">
        <ele>203.8</ele>
        <time>2024-05-20T06:36:29Z</time>
      </trkpt>
      <trkpt lat="43.4813" lon="1.21646">
        <ele>204</ele>
        <time>2024-05-20T06:36:30Z</time>
      </trkpt>
      <trkpt lat="43.48122" lon="1.21643">
        <ele>204</ele>
        <time>2024-05-20T06:36:31Z</time>
      </trkpt>
      <trkpt lat="43.48113" lon="1.2164">
        <ele>204.2</ele>
        <time>2024-05-20T06:36:32Z</time>
      </trkpt>
      <trkpt lat="43.48105" lon="1.21637">
        <ele>204.2</ele>
        <time>2024-05-20T06:36:33Z</time>
      </trkpt>
      <trkpt lat="43.48097" lon="1.21634">
        <ele>204.2</ele>
        <time>2024-05-20T06:36:34Z</time>
      </trkpt>
      <trkpt lat="43.48089" lon="1.21631">
        <ele>204.2</ele>
        <time>2024-05-20T06:36:35Z</time>
      </trkpt>
      <trkpt lat="43.48082" lon="1.21628">
        <ele>204.4</ele>
        <time>2024-05-20T06:36:36Z</time>
      </trkpt>
      <trkpt lat="43.48074" lon="1.21625">
        <ele>204.4</ele>
        <time>2024-05-20T06:36:37Z</time>
      </trkpt>
      <trkpt lat="43.48066" lon="1.21622">
        <ele>204.4</ele>
        <time>2024-05-20T06:36:38Z</time>
      </trkpt>
      <trkpt lat="43.48058" lon="1.21619">
        <ele>204.6</ele>
        <time>2024-05-20T06:36:39Z</time>
      </trkpt>
      <trkpt lat="43.4805" lon="1.21616">
        <ele>204.6</ele>
        <time>2024-05-20T06:36:40Z</time>
      </trkpt>
      <trkpt lat="43.48042" lon="1.21613">
        <ele>204.6</ele>
        <time>2024-05-20T06:36:41Z</time>
      </trkpt>
      <trkpt lat="43.48035" lon="1.2161">
        <ele>204.8</ele>
        <time>2024-05-20T06:36:42Z</time>
      </trkpt>
      <trkpt lat="43.48027" lon="1.21607">
        <ele>204.8</ele>
        <time>2024-05-20T06:36:43Z</time>
      </trkpt>
      <trkpt lat="43.48017" lon="1.21604">
        <ele>205</ele>
        <time>2024-05-20T06:36:44Z</time>
      </trkpt>
      <trkpt lat="43.48011" lon="1.21602">
        <ele>205</ele>
        <time>2024-05-20T06:36:45Z</time>
      </trkpt>
      <trkpt lat="43.48003" lon="1.216">
        <ele>205</ele>
        <time>2024-05-20T06:36:46Z</time>
      </trkpt>
      <trkpt lat="43.47995" lon="1.21598">
        <ele>205.2</ele>
        <time>2024-05-20T06:36:47Z</time>
      </trkpt>
      <trkpt lat="43.47987" lon="1.21596">
        <ele>205.2</ele>
        <time>2024-05-20T06:36:48Z</time>
      </trkpt>
      <trkpt lat="43.4798" lon="1.21594">
        <ele>205.2</ele>
        <time>2024-05-20T06:36:49Z</time>
      </trkpt>
      <trkpt lat="43.47972" lon="1.21592">
        <ele>205.2</ele>
        <time>2024-05-20T06:36:50Z</time>
      </trkpt>
      <trkpt lat="43.47964" lon="1.2159">
        <ele>205.2</ele>
        <time>2024-05-20T06:36:51Z</time>
      </trkpt>
      <trkpt lat="43.47956" lon="1.21588">
        <ele>205.2</ele>
        <time>2024-05-20T06:36:52Z</time>
      </trkpt>
      <trkpt lat="43.47948" lon="1.21587">
        <ele>205.4</ele>
        <time>2024-05-20T06:36:53Z</time>
      </trkpt>
      <trkpt lat="43.4794" lon="1.21585">
        <ele>205.4</ele>
        <time>2024-05-20T06:36:54Z</time>
      </trkpt>
      <trkpt lat="43.47932" lon="1.21583">
        <ele>205.6</ele>
        <time>2024-05-20T06:36:55Z</time>
      </trkpt>
      <trkpt lat="43.47924" lon="1.21581">
        <ele>205.6</ele>
        <time>2024-05-20T06:36:56Z</time>
      </trkpt>
      <trkpt lat="43.47916" lon="1.2158">
        <ele>205.6</ele>
        <time>2024-05-20T06:36:57Z</time>
      </trkpt>
      <trkpt lat="43.47908" lon="1.21578">
        <ele>205.6</ele>
        <time>2024-05-20T06:36:58Z</time>
      </trkpt>
      <trkpt lat="43.47901" lon="1.21576">
        <ele>205.8</ele>
        <time>2024-05-20T06:36:59Z</time>
      </trkpt>
      <trkpt lat="43.47893" lon="1.21575">
        <ele>205.8</ele>
        <time>2024-05-20T06:37:00Z</time>
      </trkpt>
      <trkpt lat="43.47884" lon="1.21573">
        <ele>206</ele>
        <time>2024-05-20T06:37:01Z</time>
      </trkpt>
      <trkpt lat="43.47876" lon="1.21572">
        <ele>206</ele>
        <time>2024-05-20T06:37:02Z</time>
      </trkpt>
      <trkpt lat="43.47868" lon="1.2157">
        <ele>206</ele>
        <time>2024-05-20T06:37:03Z</time>
      </trkpt>
      <trkpt lat="43.4786" lon="1.21568">
        <ele>206.2</ele>
        <time>2024-05-20T06:37:04Z</time>
      </trkpt>
      <trkpt lat="43.47853" lon="1.21567">
        <ele>206.2</ele>
        <time>2024-05-20T06:37:05Z</time>
      </trkpt>
      <trkpt lat="43.47845" lon="1.21566">
        <ele>206.4</ele>
        <time>2024-05-20T06:37:06Z</time>
      </trkpt>
      <trkpt lat="43.47837" lon="1.21564">
        <ele>206.6</ele>
        <time>2024-05-20T06:37:07Z</time>
      </trkpt>
      <trkpt lat="43.47829" lon="1.21564">
        <ele>206.8</ele>
        <time>2024-05-20T06:37:08Z</time>
      </trkpt>
      <trkpt lat="43.47821" lon="1.21563">
        <ele>206.8</ele>
        <time>2024-05-20T06:37:09Z</time>
      </trkpt>
      <trkpt lat="43.47813" lon="1.21562">
        <ele>207</ele>
        <time>2024-05-20T06:37:10Z</time>
      </trkpt>
      <trkpt lat="43.47805" lon="1.21562">
        <ele>207.2</ele>
        <time>2024-05-20T06:37:11Z</time>
      </trkpt>
      <trkpt lat="43.47796" lon="1.21561">
        <ele>207.4</ele>
        <time>2024-05-20T06:37:12Z</time>
      </trkpt>
      <trkpt lat="43.47788" lon="1.21561">
        <ele>207.4</ele>
        <time>2024-05-20T06:37:13Z</time>
      </trkpt>
      <trkpt lat="43.47779" lon="1.2156">
        <ele>207.4</ele>
        <time>2024-05-20T06:37:14Z</time>
      </trkpt>
      <trkpt lat="43.4777" lon="1.2156">
        <ele>207.4</ele>
        <time>2024-05-20T06:37:15Z</time>
      </trkpt>
      <trkpt lat="43.47761" lon="1.2156">
        <ele>207.4</ele>
        <time>2024-05-20T06:37:16Z</time>
      </trkpt>
      <trkpt lat="43.47752" lon="1.21559">
        <ele>207.4</ele>
        <time>2024-05-20T06:37:17Z</time>
      </trkpt>
      <trkpt lat="43.47743" lon="1.21559">
        <ele>207.4</ele>
        <time>2024-05-20T06:37:18Z</time>
      </trkpt>
      <trkpt lat="43.47735" lon="1.21559">
        <ele>207.4</ele>
        <time>2024-05-20T06:37:19Z</time>
      </trkpt>
      <trkpt lat="43.47726" lon="1.21558">
        <ele>207.2</ele>
        <time>2024-05-20T06:37:20Z</time>
      </trkpt>
      <trkpt lat="43.47717" lon="1.21558">
        <ele>207.2</ele>
        <time>2024-05-20T06:37:21Z</time>
      </trkpt>
      <trkpt lat="43.47708" lon="1.21558">
        <ele>207</ele>
        <time>2024-05-20T06:37:22Z</time>
      </trkpt>
      <trkpt lat="43.47699" lon="1.21558">
        <ele>207</ele>
        <time>2024-05-20T06:37:23Z</time>
      </trkpt>
      <trkpt lat="43.4769" lon="1.21558">
        <ele>206.8</ele>
        <time>2024-05-20T06:37:24Z</time>
      </trkpt>
      <trkpt lat="43.47682" lon="1.21558">
        <ele>206.8</ele>
        <time>2024-05-20T06:37:25Z</time>
      </trkpt>
      <trkpt lat="43.47673" lon="1.21558">
        <ele>206.6</ele>
        <time>2024-05-20T06:37:26Z</time>
      </trkpt>
      <trkpt lat="43.47664" lon="1.21558">
        <ele>206.6</ele>
        <time>2024-05-20T06:37:27Z</time>
      </trkpt>
      <trkpt lat="43.47655" lon="1.21557">
        <ele>206.6</ele>
        <time>2024-05-20T06:37:28Z</time>
      </trkpt>
      <trkpt lat="43.47647" lon="1.21557">
        <ele>206.6</ele>
        <time>2024-05-20T06:37:29Z</time>
      </trkpt>
      <trkpt lat="43.47638" lon="1.21557">
        <ele>206.6</ele>
        <time>2024-05-20T06:37:30Z</time>
      </trkpt>
      <trkpt lat="43.47629" lon="1.21557">
        <ele>206.6</ele>
        <time>2024-05-20T06:37:31Z</time>
      </trkpt>
      <trkpt lat="43.4762" lon="1.21557">
        <ele>206.6</ele>
        <time>2024-05-20T06:37:32Z</time>
      </trkpt>
      <trkpt lat="43.47612" lon="1.21557">
        <ele>206.6</ele>
        <time>2024-05-20T06:37:33Z</time>
      </trkpt>
      <trkpt lat="43.47603" lon="1.21557">
        <ele>206.6</ele>
        <time>2024-05-20T06:37:34Z</time>
      </trkpt>
      <trkpt lat="43.47594" lon="1.21556">
        <ele>206.6</ele>
        <time>2024-05-20T06:37:35Z</time>
      </trkpt>
      <trkpt lat="43.47585" lon="1.21557">
        <ele>206.6</ele>
        <time>2024-05-20T06:37:36Z</time>
      </trkpt>
      <trkpt lat="43.47576" lon="1.21556">
        <ele>206.6</ele>
        <time>2024-05-20T06:37:37Z</time>
      </trkpt>
      <trkpt lat="43.47568" lon="1.21557">
        <ele>206.6</ele>
        <time>2024-05-20T06:37:38Z</time>
      </trkpt>
      <trkpt lat="43.47559" lon="1.21557">
        <ele>206.6</ele>
        <time>2024-05-20T06:37:39Z</time>
      </trkpt>
      <trkpt lat="43.4755" lon="1.21558">
        <ele>206.6</ele>
        <time>2024-05-20T06:37:40Z</time>
      </trkpt>
      <trkpt lat="43.47542" lon="1.2156">
        <ele>206.6</ele>
        <time>2024-05-20T06:37:41Z</time>
      </trkpt>
      <trkpt lat="43.47533" lon="1.21562">
        <ele>206.6</ele>
        <time>2024-05-20T06:37:42Z</time>
      </trkpt>
      <trkpt lat="43.47525" lon="1.21565">
        <ele>206.6</ele>
        <time>2024-05-20T06:37:43Z</time>
      </trkpt>
      <trkpt lat="43.47516" lon="1.21568">
        <ele>206.8</ele>
        <time>2024-05-20T06:37:44Z</time>
      </trkpt>
      <trkpt lat="43.47508" lon="1.21573">
        <ele>206.8</ele>
        <time>2024-05-20T06:37:45Z</time>
      </trkpt>
      <trkpt lat="43.475" lon="1.21579">
        <ele>206.8</ele>
        <time>2024-05-20T06:37:46Z</time>
      </trkpt>
      <trkpt lat="43.47492" lon="1.21586">
        <ele>206.8</ele>
        <time>2024-05-20T06:37:47Z</time>
      </trkpt>
      <trkpt lat="43.47485" lon="1.21594">
        <ele>207</ele>
        <time>2024-05-20T06:37:48Z</time>
      </trkpt>
      <trkpt lat="43.47478" lon="1.21602">
        <ele>207</ele>
        <time>2024-05-20T06:37:49Z</time>
      </trkpt>
      <trkpt lat="43.47471" lon="1.2161">
        <ele>207</ele>
        <time>2024-05-20T06:37:50Z</time>
      </trkpt>
      <trkpt lat="43.47464" lon="1.21619">
        <ele>207.2</ele>
        <time>2024-05-20T06:37:51Z</time>
      </trkpt>
      <trkpt lat="43.47457" lon="1.21627">
        <ele>207.2</ele>
        <time>2024-05-20T06:37:52Z</time>
      </trkpt>
      <trkpt lat="43.47451" lon="1.21635">
        <ele>207.2</ele>
        <time>2024-05-20T06:37:53Z</time>
      </trkpt>
      <trkpt lat="43.47444" lon="1.21644">
        <ele>207.2</ele>
        <time>2024-05-20T06:37:54Z</time>
      </trkpt>
      <trkpt lat="43.47438" lon="1.21652">
        <ele>207.2</ele>
        <time>2024-05-20T06:37:55Z</time>
      </trkpt>
      <trkpt lat="43.47431" lon="1.2166">
        <ele>207.2</ele>
        <time>2024-05-20T06:37:56Z</time>
      </trkpt>
      <trkpt lat="43.47425" lon="1.21668">
        <ele>207.2</ele>
        <time>2024-05-20T06:37:57Z</time>
      </trkpt>
      <trkpt lat="43.47418" lon="1.21676">
        <ele>207.4</ele>
        <time>2024-05-20T06:37:58Z</time>
      </trkpt>
      <trkpt lat="43.47412" lon="1.21684">
        <ele>207.4</ele>
        <time>2024-05-20T06:37:59Z</time>
      </trkpt>
      <trkpt lat="43.47403" lon="1.21694">
        <ele>207.4</ele>
        <time>2024-05-20T06:38:00Z</time>
      </trkpt>
      <trkpt lat="43.47398" lon="1.21701">
        <ele>207.4</ele>
        <time>2024-05-20T06:38:01Z</time>
      </trkpt>
      <trkpt lat="43.4739" lon="1.21708">
        <ele>207.4</ele>
        <time>2024-05-20T06:38:02Z</time>
      </trkpt>
      <trkpt lat="43.47382" lon="1.21716">
        <ele>207.4</ele>
        <time>2024-05-20T06:38:03Z</time>
      </trkpt>
      <trkpt lat="43.47374" lon="1.21722">
        <ele>207.4</ele>
        <time>2024-05-20T06:38:04Z</time>
      </trkpt>
      <trkpt lat="43.47366" lon="1.21727">
        <ele>207.4</ele>
        <time>2024-05-20T06:38:05Z</time>
      </trkpt>
      <trkpt lat="43.47358" lon="1.21732">
        <ele>207.4</ele>
        <time>2024-05-20T06:38:06Z</time>
      </trkpt>
      <trkpt lat="43.47349" lon="1.21736">
        <ele>207.4</ele>
        <time>2024-05-20T06:38:07Z</time>
      </trkpt>
      <trkpt lat="43.4734" lon="1.21739">
        <ele>207.4</ele>
        <time>2024-05-20T06:38:08Z</time>
      </trkpt>
      <trkpt lat="43.47331" lon="1.21742">
        <ele>207.4</ele>
        <time>2024-05-20T06:38:09Z</time>
      </trkpt>
      <trkpt lat="43.4732" lon="1.21744">
        <ele>207.4</ele>
        <time>2024-05-20T06:38:10Z</time>
      </trkpt>
      <trkpt lat="43.47312" lon="1.21745">
        <ele>207.4</ele>
        <time>2024-05-20T06:38:11Z</time>
      </trkpt>
      <trkpt lat="43.47306" lon="1.21745">
        <ele>207.6</ele>
        <time>2024-05-20T06:38:12Z</time>
      </trkpt>
      <trkpt lat="43.47299" lon="1.21745">
        <ele>207.6</ele>
        <time>2024-05-20T06:38:13Z</time>
      </trkpt>
      <trkpt lat="43.47291" lon="1.21745">
        <ele>207.8</ele>
        <time>2024-05-20T06:38:14Z</time>
      </trkpt>
      <trkpt lat="43.47284" lon="1.21745">
        <ele>208</ele>
        <time>2024-05-20T06:38:15Z</time>
      </trkpt>
      <trkpt lat="43.47277" lon="1.21744">
        <ele>208.2</ele>
        <time>2024-05-20T06:38:16Z</time>
      </trkpt>
      <trkpt lat="43.4727" lon="1.21744">
        <ele>208.4</ele>
        <time>2024-05-20T06:38:17Z</time>
      </trkpt>
      <trkpt lat="43.47262" lon="1.21743">
        <ele>208.6</ele>
        <time>2024-05-20T06:38:18Z</time>
      </trkpt>
      <trkpt lat="43.47257" lon="1.21743">
        <ele>208.8</ele>
        <time>2024-05-20T06:38:19Z</time>
      </trkpt>
      <trkpt lat="43.47251" lon="1.21742">
        <ele>209.2</ele>
        <time>2024-05-20T06:38:20Z</time>
      </trkpt>
      <trkpt lat="43.47244" lon="1.21742">
        <ele>209.4</ele>
        <time>2024-05-20T06:38:21Z</time>
      </trkpt>
      <trkpt lat="43.47238" lon="1.21741">
        <ele>209.6</ele>
        <time>2024-05-20T06:38:22Z</time>
      </trkpt>
      <trkpt lat="43.47232" lon="1.21741">
        <ele>210</ele>
        <time>2024-05-20T06:38:23Z</time>
      </trkpt>
      <trkpt lat="43.47227" lon="1.2174">
        <ele>210</ele>
        <time>2024-05-20T06:38:24Z</time>
      </trkpt>
      <trkpt lat="43.47222" lon="1.21739">
        <ele>210.8</ele>
        <time>2024-05-20T06:38:25Z</time>
      </trkpt>
      <trkpt lat="43.47216" lon="1.21739">
        <ele>211</ele>
        <time>2024-05-20T06:38:26Z</time>
      </trkpt>
      <trkpt lat="43.47211" lon="1.21738">
        <ele>211.4</ele>
        <time>2024-05-20T06:38:27Z</time>
      </trkpt>
      <trkpt lat="43.47206" lon="1.21738">
        <ele>211.8</ele>
        <time>2024-05-20T06:38:28Z</time>
      </trkpt>
      <trkpt lat="43.472" lon="1.21737">
        <ele>212.2</ele>
        <time>2024-05-20T06:38:29Z</time>
      </trkpt>
      <trkpt lat="43.47194" lon="1.21736">
        <ele>212.6</ele>
        <time>2024-05-20T06:38:30Z</time>
      </trkpt>
      <trkpt lat="43.47188" lon="1.21734">
        <ele>212.8</ele>
        <time>2024-05-20T06:38:31Z</time>
      </trkpt>
      <trkpt lat="43.47184" lon="1.21732">
        <ele>213.2</ele>
        <time>2024-05-20T06:38:32Z</time>
      </trkpt>
      <trkpt lat="43.47178" lon="1.2173">
        <ele>213.6</ele>
        <time>2024-05-20T06:38:33Z</time>
      </trkpt>
      <trkpt lat="43.47173" lon="1.21727">
        <ele>214.2</ele>
        <time>2024-05-20T06:38:34Z</time>
      </trkpt>
      <trkpt lat="43.47168" lon="1.21724">
        <ele>214.4</ele>
        <time>2024-05-20T06:38:35Z</time>
      </trkpt>
      <trkpt lat="43.47163" lon="1.2172">
        <ele>214.8</ele>
        <time>2024-05-20T06:38:36Z</time>
      </trkpt>
      <trkpt lat="43.47158" lon="1.21716">
        <ele>215</ele>
        <time>2024-05-20T06:38:37Z</time>
      </trkpt>
      <trkpt lat="43.47154" lon="1.2171">
        <ele>215.6</ele>
        <time>2024-05-20T06:38:38Z</time>
      </trkpt>
      <trkpt lat="43.4715" lon="1.21704">
        <ele>216</ele>
        <time>2024-05-20T06:38:39Z</time>
      </trkpt>
      <trkpt lat="43.47146" lon="1.21698">
        <ele>216.4</ele>
        <time>2024-05-20T06:38:40Z</time>
      </trkpt>
      <trkpt lat="43.47143" lon="1.21692">
        <ele>216.8</ele>
        <time>2024-05-20T06:38:41Z</time>
      </trkpt>
      <trkpt lat="43.4714" lon="1.21685">
        <ele>216.8</ele>
        <time>2024-05-20T06:38:42Z</time>
      </trkpt>
      <trkpt lat="43.47137" lon="1.21679">
        <ele>217.2</ele>
        <time>2024-05-20T06:38:43Z</time>
      </trkpt>
      <trkpt lat="43.47135" lon="1.21673">
        <ele>217.6</ele>
        <time>2024-05-20T06:38:44Z</time>
      </trkpt>
      <trkpt lat="43.47132" lon="1.21666">
        <ele>218.2</ele>
        <time>2024-05-20T06:38:45Z</time>
      </trkpt>
      <trkpt lat="43.47129" lon="1.21659">
        <ele>218.4</ele>
        <time>2024-05-20T06:38:46Z</time>
      </trkpt>
      <trkpt lat="43.47127" lon="1.21655">
        <ele>219.2</ele>
        <time>2024-05-20T06:38:47Z</time>
      </trkpt>
      <trkpt lat="43.47125" lon="1.21649">
        <ele>219.6</ele>
        <time>2024-05-20T06:38:48Z</time>
      </trkpt>
      <trkpt lat="43.47122" lon="1.21643">
        <ele>219.6</ele>
        <time>2024-05-20T06:38:49Z</time>
      </trkpt>
      <trkpt lat="43.47119" lon="1.21637">
        <ele>220.2</ele>
        <time>2024-05-20T06:38:50Z</time>
      </trkpt>
      <trkpt lat="43.47116" lon="1.21631">
        <ele>220.4</ele>
        <time>2024-05-20T06:38:51Z</time>
      </trkpt>
      <trkpt lat="43.47113" lon="1.21625">
        <ele>221</ele>
        <time>2024-05-20T06:38:52Z</time>
      </trkpt>
      <trkpt lat="43.4711" lon="1.21619">
        <ele>221.4</ele>
        <time>2024-05-20T06:38:53Z</time>
      </trkpt>
      <trkpt lat="43.47107" lon="1.21613">
        <ele>221.6</ele>
        <time>2024-05-20T06:38:54Z</time>
      </trkpt>
      <trkpt lat="43.47104" lon="1.21607">
        <ele>221.6</ele>
        <time>2024-05-20T06:38:55Z</time>
      </trkpt>
      <trkpt lat="43.471" lon="1.21602">
        <ele>222.2</ele>
        <time>2024-05-20T06:38:56Z</time>
      </trkpt>
      <trkpt lat="43.47097" lon="1.21597">
        <ele>222.6</ele>
        <time>2024-05-20T06:38:57Z</time>
      </trkpt>
      <trkpt lat="43.47093" lon="1.21592">
        <ele>222.8</ele>
        <time>2024-05-20T06:38:58Z</time>
      </trkpt>
      <trkpt lat="43.47089" lon="1.21588">
        <ele>223</ele>
        <time>2024-05-20T06:38:59Z</time>
      </trkpt>
      <trkpt lat="43.47085" lon="1.21584">
        <ele>223.2</ele>
        <time>2024-05-20T06:39:00Z</time>
      </trkpt>
      <trkpt lat="43.47079" lon="1.21581">
        <ele>223.6</ele>
        <time>2024-05-20T06:39:01Z</time>
      </trkpt>
      <trkpt lat="43.47073" lon="1.21578">
        <ele>223.8</ele>
        <time>2024-05-20T06:39:02Z</time>
      </trkpt>
      <trkpt lat="43.47068" lon="1.21576">
        <ele>224.4</ele>
        <time>2024-05-20T06:39:03Z</time>
      </trkpt>
      <trkpt lat="43.47063" lon="1.21575">
        <ele>224.6</ele>
        <time>2024-05-20T06:39:04Z</time>
      </trkpt>
      <trkpt lat="43.47057" lon="1.21575">
        <ele>225</ele>
        <time>2024-05-20T06:39:05Z</time>
      </trkpt>
      <trkpt lat="43.47052" lon="1.21575">
        <ele>225.6</ele>
        <time>2024-05-20T06:39:06Z</time>
      </trkpt>
      <trkpt lat="43.47047" lon="1.21576">
        <ele>225.8</ele>
        <time>2024-05-20T06:39:07Z</time>
      </trkpt>
      <trkpt lat="43.47042" lon="1.21577">
        <ele>226.4</ele>
        <time>2024-05-20T06:39:08Z</time>
      </trkpt>
      <trkpt lat="43.47036" lon="1.21578">
        <ele>226.4</ele>
        <time>2024-05-20T06:39:09Z</time>
      </trkpt>
      <trkpt lat="43.47032" lon="1.2158">
        <ele>227</ele>
        <time>2024-05-20T06:39:10Z</time>
      </trkpt>
      <trkpt lat="43.47027" lon="1.21581">
        <ele>227.4</ele>
        <time>2024-05-20T06:39:11Z</time>
      </trkpt>
      <trkpt lat="43.47023" lon="1.21583">
        <ele>228</ele>
        <time>2024-05-20T06:39:12Z</time>
      </trkpt>
      <trkpt lat="43.47018" lon="1.21585">
        <ele>228.2</ele>
        <time>2024-05-20T06:39:13Z</time>
      </trkpt>
      <trkpt lat="43.47014" lon="1.21586">
        <ele>228.4</ele>
        <time>2024-05-20T06:39:14Z</time>
      </trkpt>
      <trkpt lat="43.4701" lon="1.21588">
        <ele>228.8</ele>
        <time>2024-05-20T06:39:15Z</time>
      </trkpt>
      <trkpt lat="43.47006" lon="1.21588">
        <ele>228.8</ele>
        <time>2024-05-20T06:39:16Z</time>
      </trkpt>
      <trkpt lat="43.47002" lon="1.2159">
        <ele>229.2</ele>
        <time>2024-05-20T06:39:17Z</time>
      </trkpt>
      <trkpt lat="43.46998" lon="1.21591">
        <ele>229.2</ele>
        <time>2024-05-20T06:39:18Z</time>
      </trkpt>
      <trkpt lat="43.46993" lon="1.21592">
        <ele>229.6</ele>
        <time>2024-05-20T06:39:19Z</time>
      </trkpt>
      <trkpt lat="43.46988" lon="1.21593">
        <ele>229.8</ele>
        <time>2024-05-20T06:39:20Z</time>
      </trkpt>
      <trkpt lat="43.46985" lon="1.21594">
        <ele>230</ele>
        <time>2024-05-20T06:39:21Z</time>
      </trkpt>
      <trkpt lat="43.46981" lon="1.21594">
        <ele>230.2</ele>
        <time>2024-05-20T06:39:22Z</time>
      </trkpt>
      <trkpt lat="43.46976" lon="1.21595">
        <ele>230.4</ele>
        <time>2024-05-20T06:39:23Z</time>
      </trkpt>
      <trkpt lat="43.46971" lon="1.21595">
        <ele>230.6</ele>
        <time>2024-05-20T06:39:24Z</time>
      </trkpt>
      <trkpt lat="43.46967" lon="1.21596">
        <ele>230.6</ele>
        <time>2024-05-20T06:39:25Z</time>
      </trkpt>
      <trkpt lat="43.46963" lon="1.21596">
        <ele>230.8</ele>
        <time>2024-05-20T06:39:26Z</time>
      </trkpt>
      <trkpt lat="43.46959" lon="1.21597">
        <ele>230.8</ele>
        <time>2024-05-20T06:39:27Z</time>
      </trkpt>
      <trkpt lat="43.46954" lon="1.21598">
        <ele>230.8</ele>
        <time>2024-05-20T06:39:28Z</time>
      </trkpt>
      <trkpt lat="43.4695" lon="1.21598">
        <ele>230.8</ele>
        <time>2024-05-20T06:39:29Z</time>
      </trkpt>
      <trkpt lat="43.46945" lon="1.21599">
        <ele>231</ele>
        <time>2024-05-20T06:39:30Z</time>
      </trkpt>
      <trkpt lat="43.46942" lon="1.21599">
        <ele>231</ele>
        <time>2024-05-20T06:39:31Z</time>
      </trkpt>
      <trkpt lat="43.46938" lon="1.216">
        <ele>231</ele>
        <time>2024-05-20T06:39:32Z</time>
      </trkpt>
      <trkpt lat="43.46933" lon="1.21601">
        <ele>231.2</ele>
        <time>2024-05-20T06:39:33Z</time>
      </trkpt>
      <trkpt lat="43.46929" lon="1.21602">
        <ele>231.2</ele>
        <time>2024-05-20T06:39:34Z</time>
      </trkpt>
      <trkpt lat="43.46924" lon="1.21603">
        <ele>231.2</ele>
        <time>2024-05-20T06:39:35Z</time>
      </trkpt>
      <trkpt lat="43.4692" lon="1.21603">
        <ele>231.2</ele>
        <time>2024-05-20T06:39:36Z</time>
      </trkpt>
      <trkpt lat="43.46916" lon="1.21604">
        <ele>231.4</ele>
        <time>2024-05-20T06:39:37Z</time>
      </trkpt>
      <trkpt lat="43.46911" lon="1.21605">
        <ele>231.4</ele>
        <time>2024-05-20T06:39:38Z</time>
      </trkpt>
      <trkpt lat="43.46906" lon="1.21606">
        <ele>231.4</ele>
        <time>2024-05-20T06:39:39Z</time>
      </trkpt>
      <trkpt lat="43.46902" lon="1.21607">
        <ele>231.4</ele>
        <time>2024-05-20T06:39:40Z</time>
      </trkpt>
      <trkpt lat="43.46898" lon="1.21607">
        <ele>231.4</ele>
        <time>2024-05-20T06:39:41Z</time>
      </trkpt>
      <trkpt lat="43.46893" lon="1.21608">
        <ele>231.4</ele>
        <time>2024-05-20T06:39:42Z</time>
      </trkpt>
      <trkpt lat="43.46888" lon="1.21609">
        <ele>231.6</ele>
        <time>2024-05-20T06:39:43Z</time>
      </trkpt>
      <trkpt lat="43.46883" lon="1.21609">
        <ele>231.6</ele>
        <time>2024-05-20T06:39:44Z</time>
      </trkpt>
      <trkpt lat="43.46877" lon="1.2161">
        <ele>231.6</ele>
        <time>2024-05-20T06:39:45Z</time>
      </trkpt>
      <trkpt lat="43.46873" lon="1.2161">
        <ele>231.6</ele>
        <time>2024-05-20T06:39:46Z</time>
      </trkpt>
      <trkpt lat="43.46868" lon="1.21611">
        <ele>231.4</ele>
        <time>2024-05-20T06:39:47Z</time>
      </trkpt>
      <trkpt lat="43.46863" lon="1.21611">
        <ele>231.6</ele>
        <time>2024-05-20T06:39:48Z</time>
      </trkpt>
      <trkpt lat="43.46859" lon="1.21612">
        <ele>231.6</ele>
        <time>2024-05-20T06:39:49Z</time>
      </trkpt>
      <trkpt lat="43.46854" lon="1.21612">
        <ele>231.6</ele>
        <time>2024-05-20T06:39:50Z</time>
      </trkpt>
      <trkpt lat="43.46849" lon="1.21613">
        <ele>231.8</ele>
        <time>2024-05-20T06:39:51Z</time>
      </trkpt>
      <trkpt lat="43.46844" lon="1.21613">
        <ele>231.8</ele>
        <time>2024-05-20T06:39:52Z</time>
      </trkpt>
      <trkpt lat="43.4684" lon="1.21614">
        <ele>231.8</ele>
        <time>2024-05-20T06:39:53Z</time>
      </trkpt>
      <trkpt lat="43.46835" lon="1.21615">
        <ele>231.8</ele>
        <time>2024-05-20T06:39:54Z</time>
      </trkpt>
      <trkpt lat="43.4683" lon="1.21615">
        <ele>231.8</ele>
        <time>2024-05-20T06:39:55Z</time>
      </trkpt>
      <trkpt lat="43.46825" lon="1.21615">
        <ele>231.8</ele>
        <time>2024-05-20T06:39:56Z</time>
      </trkpt>
      <trkpt lat="43.46821" lon="1.21615">
        <ele>232</ele>
        <time>2024-05-20T06:39:57Z</time>
      </trkpt>
      <trkpt lat="43.46817" lon="1.21615">
        <ele>232</ele>
        <time>2024-05-20T06:39:58Z</time>
      </trkpt>
      <trkpt lat="43.46813" lon="1.21615">
        <ele>232</ele>
        <time>2024-05-20T06:39:59Z</time>
      </trkpt>
      <trkpt lat="43.46809" lon="1.21615">
        <ele>232.2</ele>
        <time>2024-05-20T06:40:00Z</time>
      </trkpt>
      <trkpt lat="43.46805" lon="1.21615">
        <ele>232.2</ele>
        <time>2024-05-20T06:40:01Z</time>
      </trkpt>
      <trkpt lat="43.46801" lon="1.21615">
        <ele>232</ele>
        <time>2024-05-20T06:40:02Z</time>
      </trkpt>
      <trkpt lat="43.46797" lon="1.21615">
        <ele>232</ele>
        <time>2024-05-20T06:40:03Z</time>
      </trkpt>
      <trkpt lat="43.46792" lon="1.21615">
        <ele>232.2</ele>
        <time>2024-05-20T06:40:04Z</time>
      </trkpt>
      <trkpt lat="43.46787" lon="1.21615">
        <ele>232</ele>
        <time>2024-05-20T06:40:05Z</time>
      </trkpt>
      <trkpt lat="43.46782" lon="1.21615">
        <ele>232.2</ele>
        <time>2024-05-20T06:40:06Z</time>
      </trkpt>
      <trkpt lat="43.46777" lon="1.21615">
        <ele>232.2</ele>
        <time>2024-05-20T06:40:07Z</time>
      </trkpt>
      <trkpt lat="43.46771" lon="1.21615">
        <ele>232.2</ele>
        <time>2024-05-20T06:40:08Z</time>
      </trkpt>
      <trkpt lat="43.46765" lon="1.21616">
        <ele>232.4</ele>
        <time>2024-05-20T06:40:09Z</time>
      </trkpt>
      <trkpt lat="43.46759" lon="1.21616">
        <ele>232.4</ele>
        <time>2024-05-20T06:40:10Z</time>
      </trkpt>
      <trkpt lat="43.46753" lon="1.21616">
        <ele>232.4</ele>
        <time>2024-05-20T06:40:11Z</time>
      </trkpt>
      <trkpt lat="43.46747" lon="1.21616">
        <ele>232.4</ele>
        <time>2024-05-20T06:40:12Z</time>
      </trkpt>
      <trkpt lat="43.46741" lon="1.21616">
        <ele>232.2</ele>
        <time>2024-05-20T06:40:13Z</time>
      </trkpt>
      <trkpt lat="43.46735" lon="1.21616">
        <ele>232.2</ele>
        <time>2024-05-20T06:40:14Z</time>
      </trkpt>
      <trkpt lat="43.46728" lon="1.21616">
        <ele>232.2</ele>
        <time>2024-05-20T06:40:15Z</time>
      </trkpt>
      <trkpt lat="43.46722" lon="1.21616">
        <ele>232.2</ele>
        <time>2024-05-20T06:40:16Z</time>
      </trkpt>
      <trkpt lat="43.46716" lon="1.21615">
        <ele>232.2</ele>
        <time>2024-05-20T06:40:17Z</time>
      </trkpt>
      <trkpt lat="43.4671" lon="1.21615">
        <ele>232.2</ele>
        <time>2024-05-20T06:40:18Z</time>
      </trkpt>
      <trkpt lat="43.46703" lon="1.21615">
        <ele>232.2</ele>
        <time>2024-05-20T06:40:19Z</time>
      </trkpt>
      <trkpt lat="43.46698" lon="1.21615">
        <ele>232</ele>
        <time>2024-05-20T06:40:20Z</time>
      </trkpt>
      <trkpt lat="43.46691" lon="1.21615">
        <ele>232</ele>
        <time>2024-05-20T06:40:21Z</time>
      </trkpt>
      <trkpt lat="43.46685" lon="1.21615">
        <ele>232</ele>
        <time>2024-05-20T06:40:22Z</time>
      </trkpt>
      <trkpt lat="43.46679" lon="1.21616">
        <ele>232</ele>
        <time>2024-05-20T06:40:23Z</time>
      </trkpt>
      <trkpt lat="43.46673" lon="1.21617">
        <ele>232</ele>
        <time>2024-05-20T06:40:24Z</time>
      </trkpt>
      <trkpt lat="43.46667" lon="1.21618">
        <ele>232</ele>
        <time>2024-05-20T06:40:25Z</time>
      </trkpt>
      <trkpt lat="43.46661" lon="1.2162">
        <ele>232</ele>
        <time>2024-05-20T06:40:26Z</time>
      </trkpt>
      <trkpt lat="43.46654" lon="1.21622">
        <ele>231.6</ele>
        <time>2024-05-20T06:40:27Z</time>
      </trkpt>
      <trkpt lat="43.46649" lon="1.21625">
        <ele>231.6</ele>
        <time>2024-05-20T06:40:28Z</time>
      </trkpt>
      <trkpt lat="43.46643" lon="1.21627">
        <ele>231.4</ele>
        <time>2024-05-20T06:40:29Z</time>
      </trkpt>
      <trkpt lat="43.46637" lon="1.2163">
        <ele>231.4</ele>
        <time>2024-05-20T06:40:30Z</time>
      </trkpt>
      <trkpt lat="43.46633" lon="1.21632">
        <ele>231.4</ele>
        <time>2024-05-20T06:40:31Z</time>
      </trkpt>
      <trkpt lat="43.46628" lon="1.21632">
        <ele>231.4</ele>
        <time>2024-05-20T06:40:32Z</time>
      </trkpt>
      <trkpt lat="43.46622" lon="1.21631">
        <ele>231.4</ele>
        <time>2024-05-20T06:40:33Z</time>
      </trkpt>
      <trkpt lat="43.46618" lon="1.21627">
        <ele>231.8</ele>
        <time>2024-05-20T06:40:34Z</time>
      </trkpt>
      <trkpt lat="43.46615" lon="1.21623">
        <ele>231.8</ele>
        <time>2024-05-20T06:40:35Z</time>
      </trkpt>
      <trkpt lat="43.46612" lon="1.21618">
        <ele>231.6</ele>
        <time>2024-05-20T06:40:36Z</time>
      </trkpt>
      <trkpt lat="43.46609" lon="1.21613">
        <ele>231.8</ele>
        <time>2024-05-20T06:40:37Z</time>
      </trkpt>
      <trkpt lat="43.46604" lon="1.21609">
        <ele>231.8</ele>
        <time>2024-05-20T06:40:38Z</time>
      </trkpt>
      <trkpt lat="43.46599" lon="1.21605">
        <ele>231.8</ele>
        <time>2024-05-20T06:40:39Z</time>
      </trkpt>
      <trkpt lat="43.46593" lon="1.21603">
        <ele>232</ele>
        <time>2024-05-20T06:40:40Z</time>
      </trkpt>
      <trkpt lat="43.46588" lon="1.21601">
        <ele>232</ele>
        <time>2024-05-20T06:40:41Z</time>
      </trkpt>
      <trkpt lat="43.46582" lon="1.21599">
        <ele>232</ele>
        <time>2024-05-20T06:40:42Z</time>
      </trkpt>
      <trkpt lat="43.46577" lon="1.21598">
        <ele>232</ele>
        <time>2024-05-20T06:40:43Z</time>
      </trkpt>
      <trkpt lat="43.4657" lon="1.21597">
        <ele>232</ele>
        <time>2024-05-20T06:40:44Z</time>
      </trkpt>
      <trkpt lat="43.46565" lon="1.21596">
        <ele>232</ele>
        <time>2024-05-20T06:40:45Z</time>
      </trkpt>
      <trkpt lat="43.46559" lon="1.21594">
        <ele>232</ele>
        <time>2024-05-20T06:40:46Z</time>
      </trkpt>
      <trkpt lat="43.46555" lon="1.21594">
        <ele>232.2</ele>
        <time>2024-05-20T06:40:47Z</time>
      </trkpt>
      <trkpt lat="43.4655" lon="1.21593">
        <ele>232.2</ele>
        <time>2024-05-20T06:40:48Z</time>
      </trkpt>
      <trkpt lat="43.46546" lon="1.21592">
        <ele>232.2</ele>
        <time>2024-05-20T06:40:49Z</time>
      </trkpt>
      <trkpt lat="43.46541" lon="1.21593">
        <ele>232.2</ele>
        <time>2024-05-20T06:40:50Z</time>
      </trkpt>
      <trkpt lat="43.46537" lon="1.21596">
        <ele>232.2</ele>
        <time>2024-05-20T06:40:51Z</time>
      </trkpt>
      <trkpt lat="43.46534" lon="1.216">
        <ele>232.4</ele>
        <time>2024-05-20T06:40:52Z</time>
      </trkpt>
      <trkpt lat="43.46532" lon="1.21605">
        <ele>232.4</ele>
        <time>2024-05-20T06:40:53Z</time>
      </trkpt>
      <trkpt lat="43.46531" lon="1.21611">
        <ele>232.4</ele>
        <time>2024-05-20T06:40:54Z</time>
      </trkpt>
      <trkpt lat="43.46529" lon="1.21618">
        <ele>232.6</ele>
        <time>2024-05-20T06:40:55Z</time>
      </trkpt>
      <trkpt lat="43.46527" lon="1.21624">
        <ele>232.6</ele>
        <time>2024-05-20T06:40:56Z</time>
      </trkpt>
      <trkpt lat="43.46525" lon="1.21631">
        <ele>232.6</ele>
        <time>2024-05-20T06:40:57Z</time>
      </trkpt>
      <trkpt lat="43.46524" lon="1.21638">
        <ele>232.6</ele>
        <time>2024-05-20T06:40:58Z</time>
      </trkpt>
      <trkpt lat="43.46522" lon="1.21646">
        <ele>232.6</ele>
        <time>2024-05-20T06:40:59Z</time>
      </trkpt>
      <trkpt lat="43.4652" lon="1.21653">
        <ele>232.6</ele>
        <time>2024-05-20T06:41:00Z</time>
      </trkpt>
      <trkpt lat="43.46519" lon="1.2166">
        <ele>232.6</ele>
        <time>2024-05-20T06:41:01Z</time>
      </trkpt>
      <trkpt lat="43.46517" lon="1.21667">
        <ele>232.6</ele>
        <time>2024-05-20T06:41:02Z</time>
      </trkpt>
      <trkpt lat="43.46515" lon="1.21674">
        <ele>232.6</ele>
        <time>2024-05-20T06:41:03Z</time>
      </trkpt>
      <trkpt lat="43.46514" lon="1.21681">
        <ele>232.6</ele>
        <time>2024-05-20T06:41:04Z</time>
      </trkpt>
      <trkpt lat="43.46512" lon="1.21688">
        <ele>232.6</ele>
        <time>2024-05-20T06:41:05Z</time>
      </trkpt>
      <trkpt lat="43.4651" lon="1.21695">
        <ele>232.6</ele>
        <time>2024-05-20T06:41:06Z</time>
      </trkpt>
      <trkpt lat="43.46507" lon="1.217">
        <ele>232.6</ele>
        <time>2024-05-20T06:41:07Z</time>
      </trkpt>
      <trkpt lat="43.46504" lon="1.21706">
        <ele>232.6</ele>
        <time>2024-05-20T06:41:08Z</time>
      </trkpt>
      <trkpt lat="43.465" lon="1.21712">
        <ele>232.6</ele>
        <time>2024-05-20T06:41:09Z</time>
      </trkpt>
      <trkpt lat="43.46496" lon="1.21718">
        <ele>232.6</ele>
        <time>2024-05-20T06:41:10Z</time>
      </trkpt>
      <trkpt lat="43.46491" lon="1.21724">
        <ele>232.6</ele>
        <time>2024-05-20T06:41:11Z</time>
      </trkpt>
      <trkpt lat="43.46487" lon="1.2173">
        <ele>232.6</ele>
        <time>2024-05-20T06:41:12Z</time>
      </trkpt>
      <trkpt lat="43.46483" lon="1.21737">
        <ele>232.6</ele>
        <time>2024-05-20T06:41:13Z</time>
      </trkpt>
      <trkpt lat="43.46479" lon="1.21743">
        <ele>232.6</ele>
        <time>2024-05-20T06:41:14Z</time>
      </trkpt>
      <trkpt lat="43.46474" lon="1.21749">
        <ele>232.6</ele>
        <time>2024-05-20T06:41:15Z</time>
      </trkpt>
      <trkpt lat="43.46469" lon="1.21755">
        <ele>232.6</ele>
        <time>2024-05-20T06:41:16Z</time>
      </trkpt>
      <trkpt lat="43.46464" lon="1.21761">
        <ele>232.6</ele>
        <time>2024-05-20T06:41:17Z</time>
      </trkpt>
      <trkpt lat="43.46459" lon="1.21767">
        <ele>232.6</ele>
        <time>2024-05-20T06:41:18Z</time>
      </trkpt>
      <trkpt lat="43.46454" lon="1.21773">
        <ele>232.6</ele>
        <time>2024-05-20T06:41:19Z</time>
      </trkpt>
      <trkpt lat="43.46449" lon="1.21778">
        <ele>232.6</ele>
        <time>2024-05-20T06:41:20Z</time>
      </trkpt>
      <trkpt lat="43.46444" lon="1.21783">
        <ele>232.6</ele>
        <time>2024-05-20T06:41:21Z</time>
      </trkpt>
      <trkpt lat="43.46439" lon="1.21789">
        <ele>232.6</ele>
        <time>2024-05-20T06:41:22Z</time>
      </trkpt>
      <trkpt lat="43.46433" lon="1.21793">
        <ele>232.6</ele>
        <time>2024-05-20T06:41:23Z</time>
      </trkpt>
      <trkpt lat="43.46428" lon="1.21797">
        <ele>232.6</ele>
        <time>2024-05-20T06:41:24Z</time>
      </trkpt>
      <trkpt lat="43.46422" lon="1.21799">
        <ele>232.6</ele>
        <time>2024-05-20T06:41:25Z</time>
      </trkpt>
      <trkpt lat="43.46416" lon="1.21801">
        <ele>232.8</ele>
        <time>2024-05-20T06:41:26Z</time>
      </trkpt>
      <trkpt lat="43.4641" lon="1.21802">
        <ele>232.8</ele>
        <time>2024-05-20T06:41:27Z</time>
      </trkpt>
      <trkpt lat="43.46404" lon="1.21802">
        <ele>232.8</ele>
        <time>2024-05-20T06:41:28Z</time>
      </trkpt>
      <trkpt lat="43.46397" lon="1.21801">
        <ele>232.8</ele>
        <time>2024-05-20T06:41:29Z</time>
      </trkpt>
      <trkpt lat="43.4639" lon="1.218">
        <ele>232.6</ele>
        <time>2024-05-20T06:41:30Z</time>
      </trkpt>
      <trkpt lat="43.46383" lon="1.21798">
        <ele>232.6</ele>
        <time>2024-05-20T06:41:31Z</time>
      </trkpt>
      <trkpt lat="43.46375" lon="1.21797">
        <ele>232.6</ele>
        <time>2024-05-20T06:41:32Z</time>
      </trkpt>
      <trkpt lat="43.46368" lon="1.21795">
        <ele>232.6</ele>
        <time>2024-05-20T06:41:33Z</time>
      </trkpt>
      <trkpt lat="43.4636" lon="1.21793">
        <ele>232.4</ele>
        <time>2024-05-20T06:41:34Z</time>
      </trkpt>
      <trkpt lat="43.46353" lon="1.21792">
        <ele>232.4</ele>
        <time>2024-05-20T06:41:35Z</time>
      </trkpt>
      <trkpt lat="43.46344" lon="1.2179">
        <ele>232</ele>
        <time>2024-05-20T06:41:36Z</time>
      </trkpt>
      <trkpt lat="43.46336" lon="1.21788">
        <ele>231.6</ele>
        <time>2024-05-20T06:41:37Z</time>
      </trkpt>
      <trkpt lat="43.46328" lon="1.21786">
        <ele>231.6</ele>
        <time>2024-05-20T06:41:38Z</time>
      </trkpt>
      <trkpt lat="43.46319" lon="1.21784">
        <ele>231.4</ele>
        <time>2024-05-20T06:41:39Z</time>
      </trkpt>
      <trkpt lat="43.46309" lon="1.21781">
        <ele>231</ele>
        <time>2024-05-20T06:41:40Z</time>
      </trkpt>
      <trkpt lat="43.46301" lon="1.21778">
        <ele>230.4</ele>
        <time>2024-05-20T06:41:41Z</time>
      </trkpt>
      <trkpt lat="43.46292" lon="1.21776">
        <ele>230</ele>
        <time>2024-05-20T06:41:42Z</time>
      </trkpt>
      <trkpt lat="43.46282" lon="1.21772">
        <ele>229.4</ele>
        <time>2024-05-20T06:41:43Z</time>
      </trkpt>
      <trkpt lat="43.46273" lon="1.21768">
        <ele>229</ele>
        <time>2024-05-20T06:41:44Z</time>
      </trkpt>
      <trkpt lat="43.46261" lon="1.21763">
        <ele>228.2</ele>
        <time>2024-05-20T06:41:45Z</time>
      </trkpt>
      <trkpt lat="43.46253" lon="1.21758">
        <ele>227.4</ele>
        <time>2024-05-20T06:41:46Z</time>
      </trkpt>
      <trkpt lat="43.46244" lon="1.21751">
        <ele>227.2</ele>
        <time>2024-05-20T06:41:47Z</time>
      </trkpt>
      <trkpt lat="43.46234" lon="1.21744">
        <ele>226.4</ele>
        <time>2024-05-20T06:41:48Z</time>
      </trkpt>
      <trkpt lat="43.46225" lon="1.21735">
        <ele>225.8</ele>
        <time>2024-05-20T06:41:49Z</time>
      </trkpt>
      <trkpt lat="43.46216" lon="1.21727">
        <ele>225.2</ele>
        <time>2024-05-20T06:41:50Z</time>
      </trkpt>
      <trkpt lat="43.46206" lon="1.21718">
        <ele>224.6</ele>
        <time>2024-05-20T06:41:51Z</time>
      </trkpt>
      <trkpt lat="43.46197" lon="1.2171">
        <ele>223.8</ele>
        <time>2024-05-20T06:41:52Z</time>
      </trkpt>
      <trkpt lat="43.46186" lon="1.21705">
        <ele>223.4</ele>
        <time>2024-05-20T06:41:53Z</time>
      </trkpt>
      <trkpt lat="43.46175" lon="1.21703">
        <ele>222.4</ele>
        <time>2024-05-20T06:41:54Z</time>
      </trkpt>
      <trkpt lat="43.46162" lon="1.21703">
        <ele>221.4</ele>
        <time>2024-05-20T06:41:55Z</time>
      </trkpt>
      <trkpt lat="43.4615" lon="1.21708">
        <ele>220.8</ele>
        <time>2024-05-20T06:41:56Z</time>
      </trkpt>
      <trkpt lat="43.4614" lon="1.21715">
        <ele>220</ele>
        <time>2024-05-20T06:41:57Z</time>
      </trkpt>
      <trkpt lat="43.4613" lon="1.21724">
        <ele>219.4</ele>
        <time>2024-05-20T06:41:58Z</time>
      </trkpt>
      <trkpt lat="43.46119" lon="1.21733">
        <ele>218.6</ele>
        <time>2024-05-20T06:41:59Z</time>
      </trkpt>
      <trkpt lat="43.46109" lon="1.21741">
        <ele>218.4</ele>
        <time>2024-05-20T06:42:00Z</time>
      </trkpt>
      <trkpt lat="43.46099" lon="1.21749">
        <ele>217</ele>
        <time>2024-05-20T06:42:01Z</time>
      </trkpt>
      <trkpt lat="43.46089" lon="1.21758">
        <ele>216.6</ele>
        <time>2024-05-20T06:42:02Z</time>
      </trkpt>
      <trkpt lat="43.46079" lon="1.21766">
        <ele>215.8</ele>
        <time>2024-05-20T06:42:03Z</time>
      </trkpt>
      <trkpt lat="43.46069" lon="1.21774">
        <ele>215.2</ele>
        <time>2024-05-20T06:42:04Z</time>
      </trkpt>
      <trkpt lat="43.46059" lon="1.21781">
        <ele>214.6</ele>
        <time>2024-05-20T06:42:05Z</time>
      </trkpt>
      <trkpt lat="43.46049" lon="1.21787">
        <ele>214</ele>
        <time>2024-05-20T06:42:06Z</time>
      </trkpt>
      <trkpt lat="43.46039" lon="1.21793">
        <ele>213.8</ele>
        <time>2024-05-20T06:42:07Z</time>
      </trkpt>
      <trkpt lat="43.4603" lon="1.21797">
        <ele>213.4</ele>
        <time>2024-05-20T06:42:08Z</time>
      </trkpt>
      <trkpt lat="43.4602" lon="1.218">
        <ele>213.2</ele>
        <time>2024-05-20T06:42:09Z</time>
      </trkpt>
      <trkpt lat="43.4601" lon="1.21802">
        <ele>212.8</ele>
        <time>2024-05-20T06:42:10Z</time>
      </trkpt>
      <trkpt lat="43.46" lon="1.21804">
        <ele>212.8</ele>
        <time>2024-05-20T06:42:11Z</time>
      </trkpt>
      <trkpt lat="43.45991" lon="1.21805">
        <ele>212.6</ele>
        <time>2024-05-20T06:42:12Z</time>
      </trkpt>
      <trkpt lat="43.45981" lon="1.21805">
        <ele>212.4</ele>
        <time>2024-05-20T06:42:13Z</time>
      </trkpt>
      <trkpt lat="43.45971" lon="1.21805">
        <ele>212.6</ele>
        <time>2024-05-20T06:42:14Z</time>
      </trkpt>
      <trkpt lat="43.45961" lon="1.21805">
        <ele>212.4</ele>
        <time>2024-05-20T06:42:15Z</time>
      </trkpt>
      <trkpt lat="43.45952" lon="1.21805">
        <ele>212.2</ele>
        <time>2024-05-20T06:42:16Z</time>
      </trkpt>
      <trkpt lat="43.45942" lon="1.21806">
        <ele>212.2</ele>
        <time>2024-05-20T06:42:17Z</time>
      </trkpt>
      <trkpt lat="43.45933" lon="1.21806">
        <ele>212.2</ele>
        <time>2024-05-20T06:42:18Z</time>
      </trkpt>
      <trkpt lat="43.45924" lon="1.21806">
        <ele>212.2</ele>
        <time>2024-05-20T06:42:19Z</time>
      </trkpt>
      <trkpt lat="43.45916" lon="1.21806">
        <ele>212.2</ele>
        <time>2024-05-20T06:42:20Z</time>
      </trkpt>
      <trkpt lat="43.45908" lon="1.21806">
        <ele>212.2</ele>
        <time>2024-05-20T06:42:21Z</time>
      </trkpt>
      <trkpt lat="43.459" lon="1.21806">
        <ele>212.2</ele>
        <time>2024-05-20T06:42:22Z</time>
      </trkpt>
      <trkpt lat="43.45892" lon="1.21806">
        <ele>212.2</ele>
        <time>2024-05-20T06:42:23Z</time>
      </trkpt>
      <trkpt lat="43.45885" lon="1.21806">
        <ele>212.2</ele>
        <time>2024-05-20T06:42:24Z</time>
      </trkpt>
      <trkpt lat="43.45878" lon="1.21806">
        <ele>212.2</ele>
        <time>2024-05-20T06:42:25Z</time>
      </trkpt>
      <trkpt lat="43.45871" lon="1.21806">
        <ele>212.2</ele>
        <time>2024-05-20T06:42:26Z</time>
      </trkpt>
      <trkpt lat="43.45863" lon="1.21807">
        <ele>212.2</ele>
        <time>2024-05-20T06:42:27Z</time>
      </trkpt>
      <trkpt lat="43.45856" lon="1.21807">
        <ele>212.2</ele>
        <time>2024-05-20T06:42:28Z</time>
      </trkpt>
      <trkpt lat="43.4585" lon="1.21807">
        <ele>212.4</ele>
        <time>2024-05-20T06:42:29Z</time>
      </trkpt>
      <trkpt lat="43.45843" lon="1.21808">
        <ele>212.4</ele>
        <time>2024-05-20T06:42:30Z</time>
      </trkpt>
      <trkpt lat="43.45836" lon="1.21808">
        <ele>212.4</ele>
        <time>2024-05-20T06:42:31Z</time>
      </trkpt>
      <trkpt lat="43.45829" lon="1.21808">
        <ele>212.6</ele>
        <time>2024-05-20T06:42:32Z</time>
      </trkpt>
      <trkpt lat="43.45822" lon="1.21808">
        <ele>212.8</ele>
        <time>2024-05-20T06:42:33Z</time>
      </trkpt>
      <trkpt lat="43.45815" lon="1.21808">
        <ele>213.2</ele>
        <time>2024-05-20T06:42:34Z</time>
      </trkpt>
      <trkpt lat="43.45808" lon="1.21808">
        <ele>213.4</ele>
        <time>2024-05-20T06:42:35Z</time>
      </trkpt>
      <trkpt lat="43.458" lon="1.21808">
        <ele>213.4</ele>
        <time>2024-05-20T06:42:36Z</time>
      </trkpt>
      <trkpt lat="43.45793" lon="1.21808">
        <ele>213.6</ele>
        <time>2024-05-20T06:42:37Z</time>
      </trkpt>
      <trkpt lat="43.45785" lon="1.21808">
        <ele>213.6</ele>
        <time>2024-05-20T06:42:38Z</time>
      </trkpt>
      <trkpt lat="43.45778" lon="1.21809">
        <ele>213.6</ele>
        <time>2024-05-20T06:42:39Z</time>
      </trkpt>
      <trkpt lat="43.4577" lon="1.21809">
        <ele>213.8</ele>
        <time>2024-05-20T06:42:40Z</time>
      </trkpt>
      <trkpt lat="43.45763" lon="1.21809">
        <ele>213.8</ele>
        <time>2024-05-20T06:42:41Z</time>
      </trkpt>
      <trkpt lat="43.45755" lon="1.21809">
        <ele>213.8</ele>
        <time>2024-05-20T06:42:42Z</time>
      </trkpt>
      <trkpt lat="43.45747" lon="1.21809">
        <ele>213.8</ele>
        <time>2024-05-20T06:42:43Z</time>
      </trkpt>
      <trkpt lat="43.4574" lon="1.21809">
        <ele>213.8</ele>
        <time>2024-05-20T06:42:44Z</time>
      </trkpt>
      <trkpt lat="43.45732" lon="1.21809">
        <ele>214</ele>
        <time>2024-05-20T06:42:45Z</time>
      </trkpt>
      <trkpt lat="43.45724" lon="1.21809">
        <ele>214</ele>
        <time>2024-05-20T06:42:46Z</time>
      </trkpt>
      <trkpt lat="43.45716" lon="1.21809">
        <ele>214</ele>
        <time>2024-05-20T06:42:47Z</time>
      </trkpt>
      <trkpt lat="43.45708" lon="1.2181">
        <ele>214</ele>
        <time>2024-05-20T06:42:48Z</time>
      </trkpt>
      <trkpt lat="43.45701" lon="1.2181">
        <ele>214</ele>
        <time>2024-05-20T06:42:49Z</time>
      </trkpt>
      <trkpt lat="43.45693" lon="1.2181">
        <ele>214</ele>
        <time>2024-05-20T06:42:50Z</time>
      </trkpt>
      <trkpt lat="43.45685" lon="1.2181">
        <ele>214</ele>
        <time>2024-05-20T06:42:51Z</time>
      </trkpt>
      <trkpt lat="43.45677" lon="1.2181">
        <ele>214</ele>
        <time>2024-05-20T06:42:52Z</time>
      </trkpt>
      <trkpt lat="43.4567" lon="1.2181">
        <ele>213.8</ele>
        <time>2024-05-20T06:42:53Z</time>
      </trkpt>
      <trkpt lat="43.45662" lon="1.2181">
        <ele>213.8</ele>
        <time>2024-05-20T06:42:54Z</time>
      </trkpt>
      <trkpt lat="43.45654" lon="1.2181">
        <ele>213.8</ele>
        <time>2024-05-20T06:42:55Z</time>
      </trkpt>
      <trkpt lat="43.45647" lon="1.2181">
        <ele>213.8</ele>
        <time>2024-05-20T06:42:56Z</time>
      </trkpt>
      <trkpt lat="43.45639" lon="1.2181">
        <ele>213.6</ele>
        <time>2024-05-20T06:42:57Z</time>
      </trkpt>
      <trkpt lat="43.45631" lon="1.2181">
        <ele>213.4</ele>
        <time>2024-05-20T06:42:58Z</time>
      </trkpt>
      <trkpt lat="43.45623" lon="1.21811">
        <ele>213.4</ele>
        <time>2024-05-20T06:42:59Z</time>
      </trkpt>
      <trkpt lat="43.45616" lon="1.21811">
        <ele>213.4</ele>
        <time>2024-05-20T06:43:00Z</time>
      </trkpt>
      <trkpt lat="43.45608" lon="1.21811">
        <ele>213.6</ele>
        <time>2024-05-20T06:43:01Z</time>
      </trkpt>
      <trkpt lat="43.45601" lon="1.21811">
        <ele>213.4</ele>
        <time>2024-05-20T06:43:02Z</time>
      </trkpt>
      <trkpt lat="43.45593" lon="1.21811">
        <ele>213.6</ele>
        <time>2024-05-20T06:43:03Z</time>
      </trkpt>
      <trkpt lat="43.45586" lon="1.21812">
        <ele>213.6</ele>
        <time>2024-05-20T06:43:04Z</time>
      </trkpt>
      <trkpt lat="43.45578" lon="1.21812">
        <ele>213.6</ele>
        <time>2024-05-20T06:43:05Z</time>
      </trkpt>
      <trkpt lat="43.4557" lon="1.21812">
        <ele>213.8</ele>
        <time>2024-05-20T06:43:06Z</time>
      </trkpt>
      <trkpt lat="43.45561" lon="1.21812">
        <ele>213.8</ele>
        <time>2024-05-20T06:43:07Z</time>
      </trkpt>
      <trkpt lat="43.45555" lon="1.21812">
        <ele>213.8</ele>
        <time>2024-05-20T06:43:08Z</time>
      </trkpt>
      <trkpt lat="43.45546" lon="1.21812">
        <ele>213.8</ele>
        <time>2024-05-20T06:43:09Z</time>
      </trkpt>
      <trkpt lat="43.4554" lon="1.21811">
        <ele>213.8</ele>
        <time>2024-05-20T06:43:10Z</time>
      </trkpt>
      <trkpt lat="43.45532" lon="1.2181">
        <ele>214</ele>
        <time>2024-05-20T06:43:11Z</time>
      </trkpt>
      <trkpt lat="43.45523" lon="1.21809">
        <ele>214</ele>
        <time>2024-05-20T06:43:12Z</time>
      </trkpt>
      <trkpt lat="43.45516" lon="1.21807">
        <ele>214.2</ele>
        <time>2024-05-20T06:43:13Z</time>
      </trkpt>
      <trkpt lat="43.4551" lon="1.21806">
        <ele>214.2</ele>
        <time>2024-05-20T06:43:14Z</time>
      </trkpt>
      <trkpt lat="43.45502" lon="1.21804">
        <ele>214.2</ele>
        <time>2024-05-20T06:43:15Z</time>
      </trkpt>
      <trkpt lat="43.45495" lon="1.21802">
        <ele>214.4</ele>
        <time>2024-05-20T06:43:16Z</time>
      </trkpt>
      <trkpt lat="43.45487" lon="1.218">
        <ele>214.4</ele>
        <time>2024-05-20T06:43:17Z</time>
      </trkpt>
      <trkpt lat="43.45478" lon="1.21797">
        <ele>214.4</ele>
        <time>2024-05-20T06:43:18Z</time>
      </trkpt>
      <trkpt lat="43.45472" lon="1.21795">
        <ele>214.4</ele>
        <time>2024-05-20T06:43:19Z</time>
      </trkpt>
      <trkpt lat="43.45464" lon="1.21792">
        <ele>214.4</ele>
        <time>2024-05-20T06:43:20Z</time>
      </trkpt>
      <trkpt lat="43.45455" lon="1.21789">
        <ele>214.4</ele>
        <time>2024-05-20T06:43:21Z</time>
      </trkpt>
      <trkpt lat="43.45447" lon="1.21786">
        <ele>214.4</ele>
        <time>2024-05-20T06:43:22Z</time>
      </trkpt>
      <trkpt lat="43.45441" lon="1.21784">
        <ele>214.4</ele>
        <time>2024-05-20T06:43:23Z</time>
      </trkpt>
      <trkpt lat="43.45433" lon="1.21781">
        <ele>214.4</ele>
        <time>2024-05-20T06:43:24Z</time>
      </trkpt>
      <trkpt lat="43.45426" lon="1.21778">
        <ele>214.4</ele>
        <time>2024-05-20T06:43:25Z</time>
      </trkpt>
      <trkpt lat="43.45418" lon="1.21775">
        <ele>214.4</ele>
        <time>2024-05-20T06:43:26Z</time>
      </trkpt>
      <trkpt lat="43.4541" lon="1.21771">
        <ele>214.2</ele>
        <time>2024-05-20T06:43:27Z</time>
      </trkpt>
      <trkpt lat="43.45401" lon="1.21767">
        <ele>214.2</ele>
        <time>2024-05-20T06:43:28Z</time>
      </trkpt>
      <trkpt lat="43.45394" lon="1.21764">
        <ele>214</ele>
        <time>2024-05-20T06:43:29Z</time>
      </trkpt>
      <trkpt lat="43.45387" lon="1.21761">
        <ele>214</ele>
        <time>2024-05-20T06:43:30Z</time>
      </trkpt>
      <trkpt lat="43.45378" lon="1.21756">
        <ele>214</ele>
        <time>2024-05-20T06:43:31Z</time>
      </trkpt>
      <trkpt lat="43.4537" lon="1.21752">
        <ele>213.8</ele>
        <time>2024-05-20T06:43:32Z</time>
      </trkpt>
      <trkpt lat="43.45363" lon="1.2175">
        <ele>213.8</ele>
        <time>2024-05-20T06:43:33Z</time>
      </trkpt>
      <trkpt lat="43.45356" lon="1.21746">
        <ele>213.8</ele>
        <time>2024-05-20T06:43:34Z</time>
      </trkpt>
      <trkpt lat="43.45346" lon="1.21742">
        <ele>213.6</ele>
        <time>2024-05-20T06:43:35Z</time>
      </trkpt>
      <trkpt lat="43.4534" lon="1.2174">
        <ele>213.6</ele>
        <time>2024-05-20T06:43:36Z</time>
      </trkpt>
      <trkpt lat="43.45331" lon="1.21735">
        <ele>213.6</ele>
        <time>2024-05-20T06:43:37Z</time>
      </trkpt>
      <trkpt lat="43.45325" lon="1.21733">
        <ele>213.6</ele>
        <time>2024-05-20T06:43:38Z</time>
      </trkpt>
      <trkpt lat="43.45317" lon="1.21729">
        <ele>213.6</ele>
        <time>2024-05-20T06:43:39Z</time>
      </trkpt>
      <trkpt lat="43.4531" lon="1.21726">
        <ele>213.8</ele>
        <time>2024-05-20T06:43:40Z</time>
      </trkpt>
      <trkpt lat="43.45301" lon="1.21721">
        <ele>213.8</ele>
        <time>2024-05-20T06:43:41Z</time>
      </trkpt>
      <trkpt lat="43.45293" lon="1.21718">
        <ele>213.8</ele>
        <time>2024-05-20T06:43:42Z</time>
      </trkpt>
      <trkpt lat="43.45287" lon="1.21716">
        <ele>213.8</ele>
        <time>2024-05-20T06:43:43Z</time>
      </trkpt>
      <trkpt lat="43.45278" lon="1.21712">
        <ele>213.8</ele>
        <time>2024-05-20T06:43:44Z</time>
      </trkpt>
      <trkpt lat="43.4527" lon="1.21709">
        <ele>213.8</ele>
        <time>2024-05-20T06:43:45Z</time>
      </trkpt>
      <trkpt lat="43.45263" lon="1.21706">
        <ele>213.8</ele>
        <time>2024-05-20T06:43:46Z</time>
      </trkpt>
      <trkpt lat="43.45255" lon="1.21703">
        <ele>213.8</ele>
        <time>2024-05-20T06:43:47Z</time>
      </trkpt>
      <trkpt lat="43.45247" lon="1.21699">
        <ele>213.8</ele>
        <time>2024-05-20T06:43:48Z</time>
      </trkpt>
      <trkpt lat="43.45238" lon="1.21695">
        <ele>213.6</ele>
        <time>2024-05-20T06:43:49Z</time>
      </trkpt>
      <trkpt lat="43.45231" lon="1.21692">
        <ele>213.4</ele>
        <time>2024-05-20T06:43:50Z</time>
      </trkpt>
      <trkpt lat="43.45222" lon="1.21688">
        <ele>213.4</ele>
        <time>2024-05-20T06:43:51Z</time>
      </trkpt>
      <trkpt lat="43.45215" lon="1.21685">
        <ele>213.4</ele>
        <time>2024-05-20T06:43:52Z</time>
      </trkpt>
      <trkpt lat="43.45206" lon="1.21682">
        <ele>213.2</ele>
        <time>2024-05-20T06:43:53Z</time>
      </trkpt>
      <trkpt lat="43.45198" lon="1.21678">
        <ele>213.2</ele>
        <time>2024-05-20T06:43:54Z</time>
      </trkpt>
      <trkpt lat="43.4519" lon="1.21675">
        <ele>212.8</ele>
        <time>2024-05-20T06:43:55Z</time>
      </trkpt>
      <trkpt lat="43.45182" lon="1.21672">
        <ele>212.8</ele>
        <time>2024-05-20T06:43:56Z</time>
      </trkpt>
      <trkpt lat="43.45174" lon="1.21668">
        <ele>212.6</ele>
        <time>2024-05-20T06:43:57Z</time>
      </trkpt>
      <trkpt lat="43.45164" lon="1.21664">
        <ele>212.4</ele>
        <time>2024-05-20T06:43:58Z</time>
      </trkpt>
      <trkpt lat="43.45156" lon="1.21661">
        <ele>212.4</ele>
        <time>2024-05-20T06:43:59Z</time>
      </trkpt>
      <trkpt lat="43.4515" lon="1.21658">
        <ele>212.2</ele>
        <time>2024-05-20T06:44:00Z</time>
      </trkpt>
      <trkpt lat="43.45142" lon="1.21655">
        <ele>212.2</ele>
        <time>2024-05-20T06:44:01Z</time>
      </trkpt>
      <trkpt lat="43.45133" lon="1.21651">
        <ele>212</ele>
        <time>2024-05-20T06:44:02Z</time>
      </trkpt>
      <trkpt lat="43.45126" lon="1.21647">
        <ele>211.8</ele>
        <time>2024-05-20T06:44:03Z</time>
      </trkpt>
      <trkpt lat="43.45116" lon="1.21643">
        <ele>211.8</ele>
        <time>2024-05-20T06:44:04Z</time>
      </trkpt>
      <trkpt lat="43.45108" lon="1.21639">
        <ele>211.8</ele>
        <time>2024-05-20T06:44:05Z</time>
      </trkpt>
      <trkpt lat="43.45102" lon="1.21636">
        <ele>211.8</ele>
        <time>2024-05-20T06:44:06Z</time>
      </trkpt>
      <trkpt lat="43.45094" lon="1.21631">
        <ele>211.6</ele>
        <time>2024-05-20T06:44:07Z</time>
      </trkpt>
      <trkpt lat="43.45087" lon="1.21625">
        <ele>211.6</ele>
        <time>2024-05-20T06:44:08Z</time>
      </trkpt>
      <trkpt lat="43.4508" lon="1.21619">
        <ele>211.6</ele>
        <time>2024-05-20T06:44:09Z</time>
      </trkpt>
      <trkpt lat="43.45074" lon="1.21613">
        <ele>211.4</ele>
        <time>2024-05-20T06:44:10Z</time>
      </trkpt>
      <trkpt lat="43.45067" lon="1.21606">
        <ele>211.4</ele>
        <time>2024-05-20T06:44:11Z</time>
      </trkpt>
      <trkpt lat="43.45061" lon="1.21599">
        <ele>211.4</ele>
        <time>2024-05-20T06:44:12Z</time>
      </trkpt>
      <trkpt lat="43.45053" lon="1.21591">
        <ele>211.4</ele>
        <time>2024-05-20T06:44:13Z</time>
      </trkpt>
      <trkpt lat="43.45047" lon="1.21584">
        <ele>211.4</ele>
        <time>2024-05-20T06:44:14Z</time>
      </trkpt>
      <trkpt lat="43.45042" lon="1.21579">
        <ele>211.4</ele>
        <time>2024-05-20T06:44:15Z</time>
      </trkpt>
      <trkpt lat="43.45036" lon="1.21572">
        <ele>211.4</ele>
        <time>2024-05-20T06:44:16Z</time>
      </trkpt>
      <trkpt lat="43.45028" lon="1.21564">
        <ele>211.6</ele>
        <time>2024-05-20T06:44:17Z</time>
      </trkpt>
      <trkpt lat="43.45023" lon="1.21558">
        <ele>211.6</ele>
        <time>2024-05-20T06:44:18Z</time>
      </trkpt>
      <trkpt lat="43.45016" lon="1.2155">
        <ele>211.4</ele>
        <time>2024-05-20T06:44:19Z</time>
      </trkpt>
      <trkpt lat="43.4501" lon="1.21545">
        <ele>211.6</ele>
        <time>2024-05-20T06:44:20Z</time>
      </trkpt>
      <trkpt lat="43.45004" lon="1.21538">
        <ele>211.6</ele>
        <time>2024-05-20T06:44:21Z</time>
      </trkpt>
      <trkpt lat="43.44998" lon="1.21532">
        <ele>211.8</ele>
        <time>2024-05-20T06:44:22Z</time>
      </trkpt>
      <trkpt lat="43.4499" lon="1.21523">
        <ele>211.8</ele>
        <time>2024-05-20T06:44:23Z</time>
      </trkpt>
      <trkpt lat="43.44985" lon="1.21518">
        <ele>211.8</ele>
        <time>2024-05-20T06:44:24Z</time>
      </trkpt>
      <trkpt lat="43.44979" lon="1.21511">
        <ele>212</ele>
        <time>2024-05-20T06:44:25Z</time>
      </trkpt>
      <trkpt lat="43.44971" lon="1.21503">
        <ele>212.2</ele>
        <time>2024-05-20T06:44:26Z</time>
      </trkpt>
      <trkpt lat="43.44965" lon="1.21496">
        <ele>212.2</ele>
        <time>2024-05-20T06:44:27Z</time>
      </trkpt>
      <trkpt lat="43.4496" lon="1.2149">
        <ele>212.2</ele>
        <time>2024-05-20T06:44:28Z</time>
      </trkpt>
      <trkpt lat="43.44953" lon="1.21483">
        <ele>212.2</ele>
        <time>2024-05-20T06:44:29Z</time>
      </trkpt>
      <trkpt lat="43.44947" lon="1.21476">
        <ele>212.4</ele>
        <time>2024-05-20T06:44:30Z</time>
      </trkpt>
      <trkpt lat="43.44939" lon="1.21468">
        <ele>212.4</ele>
        <time>2024-05-20T06:44:31Z</time>
      </trkpt>
      <trkpt lat="43.44933" lon="1.21461">
        <ele>212.2</ele>
        <time>2024-05-20T06:44:32Z</time>
      </trkpt>
      <trkpt lat="43.44928" lon="1.21456">
        <ele>212.2</ele>
        <time>2024-05-20T06:44:33Z</time>
      </trkpt>
      <trkpt lat="43.44922" lon="1.21449">
        <ele>212.2</ele>
        <time>2024-05-20T06:44:34Z</time>
      </trkpt>
      <trkpt lat="43.44916" lon="1.21442">
        <ele>212.2</ele>
        <time>2024-05-20T06:44:35Z</time>
      </trkpt>
      <trkpt lat="43.4491" lon="1.21435">
        <ele>212.2</ele>
        <time>2024-05-20T06:44:36Z</time>
      </trkpt>
      <trkpt lat="43.44902" lon="1.21427">
        <ele>212.4</ele>
        <time>2024-05-20T06:44:37Z</time>
      </trkpt>
      <trkpt lat="43.44897" lon="1.21422">
        <ele>212.2</ele>
        <time>2024-05-20T06:44:38Z</time>
      </trkpt>
      <trkpt lat="43.44891" lon="1.21416">
        <ele>212.6</ele>
        <time>2024-05-20T06:44:39Z</time>
      </trkpt>
      <trkpt lat="43.44884" lon="1.21408">
        <ele>212.6</ele>
        <time>2024-05-20T06:44:40Z</time>
      </trkpt>
      <trkpt lat="43.44877" lon="1.21402">
        <ele>212.8</ele>
        <time>2024-05-20T06:44:41Z</time>
      </trkpt>
      <trkpt lat="43.44872" lon="1.21396">
        <ele>212.8</ele>
        <time>2024-05-20T06:44:42Z</time>
      </trkpt>
      <trkpt lat="43.44866" lon="1.2139">
        <ele>212.8</ele>
        <time>2024-05-20T06:44:43Z</time>
      </trkpt>
      <trkpt lat="43.4486" lon="1.21384">
        <ele>212.8</ele>
        <time>2024-05-20T06:44:44Z</time>
      </trkpt>
      <trkpt lat="43.44852" lon="1.21377">
        <ele>212.8</ele>
        <time>2024-05-20T06:44:45Z</time>
      </trkpt>
      <trkpt lat="43.44845" lon="1.21371">
        <ele>212.8</ele>
        <time>2024-05-20T06:44:46Z</time>
      </trkpt>
      <trkpt lat="43.44839" lon="1.21366">
        <ele>212.8</ele>
        <time>2024-05-20T06:44:47Z</time>
      </trkpt>
      <trkpt lat="43.44833" lon="1.21361">
        <ele>213</ele>
        <time>2024-05-20T06:44:48Z</time>
      </trkpt>
      <trkpt lat="43.44825" lon="1.21355">
        <ele>213</ele>
        <time>2024-05-20T06:44:49Z</time>
      </trkpt>
      <trkpt lat="43.4482" lon="1.2135">
        <ele>213</ele>
        <time>2024-05-20T06:44:50Z</time>
      </trkpt>
      <trkpt lat="43.44813" lon="1.21345">
        <ele>213.2</ele>
        <time>2024-05-20T06:44:51Z</time>
      </trkpt>
      <trkpt lat="43.44806" lon="1.21339">
        <ele>213.2</ele>
        <time>2024-05-20T06:44:52Z</time>
      </trkpt>
      <trkpt lat="43.44799" lon="1.21333">
        <ele>213.2</ele>
        <time>2024-05-20T06:44:53Z</time>
      </trkpt>
      <trkpt lat="43.44792" lon="1.21328">
        <ele>213.2</ele>
        <time>2024-05-20T06:44:54Z</time>
      </trkpt>
      <trkpt lat="43.44785" lon="1.21322">
        <ele>213.2</ele>
        <time>2024-05-20T06:44:55Z</time>
      </trkpt>
      <trkpt lat="43.44776" lon="1.21316">
        <ele>213.2</ele>
        <time>2024-05-20T06:44:56Z</time>
      </trkpt>
      <trkpt lat="43.44771" lon="1.21311">
        <ele>213.2</ele>
        <time>2024-05-20T06:44:57Z</time>
      </trkpt>
      <trkpt lat="43.44764" lon="1.21306">
        <ele>213.2</ele>
        <time>2024-05-20T06:44:58Z</time>
      </trkpt>
      <trkpt lat="43.44755" lon="1.21299">
        <ele>213.2</ele>
        <time>2024-05-20T06:44:59Z</time>
      </trkpt>
      <trkpt lat="43.44749" lon="1.21294">
        <ele>213.4</ele>
        <time>2024-05-20T06:45:00Z</time>
      </trkpt>
      <trkpt lat="43.44741" lon="1.21287">
        <ele>213.4</ele>
        <time>2024-05-20T06:45:01Z</time>
      </trkpt>
      <trkpt lat="43.44735" lon="1.21283">
        <ele>213.4</ele>
        <time>2024-05-20T06:45:02Z</time>
      </trkpt>
      <trkpt lat="43.44728" lon="1.21277">
        <ele>213.4</ele>
        <time>2024-05-20T06:45:03Z</time>
      </trkpt>
      <trkpt lat="43.44721" lon="1.21271">
        <ele>213.4</ele>
        <time>2024-05-20T06:45:04Z</time>
      </trkpt>
      <trkpt lat="43.44713" lon="1.21265">
        <ele>213.4</ele>
        <time>2024-05-20T06:45:05Z</time>
      </trkpt>
      <trkpt lat="43.44706" lon="1.21259">
        <ele>213.2</ele>
        <time>2024-05-20T06:45:06Z</time>
      </trkpt>
      <trkpt lat="43.447" lon="1.21255">
        <ele>213.4</ele>
        <time>2024-05-20T06:45:07Z</time>
      </trkpt>
      <trkpt lat="43.44692" lon="1.21249">
        <ele>213.4</ele>
        <time>2024-05-20T06:45:08Z</time>
      </trkpt>
      <trkpt lat="43.44685" lon="1.21243">
        <ele>213.4</ele>
        <time>2024-05-20T06:45:09Z</time>
      </trkpt>
      <trkpt lat="43.44678" lon="1.21237">
        <ele>213.4</ele>
        <time>2024-05-20T06:45:10Z</time>
      </trkpt>
      <trkpt lat="43.44672" lon="1.21233">
        <ele>213.4</ele>
        <time>2024-05-20T06:45:11Z</time>
      </trkpt>
      <trkpt lat="43.44665" lon="1.21227">
        <ele>213.4</ele>
        <time>2024-05-20T06:45:12Z</time>
      </trkpt>
      <trkpt lat="43.44659" lon="1.21221">
        <ele>213.4</ele>
        <time>2024-05-20T06:45:13Z</time>
      </trkpt>
      <trkpt lat="43.44652" lon="1.21215">
        <ele>213.4</ele>
        <time>2024-05-20T06:45:14Z</time>
      </trkpt>
      <trkpt lat="43.44643" lon="1.21209">
        <ele>213.4</ele>
        <time>2024-05-20T06:45:15Z</time>
      </trkpt>
      <trkpt lat="43.44638" lon="1.21204">
        <ele>213.4</ele>
        <time>2024-05-20T06:45:16Z</time>
      </trkpt>
      <trkpt lat="43.44631" lon="1.21199">
        <ele>213.4</ele>
        <time>2024-05-20T06:45:17Z</time>
      </trkpt>
      <trkpt lat="43.44625" lon="1.21194">
        <ele>213.4</ele>
        <time>2024-05-20T06:45:18Z</time>
      </trkpt>
      <trkpt lat="43.44617" lon="1.21187">
        <ele>213.4</ele>
        <time>2024-05-20T06:45:19Z</time>
      </trkpt>
      <trkpt lat="43.4461" lon="1.21182">
        <ele>213.4</ele>
        <time>2024-05-20T06:45:20Z</time>
      </trkpt>
      <trkpt lat="43.44605" lon="1.21178">
        <ele>213.4</ele>
        <time>2024-05-20T06:45:21Z</time>
      </trkpt>
      <trkpt lat="43.44597" lon="1.21172">
        <ele>213.6</ele>
        <time>2024-05-20T06:45:22Z</time>
      </trkpt>
      <trkpt lat="43.4459" lon="1.21166">
        <ele>213.6</ele>
        <time>2024-05-20T06:45:23Z</time>
      </trkpt>
      <trkpt lat="43.44585" lon="1.21162">
        <ele>213.6</ele>
        <time>2024-05-20T06:45:24Z</time>
      </trkpt>
      <trkpt lat="43.44578" lon="1.21157">
        <ele>213.6</ele>
        <time>2024-05-20T06:45:25Z</time>
      </trkpt>
      <trkpt lat="43.44572" lon="1.21152">
        <ele>213.6</ele>
        <time>2024-05-20T06:45:26Z</time>
      </trkpt>
      <trkpt lat="43.44565" lon="1.21146">
        <ele>213.6</ele>
        <time>2024-05-20T06:45:27Z</time>
      </trkpt>
      <trkpt lat="43.44557" lon="1.2114">
        <ele>213.6</ele>
        <time>2024-05-20T06:45:28Z</time>
      </trkpt>
      <trkpt lat="43.4455" lon="1.21134">
        <ele>213.6</ele>
        <time>2024-05-20T06:45:29Z</time>
      </trkpt>
      <trkpt lat="43.44545" lon="1.2113">
        <ele>213.6</ele>
        <time>2024-05-20T06:45:30Z</time>
      </trkpt>
      <trkpt lat="43.44538" lon="1.21125">
        <ele>213.4</ele>
        <time>2024-05-20T06:45:31Z</time>
      </trkpt>
      <trkpt lat="43.4453" lon="1.21119">
        <ele>213.4</ele>
        <time>2024-05-20T06:45:32Z</time>
      </trkpt>
      <trkpt lat="43.44523" lon="1.21114">
        <ele>213.2</ele>
        <time>2024-05-20T06:45:33Z</time>
      </trkpt>
      <trkpt lat="43.44518" lon="1.21109">
        <ele>213.2</ele>
        <time>2024-05-20T06:45:34Z</time>
      </trkpt>
      <trkpt lat="43.44511" lon="1.21104">
        <ele>213</ele>
        <time>2024-05-20T06:45:35Z</time>
      </trkpt>
      <trkpt lat="43.44503" lon="1.21097">
        <ele>213</ele>
        <time>2024-05-20T06:45:36Z</time>
      </trkpt>
      <trkpt lat="43.44497" lon="1.21093">
        <ele>213</ele>
        <time>2024-05-20T06:45:37Z</time>
      </trkpt>
      <trkpt lat="43.44489" lon="1.21086">
        <ele>213</ele>
        <time>2024-05-20T06:45:38Z</time>
      </trkpt>
      <trkpt lat="43.44484" lon="1.21082">
        <ele>213</ele>
        <time>2024-05-20T06:45:39Z</time>
      </trkpt>
      <trkpt lat="43.44477" lon="1.21077">
        <ele>213</ele>
        <time>2024-05-20T06:45:40Z</time>
      </trkpt>
      <trkpt lat="43.44469" lon="1.2107">
        <ele>213</ele>
        <time>2024-05-20T06:45:41Z</time>
      </trkpt>
      <trkpt lat="43.44462" lon="1.21064">
        <ele>213</ele>
        <time>2024-05-20T06:45:42Z</time>
      </trkpt>
      <trkpt lat="43.44456" lon="1.2106">
        <ele>213</ele>
        <time>2024-05-20T06:45:43Z</time>
      </trkpt>
      <trkpt lat="43.44449" lon="1.21055">
        <ele>213</ele>
        <time>2024-05-20T06:45:44Z</time>
      </trkpt>
      <trkpt lat="43.44442" lon="1.21049">
        <ele>213</ele>
        <time>2024-05-20T06:45:45Z</time>
      </trkpt>
      <trkpt lat="43.44436" lon="1.21044">
        <ele>213</ele>
        <time>2024-05-20T06:45:46Z</time>
      </trkpt>
      <trkpt lat="43.44427" lon="1.21038">
        <ele>213</ele>
        <time>2024-05-20T06:45:47Z</time>
      </trkpt>
      <trkpt lat="43.44422" lon="1.21033">
        <ele>213</ele>
        <time>2024-05-20T06:45:48Z</time>
      </trkpt>
      <trkpt lat="43.44415" lon="1.21028">
        <ele>213</ele>
        <time>2024-05-20T06:45:49Z</time>
      </trkpt>
      <trkpt lat="43.44406" lon="1.21022">
        <ele>213</ele>
        <time>2024-05-20T06:45:50Z</time>
      </trkpt>
      <trkpt lat="43.44401" lon="1.21017">
        <ele>213</ele>
        <time>2024-05-20T06:45:51Z</time>
      </trkpt>
      <trkpt lat="43.44392" lon="1.21011">
        <ele>213</ele>
        <time>2024-05-20T06:45:52Z</time>
      </trkpt>
      <trkpt lat="43.44387" lon="1.21006">
        <ele>213</ele>
        <time>2024-05-20T06:45:53Z</time>
      </trkpt>
      <trkpt lat="43.4438" lon="1.21">
        <ele>213.2</ele>
        <time>2024-05-20T06:45:54Z</time>
      </trkpt>
      <trkpt lat="43.44373" lon="1.20995">
        <ele>213.2</ele>
        <time>2024-05-20T06:45:55Z</time>
      </trkpt>
      <trkpt lat="43.44366" lon="1.20989">
        <ele>213.2</ele>
        <time>2024-05-20T06:45:56Z</time>
      </trkpt>
      <trkpt lat="43.44357" lon="1.20982">
        <ele>213.2</ele>
        <time>2024-05-20T06:45:57Z</time>
      </trkpt>
      <trkpt lat="43.44352" lon="1.20978">
        <ele>213.4</ele>
        <time>2024-05-20T06:45:58Z</time>
      </trkpt>
      <trkpt lat="43.44345" lon="1.20972">
        <ele>213.4</ele>
        <time>2024-05-20T06:45:59Z</time>
      </trkpt>
      <trkpt lat="43.44337" lon="1.20966">
        <ele>213.6</ele>
        <time>2024-05-20T06:46:00Z</time>
      </trkpt>
      <trkpt lat="43.44331" lon="1.20961">
        <ele>213.6</ele>
        <time>2024-05-20T06:46:01Z</time>
      </trkpt>
      <trkpt lat="43.44325" lon="1.20957">
        <ele>213.6</ele>
        <time>2024-05-20T06:46:02Z</time>
      </trkpt>
      <trkpt lat="43.44318" lon="1.20951">
        <ele>213.6</ele>
        <time>2024-05-20T06:46:03Z</time>
      </trkpt>
      <trkpt lat="43.4431" lon="1.20945">
        <ele>213.6</ele>
        <time>2024-05-20T06:46:04Z</time>
      </trkpt>
      <trkpt lat="43.44303" lon="1.20939">
        <ele>213.6</ele>
        <time>2024-05-20T06:46:05Z</time>
      </trkpt>
      <trkpt lat="43.44296" lon="1.20934">
        <ele>213.6</ele>
        <time>2024-05-20T06:46:06Z</time>
      </trkpt>
      <trkpt lat="43.4429" lon="1.20929">
        <ele>213.8</ele>
        <time>2024-05-20T06:46:07Z</time>
      </trkpt>
      <trkpt lat="43.44283" lon="1.20924">
        <ele>213.8</ele>
        <time>2024-05-20T06:46:08Z</time>
      </trkpt>
      <trkpt lat="43.44276" lon="1.20918">
        <ele>213.8</ele>
        <time>2024-05-20T06:46:09Z</time>
      </trkpt>
      <trkpt lat="43.44267" lon="1.20911">
        <ele>213.8</ele>
        <time>2024-05-20T06:46:10Z</time>
      </trkpt>
      <trkpt lat="43.44261" lon="1.20906">
        <ele>214</ele>
        <time>2024-05-20T06:46:11Z</time>
      </trkpt>
      <trkpt lat="43.44254" lon="1.209">
        <ele>214.2</ele>
        <time>2024-05-20T06:46:12Z</time>
      </trkpt>
      <trkpt lat="43.44246" lon="1.20894">
        <ele>214.2</ele>
        <time>2024-05-20T06:46:13Z</time>
      </trkpt>
      <trkpt lat="43.44239" lon="1.20888">
        <ele>214.4</ele>
        <time>2024-05-20T06:46:14Z</time>
      </trkpt>
      <trkpt lat="43.44233" lon="1.20883">
        <ele>214.4</ele>
        <time>2024-05-20T06:46:15Z</time>
      </trkpt>
      <trkpt lat="43.44226" lon="1.20877">
        <ele>214.4</ele>
        <time>2024-05-20T06:46:16Z</time>
      </trkpt>
      <trkpt lat="43.44219" lon="1.20872">
        <ele>214.6</ele>
        <time>2024-05-20T06:46:17Z</time>
      </trkpt>
      <trkpt lat="43.44211" lon="1.20864">
        <ele>214.6</ele>
        <time>2024-05-20T06:46:18Z</time>
      </trkpt>
      <trkpt lat="43.44205" lon="1.2086">
        <ele>214.8</ele>
        <time>2024-05-20T06:46:19Z</time>
      </trkpt>
      <trkpt lat="43.44197" lon="1.20852">
        <ele>214.8</ele>
        <time>2024-05-20T06:46:20Z</time>
      </trkpt>
      <trkpt lat="43.44192" lon="1.20847">
        <ele>214.8</ele>
        <time>2024-05-20T06:46:21Z</time>
      </trkpt>
      <trkpt lat="43.44186" lon="1.2084">
        <ele>214.8</ele>
        <time>2024-05-20T06:46:22Z</time>
      </trkpt>
      <trkpt lat="43.44179" lon="1.20833">
        <ele>214.8</ele>
        <time>2024-05-20T06:46:23Z</time>
      </trkpt>
      <trkpt lat="43.44172" lon="1.20825">
        <ele>214.8</ele>
        <time>2024-05-20T06:46:24Z</time>
      </trkpt>
      <trkpt lat="43.44167" lon="1.20819">
        <ele>215</ele>
        <time>2024-05-20T06:46:25Z</time>
      </trkpt>
      <trkpt lat="43.4416" lon="1.20811">
        <ele>215</ele>
        <time>2024-05-20T06:46:26Z</time>
      </trkpt>
      <trkpt lat="43.44153" lon="1.20802">
        <ele>215</ele>
        <time>2024-05-20T06:46:27Z</time>
      </trkpt>
      <trkpt lat="43.44147" lon="1.20795">
        <ele>215</ele>
        <time>2024-05-20T06:46:28Z</time>
      </trkpt>
      <trkpt lat="43.44141" lon="1.20789">
        <ele>215</ele>
        <time>2024-05-20T06:46:29Z</time>
      </trkpt>
      <trkpt lat="43.44135" lon="1.20781">
        <ele>215</ele>
        <time>2024-05-20T06:46:30Z</time>
      </trkpt>
      <trkpt lat="43.44129" lon="1.20774">
        <ele>215</ele>
        <time>2024-05-20T06:46:31Z</time>
      </trkpt>
      <trkpt lat="43.44122" lon="1.20766">
        <ele>215</ele>
        <time>2024-05-20T06:46:32Z</time>
      </trkpt>
      <trkpt lat="43.44114" lon="1.20756">
        <ele>215</ele>
        <time>2024-05-20T06:46:33Z</time>
      </trkpt>
      <trkpt lat="43.44108" lon="1.20748">
        <ele>215</ele>
        <time>2024-05-20T06:46:34Z</time>
      </trkpt>
      <trkpt lat="43.44102" lon="1.20741">
        <ele>215</ele>
        <time>2024-05-20T06:46:35Z</time>
      </trkpt>
      <trkpt lat="43.44095" lon="1.20733">
        <ele>215</ele>
        <time>2024-05-20T06:46:36Z</time>
      </trkpt>
      <trkpt lat="43.44089" lon="1.20726">
        <ele>215</ele>
        <time>2024-05-20T06:46:37Z</time>
      </trkpt>
      <trkpt lat="43.44081" lon="1.20716">
        <ele>215</ele>
        <time>2024-05-20T06:46:38Z</time>
      </trkpt>
      <trkpt lat="43.44076" lon="1.2071">
        <ele>215</ele>
        <time>2024-05-20T06:46:39Z</time>
      </trkpt>
      <trkpt lat="43.4407" lon="1.20703">
        <ele>215</ele>
        <time>2024-05-20T06:46:40Z</time>
      </trkpt>
      <trkpt lat="43.44063" lon="1.20694">
        <ele>215</ele>
        <time>2024-05-20T06:46:41Z</time>
      </trkpt>
      <trkpt lat="43.44058" lon="1.20687">
        <ele>215</ele>
        <time>2024-05-20T06:46:42Z</time>
      </trkpt>
      <trkpt lat="43.4405" lon="1.20678">
        <ele>215</ele>
        <time>2024-05-20T06:46:43Z</time>
      </trkpt>
      <trkpt lat="43.44045" lon="1.20672">
        <ele>214.8</ele>
        <time>2024-05-20T06:46:44Z</time>
      </trkpt>
      <trkpt lat="43.44039" lon="1.20665">
        <ele>214.8</ele>
        <time>2024-05-20T06:46:45Z</time>
      </trkpt>
      <trkpt lat="43.44033" lon="1.20658">
        <ele>214.8</ele>
        <time>2024-05-20T06:46:46Z</time>
      </trkpt>
      <trkpt lat="43.44026" lon="1.20649">
        <ele>214.6</ele>
        <time>2024-05-20T06:46:47Z</time>
      </trkpt>
      <trkpt lat="43.44019" lon="1.20642">
        <ele>214.6</ele>
        <time>2024-05-20T06:46:48Z</time>
      </trkpt>
      <trkpt lat="43.44015" lon="1.20636">
        <ele>214.6</ele>
        <time>2024-05-20T06:46:49Z</time>
      </trkpt>
      <trkpt lat="43.44007" lon="1.20627">
        <ele>214.6</ele>
        <time>2024-05-20T06:46:50Z</time>
      </trkpt>
      <trkpt lat="43.44001" lon="1.20619">
        <ele>214.6</ele>
        <time>2024-05-20T06:46:51Z</time>
      </trkpt>
      <trkpt lat="43.43996" lon="1.20613">
        <ele>214.6</ele>
        <time>2024-05-20T06:46:52Z</time>
      </trkpt>
      <trkpt lat="43.4399" lon="1.20605">
        <ele>214.6</ele>
        <time>2024-05-20T06:46:53Z</time>
      </trkpt>
      <trkpt lat="43.43983" lon="1.20597">
        <ele>214.6</ele>
        <time>2024-05-20T06:46:54Z</time>
      </trkpt>
      <trkpt lat="43.43977" lon="1.20589">
        <ele>214.4</ele>
        <time>2024-05-20T06:46:55Z</time>
      </trkpt>
      <trkpt lat="43.43969" lon="1.20579">
        <ele>214.4</ele>
        <time>2024-05-20T06:46:56Z</time>
      </trkpt>
      <trkpt lat="43.43962" lon="1.20571">
        <ele>214.4</ele>
        <time>2024-05-20T06:46:57Z</time>
      </trkpt>
      <trkpt lat="43.43957" lon="1.20565">
        <ele>214.4</ele>
        <time>2024-05-20T06:46:58Z</time>
      </trkpt>
      <trkpt lat="43.43951" lon="1.20558">
        <ele>214.4</ele>
        <time>2024-05-20T06:46:59Z</time>
      </trkpt>
      <trkpt lat="43.43945" lon="1.20549">
        <ele>214.4</ele>
        <time>2024-05-20T06:47:00Z</time>
      </trkpt>
      <trkpt lat="43.4394" lon="1.20541">
        <ele>214.4</ele>
        <time>2024-05-20T06:47:01Z</time>
      </trkpt>
      <trkpt lat="43.43935" lon="1.20532">
        <ele>214.4</ele>
        <time>2024-05-20T06:47:02Z</time>
      </trkpt>
      <trkpt lat="43.43931" lon="1.20523">
        <ele>214.4</ele>
        <time>2024-05-20T06:47:03Z</time>
      </trkpt>
      <trkpt lat="43.43927" lon="1.20515">
        <ele>214.4</ele>
        <time>2024-05-20T06:47:04Z</time>
      </trkpt>
      <trkpt lat="43.43921" lon="1.20504">
        <ele>214.2</ele>
        <time>2024-05-20T06:47:05Z</time>
      </trkpt>
      <trkpt lat="43.43918" lon="1.20497">
        <ele>214.2</ele>
        <time>2024-05-20T06:47:06Z</time>
      </trkpt>
      <trkpt lat="43.43912" lon="1.20487">
        <ele>214.2</ele>
        <time>2024-05-20T06:47:07Z</time>
      </trkpt>
      <trkpt lat="43.43908" lon="1.2048">
        <ele>214.2</ele>
        <time>2024-05-20T06:47:08Z</time>
      </trkpt>
      <trkpt lat="43.43903" lon="1.20471">
        <ele>214.2</ele>
        <time>2024-05-20T06:47:09Z</time>
      </trkpt>
      <trkpt lat="43.43896" lon="1.20461">
        <ele>214.2</ele>
        <time>2024-05-20T06:47:10Z</time>
      </trkpt>
      <trkpt lat="43.43891" lon="1.20452">
        <ele>214.4</ele>
        <time>2024-05-20T06:47:11Z</time>
      </trkpt>
      <trkpt lat="43.43886" lon="1.20445">
        <ele>214.4</ele>
        <time>2024-05-20T06:47:12Z</time>
      </trkpt>
      <trkpt lat="43.4388" lon="1.20436">
        <ele>214.6</ele>
        <time>2024-05-20T06:47:13Z</time>
      </trkpt>
      <trkpt lat="43.43873" lon="1.20426">
        <ele>214.6</ele>
        <time>2024-05-20T06:47:14Z</time>
      </trkpt>
      <trkpt lat="43.43867" lon="1.20418">
        <ele>214.6</ele>
        <time>2024-05-20T06:47:15Z</time>
      </trkpt>
      <trkpt lat="43.43862" lon="1.20409">
        <ele>214.8</ele>
        <time>2024-05-20T06:47:16Z</time>
      </trkpt>
      <trkpt lat="43.43857" lon="1.20403">
        <ele>215</ele>
        <time>2024-05-20T06:47:17Z</time>
      </trkpt>
      <trkpt lat="43.43851" lon="1.20395">
        <ele>215</ele>
        <time>2024-05-20T06:47:18Z</time>
      </trkpt>
      <trkpt lat="43.43845" lon="1.20387">
        <ele>215</ele>
        <time>2024-05-20T06:47:19Z</time>
      </trkpt>
      <trkpt lat="43.43839" lon="1.20378">
        <ele>215</ele>
        <time>2024-05-20T06:47:20Z</time>
      </trkpt>
      <trkpt lat="43.43833" lon="1.2037">
        <ele>215.2</ele>
        <time>2024-05-20T06:47:21Z</time>
      </trkpt>
      <trkpt lat="43.43828" lon="1.20361">
        <ele>215.2</ele>
        <time>2024-05-20T06:47:22Z</time>
      </trkpt>
      <trkpt lat="43.43821" lon="1.20351">
        <ele>215.6</ele>
        <time>2024-05-20T06:47:23Z</time>
      </trkpt>
      <trkpt lat="43.43815" lon="1.20342">
        <ele>215.4</ele>
        <time>2024-05-20T06:47:24Z</time>
      </trkpt>
      <trkpt lat="43.43811" lon="1.20335">
        <ele>215.4</ele>
        <time>2024-05-20T06:47:25Z</time>
      </trkpt>
      <trkpt lat="43.43806" lon="1.20325">
        <ele>215.4</ele>
        <time>2024-05-20T06:47:26Z</time>
      </trkpt>
      <trkpt lat="43.43802" lon="1.20315">
        <ele>215.4</ele>
        <time>2024-05-20T06:47:27Z</time>
      </trkpt>
      <trkpt lat="43.43797" lon="1.20305">
        <ele>215.6</ele>
        <time>2024-05-20T06:47:28Z</time>
      </trkpt>
      <trkpt lat="43.43793" lon="1.20293">
        <ele>215.4</ele>
        <time>2024-05-20T06:47:29Z</time>
      </trkpt>
      <trkpt lat="43.43789" lon="1.20283">
        <ele>215.4</ele>
        <time>2024-05-20T06:47:30Z</time>
      </trkpt>
      <trkpt lat="43.43786" lon="1.20274">
        <ele>215.4</ele>
        <time>2024-05-20T06:47:31Z</time>
      </trkpt>
      <trkpt lat="43.43783" lon="1.20264">
        <ele>215.8</ele>
        <time>2024-05-20T06:47:32Z</time>
      </trkpt>
      <trkpt lat="43.43778" lon="1.20251">
        <ele>215.8</ele>
        <time>2024-05-20T06:47:33Z</time>
      </trkpt>
      <trkpt lat="43.43775" lon="1.2024">
        <ele>215.8</ele>
        <time>2024-05-20T06:47:34Z</time>
      </trkpt>
      <trkpt lat="43.43772" lon="1.20232">
        <ele>215.8</ele>
        <time>2024-05-20T06:47:35Z</time>
      </trkpt>
      <trkpt lat="43.43769" lon="1.20221">
        <ele>215.8</ele>
        <time>2024-05-20T06:47:36Z</time>
      </trkpt>
      <trkpt lat="43.43764" lon="1.20209">
        <ele>215.8</ele>
        <time>2024-05-20T06:47:37Z</time>
      </trkpt>
      <trkpt lat="43.4376" lon="1.20198">
        <ele>215.8</ele>
        <time>2024-05-20T06:47:38Z</time>
      </trkpt>
      <trkpt lat="43.43757" lon="1.2019">
        <ele>215.8</ele>
        <time>2024-05-20T06:47:39Z</time>
      </trkpt>
      <trkpt lat="43.43753" lon="1.2018">
        <ele>215.8</ele>
        <time>2024-05-20T06:47:40Z</time>
      </trkpt>
      <trkpt lat="43.43749" lon="1.2017">
        <ele>215.8</ele>
        <time>2024-05-20T06:47:41Z</time>
      </trkpt>
      <trkpt lat="43.43746" lon="1.2016">
        <ele>215.8</ele>
        <time>2024-05-20T06:47:42Z</time>
      </trkpt>
      <trkpt lat="43.43742" lon="1.2015">
        <ele>215.8</ele>
        <time>2024-05-20T06:47:43Z</time>
      </trkpt>
      <trkpt lat="43.43739" lon="1.2014">
        <ele>216</ele>
        <time>2024-05-20T06:47:44Z</time>
      </trkpt>
      <trkpt lat="43.43735" lon="1.20131">
        <ele>216</ele>
        <time>2024-05-20T06:47:45Z</time>
      </trkpt>
      <trkpt lat="43.43731" lon="1.20121">
        <ele>216</ele>
        <time>2024-05-20T06:47:46Z</time>
      </trkpt>
      <trkpt lat="43.43728" lon="1.20111">
        <ele>216</ele>
        <time>2024-05-20T06:47:47Z</time>
      </trkpt>
      <trkpt lat="43.43724" lon="1.20101">
        <ele>216</ele>
        <time>2024-05-20T06:47:48Z</time>
      </trkpt>
      <trkpt lat="43.4372" lon="1.20091">
        <ele>216</ele>
        <time>2024-05-20T06:47:49Z</time>
      </trkpt>
      <trkpt lat="43.43717" lon="1.20081">
        <ele>216</ele>
        <time>2024-05-20T06:47:50Z</time>
      </trkpt>
      <trkpt lat="43.43713" lon="1.20072">
        <ele>216.2</ele>
        <time>2024-05-20T06:47:51Z</time>
      </trkpt>
      <trkpt lat="43.43709" lon="1.20062">
        <ele>216.2</ele>
        <time>2024-05-20T06:47:52Z</time>
      </trkpt>
      <trkpt lat="43.43705" lon="1.2005">
        <ele>216.2</ele>
        <time>2024-05-20T06:47:53Z</time>
      </trkpt>
      <trkpt lat="43.43701" lon="1.2004">
        <ele>216.2</ele>
        <time>2024-05-20T06:47:54Z</time>
      </trkpt>
      <trkpt lat="43.43698" lon="1.20032">
        <ele>216.2</ele>
        <time>2024-05-20T06:47:55Z</time>
      </trkpt>
      <trkpt lat="43.43693" lon="1.20022">
        <ele>216.2</ele>
        <time>2024-05-20T06:47:56Z</time>
      </trkpt>
      <trkpt lat="43.43688" lon="1.2001">
        <ele>216.2</ele>
        <time>2024-05-20T06:47:57Z</time>
      </trkpt>
      <trkpt lat="43.43685" lon="1.20002">
        <ele>216.2</ele>
        <time>2024-05-20T06:47:58Z</time>
      </trkpt>
      <trkpt lat="43.43681" lon="1.19992">
        <ele>216.2</ele>
        <time>2024-05-20T06:47:59Z</time>
      </trkpt>
      <trkpt lat="43.43677" lon="1.19983">
        <ele>216.4</ele>
        <time>2024-05-20T06:48:00Z</time>
      </trkpt>
      <trkpt lat="43.43673" lon="1.19974">
        <ele>216.4</ele>
        <time>2024-05-20T06:48:01Z</time>
      </trkpt>
      <trkpt lat="43.43669" lon="1.19964">
        <ele>216.4</ele>
        <time>2024-05-20T06:48:02Z</time>
      </trkpt>
      <trkpt lat="43.43664" lon="1.19952">
        <ele>216.4</ele>
        <time>2024-05-20T06:48:03Z</time>
      </trkpt>
      <trkpt lat="43.4366" lon="1.19944">
        <ele>216.4</ele>
        <time>2024-05-20T06:48:04Z</time>
      </trkpt>
      <trkpt lat="43.43655" lon="1.19934">
        <ele>216.4</ele>
        <time>2024-05-20T06:48:05Z</time>
      </trkpt>
      <trkpt lat="43.43651" lon="1.19925">
        <ele>216.4</ele>
        <time>2024-05-20T06:48:06Z</time>
      </trkpt>
      <trkpt lat="43.43646" lon="1.19913">
        <ele>216.4</ele>
        <time>2024-05-20T06:48:07Z</time>
      </trkpt>
      <trkpt lat="43.43642" lon="1.19905">
        <ele>216.2</ele>
        <time>2024-05-20T06:48:08Z</time>
      </trkpt>
      <trkpt lat="43.43638" lon="1.19896">
        <ele>216.2</ele>
        <time>2024-05-20T06:48:09Z</time>
      </trkpt>
      <trkpt lat="43.43632" lon="1.19885">
        <ele>216.2</ele>
        <time>2024-05-20T06:48:10Z</time>
      </trkpt>
      <trkpt lat="43.43627" lon="1.19876">
        <ele>216.2</ele>
        <time>2024-05-20T06:48:11Z</time>
      </trkpt>
      <trkpt lat="43.43623" lon="1.19869">
        <ele>216.2</ele>
        <time>2024-05-20T06:48:12Z</time>
      </trkpt>
      <trkpt lat="43.43618" lon="1.19862">
        <ele>216.2</ele>
        <time>2024-05-20T06:48:13Z</time>
      </trkpt>
      <trkpt lat="43.43611" lon="1.19854">
        <ele>216.2</ele>
        <time>2024-05-20T06:48:14Z</time>
      </trkpt>
      <trkpt lat="43.43605" lon="1.19847">
        <ele>216.2</ele>
        <time>2024-05-20T06:48:15Z</time>
      </trkpt>
      <trkpt lat="43.43597" lon="1.19839">
        <ele>216.2</ele>
        <time>2024-05-20T06:48:16Z</time>
      </trkpt>
      <trkpt lat="43.4359" lon="1.19832">
        <ele>216.2</ele>
        <time>2024-05-20T06:48:17Z</time>
      </trkpt>
      <trkpt lat="43.43585" lon="1.19827">
        <ele>216.2</ele>
        <time>2024-05-20T06:48:18Z</time>
      </trkpt>
      <trkpt lat="43.43577" lon="1.1982">
        <ele>216.2</ele>
        <time>2024-05-20T06:48:19Z</time>
      </trkpt>
      <trkpt lat="43.4357" lon="1.19813">
        <ele>216.4</ele>
        <time>2024-05-20T06:48:20Z</time>
      </trkpt>
      <trkpt lat="43.43564" lon="1.19807">
        <ele>216.4</ele>
        <time>2024-05-20T06:48:21Z</time>
      </trkpt>
      <trkpt lat="43.43559" lon="1.19802">
        <ele>216.4</ele>
        <time>2024-05-20T06:48:22Z</time>
      </trkpt>
      <trkpt lat="43.43552" lon="1.19796">
        <ele>216.4</ele>
        <time>2024-05-20T06:48:23Z</time>
      </trkpt>
      <trkpt lat="43.43545" lon="1.1979">
        <ele>216.4</ele>
        <time>2024-05-20T06:48:24Z</time>
      </trkpt>
      <trkpt lat="43.43539" lon="1.19784">
        <ele>216.4</ele>
        <time>2024-05-20T06:48:25Z</time>
      </trkpt>
      <trkpt lat="43.4353" lon="1.19776">
        <ele>216.6</ele>
        <time>2024-05-20T06:48:26Z</time>
      </trkpt>
      <trkpt lat="43.43525" lon="1.19771">
        <ele>216.6</ele>
        <time>2024-05-20T06:48:27Z</time>
      </trkpt>
      <trkpt lat="43.43518" lon="1.19765">
        <ele>216.6</ele>
        <time>2024-05-20T06:48:28Z</time>
      </trkpt>
      <trkpt lat="43.43511" lon="1.19758">
        <ele>216.6</ele>
        <time>2024-05-20T06:48:29Z</time>
      </trkpt>
      <trkpt lat="43.43504" lon="1.19752">
        <ele>216.6</ele>
        <time>2024-05-20T06:48:30Z</time>
      </trkpt>
      <trkpt lat="43.43497" lon="1.19746">
        <ele>216.6</ele>
        <time>2024-05-20T06:48:31Z</time>
      </trkpt>
      <trkpt lat="43.4349" lon="1.1974">
        <ele>216.6</ele>
        <time>2024-05-20T06:48:32Z</time>
      </trkpt>
      <trkpt lat="43.43483" lon="1.19734">
        <ele>216.6</ele>
        <time>2024-05-20T06:48:33Z</time>
      </trkpt>
      <trkpt lat="43.43475" lon="1.19727">
        <ele>216.6</ele>
        <time>2024-05-20T06:48:34Z</time>
      </trkpt>
      <trkpt lat="43.43469" lon="1.19721">
        <ele>216.6</ele>
        <time>2024-05-20T06:48:35Z</time>
      </trkpt>
      <trkpt lat="43.43463" lon="1.19716">
        <ele>216.8</ele>
        <time>2024-05-20T06:48:36Z</time>
      </trkpt>
      <trkpt lat="43.43457" lon="1.19709">
        <ele>216.8</ele>
        <time>2024-05-20T06:48:37Z</time>
      </trkpt>
      <trkpt lat="43.43451" lon="1.19701">
        <ele>216.8</ele>
        <time>2024-05-20T06:48:38Z</time>
      </trkpt>
      <trkpt lat="43.43444" lon="1.19692">
        <ele>216.8</ele>
        <time>2024-05-20T06:48:39Z</time>
      </trkpt>
      <trkpt lat="43.43439" lon="1.19684">
        <ele>216.8</ele>
        <time>2024-05-20T06:48:40Z</time>
      </trkpt>
      <trkpt lat="43.43433" lon="1.19676">
        <ele>216.8</ele>
        <time>2024-05-20T06:48:41Z</time>
      </trkpt>
      <trkpt lat="43.43428" lon="1.1967">
        <ele>216.8</ele>
        <time>2024-05-20T06:48:42Z</time>
      </trkpt>
      <trkpt lat="43.43423" lon="1.19662">
        <ele>216.8</ele>
        <time>2024-05-20T06:48:43Z</time>
      </trkpt>
      <trkpt lat="43.43417" lon="1.19653">
        <ele>217</ele>
        <time>2024-05-20T06:48:44Z</time>
      </trkpt>
      <trkpt lat="43.4341" lon="1.19643">
        <ele>217</ele>
        <time>2024-05-20T06:48:45Z</time>
      </trkpt>
      <trkpt lat="43.43405" lon="1.19636">
        <ele>217</ele>
        <time>2024-05-20T06:48:46Z</time>
      </trkpt>
      <trkpt lat="43.43399" lon="1.19628">
        <ele>217.2</ele>
        <time>2024-05-20T06:48:47Z</time>
      </trkpt>
      <trkpt lat="43.43392" lon="1.19618">
        <ele>217.2</ele>
        <time>2024-05-20T06:48:48Z</time>
      </trkpt>
      <trkpt lat="43.43387" lon="1.19611">
        <ele>217.2</ele>
        <time>2024-05-20T06:48:49Z</time>
      </trkpt>
      <trkpt lat="43.4338" lon="1.19601">
        <ele>217.4</ele>
        <time>2024-05-20T06:48:50Z</time>
      </trkpt>
      <trkpt lat="43.43376" lon="1.19595">
        <ele>217.4</ele>
        <time>2024-05-20T06:48:51Z</time>
      </trkpt>
      <trkpt lat="43.4337" lon="1.19586">
        <ele>217.4</ele>
        <time>2024-05-20T06:48:52Z</time>
      </trkpt>
      <trkpt lat="43.43363" lon="1.19576">
        <ele>217.6</ele>
        <time>2024-05-20T06:48:53Z</time>
      </trkpt>
      <trkpt lat="43.43357" lon="1.19568">
        <ele>217.6</ele>
        <time>2024-05-20T06:48:54Z</time>
      </trkpt>
      <trkpt lat="43.43352" lon="1.19561">
        <ele>217.6</ele>
        <time>2024-05-20T06:48:55Z</time>
      </trkpt>
      <trkpt lat="43.43346" lon="1.19552">
        <ele>217.6</ele>
        <time>2024-05-20T06:48:56Z</time>
      </trkpt>
      <trkpt lat="43.4334" lon="1.19544">
        <ele>217.6</ele>
        <time>2024-05-20T06:48:57Z</time>
      </trkpt>
      <trkpt lat="43.43334" lon="1.19535">
        <ele>217.6</ele>
        <time>2024-05-20T06:48:58Z</time>
      </trkpt>
      <trkpt lat="43.43327" lon="1.19525">
        <ele>217.8</ele>
        <time>2024-05-20T06:48:59Z</time>
      </trkpt>
      <trkpt lat="43.43322" lon="1.19519">
        <ele>217.8</ele>
        <time>2024-05-20T06:49:00Z</time>
      </trkpt>
      <trkpt lat="43.43317" lon="1.19511">
        <ele>218</ele>
        <time>2024-05-20T06:49:01Z</time>
      </trkpt>
      <trkpt lat="43.4331" lon="1.19501">
        <ele>218</ele>
        <time>2024-05-20T06:49:02Z</time>
      </trkpt>
      <trkpt lat="43.43305" lon="1.19494">
        <ele>218</ele>
        <time>2024-05-20T06:49:03Z</time>
      </trkpt>
      <trkpt lat="43.43299" lon="1.19485">
        <ele>218</ele>
        <time>2024-05-20T06:49:04Z</time>
      </trkpt>
      <trkpt lat="43.43292" lon="1.19476">
        <ele>218</ele>
        <time>2024-05-20T06:49:05Z</time>
      </trkpt>
      <trkpt lat="43.43286" lon="1.19467">
        <ele>218</ele>
        <time>2024-05-20T06:49:06Z</time>
      </trkpt>
      <trkpt lat="43.4328" lon="1.19458">
        <ele>218</ele>
        <time>2024-05-20T06:49:07Z</time>
      </trkpt>
      <trkpt lat="43.43273" lon="1.19448">
        <ele>218</ele>
        <time>2024-05-20T06:49:08Z</time>
      </trkpt>
      <trkpt lat="43.43267" lon="1.19439">
        <ele>218</ele>
        <time>2024-05-20T06:49:09Z</time>
      </trkpt>
      <trkpt lat="43.43262" lon="1.19432">
        <ele>218</ele>
        <time>2024-05-20T06:49:10Z</time>
      </trkpt>
      <trkpt lat="43.43257" lon="1.19423">
        <ele>217.8</ele>
        <time>2024-05-20T06:49:11Z</time>
      </trkpt>
      <trkpt lat="43.4325" lon="1.19412">
        <ele>217.8</ele>
        <time>2024-05-20T06:49:12Z</time>
      </trkpt>
      <trkpt lat="43.43245" lon="1.19403">
        <ele>217.8</ele>
        <time>2024-05-20T06:49:13Z</time>
      </trkpt>
      <trkpt lat="43.4324" lon="1.19396">
        <ele>217.6</ele>
        <time>2024-05-20T06:49:14Z</time>
      </trkpt>
      <trkpt lat="43.43235" lon="1.19387">
        <ele>217.6</ele>
        <time>2024-05-20T06:49:15Z</time>
      </trkpt>
      <trkpt lat="43.43228" lon="1.19377">
        <ele>217.6</ele>
        <time>2024-05-20T06:49:16Z</time>
      </trkpt>
      <trkpt lat="43.43224" lon="1.1937">
        <ele>217.6</ele>
        <time>2024-05-20T06:49:17Z</time>
      </trkpt>
      <trkpt lat="43.43217" lon="1.19359">
        <ele>217.6</ele>
        <time>2024-05-20T06:49:18Z</time>
      </trkpt>
      <trkpt lat="43.43213" lon="1.19352">
        <ele>217.6</ele>
        <time>2024-05-20T06:49:19Z</time>
      </trkpt>
      <trkpt lat="43.43207" lon="1.19344">
        <ele>217.6</ele>
        <time>2024-05-20T06:49:20Z</time>
      </trkpt>
      <trkpt lat="43.43202" lon="1.19336">
        <ele>217.6</ele>
        <time>2024-05-20T06:49:21Z</time>
      </trkpt>
      <trkpt lat="43.43196" lon="1.19326">
        <ele>217.6</ele>
        <time>2024-05-20T06:49:22Z</time>
      </trkpt>
      <trkpt lat="43.43192" lon="1.1932">
        <ele>217.6</ele>
        <time>2024-05-20T06:49:23Z</time>
      </trkpt>
      <trkpt lat="43.43187" lon="1.19313">
        <ele>217.6</ele>
        <time>2024-05-20T06:49:24Z</time>
      </trkpt>
      <trkpt lat="43.43181" lon="1.19304">
        <ele>217.6</ele>
        <time>2024-05-20T06:49:25Z</time>
      </trkpt>
      <trkpt lat="43.43176" lon="1.19295">
        <ele>217.6</ele>
        <time>2024-05-20T06:49:26Z</time>
      </trkpt>
      <trkpt lat="43.43172" lon="1.19289">
        <ele>217.6</ele>
        <time>2024-05-20T06:49:27Z</time>
      </trkpt>
      <trkpt lat="43.43167" lon="1.19281">
        <ele>217.6</ele>
        <time>2024-05-20T06:49:28Z</time>
      </trkpt>
      <trkpt lat="43.43163" lon="1.19273">
        <ele>217.6</ele>
        <time>2024-05-20T06:49:29Z</time>
      </trkpt>
      <trkpt lat="43.43157" lon="1.19263">
        <ele>217.6</ele>
        <time>2024-05-20T06:49:30Z</time>
      </trkpt>
      <trkpt lat="43.43152" lon="1.19255">
        <ele>217.6</ele>
        <time>2024-05-20T06:49:31Z</time>
      </trkpt>
      <trkpt lat="43.43147" lon="1.19247">
        <ele>217.6</ele>
        <time>2024-05-20T06:49:32Z</time>
      </trkpt>
      <trkpt lat="43.43144" lon="1.19241">
        <ele>217.6</ele>
        <time>2024-05-20T06:49:33Z</time>
      </trkpt>
      <trkpt lat="43.43139" lon="1.19233">
        <ele>217.6</ele>
        <time>2024-05-20T06:49:34Z</time>
      </trkpt>
      <trkpt lat="43.43133" lon="1.19223">
        <ele>217.6</ele>
        <time>2024-05-20T06:49:35Z</time>
      </trkpt>
      <trkpt lat="43.43127" lon="1.19215">
        <ele>217.6</ele>
        <time>2024-05-20T06:49:36Z</time>
      </trkpt>
      <trkpt lat="43.43123" lon="1.19209">
        <ele>217.8</ele>
        <time>2024-05-20T06:49:37Z</time>
      </trkpt>
      <trkpt lat="43.43118" lon="1.19201">
        <ele>217.8</ele>
        <time>2024-05-20T06:49:38Z</time>
      </trkpt>
      <trkpt lat="43.43112" lon="1.19191">
        <ele>218</ele>
        <time>2024-05-20T06:49:39Z</time>
      </trkpt>
      <trkpt lat="43.43108" lon="1.19184">
        <ele>218</ele>
        <time>2024-05-20T06:49:40Z</time>
      </trkpt>
      <trkpt lat="43.43102" lon="1.19173">
        <ele>218</ele>
        <time>2024-05-20T06:49:41Z</time>
      </trkpt>
      <trkpt lat="43.43098" lon="1.19167">
        <ele>218</ele>
        <time>2024-05-20T06:49:42Z</time>
      </trkpt>
      <trkpt lat="43.43093" lon="1.19159">
        <ele>218</ele>
        <time>2024-05-20T06:49:43Z</time>
      </trkpt>
      <trkpt lat="43.43088" lon="1.1915">
        <ele>218</ele>
        <time>2024-05-20T06:49:44Z</time>
      </trkpt>
      <trkpt lat="43.43083" lon="1.1914">
        <ele>218</ele>
        <time>2024-05-20T06:49:45Z</time>
      </trkpt>
      <trkpt lat="43.43078" lon="1.19132">
        <ele>218</ele>
        <time>2024-05-20T06:49:46Z</time>
      </trkpt>
      <trkpt lat="43.43074" lon="1.19125">
        <ele>218</ele>
        <time>2024-05-20T06:49:47Z</time>
      </trkpt>
      <trkpt lat="43.4307" lon="1.19116">
        <ele>218</ele>
        <time>2024-05-20T06:49:48Z</time>
      </trkpt>
      <trkpt lat="43.43066" lon="1.19108">
        <ele>218</ele>
        <time>2024-05-20T06:49:49Z</time>
      </trkpt>
      <trkpt lat="43.43061" lon="1.19099">
        <ele>218</ele>
        <time>2024-05-20T06:49:50Z</time>
      </trkpt>
      <trkpt lat="43.43057" lon="1.1909">
        <ele>218</ele>
        <time>2024-05-20T06:49:51Z</time>
      </trkpt>
      <trkpt lat="43.43053" lon="1.19082">
        <ele>218.2</ele>
        <time>2024-05-20T06:49:52Z</time>
      </trkpt>
      <trkpt lat="43.43048" lon="1.19073">
        <ele>218.4</ele>
        <time>2024-05-20T06:49:53Z</time>
      </trkpt>
      <trkpt lat="43.43044" lon="1.19064">
        <ele>218.4</ele>
        <time>2024-05-20T06:49:54Z</time>
      </trkpt>
      <trkpt lat="43.4304" lon="1.19055">
        <ele>218.6</ele>
        <time>2024-05-20T06:49:55Z</time>
      </trkpt>
      <trkpt lat="43.43036" lon="1.19047">
        <ele>218.6</ele>
        <time>2024-05-20T06:49:56Z</time>
      </trkpt>
      <trkpt lat="43.43033" lon="1.19038">
        <ele>218.6</ele>
        <time>2024-05-20T06:49:57Z</time>
      </trkpt>
      <trkpt lat="43.43028" lon="1.1903">
        <ele>218.8</ele>
        <time>2024-05-20T06:49:58Z</time>
      </trkpt>
      <trkpt lat="43.43023" lon="1.1902">
        <ele>218.8</ele>
        <time>2024-05-20T06:49:59Z</time>
      </trkpt>
      <trkpt lat="43.43019" lon="1.19011">
        <ele>218.8</ele>
        <time>2024-05-20T06:50:00Z</time>
      </trkpt>
      <trkpt lat="43.43015" lon="1.19004">
        <ele>218.8</ele>
        <time>2024-05-20T06:50:01Z</time>
      </trkpt>
      <trkpt lat="43.4301" lon="1.18997">
        <ele>218.8</ele>
        <time>2024-05-20T06:50:02Z</time>
      </trkpt>
      <trkpt lat="43.43003" lon="1.18988">
        <ele>219</ele>
        <time>2024-05-20T06:50:03Z</time>
      </trkpt>
      <trkpt lat="43.42998" lon="1.18983">
        <ele>219</ele>
        <time>2024-05-20T06:50:04Z</time>
      </trkpt>
      <trkpt lat="43.42991" lon="1.18975">
        <ele>219</ele>
        <time>2024-05-20T06:50:05Z</time>
      </trkpt>
      <trkpt lat="43.42986" lon="1.1897">
        <ele>219</ele>
        <time>2024-05-20T06:50:06Z</time>
      </trkpt>
      <trkpt lat="43.42979" lon="1.18964">
        <ele>219</ele>
        <time>2024-05-20T06:50:07Z</time>
      </trkpt>
      <trkpt lat="43.42973" lon="1.18957">
        <ele>219</ele>
        <time>2024-05-20T06:50:08Z</time>
      </trkpt>
      <trkpt lat="43.42966" lon="1.18951">
        <ele>219</ele>
        <time>2024-05-20T06:50:09Z</time>
      </trkpt>
      <trkpt lat="43.4296" lon="1.18944">
        <ele>219</ele>
        <time>2024-05-20T06:50:10Z</time>
      </trkpt>
      <trkpt lat="43.42954" lon="1.18937">
        <ele>219</ele>
        <time>2024-05-20T06:50:11Z</time>
      </trkpt>
      <trkpt lat="43.42947" lon="1.18931">
        <ele>219</ele>
        <time>2024-05-20T06:50:12Z</time>
      </trkpt>
      <trkpt lat="43.4294" lon="1.18923">
        <ele>219</ele>
        <time>2024-05-20T06:50:13Z</time>
      </trkpt>
      <trkpt lat="43.42934" lon="1.18916">
        <ele>219</ele>
        <time>2024-05-20T06:50:14Z</time>
      </trkpt>
      <trkpt lat="43.42928" lon="1.18911">
        <ele>219</ele>
        <time>2024-05-20T06:50:15Z</time>
      </trkpt>
      <trkpt lat="43.42921" lon="1.18905">
        <ele>218.8</ele>
        <time>2024-05-20T06:50:16Z</time>
      </trkpt>
      <trkpt lat="43.42914" lon="1.18898">
        <ele>218.8</ele>
        <time>2024-05-20T06:50:17Z</time>
      </trkpt>
      <trkpt lat="43.42908" lon="1.18894">
        <ele>218.8</ele>
        <time>2024-05-20T06:50:18Z</time>
      </trkpt>
      <trkpt lat="43.42901" lon="1.1889">
        <ele>218.8</ele>
        <time>2024-05-20T06:50:19Z</time>
      </trkpt>
      <trkpt lat="43.42894" lon="1.18886">
        <ele>218.8</ele>
        <time>2024-05-20T06:50:20Z</time>
      </trkpt>
      <trkpt lat="43.42887" lon="1.18882">
        <ele>218.8</ele>
        <time>2024-05-20T06:50:21Z</time>
      </trkpt>
      <trkpt lat="43.42879" lon="1.18878">
        <ele>218.6</ele>
        <time>2024-05-20T06:50:22Z</time>
      </trkpt>
      <trkpt lat="43.42871" lon="1.18874">
        <ele>218.6</ele>
        <time>2024-05-20T06:50:23Z</time>
      </trkpt>
      <trkpt lat="43.42865" lon="1.18871">
        <ele>218.8</ele>
        <time>2024-05-20T06:50:24Z</time>
      </trkpt>
      <trkpt lat="43.42857" lon="1.18867">
        <ele>218.8</ele>
        <time>2024-05-20T06:50:25Z</time>
      </trkpt>
      <trkpt lat="43.4285" lon="1.18863">
        <ele>218.8</ele>
        <time>2024-05-20T06:50:26Z</time>
      </trkpt>
      <trkpt lat="43.42844" lon="1.18859">
        <ele>218.8</ele>
        <time>2024-05-20T06:50:27Z</time>
      </trkpt>
      <trkpt lat="43.42837" lon="1.18855">
        <ele>218.8</ele>
        <time>2024-05-20T06:50:28Z</time>
      </trkpt>
      <trkpt lat="43.42831" lon="1.1885">
        <ele>218.8</ele>
        <time>2024-05-20T06:50:29Z</time>
      </trkpt>
      <trkpt lat="43.42824" lon="1.18845">
        <ele>218.8</ele>
        <time>2024-05-20T06:50:30Z</time>
      </trkpt>
      <trkpt lat="43.42817" lon="1.1884">
        <ele>218.8</ele>
        <time>2024-05-20T06:50:31Z</time>
      </trkpt>
      <trkpt lat="43.42811" lon="1.18834">
        <ele>218.8</ele>
        <time>2024-05-20T06:50:32Z</time>
      </trkpt>
      <trkpt lat="43.42802" lon="1.18826">
        <ele>218.8</ele>
        <time>2024-05-20T06:50:33Z</time>
      </trkpt>
      <trkpt lat="43.42798" lon="1.18822">
        <ele>218.8</ele>
        <time>2024-05-20T06:50:34Z</time>
      </trkpt>
      <trkpt lat="43.42792" lon="1.18818">
        <ele>218.8</ele>
        <time>2024-05-20T06:50:35Z</time>
      </trkpt>
      <trkpt lat="43.42787" lon="1.18814">
        <ele>218.8</ele>
        <time>2024-05-20T06:50:36Z</time>
      </trkpt>
      <trkpt lat="43.42779" lon="1.18808">
        <ele>218.8</ele>
        <time>2024-05-20T06:50:37Z</time>
      </trkpt>
      <trkpt lat="43.42772" lon="1.18802">
        <ele>218.8</ele>
        <time>2024-05-20T06:50:38Z</time>
      </trkpt>
      <trkpt lat="43.42767" lon="1.18798">
        <ele>218.8</ele>
        <time>2024-05-20T06:50:39Z</time>
      </trkpt>
      <trkpt lat="43.4276" lon="1.18792">
        <ele>219</ele>
        <time>2024-05-20T06:50:40Z</time>
      </trkpt>
      <trkpt lat="43.42752" lon="1.18785">
        <ele>219</ele>
        <time>2024-05-20T06:50:41Z</time>
      </trkpt>
      <trkpt lat="43.42746" lon="1.1878">
        <ele>219</ele>
        <time>2024-05-20T06:50:42Z</time>
      </trkpt>
      <trkpt lat="43.4274" lon="1.18777">
        <ele>219</ele>
        <time>2024-05-20T06:50:43Z</time>
      </trkpt>
      <trkpt lat="43.42733" lon="1.18771">
        <ele>219.2</ele>
        <time>2024-05-20T06:50:44Z</time>
      </trkpt>
      <trkpt lat="43.42725" lon="1.18764">
        <ele>219.2</ele>
        <time>2024-05-20T06:50:45Z</time>
      </trkpt>
      <trkpt lat="43.42718" lon="1.18758">
        <ele>219.2</ele>
        <time>2024-05-20T06:50:46Z</time>
      </trkpt>
      <trkpt lat="43.42712" lon="1.18754">
        <ele>219.2</ele>
        <time>2024-05-20T06:50:47Z</time>
      </trkpt>
      <trkpt lat="43.42705" lon="1.18749">
        <ele>219.2</ele>
        <time>2024-05-20T06:50:48Z</time>
      </trkpt>
      <trkpt lat="43.42697" lon="1.18746">
        <ele>219.4</ele>
        <time>2024-05-20T06:50:49Z</time>
      </trkpt>
      <trkpt lat="43.42687" lon="1.18742">
        <ele>219.4</ele>
        <time>2024-05-20T06:50:50Z</time>
      </trkpt>
      <trkpt lat="43.4268" lon="1.18739">
        <ele>219.4</ele>
        <time>2024-05-20T06:50:51Z</time>
      </trkpt>
      <trkpt lat="43.42671" lon="1.18736">
        <ele>219.4</ele>
        <time>2024-05-20T06:50:52Z</time>
      </trkpt>
      <trkpt lat="43.42662" lon="1.18733">
        <ele>219.4</ele>
        <time>2024-05-20T06:50:53Z</time>
      </trkpt>
      <trkpt lat="43.42653" lon="1.1873">
        <ele>219.4</ele>
        <time>2024-05-20T06:50:54Z</time>
      </trkpt>
      <trkpt lat="43.42643" lon="1.18726">
        <ele>219.6</ele>
        <time>2024-05-20T06:50:55Z</time>
      </trkpt>
      <trkpt lat="43.42634" lon="1.18723">
        <ele>219.6</ele>
        <time>2024-05-20T06:50:56Z</time>
      </trkpt>
      <trkpt lat="43.42625" lon="1.18721">
        <ele>219.6</ele>
        <time>2024-05-20T06:50:57Z</time>
      </trkpt>
      <trkpt lat="43.42618" lon="1.18718">
        <ele>219.6</ele>
        <time>2024-05-20T06:50:58Z</time>
      </trkpt>
      <trkpt lat="43.42609" lon="1.18716">
        <ele>219.6</ele>
        <time>2024-05-20T06:50:59Z</time>
      </trkpt>
      <trkpt lat="43.42597" lon="1.18712">
        <ele>219.6</ele>
        <time>2024-05-20T06:51:00Z</time>
      </trkpt>
      <trkpt lat="43.4259" lon="1.18709">
        <ele>219.6</ele>
        <time>2024-05-20T06:51:01Z</time>
      </trkpt>
      <trkpt lat="43.42582" lon="1.18706">
        <ele>219.6</ele>
        <time>2024-05-20T06:51:02Z</time>
      </trkpt>
      <trkpt lat="43.42573" lon="1.18703">
        <ele>219.8</ele>
        <time>2024-05-20T06:51:03Z</time>
      </trkpt>
      <trkpt lat="43.42565" lon="1.187">
        <ele>219.8</ele>
        <time>2024-05-20T06:51:04Z</time>
      </trkpt>
      <trkpt lat="43.42556" lon="1.18698">
        <ele>219.8</ele>
        <time>2024-05-20T06:51:05Z</time>
      </trkpt>
      <trkpt lat="43.42548" lon="1.18695">
        <ele>219.8</ele>
        <time>2024-05-20T06:51:06Z</time>
      </trkpt>
      <trkpt lat="43.42539" lon="1.18692">
        <ele>219.8</ele>
        <time>2024-05-20T06:51:07Z</time>
      </trkpt>
      <trkpt lat="43.4253" lon="1.18689">
        <ele>219.8</ele>
        <time>2024-05-20T06:51:08Z</time>
      </trkpt>
      <trkpt lat="43.42522" lon="1.18686">
        <ele>219.8</ele>
        <time>2024-05-20T06:51:09Z</time>
      </trkpt>
      <trkpt lat="43.42512" lon="1.18683">
        <ele>219.8</ele>
        <time>2024-05-20T06:51:10Z</time>
      </trkpt>
      <trkpt lat="43.42506" lon="1.18681">
        <ele>219.8</ele>
        <time>2024-05-20T06:51:11Z</time>
      </trkpt>
      <trkpt lat="43.42498" lon="1.18678">
        <ele>219.8</ele>
        <time>2024-05-20T06:51:12Z</time>
      </trkpt>
      <trkpt lat="43.42489" lon="1.18674">
        <ele>219.8</ele>
        <time>2024-05-20T06:51:13Z</time>
      </trkpt>
      <trkpt lat="43.4248" lon="1.18671">
        <ele>219.8</ele>
        <time>2024-05-20T06:51:14Z</time>
      </trkpt>
      <trkpt lat="43.42471" lon="1.18668">
        <ele>219.8</ele>
        <time>2024-05-20T06:51:15Z</time>
      </trkpt>
      <trkpt lat="43.42462" lon="1.18664">
        <ele>219.8</ele>
        <time>2024-05-20T06:51:16Z</time>
      </trkpt>
      <trkpt lat="43.42453" lon="1.18661">
        <ele>219.8</ele>
        <time>2024-05-20T06:51:17Z</time>
      </trkpt>
      <trkpt lat="43.42444" lon="1.18657">
        <ele>219.8</ele>
        <time>2024-05-20T06:51:18Z</time>
      </trkpt>
      <trkpt lat="43.42436" lon="1.18652">
        <ele>219.8</ele>
        <time>2024-05-20T06:51:19Z</time>
      </trkpt>
      <trkpt lat="43.42428" lon="1.18646">
        <ele>219.8</ele>
        <time>2024-05-20T06:51:20Z</time>
      </trkpt>
      <trkpt lat="43.4242" lon="1.1864">
        <ele>219.8</ele>
        <time>2024-05-20T06:51:21Z</time>
      </trkpt>
      <trkpt lat="43.42412" lon="1.18632">
        <ele>219.8</ele>
        <time>2024-05-20T06:51:22Z</time>
      </trkpt>
      <trkpt lat="43.42406" lon="1.18623">
        <ele>219.8</ele>
        <time>2024-05-20T06:51:23Z</time>
      </trkpt>
      <trkpt lat="43.424" lon="1.18612">
        <ele>219.8</ele>
        <time>2024-05-20T06:51:24Z</time>
      </trkpt>
      <trkpt lat="43.42394" lon="1.18601">
        <ele>219.8</ele>
        <time>2024-05-20T06:51:25Z</time>
      </trkpt>
      <trkpt lat="43.42388" lon="1.1859">
        <ele>219.8</ele>
        <time>2024-05-20T06:51:26Z</time>
      </trkpt>
      <trkpt lat="43.42382" lon="1.18579">
        <ele>219.8</ele>
        <time>2024-05-20T06:51:27Z</time>
      </trkpt>
      <trkpt lat="43.42377" lon="1.18568">
        <ele>219.8</ele>
        <time>2024-05-20T06:51:28Z</time>
      </trkpt>
      <trkpt lat="43.42371" lon="1.18557">
        <ele>219.8</ele>
        <time>2024-05-20T06:51:29Z</time>
      </trkpt>
      <trkpt lat="43.42365" lon="1.18547">
        <ele>219.8</ele>
        <time>2024-05-20T06:51:30Z</time>
      </trkpt>
      <trkpt lat="43.4236" lon="1.18538">
        <ele>219.8</ele>
        <time>2024-05-20T06:51:31Z</time>
      </trkpt>
      <trkpt lat="43.42353" lon="1.18529">
        <ele>219.8</ele>
        <time>2024-05-20T06:51:32Z</time>
      </trkpt>
      <trkpt lat="43.42345" lon="1.18521">
        <ele>219.8</ele>
        <time>2024-05-20T06:51:33Z</time>
      </trkpt>
      <trkpt lat="43.42338" lon="1.18513">
        <ele>219.8</ele>
        <time>2024-05-20T06:51:34Z</time>
      </trkpt>
      <trkpt lat="43.4233" lon="1.18506">
        <ele>220</ele>
        <time>2024-05-20T06:51:35Z</time>
      </trkpt>
      <trkpt lat="43.42322" lon="1.185">
        <ele>220</ele>
        <time>2024-05-20T06:51:36Z</time>
      </trkpt>
      <trkpt lat="43.42315" lon="1.18495">
        <ele>220</ele>
        <time>2024-05-20T06:51:37Z</time>
      </trkpt>
      <trkpt lat="43.42307" lon="1.18489">
        <ele>220.2</ele>
        <time>2024-05-20T06:51:38Z</time>
      </trkpt>
      <trkpt lat="43.42301" lon="1.18484">
        <ele>220.2</ele>
        <time>2024-05-20T06:51:39Z</time>
      </trkpt>
      <trkpt lat="43.42294" lon="1.18477">
        <ele>220.2</ele>
        <time>2024-05-20T06:51:40Z</time>
      </trkpt>
      <trkpt lat="43.42288" lon="1.1847">
        <ele>220.2</ele>
        <time>2024-05-20T06:51:41Z</time>
      </trkpt>
      <trkpt lat="43.42283" lon="1.18462">
        <ele>220.4</ele>
        <time>2024-05-20T06:51:42Z</time>
      </trkpt>
      <trkpt lat="43.42277" lon="1.18454">
        <ele>220.4</ele>
        <time>2024-05-20T06:51:43Z</time>
      </trkpt>
      <trkpt lat="43.42272" lon="1.18445">
        <ele>220.4</ele>
        <time>2024-05-20T06:51:44Z</time>
      </trkpt>
      <trkpt lat="43.42267" lon="1.18435">
        <ele>220.4</ele>
        <time>2024-05-20T06:51:45Z</time>
      </trkpt>
      <trkpt lat="43.42263" lon="1.18426">
        <ele>220.2</ele>
        <time>2024-05-20T06:51:46Z</time>
      </trkpt>
      <trkpt lat="43.42259" lon="1.18416">
        <ele>220.2</ele>
        <time>2024-05-20T06:51:47Z</time>
      </trkpt>
      <trkpt lat="43.42255" lon="1.18407">
        <ele>220.2</ele>
        <time>2024-05-20T06:51:48Z</time>
      </trkpt>
      <trkpt lat="43.4225" lon="1.18398">
        <ele>220.2</ele>
        <time>2024-05-20T06:51:49Z</time>
      </trkpt>
      <trkpt lat="43.42246" lon="1.18388">
        <ele>220.2</ele>
        <time>2024-05-20T06:51:50Z</time>
      </trkpt>
      <trkpt lat="43.42241" lon="1.18379">
        <ele>220.2</ele>
        <time>2024-05-20T06:51:51Z</time>
      </trkpt>
      <trkpt lat="43.42236" lon="1.18369">
        <ele>220.2</ele>
        <time>2024-05-20T06:51:52Z</time>
      </trkpt>
      <trkpt lat="43.42231" lon="1.18359">
        <ele>220.2</ele>
        <time>2024-05-20T06:51:53Z</time>
      </trkpt>
      <trkpt lat="43.42226" lon="1.18349">
        <ele>220.2</ele>
        <time>2024-05-20T06:51:54Z</time>
      </trkpt>
      <trkpt lat="43.4222" lon="1.18338">
        <ele>220.2</ele>
        <time>2024-05-20T06:51:55Z</time>
      </trkpt>
      <trkpt lat="43.42215" lon="1.18328">
        <ele>220.2</ele>
        <time>2024-05-20T06:51:56Z</time>
      </trkpt>
      <trkpt lat="43.42211" lon="1.18318">
        <ele>220.2</ele>
        <time>2024-05-20T06:51:57Z</time>
      </trkpt>
      <trkpt lat="43.42206" lon="1.18307">
        <ele>220.2</ele>
        <time>2024-05-20T06:51:58Z</time>
      </trkpt>
      <trkpt lat="43.42201" lon="1.18296">
        <ele>220.2</ele>
        <time>2024-05-20T06:51:59Z</time>
      </trkpt>
      <trkpt lat="43.42197" lon="1.18285">
        <ele>220.2</ele>
        <time>2024-05-20T06:52:00Z</time>
      </trkpt>
      <trkpt lat="43.42193" lon="1.18274">
        <ele>220.2</ele>
        <time>2024-05-20T06:52:01Z</time>
      </trkpt>
      <trkpt lat="43.42189" lon="1.18262">
        <ele>220.2</ele>
        <time>2024-05-20T06:52:02Z</time>
      </trkpt>
      <trkpt lat="43.42186" lon="1.1825">
        <ele>220.2</ele>
        <time>2024-05-20T06:52:03Z</time>
      </trkpt>
      <trkpt lat="43.42182" lon="1.18238">
        <ele>220.2</ele>
        <time>2024-05-20T06:52:04Z</time>
      </trkpt>
      <trkpt lat="43.42179" lon="1.18226">
        <ele>220.2</ele>
        <time>2024-05-20T06:52:05Z</time>
      </trkpt>
      <trkpt lat="43.42175" lon="1.18214">
        <ele>220.2</ele>
        <time>2024-05-20T06:52:06Z</time>
      </trkpt>
      <trkpt lat="43.42172" lon="1.18202">
        <ele>220.2</ele>
        <time>2024-05-20T06:52:07Z</time>
      </trkpt>
      <trkpt lat="43.42168" lon="1.18189">
        <ele>220.4</ele>
        <time>2024-05-20T06:52:08Z</time>
      </trkpt>
      <trkpt lat="43.42165" lon="1.18177">
        <ele>220.4</ele>
        <time>2024-05-20T06:52:09Z</time>
      </trkpt>
      <trkpt lat="43.42162" lon="1.18166">
        <ele>220.4</ele>
        <time>2024-05-20T06:52:10Z</time>
      </trkpt>
      <trkpt lat="43.42159" lon="1.18155">
        <ele>220.4</ele>
        <time>2024-05-20T06:52:11Z</time>
      </trkpt>
      <trkpt lat="43.42156" lon="1.18144">
        <ele>220.6</ele>
        <time>2024-05-20T06:52:12Z</time>
      </trkpt>
      <trkpt lat="43.42153" lon="1.18133">
        <ele>220.6</ele>
        <time>2024-05-20T06:52:13Z</time>
      </trkpt>
      <trkpt lat="43.4215" lon="1.18122">
        <ele>220.6</ele>
        <time>2024-05-20T06:52:14Z</time>
      </trkpt>
      <trkpt lat="43.42147" lon="1.18111">
        <ele>220.8</ele>
        <time>2024-05-20T06:52:15Z</time>
      </trkpt>
      <trkpt lat="43.42144" lon="1.181">
        <ele>220.8</ele>
        <time>2024-05-20T06:52:16Z</time>
      </trkpt>
      <trkpt lat="43.42141" lon="1.18089">
        <ele>221</ele>
        <time>2024-05-20T06:52:17Z</time>
      </trkpt>
      <trkpt lat="43.42138" lon="1.18078">
        <ele>221</ele>
        <time>2024-05-20T06:52:18Z</time>
      </trkpt>
      <trkpt lat="43.42135" lon="1.18067">
        <ele>221</ele>
        <time>2024-05-20T06:52:19Z</time>
      </trkpt>
      <trkpt lat="43.42132" lon="1.18055">
        <ele>221</ele>
        <time>2024-05-20T06:52:20Z</time>
      </trkpt>
      <trkpt lat="43.42129" lon="1.18044">
        <ele>221</ele>
        <time>2024-05-20T06:52:21Z</time>
      </trkpt>
      <trkpt lat="43.42126" lon="1.18033">
        <ele>221</ele>
        <time>2024-05-20T06:52:22Z</time>
      </trkpt>
      <trkpt lat="43.42123" lon="1.18021">
        <ele>221</ele>
        <time>2024-05-20T06:52:23Z</time>
      </trkpt>
      <trkpt lat="43.4212" lon="1.1801">
        <ele>221</ele>
        <time>2024-05-20T06:52:24Z</time>
      </trkpt>
      <trkpt lat="43.42118" lon="1.17999">
        <ele>221</ele>
        <time>2024-05-20T06:52:25Z</time>
      </trkpt>
      <trkpt lat="43.42116" lon="1.17987">
        <ele>221</ele>
        <time>2024-05-20T06:52:26Z</time>
      </trkpt>
      <trkpt lat="43.42115" lon="1.17976">
        <ele>221.2</ele>
        <time>2024-05-20T06:52:27Z</time>
      </trkpt>
      <trkpt lat="43.42114" lon="1.17964">
        <ele>221.2</ele>
        <time>2024-05-20T06:52:28Z</time>
      </trkpt>
      <trkpt lat="43.42113" lon="1.17952">
        <ele>221.2</ele>
        <time>2024-05-20T06:52:29Z</time>
      </trkpt>
      <trkpt lat="43.42112" lon="1.1794">
        <ele>221.2</ele>
        <time>2024-05-20T06:52:30Z</time>
      </trkpt>
      <trkpt lat="43.42111" lon="1.17927">
        <ele>221.2</ele>
        <time>2024-05-20T06:52:31Z</time>
      </trkpt>
      <trkpt lat="43.42111" lon="1.17915">
        <ele>221.2</ele>
        <time>2024-05-20T06:52:32Z</time>
      </trkpt>
      <trkpt lat="43.4211" lon="1.17902">
        <ele>221.2</ele>
        <time>2024-05-20T06:52:33Z</time>
      </trkpt>
      <trkpt lat="43.4211" lon="1.1789">
        <ele>221.4</ele>
        <time>2024-05-20T06:52:34Z</time>
      </trkpt>
      <trkpt lat="43.42109" lon="1.17879">
        <ele>221.4</ele>
        <time>2024-05-20T06:52:35Z</time>
      </trkpt>
      <trkpt lat="43.42109" lon="1.17867">
        <ele>221.4</ele>
        <time>2024-05-20T06:52:36Z</time>
      </trkpt>
      <trkpt lat="43.42109" lon="1.17856">
        <ele>221.4</ele>
        <time>2024-05-20T06:52:37Z</time>
      </trkpt>
      <trkpt lat="43.42108" lon="1.17844">
        <ele>221.6</ele>
        <time>2024-05-20T06:52:38Z</time>
      </trkpt>
      <trkpt lat="43.42108" lon="1.17832">
        <ele>221.6</ele>
        <time>2024-05-20T06:52:39Z</time>
      </trkpt>
      <trkpt lat="43.42107" lon="1.17821">
        <ele>221.6</ele>
        <time>2024-05-20T06:52:40Z</time>
      </trkpt>
      <trkpt lat="43.42107" lon="1.1781">
        <ele>221.6</ele>
        <time>2024-05-20T06:52:41Z</time>
      </trkpt>
      <trkpt lat="43.42106" lon="1.17799">
        <ele>221.8</ele>
        <time>2024-05-20T06:52:42Z</time>
      </trkpt>
      <trkpt lat="43.42106" lon="1.17788">
        <ele>221.8</ele>
        <time>2024-05-20T06:52:43Z</time>
      </trkpt>
      <trkpt lat="43.42105" lon="1.17776">
        <ele>222</ele>
        <time>2024-05-20T06:52:44Z</time>
      </trkpt>
      <trkpt lat="43.42105" lon="1.17765">
        <ele>222.2</ele>
        <time>2024-05-20T06:52:45Z</time>
      </trkpt>
      <trkpt lat="43.42105" lon="1.17753">
        <ele>222.2</ele>
        <time>2024-05-20T06:52:46Z</time>
      </trkpt>
      <trkpt lat="43.42104" lon="1.17742">
        <ele>222.2</ele>
        <time>2024-05-20T06:52:47Z</time>
      </trkpt>
      <trkpt lat="43.42104" lon="1.17731">
        <ele>222.4</ele>
        <time>2024-05-20T06:52:48Z</time>
      </trkpt>
      <trkpt lat="43.42104" lon="1.17719">
        <ele>222.4</ele>
        <time>2024-05-20T06:52:49Z</time>
      </trkpt>
      <trkpt lat="43.42103" lon="1.17707">
        <ele>222.4</ele>
        <time>2024-05-20T06:52:50Z</time>
      </trkpt>
      <trkpt lat="43.42103" lon="1.17696">
        <ele>222.4</ele>
        <time>2024-05-20T06:52:51Z</time>
      </trkpt>
      <trkpt lat="43.42103" lon="1.17684">
        <ele>222.6</ele>
        <time>2024-05-20T06:52:52Z</time>
      </trkpt>
      <trkpt lat="43.42103" lon="1.17673">
        <ele>222.6</ele>
        <time>2024-05-20T06:52:53Z</time>
      </trkpt>
      <trkpt lat="43.42103" lon="1.17662">
        <ele>222.8</ele>
        <time>2024-05-20T06:52:54Z</time>
      </trkpt>
      <trkpt lat="43.42102" lon="1.17651">
        <ele>222.8</ele>
        <time>2024-05-20T06:52:55Z</time>
      </trkpt>
      <trkpt lat="43.42102" lon="1.17641">
        <ele>222.8</ele>
        <time>2024-05-20T06:52:56Z</time>
      </trkpt>
      <trkpt lat="43.42101" lon="1.1763">
        <ele>222.8</ele>
        <time>2024-05-20T06:52:57Z</time>
      </trkpt>
      <trkpt lat="43.421" lon="1.17619">
        <ele>223</ele>
        <time>2024-05-20T06:52:58Z</time>
      </trkpt>
      <trkpt lat="43.42098" lon="1.17608">
        <ele>223</ele>
        <time>2024-05-20T06:52:59Z</time>
      </trkpt>
      <trkpt lat="43.42096" lon="1.17599">
        <ele>223.2</ele>
        <time>2024-05-20T06:53:00Z</time>
      </trkpt>
      <trkpt lat="43.42093" lon="1.17587">
        <ele>223.2</ele>
        <time>2024-05-20T06:53:01Z</time>
      </trkpt>
      <trkpt lat="43.4209" lon="1.17577">
        <ele>223.2</ele>
        <time>2024-05-20T06:53:02Z</time>
      </trkpt>
      <trkpt lat="43.42086" lon="1.17567">
        <ele>223.2</ele>
        <time>2024-05-20T06:53:03Z</time>
      </trkpt>
      <trkpt lat="43.42082" lon="1.17558">
        <ele>223.2</ele>
        <time>2024-05-20T06:53:04Z</time>
      </trkpt>
      <trkpt lat="43.42078" lon="1.1755">
        <ele>223.2</ele>
        <time>2024-05-20T06:53:05Z</time>
      </trkpt>
      <trkpt lat="43.42074" lon="1.17542">
        <ele>223.2</ele>
        <time>2024-05-20T06:53:06Z</time>
      </trkpt>
      <trkpt lat="43.4207" lon="1.17535">
        <ele>223.2</ele>
        <time>2024-05-20T06:53:07Z</time>
      </trkpt>
      <trkpt lat="43.42068" lon="1.1753">
        <ele>223</ele>
        <time>2024-05-20T06:53:08Z</time>
      </trkpt>
      <trkpt lat="43.42065" lon="1.17526">
        <ele>223</ele>
        <time>2024-05-20T06:53:09Z</time>
      </trkpt>
      <trkpt lat="43.42063" lon="1.17523">
        <ele>223</ele>
        <time>2024-05-20T06:53:10Z</time>
      </trkpt>
      <trkpt lat="43.42061" lon="1.1752">
        <ele>223</ele>
        <time>2024-05-20T06:53:11Z</time>
      </trkpt>
      <trkpt lat="43.42058" lon="1.17518">
        <ele>223.2</ele>
        <time>2024-05-20T06:53:12Z</time>
      </trkpt>
      <trkpt lat="43.42056" lon="1.17517">
        <ele>223.2</ele>
        <time>2024-05-20T06:53:13Z</time>
      </trkpt>
      <trkpt lat="43.42053" lon="1.17518">
        <ele>223.2</ele>
        <time>2024-05-20T06:53:14Z</time>
      </trkpt>
      <trkpt lat="43.4205" lon="1.1752">
        <ele>223.2</ele>
        <time>2024-05-20T06:53:15Z</time>
      </trkpt>
      <trkpt lat="43.42046" lon="1.17522">
        <ele>223.2</ele>
        <time>2024-05-20T06:53:16Z</time>
      </trkpt>
      <trkpt lat="43.42042" lon="1.17525">
        <ele>223.2</ele>
        <time>2024-05-20T06:53:17Z</time>
      </trkpt>
      <trkpt lat="43.42038" lon="1.17529">
        <ele>223.2</ele>
        <time>2024-05-20T06:53:18Z</time>
      </trkpt>
      <trkpt lat="43.42034" lon="1.17534">
        <ele>223.2</ele>
        <time>2024-05-20T06:53:19Z</time>
      </trkpt>
      <trkpt lat="43.42031" lon="1.17538">
        <ele>223.2</ele>
        <time>2024-05-20T06:53:20Z</time>
      </trkpt>
      <trkpt lat="43.42026" lon="1.17544">
        <ele>223.2</ele>
        <time>2024-05-20T06:53:21Z</time>
      </trkpt>
      <trkpt lat="43.42022" lon="1.17549">
        <ele>223.2</ele>
        <time>2024-05-20T06:53:22Z</time>
      </trkpt>
      <trkpt lat="43.42018" lon="1.17554">
        <ele>223.2</ele>
        <time>2024-05-20T06:53:23Z</time>
      </trkpt>
      <trkpt lat="43.42015" lon="1.17559">
        <ele>223.2</ele>
        <time>2024-05-20T06:53:24Z</time>
      </trkpt>
      <trkpt lat="43.4201" lon="1.17565">
        <ele>223.4</ele>
        <time>2024-05-20T06:53:25Z</time>
      </trkpt>
      <trkpt lat="43.42005" lon="1.1757">
        <ele>223.4</ele>
        <time>2024-05-20T06:53:26Z</time>
      </trkpt>
      <trkpt lat="43.42001" lon="1.17574">
        <ele>223.4</ele>
        <time>2024-05-20T06:53:27Z</time>
      </trkpt>
      <trkpt lat="43.41998" lon="1.17578">
        <ele>223.6</ele>
        <time>2024-05-20T06:53:28Z</time>
      </trkpt>
      <trkpt lat="43.41994" lon="1.17583">
        <ele>223.8</ele>
        <time>2024-05-20T06:53:29Z</time>
      </trkpt>
      <trkpt lat="43.41991" lon="1.17588">
        <ele>223.8</ele>
        <time>2024-05-20T06:53:30Z</time>
      </trkpt>
      <trkpt lat="43.41986" lon="1.17594">
        <ele>224</ele>
        <time>2024-05-20T06:53:31Z</time>
      </trkpt>
      <trkpt lat="43.41982" lon="1.17599">
        <ele>224.2</ele>
        <time>2024-05-20T06:53:32Z</time>
      </trkpt>
      <trkpt lat="43.41977" lon="1.17603">
        <ele>224.4</ele>
        <time>2024-05-20T06:53:33Z</time>
      </trkpt>
      <trkpt lat="43.41973" lon="1.17608">
        <ele>224.6</ele>
        <time>2024-05-20T06:53:34Z</time>
      </trkpt>
      <trkpt lat="43.41969" lon="1.17613">
        <ele>224.6</ele>
        <time>2024-05-20T06:53:35Z</time>
      </trkpt>
      <trkpt lat="43.41964" lon="1.17618">
        <ele>224.8</ele>
        <time>2024-05-20T06:53:36Z</time>
      </trkpt>
      <trkpt lat="43.4196" lon="1.17624">
        <ele>225.2</ele>
        <time>2024-05-20T06:53:37Z</time>
      </trkpt>
      <trkpt lat="43.41957" lon="1.17628">
        <ele>225.4</ele>
        <time>2024-05-20T06:53:38Z</time>
      </trkpt>
      <trkpt lat="43.41952" lon="1.17634">
        <ele>225.6</ele>
        <time>2024-05-20T06:53:39Z</time>
      </trkpt>
      <trkpt lat="43.41949" lon="1.17638">
        <ele>225.8</ele>
        <time>2024-05-20T06:53:40Z</time>
      </trkpt>
      <trkpt lat="43.41944" lon="1.17644">
        <ele>226</ele>
        <time>2024-05-20T06:53:41Z</time>
      </trkpt>
      <trkpt lat="43.41939" lon="1.17649">
        <ele>226</ele>
        <time>2024-05-20T06:53:42Z</time>
      </trkpt>
      <trkpt lat="43.41936" lon="1.17653">
        <ele>226</ele>
        <time>2024-05-20T06:53:43Z</time>
      </trkpt>
      <trkpt lat="43.4193" lon="1.17658">
        <ele>226.2</ele>
        <time>2024-05-20T06:53:44Z</time>
      </trkpt>
      <trkpt lat="43.41925" lon="1.1766">
        <ele>226.4</ele>
        <time>2024-05-20T06:53:45Z</time>
      </trkpt>
      <trkpt lat="43.41921" lon="1.17662">
        <ele>226.6</ele>
        <time>2024-05-20T06:53:46Z</time>
      </trkpt>
      <trkpt lat="43.41916" lon="1.17663">
        <ele>226.8</ele>
        <time>2024-05-20T06:53:47Z</time>
      </trkpt>
      <trkpt lat="43.41912" lon="1.17664">
        <ele>227.2</ele>
        <time>2024-05-20T06:53:48Z</time>
      </trkpt>
      <trkpt lat="43.41908" lon="1.17665">
        <ele>227.4</ele>
        <time>2024-05-20T06:53:49Z</time>
      </trkpt>
      <trkpt lat="43.41903" lon="1.17664">
        <ele>227.8</ele>
        <time>2024-05-20T06:53:50Z</time>
      </trkpt>
      <trkpt lat="43.41899" lon="1.17664">
        <ele>228</ele>
        <time>2024-05-20T06:53:51Z</time>
      </trkpt>
      <trkpt lat="43.41896" lon="1.17663">
        <ele>228.8</ele>
        <time>2024-05-20T06:53:52Z</time>
      </trkpt>
      <trkpt lat="43.41892" lon="1.17661">
        <ele>229.2</ele>
        <time>2024-05-20T06:53:53Z</time>
      </trkpt>
      <trkpt lat="43.41889" lon="1.17659">
        <ele>229.8</ele>
        <time>2024-05-20T06:53:54Z</time>
      </trkpt>
      <trkpt lat="43.41885" lon="1.17656">
        <ele>230.4</ele>
        <time>2024-05-20T06:53:55Z</time>
      </trkpt>
      <trkpt lat="43.41881" lon="1.17652">
        <ele>230.4</ele>
        <time>2024-05-20T06:53:56Z</time>
      </trkpt>
      <trkpt lat="43.41878" lon="1.17649">
        <ele>231</ele>
        <time>2024-05-20T06:53:57Z</time>
      </trkpt>
      <trkpt lat="43.41876" lon="1.17645">
        <ele>231.2</ele>
        <time>2024-05-20T06:53:58Z</time>
      </trkpt>
      <trkpt lat="43.41873" lon="1.17641">
        <ele>231.6</ele>
        <time>2024-05-20T06:53:59Z</time>
      </trkpt>
      <trkpt lat="43.41871" lon="1.17636">
        <ele>231.8</ele>
        <time>2024-05-20T06:54:00Z</time>
      </trkpt>
      <trkpt lat="43.41869" lon="1.17632">
        <ele>232.4</ele>
        <time>2024-05-20T06:54:01Z</time>
      </trkpt>
      <trkpt lat="43.41867" lon="1.17627">
        <ele>232.6</ele>
        <time>2024-05-20T06:54:02Z</time>
      </trkpt>
      <trkpt lat="43.41864" lon="1.17623">
        <ele>233.2</ele>
        <time>2024-05-20T06:54:03Z</time>
      </trkpt>
      <trkpt lat="43.41862" lon="1.1762">
        <ele>233.8</ele>
        <time>2024-05-20T06:54:04Z</time>
      </trkpt>
      <trkpt lat="43.41861" lon="1.17616">
        <ele>234</ele>
        <time>2024-05-20T06:54:05Z</time>
      </trkpt>
      <trkpt lat="43.41859" lon="1.17612">
        <ele>234.6</ele>
        <time>2024-05-20T06:54:06Z</time>
      </trkpt>
      <trkpt lat="43.41857" lon="1.17608">
        <ele>234.6</ele>
        <time>2024-05-20T06:54:07Z</time>
      </trkpt>
      <trkpt lat="43.41856" lon="1.17605">
        <ele>235.2</ele>
        <time>2024-05-20T06:54:08Z</time>
      </trkpt>
      <trkpt lat="43.41855" lon="1.176">
        <ele>235.4</ele>
        <time>2024-05-20T06:54:09Z</time>
      </trkpt>
      <trkpt lat="43.41854" lon="1.17595">
        <ele>235.8</ele>
        <time>2024-05-20T06:54:10Z</time>
      </trkpt>
      <trkpt lat="43.41853" lon="1.17589">
        <ele>236</ele>
        <time>2024-05-20T06:54:11Z</time>
      </trkpt>
      <trkpt lat="43.41852" lon="1.17584">
        <ele>236.4</ele>
        <time>2024-05-20T06:54:12Z</time>
      </trkpt>
      <trkpt lat="43.41851" lon="1.17579">
        <ele>236.8</ele>
        <time>2024-05-20T06:54:13Z</time>
      </trkpt>
      <trkpt lat="43.4185" lon="1.17575">
        <ele>237</ele>
        <time>2024-05-20T06:54:14Z</time>
      </trkpt>
      <trkpt lat="43.41849" lon="1.17569">
        <ele>237.4</ele>
        <time>2024-05-20T06:54:15Z</time>
      </trkpt>
      <trkpt lat="43.41848" lon="1.17564">
        <ele>237.6</ele>
        <time>2024-05-20T06:54:16Z</time>
      </trkpt>
      <trkpt lat="43.41847" lon="1.1756">
        <ele>237.8</ele>
        <time>2024-05-20T06:54:17Z</time>
      </trkpt>
      <trkpt lat="43.41846" lon="1.17556">
        <ele>238</ele>
        <time>2024-05-20T06:54:18Z</time>
      </trkpt>
      <trkpt lat="43.41845" lon="1.17551">
        <ele>238.6</ele>
        <time>2024-05-20T06:54:19Z</time>
      </trkpt>
      <trkpt lat="43.41846" lon="1.17548">
        <ele>238.8</ele>
        <time>2024-05-20T06:54:20Z</time>
      </trkpt>
      <trkpt lat="43.41846" lon="1.17541">
        <ele>239.2</ele>
        <time>2024-05-20T06:54:21Z</time>
      </trkpt>
      <trkpt lat="43.41845" lon="1.17535">
        <ele>239.8</ele>
        <time>2024-05-20T06:54:22Z</time>
      </trkpt>
      <trkpt lat="43.41843" lon="1.17529">
        <ele>239.8</ele>
        <time>2024-05-20T06:54:23Z</time>
      </trkpt>
      <trkpt lat="43.41842" lon="1.17522">
        <ele>240.2</ele>
        <time>2024-05-20T06:54:24Z</time>
      </trkpt>
      <trkpt lat="43.4184" lon="1.17517">
        <ele>240.4</ele>
        <time>2024-05-20T06:54:25Z</time>
      </trkpt>
      <trkpt lat="43.41838" lon="1.17511">
        <ele>240.8</ele>
        <time>2024-05-20T06:54:26Z</time>
      </trkpt>
      <trkpt lat="43.41836" lon="1.17504">
        <ele>241</ele>
        <time>2024-05-20T06:54:27Z</time>
      </trkpt>
      <trkpt lat="43.41834" lon="1.17497">
        <ele>241.4</ele>
        <time>2024-05-20T06:54:28Z</time>
      </trkpt>
      <trkpt lat="43.41832" lon="1.17492">
        <ele>241.6</ele>
        <time>2024-05-20T06:54:29Z</time>
      </trkpt>
      <trkpt lat="43.4183" lon="1.17486">
        <ele>242</ele>
        <time>2024-05-20T06:54:30Z</time>
      </trkpt>
      <trkpt lat="43.41827" lon="1.17481">
        <ele>242.2</ele>
        <time>2024-05-20T06:54:31Z</time>
      </trkpt>
      <trkpt lat="43.41825" lon="1.17476">
        <ele>242.6</ele>
        <time>2024-05-20T06:54:32Z</time>
      </trkpt>
      <trkpt lat="43.41822" lon="1.17472">
        <ele>243.2</ele>
        <time>2024-05-20T06:54:33Z</time>
      </trkpt>
      <trkpt lat="43.41819" lon="1.17465">
        <ele>243.6</ele>
        <time>2024-05-20T06:54:34Z</time>
      </trkpt>
      <trkpt lat="43.41816" lon="1.17458">
        <ele>244.2</ele>
        <time>2024-05-20T06:54:35Z</time>
      </trkpt>
      <trkpt lat="43.41813" lon="1.17451">
        <ele>244.4</ele>
        <time>2024-05-20T06:54:36Z</time>
      </trkpt>
      <trkpt lat="43.41812" lon="1.17445">
        <ele>244.6</ele>
        <time>2024-05-20T06:54:37Z</time>
      </trkpt>
      <trkpt lat="43.4181" lon="1.17439">
        <ele>244.8</ele>
        <time>2024-05-20T06:54:38Z</time>
      </trkpt>
      <trkpt lat="43.41808" lon="1.17433">
        <ele>245</ele>
        <time>2024-05-20T06:54:39Z</time>
      </trkpt>
      <trkpt lat="43.41807" lon="1.17425">
        <ele>245.4</ele>
        <time>2024-05-20T06:54:40Z</time>
      </trkpt>
      <trkpt lat="43.41806" lon="1.17419">
        <ele>245.6</ele>
        <time>2024-05-20T06:54:41Z</time>
      </trkpt>
      <trkpt lat="43.41803" lon="1.17412">
        <ele>245.8</ele>
        <time>2024-05-20T06:54:42Z</time>
      </trkpt>
      <trkpt lat="43.41801" lon="1.17406">
        <ele>245.8</ele>
        <time>2024-05-20T06:54:43Z</time>
      </trkpt>
      <trkpt lat="43.41799" lon="1.174">
        <ele>246</ele>
        <time>2024-05-20T06:54:44Z</time>
      </trkpt>
      <trkpt lat="43.41797" lon="1.17395">
        <ele>246.2</ele>
        <time>2024-05-20T06:54:45Z</time>
      </trkpt>
      <trkpt lat="43.41795" lon="1.17387">
        <ele>246.4</ele>
        <time>2024-05-20T06:54:46Z</time>
      </trkpt>
      <trkpt lat="43.41793" lon="1.17381">
        <ele>246.6</ele>
        <time>2024-05-20T06:54:47Z</time>
      </trkpt>
      <trkpt lat="43.41791" lon="1.17375">
        <ele>246.6</ele>
        <time>2024-05-20T06:54:48Z</time>
      </trkpt>
      <trkpt lat="43.41789" lon="1.17368">
        <ele>247</ele>
        <time>2024-05-20T06:54:49Z</time>
      </trkpt>
      <trkpt lat="43.41788" lon="1.17362">
        <ele>247.2</ele>
        <time>2024-05-20T06:54:50Z</time>
      </trkpt>
      <trkpt lat="43.41786" lon="1.17355">
        <ele>247.4</ele>
        <time>2024-05-20T06:54:51Z</time>
      </trkpt>
      <trkpt lat="43.41784" lon="1.17349">
        <ele>247.4</ele>
        <time>2024-05-20T06:54:52Z</time>
      </trkpt>
      <trkpt lat="43.41782" lon="1.17343">
        <ele>247.6</ele>
        <time>2024-05-20T06:54:53Z</time>
      </trkpt>
      <trkpt lat="43.4178" lon="1.17337">
        <ele>247.6</ele>
        <time>2024-05-20T06:54:54Z</time>
      </trkpt>
      <trkpt lat="43.41778" lon="1.1733">
        <ele>247.8</ele>
        <time>2024-05-20T06:54:55Z</time>
      </trkpt>
      <trkpt lat="43.41776" lon="1.17324">
        <ele>247.8</ele>
        <time>2024-05-20T06:54:56Z</time>
      </trkpt>
      <trkpt lat="43.41774" lon="1.17318">
        <ele>248</ele>
        <time>2024-05-20T06:54:57Z</time>
      </trkpt>
      <trkpt lat="43.41771" lon="1.17313">
        <ele>248.2</ele>
        <time>2024-05-20T06:54:58Z</time>
      </trkpt>
      <trkpt lat="43.41768" lon="1.1731">
        <ele>248.4</ele>
        <time>2024-05-20T06:54:59Z</time>
      </trkpt>
      <trkpt lat="43.41764" lon="1.17306">
        <ele>248.6</ele>
        <time>2024-05-20T06:55:00Z</time>
      </trkpt>
      <trkpt lat="43.41761" lon="1.17304">
        <ele>248.8</ele>
        <time>2024-05-20T06:55:01Z</time>
      </trkpt>
      <trkpt lat="43.41756" lon="1.17301">
        <ele>249.2</ele>
        <time>2024-05-20T06:55:02Z</time>
      </trkpt>
      <trkpt lat="43.41752" lon="1.17301">
        <ele>249.4</ele>
        <time>2024-05-20T06:55:03Z</time>
      </trkpt>
      <trkpt lat="43.41748" lon="1.173">
        <ele>249.8</ele>
        <time>2024-05-20T06:55:04Z</time>
      </trkpt>
      <trkpt lat="43.41743" lon="1.17301">
        <ele>250.2</ele>
        <time>2024-05-20T06:55:05Z</time>
      </trkpt>
      <trkpt lat="43.41738" lon="1.17301">
        <ele>250.2</ele>
        <time>2024-05-20T06:55:06Z</time>
      </trkpt>
      <trkpt lat="43.41733" lon="1.17302">
        <ele>250.4</ele>
        <time>2024-05-20T06:55:07Z</time>
      </trkpt>
      <trkpt lat="43.41728" lon="1.17303">
        <ele>250.6</ele>
        <time>2024-05-20T06:55:08Z</time>
      </trkpt>
      <trkpt lat="43.41723" lon="1.17304">
        <ele>250.8</ele>
        <time>2024-05-20T06:55:09Z</time>
      </trkpt>
      <trkpt lat="43.41719" lon="1.17305">
        <ele>251</ele>
        <time>2024-05-20T06:55:10Z</time>
      </trkpt>
      <trkpt lat="43.41714" lon="1.17307">
        <ele>251.2</ele>
        <time>2024-05-20T06:55:11Z</time>
      </trkpt>
      <trkpt lat="43.41709" lon="1.17308">
        <ele>251.2</ele>
        <time>2024-05-20T06:55:12Z</time>
      </trkpt>
      <trkpt lat="43.41705" lon="1.17309">
        <ele>251.4</ele>
        <time>2024-05-20T06:55:13Z</time>
      </trkpt>
      <trkpt lat="43.417" lon="1.17311">
        <ele>251.4</ele>
        <time>2024-05-20T06:55:14Z</time>
      </trkpt>
      <trkpt lat="43.41696" lon="1.17313">
        <ele>251.6</ele>
        <time>2024-05-20T06:55:15Z</time>
      </trkpt>
      <trkpt lat="43.41693" lon="1.17316">
        <ele>252.2</ele>
        <time>2024-05-20T06:55:16Z</time>
      </trkpt>
      <trkpt lat="43.41687" lon="1.17319">
        <ele>252.2</ele>
        <time>2024-05-20T06:55:17Z</time>
      </trkpt>
      <trkpt lat="43.41683" lon="1.17322">
        <ele>252.4</ele>
        <time>2024-05-20T06:55:18Z</time>
      </trkpt>
      <trkpt lat="43.41679" lon="1.17324">
        <ele>252.6</ele>
        <time>2024-05-20T06:55:19Z</time>
      </trkpt>
      <trkpt lat="43.41676" lon="1.17326">
        <ele>252.6</ele>
        <time>2024-05-20T06:55:20Z</time>
      </trkpt>
      <trkpt lat="43.41671" lon="1.17328">
        <ele>252.6</ele>
        <time>2024-05-20T06:55:21Z</time>
      </trkpt>
      <trkpt lat="43.41667" lon="1.17331">
        <ele>252.6</ele>
        <time>2024-05-20T06:55:22Z</time>
      </trkpt>
      <trkpt lat="43.41663" lon="1.17334">
        <ele>252.6</ele>
        <time>2024-05-20T06:55:23Z</time>
      </trkpt>
      <trkpt lat="43.41659" lon="1.17336">
        <ele>252.6</ele>
        <time>2024-05-20T06:55:24Z</time>
      </trkpt>
      <trkpt lat="43.41655" lon="1.17339">
        <ele>252.6</ele>
        <time>2024-05-20T06:55:25Z</time>
      </trkpt>
      <trkpt lat="43.4165" lon="1.17341">
        <ele>252.6</ele>
        <time>2024-05-20T06:55:26Z</time>
      </trkpt>
      <trkpt lat="43.41645" lon="1.17343">
        <ele>252.6</ele>
        <time>2024-05-20T06:55:27Z</time>
      </trkpt>
      <trkpt lat="43.41639" lon="1.17346">
        <ele>252.8</ele>
        <time>2024-05-20T06:55:28Z</time>
      </trkpt>
      <trkpt lat="43.41634" lon="1.17348">
        <ele>252.8</ele>
        <time>2024-05-20T06:55:29Z</time>
      </trkpt>
      <trkpt lat="43.41628" lon="1.17352">
        <ele>253</ele>
        <time>2024-05-20T06:55:30Z</time>
      </trkpt>
      <trkpt lat="43.41622" lon="1.17354">
        <ele>253</ele>
        <time>2024-05-20T06:55:31Z</time>
      </trkpt>
      <trkpt lat="43.41617" lon="1.17357">
        <ele>253.2</ele>
        <time>2024-05-20T06:55:32Z</time>
      </trkpt>
      <trkpt lat="43.41611" lon="1.17359">
        <ele>253.2</ele>
        <time>2024-05-20T06:55:33Z</time>
      </trkpt>
      <trkpt lat="43.41605" lon="1.1736">
        <ele>253.2</ele>
        <time>2024-05-20T06:55:34Z</time>
      </trkpt>
      <trkpt lat="43.416" lon="1.17361">
        <ele>253.2</ele>
        <time>2024-05-20T06:55:35Z</time>
      </trkpt>
      <trkpt lat="43.41593" lon="1.17363">
        <ele>253.2</ele>
        <time>2024-05-20T06:55:36Z</time>
      </trkpt>
      <trkpt lat="43.41588" lon="1.17364">
        <ele>253.2</ele>
        <time>2024-05-20T06:55:37Z</time>
      </trkpt>
      <trkpt lat="43.41582" lon="1.17364">
        <ele>253.2</ele>
        <time>2024-05-20T06:55:38Z</time>
      </trkpt>
      <trkpt lat="43.41576" lon="1.17365">
        <ele>253.2</ele>
        <time>2024-05-20T06:55:39Z</time>
      </trkpt>
      <trkpt lat="43.41571" lon="1.17365">
        <ele>253</ele>
        <time>2024-05-20T06:55:40Z</time>
      </trkpt>
      <trkpt lat="43.41565" lon="1.17365">
        <ele>253</ele>
        <time>2024-05-20T06:55:41Z</time>
      </trkpt>
      <trkpt lat="43.41559" lon="1.17366">
        <ele>253</ele>
        <time>2024-05-20T06:55:42Z</time>
      </trkpt>
      <trkpt lat="43.41554" lon="1.17365">
        <ele>253</ele>
        <time>2024-05-20T06:55:43Z</time>
      </trkpt>
      <trkpt lat="43.41548" lon="1.17365">
        <ele>252.8</ele>
        <time>2024-05-20T06:55:44Z</time>
      </trkpt>
      <trkpt lat="43.41543" lon="1.17365">
        <ele>252.8</ele>
        <time>2024-05-20T06:55:45Z</time>
      </trkpt>
      <trkpt lat="43.41536" lon="1.17365">
        <ele>252.8</ele>
        <time>2024-05-20T06:55:46Z</time>
      </trkpt>
      <trkpt lat="43.41531" lon="1.17366">
        <ele>252.8</ele>
        <time>2024-05-20T06:55:47Z</time>
      </trkpt>
      <trkpt lat="43.41525" lon="1.17367">
        <ele>252.8</ele>
        <time>2024-05-20T06:55:48Z</time>
      </trkpt>
      <trkpt lat="43.41519" lon="1.17368">
        <ele>252.6</ele>
        <time>2024-05-20T06:55:49Z</time>
      </trkpt>
      <trkpt lat="43.41514" lon="1.17368">
        <ele>252.6</ele>
        <time>2024-05-20T06:55:50Z</time>
      </trkpt>
      <trkpt lat="43.41507" lon="1.17368">
        <ele>252.6</ele>
        <time>2024-05-20T06:55:51Z</time>
      </trkpt>
      <trkpt lat="43.41501" lon="1.17369">
        <ele>252.6</ele>
        <time>2024-05-20T06:55:52Z</time>
      </trkpt>
      <trkpt lat="43.41497" lon="1.17368">
        <ele>252.4</ele>
        <time>2024-05-20T06:55:53Z</time>
      </trkpt>
      <trkpt lat="43.41491" lon="1.17368">
        <ele>252.2</ele>
        <time>2024-05-20T06:55:54Z</time>
      </trkpt>
      <trkpt lat="43.41485" lon="1.17367">
        <ele>252.2</ele>
        <time>2024-05-20T06:55:55Z</time>
      </trkpt>
      <trkpt lat="43.41478" lon="1.17365">
        <ele>252</ele>
        <time>2024-05-20T06:55:56Z</time>
      </trkpt>
      <trkpt lat="43.41474" lon="1.1736">
        <ele>252</ele>
        <time>2024-05-20T06:55:57Z</time>
      </trkpt>
      <trkpt lat="43.41471" lon="1.17355">
        <ele>251.8</ele>
        <time>2024-05-20T06:55:58Z</time>
      </trkpt>
      <trkpt lat="43.41468" lon="1.17348">
        <ele>251.6</ele>
        <time>2024-05-20T06:55:59Z</time>
      </trkpt>
      <trkpt lat="43.41467" lon="1.17343">
        <ele>251.6</ele>
        <time>2024-05-20T06:56:00Z</time>
      </trkpt>
      <trkpt lat="43.41465" lon="1.17335">
        <ele>251.6</ele>
        <time>2024-05-20T06:56:01Z</time>
      </trkpt>
      <trkpt lat="43.41463" lon="1.17328">
        <ele>251.6</ele>
        <time>2024-05-20T06:56:02Z</time>
      </trkpt>
      <trkpt lat="43.41462" lon="1.17323">
        <ele>251.6</ele>
        <time>2024-05-20T06:56:03Z</time>
      </trkpt>
      <trkpt lat="43.4146" lon="1.17317">
        <ele>251.6</ele>
        <time>2024-05-20T06:56:04Z</time>
      </trkpt>
      <trkpt lat="43.41459" lon="1.1731">
        <ele>251.6</ele>
        <time>2024-05-20T06:56:05Z</time>
      </trkpt>
      <trkpt lat="43.41456" lon="1.17303">
        <ele>251.6</ele>
        <time>2024-05-20T06:56:06Z</time>
      </trkpt>
      <trkpt lat="43.41455" lon="1.17296">
        <ele>251.6</ele>
        <time>2024-05-20T06:56:07Z</time>
      </trkpt>
      <trkpt lat="43.41453" lon="1.17289">
        <ele>251.6</ele>
        <time>2024-05-20T06:56:08Z</time>
      </trkpt>
      <trkpt lat="43.41451" lon="1.17284">
        <ele>251.6</ele>
        <time>2024-05-20T06:56:09Z</time>
      </trkpt>
      <trkpt lat="43.41448" lon="1.17277">
        <ele>251.6</ele>
        <time>2024-05-20T06:56:10Z</time>
      </trkpt>
      <trkpt lat="43.41445" lon="1.17269">
        <ele>251.6</ele>
        <time>2024-05-20T06:56:11Z</time>
      </trkpt>
      <trkpt lat="43.41443" lon="1.17262">
        <ele>251.6</ele>
        <time>2024-05-20T06:56:12Z</time>
      </trkpt>
      <trkpt lat="43.41441" lon="1.17256">
        <ele>251.6</ele>
        <time>2024-05-20T06:56:13Z</time>
      </trkpt>
      <trkpt lat="43.41438" lon="1.17249">
        <ele>251.6</ele>
        <time>2024-05-20T06:56:14Z</time>
      </trkpt>
      <trkpt lat="43.41435" lon="1.17242">
        <ele>251.6</ele>
        <time>2024-05-20T06:56:15Z</time>
      </trkpt>
      <trkpt lat="43.41432" lon="1.17233">
        <ele>251.6</ele>
        <time>2024-05-20T06:56:16Z</time>
      </trkpt>
      <trkpt lat="43.4143" lon="1.17226">
        <ele>251.8</ele>
        <time>2024-05-20T06:56:17Z</time>
      </trkpt>
      <trkpt lat="43.41428" lon="1.17219">
        <ele>251.8</ele>
        <time>2024-05-20T06:56:18Z</time>
      </trkpt>
      <trkpt lat="43.41426" lon="1.17214">
        <ele>251.8</ele>
        <time>2024-05-20T06:56:19Z</time>
      </trkpt>
      <trkpt lat="43.41423" lon="1.17206">
        <ele>251.6</ele>
        <time>2024-05-20T06:56:20Z</time>
      </trkpt>
      <trkpt lat="43.4142" lon="1.17198">
        <ele>251.6</ele>
        <time>2024-05-20T06:56:21Z</time>
      </trkpt>
      <trkpt lat="43.41418" lon="1.17191">
        <ele>251.6</ele>
        <time>2024-05-20T06:56:22Z</time>
      </trkpt>
      <trkpt lat="43.41415" lon="1.17184">
        <ele>251.6</ele>
        <time>2024-05-20T06:56:23Z</time>
      </trkpt>
      <trkpt lat="43.41413" lon="1.17177">
        <ele>251.8</ele>
        <time>2024-05-20T06:56:24Z</time>
      </trkpt>
      <trkpt lat="43.41411" lon="1.17171">
        <ele>251.8</ele>
        <time>2024-05-20T06:56:25Z</time>
      </trkpt>
      <trkpt lat="43.41407" lon="1.17162">
        <ele>251.8</ele>
        <time>2024-05-20T06:56:26Z</time>
      </trkpt>
      <trkpt lat="43.41405" lon="1.17155">
        <ele>251.8</ele>
        <time>2024-05-20T06:56:27Z</time>
      </trkpt>
      <trkpt lat="43.41402" lon="1.17147">
        <ele>251.8</ele>
        <time>2024-05-20T06:56:28Z</time>
      </trkpt>
      <trkpt lat="43.414" lon="1.1714">
        <ele>251.8</ele>
        <time>2024-05-20T06:56:29Z</time>
      </trkpt>
      <trkpt lat="43.41397" lon="1.17133">
        <ele>251.8</ele>
        <time>2024-05-20T06:56:30Z</time>
      </trkpt>
      <trkpt lat="43.41395" lon="1.17127">
        <ele>251.8</ele>
        <time>2024-05-20T06:56:31Z</time>
      </trkpt>
      <trkpt lat="43.41392" lon="1.1712">
        <ele>251.8</ele>
        <time>2024-05-20T06:56:32Z</time>
      </trkpt>
      <trkpt lat="43.4139" lon="1.17113">
        <ele>251.8</ele>
        <time>2024-05-20T06:56:33Z</time>
      </trkpt>
      <trkpt lat="43.41387" lon="1.17106">
        <ele>251.8</ele>
        <time>2024-05-20T06:56:34Z</time>
      </trkpt>
      <trkpt lat="43.41385" lon="1.171">
        <ele>251.8</ele>
        <time>2024-05-20T06:56:35Z</time>
      </trkpt>
      <trkpt lat="43.41382" lon="1.17092">
        <ele>251.8</ele>
        <time>2024-05-20T06:56:36Z</time>
      </trkpt>
      <trkpt lat="43.41379" lon="1.17084">
        <ele>251.8</ele>
        <time>2024-05-20T06:56:37Z</time>
      </trkpt>
      <trkpt lat="43.41377" lon="1.17079">
        <ele>251.8</ele>
        <time>2024-05-20T06:56:38Z</time>
      </trkpt>
      <trkpt lat="43.41373" lon="1.1707">
        <ele>251.8</ele>
        <time>2024-05-20T06:56:39Z</time>
      </trkpt>
      <trkpt lat="43.4137" lon="1.17062">
        <ele>251.8</ele>
        <time>2024-05-20T06:56:40Z</time>
      </trkpt>
      <trkpt lat="43.41367" lon="1.17055">
        <ele>252</ele>
        <time>2024-05-20T06:56:41Z</time>
      </trkpt>
      <trkpt lat="43.41364" lon="1.17047">
        <ele>252</ele>
        <time>2024-05-20T06:56:42Z</time>
      </trkpt>
      <trkpt lat="43.41361" lon="1.1704">
        <ele>252</ele>
        <time>2024-05-20T06:56:43Z</time>
      </trkpt>
      <trkpt lat="43.41358" lon="1.17035">
        <ele>252</ele>
        <time>2024-05-20T06:56:44Z</time>
      </trkpt>
      <trkpt lat="43.41354" lon="1.17026">
        <ele>252</ele>
        <time>2024-05-20T06:56:45Z</time>
      </trkpt>
      <trkpt lat="43.41351" lon="1.1702">
        <ele>252.2</ele>
        <time>2024-05-20T06:56:46Z</time>
      </trkpt>
      <trkpt lat="43.41347" lon="1.17013">
        <ele>252.4</ele>
        <time>2024-05-20T06:56:47Z</time>
      </trkpt>
      <trkpt lat="43.41344" lon="1.17006">
        <ele>252.4</ele>
        <time>2024-05-20T06:56:48Z</time>
      </trkpt>
      <trkpt lat="43.4134" lon="1.16999">
        <ele>252.6</ele>
        <time>2024-05-20T06:56:49Z</time>
      </trkpt>
      <trkpt lat="43.41338" lon="1.16994">
        <ele>252.6</ele>
        <time>2024-05-20T06:56:50Z</time>
      </trkpt>
      <trkpt lat="43.41334" lon="1.16986">
        <ele>252.6</ele>
        <time>2024-05-20T06:56:51Z</time>
      </trkpt>
      <trkpt lat="43.4133" lon="1.1698">
        <ele>252.8</ele>
        <time>2024-05-20T06:56:52Z</time>
      </trkpt>
      <trkpt lat="43.41327" lon="1.16973">
        <ele>253</ele>
        <time>2024-05-20T06:56:53Z</time>
      </trkpt>
      <trkpt lat="43.41323" lon="1.16967">
        <ele>253</ele>
        <time>2024-05-20T06:56:54Z</time>
      </trkpt>
      <trkpt lat="43.4132" lon="1.1696">
        <ele>253</ele>
        <time>2024-05-20T06:56:55Z</time>
      </trkpt>
      <trkpt lat="43.41316" lon="1.16953">
        <ele>253</ele>
        <time>2024-05-20T06:56:56Z</time>
      </trkpt>
      <trkpt lat="43.41313" lon="1.16946">
        <ele>253</ele>
        <time>2024-05-20T06:56:57Z</time>
      </trkpt>
      <trkpt lat="43.41309" lon="1.16939">
        <ele>253.2</ele>
        <time>2024-05-20T06:56:58Z</time>
      </trkpt>
      <trkpt lat="43.41306" lon="1.16932">
        <ele>253.2</ele>
        <time>2024-05-20T06:56:59Z</time>
      </trkpt>
      <trkpt lat="43.41302" lon="1.16925">
        <ele>253.2</ele>
        <time>2024-05-20T06:57:00Z</time>
      </trkpt>
      <trkpt lat="43.41299" lon="1.16918">
        <ele>253.2</ele>
        <time>2024-05-20T06:57:01Z</time>
      </trkpt>
      <trkpt lat="43.41296" lon="1.16911">
        <ele>253.2</ele>
        <time>2024-05-20T06:57:02Z</time>
      </trkpt>
      <trkpt lat="43.41292" lon="1.16905">
        <ele>253.2</ele>
        <time>2024-05-20T06:57:03Z</time>
      </trkpt>
      <trkpt lat="43.41288" lon="1.16898">
        <ele>253.4</ele>
        <time>2024-05-20T06:57:04Z</time>
      </trkpt>
      <trkpt lat="43.41285" lon="1.16891">
        <ele>253.4</ele>
        <time>2024-05-20T06:57:05Z</time>
      </trkpt>
      <trkpt lat="43.41281" lon="1.16884">
        <ele>253.6</ele>
        <time>2024-05-20T06:57:06Z</time>
      </trkpt>
      <trkpt lat="43.41278" lon="1.16878">
        <ele>253.8</ele>
        <time>2024-05-20T06:57:07Z</time>
      </trkpt>
      <trkpt lat="43.41274" lon="1.16871">
        <ele>253.8</ele>
        <time>2024-05-20T06:57:08Z</time>
      </trkpt>
      <trkpt lat="43.41271" lon="1.16864">
        <ele>254</ele>
        <time>2024-05-20T06:57:09Z</time>
      </trkpt>
      <trkpt lat="43.41267" lon="1.16857">
        <ele>254</ele>
        <time>2024-05-20T06:57:10Z</time>
      </trkpt>
      <trkpt lat="43.41264" lon="1.1685">
        <ele>254.2</ele>
        <time>2024-05-20T06:57:11Z</time>
      </trkpt>
      <trkpt lat="43.4126" lon="1.16844">
        <ele>254.2</ele>
        <time>2024-05-20T06:57:12Z</time>
      </trkpt>
      <trkpt lat="43.41257" lon="1.16837">
        <ele>254.4</ele>
        <time>2024-05-20T06:57:13Z</time>
      </trkpt>
      <trkpt lat="43.41253" lon="1.1683">
        <ele>254.4</ele>
        <time>2024-05-20T06:57:14Z</time>
      </trkpt>
      <trkpt lat="43.4125" lon="1.16823">
        <ele>254.6</ele>
        <time>2024-05-20T06:57:15Z</time>
      </trkpt>
      <trkpt lat="43.41246" lon="1.16816">
        <ele>254.6</ele>
        <time>2024-05-20T06:57:16Z</time>
      </trkpt>
      <trkpt lat="43.41243" lon="1.16809">
        <ele>254.8</ele>
        <time>2024-05-20T06:57:17Z</time>
      </trkpt>
      <trkpt lat="43.41239" lon="1.16802">
        <ele>255</ele>
        <time>2024-05-20T06:57:18Z</time>
      </trkpt>
      <trkpt lat="43.41236" lon="1.16795">
        <ele>255</ele>
        <time>2024-05-20T06:57:19Z</time>
      </trkpt>
      <trkpt lat="43.41233" lon="1.16788">
        <ele>255.2</ele>
        <time>2024-05-20T06:57:20Z</time>
      </trkpt>
      <trkpt lat="43.4123" lon="1.1678">
        <ele>255.2</ele>
        <time>2024-05-20T06:57:21Z</time>
      </trkpt>
      <trkpt lat="43.41228" lon="1.16773">
        <ele>255.2</ele>
        <time>2024-05-20T06:57:22Z</time>
      </trkpt>
      <trkpt lat="43.41225" lon="1.16765">
        <ele>255.2</ele>
        <time>2024-05-20T06:57:23Z</time>
      </trkpt>
      <trkpt lat="43.41222" lon="1.16757">
        <ele>255.2</ele>
        <time>2024-05-20T06:57:24Z</time>
      </trkpt>
      <trkpt lat="43.41219" lon="1.1675">
        <ele>255.4</ele>
        <time>2024-05-20T06:57:25Z</time>
      </trkpt>
      <trkpt lat="43.41216" lon="1.16742">
        <ele>255.4</ele>
        <time>2024-05-20T06:57:26Z</time>
      </trkpt>
      <trkpt lat="43.41213" lon="1.16734">
        <ele>255.4</ele>
        <time>2024-05-20T06:57:27Z</time>
      </trkpt>
      <trkpt lat="43.4121" lon="1.16726">
        <ele>255.4</ele>
        <time>2024-05-20T06:57:28Z</time>
      </trkpt>
      <trkpt lat="43.41207" lon="1.16718">
        <ele>255.4</ele>
        <time>2024-05-20T06:57:29Z</time>
      </trkpt>
      <trkpt lat="43.41204" lon="1.1671">
        <ele>255.4</ele>
        <time>2024-05-20T06:57:30Z</time>
      </trkpt>
      <trkpt lat="43.41201" lon="1.16702">
        <ele>255.4</ele>
        <time>2024-05-20T06:57:31Z</time>
      </trkpt>
      <trkpt lat="43.41197" lon="1.16694">
        <ele>255.4</ele>
        <time>2024-05-20T06:57:32Z</time>
      </trkpt>
      <trkpt lat="43.41194" lon="1.16685">
        <ele>255.4</ele>
        <time>2024-05-20T06:57:33Z</time>
      </trkpt>
      <trkpt lat="43.41191" lon="1.16677">
        <ele>255.4</ele>
        <time>2024-05-20T06:57:34Z</time>
      </trkpt>
      <trkpt lat="43.41188" lon="1.16669">
        <ele>255.4</ele>
        <time>2024-05-20T06:57:35Z</time>
      </trkpt>
      <trkpt lat="43.41185" lon="1.1666">
        <ele>255.4</ele>
        <time>2024-05-20T06:57:36Z</time>
      </trkpt>
      <trkpt lat="43.41181" lon="1.16652">
        <ele>255.4</ele>
        <time>2024-05-20T06:57:37Z</time>
      </trkpt>
      <trkpt lat="43.41178" lon="1.16644">
        <ele>255.4</ele>
        <time>2024-05-20T06:57:38Z</time>
      </trkpt>
      <trkpt lat="43.41175" lon="1.16635">
        <ele>255.4</ele>
        <time>2024-05-20T06:57:39Z</time>
      </trkpt>
      <trkpt lat="43.41172" lon="1.16626">
        <ele>255.4</ele>
        <time>2024-05-20T06:57:40Z</time>
      </trkpt>
      <trkpt lat="43.41168" lon="1.16618">
        <ele>255.4</ele>
        <time>2024-05-20T06:57:41Z</time>
      </trkpt>
      <trkpt lat="43.41165" lon="1.1661">
        <ele>255.4</ele>
        <time>2024-05-20T06:57:42Z</time>
      </trkpt>
      <trkpt lat="43.41161" lon="1.16601">
        <ele>255.4</ele>
        <time>2024-05-20T06:57:43Z</time>
      </trkpt>
      <trkpt lat="43.41158" lon="1.16592">
        <ele>255.4</ele>
        <time>2024-05-20T06:57:44Z</time>
      </trkpt>
      <trkpt lat="43.41154" lon="1.16584">
        <ele>255.4</ele>
        <time>2024-05-20T06:57:45Z</time>
      </trkpt>
      <trkpt lat="43.41151" lon="1.16575">
        <ele>255.4</ele>
        <time>2024-05-20T06:57:46Z</time>
      </trkpt>
      <trkpt lat="43.41147" lon="1.16566">
        <ele>255.4</ele>
        <time>2024-05-20T06:57:47Z</time>
      </trkpt>
      <trkpt lat="43.41144" lon="1.16558">
        <ele>255.4</ele>
        <time>2024-05-20T06:57:48Z</time>
      </trkpt>
      <trkpt lat="43.4114" lon="1.16549">
        <ele>255.6</ele>
        <time>2024-05-20T06:57:49Z</time>
      </trkpt>
      <trkpt lat="43.41136" lon="1.1654">
        <ele>255.6</ele>
        <time>2024-05-20T06:57:50Z</time>
      </trkpt>
      <trkpt lat="43.41133" lon="1.16532">
        <ele>255.4</ele>
        <time>2024-05-20T06:57:51Z</time>
      </trkpt>
      <trkpt lat="43.41129" lon="1.16523">
        <ele>255.4</ele>
        <time>2024-05-20T06:57:52Z</time>
      </trkpt>
      <trkpt lat="43.41126" lon="1.16514">
        <ele>255.4</ele>
        <time>2024-05-20T06:57:53Z</time>
      </trkpt>
      <trkpt lat="43.41122" lon="1.16505">
        <ele>255.4</ele>
        <time>2024-05-20T06:57:54Z</time>
      </trkpt>
      <trkpt lat="43.41119" lon="1.16496">
        <ele>255.4</ele>
        <time>2024-05-20T06:57:55Z</time>
      </trkpt>
      <trkpt lat="43.41116" lon="1.16487">
        <ele>255.4</ele>
        <time>2024-05-20T06:57:56Z</time>
      </trkpt>
      <trkpt lat="43.41112" lon="1.16479">
        <ele>255.4</ele>
        <time>2024-05-20T06:57:57Z</time>
      </trkpt>
      <trkpt lat="43.41109" lon="1.1647">
        <ele>255.4</ele>
        <time>2024-05-20T06:57:58Z</time>
      </trkpt>
      <trkpt lat="43.41105" lon="1.16461">
        <ele>255.4</ele>
        <time>2024-05-20T06:57:59Z</time>
      </trkpt>
      <trkpt lat="43.41102" lon="1.16453">
        <ele>255.2</ele>
        <time>2024-05-20T06:58:00Z</time>
      </trkpt>
      <trkpt lat="43.41098" lon="1.16444">
        <ele>255.2</ele>
        <time>2024-05-20T06:58:01Z</time>
      </trkpt>
      <trkpt lat="43.41095" lon="1.16435">
        <ele>255.2</ele>
        <time>2024-05-20T06:58:02Z</time>
      </trkpt>
      <trkpt lat="43.41091" lon="1.16427">
        <ele>255.2</ele>
        <time>2024-05-20T06:58:03Z</time>
      </trkpt>
      <trkpt lat="43.41088" lon="1.16418">
        <ele>255.2</ele>
        <time>2024-05-20T06:58:04Z</time>
      </trkpt>
      <trkpt lat="43.41084" lon="1.16409">
        <ele>255.4</ele>
        <time>2024-05-20T06:58:05Z</time>
      </trkpt>
      <trkpt lat="43.41081" lon="1.164">
        <ele>255.4</ele>
        <time>2024-05-20T06:58:06Z</time>
      </trkpt>
      <trkpt lat="43.41077" lon="1.16392">
        <ele>255.4</ele>
        <time>2024-05-20T06:58:07Z</time>
      </trkpt>
      <trkpt lat="43.41074" lon="1.16383">
        <ele>255.4</ele>
        <time>2024-05-20T06:58:08Z</time>
      </trkpt>
      <trkpt lat="43.4107" lon="1.16374">
        <ele>255.2</ele>
        <time>2024-05-20T06:58:09Z</time>
      </trkpt>
      <trkpt lat="43.41067" lon="1.16365">
        <ele>255.2</ele>
        <time>2024-05-20T06:58:10Z</time>
      </trkpt>
      <trkpt lat="43.41064" lon="1.16357">
        <ele>255.2</ele>
        <time>2024-05-20T06:58:11Z</time>
      </trkpt>
      <trkpt lat="43.41061" lon="1.16348">
        <ele>255.2</ele>
        <time>2024-05-20T06:58:12Z</time>
      </trkpt>
      <trkpt lat="43.41058" lon="1.1634">
        <ele>255.2</ele>
        <time>2024-05-20T06:58:13Z</time>
      </trkpt>
      <trkpt lat="43.41055" lon="1.16332">
        <ele>255.2</ele>
        <time>2024-05-20T06:58:14Z</time>
      </trkpt>
      <trkpt lat="43.41052" lon="1.16323">
        <ele>255.2</ele>
        <time>2024-05-20T06:58:15Z</time>
      </trkpt>
      <trkpt lat="43.41048" lon="1.16316">
        <ele>255.2</ele>
        <time>2024-05-20T06:58:16Z</time>
      </trkpt>
      <trkpt lat="43.41044" lon="1.16309">
        <ele>255</ele>
        <time>2024-05-20T06:58:17Z</time>
      </trkpt>
      <trkpt lat="43.41038" lon="1.16303">
        <ele>255</ele>
        <time>2024-05-20T06:58:18Z</time>
      </trkpt>
      <trkpt lat="43.41032" lon="1.16297">
        <ele>255</ele>
        <time>2024-05-20T06:58:19Z</time>
      </trkpt>
      <trkpt lat="43.41027" lon="1.16291">
        <ele>255</ele>
        <time>2024-05-20T06:58:20Z</time>
      </trkpt>
      <trkpt lat="43.41021" lon="1.16284">
        <ele>255</ele>
        <time>2024-05-20T06:58:21Z</time>
      </trkpt>
      <trkpt lat="43.41014" lon="1.16277">
        <ele>255</ele>
        <time>2024-05-20T06:58:22Z</time>
      </trkpt>
      <trkpt lat="43.41009" lon="1.16272">
        <ele>255</ele>
        <time>2024-05-20T06:58:23Z</time>
      </trkpt>
      <trkpt lat="43.41003" lon="1.16266">
        <ele>255</ele>
        <time>2024-05-20T06:58:24Z</time>
      </trkpt>
      <trkpt lat="43.40997" lon="1.1626">
        <ele>254.8</ele>
        <time>2024-05-20T06:58:25Z</time>
      </trkpt>
      <trkpt lat="43.4099" lon="1.16254">
        <ele>254.8</ele>
        <time>2024-05-20T06:58:26Z</time>
      </trkpt>
      <trkpt lat="43.40984" lon="1.16248">
        <ele>254.8</ele>
        <time>2024-05-20T06:58:27Z</time>
      </trkpt>
      <trkpt lat="43.40977" lon="1.16241">
        <ele>254.8</ele>
        <time>2024-05-20T06:58:28Z</time>
      </trkpt>
      <trkpt lat="43.40971" lon="1.16235">
        <ele>254.8</ele>
        <time>2024-05-20T06:58:29Z</time>
      </trkpt>
      <trkpt lat="43.40965" lon="1.16229">
        <ele>254.8</ele>
        <time>2024-05-20T06:58:30Z</time>
      </trkpt>
      <trkpt lat="43.40958" lon="1.16223">
        <ele>254.8</ele>
        <time>2024-05-20T06:58:31Z</time>
      </trkpt>
      <trkpt lat="43.40952" lon="1.16217">
        <ele>254.6</ele>
        <time>2024-05-20T06:58:32Z</time>
      </trkpt>
      <trkpt lat="43.40946" lon="1.16212">
        <ele>254.6</ele>
        <time>2024-05-20T06:58:33Z</time>
      </trkpt>
      <trkpt lat="43.4094" lon="1.16206">
        <ele>254.6</ele>
        <time>2024-05-20T06:58:34Z</time>
      </trkpt>
      <trkpt lat="43.40935" lon="1.162">
        <ele>254.6</ele>
        <time>2024-05-20T06:58:35Z</time>
      </trkpt>
      <trkpt lat="43.40928" lon="1.16194">
        <ele>254.4</ele>
        <time>2024-05-20T06:58:36Z</time>
      </trkpt>
      <trkpt lat="43.40923" lon="1.1619">
        <ele>254.4</ele>
        <time>2024-05-20T06:58:37Z</time>
      </trkpt>
      <trkpt lat="43.40917" lon="1.16184">
        <ele>254.4</ele>
        <time>2024-05-20T06:58:38Z</time>
      </trkpt>
      <trkpt lat="43.40911" lon="1.16179">
        <ele>254.2</ele>
        <time>2024-05-20T06:58:39Z</time>
      </trkpt>
      <trkpt lat="43.40905" lon="1.16174">
        <ele>254.2</ele>
        <time>2024-05-20T06:58:40Z</time>
      </trkpt>
      <trkpt lat="43.40898" lon="1.1617">
        <ele>254.2</ele>
        <time>2024-05-20T06:58:41Z</time>
      </trkpt>
      <trkpt lat="43.40892" lon="1.16166">
        <ele>254.2</ele>
        <time>2024-05-20T06:58:42Z</time>
      </trkpt>
      <trkpt lat="43.40886" lon="1.16162">
        <ele>254.2</ele>
        <time>2024-05-20T06:58:43Z</time>
      </trkpt>
      <trkpt lat="43.40879" lon="1.16158">
        <ele>254.2</ele>
        <time>2024-05-20T06:58:44Z</time>
      </trkpt>
      <trkpt lat="43.40872" lon="1.16155">
        <ele>254.4</ele>
        <time>2024-05-20T06:58:45Z</time>
      </trkpt>
      <trkpt lat="43.40866" lon="1.16151">
        <ele>254.6</ele>
        <time>2024-05-20T06:58:46Z</time>
      </trkpt>
      <trkpt lat="43.40859" lon="1.16148">
        <ele>254.6</ele>
        <time>2024-05-20T06:58:47Z</time>
      </trkpt>
      <trkpt lat="43.40852" lon="1.16144">
        <ele>254.8</ele>
        <time>2024-05-20T06:58:48Z</time>
      </trkpt>
      <trkpt lat="43.40845" lon="1.16141">
        <ele>255</ele>
        <time>2024-05-20T06:58:49Z</time>
      </trkpt>
      <trkpt lat="43.40839" lon="1.16137">
        <ele>255.2</ele>
        <time>2024-05-20T06:58:50Z</time>
      </trkpt>
      <trkpt lat="43.40832" lon="1.16133">
        <ele>255.6</ele>
        <time>2024-05-20T06:58:51Z</time>
      </trkpt>
      <trkpt lat="43.40825" lon="1.16129">
        <ele>255.6</ele>
        <time>2024-05-20T06:58:52Z</time>
      </trkpt>
      <trkpt lat="43.40818" lon="1.16125">
        <ele>255.8</ele>
        <time>2024-05-20T06:58:53Z</time>
      </trkpt>
      <trkpt lat="43.40811" lon="1.16121">
        <ele>255.8</ele>
        <time>2024-05-20T06:58:54Z</time>
      </trkpt>
      <trkpt lat="43.40805" lon="1.16117">
        <ele>255.8</ele>
        <time>2024-05-20T06:58:55Z</time>
      </trkpt>
      <trkpt lat="43.40798" lon="1.16113">
        <ele>255.8</ele>
        <time>2024-05-20T06:58:56Z</time>
      </trkpt>
      <trkpt lat="43.40791" lon="1.16108">
        <ele>256</ele>
        <time>2024-05-20T06:58:57Z</time>
      </trkpt>
      <trkpt lat="43.40784" lon="1.16103">
        <ele>255.8</ele>
        <time>2024-05-20T06:58:58Z</time>
      </trkpt>
      <trkpt lat="43.40778" lon="1.16097">
        <ele>255.8</ele>
        <time>2024-05-20T06:58:59Z</time>
      </trkpt>
      <trkpt lat="43.40772" lon="1.16092">
        <ele>255.8</ele>
        <time>2024-05-20T06:59:00Z</time>
      </trkpt>
      <trkpt lat="43.40766" lon="1.16086">
        <ele>255.8</ele>
        <time>2024-05-20T06:59:01Z</time>
      </trkpt>
      <trkpt lat="43.40759" lon="1.1608">
        <ele>255.6</ele>
        <time>2024-05-20T06:59:02Z</time>
      </trkpt>
      <trkpt lat="43.40753" lon="1.16074">
        <ele>255.6</ele>
        <time>2024-05-20T06:59:03Z</time>
      </trkpt>
      <trkpt lat="43.40747" lon="1.16068">
        <ele>255.4</ele>
        <time>2024-05-20T06:59:04Z</time>
      </trkpt>
      <trkpt lat="43.40741" lon="1.16062">
        <ele>255.2</ele>
        <time>2024-05-20T06:59:05Z</time>
      </trkpt>
      <trkpt lat="43.40734" lon="1.16056">
        <ele>255.2</ele>
        <time>2024-05-20T06:59:06Z</time>
      </trkpt>
      <trkpt lat="43.40728" lon="1.1605">
        <ele>255</ele>
        <time>2024-05-20T06:59:07Z</time>
      </trkpt>
      <trkpt lat="43.40723" lon="1.16044">
        <ele>255</ele>
        <time>2024-05-20T06:59:08Z</time>
      </trkpt>
      <trkpt lat="43.40717" lon="1.16037">
        <ele>255</ele>
        <time>2024-05-20T06:59:09Z</time>
      </trkpt>
      <trkpt lat="43.40711" lon="1.1603">
        <ele>254.8</ele>
        <time>2024-05-20T06:59:10Z</time>
      </trkpt>
      <trkpt lat="43.40706" lon="1.16023">
        <ele>254.8</ele>
        <time>2024-05-20T06:59:11Z</time>
      </trkpt>
      <trkpt lat="43.40701" lon="1.16015">
        <ele>254.8</ele>
        <time>2024-05-20T06:59:12Z</time>
      </trkpt>
      <trkpt lat="43.40697" lon="1.16007">
        <ele>254.6</ele>
        <time>2024-05-20T06:59:13Z</time>
      </trkpt>
      <trkpt lat="43.40692" lon="1.15999">
        <ele>254.6</ele>
        <time>2024-05-20T06:59:14Z</time>
      </trkpt>
      <trkpt lat="43.40687" lon="1.15991">
        <ele>254.6</ele>
        <time>2024-05-20T06:59:15Z</time>
      </trkpt>
      <trkpt lat="43.40683" lon="1.15983">
        <ele>254.6</ele>
        <time>2024-05-20T06:59:16Z</time>
      </trkpt>
      <trkpt lat="43.40678" lon="1.15975">
        <ele>254.6</ele>
        <time>2024-05-20T06:59:17Z</time>
      </trkpt>
      <trkpt lat="43.40673" lon="1.15967">
        <ele>254.6</ele>
        <time>2024-05-20T06:59:18Z</time>
      </trkpt>
      <trkpt lat="43.40668" lon="1.15959">
        <ele>254.4</ele>
        <time>2024-05-20T06:59:19Z</time>
      </trkpt>
      <trkpt lat="43.40663" lon="1.15952">
        <ele>254.4</ele>
        <time>2024-05-20T06:59:20Z</time>
      </trkpt>
      <trkpt lat="43.40658" lon="1.15944">
        <ele>254.4</ele>
        <time>2024-05-20T06:59:21Z</time>
      </trkpt>
      <trkpt lat="43.40653" lon="1.15936">
        <ele>254.4</ele>
        <time>2024-05-20T06:59:22Z</time>
      </trkpt>
      <trkpt lat="43.40647" lon="1.15927">
        <ele>254.4</ele>
        <time>2024-05-20T06:59:23Z</time>
      </trkpt>
      <trkpt lat="43.40643" lon="1.15921">
        <ele>254.4</ele>
        <time>2024-05-20T06:59:24Z</time>
      </trkpt>
      <trkpt lat="43.40638" lon="1.15914">
        <ele>254.4</ele>
        <time>2024-05-20T06:59:25Z</time>
      </trkpt>
      <trkpt lat="43.40633" lon="1.15907">
        <ele>254.4</ele>
        <time>2024-05-20T06:59:26Z</time>
      </trkpt>
      <trkpt lat="43.40628" lon="1.159">
        <ele>254.4</ele>
        <time>2024-05-20T06:59:27Z</time>
      </trkpt>
      <trkpt lat="43.40622" lon="1.15893">
        <ele>254.4</ele>
        <time>2024-05-20T06:59:28Z</time>
      </trkpt>
      <trkpt lat="43.40617" lon="1.15887">
        <ele>254.4</ele>
        <time>2024-05-20T06:59:29Z</time>
      </trkpt>
      <trkpt lat="43.40611" lon="1.15881">
        <ele>254.4</ele>
        <time>2024-05-20T06:59:30Z</time>
      </trkpt>
      <trkpt lat="43.40605" lon="1.15875">
        <ele>254.4</ele>
        <time>2024-05-20T06:59:31Z</time>
      </trkpt>
      <trkpt lat="43.406" lon="1.15868">
        <ele>254.4</ele>
        <time>2024-05-20T06:59:32Z</time>
      </trkpt>
      <trkpt lat="43.40594" lon="1.15862">
        <ele>254.4</ele>
        <time>2024-05-20T06:59:33Z</time>
      </trkpt>
      <trkpt lat="43.40589" lon="1.15854">
        <ele>254.4</ele>
        <time>2024-05-20T06:59:34Z</time>
      </trkpt>
      <trkpt lat="43.40584" lon="1.15847">
        <ele>254.4</ele>
        <time>2024-05-20T06:59:35Z</time>
      </trkpt>
      <trkpt lat="43.40579" lon="1.1584">
        <ele>254.4</ele>
        <time>2024-05-20T06:59:36Z</time>
      </trkpt>
      <trkpt lat="43.40574" lon="1.15832">
        <ele>254.6</ele>
        <time>2024-05-20T06:59:37Z</time>
      </trkpt>
      <trkpt lat="43.40569" lon="1.15825">
        <ele>254.6</ele>
        <time>2024-05-20T06:59:38Z</time>
      </trkpt>
      <trkpt lat="43.40564" lon="1.15817">
        <ele>254.6</ele>
        <time>2024-05-20T06:59:39Z</time>
      </trkpt>
      <trkpt lat="43.40559" lon="1.1581">
        <ele>254.6</ele>
        <time>2024-05-20T06:59:40Z</time>
      </trkpt>
      <trkpt lat="43.40554" lon="1.15802">
        <ele>254.6</ele>
        <time>2024-05-20T06:59:41Z</time>
      </trkpt>
      <trkpt lat="43.4055" lon="1.15795">
        <ele>254.8</ele>
        <time>2024-05-20T06:59:42Z</time>
      </trkpt>
      <trkpt lat="43.40545" lon="1.15787">
        <ele>254.8</ele>
        <time>2024-05-20T06:59:43Z</time>
      </trkpt>
      <trkpt lat="43.4054" lon="1.15779">
        <ele>254.8</ele>
        <time>2024-05-20T06:59:44Z</time>
      </trkpt>
      <trkpt lat="43.40535" lon="1.15772">
        <ele>255</ele>
        <time>2024-05-20T06:59:45Z</time>
      </trkpt>
      <trkpt lat="43.4053" lon="1.15764">
        <ele>255</ele>
        <time>2024-05-20T06:59:46Z</time>
      </trkpt>
      <trkpt lat="43.40525" lon="1.15756">
        <ele>255</ele>
        <time>2024-05-20T06:59:47Z</time>
      </trkpt>
      <trkpt lat="43.4052" lon="1.15748">
        <ele>255</ele>
        <time>2024-05-20T06:59:48Z</time>
      </trkpt>
      <trkpt lat="43.40515" lon="1.1574">
        <ele>255</ele>
        <time>2024-05-20T06:59:49Z</time>
      </trkpt>
      <trkpt lat="43.4051" lon="1.15732">
        <ele>255</ele>
        <time>2024-05-20T06:59:50Z</time>
      </trkpt>
      <trkpt lat="43.40505" lon="1.15722">
        <ele>255</ele>
        <time>2024-05-20T06:59:51Z</time>
      </trkpt>
      <trkpt lat="43.40501" lon="1.15716">
        <ele>255</ele>
        <time>2024-05-20T06:59:52Z</time>
      </trkpt>
      <trkpt lat="43.40497" lon="1.15708">
        <ele>255</ele>
        <time>2024-05-20T06:59:53Z</time>
      </trkpt>
      <trkpt lat="43.40492" lon="1.157">
        <ele>255</ele>
        <time>2024-05-20T06:59:54Z</time>
      </trkpt>
      <trkpt lat="43.40488" lon="1.15691">
        <ele>255</ele>
        <time>2024-05-20T06:59:55Z</time>
      </trkpt>
      <trkpt lat="43.40484" lon="1.15683">
        <ele>255.2</ele>
        <time>2024-05-20T06:59:56Z</time>
      </trkpt>
      <trkpt lat="43.40479" lon="1.15675">
        <ele>255.2</ele>
        <time>2024-05-20T06:59:57Z</time>
      </trkpt>
      <trkpt lat="43.40475" lon="1.15667">
        <ele>255.4</ele>
        <time>2024-05-20T06:59:58Z</time>
      </trkpt>
      <trkpt lat="43.40471" lon="1.15658">
        <ele>255.4</ele>
        <time>2024-05-20T06:59:59Z</time>
      </trkpt>
      <trkpt lat="43.40467" lon="1.1565">
        <ele>255.4</ele>
        <time>2024-05-20T07:00:00Z</time>
      </trkpt>
      <trkpt lat="43.40463" lon="1.15642">
        <ele>255.4</ele>
        <time>2024-05-20T07:00:01Z</time>
      </trkpt>
      <trkpt lat="43.40459" lon="1.15634">
        <ele>255.6</ele>
        <time>2024-05-20T07:00:02Z</time>
      </trkpt>
      <trkpt lat="43.40455" lon="1.15626">
        <ele>255.6</ele>
        <time>2024-05-20T07:00:03Z</time>
      </trkpt>
      <trkpt lat="43.40451" lon="1.15618">
        <ele>255.8</ele>
        <time>2024-05-20T07:00:04Z</time>
      </trkpt>
      <trkpt lat="43.40446" lon="1.15608">
        <ele>255.8</ele>
        <time>2024-05-20T07:00:05Z</time>
      </trkpt>
      <trkpt lat="43.40442" lon="1.15602">
        <ele>255.8</ele>
        <time>2024-05-20T07:00:06Z</time>
      </trkpt>
      <trkpt lat="43.40438" lon="1.15594">
        <ele>256</ele>
        <time>2024-05-20T07:00:07Z</time>
      </trkpt>
      <trkpt lat="43.40433" lon="1.15586">
        <ele>256.2</ele>
        <time>2024-05-20T07:00:08Z</time>
      </trkpt>
      <trkpt lat="43.40429" lon="1.15579">
        <ele>256.2</ele>
        <time>2024-05-20T07:00:09Z</time>
      </trkpt>
      <trkpt lat="43.40424" lon="1.15571">
        <ele>256.2</ele>
        <time>2024-05-20T07:00:10Z</time>
      </trkpt>
      <trkpt lat="43.40419" lon="1.15563">
        <ele>256.4</ele>
        <time>2024-05-20T07:00:11Z</time>
      </trkpt>
      <trkpt lat="43.40414" lon="1.15556">
        <ele>256.6</ele>
        <time>2024-05-20T07:00:12Z</time>
      </trkpt>
      <trkpt lat="43.4041" lon="1.15548">
        <ele>256.6</ele>
        <time>2024-05-20T07:00:13Z</time>
      </trkpt>
      <trkpt lat="43.40405" lon="1.1554">
        <ele>256.8</ele>
        <time>2024-05-20T07:00:14Z</time>
      </trkpt>
      <trkpt lat="43.40401" lon="1.15532">
        <ele>256.8</ele>
        <time>2024-05-20T07:00:15Z</time>
      </trkpt>
      <trkpt lat="43.40396" lon="1.15524">
        <ele>256.8</ele>
        <time>2024-05-20T07:00:16Z</time>
      </trkpt>
      <trkpt lat="43.40392" lon="1.15515">
        <ele>256.8</ele>
        <time>2024-05-20T07:00:17Z</time>
      </trkpt>
      <trkpt lat="43.40388" lon="1.15507">
        <ele>256.8</ele>
        <time>2024-05-20T07:00:18Z</time>
      </trkpt>
      <trkpt lat="43.40384" lon="1.15497">
        <ele>256.8</ele>
        <time>2024-05-20T07:00:19Z</time>
      </trkpt>
      <trkpt lat="43.40381" lon="1.1549">
        <ele>257</ele>
        <time>2024-05-20T07:00:20Z</time>
      </trkpt>
      <trkpt lat="43.40377" lon="1.15481">
        <ele>257</ele>
        <time>2024-05-20T07:00:21Z</time>
      </trkpt>
      <trkpt lat="43.40373" lon="1.15473">
        <ele>257</ele>
        <time>2024-05-20T07:00:22Z</time>
      </trkpt>
      <trkpt lat="43.4037" lon="1.15464">
        <ele>257</ele>
        <time>2024-05-20T07:00:23Z</time>
      </trkpt>
      <trkpt lat="43.40366" lon="1.15455">
        <ele>257</ele>
        <time>2024-05-20T07:00:24Z</time>
      </trkpt>
      <trkpt lat="43.40362" lon="1.15446">
        <ele>257.2</ele>
        <time>2024-05-20T07:00:25Z</time>
      </trkpt>
      <trkpt lat="43.40358" lon="1.15437">
        <ele>257.2</ele>
        <time>2024-05-20T07:00:26Z</time>
      </trkpt>
      <trkpt lat="43.40353" lon="1.15429">
        <ele>257.2</ele>
        <time>2024-05-20T07:00:27Z</time>
      </trkpt>
      <trkpt lat="43.40349" lon="1.1542">
        <ele>257.2</ele>
        <time>2024-05-20T07:00:28Z</time>
      </trkpt>
      <trkpt lat="43.40345" lon="1.15411">
        <ele>257</ele>
        <time>2024-05-20T07:00:29Z</time>
      </trkpt>
      <trkpt lat="43.40341" lon="1.15403">
        <ele>257</ele>
        <time>2024-05-20T07:00:30Z</time>
      </trkpt>
      <trkpt lat="43.40338" lon="1.15394">
        <ele>257</ele>
        <time>2024-05-20T07:00:31Z</time>
      </trkpt>
      <trkpt lat="43.40335" lon="1.15385">
        <ele>257</ele>
        <time>2024-05-20T07:00:32Z</time>
      </trkpt>
      <trkpt lat="43.4033" lon="1.15374">
        <ele>257</ele>
        <time>2024-05-20T07:00:33Z</time>
      </trkpt>
      <trkpt lat="43.40328" lon="1.15367">
        <ele>257</ele>
        <time>2024-05-20T07:00:34Z</time>
      </trkpt>
      <trkpt lat="43.40324" lon="1.15357">
        <ele>257</ele>
        <time>2024-05-20T07:00:35Z</time>
      </trkpt>
      <trkpt lat="43.40321" lon="1.15348">
        <ele>257</ele>
        <time>2024-05-20T07:00:36Z</time>
      </trkpt>
      <trkpt lat="43.40317" lon="1.15339">
        <ele>257</ele>
        <time>2024-05-20T07:00:37Z</time>
      </trkpt>
      <trkpt lat="43.40313" lon="1.15331">
        <ele>257</ele>
        <time>2024-05-20T07:00:38Z</time>
      </trkpt>
      <trkpt lat="43.4031" lon="1.15322">
        <ele>257</ele>
        <time>2024-05-20T07:00:39Z</time>
      </trkpt>
      <trkpt lat="43.40306" lon="1.15314">
        <ele>257</ele>
        <time>2024-05-20T07:00:40Z</time>
      </trkpt>
      <trkpt lat="43.40302" lon="1.15306">
        <ele>257</ele>
        <time>2024-05-20T07:00:41Z</time>
      </trkpt>
      <trkpt lat="43.40297" lon="1.15298">
        <ele>257</ele>
        <time>2024-05-20T07:00:42Z</time>
      </trkpt>
      <trkpt lat="43.40293" lon="1.1529">
        <ele>257.2</ele>
        <time>2024-05-20T07:00:43Z</time>
      </trkpt>
      <trkpt lat="43.40289" lon="1.15282">
        <ele>257.2</ele>
        <time>2024-05-20T07:00:44Z</time>
      </trkpt>
      <trkpt lat="43.40285" lon="1.15275">
        <ele>257.2</ele>
        <time>2024-05-20T07:00:45Z</time>
      </trkpt>
      <trkpt lat="43.4028" lon="1.15267">
        <ele>257.2</ele>
        <time>2024-05-20T07:00:46Z</time>
      </trkpt>
      <trkpt lat="43.40276" lon="1.15258">
        <ele>257.2</ele>
        <time>2024-05-20T07:00:47Z</time>
      </trkpt>
      <trkpt lat="43.40272" lon="1.15252">
        <ele>257</ele>
        <time>2024-05-20T07:00:48Z</time>
      </trkpt>
      <trkpt lat="43.40268" lon="1.15244">
        <ele>257</ele>
        <time>2024-05-20T07:00:49Z</time>
      </trkpt>
      <trkpt lat="43.40264" lon="1.15237">
        <ele>257</ele>
        <time>2024-05-20T07:00:50Z</time>
      </trkpt>
      <trkpt lat="43.40259" lon="1.15229">
        <ele>257.2</ele>
        <time>2024-05-20T07:00:51Z</time>
      </trkpt>
      <trkpt lat="43.40255" lon="1.15221">
        <ele>257.2</ele>
        <time>2024-05-20T07:00:52Z</time>
      </trkpt>
      <trkpt lat="43.4025" lon="1.15213">
        <ele>257.2</ele>
        <time>2024-05-20T07:00:53Z</time>
      </trkpt>
      <trkpt lat="43.40246" lon="1.15205">
        <ele>257.2</ele>
        <time>2024-05-20T07:00:54Z</time>
      </trkpt>
      <trkpt lat="43.40241" lon="1.15197">
        <ele>257</ele>
        <time>2024-05-20T07:00:55Z</time>
      </trkpt>
      <trkpt lat="43.40236" lon="1.15189">
        <ele>257.2</ele>
        <time>2024-05-20T07:00:56Z</time>
      </trkpt>
      <trkpt lat="43.40231" lon="1.15182">
        <ele>257.2</ele>
        <time>2024-05-20T07:00:57Z</time>
      </trkpt>
      <trkpt lat="43.40226" lon="1.15174">
        <ele>257.2</ele>
        <time>2024-05-20T07:00:58Z</time>
      </trkpt>
      <trkpt lat="43.40222" lon="1.15166">
        <ele>257.2</ele>
        <time>2024-05-20T07:00:59Z</time>
      </trkpt>
      <trkpt lat="43.40217" lon="1.15158">
        <ele>257.2</ele>
        <time>2024-05-20T07:01:00Z</time>
      </trkpt>
      <trkpt lat="43.40212" lon="1.1515">
        <ele>257.2</ele>
        <time>2024-05-20T07:01:01Z</time>
      </trkpt>
      <trkpt lat="43.40208" lon="1.15142">
        <ele>257.2</ele>
        <time>2024-05-20T07:01:02Z</time>
      </trkpt>
      <trkpt lat="43.40204" lon="1.15135">
        <ele>257.2</ele>
        <time>2024-05-20T07:01:03Z</time>
      </trkpt>
      <trkpt lat="43.40199" lon="1.15127">
        <ele>257.2</ele>
        <time>2024-05-20T07:01:04Z</time>
      </trkpt>
      <trkpt lat="43.40195" lon="1.15119">
        <ele>257.2</ele>
        <time>2024-05-20T07:01:05Z</time>
      </trkpt>
      <trkpt lat="43.4019" lon="1.15111">
        <ele>257.2</ele>
        <time>2024-05-20T07:01:06Z</time>
      </trkpt>
      <trkpt lat="43.40185" lon="1.15102">
        <ele>257.2</ele>
        <time>2024-05-20T07:01:07Z</time>
      </trkpt>
      <trkpt lat="43.40181" lon="1.15094">
        <ele>257.2</ele>
        <time>2024-05-20T07:01:08Z</time>
      </trkpt>
      <trkpt lat="43.40175" lon="1.15086">
        <ele>257.2</ele>
        <time>2024-05-20T07:01:09Z</time>
      </trkpt>
      <trkpt lat="43.4017" lon="1.15079">
        <ele>257.2</ele>
        <time>2024-05-20T07:01:10Z</time>
      </trkpt>
      <trkpt lat="43.40164" lon="1.15072">
        <ele>257.2</ele>
        <time>2024-05-20T07:01:11Z</time>
      </trkpt>
      <trkpt lat="43.40158" lon="1.15066">
        <ele>257.2</ele>
        <time>2024-05-20T07:01:12Z</time>
      </trkpt>
      <trkpt lat="43.4015" lon="1.1506">
        <ele>257.4</ele>
        <time>2024-05-20T07:01:13Z</time>
      </trkpt>
      <trkpt lat="43.40144" lon="1.15055">
        <ele>257.4</ele>
        <time>2024-05-20T07:01:14Z</time>
      </trkpt>
      <trkpt lat="43.40137" lon="1.15049">
        <ele>257.4</ele>
        <time>2024-05-20T07:01:15Z</time>
      </trkpt>
      <trkpt lat="43.4013" lon="1.15044">
        <ele>257.4</ele>
        <time>2024-05-20T07:01:16Z</time>
      </trkpt>
      <trkpt lat="43.40123" lon="1.15038">
        <ele>257.4</ele>
        <time>2024-05-20T07:01:17Z</time>
      </trkpt>
      <trkpt lat="43.40117" lon="1.15032">
        <ele>257.6</ele>
        <time>2024-05-20T07:01:18Z</time>
      </trkpt>
      <trkpt lat="43.4011" lon="1.15026">
        <ele>257.6</ele>
        <time>2024-05-20T07:01:19Z</time>
      </trkpt>
      <trkpt lat="43.40103" lon="1.15017">
        <ele>257.6</ele>
        <time>2024-05-20T07:01:20Z</time>
      </trkpt>
      <trkpt lat="43.401" lon="1.1501">
        <ele>257.8</ele>
        <time>2024-05-20T07:01:21Z</time>
      </trkpt>
      <trkpt lat="43.40096" lon="1.15">
        <ele>257.8</ele>
        <time>2024-05-20T07:01:22Z</time>
      </trkpt>
      <trkpt lat="43.40092" lon="1.1499">
        <ele>257.8</ele>
        <time>2024-05-20T07:01:23Z</time>
      </trkpt>
      <trkpt lat="43.40089" lon="1.1498">
        <ele>257.8</ele>
        <time>2024-05-20T07:01:24Z</time>
      </trkpt>
      <trkpt lat="43.40086" lon="1.1497">
        <ele>257.8</ele>
        <time>2024-05-20T07:01:25Z</time>
      </trkpt>
      <trkpt lat="43.40083" lon="1.1496">
        <ele>258</ele>
        <time>2024-05-20T07:01:26Z</time>
      </trkpt>
      <trkpt lat="43.4008" lon="1.14949">
        <ele>258</ele>
        <time>2024-05-20T07:01:27Z</time>
      </trkpt>
      <trkpt lat="43.40077" lon="1.14939">
        <ele>258</ele>
        <time>2024-05-20T07:01:28Z</time>
      </trkpt>
      <trkpt lat="43.40075" lon="1.14929">
        <ele>258.2</ele>
        <time>2024-05-20T07:01:29Z</time>
      </trkpt>
      <trkpt lat="43.40072" lon="1.14919">
        <ele>258.2</ele>
        <time>2024-05-20T07:01:30Z</time>
      </trkpt>
      <trkpt lat="43.40068" lon="1.1491">
        <ele>258.4</ele>
        <time>2024-05-20T07:01:31Z</time>
      </trkpt>
      <trkpt lat="43.40064" lon="1.14901">
        <ele>258.4</ele>
        <time>2024-05-20T07:01:32Z</time>
      </trkpt>
      <trkpt lat="43.40059" lon="1.14892">
        <ele>258.4</ele>
        <time>2024-05-20T07:01:33Z</time>
      </trkpt>
      <trkpt lat="43.40052" lon="1.14884">
        <ele>258.4</ele>
        <time>2024-05-20T07:01:34Z</time>
      </trkpt>
      <trkpt lat="43.40047" lon="1.14878">
        <ele>258.4</ele>
        <time>2024-05-20T07:01:35Z</time>
      </trkpt>
      <trkpt lat="43.40041" lon="1.14872">
        <ele>258.4</ele>
        <time>2024-05-20T07:01:36Z</time>
      </trkpt>
      <trkpt lat="43.40034" lon="1.14865">
        <ele>258.4</ele>
        <time>2024-05-20T07:01:37Z</time>
      </trkpt>
      <trkpt lat="43.40028" lon="1.14859">
        <ele>258.2</ele>
        <time>2024-05-20T07:01:38Z</time>
      </trkpt>
      <trkpt lat="43.40021" lon="1.14854">
        <ele>258.4</ele>
        <time>2024-05-20T07:01:39Z</time>
      </trkpt>
      <trkpt lat="43.40015" lon="1.14847">
        <ele>258.4</ele>
        <time>2024-05-20T07:01:40Z</time>
      </trkpt>
      <trkpt lat="43.40009" lon="1.14841">
        <ele>258.4</ele>
        <time>2024-05-20T07:01:41Z</time>
      </trkpt>
      <trkpt lat="43.40002" lon="1.14834">
        <ele>258.6</ele>
        <time>2024-05-20T07:01:42Z</time>
      </trkpt>
      <trkpt lat="43.39996" lon="1.14826">
        <ele>258.8</ele>
        <time>2024-05-20T07:01:43Z</time>
      </trkpt>
      <trkpt lat="43.39989" lon="1.14819">
        <ele>258.8</ele>
        <time>2024-05-20T07:01:44Z</time>
      </trkpt>
      <trkpt lat="43.39983" lon="1.14812">
        <ele>259</ele>
        <time>2024-05-20T07:01:45Z</time>
      </trkpt>
      <trkpt lat="43.39977" lon="1.14804">
        <ele>259</ele>
        <time>2024-05-20T07:01:46Z</time>
      </trkpt>
      <trkpt lat="43.39971" lon="1.14797">
        <ele>259</ele>
        <time>2024-05-20T07:01:47Z</time>
      </trkpt>
      <trkpt lat="43.39965" lon="1.14789">
        <ele>259.2</ele>
        <time>2024-05-20T07:01:48Z</time>
      </trkpt>
      <trkpt lat="43.39959" lon="1.14782">
        <ele>259.2</ele>
        <time>2024-05-20T07:01:49Z</time>
      </trkpt>
      <trkpt lat="43.39954" lon="1.14775">
        <ele>259.2</ele>
        <time>2024-05-20T07:01:50Z</time>
      </trkpt>
      <trkpt lat="43.39948" lon="1.14767">
        <ele>259.2</ele>
        <time>2024-05-20T07:01:51Z</time>
      </trkpt>
      <trkpt lat="43.39943" lon="1.14758">
        <ele>259.4</ele>
        <time>2024-05-20T07:01:52Z</time>
      </trkpt>
      <trkpt lat="43.39939" lon="1.14749">
        <ele>259.4</ele>
        <time>2024-05-20T07:01:53Z</time>
      </trkpt>
      <trkpt lat="43.39935" lon="1.14739">
        <ele>259.4</ele>
        <time>2024-05-20T07:01:54Z</time>
      </trkpt>
      <trkpt lat="43.39931" lon="1.14729">
        <ele>259.4</ele>
        <time>2024-05-20T07:01:55Z</time>
      </trkpt>
      <trkpt lat="43.39927" lon="1.14718">
        <ele>259.4</ele>
        <time>2024-05-20T07:01:56Z</time>
      </trkpt>
      <trkpt lat="43.39924" lon="1.14708">
        <ele>259.4</ele>
        <time>2024-05-20T07:01:57Z</time>
      </trkpt>
      <trkpt lat="43.3992" lon="1.14697">
        <ele>259.4</ele>
        <time>2024-05-20T07:01:58Z</time>
      </trkpt>
      <trkpt lat="43.39917" lon="1.14689">
        <ele>259.2</ele>
        <time>2024-05-20T07:01:59Z</time>
      </trkpt>
      <trkpt lat="43.39913" lon="1.14679">
        <ele>259.2</ele>
        <time>2024-05-20T07:02:00Z</time>
      </trkpt>
      <trkpt lat="43.3991" lon="1.14669">
        <ele>259.2</ele>
        <time>2024-05-20T07:02:01Z</time>
      </trkpt>
      <trkpt lat="43.39906" lon="1.14659">
        <ele>259.2</ele>
        <time>2024-05-20T07:02:02Z</time>
      </trkpt>
      <trkpt lat="43.39903" lon="1.14649">
        <ele>259.2</ele>
        <time>2024-05-20T07:02:03Z</time>
      </trkpt>
      <trkpt lat="43.39899" lon="1.1464">
        <ele>259.2</ele>
        <time>2024-05-20T07:02:04Z</time>
      </trkpt>
      <trkpt lat="43.39896" lon="1.1463">
        <ele>259.2</ele>
        <time>2024-05-20T07:02:05Z</time>
      </trkpt>
      <trkpt lat="43.39892" lon="1.1462">
        <ele>259.2</ele>
        <time>2024-05-20T07:02:06Z</time>
      </trkpt>
      <trkpt lat="43.39889" lon="1.1461">
        <ele>259.2</ele>
        <time>2024-05-20T07:02:07Z</time>
      </trkpt>
      <trkpt lat="43.39885" lon="1.14601">
        <ele>259.2</ele>
        <time>2024-05-20T07:02:08Z</time>
      </trkpt>
      <trkpt lat="43.39882" lon="1.14592">
        <ele>259.2</ele>
        <time>2024-05-20T07:02:09Z</time>
      </trkpt>
      <trkpt lat="43.39878" lon="1.14583">
        <ele>259.4</ele>
        <time>2024-05-20T07:02:10Z</time>
      </trkpt>
      <trkpt lat="43.39875" lon="1.14575">
        <ele>259.4</ele>
        <time>2024-05-20T07:02:11Z</time>
      </trkpt>
      <trkpt lat="43.39871" lon="1.14565">
        <ele>259.4</ele>
        <time>2024-05-20T07:02:12Z</time>
      </trkpt>
      <trkpt lat="43.3987" lon="1.14559">
        <ele>259.4</ele>
        <time>2024-05-20T07:02:13Z</time>
      </trkpt>
      <trkpt lat="43.39867" lon="1.14552">
        <ele>259.4</ele>
        <time>2024-05-20T07:02:14Z</time>
      </trkpt>
      <trkpt lat="43.39866" lon="1.14546">
        <ele>259.4</ele>
        <time>2024-05-20T07:02:15Z</time>
      </trkpt>
      <trkpt lat="43.39864" lon="1.14541">
        <ele>259.4</ele>
        <time>2024-05-20T07:02:16Z</time>
      </trkpt>
      <trkpt lat="43.39863" lon="1.14537">
        <ele>259.4</ele>
        <time>2024-05-20T07:02:17Z</time>
      </trkpt>
      <trkpt lat="43.39862" lon="1.14533">
        <ele>259.4</ele>
        <time>2024-05-20T07:02:18Z</time>
      </trkpt>
      <trkpt lat="43.39861" lon="1.14529">
        <ele>259.4</ele>
        <time>2024-05-20T07:02:19Z</time>
      </trkpt>
      <trkpt lat="43.39862" lon="1.14525">
        <ele>259.4</ele>
        <time>2024-05-20T07:02:20Z</time>
      </trkpt>
      <trkpt lat="43.39864" lon="1.14521">
        <ele>259.4</ele>
        <time>2024-05-20T07:02:21Z</time>
      </trkpt>
      <trkpt lat="43.39867" lon="1.14519">
        <ele>259.4</ele>
        <time>2024-05-20T07:02:22Z</time>
      </trkpt>
      <trkpt lat="43.39871" lon="1.14516">
        <ele>259.6</ele>
        <time>2024-05-20T07:02:23Z</time>
      </trkpt>
      <trkpt lat="43.39876" lon="1.14513">
        <ele>259.6</ele>
        <time>2024-05-20T07:02:24Z</time>
      </trkpt>
      <trkpt lat="43.3988" lon="1.14509">
        <ele>259.6</ele>
        <time>2024-05-20T07:02:25Z</time>
      </trkpt>
      <trkpt lat="43.39884" lon="1.14505">
        <ele>259.6</ele>
        <time>2024-05-20T07:02:26Z</time>
      </trkpt>
      <trkpt lat="43.39889" lon="1.14501">
        <ele>259.6</ele>
        <time>2024-05-20T07:02:27Z</time>
      </trkpt>
      <trkpt lat="43.39893" lon="1.14497">
        <ele>259.6</ele>
        <time>2024-05-20T07:02:28Z</time>
      </trkpt>
      <trkpt lat="43.39897" lon="1.14493">
        <ele>259.6</ele>
        <time>2024-05-20T07:02:29Z</time>
      </trkpt>
      <trkpt lat="43.39902" lon="1.14489">
        <ele>259.8</ele>
        <time>2024-05-20T07:02:30Z</time>
      </trkpt>
      <trkpt lat="43.39907" lon="1.14485">
        <ele>259.8</ele>
        <time>2024-05-20T07:02:31Z</time>
      </trkpt>
      <trkpt lat="43.39911" lon="1.14481">
        <ele>259.8</ele>
        <time>2024-05-20T07:02:32Z</time>
      </trkpt>
      <trkpt lat="43.39916" lon="1.14476">
        <ele>259.8</ele>
        <time>2024-05-20T07:02:33Z</time>
      </trkpt>
      <trkpt lat="43.39921" lon="1.14472">
        <ele>259.8</ele>
        <time>2024-05-20T07:02:34Z</time>
      </trkpt>
      <trkpt lat="43.39926" lon="1.14467">
        <ele>260</ele>
        <time>2024-05-20T07:02:35Z</time>
      </trkpt>
      <trkpt lat="43.39931" lon="1.14462">
        <ele>260</ele>
        <time>2024-05-20T07:02:36Z</time>
      </trkpt>
      <trkpt lat="43.39936" lon="1.14457">
        <ele>260</ele>
        <time>2024-05-20T07:02:37Z</time>
      </trkpt>
      <trkpt lat="43.39942" lon="1.14452">
        <ele>260</ele>
        <time>2024-05-20T07:02:38Z</time>
      </trkpt>
      <trkpt lat="43.39947" lon="1.14447">
        <ele>260</ele>
        <time>2024-05-20T07:02:39Z</time>
      </trkpt>
      <trkpt lat="43.39953" lon="1.14442">
        <ele>260</ele>
        <time>2024-05-20T07:02:40Z</time>
      </trkpt>
      <trkpt lat="43.39958" lon="1.14437">
        <ele>260</ele>
        <time>2024-05-20T07:02:41Z</time>
      </trkpt>
      <trkpt lat="43.39964" lon="1.14432">
        <ele>260</ele>
        <time>2024-05-20T07:02:42Z</time>
      </trkpt>
      <trkpt lat="43.39969" lon="1.14427">
        <ele>260</ele>
        <time>2024-05-20T07:02:43Z</time>
      </trkpt>
      <trkpt lat="43.39975" lon="1.14421">
        <ele>260</ele>
        <time>2024-05-20T07:02:44Z</time>
      </trkpt>
      <trkpt lat="43.39981" lon="1.14416">
        <ele>260</ele>
        <time>2024-05-20T07:02:45Z</time>
      </trkpt>
      <trkpt lat="43.39987" lon="1.14411">
        <ele>260</ele>
        <time>2024-05-20T07:02:46Z</time>
      </trkpt>
      <trkpt lat="43.39993" lon="1.14406">
        <ele>260.2</ele>
        <time>2024-05-20T07:02:47Z</time>
      </trkpt>
      <trkpt lat="43.39998" lon="1.14401">
        <ele>260.2</ele>
        <time>2024-05-20T07:02:48Z</time>
      </trkpt>
      <trkpt lat="43.40004" lon="1.14396">
        <ele>260.2</ele>
        <time>2024-05-20T07:02:49Z</time>
      </trkpt>
      <trkpt lat="43.4001" lon="1.1439">
        <ele>260.2</ele>
        <time>2024-05-20T07:02:50Z</time>
      </trkpt>
      <trkpt lat="43.40015" lon="1.14385">
        <ele>260.2</ele>
        <time>2024-05-20T07:02:51Z</time>
      </trkpt>
      <trkpt lat="43.40021" lon="1.1438">
        <ele>260.2</ele>
        <time>2024-05-20T07:02:52Z</time>
      </trkpt>
      <trkpt lat="43.40026" lon="1.14375">
        <ele>260.2</ele>
        <time>2024-05-20T07:02:53Z</time>
      </trkpt>
      <trkpt lat="43.40032" lon="1.14371">
        <ele>260.2</ele>
        <time>2024-05-20T07:02:54Z</time>
      </trkpt>
      <trkpt lat="43.40037" lon="1.14366">
        <ele>260.2</ele>
        <time>2024-05-20T07:02:55Z</time>
      </trkpt>
      <trkpt lat="43.40041" lon="1.14363">
        <ele>260.2</ele>
        <time>2024-05-20T07:02:56Z</time>
      </trkpt>
      <trkpt lat="43.40045" lon="1.14359">
        <ele>260.2</ele>
        <time>2024-05-20T07:02:57Z</time>
      </trkpt>
      <trkpt lat="43.40048" lon="1.14356">
        <ele>260.2</ele>
        <time>2024-05-20T07:02:58Z</time>
      </trkpt>
      <trkpt lat="43.40051" lon="1.14352">
        <ele>260.2</ele>
        <time>2024-05-20T07:02:59Z</time>
      </trkpt>
      <trkpt lat="43.40054" lon="1.14348">
        <ele>260.2</ele>
        <time>2024-05-20T07:03:00Z</time>
      </trkpt>
      <trkpt lat="43.40054" lon="1.14343">
        <ele>260.2</ele>
        <time>2024-05-20T07:03:01Z</time>
      </trkpt>
      <trkpt lat="43.40053" lon="1.14338">
        <ele>260.2</ele>
        <time>2024-05-20T07:03:02Z</time>
      </trkpt>
      <trkpt lat="43.40052" lon="1.14333">
        <ele>260.2</ele>
        <time>2024-05-20T07:03:03Z</time>
      </trkpt>
      <trkpt lat="43.4005" lon="1.14328">
        <ele>260.2</ele>
        <time>2024-05-20T07:03:04Z</time>
      </trkpt>
      <trkpt lat="43.40048" lon="1.14322">
        <ele>260.2</ele>
        <time>2024-05-20T07:03:05Z</time>
      </trkpt>
      <trkpt lat="43.40046" lon="1.14316">
        <ele>260.2</ele>
        <time>2024-05-20T07:03:06Z</time>
      </trkpt>
      <trkpt lat="43.40045" lon="1.14309">
        <ele>260.2</ele>
        <time>2024-05-20T07:03:07Z</time>
      </trkpt>
      <trkpt lat="43.40043" lon="1.14302">
        <ele>260.2</ele>
        <time>2024-05-20T07:03:08Z</time>
      </trkpt>
      <trkpt lat="43.40042" lon="1.14296">
        <ele>260.2</ele>
        <time>2024-05-20T07:03:09Z</time>
      </trkpt>
      <trkpt lat="43.4004" lon="1.14289">
        <ele>260.2</ele>
        <time>2024-05-20T07:03:10Z</time>
      </trkpt>
      <trkpt lat="43.40039" lon="1.14281">
        <ele>260.2</ele>
        <time>2024-05-20T07:03:11Z</time>
      </trkpt>
      <trkpt lat="43.40037" lon="1.14274">
        <ele>260.2</ele>
        <time>2024-05-20T07:03:12Z</time>
      </trkpt>
      <trkpt lat="43.40035" lon="1.14266">
        <ele>260.4</ele>
        <time>2024-05-20T07:03:13Z</time>
      </trkpt>
      <trkpt lat="43.40034" lon="1.14259">
        <ele>260.2</ele>
        <time>2024-05-20T07:03:14Z</time>
      </trkpt>
      <trkpt lat="43.40032" lon="1.14251">
        <ele>260.4</ele>
        <time>2024-05-20T07:03:15Z</time>
      </trkpt>
      <trkpt lat="43.4003" lon="1.14243">
        <ele>260.4</ele>
        <time>2024-05-20T07:03:16Z</time>
      </trkpt>
      <trkpt lat="43.40028" lon="1.14236">
        <ele>260.4</ele>
        <time>2024-05-20T07:03:17Z</time>
      </trkpt>
      <trkpt lat="43.40026" lon="1.14228">
        <ele>260.4</ele>
        <time>2024-05-20T07:03:18Z</time>
      </trkpt>
      <trkpt lat="43.40024" lon="1.1422">
        <ele>260.4</ele>
        <time>2024-05-20T07:03:19Z</time>
      </trkpt>
      <trkpt lat="43.40023" lon="1.14212">
        <ele>260.4</ele>
        <time>2024-05-20T07:03:20Z</time>
      </trkpt>
      <trkpt lat="43.40021" lon="1.14204">
        <ele>260.6</ele>
        <time>2024-05-20T07:03:21Z</time>
      </trkpt>
      <trkpt lat="43.40019" lon="1.14196">
        <ele>260.6</ele>
        <time>2024-05-20T07:03:22Z</time>
      </trkpt>
      <trkpt lat="43.40017" lon="1.14187">
        <ele>260.6</ele>
        <time>2024-05-20T07:03:23Z</time>
      </trkpt>
      <trkpt lat="43.40015" lon="1.14179">
        <ele>260.6</ele>
        <time>2024-05-20T07:03:24Z</time>
      </trkpt>
      <trkpt lat="43.40013" lon="1.1417">
        <ele>260.6</ele>
        <time>2024-05-20T07:03:25Z</time>
      </trkpt>
      <trkpt lat="43.40011" lon="1.14162">
        <ele>260.6</ele>
        <time>2024-05-20T07:03:26Z</time>
      </trkpt>
      <trkpt lat="43.40009" lon="1.14152">
        <ele>260.6</ele>
        <time>2024-05-20T07:03:27Z</time>
      </trkpt>
      <trkpt lat="43.40007" lon="1.14145">
        <ele>260.6</ele>
        <time>2024-05-20T07:03:28Z</time>
      </trkpt>
      <trkpt lat="43.40005" lon="1.14136">
        <ele>260.6</ele>
        <time>2024-05-20T07:03:29Z</time>
      </trkpt>
      <trkpt lat="43.40003" lon="1.14127">
        <ele>260.6</ele>
        <time>2024-05-20T07:03:30Z</time>
      </trkpt>
      <trkpt lat="43.40001" lon="1.14119">
        <ele>260.8</ele>
        <time>2024-05-20T07:03:31Z</time>
      </trkpt>
      <trkpt lat="43.4" lon="1.1411">
        <ele>260.8</ele>
        <time>2024-05-20T07:03:32Z</time>
      </trkpt>
      <trkpt lat="43.39998" lon="1.14102">
        <ele>260.8</ele>
        <time>2024-05-20T07:03:33Z</time>
      </trkpt>
      <trkpt lat="43.39996" lon="1.14094">
        <ele>261</ele>
        <time>2024-05-20T07:03:34Z</time>
      </trkpt>
      <trkpt lat="43.39994" lon="1.14086">
        <ele>261</ele>
        <time>2024-05-20T07:03:35Z</time>
      </trkpt>
      <trkpt lat="43.39992" lon="1.14078">
        <ele>261</ele>
        <time>2024-05-20T07:03:36Z</time>
      </trkpt>
      <trkpt lat="43.3999" lon="1.1407">
        <ele>261</ele>
        <time>2024-05-20T07:03:37Z</time>
      </trkpt>
      <trkpt lat="43.39989" lon="1.14062">
        <ele>261.2</ele>
        <time>2024-05-20T07:03:38Z</time>
      </trkpt>
      <trkpt lat="43.39987" lon="1.14054">
        <ele>261.2</ele>
        <time>2024-05-20T07:03:39Z</time>
      </trkpt>
      <trkpt lat="43.39985" lon="1.14046">
        <ele>261.2</ele>
        <time>2024-05-20T07:03:40Z</time>
      </trkpt>
      <trkpt lat="43.39983" lon="1.14037">
        <ele>261.2</ele>
        <time>2024-05-20T07:03:41Z</time>
      </trkpt>
      <trkpt lat="43.39981" lon="1.14029">
        <ele>261.2</ele>
        <time>2024-05-20T07:03:42Z</time>
      </trkpt>
      <trkpt lat="43.39979" lon="1.1402">
        <ele>261.2</ele>
        <time>2024-05-20T07:03:43Z</time>
      </trkpt>
      <trkpt lat="43.39976" lon="1.14012">
        <ele>261.2</ele>
        <time>2024-05-20T07:03:44Z</time>
      </trkpt>
      <trkpt lat="43.39975" lon="1.14003">
        <ele>261.2</ele>
        <time>2024-05-20T07:03:45Z</time>
      </trkpt>
      <trkpt lat="43.39973" lon="1.13995">
        <ele>261.2</ele>
        <time>2024-05-20T07:03:46Z</time>
      </trkpt>
      <trkpt lat="43.39971" lon="1.13987">
        <ele>261.2</ele>
        <time>2024-05-20T07:03:47Z</time>
      </trkpt>
      <trkpt lat="43.39969" lon="1.13978">
        <ele>261.2</ele>
        <time>2024-05-20T07:03:48Z</time>
      </trkpt>
      <trkpt lat="43.39968" lon="1.1397">
        <ele>261.2</ele>
        <time>2024-05-20T07:03:49Z</time>
      </trkpt>
      <trkpt lat="43.39966" lon="1.13961">
        <ele>261.2</ele>
        <time>2024-05-20T07:03:50Z</time>
      </trkpt>
      <trkpt lat="43.39964" lon="1.13952">
        <ele>261.2</ele>
        <time>2024-05-20T07:03:51Z</time>
      </trkpt>
      <trkpt lat="43.39963" lon="1.13944">
        <ele>261.2</ele>
        <time>2024-05-20T07:03:52Z</time>
      </trkpt>
      <trkpt lat="43.39961" lon="1.13935">
        <ele>261.2</ele>
        <time>2024-05-20T07:03:53Z</time>
      </trkpt>
      <trkpt lat="43.3996" lon="1.13927">
        <ele>261.2</ele>
        <time>2024-05-20T07:03:54Z</time>
      </trkpt>
      <trkpt lat="43.39959" lon="1.13918">
        <ele>261.2</ele>
        <time>2024-05-20T07:03:55Z</time>
      </trkpt>
      <trkpt lat="43.39958" lon="1.1391">
        <ele>261.2</ele>
        <time>2024-05-20T07:03:56Z</time>
      </trkpt>
      <trkpt lat="43.39957" lon="1.13902">
        <ele>261.2</ele>
        <time>2024-05-20T07:03:57Z</time>
      </trkpt>
      <trkpt lat="43.39956" lon="1.13893">
        <ele>261.2</ele>
        <time>2024-05-20T07:03:58Z</time>
      </trkpt>
      <trkpt lat="43.39956" lon="1.13884">
        <ele>261.2</ele>
        <time>2024-05-20T07:03:59Z</time>
      </trkpt>
      <trkpt lat="43.39956" lon="1.13875">
        <ele>261.2</ele>
        <time>2024-05-20T07:04:00Z</time>
      </trkpt>
      <trkpt lat="43.39956" lon="1.13866">
        <ele>261.2</ele>
        <time>2024-05-20T07:04:01Z</time>
      </trkpt>
      <trkpt lat="43.39956" lon="1.13857">
        <ele>261.2</ele>
        <time>2024-05-20T07:04:02Z</time>
      </trkpt>
      <trkpt lat="43.39956" lon="1.13847">
        <ele>261.2</ele>
        <time>2024-05-20T07:04:03Z</time>
      </trkpt>
      <trkpt lat="43.39956" lon="1.13837">
        <ele>261.4</ele>
        <time>2024-05-20T07:04:04Z</time>
      </trkpt>
      <trkpt lat="43.39956" lon="1.13828">
        <ele>261.4</ele>
        <time>2024-05-20T07:04:05Z</time>
      </trkpt>
      <trkpt lat="43.39956" lon="1.13818">
        <ele>261.4</ele>
        <time>2024-05-20T07:04:06Z</time>
      </trkpt>
      <trkpt lat="43.39956" lon="1.13808">
        <ele>261.4</ele>
        <time>2024-05-20T07:04:07Z</time>
      </trkpt>
      <trkpt lat="43.39957" lon="1.13799">
        <ele>261.4</ele>
        <time>2024-05-20T07:04:08Z</time>
      </trkpt>
      <trkpt lat="43.39957" lon="1.13789">
        <ele>261.4</ele>
        <time>2024-05-20T07:04:09Z</time>
      </trkpt>
      <trkpt lat="43.39957" lon="1.1378">
        <ele>261.2</ele>
        <time>2024-05-20T07:04:10Z</time>
      </trkpt>
      <trkpt lat="43.39958" lon="1.1377">
        <ele>261.2</ele>
        <time>2024-05-20T07:04:11Z</time>
      </trkpt>
      <trkpt lat="43.39958" lon="1.1376">
        <ele>261.2</ele>
        <time>2024-05-20T07:04:12Z</time>
      </trkpt>
      <trkpt lat="43.39958" lon="1.13751">
        <ele>261.2</ele>
        <time>2024-05-20T07:04:13Z</time>
      </trkpt>
      <trkpt lat="43.39959" lon="1.13741">
        <ele>261.4</ele>
        <time>2024-05-20T07:04:14Z</time>
      </trkpt>
      <trkpt lat="43.39959" lon="1.13731">
        <ele>261.4</ele>
        <time>2024-05-20T07:04:15Z</time>
      </trkpt>
      <trkpt lat="43.3996" lon="1.13721">
        <ele>261.4</ele>
        <time>2024-05-20T07:04:16Z</time>
      </trkpt>
      <trkpt lat="43.3996" lon="1.13711">
        <ele>261.4</ele>
        <time>2024-05-20T07:04:17Z</time>
      </trkpt>
      <trkpt lat="43.39961" lon="1.137">
        <ele>261.4</ele>
        <time>2024-05-20T07:04:18Z</time>
      </trkpt>
      <trkpt lat="43.39962" lon="1.1369">
        <ele>261.6</ele>
        <time>2024-05-20T07:04:19Z</time>
      </trkpt>
      <trkpt lat="43.39962" lon="1.13679">
        <ele>261.6</ele>
        <time>2024-05-20T07:04:20Z</time>
      </trkpt>
      <trkpt lat="43.39963" lon="1.13669">
        <ele>261.6</ele>
        <time>2024-05-20T07:04:21Z</time>
      </trkpt>
      <trkpt lat="43.39964" lon="1.13659">
        <ele>261.8</ele>
        <time>2024-05-20T07:04:22Z</time>
      </trkpt>
      <trkpt lat="43.39965" lon="1.13648">
        <ele>261.8</ele>
        <time>2024-05-20T07:04:23Z</time>
      </trkpt>
      <trkpt lat="43.39966" lon="1.13638">
        <ele>261.8</ele>
        <time>2024-05-20T07:04:24Z</time>
      </trkpt>
      <trkpt lat="43.39966" lon="1.13628">
        <ele>261.8</ele>
        <time>2024-05-20T07:04:25Z</time>
      </trkpt>
      <trkpt lat="43.39967" lon="1.13617">
        <ele>261.8</ele>
        <time>2024-05-20T07:04:26Z</time>
      </trkpt>
      <trkpt lat="43.39968" lon="1.13607">
        <ele>261.8</ele>
        <time>2024-05-20T07:04:27Z</time>
      </trkpt>
      <trkpt lat="43.39969" lon="1.13596">
        <ele>262</ele>
        <time>2024-05-20T07:04:28Z</time>
      </trkpt>
      <trkpt lat="43.39969" lon="1.13586">
        <ele>262</ele>
        <time>2024-05-20T07:04:29Z</time>
      </trkpt>
      <trkpt lat="43.3997" lon="1.13576">
        <ele>262</ele>
        <time>2024-05-20T07:04:30Z</time>
      </trkpt>
      <trkpt lat="43.39971" lon="1.13566">
        <ele>262.2</ele>
        <time>2024-05-20T07:04:31Z</time>
      </trkpt>
      <trkpt lat="43.39971" lon="1.13555">
        <ele>262.2</ele>
        <time>2024-05-20T07:04:32Z</time>
      </trkpt>
      <trkpt lat="43.39972" lon="1.13545">
        <ele>262.2</ele>
        <time>2024-05-20T07:04:33Z</time>
      </trkpt>
      <trkpt lat="43.39973" lon="1.13534">
        <ele>262.2</ele>
        <time>2024-05-20T07:04:34Z</time>
      </trkpt>
      <trkpt lat="43.39974" lon="1.13524">
        <ele>262.4</ele>
        <time>2024-05-20T07:04:35Z</time>
      </trkpt>
      <trkpt lat="43.39974" lon="1.13513">
        <ele>262.4</ele>
        <time>2024-05-20T07:04:36Z</time>
      </trkpt>
      <trkpt lat="43.39975" lon="1.13503">
        <ele>262.6</ele>
        <time>2024-05-20T07:04:37Z</time>
      </trkpt>
      <trkpt lat="43.39976" lon="1.13492">
        <ele>262.6</ele>
        <time>2024-05-20T07:04:38Z</time>
      </trkpt>
      <trkpt lat="43.39976" lon="1.13482">
        <ele>262.8</ele>
        <time>2024-05-20T07:04:39Z</time>
      </trkpt>
      <trkpt lat="43.39976" lon="1.13471">
        <ele>262.8</ele>
        <time>2024-05-20T07:04:40Z</time>
      </trkpt>
      <trkpt lat="43.39976" lon="1.1346">
        <ele>262.8</ele>
        <time>2024-05-20T07:04:41Z</time>
      </trkpt>
      <trkpt lat="43.39976" lon="1.13449">
        <ele>263</ele>
        <time>2024-05-20T07:04:42Z</time>
      </trkpt>
      <trkpt lat="43.39976" lon="1.13439">
        <ele>263</ele>
        <time>2024-05-20T07:04:43Z</time>
      </trkpt>
      <trkpt lat="43.39977" lon="1.13428">
        <ele>263</ele>
        <time>2024-05-20T07:04:44Z</time>
      </trkpt>
      <trkpt lat="43.39977" lon="1.13417">
        <ele>263.2</ele>
        <time>2024-05-20T07:04:45Z</time>
      </trkpt>
      <trkpt lat="43.39977" lon="1.13407">
        <ele>263.2</ele>
        <time>2024-05-20T07:04:46Z</time>
      </trkpt>
      <trkpt lat="43.39977" lon="1.13396">
        <ele>263.2</ele>
        <time>2024-05-20T07:04:47Z</time>
      </trkpt>
      <trkpt lat="43.39977" lon="1.13385">
        <ele>263.2</ele>
        <time>2024-05-20T07:04:48Z</time>
      </trkpt>
      <trkpt lat="43.39978" lon="1.13375">
        <ele>263.4</ele>
        <time>2024-05-20T07:04:49Z</time>
      </trkpt>
      <trkpt lat="43.39978" lon="1.13364">
        <ele>263.6</ele>
        <time>2024-05-20T07:04:50Z</time>
      </trkpt>
      <trkpt lat="43.39978" lon="1.13353">
        <ele>263.6</ele>
        <time>2024-05-20T07:04:51Z</time>
      </trkpt>
      <trkpt lat="43.39978" lon="1.13343">
        <ele>263.8</ele>
        <time>2024-05-20T07:04:52Z</time>
      </trkpt>
      <trkpt lat="43.39978" lon="1.13332">
        <ele>263.8</ele>
        <time>2024-05-20T07:04:53Z</time>
      </trkpt>
      <trkpt lat="43.39979" lon="1.13321">
        <ele>263.8</ele>
        <time>2024-05-20T07:04:54Z</time>
      </trkpt>
      <trkpt lat="43.39979" lon="1.13311">
        <ele>263.8</ele>
        <time>2024-05-20T07:04:55Z</time>
      </trkpt>
      <trkpt lat="43.3998" lon="1.133">
        <ele>263.8</ele>
        <time>2024-05-20T07:04:56Z</time>
      </trkpt>
      <trkpt lat="43.3998" lon="1.1329">
        <ele>264</ele>
        <time>2024-05-20T07:04:57Z</time>
      </trkpt>
      <trkpt lat="43.39981" lon="1.1328">
        <ele>264</ele>
        <time>2024-05-20T07:04:58Z</time>
      </trkpt>
      <trkpt lat="43.39982" lon="1.1327">
        <ele>264</ele>
        <time>2024-05-20T07:04:59Z</time>
      </trkpt>
      <trkpt lat="43.39983" lon="1.13259">
        <ele>264</ele>
        <time>2024-05-20T07:05:00Z</time>
      </trkpt>
      <trkpt lat="43.39983" lon="1.13249">
        <ele>264.2</ele>
        <time>2024-05-20T07:05:01Z</time>
      </trkpt>
      <trkpt lat="43.39984" lon="1.13238">
        <ele>264.2</ele>
        <time>2024-05-20T07:05:02Z</time>
      </trkpt>
      <trkpt lat="43.39985" lon="1.13227">
        <ele>264.2</ele>
        <time>2024-05-20T07:05:03Z</time>
      </trkpt>
      <trkpt lat="43.39985" lon="1.13217">
        <ele>264.4</ele>
        <time>2024-05-20T07:05:04Z</time>
      </trkpt>
      <trkpt lat="43.39986" lon="1.13206">
        <ele>264.4</ele>
        <time>2024-05-20T07:05:05Z</time>
      </trkpt>
      <trkpt lat="43.39987" lon="1.13195">
        <ele>264.4</ele>
        <time>2024-05-20T07:05:06Z</time>
      </trkpt>
      <trkpt lat="43.39988" lon="1.13185">
        <ele>264.6</ele>
        <time>2024-05-20T07:05:07Z</time>
      </trkpt>
      <trkpt lat="43.39989" lon="1.13175">
        <ele>264.6</ele>
        <time>2024-05-20T07:05:08Z</time>
      </trkpt>
      <trkpt lat="43.3999" lon="1.13165">
        <ele>264.8</ele>
        <time>2024-05-20T07:05:09Z</time>
      </trkpt>
      <trkpt lat="43.39991" lon="1.13155">
        <ele>264.8</ele>
        <time>2024-05-20T07:05:10Z</time>
      </trkpt>
      <trkpt lat="43.39992" lon="1.13145">
        <ele>264.8</ele>
        <time>2024-05-20T07:05:11Z</time>
      </trkpt>
      <trkpt lat="43.39992" lon="1.13134">
        <ele>265</ele>
        <time>2024-05-20T07:05:12Z</time>
      </trkpt>
      <trkpt lat="43.39993" lon="1.13124">
        <ele>265</ele>
        <time>2024-05-20T07:05:13Z</time>
      </trkpt>
      <trkpt lat="43.39994" lon="1.13114">
        <ele>265.2</ele>
        <time>2024-05-20T07:05:14Z</time>
      </trkpt>
      <trkpt lat="43.39995" lon="1.13104">
        <ele>265.2</ele>
        <time>2024-05-20T07:05:15Z</time>
      </trkpt>
      <trkpt lat="43.39995" lon="1.13094">
        <ele>265.2</ele>
        <time>2024-05-20T07:05:16Z</time>
      </trkpt>
      <trkpt lat="43.39996" lon="1.13084">
        <ele>265.4</ele>
        <time>2024-05-20T07:05:17Z</time>
      </trkpt>
      <trkpt lat="43.39997" lon="1.13073">
        <ele>265.4</ele>
        <time>2024-05-20T07:05:18Z</time>
      </trkpt>
      <trkpt lat="43.39997" lon="1.13063">
        <ele>265.4</ele>
        <time>2024-05-20T07:05:19Z</time>
      </trkpt>
      <trkpt lat="43.39998" lon="1.13052">
        <ele>265.4</ele>
        <time>2024-05-20T07:05:20Z</time>
      </trkpt>
      <trkpt lat="43.39999" lon="1.13042">
        <ele>265.4</ele>
        <time>2024-05-20T07:05:21Z</time>
      </trkpt>
      <trkpt lat="43.4" lon="1.13032">
        <ele>265.4</ele>
        <time>2024-05-20T07:05:22Z</time>
      </trkpt>
      <trkpt lat="43.4" lon="1.13022">
        <ele>265.4</ele>
        <time>2024-05-20T07:05:23Z</time>
      </trkpt>
      <trkpt lat="43.40001" lon="1.13012">
        <ele>265.6</ele>
        <time>2024-05-20T07:05:24Z</time>
      </trkpt>
      <trkpt lat="43.40002" lon="1.12991">
        <ele>265.6</ele>
        <time>2024-05-20T07:05:25Z</time>
      </trkpt>
      <trkpt lat="43.40002" lon="1.12991">
        <ele>265.6</ele>
        <time>2024-05-20T07:05:26Z</time>
      </trkpt>
      <trkpt lat="43.40003" lon="1.12981">
        <ele>265.6</ele>
        <time>2024-05-20T07:05:27Z</time>
      </trkpt>
      <trkpt lat="43.40004" lon="1.12971">
        <ele>265.8</ele>
        <time>2024-05-20T07:05:28Z</time>
      </trkpt>
      <trkpt lat="43.40004" lon="1.12962">
        <ele>266</ele>
        <time>2024-05-20T07:05:29Z</time>
      </trkpt>
      <trkpt lat="43.40005" lon="1.12952">
        <ele>266</ele>
        <time>2024-05-20T07:05:30Z</time>
      </trkpt>
      <trkpt lat="43.40006" lon="1.12942">
        <ele>266.2</ele>
        <time>2024-05-20T07:05:31Z</time>
      </trkpt>
      <trkpt lat="43.40007" lon="1.12932">
        <ele>266.2</ele>
        <time>2024-05-20T07:05:32Z</time>
      </trkpt>
      <trkpt lat="43.40007" lon="1.12922">
        <ele>266.4</ele>
        <time>2024-05-20T07:05:33Z</time>
      </trkpt>
      <trkpt lat="43.40008" lon="1.12912">
        <ele>266.4</ele>
        <time>2024-05-20T07:05:34Z</time>
      </trkpt>
      <trkpt lat="43.40009" lon="1.12902">
        <ele>266.6</ele>
        <time>2024-05-20T07:05:35Z</time>
      </trkpt>
      <trkpt lat="43.4001" lon="1.12893">
        <ele>266.6</ele>
        <time>2024-05-20T07:05:36Z</time>
      </trkpt>
      <trkpt lat="43.4001" lon="1.12883">
        <ele>266.6</ele>
        <time>2024-05-20T07:05:37Z</time>
      </trkpt>
      <trkpt lat="43.40011" lon="1.12874">
        <ele>266.8</ele>
        <time>2024-05-20T07:05:38Z</time>
      </trkpt>
      <trkpt lat="43.40011" lon="1.12864">
        <ele>266.8</ele>
        <time>2024-05-20T07:05:39Z</time>
      </trkpt>
      <trkpt lat="43.40012" lon="1.12855">
        <ele>267</ele>
        <time>2024-05-20T07:05:40Z</time>
      </trkpt>
      <trkpt lat="43.40013" lon="1.12836">
        <ele>267</ele>
        <time>2024-05-20T07:05:41Z</time>
      </trkpt>
      <trkpt lat="43.40013" lon="1.12827">
        <ele>267</ele>
        <time>2024-05-20T07:05:42Z</time>
      </trkpt>
      <trkpt lat="43.40013" lon="1.12827">
        <ele>267.2</ele>
        <time>2024-05-20T07:05:43Z</time>
      </trkpt>
      <trkpt lat="43.40015" lon="1.12809">
        <ele>267.4</ele>
        <time>2024-05-20T07:05:44Z</time>
      </trkpt>
      <trkpt lat="43.40015" lon="1.128">
        <ele>267.6</ele>
        <time>2024-05-20T07:05:45Z</time>
      </trkpt>
      <trkpt lat="43.40015" lon="1.12792">
        <ele>267.6</ele>
        <time>2024-05-20T07:05:46Z</time>
      </trkpt>
      <trkpt lat="43.40015" lon="1.12792">
        <ele>267.8</ele>
        <time>2024-05-20T07:05:47Z</time>
      </trkpt>
      <trkpt lat="43.40015" lon="1.12785">
        <ele>268</ele>
        <time>2024-05-20T07:05:48Z</time>
      </trkpt>
      <trkpt lat="43.40016" lon="1.12778">
        <ele>268.4</ele>
        <time>2024-05-20T07:05:49Z</time>
      </trkpt>
      <trkpt lat="43.40016" lon="1.12767">
        <ele>268.6</ele>
        <time>2024-05-20T07:05:50Z</time>
      </trkpt>
      <trkpt lat="43.40016" lon="1.12767">
        <ele>268.8</ele>
        <time>2024-05-20T07:05:51Z</time>
      </trkpt>
      <trkpt lat="43.40016" lon="1.12759">
        <ele>269</ele>
        <time>2024-05-20T07:05:52Z</time>
      </trkpt>
      <trkpt lat="43.40017" lon="1.12755">
        <ele>269</ele>
        <time>2024-05-20T07:05:53Z</time>
      </trkpt>
      <trkpt lat="43.40018" lon="1.12752">
        <ele>269.2</ele>
        <time>2024-05-20T07:05:54Z</time>
      </trkpt>
      <trkpt lat="43.4002" lon="1.12749">
        <ele>269.4</ele>
        <time>2024-05-20T07:05:55Z</time>
      </trkpt>
      <trkpt lat="43.4002" lon="1.12749">
        <ele>269.6</ele>
        <time>2024-05-20T07:05:56Z</time>
      </trkpt>
      <trkpt lat="43.40026" lon="1.12745">
        <ele>269.8</ele>
        <time>2024-05-20T07:05:57Z</time>
      </trkpt>
      <trkpt lat="43.4003" lon="1.12744">
        <ele>270</ele>
        <time>2024-05-20T07:05:58Z</time>
      </trkpt>
      <trkpt lat="43.4003" lon="1.12744">
        <ele>270.4</ele>
        <time>2024-05-20T07:05:59Z</time>
      </trkpt>
      <trkpt lat="43.40038" lon="1.1274">
        <ele>270.4</ele>
        <time>2024-05-20T07:06:00Z</time>
      </trkpt>
      <trkpt lat="43.40043" lon="1.12738">
        <ele>270.8</ele>
        <time>2024-05-20T07:06:01Z</time>
      </trkpt>
      <trkpt lat="43.40046" lon="1.12734">
        <ele>271</ele>
        <time>2024-05-20T07:06:02Z</time>
      </trkpt>
      <trkpt lat="43.40047" lon="1.12729">
        <ele>271.2</ele>
        <time>2024-05-20T07:06:03Z</time>
      </trkpt>
      <trkpt lat="43.40048" lon="1.12724">
        <ele>271.4</ele>
        <time>2024-05-20T07:06:04Z</time>
      </trkpt>
      <trkpt lat="43.40048" lon="1.12724">
        <ele>271.6</ele>
        <time>2024-05-20T07:06:05Z</time>
      </trkpt>
      <trkpt lat="43.40047" lon="1.12714">
        <ele>271.8</ele>
        <time>2024-05-20T07:06:06Z</time>
      </trkpt>
      <trkpt lat="43.40047" lon="1.12709">
        <ele>272</ele>
        <time>2024-05-20T07:06:07Z</time>
      </trkpt>
      <trkpt lat="43.40047" lon="1.12705">
        <ele>272.2</ele>
        <time>2024-05-20T07:06:08Z</time>
      </trkpt>
      <trkpt lat="43.40046" lon="1.12701">
        <ele>272.2</ele>
        <time>2024-05-20T07:06:09Z</time>
      </trkpt>
      <trkpt lat="43.40046" lon="1.12701">
        <ele>272.6</ele>
        <time>2024-05-20T07:06:10Z</time>
      </trkpt>
      <trkpt lat="43.40045" lon="1.12692">
        <ele>272.8</ele>
        <time>2024-05-20T07:06:11Z</time>
      </trkpt>
      <trkpt lat="43.40045" lon="1.12687">
        <ele>272.8</ele>
        <time>2024-05-20T07:06:12Z</time>
      </trkpt>
      <trkpt lat="43.40044" lon="1.12683">
        <ele>273</ele>
        <time>2024-05-20T07:06:13Z</time>
      </trkpt>
      <trkpt lat="43.40044" lon="1.12679">
        <ele>273.2</ele>
        <time>2024-05-20T07:06:14Z</time>
      </trkpt>
      <trkpt lat="43.40043" lon="1.12675">
        <ele>273.2</ele>
        <time>2024-05-20T07:06:15Z</time>
      </trkpt>
      <trkpt lat="43.40043" lon="1.12672">
        <ele>273.6</ele>
        <time>2024-05-20T07:06:16Z</time>
      </trkpt>
      <trkpt lat="43.40043" lon="1.12672">
        <ele>273.6</ele>
        <time>2024-05-20T07:06:17Z</time>
      </trkpt>
      <trkpt lat="43.40044" lon="1.12665">
        <ele>273.8</ele>
        <time>2024-05-20T07:06:18Z</time>
      </trkpt>
      <trkpt lat="43.40045" lon="1.12661">
        <ele>274.2</ele>
        <time>2024-05-20T07:06:19Z</time>
      </trkpt>
      <trkpt lat="43.40045" lon="1.12657">
        <ele>274.2</ele>
        <time>2024-05-20T07:06:20Z</time>
      </trkpt>
      <trkpt lat="43.40045" lon="1.12653">
        <ele>274.6</ele>
        <time>2024-05-20T07:06:21Z</time>
      </trkpt>
      <trkpt lat="43.40044" lon="1.1265">
        <ele>275</ele>
        <time>2024-05-20T07:06:22Z</time>
      </trkpt>
      <trkpt lat="43.40044" lon="1.12645">
        <ele>275.4</ele>
        <time>2024-05-20T07:06:23Z</time>
      </trkpt>
      <trkpt lat="43.40044" lon="1.12645">
        <ele>275.8</ele>
        <time>2024-05-20T07:06:24Z</time>
      </trkpt>
      <trkpt lat="43.40044" lon="1.12637">
        <ele>276</ele>
        <time>2024-05-20T07:06:25Z</time>
      </trkpt>
      <trkpt lat="43.40044" lon="1.12633">
        <ele>276.6</ele>
        <time>2024-05-20T07:06:26Z</time>
      </trkpt>
      <trkpt lat="43.40044" lon="1.12628">
        <ele>276.8</ele>
        <time>2024-05-20T07:06:27Z</time>
      </trkpt>
      <trkpt lat="43.40044" lon="1.12623">
        <ele>277.4</ele>
        <time>2024-05-20T07:06:28Z</time>
      </trkpt>
      <trkpt lat="43.40044" lon="1.12617">
        <ele>277.6</ele>
        <time>2024-05-20T07:06:29Z</time>
      </trkpt>
      <trkpt lat="43.40043" lon="1.12612">
        <ele>278.2</ele>
        <time>2024-05-20T07:06:30Z</time>
      </trkpt>
      <trkpt lat="43.40043" lon="1.12607">
        <ele>278.8</ele>
        <time>2024-05-20T07:06:31Z</time>
      </trkpt>
      <trkpt lat="43.40042" lon="1.12601">
        <ele>279.6</ele>
        <time>2024-05-20T07:06:32Z</time>
      </trkpt>
      <trkpt lat="43.40042" lon="1.12601">
        <ele>280.2</ele>
        <time>2024-05-20T07:06:33Z</time>
      </trkpt>
      <trkpt lat="43.40042" lon="1.1259">
        <ele>280.6</ele>
        <time>2024-05-20T07:06:34Z</time>
      </trkpt>
      <trkpt lat="43.40042" lon="1.12584">
        <ele>281.4</ele>
        <time>2024-05-20T07:06:35Z</time>
      </trkpt>
      <trkpt lat="43.40041" lon="1.12579">
        <ele>281.6</ele>
        <time>2024-05-20T07:06:36Z</time>
      </trkpt>
      <trkpt lat="43.4004" lon="1.12573">
        <ele>282.2</ele>
        <time>2024-05-20T07:06:37Z</time>
      </trkpt>
      <trkpt lat="43.4004" lon="1.12573">
        <ele>282.6</ele>
        <time>2024-05-20T07:06:38Z</time>
      </trkpt>
      <trkpt lat="43.40039" lon="1.12562">
        <ele>283.4</ele>
        <time>2024-05-20T07:06:39Z</time>
      </trkpt>
      <trkpt lat="43.40038" lon="1.12559">
        <ele>283.6</ele>
        <time>2024-05-20T07:06:40Z</time>
      </trkpt>
      <trkpt lat="43.40037" lon="1.12554">
        <ele>284</ele>
        <time>2024-05-20T07:06:41Z</time>
      </trkpt>
      <trkpt lat="43.40036" lon="1.12549">
        <ele>284.6</ele>
        <time>2024-05-20T07:06:42Z</time>
      </trkpt>
      <trkpt lat="43.40035" lon="1.12543">
        <ele>285</ele>
        <time>2024-05-20T07:06:43Z</time>
      </trkpt>
      <trkpt lat="43.40035" lon="1.12543">
        <ele>285.6</ele>
        <time>2024-05-20T07:06:44Z</time>
      </trkpt>
      <trkpt lat="43.40033" lon="1.12532">
        <ele>285.8</ele>
        <time>2024-05-20T07:06:45Z</time>
      </trkpt>
      <trkpt lat="43.40032" lon="1.12526">
        <ele>286.2</ele>
        <time>2024-05-20T07:06:46Z</time>
      </trkpt>
      <trkpt lat="43.40031" lon="1.12521">
        <ele>286.6</ele>
        <time>2024-05-20T07:06:47Z</time>
      </trkpt>
      <trkpt lat="43.4003" lon="1.12516">
        <ele>287.2</ele>
        <time>2024-05-20T07:06:48Z</time>
      </trkpt>
      <trkpt lat="43.4003" lon="1.12512">
        <ele>287.4</ele>
        <time>2024-05-20T07:06:49Z</time>
      </trkpt>
      <trkpt lat="43.40029" lon="1.12506">
        <ele>287.6</ele>
        <time>2024-05-20T07:06:50Z</time>
      </trkpt>
      <trkpt lat="43.40029" lon="1.125">
        <ele>287.8</ele>
        <time>2024-05-20T07:06:51Z</time>
      </trkpt>
      <trkpt lat="43.40028" lon="1.12495">
        <ele>288</ele>
        <time>2024-05-20T07:06:52Z</time>
      </trkpt>
      <trkpt lat="43.40028" lon="1.12495">
        <ele>288.4</ele>
        <time>2024-05-20T07:06:53Z</time>
      </trkpt>
      <trkpt lat="43.40027" lon="1.12485">
        <ele>288.6</ele>
        <time>2024-05-20T07:06:54Z</time>
      </trkpt>
      <trkpt lat="43.40026" lon="1.1248">
        <ele>289.4</ele>
        <time>2024-05-20T07:06:55Z</time>
      </trkpt>
      <trkpt lat="43.40026" lon="1.12475">
        <ele>289.6</ele>
        <time>2024-05-20T07:06:56Z</time>
      </trkpt>
      <trkpt lat="43.40025" lon="1.1247">
        <ele>290</ele>
        <time>2024-05-20T07:06:57Z</time>
      </trkpt>
      <trkpt lat="43.40025" lon="1.12465">
        <ele>290.2</ele>
        <time>2024-05-20T07:06:58Z</time>
      </trkpt>
      <trkpt lat="43.40024" lon="1.12459">
        <ele>290.4</ele>
        <time>2024-05-20T07:06:59Z</time>
      </trkpt>
      <trkpt lat="43.40024" lon="1.12454">
        <ele>290.8</ele>
        <time>2024-05-20T07:07:00Z</time>
      </trkpt>
      <trkpt lat="43.40024" lon="1.12454">
        <ele>291</ele>
        <time>2024-05-20T07:07:01Z</time>
      </trkpt>
      <trkpt lat="43.40022" lon="1.12443">
        <ele>291.6</ele>
        <time>2024-05-20T07:07:02Z</time>
      </trkpt>
      <trkpt lat="43.40021" lon="1.12438">
        <ele>291.8</ele>
        <time>2024-05-20T07:07:03Z</time>
      </trkpt>
      <trkpt lat="43.4002" lon="1.12432">
        <ele>292</ele>
        <time>2024-05-20T07:07:04Z</time>
      </trkpt>
      <trkpt lat="43.40019" lon="1.12427">
        <ele>292.2</ele>
        <time>2024-05-20T07:07:05Z</time>
      </trkpt>
      <trkpt lat="43.40017" lon="1.12422">
        <ele>292.8</ele>
        <time>2024-05-20T07:07:06Z</time>
      </trkpt>
      <trkpt lat="43.40017" lon="1.12422">
        <ele>293.2</ele>
        <time>2024-05-20T07:07:07Z</time>
      </trkpt>
      <trkpt lat="43.40014" lon="1.12412">
        <ele>293.4</ele>
        <time>2024-05-20T07:07:08Z</time>
      </trkpt>
      <trkpt lat="43.40013" lon="1.12407">
        <ele>293.8</ele>
        <time>2024-05-20T07:07:09Z</time>
      </trkpt>
      <trkpt lat="43.40012" lon="1.12402">
        <ele>294</ele>
        <time>2024-05-20T07:07:10Z</time>
      </trkpt>
      <trkpt lat="43.40011" lon="1.12396">
        <ele>294.2</ele>
        <time>2024-05-20T07:07:11Z</time>
      </trkpt>
      <trkpt lat="43.40009" lon="1.12391">
        <ele>294.2</ele>
        <time>2024-05-20T07:07:12Z</time>
      </trkpt>
      <trkpt lat="43.40007" lon="1.12386">
        <ele>294.4</ele>
        <time>2024-05-20T07:07:13Z</time>
      </trkpt>
      <trkpt lat="43.40006" lon="1.12381">
        <ele>294.6</ele>
        <time>2024-05-20T07:07:14Z</time>
      </trkpt>
      <trkpt lat="43.40004" lon="1.12375">
        <ele>294.8</ele>
        <time>2024-05-20T07:07:15Z</time>
      </trkpt>
      <trkpt lat="43.40002" lon="1.1237">
        <ele>295</ele>
        <time>2024-05-20T07:07:16Z</time>
      </trkpt>
      <trkpt lat="43.40001" lon="1.12365">
        <ele>295</ele>
        <time>2024-05-20T07:07:17Z</time>
      </trkpt>
      <trkpt lat="43.4" lon="1.1236">
        <ele>295.4</ele>
        <time>2024-05-20T07:07:18Z</time>
      </trkpt>
      <trkpt lat="43.4" lon="1.1236">
        <ele>295.4</ele>
        <time>2024-05-20T07:07:19Z</time>
      </trkpt>
      <trkpt lat="43.39997" lon="1.12349">
        <ele>295.6</ele>
        <time>2024-05-20T07:07:20Z</time>
      </trkpt>
      <trkpt lat="43.39996" lon="1.12344">
        <ele>295.6</ele>
        <time>2024-05-20T07:07:21Z</time>
      </trkpt>
      <trkpt lat="43.39994" lon="1.12339">
        <ele>295.8</ele>
        <time>2024-05-20T07:07:22Z</time>
      </trkpt>
      <trkpt lat="43.39992" lon="1.12333">
        <ele>296</ele>
        <time>2024-05-20T07:07:23Z</time>
      </trkpt>
      <trkpt lat="43.3999" lon="1.12327">
        <ele>296</ele>
        <time>2024-05-20T07:07:24Z</time>
      </trkpt>
      <trkpt lat="43.39989" lon="1.12321">
        <ele>296</ele>
        <time>2024-05-20T07:07:25Z</time>
      </trkpt>
      <trkpt lat="43.39989" lon="1.12321">
        <ele>296.2</ele>
        <time>2024-05-20T07:07:26Z</time>
      </trkpt>
      <trkpt lat="43.39985" lon="1.12308">
        <ele>296.2</ele>
        <time>2024-05-20T07:07:27Z</time>
      </trkpt>
      <trkpt lat="43.39982" lon="1.123">
        <ele>296.2</ele>
        <time>2024-05-20T07:07:28Z</time>
      </trkpt>
      <trkpt lat="43.39982" lon="1.123">
        <ele>296.2</ele>
        <time>2024-05-20T07:07:29Z</time>
      </trkpt>
      <trkpt lat="43.39979" lon="1.12289">
        <ele>296.2</ele>
        <time>2024-05-20T07:07:30Z</time>
      </trkpt>
      <trkpt lat="43.39978" lon="1.12282">
        <ele>296.2</ele>
        <time>2024-05-20T07:07:31Z</time>
      </trkpt>
      <trkpt lat="43.39976" lon="1.12276">
        <ele>296.2</ele>
        <time>2024-05-20T07:07:32Z</time>
      </trkpt>
      <trkpt lat="43.39974" lon="1.1227">
        <ele>296.2</ele>
        <time>2024-05-20T07:07:33Z</time>
      </trkpt>
      <trkpt lat="43.39972" lon="1.12263">
        <ele>296.2</ele>
        <time>2024-05-20T07:07:34Z</time>
      </trkpt>
      <trkpt lat="43.39972" lon="1.12263">
        <ele>296.2</ele>
        <time>2024-05-20T07:07:35Z</time>
      </trkpt>
      <trkpt lat="43.39968" lon="1.1225">
        <ele>296</ele>
        <time>2024-05-20T07:07:36Z</time>
      </trkpt>
      <trkpt lat="43.39966" lon="1.12243">
        <ele>296</ele>
        <time>2024-05-20T07:07:37Z</time>
      </trkpt>
      <trkpt lat="43.39965" lon="1.12237">
        <ele>296</ele>
        <time>2024-05-20T07:07:38Z</time>
      </trkpt>
      <trkpt lat="43.39963" lon="1.1223">
        <ele>296</ele>
        <time>2024-05-20T07:07:39Z</time>
      </trkpt>
      <trkpt lat="43.39963" lon="1.1223">
        <ele>295.8</ele>
        <time>2024-05-20T07:07:40Z</time>
      </trkpt>
      <trkpt lat="43.39959" lon="1.12217">
        <ele>295.6</ele>
        <time>2024-05-20T07:07:41Z</time>
      </trkpt>
      <trkpt lat="43.39957" lon="1.12211">
        <ele>295.6</ele>
        <time>2024-05-20T07:07:42Z</time>
      </trkpt>
      <trkpt lat="43.39956" lon="1.12205">
        <ele>295.6</ele>
        <time>2024-05-20T07:07:43Z</time>
      </trkpt>
      <trkpt lat="43.39955" lon="1.122">
        <ele>295.6</ele>
        <time>2024-05-20T07:07:44Z</time>
      </trkpt>
      <trkpt lat="43.39953" lon="1.12195">
        <ele>295.6</ele>
        <time>2024-05-20T07:07:45Z</time>
      </trkpt>
      <trkpt lat="43.39952" lon="1.1219">
        <ele>295.6</ele>
        <time>2024-05-20T07:07:46Z</time>
      </trkpt>
      <trkpt lat="43.39951" lon="1.12183">
        <ele>295.6</ele>
        <time>2024-05-20T07:07:47Z</time>
      </trkpt>
      <trkpt lat="43.39949" lon="1.12177">
        <ele>295.6</ele>
        <time>2024-05-20T07:07:48Z</time>
      </trkpt>
      <trkpt lat="43.39948" lon="1.1217">
        <ele>295.6</ele>
        <time>2024-05-20T07:07:49Z</time>
      </trkpt>
      <trkpt lat="43.39946" lon="1.12164">
        <ele>295.8</ele>
        <time>2024-05-20T07:07:50Z</time>
      </trkpt>
      <trkpt lat="43.39944" lon="1.12158">
        <ele>295.8</ele>
        <time>2024-05-20T07:07:51Z</time>
      </trkpt>
      <trkpt lat="43.39942" lon="1.12151">
        <ele>295.8</ele>
        <time>2024-05-20T07:07:52Z</time>
      </trkpt>
      <trkpt lat="43.3994" lon="1.12144">
        <ele>296</ele>
        <time>2024-05-20T07:07:53Z</time>
      </trkpt>
      <trkpt lat="43.3994" lon="1.12144">
        <ele>296</ele>
        <time>2024-05-20T07:07:54Z</time>
      </trkpt>
      <trkpt lat="43.39937" lon="1.12133">
        <ele>296</ele>
        <time>2024-05-20T07:07:55Z</time>
      </trkpt>
      <trkpt lat="43.39935" lon="1.12126">
        <ele>296.2</ele>
        <time>2024-05-20T07:07:56Z</time>
      </trkpt>
      <trkpt lat="43.39935" lon="1.12126">
        <ele>296.2</ele>
        <time>2024-05-20T07:07:57Z</time>
      </trkpt>
      <trkpt lat="43.39931" lon="1.12114">
        <ele>296.2</ele>
        <time>2024-05-20T07:07:58Z</time>
      </trkpt>
      <trkpt lat="43.3993" lon="1.12107">
        <ele>296.2</ele>
        <time>2024-05-20T07:07:59Z</time>
      </trkpt>
      <trkpt lat="43.39928" lon="1.121">
        <ele>296.2</ele>
        <time>2024-05-20T07:08:00Z</time>
      </trkpt>
      <trkpt lat="43.39926" lon="1.12093">
        <ele>296.2</ele>
        <time>2024-05-20T07:08:01Z</time>
      </trkpt>
      <trkpt lat="43.39924" lon="1.12088">
        <ele>296.2</ele>
        <time>2024-05-20T07:08:02Z</time>
      </trkpt>
      <trkpt lat="43.39922" lon="1.12082">
        <ele>296.2</ele>
        <time>2024-05-20T07:08:03Z</time>
      </trkpt>
      <trkpt lat="43.39921" lon="1.12077">
        <ele>296.4</ele>
        <time>2024-05-20T07:08:04Z</time>
      </trkpt>
      <trkpt lat="43.3992" lon="1.12072">
        <ele>296.4</ele>
        <time>2024-05-20T07:08:05Z</time>
      </trkpt>
      <trkpt lat="43.39919" lon="1.12066">
        <ele>296.4</ele>
        <time>2024-05-20T07:08:06Z</time>
      </trkpt>
      <trkpt lat="43.39919" lon="1.12061">
        <ele>296.4</ele>
        <time>2024-05-20T07:08:07Z</time>
      </trkpt>
      <trkpt lat="43.39919" lon="1.12061">
        <ele>296.2</ele>
        <time>2024-05-20T07:08:08Z</time>
      </trkpt>
      <trkpt lat="43.39917" lon="1.12051">
        <ele>296.2</ele>
        <time>2024-05-20T07:08:09Z</time>
      </trkpt>
      <trkpt lat="43.39915" lon="1.12045">
        <ele>296.2</ele>
        <time>2024-05-20T07:08:10Z</time>
      </trkpt>
      <trkpt lat="43.39913" lon="1.12039">
        <ele>296.2</ele>
        <time>2024-05-20T07:08:11Z</time>
      </trkpt>
      <trkpt lat="43.39911" lon="1.12032">
        <ele>296</ele>
        <time>2024-05-20T07:08:12Z</time>
      </trkpt>
      <trkpt lat="43.39909" lon="1.12026">
        <ele>296</ele>
        <time>2024-05-20T07:08:13Z</time>
      </trkpt>
      <trkpt lat="43.39908" lon="1.12019">
        <ele>296</ele>
        <time>2024-05-20T07:08:14Z</time>
      </trkpt>
      <trkpt lat="43.39906" lon="1.12012">
        <ele>296</ele>
        <time>2024-05-20T07:08:15Z</time>
      </trkpt>
      <trkpt lat="43.39905" lon="1.12005">
        <ele>296</ele>
        <time>2024-05-20T07:08:16Z</time>
      </trkpt>
      <trkpt lat="43.39904" lon="1.11999">
        <ele>296</ele>
        <time>2024-05-20T07:08:17Z</time>
      </trkpt>
      <trkpt lat="43.39902" lon="1.11991">
        <ele>296</ele>
        <time>2024-05-20T07:08:18Z</time>
      </trkpt>
      <trkpt lat="43.39901" lon="1.11985">
        <ele>296</ele>
        <time>2024-05-20T07:08:19Z</time>
      </trkpt>
      <trkpt lat="43.399" lon="1.11978">
        <ele>296</ele>
        <time>2024-05-20T07:08:20Z</time>
      </trkpt>
      <trkpt lat="43.39898" lon="1.11971">
        <ele>296.2</ele>
        <time>2024-05-20T07:08:21Z</time>
      </trkpt>
      <trkpt lat="43.39898" lon="1.11971">
        <ele>296.2</ele>
        <time>2024-05-20T07:08:22Z</time>
      </trkpt>
      <trkpt lat="43.39895" lon="1.11957">
        <ele>296.4</ele>
        <time>2024-05-20T07:08:23Z</time>
      </trkpt>
      <trkpt lat="43.39894" lon="1.11949">
        <ele>296.6</ele>
        <time>2024-05-20T07:08:24Z</time>
      </trkpt>
      <trkpt lat="43.39893" lon="1.11942">
        <ele>296.6</ele>
        <time>2024-05-20T07:08:25Z</time>
      </trkpt>
      <trkpt lat="43.39891" lon="1.11935">
        <ele>296.6</ele>
        <time>2024-05-20T07:08:26Z</time>
      </trkpt>
      <trkpt lat="43.3989" lon="1.11928">
        <ele>296.6</ele>
        <time>2024-05-20T07:08:27Z</time>
      </trkpt>
      <trkpt lat="43.39889" lon="1.11922">
        <ele>297</ele>
        <time>2024-05-20T07:08:28Z</time>
      </trkpt>
      <trkpt lat="43.39888" lon="1.11914">
        <ele>297</ele>
        <time>2024-05-20T07:08:29Z</time>
      </trkpt>
      <trkpt lat="43.39886" lon="1.11906">
        <ele>297.2</ele>
        <time>2024-05-20T07:08:30Z</time>
      </trkpt>
      <trkpt lat="43.39885" lon="1.11898">
        <ele>297.2</ele>
        <time>2024-05-20T07:08:31Z</time>
      </trkpt>
      <trkpt lat="43.39883" lon="1.11889">
        <ele>297.2</ele>
        <time>2024-05-20T07:08:32Z</time>
      </trkpt>
      <trkpt lat="43.39882" lon="1.11881">
        <ele>297.4</ele>
        <time>2024-05-20T07:08:33Z</time>
      </trkpt>
      <trkpt lat="43.3988" lon="1.11874">
        <ele>297.4</ele>
        <time>2024-05-20T07:08:34Z</time>
      </trkpt>
      <trkpt lat="43.39878" lon="1.11866">
        <ele>297.6</ele>
        <time>2024-05-20T07:08:35Z</time>
      </trkpt>
      <trkpt lat="43.39878" lon="1.11866">
        <ele>297.6</ele>
        <time>2024-05-20T07:08:36Z</time>
      </trkpt>
      <trkpt lat="43.39874" lon="1.1185">
        <ele>297.6</ele>
        <time>2024-05-20T07:08:37Z</time>
      </trkpt>
      <trkpt lat="43.39871" lon="1.11841">
        <ele>297.8</ele>
        <time>2024-05-20T07:08:38Z</time>
      </trkpt>
      <trkpt lat="43.3987" lon="1.11833">
        <ele>297.8</ele>
        <time>2024-05-20T07:08:39Z</time>
      </trkpt>
      <trkpt lat="43.39868" lon="1.11826">
        <ele>297.8</ele>
        <time>2024-05-20T07:08:40Z</time>
      </trkpt>
      <trkpt lat="43.39866" lon="1.11818">
        <ele>297.8</ele>
        <time>2024-05-20T07:08:41Z</time>
      </trkpt>
      <trkpt lat="43.39864" lon="1.1181">
        <ele>297.8</ele>
        <time>2024-05-20T07:08:42Z</time>
      </trkpt>
      <trkpt lat="43.39862" lon="1.11802">
        <ele>297.8</ele>
        <time>2024-05-20T07:08:43Z</time>
      </trkpt>
      <trkpt lat="43.39861" lon="1.11794">
        <ele>298</ele>
        <time>2024-05-20T07:08:44Z</time>
      </trkpt>
      <trkpt lat="43.39859" lon="1.11785">
        <ele>298</ele>
        <time>2024-05-20T07:08:45Z</time>
      </trkpt>
      <trkpt lat="43.39858" lon="1.11777">
        <ele>298</ele>
        <time>2024-05-20T07:08:46Z</time>
      </trkpt>
      <trkpt lat="43.39856" lon="1.11769">
        <ele>298</ele>
        <time>2024-05-20T07:08:47Z</time>
      </trkpt>
      <trkpt lat="43.39854" lon="1.1176">
        <ele>298.2</ele>
        <time>2024-05-20T07:08:48Z</time>
      </trkpt>
      <trkpt lat="43.39852" lon="1.11752">
        <ele>298.2</ele>
        <time>2024-05-20T07:08:49Z</time>
      </trkpt>
      <trkpt lat="43.3985" lon="1.11743">
        <ele>298.4</ele>
        <time>2024-05-20T07:08:50Z</time>
      </trkpt>
      <trkpt lat="43.39849" lon="1.11734">
        <ele>298.4</ele>
        <time>2024-05-20T07:08:51Z</time>
      </trkpt>
      <trkpt lat="43.39846" lon="1.11725">
        <ele>298.4</ele>
        <time>2024-05-20T07:08:52Z</time>
      </trkpt>
      <trkpt lat="43.39845" lon="1.11716">
        <ele>298.4</ele>
        <time>2024-05-20T07:08:53Z</time>
      </trkpt>
      <trkpt lat="43.39843" lon="1.11707">
        <ele>298.4</ele>
        <time>2024-05-20T07:08:54Z</time>
      </trkpt>
      <trkpt lat="43.39843" lon="1.11707">
        <ele>298.4</ele>
        <time>2024-05-20T07:08:55Z</time>
      </trkpt>
      <trkpt lat="43.39839" lon="1.11689">
        <ele>298.4</ele>
        <time>2024-05-20T07:08:56Z</time>
      </trkpt>
      <trkpt lat="43.39836" lon="1.11679">
        <ele>298.6</ele>
        <time>2024-05-20T07:08:57Z</time>
      </trkpt>
      <trkpt lat="43.39835" lon="1.11672">
        <ele>298.6</ele>
        <time>2024-05-20T07:08:58Z</time>
      </trkpt>
      <trkpt lat="43.39833" lon="1.11663">
        <ele>298.6</ele>
        <time>2024-05-20T07:08:59Z</time>
      </trkpt>
      <trkpt lat="43.39831" lon="1.11655">
        <ele>298.6</ele>
        <time>2024-05-20T07:09:00Z</time>
      </trkpt>
      <trkpt lat="43.39829" lon="1.11646">
        <ele>298.6</ele>
        <time>2024-05-20T07:09:01Z</time>
      </trkpt>
      <trkpt lat="43.39827" lon="1.11637">
        <ele>298.8</ele>
        <time>2024-05-20T07:09:02Z</time>
      </trkpt>
      <trkpt lat="43.39825" lon="1.11629">
        <ele>298.8</ele>
        <time>2024-05-20T07:09:03Z</time>
      </trkpt>
      <trkpt lat="43.39823" lon="1.1162">
        <ele>298.8</ele>
        <time>2024-05-20T07:09:04Z</time>
      </trkpt>
      <trkpt lat="43.39821" lon="1.11611">
        <ele>299</ele>
        <time>2024-05-20T07:09:05Z</time>
      </trkpt>
      <trkpt lat="43.39819" lon="1.11603">
        <ele>299</ele>
        <time>2024-05-20T07:09:06Z</time>
      </trkpt>
      <trkpt lat="43.39817" lon="1.11594">
        <ele>299.2</ele>
        <time>2024-05-20T07:09:07Z</time>
      </trkpt>
      <trkpt lat="43.39815" lon="1.11586">
        <ele>299.4</ele>
        <time>2024-05-20T07:09:08Z</time>
      </trkpt>
      <trkpt lat="43.39815" lon="1.11586">
        <ele>299.4</ele>
        <time>2024-05-20T07:09:09Z</time>
      </trkpt>
      <trkpt lat="43.39812" lon="1.1157">
        <ele>299.6</ele>
        <time>2024-05-20T07:09:10Z</time>
      </trkpt>
      <trkpt lat="43.39811" lon="1.11562">
        <ele>299.6</ele>
        <time>2024-05-20T07:09:11Z</time>
      </trkpt>
      <trkpt lat="43.39809" lon="1.11553">
        <ele>299.6</ele>
        <time>2024-05-20T07:09:12Z</time>
      </trkpt>
      <trkpt lat="43.39807" lon="1.11545">
        <ele>299.8</ele>
        <time>2024-05-20T07:09:13Z</time>
      </trkpt>
      <trkpt lat="43.39806" lon="1.11536">
        <ele>299.8</ele>
        <time>2024-05-20T07:09:14Z</time>
      </trkpt>
      <trkpt lat="43.39804" lon="1.11527">
        <ele>299.8</ele>
        <time>2024-05-20T07:09:15Z</time>
      </trkpt>
      <trkpt lat="43.39802" lon="1.11518">
        <ele>299.8</ele>
        <time>2024-05-20T07:09:16Z</time>
      </trkpt>
      <trkpt lat="43.39801" lon="1.1151">
        <ele>299.8</ele>
        <time>2024-05-20T07:09:17Z</time>
      </trkpt>
      <trkpt lat="43.39799" lon="1.11501">
        <ele>300</ele>
        <time>2024-05-20T07:09:18Z</time>
      </trkpt>
      <trkpt lat="43.39798" lon="1.11492">
        <ele>300</ele>
        <time>2024-05-20T07:09:19Z</time>
      </trkpt>
      <trkpt lat="43.39798" lon="1.11492">
        <ele>300</ele>
        <time>2024-05-20T07:09:20Z</time>
      </trkpt>
      <trkpt lat="43.39796" lon="1.11476">
        <ele>300</ele>
        <time>2024-05-20T07:09:21Z</time>
      </trkpt>
      <trkpt lat="43.39795" lon="1.11468">
        <ele>300</ele>
        <time>2024-05-20T07:09:22Z</time>
      </trkpt>
      <trkpt lat="43.39795" lon="1.11468">
        <ele>300</ele>
        <time>2024-05-20T07:09:23Z</time>
      </trkpt>
      <trkpt lat="43.39793" lon="1.1145">
        <ele>300.2</ele>
        <time>2024-05-20T07:09:24Z</time>
      </trkpt>
      <trkpt lat="43.39792" lon="1.11441">
        <ele>300</ele>
        <time>2024-05-20T07:09:25Z</time>
      </trkpt>
      <trkpt lat="43.39791" lon="1.11432">
        <ele>300</ele>
        <time>2024-05-20T07:09:26Z</time>
      </trkpt>
      <trkpt lat="43.39791" lon="1.11423">
        <ele>300</ele>
        <time>2024-05-20T07:09:27Z</time>
      </trkpt>
      <trkpt lat="43.39791" lon="1.11423">
        <ele>300.2</ele>
        <time>2024-05-20T07:09:28Z</time>
      </trkpt>
      <trkpt lat="43.39791" lon="1.11403">
        <ele>300.2</ele>
        <time>2024-05-20T07:09:29Z</time>
      </trkpt>
      <trkpt lat="43.39791" lon="1.11391">
        <ele>300.2</ele>
        <time>2024-05-20T07:09:30Z</time>
      </trkpt>
      <trkpt lat="43.39791" lon="1.11391">
        <ele>300.4</ele>
        <time>2024-05-20T07:09:31Z</time>
      </trkpt>
      <trkpt lat="43.39792" lon="1.11374">
        <ele>300.4</ele>
        <time>2024-05-20T07:09:32Z</time>
      </trkpt>
      <trkpt lat="43.39793" lon="1.11366">
        <ele>300.4</ele>
        <time>2024-05-20T07:09:33Z</time>
      </trkpt>
      <trkpt lat="43.39793" lon="1.11357">
        <ele>300.4</ele>
        <time>2024-05-20T07:09:34Z</time>
      </trkpt>
      <trkpt lat="43.39794" lon="1.11347">
        <ele>300.6</ele>
        <time>2024-05-20T07:09:35Z</time>
      </trkpt>
      <trkpt lat="43.39795" lon="1.11337">
        <ele>300.6</ele>
        <time>2024-05-20T07:09:36Z</time>
      </trkpt>
      <trkpt lat="43.39795" lon="1.11337">
        <ele>300.6</ele>
        <time>2024-05-20T07:09:37Z</time>
      </trkpt>
      <trkpt lat="43.39797" lon="1.11317">
        <ele>300.6</ele>
        <time>2024-05-20T07:09:38Z</time>
      </trkpt>
      <trkpt lat="43.39798" lon="1.11305">
        <ele>300.6</ele>
        <time>2024-05-20T07:09:39Z</time>
      </trkpt>
      <trkpt lat="43.39798" lon="1.11296">
        <ele>300.8</ele>
        <time>2024-05-20T07:09:40Z</time>
      </trkpt>
      <trkpt lat="43.39799" lon="1.11285">
        <ele>301</ele>
        <time>2024-05-20T07:09:41Z</time>
      </trkpt>
      <trkpt lat="43.398" lon="1.11275">
        <ele>301</ele>
        <time>2024-05-20T07:09:42Z</time>
      </trkpt>
      <trkpt lat="43.39801" lon="1.11264">
        <ele>301</ele>
        <time>2024-05-20T07:09:43Z</time>
      </trkpt>
      <trkpt lat="43.39802" lon="1.11254">
        <ele>301</ele>
        <time>2024-05-20T07:09:44Z</time>
      </trkpt>
      <trkpt lat="43.39803" lon="1.11245">
        <ele>301</ele>
        <time>2024-05-20T07:09:45Z</time>
      </trkpt>
      <trkpt lat="43.39803" lon="1.11235">
        <ele>301</ele>
        <time>2024-05-20T07:09:46Z</time>
      </trkpt>
      <trkpt lat="43.39803" lon="1.11235">
        <ele>301</ele>
        <time>2024-05-20T07:09:47Z</time>
      </trkpt>
      <trkpt lat="43.39803" lon="1.11227">
        <ele>301</ele>
        <time>2024-05-20T07:09:48Z</time>
      </trkpt>
      <trkpt lat="43.39802" lon="1.11212">
        <ele>301</ele>
        <time>2024-05-20T07:09:49Z</time>
      </trkpt>
      <trkpt lat="43.39802" lon="1.11205">
        <ele>301</ele>
        <time>2024-05-20T07:09:50Z</time>
      </trkpt>
      <trkpt lat="43.39802" lon="1.11205">
        <ele>300.8</ele>
        <time>2024-05-20T07:09:51Z</time>
      </trkpt>
      <trkpt lat="43.39802" lon="1.1119">
        <ele>301</ele>
        <time>2024-05-20T07:09:52Z</time>
      </trkpt>
      <trkpt lat="43.39801" lon="1.11183">
        <ele>301.2</ele>
        <time>2024-05-20T07:09:53Z</time>
      </trkpt>
      <trkpt lat="43.39801" lon="1.11176">
        <ele>301.2</ele>
        <time>2024-05-20T07:09:54Z</time>
      </trkpt>
      <trkpt lat="43.39801" lon="1.11168">
        <ele>301</ele>
        <time>2024-05-20T07:09:55Z</time>
      </trkpt>
      <trkpt lat="43.398" lon="1.11161">
        <ele>301.2</ele>
        <time>2024-05-20T07:09:56Z</time>
      </trkpt>
      <trkpt lat="43.398" lon="1.11153">
        <ele>301</ele>
        <time>2024-05-20T07:09:57Z</time>
      </trkpt>
      <trkpt lat="43.398" lon="1.11145">
        <ele>301</ele>
        <time>2024-05-20T07:09:58Z</time>
      </trkpt>
      <trkpt lat="43.39799" lon="1.11137">
        <ele>301</ele>
        <time>2024-05-20T07:09:59Z</time>
      </trkpt>
      <trkpt lat="43.39799" lon="1.11129">
        <ele>301</ele>
        <time>2024-05-20T07:10:00Z</time>
      </trkpt>
      <trkpt lat="43.39799" lon="1.11121">
        <ele>301</ele>
        <time>2024-05-20T07:10:01Z</time>
      </trkpt>
      <trkpt lat="43.39798" lon="1.11113">
        <ele>301</ele>
        <time>2024-05-20T07:10:02Z</time>
      </trkpt>
      <trkpt lat="43.39798" lon="1.11105">
        <ele>301</ele>
        <time>2024-05-20T07:10:03Z</time>
      </trkpt>
      <trkpt lat="43.39798" lon="1.11097">
        <ele>301</ele>
        <time>2024-05-20T07:10:04Z</time>
      </trkpt>
      <trkpt lat="43.39798" lon="1.11097">
        <ele>301</ele>
        <time>2024-05-20T07:10:05Z</time>
      </trkpt>
      <trkpt lat="43.39797" lon="1.11081">
        <ele>301</ele>
        <time>2024-05-20T07:10:06Z</time>
      </trkpt>
      <trkpt lat="43.39798" lon="1.11072">
        <ele>301.2</ele>
        <time>2024-05-20T07:10:07Z</time>
      </trkpt>
      <trkpt lat="43.398" lon="1.11066">
        <ele>301.2</ele>
        <time>2024-05-20T07:10:08Z</time>
      </trkpt>
      <trkpt lat="43.39804" lon="1.11063">
        <ele>301.2</ele>
        <time>2024-05-20T07:10:09Z</time>
      </trkpt>
      <trkpt lat="43.39808" lon="1.11062">
        <ele>301.4</ele>
        <time>2024-05-20T07:10:10Z</time>
      </trkpt>
      <trkpt lat="43.39813" lon="1.11064">
        <ele>301.4</ele>
        <time>2024-05-20T07:10:11Z</time>
      </trkpt>
      <trkpt lat="43.39818" lon="1.11066">
        <ele>301.6</ele>
        <time>2024-05-20T07:10:12Z</time>
      </trkpt>
      <trkpt lat="43.39823" lon="1.11069">
        <ele>301.6</ele>
        <time>2024-05-20T07:10:13Z</time>
      </trkpt>
      <trkpt lat="43.39827" lon="1.11072">
        <ele>301.8</ele>
        <time>2024-05-20T07:10:14Z</time>
      </trkpt>
      <trkpt lat="43.39832" lon="1.11074">
        <ele>302.2</ele>
        <time>2024-05-20T07:10:15Z</time>
      </trkpt>
      <trkpt lat="43.39837" lon="1.11077">
        <ele>302.2</ele>
        <time>2024-05-20T07:10:16Z</time>
      </trkpt>
      <trkpt lat="43.39842" lon="1.1108">
        <ele>302.4</ele>
        <time>2024-05-20T07:10:17Z</time>
      </trkpt>
      <trkpt lat="43.39848" lon="1.11083">
        <ele>302.4</ele>
        <time>2024-05-20T07:10:18Z</time>
      </trkpt>
      <trkpt lat="43.39848" lon="1.11083">
        <ele>302.6</ele>
        <time>2024-05-20T07:10:19Z</time>
      </trkpt>
      <trkpt lat="43.3986" lon="1.11089">
        <ele>302.6</ele>
        <time>2024-05-20T07:10:20Z</time>
      </trkpt>
      <trkpt lat="43.39866" lon="1.11092">
        <ele>302.6</ele>
        <time>2024-05-20T07:10:21Z</time>
      </trkpt>
      <trkpt lat="43.39872" lon="1.11094">
        <ele>302.6</ele>
        <time>2024-05-20T07:10:22Z</time>
      </trkpt>
      <trkpt lat="43.39878" lon="1.11097">
        <ele>302.6</ele>
        <time>2024-05-20T07:10:23Z</time>
      </trkpt>
      <trkpt lat="43.39884" lon="1.11101">
        <ele>302.6</ele>
        <time>2024-05-20T07:10:24Z</time>
      </trkpt>
      <trkpt lat="43.3989" lon="1.11104">
        <ele>302.6</ele>
        <time>2024-05-20T07:10:25Z</time>
      </trkpt>
      <trkpt lat="43.39897" lon="1.11108">
        <ele>302.4</ele>
        <time>2024-05-20T07:10:26Z</time>
      </trkpt>
      <trkpt lat="43.39901" lon="1.11111">
        <ele>302.4</ele>
        <time>2024-05-20T07:10:27Z</time>
      </trkpt>
      <trkpt lat="43.39907" lon="1.11113">
        <ele>302.4</ele>
        <time>2024-05-20T07:10:28Z</time>
      </trkpt>
      <trkpt lat="43.39913" lon="1.11116">
        <ele>302.4</ele>
        <time>2024-05-20T07:10:29Z</time>
      </trkpt>
      <trkpt lat="43.39918" lon="1.11119">
        <ele>302.2</ele>
        <time>2024-05-20T07:10:30Z</time>
      </trkpt>
      <trkpt lat="43.39924" lon="1.11122">
        <ele>302.2</ele>
        <time>2024-05-20T07:10:31Z</time>
      </trkpt>
      <trkpt lat="43.3993" lon="1.11125">
        <ele>302.2</ele>
        <time>2024-05-20T07:10:32Z</time>
      </trkpt>
      <trkpt lat="43.3993" lon="1.11125">
        <ele>302.2</ele>
        <time>2024-05-20T07:10:33Z</time>
      </trkpt>
      <trkpt lat="43.39942" lon="1.11131">
        <ele>302.2</ele>
        <time>2024-05-20T07:10:34Z</time>
      </trkpt>
      <trkpt lat="43.39948" lon="1.11134">
        <ele>302.2</ele>
        <time>2024-05-20T07:10:35Z</time>
      </trkpt>
      <trkpt lat="43.39953" lon="1.11138">
        <ele>302.2</ele>
        <time>2024-05-20T07:10:36Z</time>
      </trkpt>
      <trkpt lat="43.3996" lon="1.11141">
        <ele>302.2</ele>
        <time>2024-05-20T07:10:37Z</time>
      </trkpt>
      <trkpt lat="43.39966" lon="1.11144">
        <ele>302.2</ele>
        <time>2024-05-20T07:10:38Z</time>
      </trkpt>
      <trkpt lat="43.39972" lon="1.11148">
        <ele>302.2</ele>
        <time>2024-05-20T07:10:39Z</time>
      </trkpt>
      <trkpt lat="43.39978" lon="1.11151">
        <ele>302.4</ele>
        <time>2024-05-20T07:10:40Z</time>
      </trkpt>
      <trkpt lat="43.39985" lon="1.11155">
        <ele>302.6</ele>
        <time>2024-05-20T07:10:41Z</time>
      </trkpt>
      <trkpt lat="43.39991" lon="1.11158">
        <ele>302.4</ele>
        <time>2024-05-20T07:10:42Z</time>
      </trkpt>
      <trkpt lat="43.39997" lon="1.11162">
        <ele>302.4</ele>
        <time>2024-05-20T07:10:43Z</time>
      </trkpt>
      <trkpt lat="43.40003" lon="1.11165">
        <ele>302.2</ele>
        <time>2024-05-20T07:10:44Z</time>
      </trkpt>
      <trkpt lat="43.4001" lon="1.11168">
        <ele>302.2</ele>
        <time>2024-05-20T07:10:45Z</time>
      </trkpt>
      <trkpt lat="43.40016" lon="1.11172">
        <ele>301.6</ele>
        <time>2024-05-20T07:10:46Z</time>
      </trkpt>
      <trkpt lat="43.40016" lon="1.11172">
        <ele>301.4</ele>
        <time>2024-05-20T07:10:47Z</time>
      </trkpt>
      <trkpt lat="43.40029" lon="1.11179">
        <ele>301.2</ele>
        <time>2024-05-20T07:10:48Z</time>
      </trkpt>
      <trkpt lat="43.40036" lon="1.11183">
        <ele>301</ele>
        <time>2024-05-20T07:10:49Z</time>
      </trkpt>
      <trkpt lat="43.40044" lon="1.11188">
        <ele>300.8</ele>
        <time>2024-05-20T07:10:50Z</time>
      </trkpt>
      <trkpt lat="43.40051" lon="1.11191">
        <ele>300.6</ele>
        <time>2024-05-20T07:10:51Z</time>
      </trkpt>
      <trkpt lat="43.40057" lon="1.11195">
        <ele>300.6</ele>
        <time>2024-05-20T07:10:52Z</time>
      </trkpt>
      <trkpt lat="43.40062" lon="1.11197">
        <ele>300.2</ele>
        <time>2024-05-20T07:10:53Z</time>
      </trkpt>
      <trkpt lat="43.40066" lon="1.11199">
        <ele>300</ele>
        <time>2024-05-20T07:10:54Z</time>
      </trkpt>
      <trkpt lat="43.40068" lon="1.11199">
        <ele>299.6</ele>
        <time>2024-05-20T07:10:55Z</time>
      </trkpt>
      <trkpt lat="43.40071" lon="1.11198">
        <ele>299.4</ele>
        <time>2024-05-20T07:10:56Z</time>
      </trkpt>
      <trkpt lat="43.40072" lon="1.11195">
        <ele>299.2</ele>
        <time>2024-05-20T07:10:57Z</time>
      </trkpt>
      <trkpt lat="43.40073" lon="1.11191">
        <ele>299</ele>
        <time>2024-05-20T07:10:58Z</time>
      </trkpt>
      <trkpt lat="43.40073" lon="1.11187">
        <ele>299</ele>
        <time>2024-05-20T07:10:59Z</time>
      </trkpt>
      <trkpt lat="43.40072" lon="1.11182">
        <ele>298.6</ele>
        <time>2024-05-20T07:11:00Z</time>
      </trkpt>
      <trkpt lat="43.40072" lon="1.11182">
        <ele>298.6</ele>
        <time>2024-05-20T07:11:01Z</time>
      </trkpt>
      <trkpt lat="43.40072" lon="1.11171">
        <ele>298.6</ele>
        <time>2024-05-20T07:11:02Z</time>
      </trkpt>
      <trkpt lat="43.40072" lon="1.11165">
        <ele>298.4</ele>
        <time>2024-05-20T07:11:03Z</time>
      </trkpt>
      <trkpt lat="43.40072" lon="1.11159">
        <ele>298.4</ele>
        <time>2024-05-20T07:11:04Z</time>
      </trkpt>
      <trkpt lat="43.40071" lon="1.11153">
        <ele>298.4</ele>
        <time>2024-05-20T07:11:05Z</time>
      </trkpt>
      <trkpt lat="43.40071" lon="1.11147">
        <ele>298.4</ele>
        <time>2024-05-20T07:11:06Z</time>
      </trkpt>
      <trkpt lat="43.4007" lon="1.11141">
        <ele>298.4</ele>
        <time>2024-05-20T07:11:07Z</time>
      </trkpt>
      <trkpt lat="43.4007" lon="1.11135">
        <ele>298.4</ele>
        <time>2024-05-20T07:11:08Z</time>
      </trkpt>
      <trkpt lat="43.4007" lon="1.11129">
        <ele>298.4</ele>
        <time>2024-05-20T07:11:09Z</time>
      </trkpt>
      <trkpt lat="43.4007" lon="1.11123">
        <ele>298.4</ele>
        <time>2024-05-20T07:11:10Z</time>
      </trkpt>
      <trkpt lat="43.40069" lon="1.11117">
        <ele>298.4</ele>
        <time>2024-05-20T07:11:11Z</time>
      </trkpt>
      <trkpt lat="43.40069" lon="1.11111">
        <ele>298.4</ele>
        <time>2024-05-20T07:11:12Z</time>
      </trkpt>
      <trkpt lat="43.40068" lon="1.11104">
        <ele>298.4</ele>
        <time>2024-05-20T07:11:13Z</time>
      </trkpt>
      <trkpt lat="43.40068" lon="1.11097">
        <ele>298.4</ele>
        <time>2024-05-20T07:11:14Z</time>
      </trkpt>
      <trkpt lat="43.40068" lon="1.11097">
        <ele>298.4</ele>
        <time>2024-05-20T07:11:15Z</time>
      </trkpt>
      <trkpt lat="43.40068" lon="1.11083">
        <ele>298.4</ele>
        <time>2024-05-20T07:11:16Z</time>
      </trkpt>
      <trkpt lat="43.40068" lon="1.11076">
        <ele>298.6</ele>
        <time>2024-05-20T07:11:17Z</time>
      </trkpt>
      <trkpt lat="43.40068" lon="1.11068">
        <ele>298.6</ele>
        <time>2024-05-20T07:11:18Z</time>
      </trkpt>
      <trkpt lat="43.40068" lon="1.11061">
        <ele>298.6</ele>
        <time>2024-05-20T07:11:19Z</time>
      </trkpt>
      <trkpt lat="43.40068" lon="1.11052">
        <ele>298.6</ele>
        <time>2024-05-20T07:11:20Z</time>
      </trkpt>
      <trkpt lat="43.40068" lon="1.11044">
        <ele>298.8</ele>
        <time>2024-05-20T07:11:21Z</time>
      </trkpt>
      <trkpt lat="43.40068" lon="1.11036">
        <ele>298.8</ele>
        <time>2024-05-20T07:11:22Z</time>
      </trkpt>
      <trkpt lat="43.40068" lon="1.11027">
        <ele>298.8</ele>
        <time>2024-05-20T07:11:23Z</time>
      </trkpt>
      <trkpt lat="43.40068" lon="1.11019">
        <ele>299</ele>
        <time>2024-05-20T07:11:24Z</time>
      </trkpt>
      <trkpt lat="43.40068" lon="1.1101">
        <ele>299</ele>
        <time>2024-05-20T07:11:25Z</time>
      </trkpt>
      <trkpt lat="43.40068" lon="1.11002">
        <ele>299</ele>
        <time>2024-05-20T07:11:26Z</time>
      </trkpt>
      <trkpt lat="43.40068" lon="1.10993">
        <ele>299</ele>
        <time>2024-05-20T07:11:27Z</time>
      </trkpt>
      <trkpt lat="43.40068" lon="1.10985">
        <ele>299.2</ele>
        <time>2024-05-20T07:11:28Z</time>
      </trkpt>
      <trkpt lat="43.40068" lon="1.10985">
        <ele>299.2</ele>
        <time>2024-05-20T07:11:29Z</time>
      </trkpt>
      <trkpt lat="43.40068" lon="1.10969">
        <ele>299.2</ele>
        <time>2024-05-20T07:11:30Z</time>
      </trkpt>
      <trkpt lat="43.40068" lon="1.10959">
        <ele>299.4</ele>
        <time>2024-05-20T07:11:31Z</time>
      </trkpt>
      <trkpt lat="43.40068" lon="1.10953">
        <ele>299.4</ele>
        <time>2024-05-20T07:11:32Z</time>
      </trkpt>
      <trkpt lat="43.40068" lon="1.10945">
        <ele>299.6</ele>
        <time>2024-05-20T07:11:33Z</time>
      </trkpt>
      <trkpt lat="43.40068" lon="1.10937">
        <ele>299.6</ele>
        <time>2024-05-20T07:11:34Z</time>
      </trkpt>
      <trkpt lat="43.40068" lon="1.10929">
        <ele>299.8</ele>
        <time>2024-05-20T07:11:35Z</time>
      </trkpt>
      <trkpt lat="43.40068" lon="1.10921">
        <ele>299.8</ele>
        <time>2024-05-20T07:11:36Z</time>
      </trkpt>
      <trkpt lat="43.40068" lon="1.10913">
        <ele>299.8</ele>
        <time>2024-05-20T07:11:37Z</time>
      </trkpt>
      <trkpt lat="43.40068" lon="1.10905">
        <ele>300</ele>
        <time>2024-05-20T07:11:38Z</time>
      </trkpt>
      <trkpt lat="43.40068" lon="1.10898">
        <ele>300.2</ele>
        <time>2024-05-20T07:11:39Z</time>
      </trkpt>
      <trkpt lat="43.40068" lon="1.1089">
        <ele>300.2</ele>
        <time>2024-05-20T07:11:40Z</time>
      </trkpt>
      <trkpt lat="43.40068" lon="1.10883">
        <ele>300.2</ele>
        <time>2024-05-20T07:11:41Z</time>
      </trkpt>
      <trkpt lat="43.40068" lon="1.10876">
        <ele>300.2</ele>
        <time>2024-05-20T07:11:42Z</time>
      </trkpt>
      <trkpt lat="43.40068" lon="1.10869">
        <ele>300.6</ele>
        <time>2024-05-20T07:11:43Z</time>
      </trkpt>
      <trkpt lat="43.40068" lon="1.10861">
        <ele>300.6</ele>
        <time>2024-05-20T07:11:44Z</time>
      </trkpt>
      <trkpt lat="43.40068" lon="1.10854">
        <ele>300.6</ele>
        <time>2024-05-20T07:11:45Z</time>
      </trkpt>
      <trkpt lat="43.40068" lon="1.10846">
        <ele>300.6</ele>
        <time>2024-05-20T07:11:46Z</time>
      </trkpt>
      <trkpt lat="43.40068" lon="1.10838">
        <ele>300.6</ele>
        <time>2024-05-20T07:11:47Z</time>
      </trkpt>
      <trkpt lat="43.40068" lon="1.10838">
        <ele>300.6</ele>
        <time>2024-05-20T07:11:48Z</time>
      </trkpt>
      <trkpt lat="43.40069" lon="1.10823">
        <ele>300.6</ele>
        <time>2024-05-20T07:11:49Z</time>
      </trkpt>
      <trkpt lat="43.40069" lon="1.10816">
        <ele>300.8</ele>
        <time>2024-05-20T07:11:50Z</time>
      </trkpt>
      <trkpt lat="43.40069" lon="1.10808">
        <ele>300.8</ele>
        <time>2024-05-20T07:11:51Z</time>
      </trkpt>
      <trkpt lat="43.40069" lon="1.10801">
        <ele>301</ele>
        <time>2024-05-20T07:11:52Z</time>
      </trkpt>
      <trkpt lat="43.40069" lon="1.10793">
        <ele>301.2</ele>
        <time>2024-05-20T07:11:53Z</time>
      </trkpt>
      <trkpt lat="43.40069" lon="1.10786">
        <ele>301.2</ele>
        <time>2024-05-20T07:11:54Z</time>
      </trkpt>
      <trkpt lat="43.40069" lon="1.10778">
        <ele>301.4</ele>
        <time>2024-05-20T07:11:55Z</time>
      </trkpt>
      <trkpt lat="43.40069" lon="1.1077">
        <ele>301.4</ele>
        <time>2024-05-20T07:11:56Z</time>
      </trkpt>
      <trkpt lat="43.40069" lon="1.10762">
        <ele>301.4</ele>
        <time>2024-05-20T07:11:57Z</time>
      </trkpt>
      <trkpt lat="43.40069" lon="1.10754">
        <ele>301.4</ele>
        <time>2024-05-20T07:11:58Z</time>
      </trkpt>
      <trkpt lat="43.40069" lon="1.10746">
        <ele>301.8</ele>
        <time>2024-05-20T07:11:59Z</time>
      </trkpt>
      <trkpt lat="43.40069" lon="1.10738">
        <ele>301.8</ele>
        <time>2024-05-20T07:12:00Z</time>
      </trkpt>
      <trkpt lat="43.4007" lon="1.1073">
        <ele>302</ele>
        <time>2024-05-20T07:12:01Z</time>
      </trkpt>
      <trkpt lat="43.4007" lon="1.1073">
        <ele>302</ele>
        <time>2024-05-20T07:12:02Z</time>
      </trkpt>
      <trkpt lat="43.4007" lon="1.10713">
        <ele>302</ele>
        <time>2024-05-20T07:12:03Z</time>
      </trkpt>
      <trkpt lat="43.4007" lon="1.10704">
        <ele>302</ele>
        <time>2024-05-20T07:12:04Z</time>
      </trkpt>
      <trkpt lat="43.4007" lon="1.10704">
        <ele>302.2</ele>
        <time>2024-05-20T07:12:05Z</time>
      </trkpt>
      <trkpt lat="43.4007" lon="1.10689">
        <ele>302.2</ele>
        <time>2024-05-20T07:12:06Z</time>
      </trkpt>
      <trkpt lat="43.40071" lon="1.10681">
        <ele>302.2</ele>
        <time>2024-05-20T07:12:07Z</time>
      </trkpt>
      <trkpt lat="43.40071" lon="1.10681">
        <ele>302.2</ele>
        <time>2024-05-20T07:12:08Z</time>
      </trkpt>
      <trkpt lat="43.40071" lon="1.10665">
        <ele>302.2</ele>
        <time>2024-05-20T07:12:09Z</time>
      </trkpt>
      <trkpt lat="43.40071" lon="1.10658">
        <ele>302.2</ele>
        <time>2024-05-20T07:12:10Z</time>
      </trkpt>
      <trkpt lat="43.40071" lon="1.10658">
        <ele>302.2</ele>
        <time>2024-05-20T07:12:11Z</time>
      </trkpt>
      <trkpt lat="43.40071" lon="1.10643">
        <ele>302.2</ele>
        <time>2024-05-20T07:12:12Z</time>
      </trkpt>
      <trkpt lat="43.4007" lon="1.10636">
        <ele>302.2</ele>
        <time>2024-05-20T07:12:13Z</time>
      </trkpt>
      <trkpt lat="43.4007" lon="1.10629">
        <ele>302.2</ele>
        <time>2024-05-20T07:12:14Z</time>
      </trkpt>
      <trkpt lat="43.4007" lon="1.10622">
        <ele>302.4</ele>
        <time>2024-05-20T07:12:15Z</time>
      </trkpt>
      <trkpt lat="43.4007" lon="1.10614">
        <ele>302.4</ele>
        <time>2024-05-20T07:12:16Z</time>
      </trkpt>
      <trkpt lat="43.4007" lon="1.10607">
        <ele>302.4</ele>
        <time>2024-05-20T07:12:17Z</time>
      </trkpt>
      <trkpt lat="43.4007" lon="1.10599">
        <ele>302.4</ele>
        <time>2024-05-20T07:12:18Z</time>
      </trkpt>
      <trkpt lat="43.4007" lon="1.10591">
        <ele>302.6</ele>
        <time>2024-05-20T07:12:19Z</time>
      </trkpt>
      <trkpt lat="43.4007" lon="1.10583">
        <ele>302.6</ele>
        <time>2024-05-20T07:12:20Z</time>
      </trkpt>
      <trkpt lat="43.40069" lon="1.10575">
        <ele>302.6</ele>
        <time>2024-05-20T07:12:21Z</time>
      </trkpt>
      <trkpt lat="43.40069" lon="1.10567">
        <ele>302.6</ele>
        <time>2024-05-20T07:12:22Z</time>
      </trkpt>
      <trkpt lat="43.40069" lon="1.10559">
        <ele>302.6</ele>
        <time>2024-05-20T07:12:23Z</time>
      </trkpt>
      <trkpt lat="43.40068" lon="1.1055">
        <ele>302.6</ele>
        <time>2024-05-20T07:12:24Z</time>
      </trkpt>
      <trkpt lat="43.40068" lon="1.10542">
        <ele>302.6</ele>
        <time>2024-05-20T07:12:25Z</time>
      </trkpt>
      <trkpt lat="43.40067" lon="1.10534">
        <ele>302.8</ele>
        <time>2024-05-20T07:12:26Z</time>
      </trkpt>
      <trkpt lat="43.40067" lon="1.10526">
        <ele>302.8</ele>
        <time>2024-05-20T07:12:27Z</time>
      </trkpt>
      <trkpt lat="43.40066" lon="1.10518">
        <ele>302.8</ele>
        <time>2024-05-20T07:12:28Z</time>
      </trkpt>
      <trkpt lat="43.40066" lon="1.1051">
        <ele>302.8</ele>
        <time>2024-05-20T07:12:29Z</time>
      </trkpt>
      <trkpt lat="43.40066" lon="1.1051">
        <ele>302.8</ele>
        <time>2024-05-20T07:12:30Z</time>
      </trkpt>
      <trkpt lat="43.40066" lon="1.10494">
        <ele>302.8</ele>
        <time>2024-05-20T07:12:31Z</time>
      </trkpt>
      <trkpt lat="43.40065" lon="1.10486">
        <ele>302.8</ele>
        <time>2024-05-20T07:12:32Z</time>
      </trkpt>
      <trkpt lat="43.40065" lon="1.10478">
        <ele>302.8</ele>
        <time>2024-05-20T07:12:33Z</time>
      </trkpt>
      <trkpt lat="43.40065" lon="1.1047">
        <ele>303.2</ele>
        <time>2024-05-20T07:12:34Z</time>
      </trkpt>
      <trkpt lat="43.40064" lon="1.10462">
        <ele>303.2</ele>
        <time>2024-05-20T07:12:35Z</time>
      </trkpt>
      <trkpt lat="43.40064" lon="1.10455">
        <ele>303.2</ele>
        <time>2024-05-20T07:12:36Z</time>
      </trkpt>
      <trkpt lat="43.40064" lon="1.10446">
        <ele>303.2</ele>
        <time>2024-05-20T07:12:37Z</time>
      </trkpt>
      <trkpt lat="43.40064" lon="1.10438">
        <ele>303.2</ele>
        <time>2024-05-20T07:12:38Z</time>
      </trkpt>
      <trkpt lat="43.40063" lon="1.1043">
        <ele>303.2</ele>
        <time>2024-05-20T07:12:39Z</time>
      </trkpt>
      <trkpt lat="43.40063" lon="1.10422">
        <ele>303.2</ele>
        <time>2024-05-20T07:12:40Z</time>
      </trkpt>
      <trkpt lat="43.40062" lon="1.10414">
        <ele>303.2</ele>
        <time>2024-05-20T07:12:41Z</time>
      </trkpt>
      <trkpt lat="43.40062" lon="1.10406">
        <ele>303.2</ele>
        <time>2024-05-20T07:12:42Z</time>
      </trkpt>
      <trkpt lat="43.40061" lon="1.10398">
        <ele>303.2</ele>
        <time>2024-05-20T07:12:43Z</time>
      </trkpt>
      <trkpt lat="43.40061" lon="1.1039">
        <ele>303.2</ele>
        <time>2024-05-20T07:12:44Z</time>
      </trkpt>
      <trkpt lat="43.40061" lon="1.10382">
        <ele>303.2</ele>
        <time>2024-05-20T07:12:45Z</time>
      </trkpt>
      <trkpt lat="43.4006" lon="1.10374">
        <ele>303.2</ele>
        <time>2024-05-20T07:12:46Z</time>
      </trkpt>
      <trkpt lat="43.40059" lon="1.10366">
        <ele>303.2</ele>
        <time>2024-05-20T07:12:47Z</time>
      </trkpt>
      <trkpt lat="43.40059" lon="1.10358">
        <ele>303.2</ele>
        <time>2024-05-20T07:12:48Z</time>
      </trkpt>
      <trkpt lat="43.40059" lon="1.10351">
        <ele>303.2</ele>
        <time>2024-05-20T07:12:49Z</time>
      </trkpt>
      <trkpt lat="43.40059" lon="1.10343">
        <ele>303.2</ele>
        <time>2024-05-20T07:12:50Z</time>
      </trkpt>
      <trkpt lat="43.40058" lon="1.10335">
        <ele>303.2</ele>
        <time>2024-05-20T07:12:51Z</time>
      </trkpt>
      <trkpt lat="43.40058" lon="1.10327">
        <ele>303.2</ele>
        <time>2024-05-20T07:12:52Z</time>
      </trkpt>
      <trkpt lat="43.40058" lon="1.10327">
        <ele>303.2</ele>
        <time>2024-05-20T07:12:53Z</time>
      </trkpt>
      <trkpt lat="43.40057" lon="1.10312">
        <ele>303.2</ele>
        <time>2024-05-20T07:12:54Z</time>
      </trkpt>
      <trkpt lat="43.40057" lon="1.10304">
        <ele>303.2</ele>
        <time>2024-05-20T07:12:55Z</time>
      </trkpt>
      <trkpt lat="43.40056" lon="1.10296">
        <ele>303.4</ele>
        <time>2024-05-20T07:12:56Z</time>
      </trkpt>
      <trkpt lat="43.40056" lon="1.10288">
        <ele>303.4</ele>
        <time>2024-05-20T07:12:57Z</time>
      </trkpt>
      <trkpt lat="43.40056" lon="1.10281">
        <ele>303.4</ele>
        <time>2024-05-20T07:12:58Z</time>
      </trkpt>
      <trkpt lat="43.40055" lon="1.10274">
        <ele>303.4</ele>
        <time>2024-05-20T07:12:59Z</time>
      </trkpt>
      <trkpt lat="43.40055" lon="1.10265">
        <ele>303.8</ele>
        <time>2024-05-20T07:13:00Z</time>
      </trkpt>
      <trkpt lat="43.40055" lon="1.10259">
        <ele>303.8</ele>
        <time>2024-05-20T07:13:01Z</time>
      </trkpt>
      <trkpt lat="43.40055" lon="1.10251">
        <ele>304</ele>
        <time>2024-05-20T07:13:02Z</time>
      </trkpt>
      <trkpt lat="43.40054" lon="1.10244">
        <ele>304</ele>
        <time>2024-05-20T07:13:03Z</time>
      </trkpt>
      <trkpt lat="43.40054" lon="1.10236">
        <ele>304</ele>
        <time>2024-05-20T07:13:04Z</time>
      </trkpt>
      <trkpt lat="43.40054" lon="1.10229">
        <ele>304.2</ele>
        <time>2024-05-20T07:13:05Z</time>
      </trkpt>
      <trkpt lat="43.40054" lon="1.10221">
        <ele>304.4</ele>
        <time>2024-05-20T07:13:06Z</time>
      </trkpt>
      <trkpt lat="43.40054" lon="1.10213">
        <ele>304.4</ele>
        <time>2024-05-20T07:13:07Z</time>
      </trkpt>
      <trkpt lat="43.40053" lon="1.10206">
        <ele>304.6</ele>
        <time>2024-05-20T07:13:08Z</time>
      </trkpt>
      <trkpt lat="43.40053" lon="1.10198">
        <ele>304.6</ele>
        <time>2024-05-20T07:13:09Z</time>
      </trkpt>
      <trkpt lat="43.40053" lon="1.1019">
        <ele>304.6</ele>
        <time>2024-05-20T07:13:10Z</time>
      </trkpt>
      <trkpt lat="43.40053" lon="1.10182">
        <ele>304.8</ele>
        <time>2024-05-20T07:13:11Z</time>
      </trkpt>
      <trkpt lat="43.40053" lon="1.10174">
        <ele>305</ele>
        <time>2024-05-20T07:13:12Z</time>
      </trkpt>
      <trkpt lat="43.40052" lon="1.10166">
        <ele>305</ele>
        <time>2024-05-20T07:13:13Z</time>
      </trkpt>
      <trkpt lat="43.40052" lon="1.10157">
        <ele>305</ele>
        <time>2024-05-20T07:13:14Z</time>
      </trkpt>
      <trkpt lat="43.40052" lon="1.1015">
        <ele>305.2</ele>
        <time>2024-05-20T07:13:15Z</time>
      </trkpt>
      <trkpt lat="43.40051" lon="1.10142">
        <ele>305.4</ele>
        <time>2024-05-20T07:13:16Z</time>
      </trkpt>
      <trkpt lat="43.40049" lon="1.10135">
        <ele>305.4</ele>
        <time>2024-05-20T07:13:17Z</time>
      </trkpt>
      <trkpt lat="43.40045" lon="1.1013">
        <ele>305.8</ele>
        <time>2024-05-20T07:13:18Z</time>
      </trkpt>
      <trkpt lat="43.40039" lon="1.10125">
        <ele>305.8</ele>
        <time>2024-05-20T07:13:19Z</time>
      </trkpt>
      <trkpt lat="43.40035" lon="1.10124">
        <ele>305.8</ele>
        <time>2024-05-20T07:13:20Z</time>
      </trkpt>
      <trkpt lat="43.40028" lon="1.10122">
        <ele>305.8</ele>
        <time>2024-05-20T07:13:21Z</time>
      </trkpt>
      <trkpt lat="43.40022" lon="1.1012">
        <ele>306</ele>
        <time>2024-05-20T07:13:22Z</time>
      </trkpt>
      <trkpt lat="43.40016" lon="1.10118">
        <ele>306</ele>
        <time>2024-05-20T07:13:23Z</time>
      </trkpt>
      <trkpt lat="43.4001" lon="1.10116">
        <ele>306</ele>
        <time>2024-05-20T07:13:24Z</time>
      </trkpt>
      <trkpt lat="43.40003" lon="1.10114">
        <ele>306</ele>
        <time>2024-05-20T07:13:25Z</time>
      </trkpt>
      <trkpt lat="43.39997" lon="1.10112">
        <ele>306.2</ele>
        <time>2024-05-20T07:13:26Z</time>
      </trkpt>
      <trkpt lat="43.3999" lon="1.10109">
        <ele>306.2</ele>
        <time>2024-05-20T07:13:27Z</time>
      </trkpt>
      <trkpt lat="43.3999" lon="1.10109">
        <ele>306.2</ele>
        <time>2024-05-20T07:13:28Z</time>
      </trkpt>
      <trkpt lat="43.39977" lon="1.10103">
        <ele>306.2</ele>
        <time>2024-05-20T07:13:29Z</time>
      </trkpt>
      <trkpt lat="43.39971" lon="1.101">
        <ele>306.2</ele>
        <time>2024-05-20T07:13:30Z</time>
      </trkpt>
      <trkpt lat="43.39971" lon="1.101">
        <ele>306.4</ele>
        <time>2024-05-20T07:13:31Z</time>
      </trkpt>
      <trkpt lat="43.39959" lon="1.10094">
        <ele>306.4</ele>
        <time>2024-05-20T07:13:32Z</time>
      </trkpt>
      <trkpt lat="43.39953" lon="1.1009">
        <ele>306.6</ele>
        <time>2024-05-20T07:13:33Z</time>
      </trkpt>
      <trkpt lat="43.39951" lon="1.10086">
        <ele>306.6</ele>
        <time>2024-05-20T07:13:34Z</time>
      </trkpt>
      <trkpt lat="43.39949" lon="1.1008">
        <ele>306.6</ele>
        <time>2024-05-20T07:13:35Z</time>
      </trkpt>
      <trkpt lat="43.39949" lon="1.10073">
        <ele>306.6</ele>
        <time>2024-05-20T07:13:36Z</time>
      </trkpt>
      <trkpt lat="43.39951" lon="1.10066">
        <ele>306.6</ele>
        <time>2024-05-20T07:13:37Z</time>
      </trkpt>
      <trkpt lat="43.39954" lon="1.10059">
        <ele>306.4</ele>
        <time>2024-05-20T07:13:38Z</time>
      </trkpt>
      <trkpt lat="43.39957" lon="1.10052">
        <ele>306.4</ele>
        <time>2024-05-20T07:13:39Z</time>
      </trkpt>
      <trkpt lat="43.3996" lon="1.10045">
        <ele>306.4</ele>
        <time>2024-05-20T07:13:40Z</time>
      </trkpt>
      <trkpt lat="43.39962" lon="1.10038">
        <ele>306.4</ele>
        <time>2024-05-20T07:13:41Z</time>
      </trkpt>
      <trkpt lat="43.39965" lon="1.1003">
        <ele>306.4</ele>
        <time>2024-05-20T07:13:42Z</time>
      </trkpt>
      <trkpt lat="43.39968" lon="1.10022">
        <ele>306.2</ele>
        <time>2024-05-20T07:13:43Z</time>
      </trkpt>
      <trkpt lat="43.39971" lon="1.10015">
        <ele>306.2</ele>
        <time>2024-05-20T07:13:44Z</time>
      </trkpt>
      <trkpt lat="43.39974" lon="1.10007">
        <ele>306.2</ele>
        <time>2024-05-20T07:13:45Z</time>
      </trkpt>
      <trkpt lat="43.39976" lon="1.09999">
        <ele>306.2</ele>
        <time>2024-05-20T07:13:46Z</time>
      </trkpt>
      <trkpt lat="43.39979" lon="1.09991">
        <ele>306.2</ele>
        <time>2024-05-20T07:13:47Z</time>
      </trkpt>
      <trkpt lat="43.39982" lon="1.09983">
        <ele>306.2</ele>
        <time>2024-05-20T07:13:48Z</time>
      </trkpt>
      <trkpt lat="43.39985" lon="1.09975">
        <ele>306.2</ele>
        <time>2024-05-20T07:13:49Z</time>
      </trkpt>
      <trkpt lat="43.39987" lon="1.09968">
        <ele>306.2</ele>
        <time>2024-05-20T07:13:50Z</time>
      </trkpt>
      <trkpt lat="43.3999" lon="1.0996">
        <ele>306.2</ele>
        <time>2024-05-20T07:13:51Z</time>
      </trkpt>
      <trkpt lat="43.39993" lon="1.09952">
        <ele>306.4</ele>
        <time>2024-05-20T07:13:52Z</time>
      </trkpt>
      <trkpt lat="43.39996" lon="1.09944">
        <ele>306.4</ele>
        <time>2024-05-20T07:13:53Z</time>
      </trkpt>
      <trkpt lat="43.39998" lon="1.09936">
        <ele>306.4</ele>
        <time>2024-05-20T07:13:54Z</time>
      </trkpt>
      <trkpt lat="43.40001" lon="1.09929">
        <ele>306.4</ele>
        <time>2024-05-20T07:13:55Z</time>
      </trkpt>
      <trkpt lat="43.40004" lon="1.09921">
        <ele>306.6</ele>
        <time>2024-05-20T07:13:56Z</time>
      </trkpt>
      <trkpt lat="43.40007" lon="1.09912">
        <ele>306.6</ele>
        <time>2024-05-20T07:13:57Z</time>
      </trkpt>
      <trkpt lat="43.40009" lon="1.09906">
        <ele>306.8</ele>
        <time>2024-05-20T07:13:58Z</time>
      </trkpt>
      <trkpt lat="43.40012" lon="1.09899">
        <ele>306.8</ele>
        <time>2024-05-20T07:13:59Z</time>
      </trkpt>
      <trkpt lat="43.40015" lon="1.0989">
        <ele>306.8</ele>
        <time>2024-05-20T07:14:00Z</time>
      </trkpt>
      <trkpt lat="43.40018" lon="1.09883">
        <ele>306.8</ele>
        <time>2024-05-20T07:14:01Z</time>
      </trkpt>
      <trkpt lat="43.4002" lon="1.09875">
        <ele>306.8</ele>
        <time>2024-05-20T07:14:02Z</time>
      </trkpt>
      <trkpt lat="43.40023" lon="1.09867">
        <ele>306.8</ele>
        <time>2024-05-20T07:14:03Z</time>
      </trkpt>
      <trkpt lat="43.40025" lon="1.0986">
        <ele>306.8</ele>
        <time>2024-05-20T07:14:04Z</time>
      </trkpt>
      <trkpt lat="43.40028" lon="1.09852">
        <ele>306.8</ele>
        <time>2024-05-20T07:14:05Z</time>
      </trkpt>
      <trkpt lat="43.40031" lon="1.09844">
        <ele>306.8</ele>
        <time>2024-05-20T07:14:06Z</time>
      </trkpt>
      <trkpt lat="43.40034" lon="1.09836">
        <ele>307</ele>
        <time>2024-05-20T07:14:07Z</time>
      </trkpt>
      <trkpt lat="43.40037" lon="1.09828">
        <ele>307</ele>
        <time>2024-05-20T07:14:08Z</time>
      </trkpt>
      <trkpt lat="43.40037" lon="1.09828">
        <ele>307</ele>
        <time>2024-05-20T07:14:09Z</time>
      </trkpt>
      <trkpt lat="43.40042" lon="1.09811">
        <ele>307.2</ele>
        <time>2024-05-20T07:14:10Z</time>
      </trkpt>
      <trkpt lat="43.40045" lon="1.09802">
        <ele>307.2</ele>
        <time>2024-05-20T07:14:11Z</time>
      </trkpt>
      <trkpt lat="43.40048" lon="1.09794">
        <ele>307.2</ele>
        <time>2024-05-20T07:14:12Z</time>
      </trkpt>
      <trkpt lat="43.40051" lon="1.09786">
        <ele>307.2</ele>
        <time>2024-05-20T07:14:13Z</time>
      </trkpt>
      <trkpt lat="43.40054" lon="1.09777">
        <ele>307.2</ele>
        <time>2024-05-20T07:14:14Z</time>
      </trkpt>
      <trkpt lat="43.40057" lon="1.09769">
        <ele>307.2</ele>
        <time>2024-05-20T07:14:15Z</time>
      </trkpt>
      <trkpt lat="43.4006" lon="1.09761">
        <ele>307.2</ele>
        <time>2024-05-20T07:14:16Z</time>
      </trkpt>
      <trkpt lat="43.40063" lon="1.09752">
        <ele>307.2</ele>
        <time>2024-05-20T07:14:17Z</time>
      </trkpt>
      <trkpt lat="43.40066" lon="1.09744">
        <ele>307.2</ele>
        <time>2024-05-20T07:14:18Z</time>
      </trkpt>
      <trkpt lat="43.40069" lon="1.09735">
        <ele>307.2</ele>
        <time>2024-05-20T07:14:19Z</time>
      </trkpt>
      <trkpt lat="43.40071" lon="1.09727">
        <ele>307.2</ele>
        <time>2024-05-20T07:14:20Z</time>
      </trkpt>
      <trkpt lat="43.40074" lon="1.09718">
        <ele>307.2</ele>
        <time>2024-05-20T07:14:21Z</time>
      </trkpt>
      <trkpt lat="43.40077" lon="1.09709">
        <ele>307.2</ele>
        <time>2024-05-20T07:14:22Z</time>
      </trkpt>
      <trkpt lat="43.4008" lon="1.097">
        <ele>307.2</ele>
        <time>2024-05-20T07:14:23Z</time>
      </trkpt>
      <trkpt lat="43.40083" lon="1.09692">
        <ele>307.2</ele>
        <time>2024-05-20T07:14:24Z</time>
      </trkpt>
      <trkpt lat="43.40086" lon="1.09683">
        <ele>307.2</ele>
        <time>2024-05-20T07:14:25Z</time>
      </trkpt>
      <trkpt lat="43.40089" lon="1.09675">
        <ele>307.2</ele>
        <time>2024-05-20T07:14:26Z</time>
      </trkpt>
      <trkpt lat="43.40092" lon="1.09666">
        <ele>307.2</ele>
        <time>2024-05-20T07:14:27Z</time>
      </trkpt>
      <trkpt lat="43.40095" lon="1.09657">
        <ele>307.2</ele>
        <time>2024-05-20T07:14:28Z</time>
      </trkpt>
      <trkpt lat="43.40098" lon="1.09649">
        <ele>307.2</ele>
        <time>2024-05-20T07:14:29Z</time>
      </trkpt>
      <trkpt lat="43.40101" lon="1.0964">
        <ele>307.2</ele>
        <time>2024-05-20T07:14:30Z</time>
      </trkpt>
      <trkpt lat="43.40105" lon="1.09631">
        <ele>307.2</ele>
        <time>2024-05-20T07:14:31Z</time>
      </trkpt>
      <trkpt lat="43.40108" lon="1.09623">
        <ele>307.2</ele>
        <time>2024-05-20T07:14:32Z</time>
      </trkpt>
      <trkpt lat="43.40111" lon="1.09614">
        <ele>307</ele>
        <time>2024-05-20T07:14:33Z</time>
      </trkpt>
      <trkpt lat="43.40114" lon="1.09606">
        <ele>307</ele>
        <time>2024-05-20T07:14:34Z</time>
      </trkpt>
      <trkpt lat="43.40117" lon="1.09597">
        <ele>306.8</ele>
        <time>2024-05-20T07:14:35Z</time>
      </trkpt>
      <trkpt lat="43.4012" lon="1.09589">
        <ele>306.8</ele>
        <time>2024-05-20T07:14:36Z</time>
      </trkpt>
      <trkpt lat="43.40123" lon="1.0958">
        <ele>306.8</ele>
        <time>2024-05-20T07:14:37Z</time>
      </trkpt>
      <trkpt lat="43.40126" lon="1.09571">
        <ele>306.8</ele>
        <time>2024-05-20T07:14:38Z</time>
      </trkpt>
      <trkpt lat="43.40129" lon="1.09562">
        <ele>306.8</ele>
        <time>2024-05-20T07:14:39Z</time>
      </trkpt>
      <trkpt lat="43.40132" lon="1.09554">
        <ele>306.8</ele>
        <time>2024-05-20T07:14:40Z</time>
      </trkpt>
      <trkpt lat="43.40135" lon="1.09545">
        <ele>306.8</ele>
        <time>2024-05-20T07:14:41Z</time>
      </trkpt>
      <trkpt lat="43.40138" lon="1.09536">
        <ele>306.8</ele>
        <time>2024-05-20T07:14:42Z</time>
      </trkpt>
      <trkpt lat="43.40141" lon="1.09527">
        <ele>306.8</ele>
        <time>2024-05-20T07:14:43Z</time>
      </trkpt>
      <trkpt lat="43.40144" lon="1.09519">
        <ele>306.8</ele>
        <time>2024-05-20T07:14:44Z</time>
      </trkpt>
      <trkpt lat="43.40147" lon="1.09511">
        <ele>307</ele>
        <time>2024-05-20T07:14:45Z</time>
      </trkpt>
      <trkpt lat="43.4015" lon="1.09502">
        <ele>307</ele>
        <time>2024-05-20T07:14:46Z</time>
      </trkpt>
      <trkpt lat="43.40153" lon="1.09494">
        <ele>307</ele>
        <time>2024-05-20T07:14:47Z</time>
      </trkpt>
      <trkpt lat="43.40156" lon="1.09487">
        <ele>307</ele>
        <time>2024-05-20T07:14:48Z</time>
      </trkpt>
      <trkpt lat="43.40158" lon="1.09479">
        <ele>307</ele>
        <time>2024-05-20T07:14:49Z</time>
      </trkpt>
      <trkpt lat="43.40161" lon="1.09472">
        <ele>307</ele>
        <time>2024-05-20T07:14:50Z</time>
      </trkpt>
      <trkpt lat="43.40163" lon="1.09464">
        <ele>307.2</ele>
        <time>2024-05-20T07:14:51Z</time>
      </trkpt>
      <trkpt lat="43.40166" lon="1.09457">
        <ele>307.4</ele>
        <time>2024-05-20T07:14:52Z</time>
      </trkpt>
      <trkpt lat="43.40168" lon="1.0945">
        <ele>307.6</ele>
        <time>2024-05-20T07:14:53Z</time>
      </trkpt>
      <trkpt lat="43.40171" lon="1.09443">
        <ele>307.8</ele>
        <time>2024-05-20T07:14:54Z</time>
      </trkpt>
      <trkpt lat="43.40173" lon="1.09437">
        <ele>308.4</ele>
        <time>2024-05-20T07:14:55Z</time>
      </trkpt>
      <trkpt lat="43.40175" lon="1.09431">
        <ele>308.4</ele>
        <time>2024-05-20T07:14:56Z</time>
      </trkpt>
      <trkpt lat="43.40178" lon="1.09424">
        <ele>308.8</ele>
        <time>2024-05-20T07:14:57Z</time>
      </trkpt>
      <trkpt lat="43.4018" lon="1.09418">
        <ele>309</ele>
        <time>2024-05-20T07:14:58Z</time>
      </trkpt>
      <trkpt lat="43.40182" lon="1.09412">
        <ele>309.4</ele>
        <time>2024-05-20T07:14:59Z</time>
      </trkpt>
      <trkpt lat="43.40184" lon="1.09406">
        <ele>309.8</ele>
        <time>2024-05-20T07:15:00Z</time>
      </trkpt>
      <trkpt lat="43.40185" lon="1.094">
        <ele>310</ele>
        <time>2024-05-20T07:15:01Z</time>
      </trkpt>
      <trkpt lat="43.40188" lon="1.09394">
        <ele>310.2</ele>
        <time>2024-05-20T07:15:02Z</time>
      </trkpt>
      <trkpt lat="43.40189" lon="1.09389">
        <ele>310.4</ele>
        <time>2024-05-20T07:15:03Z</time>
      </trkpt>
      <trkpt lat="43.4019" lon="1.09385">
        <ele>311.2</ele>
        <time>2024-05-20T07:15:04Z</time>
      </trkpt>
      <trkpt lat="43.40191" lon="1.09382">
        <ele>311.4</ele>
        <time>2024-05-20T07:15:05Z</time>
      </trkpt>
      <trkpt lat="43.40191" lon="1.09378">
        <ele>311.8</ele>
        <time>2024-05-20T07:15:06Z</time>
      </trkpt>
      <trkpt lat="43.40189" lon="1.09375">
        <ele>312.2</ele>
        <time>2024-05-20T07:15:07Z</time>
      </trkpt>
      <trkpt lat="43.40187" lon="1.0937">
        <ele>312.6</ele>
        <time>2024-05-20T07:15:08Z</time>
      </trkpt>
      <trkpt lat="43.40187" lon="1.0937">
        <ele>313</ele>
        <time>2024-05-20T07:15:09Z</time>
      </trkpt>
      <trkpt lat="43.40181" lon="1.09363">
        <ele>313.2</ele>
        <time>2024-05-20T07:15:10Z</time>
      </trkpt>
      <trkpt lat="43.40177" lon="1.09358">
        <ele>313.6</ele>
        <time>2024-05-20T07:15:11Z</time>
      </trkpt>
      <trkpt lat="43.40173" lon="1.09353">
        <ele>313.6</ele>
        <time>2024-05-20T07:15:12Z</time>
      </trkpt>
      <trkpt lat="43.4017" lon="1.0935">
        <ele>313.8</ele>
        <time>2024-05-20T07:15:13Z</time>
      </trkpt>
      <trkpt lat="43.40166" lon="1.09345">
        <ele>313.8</ele>
        <time>2024-05-20T07:15:14Z</time>
      </trkpt>
      <trkpt lat="43.40162" lon="1.0934">
        <ele>314.2</ele>
        <time>2024-05-20T07:15:15Z</time>
      </trkpt>
      <trkpt lat="43.40157" lon="1.09334">
        <ele>314.2</ele>
        <time>2024-05-20T07:15:16Z</time>
      </trkpt>
      <trkpt lat="43.40153" lon="1.09328">
        <ele>314.2</ele>
        <time>2024-05-20T07:15:17Z</time>
      </trkpt>
      <trkpt lat="43.40149" lon="1.09323">
        <ele>314.2</ele>
        <time>2024-05-20T07:15:18Z</time>
      </trkpt>
      <trkpt lat="43.40145" lon="1.09319">
        <ele>314.2</ele>
        <time>2024-05-20T07:15:19Z</time>
      </trkpt>
      <trkpt lat="43.40139" lon="1.09312">
        <ele>314.2</ele>
        <time>2024-05-20T07:15:20Z</time>
      </trkpt>
      <trkpt lat="43.40135" lon="1.09308">
        <ele>314.2</ele>
        <time>2024-05-20T07:15:21Z</time>
      </trkpt>
      <trkpt lat="43.40129" lon="1.09301">
        <ele>314.2</ele>
        <time>2024-05-20T07:15:22Z</time>
      </trkpt>
      <trkpt lat="43.40125" lon="1.09296">
        <ele>314.2</ele>
        <time>2024-05-20T07:15:23Z</time>
      </trkpt>
      <trkpt lat="43.40121" lon="1.0929">
        <ele>314</ele>
        <time>2024-05-20T07:15:24Z</time>
      </trkpt>
      <trkpt lat="43.40115" lon="1.09282">
        <ele>314.2</ele>
        <time>2024-05-20T07:15:25Z</time>
      </trkpt>
      <trkpt lat="43.40111" lon="1.09276">
        <ele>314</ele>
        <time>2024-05-20T07:15:26Z</time>
      </trkpt>
      <trkpt lat="43.40108" lon="1.0927">
        <ele>314</ele>
        <time>2024-05-20T07:15:27Z</time>
      </trkpt>
      <trkpt lat="43.40104" lon="1.09263">
        <ele>314</ele>
        <time>2024-05-20T07:15:28Z</time>
      </trkpt>
      <trkpt lat="43.401" lon="1.09255">
        <ele>313.8</ele>
        <time>2024-05-20T07:15:29Z</time>
      </trkpt>
      <trkpt lat="43.40096" lon="1.09248">
        <ele>313.8</ele>
        <time>2024-05-20T07:15:30Z</time>
      </trkpt>
      <trkpt lat="43.40092" lon="1.09239">
        <ele>313.8</ele>
        <time>2024-05-20T07:15:31Z</time>
      </trkpt>
      <trkpt lat="43.4009" lon="1.09233">
        <ele>313.8</ele>
        <time>2024-05-20T07:15:32Z</time>
      </trkpt>
      <trkpt lat="43.40087" lon="1.09226">
        <ele>314</ele>
        <time>2024-05-20T07:15:33Z</time>
      </trkpt>
      <trkpt lat="43.40083" lon="1.09217">
        <ele>314</ele>
        <time>2024-05-20T07:15:34Z</time>
      </trkpt>
      <trkpt lat="43.4008" lon="1.09209">
        <ele>314</ele>
        <time>2024-05-20T07:15:35Z</time>
      </trkpt>
      <trkpt lat="43.40077" lon="1.09203">
        <ele>314.2</ele>
        <time>2024-05-20T07:15:36Z</time>
      </trkpt>
      <trkpt lat="43.40074" lon="1.09195">
        <ele>314.2</ele>
        <time>2024-05-20T07:15:37Z</time>
      </trkpt>
      <trkpt lat="43.40071" lon="1.09187">
        <ele>314</ele>
        <time>2024-05-20T07:15:38Z</time>
      </trkpt>
      <trkpt lat="43.40068" lon="1.09179">
        <ele>314</ele>
        <time>2024-05-20T07:15:39Z</time>
      </trkpt>
      <trkpt lat="43.40065" lon="1.0917">
        <ele>314.2</ele>
        <time>2024-05-20T07:15:40Z</time>
      </trkpt>
      <trkpt lat="43.40063" lon="1.09164">
        <ele>314.4</ele>
        <time>2024-05-20T07:15:41Z</time>
      </trkpt>
      <trkpt lat="43.4006" lon="1.09156">
        <ele>314.4</ele>
        <time>2024-05-20T07:15:42Z</time>
      </trkpt>
      <trkpt lat="43.40056" lon="1.09147">
        <ele>314.4</ele>
        <time>2024-05-20T07:15:43Z</time>
      </trkpt>
      <trkpt lat="43.40053" lon="1.0914">
        <ele>314.6</ele>
        <time>2024-05-20T07:15:44Z</time>
      </trkpt>
      <trkpt lat="43.40051" lon="1.09134">
        <ele>314.8</ele>
        <time>2024-05-20T07:15:45Z</time>
      </trkpt>
      <trkpt lat="43.40047" lon="1.09127">
        <ele>314.8</ele>
        <time>2024-05-20T07:15:46Z</time>
      </trkpt>
      <trkpt lat="43.40044" lon="1.09119">
        <ele>315</ele>
        <time>2024-05-20T07:15:47Z</time>
      </trkpt>
      <trkpt lat="43.40041" lon="1.09112">
        <ele>315</ele>
        <time>2024-05-20T07:15:48Z</time>
      </trkpt>
      <trkpt lat="43.40037" lon="1.09105">
        <ele>315</ele>
        <time>2024-05-20T07:15:49Z</time>
      </trkpt>
      <trkpt lat="43.40033" lon="1.09098">
        <ele>315.2</ele>
        <time>2024-05-20T07:15:50Z</time>
      </trkpt>
      <trkpt lat="43.4003" lon="1.09091">
        <ele>315.2</ele>
        <time>2024-05-20T07:15:51Z</time>
      </trkpt>
      <trkpt lat="43.40026" lon="1.09085">
        <ele>315.2</ele>
        <time>2024-05-20T07:15:52Z</time>
      </trkpt>
      <trkpt lat="43.40022" lon="1.09077">
        <ele>315.2</ele>
        <time>2024-05-20T07:15:53Z</time>
      </trkpt>
      <trkpt lat="43.40018" lon="1.0907">
        <ele>315.4</ele>
        <time>2024-05-20T07:15:54Z</time>
      </trkpt>
      <trkpt lat="43.40015" lon="1.09064">
        <ele>315.4</ele>
        <time>2024-05-20T07:15:55Z</time>
      </trkpt>
      <trkpt lat="43.40012" lon="1.09058">
        <ele>315.6</ele>
        <time>2024-05-20T07:15:56Z</time>
      </trkpt>
      <trkpt lat="43.40007" lon="1.0905">
        <ele>315.8</ele>
        <time>2024-05-20T07:15:57Z</time>
      </trkpt>
      <trkpt lat="43.40004" lon="1.09043">
        <ele>316</ele>
        <time>2024-05-20T07:15:58Z</time>
      </trkpt>
      <trkpt lat="43.4" lon="1.09037">
        <ele>316.2</ele>
        <time>2024-05-20T07:15:59Z</time>
      </trkpt>
      <trkpt lat="43.39997" lon="1.09032">
        <ele>316.4</ele>
        <time>2024-05-20T07:16:00Z</time>
      </trkpt>
      <trkpt lat="43.39994" lon="1.09026">
        <ele>316.6</ele>
        <time>2024-05-20T07:16:01Z</time>
      </trkpt>
      <trkpt lat="43.39989" lon="1.09018">
        <ele>316.6</ele>
        <time>2024-05-20T07:16:02Z</time>
      </trkpt>
      <trkpt lat="43.39986" lon="1.09011">
        <ele>316.6</ele>
        <time>2024-05-20T07:16:03Z</time>
      </trkpt>
      <trkpt lat="43.39983" lon="1.09005">
        <ele>316.8</ele>
        <time>2024-05-20T07:16:04Z</time>
      </trkpt>
      <trkpt lat="43.3998" lon="1.08998">
        <ele>317</ele>
        <time>2024-05-20T07:16:05Z</time>
      </trkpt>
      <trkpt lat="43.39977" lon="1.08989">
        <ele>316.8</ele>
        <time>2024-05-20T07:16:06Z</time>
      </trkpt>
      <trkpt lat="43.39974" lon="1.08981">
        <ele>316.8</ele>
        <time>2024-05-20T07:16:07Z</time>
      </trkpt>
      <trkpt lat="43.39971" lon="1.08973">
        <ele>316.8</ele>
        <time>2024-05-20T07:16:08Z</time>
      </trkpt>
      <trkpt lat="43.39969" lon="1.08968">
        <ele>316.8</ele>
        <time>2024-05-20T07:16:09Z</time>
      </trkpt>
      <trkpt lat="43.39966" lon="1.0896">
        <ele>316.8</ele>
        <time>2024-05-20T07:16:10Z</time>
      </trkpt>
      <trkpt lat="43.39963" lon="1.08951">
        <ele>316.8</ele>
        <time>2024-05-20T07:16:11Z</time>
      </trkpt>
      <trkpt lat="43.39961" lon="1.08943">
        <ele>317</ele>
        <time>2024-05-20T07:16:12Z</time>
      </trkpt>
      <trkpt lat="43.39958" lon="1.08936">
        <ele>317</ele>
        <time>2024-05-20T07:16:13Z</time>
      </trkpt>
      <trkpt lat="43.39956" lon="1.0893">
        <ele>317.2</ele>
        <time>2024-05-20T07:16:14Z</time>
      </trkpt>
      <trkpt lat="43.39953" lon="1.0892">
        <ele>317.2</ele>
        <time>2024-05-20T07:16:15Z</time>
      </trkpt>
      <trkpt lat="43.39951" lon="1.08913">
        <ele>317.4</ele>
        <time>2024-05-20T07:16:16Z</time>
      </trkpt>
      <trkpt lat="43.39949" lon="1.08908">
        <ele>317.4</ele>
        <time>2024-05-20T07:16:17Z</time>
      </trkpt>
      <trkpt lat="43.39946" lon="1.08901">
        <ele>317.8</ele>
        <time>2024-05-20T07:16:18Z</time>
      </trkpt>
      <trkpt lat="43.39942" lon="1.08894">
        <ele>318</ele>
        <time>2024-05-20T07:16:19Z</time>
      </trkpt>
      <trkpt lat="43.39938" lon="1.08885">
        <ele>318</ele>
        <time>2024-05-20T07:16:20Z</time>
      </trkpt>
      <trkpt lat="43.39934" lon="1.08878">
        <ele>318.2</ele>
        <time>2024-05-20T07:16:21Z</time>
      </trkpt>
      <trkpt lat="43.3993" lon="1.08871">
        <ele>318.4</ele>
        <time>2024-05-20T07:16:22Z</time>
      </trkpt>
      <trkpt lat="43.39927" lon="1.08866">
        <ele>318.6</ele>
        <time>2024-05-20T07:16:23Z</time>
      </trkpt>
      <trkpt lat="43.39921" lon="1.08858">
        <ele>318.6</ele>
        <time>2024-05-20T07:16:24Z</time>
      </trkpt>
      <trkpt lat="43.39917" lon="1.08853">
        <ele>318.6</ele>
        <time>2024-05-20T07:16:25Z</time>
      </trkpt>
      <trkpt lat="43.39912" lon="1.08846">
        <ele>318.6</ele>
        <time>2024-05-20T07:16:26Z</time>
      </trkpt>
      <trkpt lat="43.39908" lon="1.08841">
        <ele>318.6</ele>
        <time>2024-05-20T07:16:27Z</time>
      </trkpt>
      <trkpt lat="43.39903" lon="1.08835">
        <ele>318.8</ele>
        <time>2024-05-20T07:16:28Z</time>
      </trkpt>
      <trkpt lat="43.39898" lon="1.08828">
        <ele>318.8</ele>
        <time>2024-05-20T07:16:29Z</time>
      </trkpt>
      <trkpt lat="43.39893" lon="1.08822">
        <ele>318.8</ele>
        <time>2024-05-20T07:16:30Z</time>
      </trkpt>
      <trkpt lat="43.39889" lon="1.08817">
        <ele>318.8</ele>
        <time>2024-05-20T07:16:31Z</time>
      </trkpt>
      <trkpt lat="43.39885" lon="1.08811">
        <ele>318.8</ele>
        <time>2024-05-20T07:16:32Z</time>
      </trkpt>
      <trkpt lat="43.3988" lon="1.08805">
        <ele>318.8</ele>
        <time>2024-05-20T07:16:33Z</time>
      </trkpt>
      <trkpt lat="43.39876" lon="1.08798">
        <ele>318.8</ele>
        <time>2024-05-20T07:16:34Z</time>
      </trkpt>
      <trkpt lat="43.39871" lon="1.08792">
        <ele>319</ele>
        <time>2024-05-20T07:16:35Z</time>
      </trkpt>
      <trkpt lat="43.39867" lon="1.08786">
        <ele>319.2</ele>
        <time>2024-05-20T07:16:36Z</time>
      </trkpt>
      <trkpt lat="43.39863" lon="1.08781">
        <ele>319.4</ele>
        <time>2024-05-20T07:16:37Z</time>
      </trkpt>
      <trkpt lat="43.39859" lon="1.08776">
        <ele>319.6</ele>
        <time>2024-05-20T07:16:38Z</time>
      </trkpt>
      <trkpt lat="43.39855" lon="1.08771">
        <ele>319.6</ele>
        <time>2024-05-20T07:16:39Z</time>
      </trkpt>
      <trkpt lat="43.3985" lon="1.08766">
        <ele>319.8</ele>
        <time>2024-05-20T07:16:40Z</time>
      </trkpt>
      <trkpt lat="43.39846" lon="1.08761">
        <ele>320</ele>
        <time>2024-05-20T07:16:41Z</time>
      </trkpt>
      <trkpt lat="43.39841" lon="1.08756">
        <ele>320.2</ele>
        <time>2024-05-20T07:16:42Z</time>
      </trkpt>
      <trkpt lat="43.39836" lon="1.0875">
        <ele>320.6</ele>
        <time>2024-05-20T07:16:43Z</time>
      </trkpt>
      <trkpt lat="43.39833" lon="1.08747">
        <ele>321.2</ele>
        <time>2024-05-20T07:16:44Z</time>
      </trkpt>
      <trkpt lat="43.39827" lon="1.08741">
        <ele>321.4</ele>
        <time>2024-05-20T07:16:45Z</time>
      </trkpt>
      <trkpt lat="43.39824" lon="1.08737">
        <ele>321.8</ele>
        <time>2024-05-20T07:16:46Z</time>
      </trkpt>
      <trkpt lat="43.39819" lon="1.08732">
        <ele>322</ele>
        <time>2024-05-20T07:16:47Z</time>
      </trkpt>
      <trkpt lat="43.39815" lon="1.08728">
        <ele>322</ele>
        <time>2024-05-20T07:16:48Z</time>
      </trkpt>
      <trkpt lat="43.3981" lon="1.08723">
        <ele>322.2</ele>
        <time>2024-05-20T07:16:49Z</time>
      </trkpt>
      <trkpt lat="43.39806" lon="1.08719">
        <ele>322.2</ele>
        <time>2024-05-20T07:16:50Z</time>
      </trkpt>
      <trkpt lat="43.39802" lon="1.08715">
        <ele>322.4</ele>
        <time>2024-05-20T07:16:51Z</time>
      </trkpt>
      <trkpt lat="43.39796" lon="1.08709">
        <ele>322.6</ele>
        <time>2024-05-20T07:16:52Z</time>
      </trkpt>
      <trkpt lat="43.39791" lon="1.08704">
        <ele>322.8</ele>
        <time>2024-05-20T07:16:53Z</time>
      </trkpt>
      <trkpt lat="43.39784" lon="1.08697">
        <ele>323</ele>
        <time>2024-05-20T07:16:54Z</time>
      </trkpt>
      <trkpt lat="43.39779" lon="1.08692">
        <ele>323.2</ele>
        <time>2024-05-20T07:16:55Z</time>
      </trkpt>
      <trkpt lat="43.39773" lon="1.08686">
        <ele>323.4</ele>
        <time>2024-05-20T07:16:56Z</time>
      </trkpt>
      <trkpt lat="43.39766" lon="1.08679">
        <ele>323.6</ele>
        <time>2024-05-20T07:16:57Z</time>
      </trkpt>
      <trkpt lat="43.39761" lon="1.08674">
        <ele>323.6</ele>
        <time>2024-05-20T07:16:58Z</time>
      </trkpt>
      <trkpt lat="43.39755" lon="1.08668">
        <ele>323.6</ele>
        <time>2024-05-20T07:16:59Z</time>
      </trkpt>
      <trkpt lat="43.39749" lon="1.08662">
        <ele>323.6</ele>
        <time>2024-05-20T07:17:00Z</time>
      </trkpt>
      <trkpt lat="43.39742" lon="1.08654">
        <ele>323.6</ele>
        <time>2024-05-20T07:17:01Z</time>
      </trkpt>
      <trkpt lat="43.39734" lon="1.08645">
        <ele>323.4</ele>
        <time>2024-05-20T07:17:02Z</time>
      </trkpt>
      <trkpt lat="43.39728" lon="1.08637">
        <ele>323.4</ele>
        <time>2024-05-20T07:17:03Z</time>
      </trkpt>
      <trkpt lat="43.39723" lon="1.0863">
        <ele>323.4</ele>
        <time>2024-05-20T07:17:04Z</time>
      </trkpt>
      <trkpt lat="43.39717" lon="1.08622">
        <ele>323.2</ele>
        <time>2024-05-20T07:17:05Z</time>
      </trkpt>
      <trkpt lat="43.39711" lon="1.08614">
        <ele>323</ele>
        <time>2024-05-20T07:17:06Z</time>
      </trkpt>
      <trkpt lat="43.39704" lon="1.08605">
        <ele>322.8</ele>
        <time>2024-05-20T07:17:07Z</time>
      </trkpt>
      <trkpt lat="43.39699" lon="1.08598">
        <ele>322.2</ele>
        <time>2024-05-20T07:17:08Z</time>
      </trkpt>
      <trkpt lat="43.39694" lon="1.0859">
        <ele>322.2</ele>
        <time>2024-05-20T07:17:09Z</time>
      </trkpt>
      <trkpt lat="43.39688" lon="1.08582">
        <ele>322</ele>
        <time>2024-05-20T07:17:10Z</time>
      </trkpt>
      <trkpt lat="43.39682" lon="1.08574">
        <ele>321.8</ele>
        <time>2024-05-20T07:17:11Z</time>
      </trkpt>
      <trkpt lat="43.39675" lon="1.08565">
        <ele>321.6</ele>
        <time>2024-05-20T07:17:12Z</time>
      </trkpt>
      <trkpt lat="43.3967" lon="1.08559">
        <ele>321.4</ele>
        <time>2024-05-20T07:17:13Z</time>
      </trkpt>
      <trkpt lat="43.39664" lon="1.08551">
        <ele>321.2</ele>
        <time>2024-05-20T07:17:14Z</time>
      </trkpt>
      <trkpt lat="43.39659" lon="1.08543">
        <ele>321.2</ele>
        <time>2024-05-20T07:17:15Z</time>
      </trkpt>
      <trkpt lat="43.39659" lon="1.08543">
        <ele>321</ele>
        <time>2024-05-20T07:17:16Z</time>
      </trkpt>
      <trkpt lat="43.39648" lon="1.08528">
        <ele>321</ele>
        <time>2024-05-20T07:17:17Z</time>
      </trkpt>
      <trkpt lat="43.39644" lon="1.08523">
        <ele>320.8</ele>
        <time>2024-05-20T07:17:18Z</time>
      </trkpt>
      <trkpt lat="43.39639" lon="1.08516">
        <ele>320.8</ele>
        <time>2024-05-20T07:17:19Z</time>
      </trkpt>
      <trkpt lat="43.39634" lon="1.08509">
        <ele>320.8</ele>
        <time>2024-05-20T07:17:20Z</time>
      </trkpt>
      <trkpt lat="43.39629" lon="1.08502">
        <ele>320.8</ele>
        <time>2024-05-20T07:17:21Z</time>
      </trkpt>
      <trkpt lat="43.39624" lon="1.08494">
        <ele>320.8</ele>
        <time>2024-05-20T07:17:22Z</time>
      </trkpt>
      <trkpt lat="43.39621" lon="1.08489">
        <ele>320.8</ele>
        <time>2024-05-20T07:17:23Z</time>
      </trkpt>
      <trkpt lat="43.39617" lon="1.08482">
        <ele>320.8</ele>
        <time>2024-05-20T07:17:24Z</time>
      </trkpt>
      <trkpt lat="43.39613" lon="1.08473">
        <ele>320.8</ele>
        <time>2024-05-20T07:17:25Z</time>
      </trkpt>
      <trkpt lat="43.3961" lon="1.08465">
        <ele>320.8</ele>
        <time>2024-05-20T07:17:26Z</time>
      </trkpt>
      <trkpt lat="43.39608" lon="1.08459">
        <ele>320.8</ele>
        <time>2024-05-20T07:17:27Z</time>
      </trkpt>
      <trkpt lat="43.39605" lon="1.08452">
        <ele>321</ele>
        <time>2024-05-20T07:17:28Z</time>
      </trkpt>
      <trkpt lat="43.39603" lon="1.08445">
        <ele>321</ele>
        <time>2024-05-20T07:17:29Z</time>
      </trkpt>
      <trkpt lat="43.39601" lon="1.08438">
        <ele>321</ele>
        <time>2024-05-20T07:17:30Z</time>
      </trkpt>
      <trkpt lat="43.39599" lon="1.0843">
        <ele>321</ele>
        <time>2024-05-20T07:17:31Z</time>
      </trkpt>
      <trkpt lat="43.39597" lon="1.08425">
        <ele>321.2</ele>
        <time>2024-05-20T07:17:32Z</time>
      </trkpt>
      <trkpt lat="43.39595" lon="1.08419">
        <ele>321.4</ele>
        <time>2024-05-20T07:17:33Z</time>
      </trkpt>
      <trkpt lat="43.39594" lon="1.08413">
        <ele>321.6</ele>
        <time>2024-05-20T07:17:34Z</time>
      </trkpt>
      <trkpt lat="43.39592" lon="1.08406">
        <ele>321.8</ele>
        <time>2024-05-20T07:17:35Z</time>
      </trkpt>
      <trkpt lat="43.39591" lon="1.084">
        <ele>322.2</ele>
        <time>2024-05-20T07:17:36Z</time>
      </trkpt>
      <trkpt lat="43.39589" lon="1.08394">
        <ele>322.4</ele>
        <time>2024-05-20T07:17:37Z</time>
      </trkpt>
      <trkpt lat="43.39588" lon="1.08387">
        <ele>322.6</ele>
        <time>2024-05-20T07:17:38Z</time>
      </trkpt>
      <trkpt lat="43.39586" lon="1.08381">
        <ele>322.8</ele>
        <time>2024-05-20T07:17:39Z</time>
      </trkpt>
      <trkpt lat="43.39585" lon="1.08374">
        <ele>323</ele>
        <time>2024-05-20T07:17:40Z</time>
      </trkpt>
      <trkpt lat="43.39584" lon="1.08369">
        <ele>323</ele>
        <time>2024-05-20T07:17:41Z</time>
      </trkpt>
      <trkpt lat="43.39582" lon="1.08362">
        <ele>323.2</ele>
        <time>2024-05-20T07:17:42Z</time>
      </trkpt>
      <trkpt lat="43.39581" lon="1.08356">
        <ele>323.4</ele>
        <time>2024-05-20T07:17:43Z</time>
      </trkpt>
      <trkpt lat="43.39579" lon="1.08351">
        <ele>323.6</ele>
        <time>2024-05-20T07:17:44Z</time>
      </trkpt>
      <trkpt lat="43.39578" lon="1.08345">
        <ele>324.2</ele>
        <time>2024-05-20T07:17:45Z</time>
      </trkpt>
      <trkpt lat="43.39576" lon="1.08339">
        <ele>324.2</ele>
        <time>2024-05-20T07:17:46Z</time>
      </trkpt>
      <trkpt lat="43.39575" lon="1.08333">
        <ele>324.4</ele>
        <time>2024-05-20T07:17:47Z</time>
      </trkpt>
      <trkpt lat="43.39573" lon="1.08328">
        <ele>324.6</ele>
        <time>2024-05-20T07:17:48Z</time>
      </trkpt>
      <trkpt lat="43.39571" lon="1.08322">
        <ele>324.8</ele>
        <time>2024-05-20T07:17:49Z</time>
      </trkpt>
      <trkpt lat="43.3957" lon="1.08316">
        <ele>325</ele>
        <time>2024-05-20T07:17:50Z</time>
      </trkpt>
      <trkpt lat="43.39568" lon="1.0831">
        <ele>325.2</ele>
        <time>2024-05-20T07:17:51Z</time>
      </trkpt>
      <trkpt lat="43.39566" lon="1.08304">
        <ele>325.4</ele>
        <time>2024-05-20T07:17:52Z</time>
      </trkpt>
      <trkpt lat="43.39565" lon="1.08298">
        <ele>325.6</ele>
        <time>2024-05-20T07:17:53Z</time>
      </trkpt>
      <trkpt lat="43.39563" lon="1.08293">
        <ele>325.8</ele>
        <time>2024-05-20T07:17:54Z</time>
      </trkpt>
      <trkpt lat="43.39562" lon="1.08287">
        <ele>326</ele>
        <time>2024-05-20T07:17:55Z</time>
      </trkpt>
      <trkpt lat="43.3956" lon="1.08281">
        <ele>326.2</ele>
        <time>2024-05-20T07:17:56Z</time>
      </trkpt>
      <trkpt lat="43.39558" lon="1.08275">
        <ele>326.4</ele>
        <time>2024-05-20T07:17:57Z</time>
      </trkpt>
      <trkpt lat="43.39557" lon="1.08269">
        <ele>326.8</ele>
        <time>2024-05-20T07:17:58Z</time>
      </trkpt>
      <trkpt lat="43.39555" lon="1.08263">
        <ele>327</ele>
        <time>2024-05-20T07:17:59Z</time>
      </trkpt>
      <trkpt lat="43.39554" lon="1.08257">
        <ele>327.2</ele>
        <time>2024-05-20T07:18:00Z</time>
      </trkpt>
      <trkpt lat="43.39552" lon="1.08251">
        <ele>327.2</ele>
        <time>2024-05-20T07:18:01Z</time>
      </trkpt>
      <trkpt lat="43.3955" lon="1.08245">
        <ele>327.4</ele>
        <time>2024-05-20T07:18:02Z</time>
      </trkpt>
      <trkpt lat="43.39548" lon="1.08239">
        <ele>327.6</ele>
        <time>2024-05-20T07:18:03Z</time>
      </trkpt>
      <trkpt lat="43.39547" lon="1.08231">
        <ele>327.8</ele>
        <time>2024-05-20T07:18:04Z</time>
      </trkpt>
      <trkpt lat="43.39545" lon="1.08225">
        <ele>328</ele>
        <time>2024-05-20T07:18:05Z</time>
      </trkpt>
      <trkpt lat="43.39544" lon="1.0822">
        <ele>328.2</ele>
        <time>2024-05-20T07:18:06Z</time>
      </trkpt>
      <trkpt lat="43.39542" lon="1.08212">
        <ele>328.4</ele>
        <time>2024-05-20T07:18:07Z</time>
      </trkpt>
      <trkpt lat="43.39541" lon="1.08206">
        <ele>328.6</ele>
        <time>2024-05-20T07:18:08Z</time>
      </trkpt>
      <trkpt lat="43.3954" lon="1.082">
        <ele>328.8</ele>
        <time>2024-05-20T07:18:09Z</time>
      </trkpt>
      <trkpt lat="43.39538" lon="1.08194">
        <ele>329</ele>
        <time>2024-05-20T07:18:10Z</time>
      </trkpt>
      <trkpt lat="43.39537" lon="1.08187">
        <ele>329.2</ele>
        <time>2024-05-20T07:18:11Z</time>
      </trkpt>
      <trkpt lat="43.39535" lon="1.08179">
        <ele>329.4</ele>
        <time>2024-05-20T07:18:12Z</time>
      </trkpt>
      <trkpt lat="43.39534" lon="1.08173">
        <ele>329.6</ele>
        <time>2024-05-20T07:18:13Z</time>
      </trkpt>
      <trkpt lat="43.39532" lon="1.08166">
        <ele>330</ele>
        <time>2024-05-20T07:18:14Z</time>
      </trkpt>
      <trkpt lat="43.39531" lon="1.08161">
        <ele>330</ele>
        <time>2024-05-20T07:18:15Z</time>
      </trkpt>
      <trkpt lat="43.39529" lon="1.08153">
        <ele>330.2</ele>
        <time>2024-05-20T07:18:16Z</time>
      </trkpt>
      <trkpt lat="43.39528" lon="1.08146">
        <ele>330.4</ele>
        <time>2024-05-20T07:18:17Z</time>
      </trkpt>
      <trkpt lat="43.39527" lon="1.0814">
        <ele>330.6</ele>
        <time>2024-05-20T07:18:18Z</time>
      </trkpt>
      <trkpt lat="43.39525" lon="1.08134">
        <ele>330.6</ele>
        <time>2024-05-20T07:18:19Z</time>
      </trkpt>
      <trkpt lat="43.39524" lon="1.08127">
        <ele>331</ele>
        <time>2024-05-20T07:18:20Z</time>
      </trkpt>
      <trkpt lat="43.39522" lon="1.08119">
        <ele>331.2</ele>
        <time>2024-05-20T07:18:21Z</time>
      </trkpt>
      <trkpt lat="43.39521" lon="1.08112">
        <ele>331.4</ele>
        <time>2024-05-20T07:18:22Z</time>
      </trkpt>
      <trkpt lat="43.39519" lon="1.08106">
        <ele>331.6</ele>
        <time>2024-05-20T07:18:23Z</time>
      </trkpt>
      <trkpt lat="43.39518" lon="1.08101">
        <ele>331.8</ele>
        <time>2024-05-20T07:18:24Z</time>
      </trkpt>
      <trkpt lat="43.39516" lon="1.08094">
        <ele>332.2</ele>
        <time>2024-05-20T07:18:25Z</time>
      </trkpt>
      <trkpt lat="43.39514" lon="1.08087">
        <ele>332.4</ele>
        <time>2024-05-20T07:18:26Z</time>
      </trkpt>
      <trkpt lat="43.39512" lon="1.0808">
        <ele>332.8</ele>
        <time>2024-05-20T07:18:27Z</time>
      </trkpt>
      <trkpt lat="43.39511" lon="1.08075">
        <ele>333</ele>
        <time>2024-05-20T07:18:28Z</time>
      </trkpt>
      <trkpt lat="43.39509" lon="1.08068">
        <ele>333.2</ele>
        <time>2024-05-20T07:18:29Z</time>
      </trkpt>
      <trkpt lat="43.39507" lon="1.08062">
        <ele>333.4</ele>
        <time>2024-05-20T07:18:30Z</time>
      </trkpt>
      <trkpt lat="43.39505" lon="1.08054">
        <ele>333.4</ele>
        <time>2024-05-20T07:18:31Z</time>
      </trkpt>
      <trkpt lat="43.39504" lon="1.08047">
        <ele>333.6</ele>
        <time>2024-05-20T07:18:32Z</time>
      </trkpt>
      <trkpt lat="43.39502" lon="1.08041">
        <ele>333.8</ele>
        <time>2024-05-20T07:18:33Z</time>
      </trkpt>
      <trkpt lat="43.39501" lon="1.08034">
        <ele>334</ele>
        <time>2024-05-20T07:18:34Z</time>
      </trkpt>
      <trkpt lat="43.39499" lon="1.08026">
        <ele>334</ele>
        <time>2024-05-20T07:18:35Z</time>
      </trkpt>
      <trkpt lat="43.39498" lon="1.08019">
        <ele>334.2</ele>
        <time>2024-05-20T07:18:36Z</time>
      </trkpt>
      <trkpt lat="43.39496" lon="1.08014">
        <ele>334.4</ele>
        <time>2024-05-20T07:18:37Z</time>
      </trkpt>
      <trkpt lat="43.39494" lon="1.08007">
        <ele>334.4</ele>
        <time>2024-05-20T07:18:38Z</time>
      </trkpt>
      <trkpt lat="43.39493" lon="1.08">
        <ele>334.4</ele>
        <time>2024-05-20T07:18:39Z</time>
      </trkpt>
      <trkpt lat="43.39491" lon="1.07992">
        <ele>334.4</ele>
        <time>2024-05-20T07:18:40Z</time>
      </trkpt>
      <trkpt lat="43.39489" lon="1.07984">
        <ele>334.4</ele>
        <time>2024-05-20T07:18:41Z</time>
      </trkpt>
      <trkpt lat="43.39488" lon="1.07978">
        <ele>334.6</ele>
        <time>2024-05-20T07:18:42Z</time>
      </trkpt>
      <trkpt lat="43.39486" lon="1.07971">
        <ele>334.6</ele>
        <time>2024-05-20T07:18:43Z</time>
      </trkpt>
      <trkpt lat="43.39484" lon="1.07963">
        <ele>334.8</ele>
        <time>2024-05-20T07:18:44Z</time>
      </trkpt>
      <trkpt lat="43.39482" lon="1.07955">
        <ele>335</ele>
        <time>2024-05-20T07:18:45Z</time>
      </trkpt>
      <trkpt lat="43.3948" lon="1.07948">
        <ele>335</ele>
        <time>2024-05-20T07:18:46Z</time>
      </trkpt>
      <trkpt lat="43.39478" lon="1.07942">
        <ele>335.2</ele>
        <time>2024-05-20T07:18:47Z</time>
      </trkpt>
      <trkpt lat="43.39477" lon="1.07935">
        <ele>335.2</ele>
        <time>2024-05-20T07:18:48Z</time>
      </trkpt>
      <trkpt lat="43.39475" lon="1.07926">
        <ele>335.4</ele>
        <time>2024-05-20T07:18:49Z</time>
      </trkpt>
      <trkpt lat="43.39473" lon="1.07919">
        <ele>335.6</ele>
        <time>2024-05-20T07:18:50Z</time>
      </trkpt>
      <trkpt lat="43.39471" lon="1.07912">
        <ele>335.6</ele>
        <time>2024-05-20T07:18:51Z</time>
      </trkpt>
      <trkpt lat="43.39469" lon="1.07907">
        <ele>335.8</ele>
        <time>2024-05-20T07:18:52Z</time>
      </trkpt>
      <trkpt lat="43.39468" lon="1.079">
        <ele>336</ele>
        <time>2024-05-20T07:18:53Z</time>
      </trkpt>
      <trkpt lat="43.39466" lon="1.07893">
        <ele>336</ele>
        <time>2024-05-20T07:18:54Z</time>
      </trkpt>
      <trkpt lat="43.39463" lon="1.07884">
        <ele>336</ele>
        <time>2024-05-20T07:18:55Z</time>
      </trkpt>
      <trkpt lat="43.39463" lon="1.07884">
        <ele>336</ele>
        <time>2024-05-20T07:18:56Z</time>
      </trkpt>
      <trkpt lat="43.3946" lon="1.07871">
        <ele>336.2</ele>
        <time>2024-05-20T07:18:57Z</time>
      </trkpt>
      <trkpt lat="43.39458" lon="1.07862">
        <ele>336.2</ele>
        <time>2024-05-20T07:18:58Z</time>
      </trkpt>
      <trkpt lat="43.39456" lon="1.07856">
        <ele>336.4</ele>
        <time>2024-05-20T07:18:59Z</time>
      </trkpt>
      <trkpt lat="43.39454" lon="1.07849">
        <ele>336.4</ele>
        <time>2024-05-20T07:19:00Z</time>
      </trkpt>
      <trkpt lat="43.39453" lon="1.07842">
        <ele>336.6</ele>
        <time>2024-05-20T07:19:01Z</time>
      </trkpt>
      <trkpt lat="43.39451" lon="1.07835">
        <ele>336.6</ele>
        <time>2024-05-20T07:19:02Z</time>
      </trkpt>
      <trkpt lat="43.39449" lon="1.07826">
        <ele>336.8</ele>
        <time>2024-05-20T07:19:03Z</time>
      </trkpt>
      <trkpt lat="43.39447" lon="1.07819">
        <ele>336.8</ele>
        <time>2024-05-20T07:19:04Z</time>
      </trkpt>
      <trkpt lat="43.39446" lon="1.07814">
        <ele>337</ele>
        <time>2024-05-20T07:19:05Z</time>
      </trkpt>
      <trkpt lat="43.39444" lon="1.07807">
        <ele>337.2</ele>
        <time>2024-05-20T07:19:06Z</time>
      </trkpt>
      <trkpt lat="43.39442" lon="1.07799">
        <ele>337.2</ele>
        <time>2024-05-20T07:19:07Z</time>
      </trkpt>
      <trkpt lat="43.39441" lon="1.07793">
        <ele>337.4</ele>
        <time>2024-05-20T07:19:08Z</time>
      </trkpt>
      <trkpt lat="43.39439" lon="1.07785">
        <ele>337.4</ele>
        <time>2024-05-20T07:19:09Z</time>
      </trkpt>
      <trkpt lat="43.39438" lon="1.07779">
        <ele>337.8</ele>
        <time>2024-05-20T07:19:10Z</time>
      </trkpt>
      <trkpt lat="43.39437" lon="1.07772">
        <ele>337.8</ele>
        <time>2024-05-20T07:19:11Z</time>
      </trkpt>
      <trkpt lat="43.39436" lon="1.07764">
        <ele>338</ele>
        <time>2024-05-20T07:19:12Z</time>
      </trkpt>
      <trkpt lat="43.39436" lon="1.07757">
        <ele>338</ele>
        <time>2024-05-20T07:19:13Z</time>
      </trkpt>
      <trkpt lat="43.39436" lon="1.07751">
        <ele>338.2</ele>
        <time>2024-05-20T07:19:14Z</time>
      </trkpt>
      <trkpt lat="43.39437" lon="1.07745">
        <ele>338.4</ele>
        <time>2024-05-20T07:19:15Z</time>
      </trkpt>
      <trkpt lat="43.39438" lon="1.07739">
        <ele>338.4</ele>
        <time>2024-05-20T07:19:16Z</time>
      </trkpt>
      <trkpt lat="43.39439" lon="1.07732">
        <ele>338.6</ele>
        <time>2024-05-20T07:19:17Z</time>
      </trkpt>
      <trkpt lat="43.3944" lon="1.07725">
        <ele>338.6</ele>
        <time>2024-05-20T07:19:18Z</time>
      </trkpt>
      <trkpt lat="43.39441" lon="1.07721">
        <ele>338.8</ele>
        <time>2024-05-20T07:19:19Z</time>
      </trkpt>
      <trkpt lat="43.39443" lon="1.07715">
        <ele>339</ele>
        <time>2024-05-20T07:19:20Z</time>
      </trkpt>
      <trkpt lat="43.39444" lon="1.07709">
        <ele>339</ele>
        <time>2024-05-20T07:19:21Z</time>
      </trkpt>
      <trkpt lat="43.39446" lon="1.07703">
        <ele>339.2</ele>
        <time>2024-05-20T07:19:22Z</time>
      </trkpt>
      <trkpt lat="43.39448" lon="1.07698">
        <ele>339.4</ele>
        <time>2024-05-20T07:19:23Z</time>
      </trkpt>
      <trkpt lat="43.3945" lon="1.07693">
        <ele>339.6</ele>
        <time>2024-05-20T07:19:24Z</time>
      </trkpt>
      <trkpt lat="43.39452" lon="1.07687">
        <ele>339.6</ele>
        <time>2024-05-20T07:19:25Z</time>
      </trkpt>
      <trkpt lat="43.39454" lon="1.07681">
        <ele>340</ele>
        <time>2024-05-20T07:19:26Z</time>
      </trkpt>
      <trkpt lat="43.39456" lon="1.07674">
        <ele>340.2</ele>
        <time>2024-05-20T07:19:27Z</time>
      </trkpt>
      <trkpt lat="43.39458" lon="1.07668">
        <ele>340.4</ele>
        <time>2024-05-20T07:19:28Z</time>
      </trkpt>
      <trkpt lat="43.39459" lon="1.07663">
        <ele>340.6</ele>
        <time>2024-05-20T07:19:29Z</time>
      </trkpt>
      <trkpt lat="43.39461" lon="1.07656">
        <ele>340.6</ele>
        <time>2024-05-20T07:19:30Z</time>
      </trkpt>
      <trkpt lat="43.39464" lon="1.07648">
        <ele>340.6</ele>
        <time>2024-05-20T07:19:31Z</time>
      </trkpt>
      <trkpt lat="43.39466" lon="1.07642">
        <ele>340.8</ele>
        <time>2024-05-20T07:19:32Z</time>
      </trkpt>
      <trkpt lat="43.39467" lon="1.07634">
        <ele>340.8</ele>
        <time>2024-05-20T07:19:33Z</time>
      </trkpt>
      <trkpt lat="43.39469" lon="1.07629">
        <ele>340.8</ele>
        <time>2024-05-20T07:19:34Z</time>
      </trkpt>
      <trkpt lat="43.39471" lon="1.07622">
        <ele>341</ele>
        <time>2024-05-20T07:19:35Z</time>
      </trkpt>
      <trkpt lat="43.39473" lon="1.07613">
        <ele>341</ele>
        <time>2024-05-20T07:19:36Z</time>
      </trkpt>
      <trkpt lat="43.39475" lon="1.07606">
        <ele>341</ele>
        <time>2024-05-20T07:19:37Z</time>
      </trkpt>
      <trkpt lat="43.39476" lon="1.07601">
        <ele>341.2</ele>
        <time>2024-05-20T07:19:38Z</time>
      </trkpt>
      <trkpt lat="43.39478" lon="1.07594">
        <ele>341.2</ele>
        <time>2024-05-20T07:19:39Z</time>
      </trkpt>
      <trkpt lat="43.3948" lon="1.07587">
        <ele>341.4</ele>
        <time>2024-05-20T07:19:40Z</time>
      </trkpt>
      <trkpt lat="43.39482" lon="1.0758">
        <ele>341.4</ele>
        <time>2024-05-20T07:19:41Z</time>
      </trkpt>
      <trkpt lat="43.39484" lon="1.07573">
        <ele>341.6</ele>
        <time>2024-05-20T07:19:42Z</time>
      </trkpt>
      <trkpt lat="43.39486" lon="1.07567">
        <ele>341.8</ele>
        <time>2024-05-20T07:19:43Z</time>
      </trkpt>
      <trkpt lat="43.39488" lon="1.0756">
        <ele>342</ele>
        <time>2024-05-20T07:19:44Z</time>
      </trkpt>
      <trkpt lat="43.39489" lon="1.07553">
        <ele>342</ele>
        <time>2024-05-20T07:19:45Z</time>
      </trkpt>
      <trkpt lat="43.39491" lon="1.07546">
        <ele>342.2</ele>
        <time>2024-05-20T07:19:46Z</time>
      </trkpt>
      <trkpt lat="43.39493" lon="1.07539">
        <ele>342.2</ele>
        <time>2024-05-20T07:19:47Z</time>
      </trkpt>
      <trkpt lat="43.39494" lon="1.07532">
        <ele>342.2</ele>
        <time>2024-05-20T07:19:48Z</time>
      </trkpt>
      <trkpt lat="43.39496" lon="1.07525">
        <ele>342.4</ele>
        <time>2024-05-20T07:19:49Z</time>
      </trkpt>
      <trkpt lat="43.39497" lon="1.07518">
        <ele>342.4</ele>
        <time>2024-05-20T07:19:50Z</time>
      </trkpt>
      <trkpt lat="43.39498" lon="1.07509">
        <ele>342.8</ele>
        <time>2024-05-20T07:19:51Z</time>
      </trkpt>
      <trkpt lat="43.39499" lon="1.07503">
        <ele>342.8</ele>
        <time>2024-05-20T07:19:52Z</time>
      </trkpt>
      <trkpt lat="43.395" lon="1.07496">
        <ele>343.2</ele>
        <time>2024-05-20T07:19:53Z</time>
      </trkpt>
      <trkpt lat="43.395" lon="1.07488">
        <ele>343.2</ele>
        <time>2024-05-20T07:19:54Z</time>
      </trkpt>
      <trkpt lat="43.39501" lon="1.07481">
        <ele>343.2</ele>
        <time>2024-05-20T07:19:55Z</time>
      </trkpt>
      <trkpt lat="43.39502" lon="1.07473">
        <ele>343.4</ele>
        <time>2024-05-20T07:19:56Z</time>
      </trkpt>
      <trkpt lat="43.39503" lon="1.07466">
        <ele>343.4</ele>
        <time>2024-05-20T07:19:57Z</time>
      </trkpt>
      <trkpt lat="43.39504" lon="1.07458">
        <ele>343.4</ele>
        <time>2024-05-20T07:19:58Z</time>
      </trkpt>
      <trkpt lat="43.39505" lon="1.07451">
        <ele>343.6</ele>
        <time>2024-05-20T07:19:59Z</time>
      </trkpt>
      <trkpt lat="43.39506" lon="1.07443">
        <ele>343.6</ele>
        <time>2024-05-20T07:20:00Z</time>
      </trkpt>
      <trkpt lat="43.39506" lon="1.07436">
        <ele>343.6</ele>
        <time>2024-05-20T07:20:01Z</time>
      </trkpt>
      <trkpt lat="43.39507" lon="1.07428">
        <ele>343.8</ele>
        <time>2024-05-20T07:20:02Z</time>
      </trkpt>
      <trkpt lat="43.39508" lon="1.0742">
        <ele>343.8</ele>
        <time>2024-05-20T07:20:03Z</time>
      </trkpt>
      <trkpt lat="43.39508" lon="1.07412">
        <ele>344</ele>
        <time>2024-05-20T07:20:04Z</time>
      </trkpt>
      <trkpt lat="43.39508" lon="1.07402">
        <ele>344</ele>
        <time>2024-05-20T07:20:05Z</time>
      </trkpt>
      <trkpt lat="43.39508" lon="1.07395">
        <ele>344</ele>
        <time>2024-05-20T07:20:06Z</time>
      </trkpt>
      <trkpt lat="43.39508" lon="1.07387">
        <ele>344.2</ele>
        <time>2024-05-20T07:20:07Z</time>
      </trkpt>
      <trkpt lat="43.39508" lon="1.07379">
        <ele>344.2</ele>
        <time>2024-05-20T07:20:08Z</time>
      </trkpt>
      <trkpt lat="43.39508" lon="1.07371">
        <ele>344.4</ele>
        <time>2024-05-20T07:20:09Z</time>
      </trkpt>
      <trkpt lat="43.39508" lon="1.07363">
        <ele>344.4</ele>
        <time>2024-05-20T07:20:10Z</time>
      </trkpt>
      <trkpt lat="43.39508" lon="1.07354">
        <ele>344.4</ele>
        <time>2024-05-20T07:20:11Z</time>
      </trkpt>
      <trkpt lat="43.39508" lon="1.07346">
        <ele>344.6</ele>
        <time>2024-05-20T07:20:12Z</time>
      </trkpt>
      <trkpt lat="43.39508" lon="1.07338">
        <ele>344.6</ele>
        <time>2024-05-20T07:20:13Z</time>
      </trkpt>
      <trkpt lat="43.39508" lon="1.0733">
        <ele>344.6</ele>
        <time>2024-05-20T07:20:14Z</time>
      </trkpt>
      <trkpt lat="43.39508" lon="1.07322">
        <ele>344.6</ele>
        <time>2024-05-20T07:20:15Z</time>
      </trkpt>
      <trkpt lat="43.39508" lon="1.07314">
        <ele>344.6</ele>
        <time>2024-05-20T07:20:16Z</time>
      </trkpt>
      <trkpt lat="43.39508" lon="1.07306">
        <ele>344.6</ele>
        <time>2024-05-20T07:20:17Z</time>
      </trkpt>
      <trkpt lat="43.39509" lon="1.07297">
        <ele>344.8</ele>
        <time>2024-05-20T07:20:18Z</time>
      </trkpt>
      <trkpt lat="43.39509" lon="1.07289">
        <ele>344.8</ele>
        <time>2024-05-20T07:20:19Z</time>
      </trkpt>
      <trkpt lat="43.39509" lon="1.07282">
        <ele>344.8</ele>
        <time>2024-05-20T07:20:20Z</time>
      </trkpt>
      <trkpt lat="43.39509" lon="1.07274">
        <ele>345</ele>
        <time>2024-05-20T07:20:21Z</time>
      </trkpt>
      <trkpt lat="43.39509" lon="1.07265">
        <ele>345</ele>
        <time>2024-05-20T07:20:22Z</time>
      </trkpt>
      <trkpt lat="43.39509" lon="1.07257">
        <ele>345.2</ele>
        <time>2024-05-20T07:20:23Z</time>
      </trkpt>
      <trkpt lat="43.3951" lon="1.07249">
        <ele>345.2</ele>
        <time>2024-05-20T07:20:24Z</time>
      </trkpt>
      <trkpt lat="43.3951" lon="1.07241">
        <ele>345.6</ele>
        <time>2024-05-20T07:20:25Z</time>
      </trkpt>
      <trkpt lat="43.3951" lon="1.07232">
        <ele>345.8</ele>
        <time>2024-05-20T07:20:26Z</time>
      </trkpt>
      <trkpt lat="43.39511" lon="1.07223">
        <ele>346</ele>
        <time>2024-05-20T07:20:27Z</time>
      </trkpt>
      <trkpt lat="43.39512" lon="1.07215">
        <ele>346</ele>
        <time>2024-05-20T07:20:28Z</time>
      </trkpt>
      <trkpt lat="43.39513" lon="1.07206">
        <ele>346</ele>
        <time>2024-05-20T07:20:29Z</time>
      </trkpt>
      <trkpt lat="43.39514" lon="1.07196">
        <ele>346</ele>
        <time>2024-05-20T07:20:30Z</time>
      </trkpt>
      <trkpt lat="43.39515" lon="1.07187">
        <ele>346</ele>
        <time>2024-05-20T07:20:31Z</time>
      </trkpt>
      <trkpt lat="43.39517" lon="1.07177">
        <ele>346</ele>
        <time>2024-05-20T07:20:32Z</time>
      </trkpt>
      <trkpt lat="43.39519" lon="1.07167">
        <ele>346</ele>
        <time>2024-05-20T07:20:33Z</time>
      </trkpt>
      <trkpt lat="43.39521" lon="1.07157">
        <ele>346</ele>
        <time>2024-05-20T07:20:34Z</time>
      </trkpt>
      <trkpt lat="43.39522" lon="1.07148">
        <ele>346</ele>
        <time>2024-05-20T07:20:35Z</time>
      </trkpt>
      <trkpt lat="43.39525" lon="1.07139">
        <ele>345.6</ele>
        <time>2024-05-20T07:20:36Z</time>
      </trkpt>
      <trkpt lat="43.39527" lon="1.07129">
        <ele>345.4</ele>
        <time>2024-05-20T07:20:37Z</time>
      </trkpt>
      <trkpt lat="43.39529" lon="1.0712">
        <ele>345</ele>
        <time>2024-05-20T07:20:38Z</time>
      </trkpt>
      <trkpt lat="43.39532" lon="1.0711">
        <ele>344.6</ele>
        <time>2024-05-20T07:20:39Z</time>
      </trkpt>
      <trkpt lat="43.39534" lon="1.07101">
        <ele>344.4</ele>
        <time>2024-05-20T07:20:40Z</time>
      </trkpt>
      <trkpt lat="43.39537" lon="1.07091">
        <ele>344.2</ele>
        <time>2024-05-20T07:20:41Z</time>
      </trkpt>
      <trkpt lat="43.39539" lon="1.07082">
        <ele>344</ele>
        <time>2024-05-20T07:20:42Z</time>
      </trkpt>
      <trkpt lat="43.39542" lon="1.07073">
        <ele>344</ele>
        <time>2024-05-20T07:20:43Z</time>
      </trkpt>
      <trkpt lat="43.39544" lon="1.07064">
        <ele>343.8</ele>
        <time>2024-05-20T07:20:44Z</time>
      </trkpt>
      <trkpt lat="43.39546" lon="1.07055">
        <ele>343.8</ele>
        <time>2024-05-20T07:20:45Z</time>
      </trkpt>
      <trkpt lat="43.39549" lon="1.07046">
        <ele>343.8</ele>
        <time>2024-05-20T07:20:46Z</time>
      </trkpt>
      <trkpt lat="43.39551" lon="1.07038">
        <ele>343.8</ele>
        <time>2024-05-20T07:20:47Z</time>
      </trkpt>
      <trkpt lat="43.39553" lon="1.07029">
        <ele>343.8</ele>
        <time>2024-05-20T07:20:48Z</time>
      </trkpt>
      <trkpt lat="43.39555" lon="1.07021">
        <ele>343.8</ele>
        <time>2024-05-20T07:20:49Z</time>
      </trkpt>
      <trkpt lat="43.39557" lon="1.07013">
        <ele>344</ele>
        <time>2024-05-20T07:20:50Z</time>
      </trkpt>
      <trkpt lat="43.39559" lon="1.07005">
        <ele>344</ele>
        <time>2024-05-20T07:20:51Z</time>
      </trkpt>
      <trkpt lat="43.39561" lon="1.06996">
        <ele>344.2</ele>
        <time>2024-05-20T07:20:52Z</time>
      </trkpt>
      <trkpt lat="43.39563" lon="1.06988">
        <ele>344.2</ele>
        <time>2024-05-20T07:20:53Z</time>
      </trkpt>
      <trkpt lat="43.39565" lon="1.0698">
        <ele>344.6</ele>
        <time>2024-05-20T07:20:54Z</time>
      </trkpt>
      <trkpt lat="43.39567" lon="1.06973">
        <ele>344.8</ele>
        <time>2024-05-20T07:20:55Z</time>
      </trkpt>
      <trkpt lat="43.39569" lon="1.06964">
        <ele>345</ele>
        <time>2024-05-20T07:20:56Z</time>
      </trkpt>
      <trkpt lat="43.39571" lon="1.06956">
        <ele>345.2</ele>
        <time>2024-05-20T07:20:57Z</time>
      </trkpt>
      <trkpt lat="43.39573" lon="1.06948">
        <ele>345.4</ele>
        <time>2024-05-20T07:20:58Z</time>
      </trkpt>
      <trkpt lat="43.39575" lon="1.0694">
        <ele>345.4</ele>
        <time>2024-05-20T07:20:59Z</time>
      </trkpt>
      <trkpt lat="43.39577" lon="1.06932">
        <ele>345.6</ele>
        <time>2024-05-20T07:21:00Z</time>
      </trkpt>
      <trkpt lat="43.39579" lon="1.06923">
        <ele>345.8</ele>
        <time>2024-05-20T07:21:01Z</time>
      </trkpt>
      <trkpt lat="43.3958" lon="1.06914">
        <ele>346</ele>
        <time>2024-05-20T07:21:02Z</time>
      </trkpt>
      <trkpt lat="43.39582" lon="1.06906">
        <ele>346.2</ele>
        <time>2024-05-20T07:21:03Z</time>
      </trkpt>
      <trkpt lat="43.39583" lon="1.06897">
        <ele>346.4</ele>
        <time>2024-05-20T07:21:04Z</time>
      </trkpt>
      <trkpt lat="43.39585" lon="1.06888">
        <ele>346.4</ele>
        <time>2024-05-20T07:21:05Z</time>
      </trkpt>
      <trkpt lat="43.39587" lon="1.06879">
        <ele>346.4</ele>
        <time>2024-05-20T07:21:06Z</time>
      </trkpt>
      <trkpt lat="43.39589" lon="1.0687">
        <ele>346.4</ele>
        <time>2024-05-20T07:21:07Z</time>
      </trkpt>
      <trkpt lat="43.39591" lon="1.06861">
        <ele>346.6</ele>
        <time>2024-05-20T07:21:08Z</time>
      </trkpt>
      <trkpt lat="43.39594" lon="1.06852">
        <ele>346.6</ele>
        <time>2024-05-20T07:21:09Z</time>
      </trkpt>
      <trkpt lat="43.39596" lon="1.06843">
        <ele>346.4</ele>
        <time>2024-05-20T07:21:10Z</time>
      </trkpt>
      <trkpt lat="43.39599" lon="1.06834">
        <ele>346.4</ele>
        <time>2024-05-20T07:21:11Z</time>
      </trkpt>
      <trkpt lat="43.39601" lon="1.06825">
        <ele>346.4</ele>
        <time>2024-05-20T07:21:12Z</time>
      </trkpt>
      <trkpt lat="43.39603" lon="1.06817">
        <ele>346.2</ele>
        <time>2024-05-20T07:21:13Z</time>
      </trkpt>
      <trkpt lat="43.39606" lon="1.06808">
        <ele>346</ele>
        <time>2024-05-20T07:21:14Z</time>
      </trkpt>
      <trkpt lat="43.39608" lon="1.068">
        <ele>346</ele>
        <time>2024-05-20T07:21:15Z</time>
      </trkpt>
      <trkpt lat="43.39609" lon="1.06791">
        <ele>346</ele>
        <time>2024-05-20T07:21:16Z</time>
      </trkpt>
      <trkpt lat="43.39611" lon="1.06781">
        <ele>346.2</ele>
        <time>2024-05-20T07:21:17Z</time>
      </trkpt>
      <trkpt lat="43.39614" lon="1.06772">
        <ele>346.2</ele>
        <time>2024-05-20T07:21:18Z</time>
      </trkpt>
      <trkpt lat="43.39615" lon="1.06765">
        <ele>346.2</ele>
        <time>2024-05-20T07:21:19Z</time>
      </trkpt>
      <trkpt lat="43.39617" lon="1.06757">
        <ele>346.4</ele>
        <time>2024-05-20T07:21:20Z</time>
      </trkpt>
      <trkpt lat="43.39619" lon="1.06748">
        <ele>346.4</ele>
        <time>2024-05-20T07:21:21Z</time>
      </trkpt>
      <trkpt lat="43.39621" lon="1.0674">
        <ele>346.6</ele>
        <time>2024-05-20T07:21:22Z</time>
      </trkpt>
      <trkpt lat="43.39623" lon="1.06732">
        <ele>346.6</ele>
        <time>2024-05-20T07:21:23Z</time>
      </trkpt>
      <trkpt lat="43.39624" lon="1.06724">
        <ele>346.6</ele>
        <time>2024-05-20T07:21:24Z</time>
      </trkpt>
      <trkpt lat="43.39626" lon="1.06716">
        <ele>346.6</ele>
        <time>2024-05-20T07:21:25Z</time>
      </trkpt>
      <trkpt lat="43.39627" lon="1.06708">
        <ele>346.6</ele>
        <time>2024-05-20T07:21:26Z</time>
      </trkpt>
      <trkpt lat="43.39628" lon="1.067">
        <ele>346.6</ele>
        <time>2024-05-20T07:21:27Z</time>
      </trkpt>
      <trkpt lat="43.3963" lon="1.06691">
        <ele>346.8</ele>
        <time>2024-05-20T07:21:28Z</time>
      </trkpt>
      <trkpt lat="43.39631" lon="1.06683">
        <ele>346.8</ele>
        <time>2024-05-20T07:21:29Z</time>
      </trkpt>
      <trkpt lat="43.39632" lon="1.06674">
        <ele>346.8</ele>
        <time>2024-05-20T07:21:30Z</time>
      </trkpt>
      <trkpt lat="43.39633" lon="1.06664">
        <ele>346.8</ele>
        <time>2024-05-20T07:21:31Z</time>
      </trkpt>
      <trkpt lat="43.39635" lon="1.06655">
        <ele>346.8</ele>
        <time>2024-05-20T07:21:32Z</time>
      </trkpt>
      <trkpt lat="43.39636" lon="1.06645">
        <ele>346.8</ele>
        <time>2024-05-20T07:21:33Z</time>
      </trkpt>
      <trkpt lat="43.39638" lon="1.06636">
        <ele>346.8</ele>
        <time>2024-05-20T07:21:34Z</time>
      </trkpt>
      <trkpt lat="43.3964" lon="1.06627">
        <ele>346.8</ele>
        <time>2024-05-20T07:21:35Z</time>
      </trkpt>
      <trkpt lat="43.39642" lon="1.06618">
        <ele>346.8</ele>
        <time>2024-05-20T07:21:36Z</time>
      </trkpt>
      <trkpt lat="43.39644" lon="1.06609">
        <ele>347</ele>
        <time>2024-05-20T07:21:37Z</time>
      </trkpt>
      <trkpt lat="43.39646" lon="1.066">
        <ele>346.8</ele>
        <time>2024-05-20T07:21:38Z</time>
      </trkpt>
      <trkpt lat="43.39649" lon="1.06592">
        <ele>347</ele>
        <time>2024-05-20T07:21:39Z</time>
      </trkpt>
      <trkpt lat="43.39652" lon="1.06583">
        <ele>347</ele>
        <time>2024-05-20T07:21:40Z</time>
      </trkpt>
      <trkpt lat="43.39656" lon="1.06575">
        <ele>347</ele>
        <time>2024-05-20T07:21:41Z</time>
      </trkpt>
      <trkpt lat="43.39659" lon="1.06567">
        <ele>347</ele>
        <time>2024-05-20T07:21:42Z</time>
      </trkpt>
      <trkpt lat="43.39662" lon="1.06559">
        <ele>347.2</ele>
        <time>2024-05-20T07:21:43Z</time>
      </trkpt>
      <trkpt lat="43.39665" lon="1.06551">
        <ele>347.2</ele>
        <time>2024-05-20T07:21:44Z</time>
      </trkpt>
      <trkpt lat="43.39668" lon="1.06543">
        <ele>347.2</ele>
        <time>2024-05-20T07:21:45Z</time>
      </trkpt>
      <trkpt lat="43.39671" lon="1.06536">
        <ele>347.4</ele>
        <time>2024-05-20T07:21:46Z</time>
      </trkpt>
      <trkpt lat="43.39675" lon="1.06529">
        <ele>347.2</ele>
        <time>2024-05-20T07:21:47Z</time>
      </trkpt>
      <trkpt lat="43.39678" lon="1.06521">
        <ele>347.2</ele>
        <time>2024-05-20T07:21:48Z</time>
      </trkpt>
      <trkpt lat="43.39681" lon="1.06514">
        <ele>347.4</ele>
        <time>2024-05-20T07:21:49Z</time>
      </trkpt>
      <trkpt lat="43.39684" lon="1.06507">
        <ele>347.4</ele>
        <time>2024-05-20T07:21:50Z</time>
      </trkpt>
      <trkpt lat="43.39688" lon="1.06499">
        <ele>347.4</ele>
        <time>2024-05-20T07:21:51Z</time>
      </trkpt>
      <trkpt lat="43.39691" lon="1.06492">
        <ele>347.4</ele>
        <time>2024-05-20T07:21:52Z</time>
      </trkpt>
      <trkpt lat="43.39694" lon="1.06484">
        <ele>347.4</ele>
        <time>2024-05-20T07:21:53Z</time>
      </trkpt>
      <trkpt lat="43.39698" lon="1.06477">
        <ele>347.6</ele>
        <time>2024-05-20T07:21:54Z</time>
      </trkpt>
      <trkpt lat="43.39701" lon="1.06469">
        <ele>347.6</ele>
        <time>2024-05-20T07:21:55Z</time>
      </trkpt>
      <trkpt lat="43.39705" lon="1.06461">
        <ele>347.8</ele>
        <time>2024-05-20T07:21:56Z</time>
      </trkpt>
      <trkpt lat="43.39708" lon="1.06453">
        <ele>347.8</ele>
        <time>2024-05-20T07:21:57Z</time>
      </trkpt>
      <trkpt lat="43.39711" lon="1.06446">
        <ele>347.8</ele>
        <time>2024-05-20T07:21:58Z</time>
      </trkpt>
      <trkpt lat="43.39714" lon="1.06438">
        <ele>348</ele>
        <time>2024-05-20T07:21:59Z</time>
      </trkpt>
      <trkpt lat="43.39717" lon="1.06431">
        <ele>348</ele>
        <time>2024-05-20T07:22:00Z</time>
      </trkpt>
      <trkpt lat="43.39721" lon="1.06423">
        <ele>348.2</ele>
        <time>2024-05-20T07:22:01Z</time>
      </trkpt>
      <trkpt lat="43.39724" lon="1.06416">
        <ele>348.2</ele>
        <time>2024-05-20T07:22:02Z</time>
      </trkpt>
      <trkpt lat="43.39727" lon="1.06409">
        <ele>348.2</ele>
        <time>2024-05-20T07:22:03Z</time>
      </trkpt>
      <trkpt lat="43.3973" lon="1.06401">
        <ele>348.4</ele>
        <time>2024-05-20T07:22:04Z</time>
      </trkpt>
      <trkpt lat="43.39734" lon="1.06392">
        <ele>348.8</ele>
        <time>2024-05-20T07:22:05Z</time>
      </trkpt>
      <trkpt lat="43.39737" lon="1.06386">
        <ele>348.8</ele>
        <time>2024-05-20T07:22:06Z</time>
      </trkpt>
      <trkpt lat="43.3974" lon="1.06379">
        <ele>349</ele>
        <time>2024-05-20T07:22:07Z</time>
      </trkpt>
      <trkpt lat="43.39743" lon="1.06371">
        <ele>349</ele>
        <time>2024-05-20T07:22:08Z</time>
      </trkpt>
      <trkpt lat="43.39746" lon="1.06364">
        <ele>349.4</ele>
        <time>2024-05-20T07:22:09Z</time>
      </trkpt>
      <trkpt lat="43.39749" lon="1.06356">
        <ele>349.4</ele>
        <time>2024-05-20T07:22:10Z</time>
      </trkpt>
      <trkpt lat="43.39752" lon="1.06349">
        <ele>349.6</ele>
        <time>2024-05-20T07:22:11Z</time>
      </trkpt>
      <trkpt lat="43.39756" lon="1.06341">
        <ele>349.6</ele>
        <time>2024-05-20T07:22:12Z</time>
      </trkpt>
      <trkpt lat="43.39759" lon="1.06334">
        <ele>349.8</ele>
        <time>2024-05-20T07:22:13Z</time>
      </trkpt>
      <trkpt lat="43.39762" lon="1.06326">
        <ele>349.8</ele>
        <time>2024-05-20T07:22:14Z</time>
      </trkpt>
      <trkpt lat="43.39765" lon="1.06319">
        <ele>350</ele>
        <time>2024-05-20T07:22:15Z</time>
      </trkpt>
      <trkpt lat="43.39768" lon="1.06311">
        <ele>350</ele>
        <time>2024-05-20T07:22:16Z</time>
      </trkpt>
      <trkpt lat="43.39771" lon="1.06303">
        <ele>350</ele>
        <time>2024-05-20T07:22:17Z</time>
      </trkpt>
      <trkpt lat="43.39774" lon="1.06296">
        <ele>350</ele>
        <time>2024-05-20T07:22:18Z</time>
      </trkpt>
      <trkpt lat="43.39778" lon="1.06286">
        <ele>350</ele>
        <time>2024-05-20T07:22:19Z</time>
      </trkpt>
      <trkpt lat="43.39781" lon="1.0628">
        <ele>350</ele>
        <time>2024-05-20T07:22:20Z</time>
      </trkpt>
      <trkpt lat="43.39784" lon="1.06272">
        <ele>350.2</ele>
        <time>2024-05-20T07:22:21Z</time>
      </trkpt>
      <trkpt lat="43.39787" lon="1.06264">
        <ele>350.4</ele>
        <time>2024-05-20T07:22:22Z</time>
      </trkpt>
      <trkpt lat="43.3979" lon="1.06257">
        <ele>350.6</ele>
        <time>2024-05-20T07:22:23Z</time>
      </trkpt>
      <trkpt lat="43.39793" lon="1.06249">
        <ele>350.6</ele>
        <time>2024-05-20T07:22:24Z</time>
      </trkpt>
      <trkpt lat="43.39797" lon="1.06241">
        <ele>350.8</ele>
        <time>2024-05-20T07:22:25Z</time>
      </trkpt>
      <trkpt lat="43.398" lon="1.06233">
        <ele>350.8</ele>
        <time>2024-05-20T07:22:26Z</time>
      </trkpt>
      <trkpt lat="43.39803" lon="1.06225">
        <ele>351</ele>
        <time>2024-05-20T07:22:27Z</time>
      </trkpt>
      <trkpt lat="43.39807" lon="1.06217">
        <ele>351</ele>
        <time>2024-05-20T07:22:28Z</time>
      </trkpt>
      <trkpt lat="43.3981" lon="1.06209">
        <ele>351.2</ele>
        <time>2024-05-20T07:22:29Z</time>
      </trkpt>
      <trkpt lat="43.39813" lon="1.06201">
        <ele>351.2</ele>
        <time>2024-05-20T07:22:30Z</time>
      </trkpt>
      <trkpt lat="43.39816" lon="1.06192">
        <ele>351.2</ele>
        <time>2024-05-20T07:22:31Z</time>
      </trkpt>
      <trkpt lat="43.39819" lon="1.06184">
        <ele>351</ele>
        <time>2024-05-20T07:22:32Z</time>
      </trkpt>
      <trkpt lat="43.39822" lon="1.06176">
        <ele>351</ele>
        <time>2024-05-20T07:22:33Z</time>
      </trkpt>
      <trkpt lat="43.39825" lon="1.06168">
        <ele>350.8</ele>
        <time>2024-05-20T07:22:34Z</time>
      </trkpt>
      <trkpt lat="43.39828" lon="1.0616">
        <ele>350.8</ele>
        <time>2024-05-20T07:22:35Z</time>
      </trkpt>
      <trkpt lat="43.39832" lon="1.06152">
        <ele>351</ele>
        <time>2024-05-20T07:22:36Z</time>
      </trkpt>
      <trkpt lat="43.39834" lon="1.06144">
        <ele>351</ele>
        <time>2024-05-20T07:22:37Z</time>
      </trkpt>
      <trkpt lat="43.39838" lon="1.06137">
        <ele>351</ele>
        <time>2024-05-20T07:22:38Z</time>
      </trkpt>
      <trkpt lat="43.39841" lon="1.06129">
        <ele>350.8</ele>
        <time>2024-05-20T07:22:39Z</time>
      </trkpt>
      <trkpt lat="43.39844" lon="1.06121">
        <ele>350.8</ele>
        <time>2024-05-20T07:22:40Z</time>
      </trkpt>
      <trkpt lat="43.39847" lon="1.06113">
        <ele>351</ele>
        <time>2024-05-20T07:22:41Z</time>
      </trkpt>
      <trkpt lat="43.3985" lon="1.06104">
        <ele>351</ele>
        <time>2024-05-20T07:22:42Z</time>
      </trkpt>
      <trkpt lat="43.39854" lon="1.06095">
        <ele>351.2</ele>
        <time>2024-05-20T07:22:43Z</time>
      </trkpt>
      <trkpt lat="43.39857" lon="1.06086">
        <ele>351.2</ele>
        <time>2024-05-20T07:22:44Z</time>
      </trkpt>
      <trkpt lat="43.3986" lon="1.06077">
        <ele>351.4</ele>
        <time>2024-05-20T07:22:45Z</time>
      </trkpt>
      <trkpt lat="43.39864" lon="1.06068">
        <ele>351.4</ele>
        <time>2024-05-20T07:22:46Z</time>
      </trkpt>
      <trkpt lat="43.39868" lon="1.06058">
        <ele>351.4</ele>
        <time>2024-05-20T07:22:47Z</time>
      </trkpt>
      <trkpt lat="43.39871" lon="1.06052">
        <ele>351.6</ele>
        <time>2024-05-20T07:22:48Z</time>
      </trkpt>
      <trkpt lat="43.39875" lon="1.06044">
        <ele>351.6</ele>
        <time>2024-05-20T07:22:49Z</time>
      </trkpt>
      <trkpt lat="43.39879" lon="1.06035">
        <ele>351.6</ele>
        <time>2024-05-20T07:22:50Z</time>
      </trkpt>
      <trkpt lat="43.39882" lon="1.06027">
        <ele>351.6</ele>
        <time>2024-05-20T07:22:51Z</time>
      </trkpt>
      <trkpt lat="43.39886" lon="1.06019">
        <ele>351.6</ele>
        <time>2024-05-20T07:22:52Z</time>
      </trkpt>
      <trkpt lat="43.39889" lon="1.06011">
        <ele>351.6</ele>
        <time>2024-05-20T07:22:53Z</time>
      </trkpt>
      <trkpt lat="43.39893" lon="1.06003">
        <ele>351.6</ele>
        <time>2024-05-20T07:22:54Z</time>
      </trkpt>
      <trkpt lat="43.39897" lon="1.05995">
        <ele>351.6</ele>
        <time>2024-05-20T07:22:55Z</time>
      </trkpt>
      <trkpt lat="43.39901" lon="1.05987">
        <ele>351.6</ele>
        <time>2024-05-20T07:22:56Z</time>
      </trkpt>
      <trkpt lat="43.39905" lon="1.0598">
        <ele>351.6</ele>
        <time>2024-05-20T07:22:57Z</time>
      </trkpt>
      <trkpt lat="43.39909" lon="1.05972">
        <ele>351.6</ele>
        <time>2024-05-20T07:22:58Z</time>
      </trkpt>
      <trkpt lat="43.39912" lon="1.05964">
        <ele>351.6</ele>
        <time>2024-05-20T07:22:59Z</time>
      </trkpt>
      <trkpt lat="43.39916" lon="1.05956">
        <ele>351.6</ele>
        <time>2024-05-20T07:23:00Z</time>
      </trkpt>
      <trkpt lat="43.39919" lon="1.05948">
        <ele>351.4</ele>
        <time>2024-05-20T07:23:01Z</time>
      </trkpt>
      <trkpt lat="43.39923" lon="1.0594">
        <ele>351.4</ele>
        <time>2024-05-20T07:23:02Z</time>
      </trkpt>
      <trkpt lat="43.39927" lon="1.05933">
        <ele>351.4</ele>
        <time>2024-05-20T07:23:03Z</time>
      </trkpt>
      <trkpt lat="43.39932" lon="1.05925">
        <ele>351.4</ele>
        <time>2024-05-20T07:23:04Z</time>
      </trkpt>
      <trkpt lat="43.39937" lon="1.05918">
        <ele>351.4</ele>
        <time>2024-05-20T07:23:05Z</time>
      </trkpt>
      <trkpt lat="43.39941" lon="1.0591">
        <ele>351.4</ele>
        <time>2024-05-20T07:23:06Z</time>
      </trkpt>
      <trkpt lat="43.39946" lon="1.05903">
        <ele>351.4</ele>
        <time>2024-05-20T07:23:07Z</time>
      </trkpt>
      <trkpt lat="43.3995" lon="1.05896">
        <ele>351.4</ele>
        <time>2024-05-20T07:23:08Z</time>
      </trkpt>
      <trkpt lat="43.39955" lon="1.05888">
        <ele>351.4</ele>
        <time>2024-05-20T07:23:09Z</time>
      </trkpt>
      <trkpt lat="43.39959" lon="1.05881">
        <ele>351.4</ele>
        <time>2024-05-20T07:23:10Z</time>
      </trkpt>
      <trkpt lat="43.39963" lon="1.05874">
        <ele>351.4</ele>
        <time>2024-05-20T07:23:11Z</time>
      </trkpt>
      <trkpt lat="43.39968" lon="1.05867">
        <ele>351.6</ele>
        <time>2024-05-20T07:23:12Z</time>
      </trkpt>
      <trkpt lat="43.39972" lon="1.0586">
        <ele>351.6</ele>
        <time>2024-05-20T07:23:13Z</time>
      </trkpt>
      <trkpt lat="43.39976" lon="1.05854">
        <ele>351.8</ele>
        <time>2024-05-20T07:23:14Z</time>
      </trkpt>
      <trkpt lat="43.3998" lon="1.05847">
        <ele>352</ele>
        <time>2024-05-20T07:23:15Z</time>
      </trkpt>
      <trkpt lat="43.39984" lon="1.0584">
        <ele>352</ele>
        <time>2024-05-20T07:23:16Z</time>
      </trkpt>
      <trkpt lat="43.39988" lon="1.05834">
        <ele>352</ele>
        <time>2024-05-20T07:23:17Z</time>
      </trkpt>
      <trkpt lat="43.39992" lon="1.05827">
        <ele>352.2</ele>
        <time>2024-05-20T07:23:18Z</time>
      </trkpt>
      <trkpt lat="43.39997" lon="1.05821">
        <ele>352.4</ele>
        <time>2024-05-20T07:23:19Z</time>
      </trkpt>
      <trkpt lat="43.40001" lon="1.05814">
        <ele>352.4</ele>
        <time>2024-05-20T07:23:20Z</time>
      </trkpt>
      <trkpt lat="43.40005" lon="1.05807">
        <ele>352.6</ele>
        <time>2024-05-20T07:23:21Z</time>
      </trkpt>
      <trkpt lat="43.40009" lon="1.05801">
        <ele>352.6</ele>
        <time>2024-05-20T07:23:22Z</time>
      </trkpt>
      <trkpt lat="43.40014" lon="1.05795">
        <ele>352.8</ele>
        <time>2024-05-20T07:23:23Z</time>
      </trkpt>
      <trkpt lat="43.40018" lon="1.05788">
        <ele>352.8</ele>
        <time>2024-05-20T07:23:24Z</time>
      </trkpt>
      <trkpt lat="43.40023" lon="1.05781">
        <ele>352.8</ele>
        <time>2024-05-20T07:23:25Z</time>
      </trkpt>
      <trkpt lat="43.40028" lon="1.05774">
        <ele>352.8</ele>
        <time>2024-05-20T07:23:26Z</time>
      </trkpt>
      <trkpt lat="43.40032" lon="1.05768">
        <ele>352.6</ele>
        <time>2024-05-20T07:23:27Z</time>
      </trkpt>
      <trkpt lat="43.40037" lon="1.05761">
        <ele>352.6</ele>
        <time>2024-05-20T07:23:28Z</time>
      </trkpt>
      <trkpt lat="43.40043" lon="1.05753">
        <ele>352.6</ele>
        <time>2024-05-20T07:23:29Z</time>
      </trkpt>
      <trkpt lat="43.40048" lon="1.05746">
        <ele>352.6</ele>
        <time>2024-05-20T07:23:30Z</time>
      </trkpt>
      <trkpt lat="43.40053" lon="1.05738">
        <ele>352.6</ele>
        <time>2024-05-20T07:23:31Z</time>
      </trkpt>
      <trkpt lat="43.40058" lon="1.05731">
        <ele>352.6</ele>
        <time>2024-05-20T07:23:32Z</time>
      </trkpt>
      <trkpt lat="43.40064" lon="1.05723">
        <ele>352.4</ele>
        <time>2024-05-20T07:23:33Z</time>
      </trkpt>
      <trkpt lat="43.4007" lon="1.05716">
        <ele>352.4</ele>
        <time>2024-05-20T07:23:34Z</time>
      </trkpt>
      <trkpt lat="43.40075" lon="1.05709">
        <ele>352.2</ele>
        <time>2024-05-20T07:23:35Z</time>
      </trkpt>
      <trkpt lat="43.40082" lon="1.05702">
        <ele>352.2</ele>
        <time>2024-05-20T07:23:36Z</time>
      </trkpt>
      <trkpt lat="43.40088" lon="1.05697">
        <ele>351.8</ele>
        <time>2024-05-20T07:23:37Z</time>
      </trkpt>
      <trkpt lat="43.40094" lon="1.05692">
        <ele>351.6</ele>
        <time>2024-05-20T07:23:38Z</time>
      </trkpt>
      <trkpt lat="43.40101" lon="1.05687">
        <ele>351.4</ele>
        <time>2024-05-20T07:23:39Z</time>
      </trkpt>
      <trkpt lat="43.40107" lon="1.05683">
        <ele>351.4</ele>
        <time>2024-05-20T07:23:40Z</time>
      </trkpt>
      <trkpt lat="43.40113" lon="1.0568">
        <ele>351</ele>
        <time>2024-05-20T07:23:41Z</time>
      </trkpt>
      <trkpt lat="43.40119" lon="1.05676">
        <ele>350.6</ele>
        <time>2024-05-20T07:23:42Z</time>
      </trkpt>
      <trkpt lat="43.40126" lon="1.05673">
        <ele>350.6</ele>
        <time>2024-05-20T07:23:43Z</time>
      </trkpt>
      <trkpt lat="43.40132" lon="1.05669">
        <ele>350.4</ele>
        <time>2024-05-20T07:23:44Z</time>
      </trkpt>
      <trkpt lat="43.40139" lon="1.05667">
        <ele>350.2</ele>
        <time>2024-05-20T07:23:45Z</time>
      </trkpt>
      <trkpt lat="43.40147" lon="1.05665">
        <ele>350.2</ele>
        <time>2024-05-20T07:23:46Z</time>
      </trkpt>
      <trkpt lat="43.40154" lon="1.05664">
        <ele>350</ele>
        <time>2024-05-20T07:23:47Z</time>
      </trkpt>
      <trkpt lat="43.40161" lon="1.05664">
        <ele>350</ele>
        <time>2024-05-20T07:23:48Z</time>
      </trkpt>
      <trkpt lat="43.40169" lon="1.05664">
        <ele>350</ele>
        <time>2024-05-20T07:23:49Z</time>
      </trkpt>
      <trkpt lat="43.40176" lon="1.05664">
        <ele>349.8</ele>
        <time>2024-05-20T07:23:50Z</time>
      </trkpt>
      <trkpt lat="43.40183" lon="1.05665">
        <ele>349.6</ele>
        <time>2024-05-20T07:23:51Z</time>
      </trkpt>
      <trkpt lat="43.4019" lon="1.05665">
        <ele>349.4</ele>
        <time>2024-05-20T07:23:52Z</time>
      </trkpt>
      <trkpt lat="43.40198" lon="1.05666">
        <ele>349.4</ele>
        <time>2024-05-20T07:23:53Z</time>
      </trkpt>
      <trkpt lat="43.40205" lon="1.05666">
        <ele>349.2</ele>
        <time>2024-05-20T07:23:54Z</time>
      </trkpt>
      <trkpt lat="43.40213" lon="1.05667">
        <ele>349.2</ele>
        <time>2024-05-20T07:23:55Z</time>
      </trkpt>
      <trkpt lat="43.40221" lon="1.05667">
        <ele>349</ele>
        <time>2024-05-20T07:23:56Z</time>
      </trkpt>
      <trkpt lat="43.40229" lon="1.05668">
        <ele>348.8</ele>
        <time>2024-05-20T07:23:57Z</time>
      </trkpt>
      <trkpt lat="43.40237" lon="1.05669">
        <ele>348.6</ele>
        <time>2024-05-20T07:23:58Z</time>
      </trkpt>
      <trkpt lat="43.40245" lon="1.0567">
        <ele>348.4</ele>
        <time>2024-05-20T07:23:59Z</time>
      </trkpt>
      <trkpt lat="43.40254" lon="1.0567">
        <ele>348.2</ele>
        <time>2024-05-20T07:24:00Z</time>
      </trkpt>
      <trkpt lat="43.40262" lon="1.05671">
        <ele>348.2</ele>
        <time>2024-05-20T07:24:01Z</time>
      </trkpt>
      <trkpt lat="43.4027" lon="1.05671">
        <ele>347.8</ele>
        <time>2024-05-20T07:24:02Z</time>
      </trkpt>
      <trkpt lat="43.40278" lon="1.05672">
        <ele>347.8</ele>
        <time>2024-05-20T07:24:03Z</time>
      </trkpt>
      <trkpt lat="43.40286" lon="1.05672">
        <ele>347.8</ele>
        <time>2024-05-20T07:24:04Z</time>
      </trkpt>
      <trkpt lat="43.40295" lon="1.05673">
        <ele>347.8</ele>
        <time>2024-05-20T07:24:05Z</time>
      </trkpt>
      <trkpt lat="43.40303" lon="1.05674">
        <ele>347.6</ele>
        <time>2024-05-20T07:24:06Z</time>
      </trkpt>
      <trkpt lat="43.40312" lon="1.05674">
        <ele>347.6</ele>
        <time>2024-05-20T07:24:07Z</time>
      </trkpt>
      <trkpt lat="43.4032" lon="1.05675">
        <ele>347.6</ele>
        <time>2024-05-20T07:24:08Z</time>
      </trkpt>
      <trkpt lat="43.40328" lon="1.05675">
        <ele>347.4</ele>
        <time>2024-05-20T07:24:09Z</time>
      </trkpt>
      <trkpt lat="43.40336" lon="1.05676">
        <ele>347.4</ele>
        <time>2024-05-20T07:24:10Z</time>
      </trkpt>
      <trkpt lat="43.40344" lon="1.05677">
        <ele>347.2</ele>
        <time>2024-05-20T07:24:11Z</time>
      </trkpt>
      <trkpt lat="43.40352" lon="1.05677">
        <ele>347</ele>
        <time>2024-05-20T07:24:12Z</time>
      </trkpt>
      <trkpt lat="43.4036" lon="1.05677">
        <ele>347</ele>
        <time>2024-05-20T07:24:13Z</time>
      </trkpt>
      <trkpt lat="43.40367" lon="1.05678">
        <ele>346.8</ele>
        <time>2024-05-20T07:24:14Z</time>
      </trkpt>
      <trkpt lat="43.40375" lon="1.05678">
        <ele>346.8</ele>
        <time>2024-05-20T07:24:15Z</time>
      </trkpt>
      <trkpt lat="43.40382" lon="1.05679">
        <ele>346.8</ele>
        <time>2024-05-20T07:24:16Z</time>
      </trkpt>
      <trkpt lat="43.40389" lon="1.05679">
        <ele>346.8</ele>
        <time>2024-05-20T07:24:17Z</time>
      </trkpt>
      <trkpt lat="43.40396" lon="1.0568">
        <ele>346.8</ele>
        <time>2024-05-20T07:24:18Z</time>
      </trkpt>
      <trkpt lat="43.40402" lon="1.05681">
        <ele>346.8</ele>
        <time>2024-05-20T07:24:19Z</time>
      </trkpt>
      <trkpt lat="43.40409" lon="1.05681">
        <ele>347</ele>
        <time>2024-05-20T07:24:20Z</time>
      </trkpt>
      <trkpt lat="43.40416" lon="1.05682">
        <ele>347</ele>
        <time>2024-05-20T07:24:21Z</time>
      </trkpt>
      <trkpt lat="43.40422" lon="1.05682">
        <ele>347</ele>
        <time>2024-05-20T07:24:22Z</time>
      </trkpt>
      <trkpt lat="43.40428" lon="1.05683">
        <ele>347.2</ele>
        <time>2024-05-20T07:24:23Z</time>
      </trkpt>
      <trkpt lat="43.40434" lon="1.05683">
        <ele>347.2</ele>
        <time>2024-05-20T07:24:24Z</time>
      </trkpt>
      <trkpt lat="43.4044" lon="1.05684">
        <ele>347.4</ele>
        <time>2024-05-20T07:24:25Z</time>
      </trkpt>
      <trkpt lat="43.40446" lon="1.05685">
        <ele>347.8</ele>
        <time>2024-05-20T07:24:26Z</time>
      </trkpt>
      <trkpt lat="43.40451" lon="1.05686">
        <ele>348</ele>
        <time>2024-05-20T07:24:27Z</time>
      </trkpt>
      <trkpt lat="43.40456" lon="1.05686">
        <ele>348.2</ele>
        <time>2024-05-20T07:24:28Z</time>
      </trkpt>
      <trkpt lat="43.4046" lon="1.05687">
        <ele>348.4</ele>
        <time>2024-05-20T07:24:29Z</time>
      </trkpt>
      <trkpt lat="43.40463" lon="1.05688">
        <ele>348.6</ele>
        <time>2024-05-20T07:24:30Z</time>
      </trkpt>
      <trkpt lat="43.40466" lon="1.05688">
        <ele>349</ele>
        <time>2024-05-20T07:24:31Z</time>
      </trkpt>
      <trkpt lat="43.40468" lon="1.05689">
        <ele>349</ele>
        <time>2024-05-20T07:24:32Z</time>
      </trkpt>
      <trkpt lat="43.4047" lon="1.05689">
        <ele>349.4</ele>
        <time>2024-05-20T07:24:33Z</time>
      </trkpt>
      <trkpt lat="43.40472" lon="1.05689">
        <ele>349.6</ele>
        <time>2024-05-20T07:24:34Z</time>
      </trkpt>
      <trkpt lat="43.40474" lon="1.05687">
        <ele>349.8</ele>
        <time>2024-05-20T07:24:35Z</time>
      </trkpt>
      <trkpt lat="43.40475" lon="1.05683">
        <ele>350.2</ele>
        <time>2024-05-20T07:24:36Z</time>
      </trkpt>
      <trkpt lat="43.40476" lon="1.0568">
        <ele>350.4</ele>
        <time>2024-05-20T07:24:37Z</time>
      </trkpt>
      <trkpt lat="43.40476" lon="1.05675">
        <ele>350.8</ele>
        <time>2024-05-20T07:24:38Z</time>
      </trkpt>
      <trkpt lat="43.40478" lon="1.0567">
        <ele>351</ele>
        <time>2024-05-20T07:24:39Z</time>
      </trkpt>
      <trkpt lat="43.40478" lon="1.05665">
        <ele>351</ele>
        <time>2024-05-20T07:24:40Z</time>
      </trkpt>
      <trkpt lat="43.40479" lon="1.0566">
        <ele>351.2</ele>
        <time>2024-05-20T07:24:41Z</time>
      </trkpt>
      <trkpt lat="43.4048" lon="1.05654">
        <ele>351.2</ele>
        <time>2024-05-20T07:24:42Z</time>
      </trkpt>
      <trkpt lat="43.40481" lon="1.05649">
        <ele>351.2</ele>
        <time>2024-05-20T07:24:43Z</time>
      </trkpt>
      <trkpt lat="43.40483" lon="1.05645">
        <ele>351.4</ele>
        <time>2024-05-20T07:24:44Z</time>
      </trkpt>
      <trkpt lat="43.40487" lon="1.05642">
        <ele>351.4</ele>
        <time>2024-05-20T07:24:45Z</time>
      </trkpt>
      <trkpt lat="43.40491" lon="1.05641">
        <ele>351.4</ele>
        <time>2024-05-20T07:24:46Z</time>
      </trkpt>
      <trkpt lat="43.40495" lon="1.05641">
        <ele>351.4</ele>
        <time>2024-05-20T07:24:47Z</time>
      </trkpt>
      <trkpt lat="43.405" lon="1.05642">
        <ele>351.6</ele>
        <time>2024-05-20T07:24:48Z</time>
      </trkpt>
      <trkpt lat="43.40504" lon="1.05641">
        <ele>351.6</ele>
        <time>2024-05-20T07:24:49Z</time>
      </trkpt>
      <trkpt lat="43.40509" lon="1.05641">
        <ele>351.6</ele>
        <time>2024-05-20T07:24:50Z</time>
      </trkpt>
      <trkpt lat="43.40514" lon="1.05642">
        <ele>351.6</ele>
        <time>2024-05-20T07:24:51Z</time>
      </trkpt>
      <trkpt lat="43.40521" lon="1.05643">
        <ele>351.8</ele>
        <time>2024-05-20T07:24:52Z</time>
      </trkpt>
      <trkpt lat="43.40527" lon="1.05644">
        <ele>352</ele>
        <time>2024-05-20T07:24:53Z</time>
      </trkpt>
      <trkpt lat="43.40533" lon="1.05645">
        <ele>352.2</ele>
        <time>2024-05-20T07:24:54Z</time>
      </trkpt>
      <trkpt lat="43.40539" lon="1.05645">
        <ele>352.2</ele>
        <time>2024-05-20T07:24:55Z</time>
      </trkpt>
      <trkpt lat="43.40546" lon="1.05646">
        <ele>352.2</ele>
        <time>2024-05-20T07:24:56Z</time>
      </trkpt>
      <trkpt lat="43.40553" lon="1.05647">
        <ele>352.2</ele>
        <time>2024-05-20T07:24:57Z</time>
      </trkpt>
      <trkpt lat="43.4056" lon="1.05648">
        <ele>352.4</ele>
        <time>2024-05-20T07:24:58Z</time>
      </trkpt>
      <trkpt lat="43.40567" lon="1.05648">
        <ele>352.4</ele>
        <time>2024-05-20T07:24:59Z</time>
      </trkpt>
      <trkpt lat="43.40574" lon="1.05649">
        <ele>352.4</ele>
        <time>2024-05-20T07:25:00Z</time>
      </trkpt>
      <trkpt lat="43.40582" lon="1.0565">
        <ele>352.4</ele>
        <time>2024-05-20T07:25:01Z</time>
      </trkpt>
      <trkpt lat="43.40589" lon="1.05651">
        <ele>352.4</ele>
        <time>2024-05-20T07:25:02Z</time>
      </trkpt>
      <trkpt lat="43.40597" lon="1.05651">
        <ele>352.2</ele>
        <time>2024-05-20T07:25:03Z</time>
      </trkpt>
      <trkpt lat="43.40605" lon="1.05652">
        <ele>352.2</ele>
        <time>2024-05-20T07:25:04Z</time>
      </trkpt>
      <trkpt lat="43.40613" lon="1.05652">
        <ele>352.2</ele>
        <time>2024-05-20T07:25:05Z</time>
      </trkpt>
      <trkpt lat="43.40621" lon="1.05653">
        <ele>352</ele>
        <time>2024-05-20T07:25:06Z</time>
      </trkpt>
      <trkpt lat="43.40629" lon="1.05653">
        <ele>351.8</ele>
        <time>2024-05-20T07:25:07Z</time>
      </trkpt>
      <trkpt lat="43.40637" lon="1.05654">
        <ele>351.8</ele>
        <time>2024-05-20T07:25:08Z</time>
      </trkpt>
      <trkpt lat="43.40646" lon="1.05654">
        <ele>351.6</ele>
        <time>2024-05-20T07:25:09Z</time>
      </trkpt>
      <trkpt lat="43.40655" lon="1.05655">
        <ele>351.4</ele>
        <time>2024-05-20T07:25:10Z</time>
      </trkpt>
      <trkpt lat="43.40663" lon="1.05656">
        <ele>351.2</ele>
        <time>2024-05-20T07:25:11Z</time>
      </trkpt>
      <trkpt lat="43.40672" lon="1.05657">
        <ele>351</ele>
        <time>2024-05-20T07:25:12Z</time>
      </trkpt>
      <trkpt lat="43.40681" lon="1.05657">
        <ele>350.8</ele>
        <time>2024-05-20T07:25:13Z</time>
      </trkpt>
      <trkpt lat="43.4069" lon="1.05658">
        <ele>350.6</ele>
        <time>2024-05-20T07:25:14Z</time>
      </trkpt>
      <trkpt lat="43.40699" lon="1.05659">
        <ele>350.4</ele>
        <time>2024-05-20T07:25:15Z</time>
      </trkpt>
      <trkpt lat="43.40707" lon="1.0566">
        <ele>350.2</ele>
        <time>2024-05-20T07:25:16Z</time>
      </trkpt>
      <trkpt lat="43.40716" lon="1.0566">
        <ele>350.2</ele>
        <time>2024-05-20T07:25:17Z</time>
      </trkpt>
      <trkpt lat="43.40725" lon="1.05661">
        <ele>349.8</ele>
        <time>2024-05-20T07:25:18Z</time>
      </trkpt>
      <trkpt lat="43.40733" lon="1.05662">
        <ele>349.6</ele>
        <time>2024-05-20T07:25:19Z</time>
      </trkpt>
      <trkpt lat="43.40742" lon="1.05663">
        <ele>349.4</ele>
        <time>2024-05-20T07:25:20Z</time>
      </trkpt>
      <trkpt lat="43.4075" lon="1.05663">
        <ele>349.4</ele>
        <time>2024-05-20T07:25:21Z</time>
      </trkpt>
      <trkpt lat="43.40758" lon="1.05664">
        <ele>349.4</ele>
        <time>2024-05-20T07:25:22Z</time>
      </trkpt>
      <trkpt lat="43.40766" lon="1.05665">
        <ele>349.2</ele>
        <time>2024-05-20T07:25:23Z</time>
      </trkpt>
      <trkpt lat="43.40775" lon="1.05666">
        <ele>349.2</ele>
        <time>2024-05-20T07:25:24Z</time>
      </trkpt>
      <trkpt lat="43.40783" lon="1.05666">
        <ele>349</ele>
        <time>2024-05-20T07:25:25Z</time>
      </trkpt>
      <trkpt lat="43.40791" lon="1.05667">
        <ele>349</ele>
        <time>2024-05-20T07:25:26Z</time>
      </trkpt>
      <trkpt lat="43.40799" lon="1.05667">
        <ele>349</ele>
        <time>2024-05-20T07:25:27Z</time>
      </trkpt>
      <trkpt lat="43.40807" lon="1.05668">
        <ele>349</ele>
        <time>2024-05-20T07:25:28Z</time>
      </trkpt>
      <trkpt lat="43.40816" lon="1.05668">
        <ele>349</ele>
        <time>2024-05-20T07:25:29Z</time>
      </trkpt>
      <trkpt lat="43.40824" lon="1.05669">
        <ele>349.2</ele>
        <time>2024-05-20T07:25:30Z</time>
      </trkpt>
      <trkpt lat="43.40832" lon="1.05669">
        <ele>349.2</ele>
        <time>2024-05-20T07:25:31Z</time>
      </trkpt>
      <trkpt lat="43.4084" lon="1.05669">
        <ele>349.2</ele>
        <time>2024-05-20T07:25:32Z</time>
      </trkpt>
      <trkpt lat="43.40849" lon="1.0567">
        <ele>349.4</ele>
        <time>2024-05-20T07:25:33Z</time>
      </trkpt>
      <trkpt lat="43.40857" lon="1.0567">
        <ele>349.4</ele>
        <time>2024-05-20T07:25:34Z</time>
      </trkpt>
      <trkpt lat="43.40866" lon="1.05671">
        <ele>349.4</ele>
        <time>2024-05-20T07:25:35Z</time>
      </trkpt>
      <trkpt lat="43.40874" lon="1.05672">
        <ele>349.4</ele>
        <time>2024-05-20T07:25:36Z</time>
      </trkpt>
      <trkpt lat="43.40882" lon="1.05673">
        <ele>349.4</ele>
        <time>2024-05-20T07:25:37Z</time>
      </trkpt>
      <trkpt lat="43.4089" lon="1.05673">
        <ele>349.4</ele>
        <time>2024-05-20T07:25:38Z</time>
      </trkpt>
      <trkpt lat="43.40898" lon="1.05674">
        <ele>349.4</ele>
        <time>2024-05-20T07:25:39Z</time>
      </trkpt>
      <trkpt lat="43.40906" lon="1.05674">
        <ele>349.4</ele>
        <time>2024-05-20T07:25:40Z</time>
      </trkpt>
      <trkpt lat="43.40914" lon="1.05673">
        <ele>349.4</ele>
        <time>2024-05-20T07:25:41Z</time>
      </trkpt>
      <trkpt lat="43.40922" lon="1.05673">
        <ele>349.4</ele>
        <time>2024-05-20T07:25:42Z</time>
      </trkpt>
      <trkpt lat="43.4093" lon="1.05671">
        <ele>349.4</ele>
        <time>2024-05-20T07:25:43Z</time>
      </trkpt>
      <trkpt lat="43.40938" lon="1.05669">
        <ele>349.4</ele>
        <time>2024-05-20T07:25:44Z</time>
      </trkpt>
      <trkpt lat="43.40947" lon="1.05667">
        <ele>349.4</ele>
        <time>2024-05-20T07:25:45Z</time>
      </trkpt>
      <trkpt lat="43.40955" lon="1.05664">
        <ele>349.2</ele>
        <time>2024-05-20T07:25:46Z</time>
      </trkpt>
      <trkpt lat="43.40963" lon="1.0566">
        <ele>349.2</ele>
        <time>2024-05-20T07:25:47Z</time>
      </trkpt>
      <trkpt lat="43.40972" lon="1.05656">
        <ele>349.2</ele>
        <time>2024-05-20T07:25:48Z</time>
      </trkpt>
      <trkpt lat="43.4098" lon="1.05652">
        <ele>349.2</ele>
        <time>2024-05-20T07:25:49Z</time>
      </trkpt>
      <trkpt lat="43.40989" lon="1.05648">
        <ele>348.8</ele>
        <time>2024-05-20T07:25:50Z</time>
      </trkpt>
      <trkpt lat="43.40998" lon="1.05644">
        <ele>348.6</ele>
        <time>2024-05-20T07:25:51Z</time>
      </trkpt>
      <trkpt lat="43.41007" lon="1.0564">
        <ele>348.2</ele>
        <time>2024-05-20T07:25:52Z</time>
      </trkpt>
      <trkpt lat="43.41016" lon="1.05636">
        <ele>348</ele>
        <time>2024-05-20T07:25:53Z</time>
      </trkpt>
      <trkpt lat="43.41025" lon="1.05632">
        <ele>347.8</ele>
        <time>2024-05-20T07:25:54Z</time>
      </trkpt>
      <trkpt lat="43.41034" lon="1.05627">
        <ele>347.4</ele>
        <time>2024-05-20T07:25:55Z</time>
      </trkpt>
      <trkpt lat="43.41043" lon="1.05623">
        <ele>347</ele>
        <time>2024-05-20T07:25:56Z</time>
      </trkpt>
      <trkpt lat="43.41052" lon="1.05619">
        <ele>346.6</ele>
        <time>2024-05-20T07:25:57Z</time>
      </trkpt>
      <trkpt lat="43.41061" lon="1.05615">
        <ele>346.4</ele>
        <time>2024-05-20T07:25:58Z</time>
      </trkpt>
      <trkpt lat="43.4107" lon="1.05611">
        <ele>345.8</ele>
        <time>2024-05-20T07:25:59Z</time>
      </trkpt>
      <trkpt lat="43.41079" lon="1.05607">
        <ele>345.8</ele>
        <time>2024-05-20T07:26:00Z</time>
      </trkpt>
      <trkpt lat="43.41088" lon="1.05603">
        <ele>345.4</ele>
        <time>2024-05-20T07:26:01Z</time>
      </trkpt>
      <trkpt lat="43.41096" lon="1.05599">
        <ele>345.2</ele>
        <time>2024-05-20T07:26:02Z</time>
      </trkpt>
      <trkpt lat="43.41105" lon="1.05595">
        <ele>344.8</ele>
        <time>2024-05-20T07:26:03Z</time>
      </trkpt>
      <trkpt lat="43.41114" lon="1.0559">
        <ele>344.4</ele>
        <time>2024-05-20T07:26:04Z</time>
      </trkpt>
      <trkpt lat="43.41122" lon="1.05587">
        <ele>344.2</ele>
        <time>2024-05-20T07:26:05Z</time>
      </trkpt>
      <trkpt lat="43.41131" lon="1.05583">
        <ele>344.2</ele>
        <time>2024-05-20T07:26:06Z</time>
      </trkpt>
      <trkpt lat="43.41139" lon="1.05578">
        <ele>344</ele>
        <time>2024-05-20T07:26:07Z</time>
      </trkpt>
      <trkpt lat="43.41148" lon="1.05574">
        <ele>343.8</ele>
        <time>2024-05-20T07:26:08Z</time>
      </trkpt>
      <trkpt lat="43.41156" lon="1.05571">
        <ele>343.8</ele>
        <time>2024-05-20T07:26:09Z</time>
      </trkpt>
      <trkpt lat="43.41165" lon="1.05567">
        <ele>343.8</ele>
        <time>2024-05-20T07:26:10Z</time>
      </trkpt>
      <trkpt lat="43.41173" lon="1.05563">
        <ele>343.8</ele>
        <time>2024-05-20T07:26:11Z</time>
      </trkpt>
      <trkpt lat="43.41181" lon="1.05559">
        <ele>343.6</ele>
        <time>2024-05-20T07:26:12Z</time>
      </trkpt>
      <trkpt lat="43.4119" lon="1.05555">
        <ele>343.6</ele>
        <time>2024-05-20T07:26:13Z</time>
      </trkpt>
      <trkpt lat="43.41198" lon="1.05551">
        <ele>343.6</ele>
        <time>2024-05-20T07:26:14Z</time>
      </trkpt>
      <trkpt lat="43.41206" lon="1.05547">
        <ele>343.6</ele>
        <time>2024-05-20T07:26:15Z</time>
      </trkpt>
      <trkpt lat="43.41214" lon="1.05544">
        <ele>343.6</ele>
        <time>2024-05-20T07:26:16Z</time>
      </trkpt>
      <trkpt lat="43.41222" lon="1.05541">
        <ele>343.6</ele>
        <time>2024-05-20T07:26:17Z</time>
      </trkpt>
      <trkpt lat="43.4123" lon="1.05537">
        <ele>343.6</ele>
        <time>2024-05-20T07:26:18Z</time>
      </trkpt>
      <trkpt lat="43.41237" lon="1.05534">
        <ele>343.6</ele>
        <time>2024-05-20T07:26:19Z</time>
      </trkpt>
      <trkpt lat="43.41245" lon="1.05531">
        <ele>343.6</ele>
        <time>2024-05-20T07:26:20Z</time>
      </trkpt>
      <trkpt lat="43.41252" lon="1.05527">
        <ele>343.6</ele>
        <time>2024-05-20T07:26:21Z</time>
      </trkpt>
      <trkpt lat="43.41259" lon="1.05524">
        <ele>343.6</ele>
        <time>2024-05-20T07:26:22Z</time>
      </trkpt>
      <trkpt lat="43.41265" lon="1.05521">
        <ele>343.6</ele>
        <time>2024-05-20T07:26:23Z</time>
      </trkpt>
      <trkpt lat="43.41272" lon="1.05519">
        <ele>343.6</ele>
        <time>2024-05-20T07:26:24Z</time>
      </trkpt>
      <trkpt lat="43.41278" lon="1.05516">
        <ele>343.8</ele>
        <time>2024-05-20T07:26:25Z</time>
      </trkpt>
      <trkpt lat="43.41284" lon="1.05513">
        <ele>344</ele>
        <time>2024-05-20T07:26:26Z</time>
      </trkpt>
      <trkpt lat="43.41289" lon="1.0551">
        <ele>344.2</ele>
        <time>2024-05-20T07:26:27Z</time>
      </trkpt>
      <trkpt lat="43.41295" lon="1.05508">
        <ele>344.6</ele>
        <time>2024-05-20T07:26:28Z</time>
      </trkpt>
      <trkpt lat="43.41301" lon="1.05507">
        <ele>344.8</ele>
        <time>2024-05-20T07:26:29Z</time>
      </trkpt>
      <trkpt lat="43.41306" lon="1.05507">
        <ele>345</ele>
        <time>2024-05-20T07:26:30Z</time>
      </trkpt>
      <trkpt lat="43.4131" lon="1.05511">
        <ele>345.4</ele>
        <time>2024-05-20T07:26:31Z</time>
      </trkpt>
      <trkpt lat="43.41313" lon="1.05517">
        <ele>345.6</ele>
        <time>2024-05-20T07:26:32Z</time>
      </trkpt>
      <trkpt lat="43.41315" lon="1.05522">
        <ele>346.2</ele>
        <time>2024-05-20T07:26:33Z</time>
      </trkpt>
      <trkpt lat="43.41318" lon="1.05531">
        <ele>346.4</ele>
        <time>2024-05-20T07:26:34Z</time>
      </trkpt>
      <trkpt lat="43.4132" lon="1.05539">
        <ele>346.8</ele>
        <time>2024-05-20T07:26:35Z</time>
      </trkpt>
      <trkpt lat="43.41322" lon="1.05547">
        <ele>347</ele>
        <time>2024-05-20T07:26:36Z</time>
      </trkpt>
      <trkpt lat="43.41325" lon="1.05555">
        <ele>347.2</ele>
        <time>2024-05-20T07:26:37Z</time>
      </trkpt>
      <trkpt lat="43.41329" lon="1.05563">
        <ele>347.2</ele>
        <time>2024-05-20T07:26:38Z</time>
      </trkpt>
      <trkpt lat="43.41329" lon="1.05563">
        <ele>347.4</ele>
        <time>2024-05-20T07:26:39Z</time>
      </trkpt>
      <trkpt lat="43.41335" lon="1.05579">
        <ele>347.6</ele>
        <time>2024-05-20T07:26:40Z</time>
      </trkpt>
      <trkpt lat="43.41338" lon="1.05587">
        <ele>347.6</ele>
        <time>2024-05-20T07:26:41Z</time>
      </trkpt>
      <trkpt lat="43.41341" lon="1.05596">
        <ele>347.6</ele>
        <time>2024-05-20T07:26:42Z</time>
      </trkpt>
      <trkpt lat="43.41345" lon="1.05604">
        <ele>347.8</ele>
        <time>2024-05-20T07:26:43Z</time>
      </trkpt>
      <trkpt lat="43.41348" lon="1.05612">
        <ele>347.8</ele>
        <time>2024-05-20T07:26:44Z</time>
      </trkpt>
      <trkpt lat="43.41351" lon="1.05621">
        <ele>347.8</ele>
        <time>2024-05-20T07:26:45Z</time>
      </trkpt>
      <trkpt lat="43.41354" lon="1.0563">
        <ele>347.8</ele>
        <time>2024-05-20T07:26:46Z</time>
      </trkpt>
      <trkpt lat="43.41358" lon="1.05638">
        <ele>348</ele>
        <time>2024-05-20T07:26:47Z</time>
      </trkpt>
      <trkpt lat="43.41361" lon="1.05647">
        <ele>348</ele>
        <time>2024-05-20T07:26:48Z</time>
      </trkpt>
      <trkpt lat="43.41365" lon="1.05656">
        <ele>348</ele>
        <time>2024-05-20T07:26:49Z</time>
      </trkpt>
      <trkpt lat="43.41368" lon="1.05665">
        <ele>348</ele>
        <time>2024-05-20T07:26:50Z</time>
      </trkpt>
      <trkpt lat="43.41372" lon="1.05673">
        <ele>348</ele>
        <time>2024-05-20T07:26:51Z</time>
      </trkpt>
      <trkpt lat="43.41377" lon="1.05682">
        <ele>348</ele>
        <time>2024-05-20T07:26:52Z</time>
      </trkpt>
      <trkpt lat="43.41381" lon="1.05691">
        <ele>347.8</ele>
        <time>2024-05-20T07:26:53Z</time>
      </trkpt>
      <trkpt lat="43.41386" lon="1.057">
        <ele>347.8</ele>
        <time>2024-05-20T07:26:54Z</time>
      </trkpt>
      <trkpt lat="43.41392" lon="1.05709">
        <ele>347.6</ele>
        <time>2024-05-20T07:26:55Z</time>
      </trkpt>
      <trkpt lat="43.41397" lon="1.05717">
        <ele>347.6</ele>
        <time>2024-05-20T07:26:56Z</time>
      </trkpt>
      <trkpt lat="43.41397" lon="1.05717">
        <ele>347.4</ele>
        <time>2024-05-20T07:26:57Z</time>
      </trkpt>
      <trkpt lat="43.41408" lon="1.05735">
        <ele>347.2</ele>
        <time>2024-05-20T07:26:58Z</time>
      </trkpt>
      <trkpt lat="43.41415" lon="1.05744">
        <ele>347</ele>
        <time>2024-05-20T07:26:59Z</time>
      </trkpt>
      <trkpt lat="43.4142" lon="1.05752">
        <ele>346.4</ele>
        <time>2024-05-20T07:27:00Z</time>
      </trkpt>
      <trkpt lat="43.41428" lon="1.05763">
        <ele>346.2</ele>
        <time>2024-05-20T07:27:01Z</time>
      </trkpt>
      <trkpt lat="43.41434" lon="1.05772">
        <ele>346</ele>
        <time>2024-05-20T07:27:02Z</time>
      </trkpt>
      <trkpt lat="43.41441" lon="1.05781">
        <ele>346</ele>
        <time>2024-05-20T07:27:03Z</time>
      </trkpt>
      <trkpt lat="43.41447" lon="1.05791">
        <ele>345.2</ele>
        <time>2024-05-20T07:27:04Z</time>
      </trkpt>
      <trkpt lat="43.41454" lon="1.05801">
        <ele>344.8</ele>
        <time>2024-05-20T07:27:05Z</time>
      </trkpt>
      <trkpt lat="43.4146" lon="1.0581">
        <ele>344.4</ele>
        <time>2024-05-20T07:27:06Z</time>
      </trkpt>
      <trkpt lat="43.41467" lon="1.0582">
        <ele>344</ele>
        <time>2024-05-20T07:27:07Z</time>
      </trkpt>
      <trkpt lat="43.41474" lon="1.05829">
        <ele>343.6</ele>
        <time>2024-05-20T07:27:08Z</time>
      </trkpt>
      <trkpt lat="43.41479" lon="1.05836">
        <ele>343.4</ele>
        <time>2024-05-20T07:27:09Z</time>
      </trkpt>
      <trkpt lat="43.41485" lon="1.05845">
        <ele>343.2</ele>
        <time>2024-05-20T07:27:10Z</time>
      </trkpt>
      <trkpt lat="43.41493" lon="1.05855">
        <ele>343</ele>
        <time>2024-05-20T07:27:11Z</time>
      </trkpt>
      <trkpt lat="43.41499" lon="1.05864">
        <ele>342.8</ele>
        <time>2024-05-20T07:27:12Z</time>
      </trkpt>
      <trkpt lat="43.41504" lon="1.05872">
        <ele>342.6</ele>
        <time>2024-05-20T07:27:13Z</time>
      </trkpt>
      <trkpt lat="43.4151" lon="1.0588">
        <ele>342.6</ele>
        <time>2024-05-20T07:27:14Z</time>
      </trkpt>
      <trkpt lat="43.41514" lon="1.05888">
        <ele>342.4</ele>
        <time>2024-05-20T07:27:15Z</time>
      </trkpt>
      <trkpt lat="43.41519" lon="1.05895">
        <ele>342.4</ele>
        <time>2024-05-20T07:27:16Z</time>
      </trkpt>
      <trkpt lat="43.41524" lon="1.05901">
        <ele>342.4</ele>
        <time>2024-05-20T07:27:17Z</time>
      </trkpt>
      <trkpt lat="43.41529" lon="1.05907">
        <ele>342.4</ele>
        <time>2024-05-20T07:27:18Z</time>
      </trkpt>
      <trkpt lat="43.41533" lon="1.05914">
        <ele>342.4</ele>
        <time>2024-05-20T07:27:19Z</time>
      </trkpt>
      <trkpt lat="43.41537" lon="1.05921">
        <ele>342.4</ele>
        <time>2024-05-20T07:27:20Z</time>
      </trkpt>
      <trkpt lat="43.41542" lon="1.05927">
        <ele>342.4</ele>
        <time>2024-05-20T07:27:21Z</time>
      </trkpt>
      <trkpt lat="43.41546" lon="1.05934">
        <ele>342.6</ele>
        <time>2024-05-20T07:27:22Z</time>
      </trkpt>
      <trkpt lat="43.41551" lon="1.05941">
        <ele>342.6</ele>
        <time>2024-05-20T07:27:23Z</time>
      </trkpt>
      <trkpt lat="43.41555" lon="1.05948">
        <ele>343.2</ele>
        <time>2024-05-20T07:27:24Z</time>
      </trkpt>
      <trkpt lat="43.41558" lon="1.05956">
        <ele>343.6</ele>
        <time>2024-05-20T07:27:25Z</time>
      </trkpt>
      <trkpt lat="43.41563" lon="1.05963">
        <ele>343.6</ele>
        <time>2024-05-20T07:27:26Z</time>
      </trkpt>
      <trkpt lat="43.41566" lon="1.0597">
        <ele>344</ele>
        <time>2024-05-20T07:27:27Z</time>
      </trkpt>
      <trkpt lat="43.4157" lon="1.05978">
        <ele>344</ele>
        <time>2024-05-20T07:27:28Z</time>
      </trkpt>
      <trkpt lat="43.41573" lon="1.05986">
        <ele>344.8</ele>
        <time>2024-05-20T07:27:29Z</time>
      </trkpt>
      <trkpt lat="43.41577" lon="1.05994">
        <ele>345</ele>
        <time>2024-05-20T07:27:30Z</time>
      </trkpt>
      <trkpt lat="43.4158" lon="1.06">
        <ele>345.4</ele>
        <time>2024-05-20T07:27:31Z</time>
      </trkpt>
      <trkpt lat="43.41584" lon="1.06009">
        <ele>345.4</ele>
        <time>2024-05-20T07:27:32Z</time>
      </trkpt>
      <trkpt lat="43.41588" lon="1.06017">
        <ele>346</ele>
        <time>2024-05-20T07:27:33Z</time>
      </trkpt>
      <trkpt lat="43.41592" lon="1.06024">
        <ele>346.6</ele>
        <time>2024-05-20T07:27:34Z</time>
      </trkpt>
      <trkpt lat="43.41595" lon="1.06032">
        <ele>346.6</ele>
        <time>2024-05-20T07:27:35Z</time>
      </trkpt>
      <trkpt lat="43.41598" lon="1.0604">
        <ele>347</ele>
        <time>2024-05-20T07:27:36Z</time>
      </trkpt>
      <trkpt lat="43.41601" lon="1.06048">
        <ele>347.4</ele>
        <time>2024-05-20T07:27:37Z</time>
      </trkpt>
      <trkpt lat="43.41605" lon="1.06056">
        <ele>347.8</ele>
        <time>2024-05-20T07:27:38Z</time>
      </trkpt>
      <trkpt lat="43.41608" lon="1.06063">
        <ele>348.2</ele>
        <time>2024-05-20T07:27:39Z</time>
      </trkpt>
      <trkpt lat="43.41611" lon="1.06071">
        <ele>348.8</ele>
        <time>2024-05-20T07:27:40Z</time>
      </trkpt>
      <trkpt lat="43.41614" lon="1.06079">
        <ele>349.2</ele>
        <time>2024-05-20T07:27:41Z</time>
      </trkpt>
      <trkpt lat="43.41618" lon="1.06087">
        <ele>349.4</ele>
        <time>2024-05-20T07:27:42Z</time>
      </trkpt>
      <trkpt lat="43.41621" lon="1.06094">
        <ele>350.2</ele>
        <time>2024-05-20T07:27:43Z</time>
      </trkpt>
      <trkpt lat="43.41624" lon="1.06102">
        <ele>350.6</ele>
        <time>2024-05-20T07:27:44Z</time>
      </trkpt>
      <trkpt lat="43.41627" lon="1.06109">
        <ele>351.4</ele>
        <time>2024-05-20T07:27:45Z</time>
      </trkpt>
      <trkpt lat="43.41629" lon="1.06117">
        <ele>351.6</ele>
        <time>2024-05-20T07:27:46Z</time>
      </trkpt>
      <trkpt lat="43.41632" lon="1.06124">
        <ele>352.2</ele>
        <time>2024-05-20T07:27:47Z</time>
      </trkpt>
      <trkpt lat="43.41635" lon="1.06132">
        <ele>352.6</ele>
        <time>2024-05-20T07:27:48Z</time>
      </trkpt>
      <trkpt lat="43.41639" lon="1.06139">
        <ele>353</ele>
        <time>2024-05-20T07:27:49Z</time>
      </trkpt>
      <trkpt lat="43.41642" lon="1.06146">
        <ele>353.4</ele>
        <time>2024-05-20T07:27:50Z</time>
      </trkpt>
      <trkpt lat="43.41646" lon="1.06153">
        <ele>353.8</ele>
        <time>2024-05-20T07:27:51Z</time>
      </trkpt>
      <trkpt lat="43.41649" lon="1.0616">
        <ele>354</ele>
        <time>2024-05-20T07:27:52Z</time>
      </trkpt>
      <trkpt lat="43.41654" lon="1.06167">
        <ele>354.2</ele>
        <time>2024-05-20T07:27:53Z</time>
      </trkpt>
      <trkpt lat="43.41658" lon="1.06173">
        <ele>354.8</ele>
        <time>2024-05-20T07:27:54Z</time>
      </trkpt>
      <trkpt lat="43.41663" lon="1.0618">
        <ele>355</ele>
        <time>2024-05-20T07:27:55Z</time>
      </trkpt>
      <trkpt lat="43.41668" lon="1.06186">
        <ele>355.2</ele>
        <time>2024-05-20T07:27:56Z</time>
      </trkpt>
      <trkpt lat="43.41674" lon="1.06192">
        <ele>355.2</ele>
        <time>2024-05-20T07:27:57Z</time>
      </trkpt>
      <trkpt lat="43.4168" lon="1.06198">
        <ele>355.2</ele>
        <time>2024-05-20T07:27:58Z</time>
      </trkpt>
      <trkpt lat="43.41686" lon="1.06202">
        <ele>355.2</ele>
        <time>2024-05-20T07:27:59Z</time>
      </trkpt>
      <trkpt lat="43.41693" lon="1.06206">
        <ele>355.4</ele>
        <time>2024-05-20T07:28:00Z</time>
      </trkpt>
      <trkpt lat="43.41699" lon="1.0621">
        <ele>355.4</ele>
        <time>2024-05-20T07:28:01Z</time>
      </trkpt>
      <trkpt lat="43.41705" lon="1.06213">
        <ele>355.4</ele>
        <time>2024-05-20T07:28:02Z</time>
      </trkpt>
      <trkpt lat="43.41713" lon="1.06217">
        <ele>355.2</ele>
        <time>2024-05-20T07:28:03Z</time>
      </trkpt>
      <trkpt lat="43.4172" lon="1.0622">
        <ele>355.2</ele>
        <time>2024-05-20T07:28:04Z</time>
      </trkpt>
      <trkpt lat="43.41727" lon="1.06221">
        <ele>355.2</ele>
        <time>2024-05-20T07:28:05Z</time>
      </trkpt>
      <trkpt lat="43.41734" lon="1.06222">
        <ele>355.2</ele>
        <time>2024-05-20T07:28:06Z</time>
      </trkpt>
      <trkpt lat="43.41742" lon="1.06223">
        <ele>355</ele>
        <time>2024-05-20T07:28:07Z</time>
      </trkpt>
      <trkpt lat="43.41749" lon="1.06223">
        <ele>355</ele>
        <time>2024-05-20T07:28:08Z</time>
      </trkpt>
      <trkpt lat="43.41757" lon="1.06223">
        <ele>354.6</ele>
        <time>2024-05-20T07:28:09Z</time>
      </trkpt>
      <trkpt lat="43.41764" lon="1.06222">
        <ele>354.4</ele>
        <time>2024-05-20T07:28:10Z</time>
      </trkpt>
      <trkpt lat="43.41772" lon="1.06222">
        <ele>354.2</ele>
        <time>2024-05-20T07:28:11Z</time>
      </trkpt>
      <trkpt lat="43.4178" lon="1.06221">
        <ele>354</ele>
        <time>2024-05-20T07:28:12Z</time>
      </trkpt>
      <trkpt lat="43.41788" lon="1.06221">
        <ele>354</ele>
        <time>2024-05-20T07:28:13Z</time>
      </trkpt>
      <trkpt lat="43.41796" lon="1.0622">
        <ele>353.8</ele>
        <time>2024-05-20T07:28:14Z</time>
      </trkpt>
      <trkpt lat="43.41804" lon="1.0622">
        <ele>353.6</ele>
        <time>2024-05-20T07:28:15Z</time>
      </trkpt>
      <trkpt lat="43.41812" lon="1.06221">
        <ele>353.4</ele>
        <time>2024-05-20T07:28:16Z</time>
      </trkpt>
      <trkpt lat="43.41819" lon="1.06221">
        <ele>353.4</ele>
        <time>2024-05-20T07:28:17Z</time>
      </trkpt>
      <trkpt lat="43.41827" lon="1.0622">
        <ele>353.2</ele>
        <time>2024-05-20T07:28:18Z</time>
      </trkpt>
      <trkpt lat="43.41835" lon="1.0622">
        <ele>353.2</ele>
        <time>2024-05-20T07:28:19Z</time>
      </trkpt>
      <trkpt lat="43.41843" lon="1.0622">
        <ele>353.2</ele>
        <time>2024-05-20T07:28:20Z</time>
      </trkpt>
      <trkpt lat="43.4185" lon="1.06221">
        <ele>353.2</ele>
        <time>2024-05-20T07:28:21Z</time>
      </trkpt>
      <trkpt lat="43.41858" lon="1.06221">
        <ele>353.2</ele>
        <time>2024-05-20T07:28:22Z</time>
      </trkpt>
      <trkpt lat="43.41865" lon="1.06221">
        <ele>353</ele>
        <time>2024-05-20T07:28:23Z</time>
      </trkpt>
      <trkpt lat="43.41872" lon="1.06221">
        <ele>353</ele>
        <time>2024-05-20T07:28:24Z</time>
      </trkpt>
      <trkpt lat="43.41879" lon="1.06222">
        <ele>352.8</ele>
        <time>2024-05-20T07:28:25Z</time>
      </trkpt>
      <trkpt lat="43.41885" lon="1.06222">
        <ele>352.6</ele>
        <time>2024-05-20T07:28:26Z</time>
      </trkpt>
      <trkpt lat="43.41891" lon="1.06221">
        <ele>352.4</ele>
        <time>2024-05-20T07:28:27Z</time>
      </trkpt>
      <trkpt lat="43.41897" lon="1.06221">
        <ele>352</ele>
        <time>2024-05-20T07:28:28Z</time>
      </trkpt>
      <trkpt lat="43.41904" lon="1.06221">
        <ele>352</ele>
        <time>2024-05-20T07:28:29Z</time>
      </trkpt>
      <trkpt lat="43.41911" lon="1.06221">
        <ele>351.8</ele>
        <time>2024-05-20T07:28:30Z</time>
      </trkpt>
      <trkpt lat="43.41918" lon="1.06221">
        <ele>351.8</ele>
        <time>2024-05-20T07:28:31Z</time>
      </trkpt>
      <trkpt lat="43.41925" lon="1.06221">
        <ele>351.6</ele>
        <time>2024-05-20T07:28:32Z</time>
      </trkpt>
      <trkpt lat="43.41932" lon="1.06221">
        <ele>351.4</ele>
        <time>2024-05-20T07:28:33Z</time>
      </trkpt>
      <trkpt lat="43.4194" lon="1.06221">
        <ele>351.2</ele>
        <time>2024-05-20T07:28:34Z</time>
      </trkpt>
      <trkpt lat="43.41947" lon="1.06221">
        <ele>351</ele>
        <time>2024-05-20T07:28:35Z</time>
      </trkpt>
      <trkpt lat="43.41955" lon="1.06222">
        <ele>350.6</ele>
        <time>2024-05-20T07:28:36Z</time>
      </trkpt>
      <trkpt lat="43.41963" lon="1.06222">
        <ele>350.4</ele>
        <time>2024-05-20T07:28:37Z</time>
      </trkpt>
      <trkpt lat="43.4197" lon="1.06222">
        <ele>350.2</ele>
        <time>2024-05-20T07:28:38Z</time>
      </trkpt>
      <trkpt lat="43.41979" lon="1.06221">
        <ele>349.8</ele>
        <time>2024-05-20T07:28:39Z</time>
      </trkpt>
      <trkpt lat="43.41984" lon="1.0622">
        <ele>349.8</ele>
        <time>2024-05-20T07:28:40Z</time>
      </trkpt>
      <trkpt lat="43.41992" lon="1.06219">
        <ele>349.4</ele>
        <time>2024-05-20T07:28:41Z</time>
      </trkpt>
      <trkpt lat="43.41999" lon="1.06218">
        <ele>349.4</ele>
        <time>2024-05-20T07:28:42Z</time>
      </trkpt>
      <trkpt lat="43.42005" lon="1.06216">
        <ele>349.2</ele>
        <time>2024-05-20T07:28:43Z</time>
      </trkpt>
      <trkpt lat="43.4201" lon="1.06215">
        <ele>349.2</ele>
        <time>2024-05-20T07:28:44Z</time>
      </trkpt>
      <trkpt lat="43.42015" lon="1.06213">
        <ele>349.2</ele>
        <time>2024-05-20T07:28:45Z</time>
      </trkpt>
      <trkpt lat="43.42021" lon="1.06212">
        <ele>349.2</ele>
        <time>2024-05-20T07:28:46Z</time>
      </trkpt>
      <trkpt lat="43.42026" lon="1.06211">
        <ele>349.2</ele>
        <time>2024-05-20T07:28:47Z</time>
      </trkpt>
      <trkpt lat="43.42031" lon="1.06209">
        <ele>349.2</ele>
        <time>2024-05-20T07:28:48Z</time>
      </trkpt>
      <trkpt lat="43.42037" lon="1.06207">
        <ele>349.2</ele>
        <time>2024-05-20T07:28:49Z</time>
      </trkpt>
      <trkpt lat="43.42042" lon="1.06206">
        <ele>349.4</ele>
        <time>2024-05-20T07:28:50Z</time>
      </trkpt>
      <trkpt lat="43.42049" lon="1.06204">
        <ele>349.4</ele>
        <time>2024-05-20T07:28:51Z</time>
      </trkpt>
      <trkpt lat="43.42055" lon="1.06201">
        <ele>349.4</ele>
        <time>2024-05-20T07:28:52Z</time>
      </trkpt>
      <trkpt lat="43.42062" lon="1.06199">
        <ele>349.4</ele>
        <time>2024-05-20T07:28:53Z</time>
      </trkpt>
      <trkpt lat="43.42069" lon="1.06197">
        <ele>349.6</ele>
        <time>2024-05-20T07:28:54Z</time>
      </trkpt>
      <trkpt lat="43.42076" lon="1.06195">
        <ele>349.6</ele>
        <time>2024-05-20T07:28:55Z</time>
      </trkpt>
      <trkpt lat="43.42083" lon="1.06192">
        <ele>349.6</ele>
        <time>2024-05-20T07:28:56Z</time>
      </trkpt>
      <trkpt lat="43.42092" lon="1.0619">
        <ele>349.4</ele>
        <time>2024-05-20T07:28:57Z</time>
      </trkpt>
      <trkpt lat="43.421" lon="1.06189">
        <ele>349.4</ele>
        <time>2024-05-20T07:28:58Z</time>
      </trkpt>
      <trkpt lat="43.4211" lon="1.06188">
        <ele>349</ele>
        <time>2024-05-20T07:28:59Z</time>
      </trkpt>
      <trkpt lat="43.42119" lon="1.06187">
        <ele>348.8</ele>
        <time>2024-05-20T07:29:00Z</time>
      </trkpt>
      <trkpt lat="43.42129" lon="1.06187">
        <ele>348.2</ele>
        <time>2024-05-20T07:29:01Z</time>
      </trkpt>
      <trkpt lat="43.42139" lon="1.06187">
        <ele>348</ele>
        <time>2024-05-20T07:29:02Z</time>
      </trkpt>
      <trkpt lat="43.42149" lon="1.06188">
        <ele>347</ele>
        <time>2024-05-20T07:29:03Z</time>
      </trkpt>
      <trkpt lat="43.42159" lon="1.06188">
        <ele>346.4</ele>
        <time>2024-05-20T07:29:04Z</time>
      </trkpt>
      <trkpt lat="43.42169" lon="1.0619">
        <ele>346.2</ele>
        <time>2024-05-20T07:29:05Z</time>
      </trkpt>
      <trkpt lat="43.42179" lon="1.06191">
        <ele>345.6</ele>
        <time>2024-05-20T07:29:06Z</time>
      </trkpt>
      <trkpt lat="43.42189" lon="1.06193">
        <ele>344.8</ele>
        <time>2024-05-20T07:29:07Z</time>
      </trkpt>
      <trkpt lat="43.42199" lon="1.06195">
        <ele>344</ele>
        <time>2024-05-20T07:29:08Z</time>
      </trkpt>
      <trkpt lat="43.4221" lon="1.06197">
        <ele>343.8</ele>
        <time>2024-05-20T07:29:09Z</time>
      </trkpt>
      <trkpt lat="43.4222" lon="1.06199">
        <ele>342.8</ele>
        <time>2024-05-20T07:29:10Z</time>
      </trkpt>
      <trkpt lat="43.4223" lon="1.062">
        <ele>342.4</ele>
        <time>2024-05-20T07:29:11Z</time>
      </trkpt>
      <trkpt lat="43.4224" lon="1.06201">
        <ele>341.6</ele>
        <time>2024-05-20T07:29:12Z</time>
      </trkpt>
      <trkpt lat="43.4225" lon="1.06201">
        <ele>341</ele>
        <time>2024-05-20T07:29:13Z</time>
      </trkpt>
      <trkpt lat="43.4226" lon="1.062">
        <ele>340.6</ele>
        <time>2024-05-20T07:29:14Z</time>
      </trkpt>
      <trkpt lat="43.4227" lon="1.06199">
        <ele>340.4</ele>
        <time>2024-05-20T07:29:15Z</time>
      </trkpt>
      <trkpt lat="43.4228" lon="1.06197">
        <ele>340.2</ele>
        <time>2024-05-20T07:29:16Z</time>
      </trkpt>
      <trkpt lat="43.4229" lon="1.06194">
        <ele>340</ele>
        <time>2024-05-20T07:29:17Z</time>
      </trkpt>
      <trkpt lat="43.423" lon="1.06191">
        <ele>339.6</ele>
        <time>2024-05-20T07:29:18Z</time>
      </trkpt>
      <trkpt lat="43.42309" lon="1.06187">
        <ele>339</ele>
        <time>2024-05-20T07:29:19Z</time>
      </trkpt>
      <trkpt lat="43.42319" lon="1.06184">
        <ele>338.8</ele>
        <time>2024-05-20T07:29:20Z</time>
      </trkpt>
      <trkpt lat="43.42329" lon="1.0618">
        <ele>338.4</ele>
        <time>2024-05-20T07:29:21Z</time>
      </trkpt>
      <trkpt lat="43.42339" lon="1.06177">
        <ele>338.2</ele>
        <time>2024-05-20T07:29:22Z</time>
      </trkpt>
      <trkpt lat="43.42348" lon="1.06174">
        <ele>337.6</ele>
        <time>2024-05-20T07:29:23Z</time>
      </trkpt>
      <trkpt lat="43.42358" lon="1.06171">
        <ele>336.6</ele>
        <time>2024-05-20T07:29:24Z</time>
      </trkpt>
      <trkpt lat="43.42368" lon="1.06167">
        <ele>336.4</ele>
        <time>2024-05-20T07:29:25Z</time>
      </trkpt>
      <trkpt lat="43.42378" lon="1.06163">
        <ele>335.8</ele>
        <time>2024-05-20T07:29:26Z</time>
      </trkpt>
      <trkpt lat="43.42388" lon="1.06159">
        <ele>335.6</ele>
        <time>2024-05-20T07:29:27Z</time>
      </trkpt>
      <trkpt lat="43.42397" lon="1.06156">
        <ele>335.2</ele>
        <time>2024-05-20T07:29:28Z</time>
      </trkpt>
      <trkpt lat="43.42407" lon="1.06152">
        <ele>334.8</ele>
        <time>2024-05-20T07:29:29Z</time>
      </trkpt>
      <trkpt lat="43.42416" lon="1.06149">
        <ele>334.4</ele>
        <time>2024-05-20T07:29:30Z</time>
      </trkpt>
      <trkpt lat="43.42428" lon="1.06145">
        <ele>334</ele>
        <time>2024-05-20T07:29:31Z</time>
      </trkpt>
      <trkpt lat="43.42436" lon="1.06142">
        <ele>333.6</ele>
        <time>2024-05-20T07:29:32Z</time>
      </trkpt>
      <trkpt lat="43.42447" lon="1.0614">
        <ele>332.8</ele>
        <time>2024-05-20T07:29:33Z</time>
      </trkpt>
      <trkpt lat="43.42458" lon="1.06137">
        <ele>332.6</ele>
        <time>2024-05-20T07:29:34Z</time>
      </trkpt>
      <trkpt lat="43.42469" lon="1.06135">
        <ele>332.2</ele>
        <time>2024-05-20T07:29:35Z</time>
      </trkpt>
      <trkpt lat="43.4248" lon="1.06133">
        <ele>331.8</ele>
        <time>2024-05-20T07:29:36Z</time>
      </trkpt>
      <trkpt lat="43.42492" lon="1.06131">
        <ele>330.6</ele>
        <time>2024-05-20T07:29:37Z</time>
      </trkpt>
      <trkpt lat="43.42504" lon="1.0613">
        <ele>330.2</ele>
        <time>2024-05-20T07:29:38Z</time>
      </trkpt>
      <trkpt lat="43.42515" lon="1.06128">
        <ele>329.4</ele>
        <time>2024-05-20T07:29:39Z</time>
      </trkpt>
      <trkpt lat="43.42526" lon="1.06127">
        <ele>329</ele>
        <time>2024-05-20T07:29:40Z</time>
      </trkpt>
      <trkpt lat="43.42539" lon="1.06127">
        <ele>327.8</ele>
        <time>2024-05-20T07:29:41Z</time>
      </trkpt>
      <trkpt lat="43.42551" lon="1.06127">
        <ele>326.6</ele>
        <time>2024-05-20T07:29:42Z</time>
      </trkpt>
      <trkpt lat="43.42563" lon="1.06128">
        <ele>326.4</ele>
        <time>2024-05-20T07:29:43Z</time>
      </trkpt>
      <trkpt lat="43.42576" lon="1.0613">
        <ele>325.4</ele>
        <time>2024-05-20T07:29:44Z</time>
      </trkpt>
      <trkpt lat="43.42589" lon="1.06132">
        <ele>324.6</ele>
        <time>2024-05-20T07:29:45Z</time>
      </trkpt>
      <trkpt lat="43.42601" lon="1.06135">
        <ele>323.6</ele>
        <time>2024-05-20T07:29:46Z</time>
      </trkpt>
      <trkpt lat="43.42614" lon="1.06138">
        <ele>323.4</ele>
        <time>2024-05-20T07:29:47Z</time>
      </trkpt>
      <trkpt lat="43.42627" lon="1.06142">
        <ele>321.6</ele>
        <time>2024-05-20T07:29:48Z</time>
      </trkpt>
      <trkpt lat="43.42639" lon="1.06146">
        <ele>320.6</ele>
        <time>2024-05-20T07:29:49Z</time>
      </trkpt>
      <trkpt lat="43.4265" lon="1.0615">
        <ele>318.8</ele>
        <time>2024-05-20T07:29:50Z</time>
      </trkpt>
      <trkpt lat="43.4266" lon="1.06156">
        <ele>317.4</ele>
        <time>2024-05-20T07:29:51Z</time>
      </trkpt>
      <trkpt lat="43.4267" lon="1.06164">
        <ele>316.8</ele>
        <time>2024-05-20T07:29:52Z</time>
      </trkpt>
      <trkpt lat="43.42679" lon="1.06173">
        <ele>315.8</ele>
        <time>2024-05-20T07:29:53Z</time>
      </trkpt>
      <trkpt lat="43.42688" lon="1.06184">
        <ele>315.2</ele>
        <time>2024-05-20T07:29:54Z</time>
      </trkpt>
      <trkpt lat="43.42696" lon="1.06196">
        <ele>313.8</ele>
        <time>2024-05-20T07:29:55Z</time>
      </trkpt>
      <trkpt lat="43.42705" lon="1.06208">
        <ele>313.4</ele>
        <time>2024-05-20T07:29:56Z</time>
      </trkpt>
      <trkpt lat="43.42713" lon="1.0622">
        <ele>312.2</ele>
        <time>2024-05-20T07:29:57Z</time>
      </trkpt>
      <trkpt lat="43.42722" lon="1.06233">
        <ele>311.8</ele>
        <time>2024-05-20T07:29:58Z</time>
      </trkpt>
      <trkpt lat="43.4273" lon="1.06247">
        <ele>310.8</ele>
        <time>2024-05-20T07:29:59Z</time>
      </trkpt>
      <trkpt lat="43.42737" lon="1.06261">
        <ele>309.6</ele>
        <time>2024-05-20T07:30:00Z</time>
      </trkpt>
      <trkpt lat="43.42744" lon="1.06275">
        <ele>309.2</ele>
        <time>2024-05-20T07:30:01Z</time>
      </trkpt>
      <trkpt lat="43.42752" lon="1.06288">
        <ele>308.4</ele>
        <time>2024-05-20T07:30:02Z</time>
      </trkpt>
      <trkpt lat="43.42759" lon="1.06302">
        <ele>307.8</ele>
        <time>2024-05-20T07:30:03Z</time>
      </trkpt>
      <trkpt lat="43.42766" lon="1.06316">
        <ele>306.8</ele>
        <time>2024-05-20T07:30:04Z</time>
      </trkpt>
      <trkpt lat="43.42772" lon="1.06331">
        <ele>306.6</ele>
        <time>2024-05-20T07:30:05Z</time>
      </trkpt>
      <trkpt lat="43.42778" lon="1.06346">
        <ele>305.8</ele>
        <time>2024-05-20T07:30:06Z</time>
      </trkpt>
      <trkpt lat="43.42784" lon="1.0636">
        <ele>305.4</ele>
        <time>2024-05-20T07:30:07Z</time>
      </trkpt>
      <trkpt lat="43.42789" lon="1.06375">
        <ele>304.2</ele>
        <time>2024-05-20T07:30:08Z</time>
      </trkpt>
      <trkpt lat="43.42795" lon="1.06395">
        <ele>302.8</ele>
        <time>2024-05-20T07:30:09Z</time>
      </trkpt>
      <trkpt lat="43.428" lon="1.06411">
        <ele>302.4</ele>
        <time>2024-05-20T07:30:10Z</time>
      </trkpt>
      <trkpt lat="43.42803" lon="1.06424">
        <ele>301</ele>
        <time>2024-05-20T07:30:11Z</time>
      </trkpt>
      <trkpt lat="43.42808" lon="1.06439">
        <ele>300.4</ele>
        <time>2024-05-20T07:30:12Z</time>
      </trkpt>
      <trkpt lat="43.42813" lon="1.06459">
        <ele>300</ele>
        <time>2024-05-20T07:30:13Z</time>
      </trkpt>
      <trkpt lat="43.42816" lon="1.06471">
        <ele>299.6</ele>
        <time>2024-05-20T07:30:14Z</time>
      </trkpt>
      <trkpt lat="43.4282" lon="1.06486">
        <ele>299</ele>
        <time>2024-05-20T07:30:15Z</time>
      </trkpt>
      <trkpt lat="43.42824" lon="1.06501">
        <ele>298.8</ele>
        <time>2024-05-20T07:30:16Z</time>
      </trkpt>
      <trkpt lat="43.42828" lon="1.06514">
        <ele>298.2</ele>
        <time>2024-05-20T07:30:17Z</time>
      </trkpt>
      <trkpt lat="43.42832" lon="1.06525">
        <ele>297.6</ele>
        <time>2024-05-20T07:30:18Z</time>
      </trkpt>
      <trkpt lat="43.42835" lon="1.06536">
        <ele>297.2</ele>
        <time>2024-05-20T07:30:19Z</time>
      </trkpt>
      <trkpt lat="43.42839" lon="1.06546">
        <ele>296.4</ele>
        <time>2024-05-20T07:30:20Z</time>
      </trkpt>
      <trkpt lat="43.42842" lon="1.06556">
        <ele>296.2</ele>
        <time>2024-05-20T07:30:21Z</time>
      </trkpt>
      <trkpt lat="43.42844" lon="1.06565">
        <ele>295.6</ele>
        <time>2024-05-20T07:30:22Z</time>
      </trkpt>
      <trkpt lat="43.42845" lon="1.06573">
        <ele>295.6</ele>
        <time>2024-05-20T07:30:23Z</time>
      </trkpt>
      <trkpt lat="43.42847" lon="1.06579">
        <ele>295.4</ele>
        <time>2024-05-20T07:30:24Z</time>
      </trkpt>
      <trkpt lat="43.42848" lon="1.06583">
        <ele>295.4</ele>
        <time>2024-05-20T07:30:25Z</time>
      </trkpt>
      <trkpt lat="43.42849" lon="1.06586">
        <ele>295.4</ele>
        <time>2024-05-20T07:30:26Z</time>
      </trkpt>
      <trkpt lat="43.4285" lon="1.06589">
        <ele>295.4</ele>
        <time>2024-05-20T07:30:27Z</time>
      </trkpt>
      <trkpt lat="43.42851" lon="1.0659">
        <ele>295.2</ele>
        <time>2024-05-20T07:30:28Z</time>
      </trkpt>
      <trkpt lat="43.42851" lon="1.0659">
        <ele>295.2</ele>
        <time>2024-05-20T07:30:29Z</time>
      </trkpt>
      <trkpt lat="43.42851" lon="1.0659">
        <ele>295</ele>
        <time>2024-05-20T07:30:30Z</time>
      </trkpt>
      <trkpt lat="43.42851" lon="1.0659">
        <ele>295</ele>
        <time>2024-05-20T07:30:31Z</time>
      </trkpt>
      <trkpt lat="43.42858" lon="1.06586">
        <ele>295</ele>
        <time>2024-05-20T07:30:38Z</time>
      </trkpt>
      <trkpt lat="43.4286" lon="1.06582">
        <ele>295</ele>
        <time>2024-05-20T07:30:39Z</time>
      </trkpt>
      <trkpt lat="43.42862" lon="1.06579">
        <ele>294.8</ele>
        <time>2024-05-20T07:30:40Z</time>
      </trkpt>
      <trkpt lat="43.42865" lon="1.06575">
        <ele>294.8</ele>
        <time>2024-05-20T07:30:41Z</time>
      </trkpt>
      <trkpt lat="43.42868" lon="1.06571">
        <ele>294.8</ele>
        <time>2024-05-20T07:30:42Z</time>
      </trkpt>
      <trkpt lat="43.4287" lon="1.06567">
        <ele>294.8</ele>
        <time>2024-05-20T07:30:43Z</time>
      </trkpt>
      <trkpt lat="43.42873" lon="1.06563">
        <ele>294.6</ele>
        <time>2024-05-20T07:30:44Z</time>
      </trkpt>
      <trkpt lat="43.42876" lon="1.06558">
        <ele>294.6</ele>
        <time>2024-05-20T07:30:45Z</time>
      </trkpt>
      <trkpt lat="43.4288" lon="1.06553">
        <ele>294.6</ele>
        <time>2024-05-20T07:30:46Z</time>
      </trkpt>
      <trkpt lat="43.42883" lon="1.06547">
        <ele>294.6</ele>
        <time>2024-05-20T07:30:47Z</time>
      </trkpt>
      <trkpt lat="43.42887" lon="1.06542">
        <ele>294.6</ele>
        <time>2024-05-20T07:30:48Z</time>
      </trkpt>
      <trkpt lat="43.42891" lon="1.06536">
        <ele>294.6</ele>
        <time>2024-05-20T07:30:49Z</time>
      </trkpt>
      <trkpt lat="43.42895" lon="1.0653">
        <ele>294.4</ele>
        <time>2024-05-20T07:30:50Z</time>
      </trkpt>
      <trkpt lat="43.42899" lon="1.06524">
        <ele>294.4</ele>
        <time>2024-05-20T07:30:51Z</time>
      </trkpt>
      <trkpt lat="43.42903" lon="1.06517">
        <ele>294.4</ele>
        <time>2024-05-20T07:30:52Z</time>
      </trkpt>
      <trkpt lat="43.42907" lon="1.06511">
        <ele>294.2</ele>
        <time>2024-05-20T07:30:53Z</time>
      </trkpt>
      <trkpt lat="43.42912" lon="1.06505">
        <ele>294</ele>
        <time>2024-05-20T07:30:54Z</time>
      </trkpt>
      <trkpt lat="43.42917" lon="1.06498">
        <ele>294</ele>
        <time>2024-05-20T07:30:55Z</time>
      </trkpt>
      <trkpt lat="43.42922" lon="1.06491">
        <ele>293.8</ele>
        <time>2024-05-20T07:30:56Z</time>
      </trkpt>
      <trkpt lat="43.42926" lon="1.06484">
        <ele>293.8</ele>
        <time>2024-05-20T07:30:57Z</time>
      </trkpt>
      <trkpt lat="43.42931" lon="1.06477">
        <ele>293.8</ele>
        <time>2024-05-20T07:30:58Z</time>
      </trkpt>
      <trkpt lat="43.42936" lon="1.06469">
        <ele>293.6</ele>
        <time>2024-05-20T07:30:59Z</time>
      </trkpt>
      <trkpt lat="43.42941" lon="1.06461">
        <ele>293.6</ele>
        <time>2024-05-20T07:31:00Z</time>
      </trkpt>
      <trkpt lat="43.42945" lon="1.06454">
        <ele>293.4</ele>
        <time>2024-05-20T07:31:01Z</time>
      </trkpt>
      <trkpt lat="43.4295" lon="1.06446">
        <ele>293.2</ele>
        <time>2024-05-20T07:31:02Z</time>
      </trkpt>
      <trkpt lat="43.42955" lon="1.06438">
        <ele>293.2</ele>
        <time>2024-05-20T07:31:03Z</time>
      </trkpt>
      <trkpt lat="43.4296" lon="1.0643">
        <ele>293.2</ele>
        <time>2024-05-20T07:31:04Z</time>
      </trkpt>
      <trkpt lat="43.42965" lon="1.06422">
        <ele>293</ele>
        <time>2024-05-20T07:31:05Z</time>
      </trkpt>
      <trkpt lat="43.4297" lon="1.06414">
        <ele>293</ele>
        <time>2024-05-20T07:31:06Z</time>
      </trkpt>
      <trkpt lat="43.42975" lon="1.06405">
        <ele>293</ele>
        <time>2024-05-20T07:31:07Z</time>
      </trkpt>
      <trkpt lat="43.42981" lon="1.06398">
        <ele>293</ele>
        <time>2024-05-20T07:31:08Z</time>
      </trkpt>
      <trkpt lat="43.42986" lon="1.0639">
        <ele>293</ele>
        <time>2024-05-20T07:31:09Z</time>
      </trkpt>
      <trkpt lat="43.42991" lon="1.06382">
        <ele>293</ele>
        <time>2024-05-20T07:31:10Z</time>
      </trkpt>
      <trkpt lat="43.42997" lon="1.06373">
        <ele>293</ele>
        <time>2024-05-20T07:31:11Z</time>
      </trkpt>
      <trkpt lat="43.43002" lon="1.06365">
        <ele>293</ele>
        <time>2024-05-20T07:31:12Z</time>
      </trkpt>
      <trkpt lat="43.43008" lon="1.06358">
        <ele>293</ele>
        <time>2024-05-20T07:31:13Z</time>
      </trkpt>
      <trkpt lat="43.43013" lon="1.06349">
        <ele>293.2</ele>
        <time>2024-05-20T07:31:14Z</time>
      </trkpt>
      <trkpt lat="43.43018" lon="1.06342">
        <ele>293.4</ele>
        <time>2024-05-20T07:31:15Z</time>
      </trkpt>
      <trkpt lat="43.43023" lon="1.06334">
        <ele>293.6</ele>
        <time>2024-05-20T07:31:16Z</time>
      </trkpt>
      <trkpt lat="43.43028" lon="1.06327">
        <ele>293.6</ele>
        <time>2024-05-20T07:31:17Z</time>
      </trkpt>
      <trkpt lat="43.43033" lon="1.0632">
        <ele>293.8</ele>
        <time>2024-05-20T07:31:18Z</time>
      </trkpt>
      <trkpt lat="43.43038" lon="1.06312">
        <ele>293.8</ele>
        <time>2024-05-20T07:31:19Z</time>
      </trkpt>
      <trkpt lat="43.43042" lon="1.06305">
        <ele>294</ele>
        <time>2024-05-20T07:31:20Z</time>
      </trkpt>
      <trkpt lat="43.43046" lon="1.06299">
        <ele>294.2</ele>
        <time>2024-05-20T07:31:21Z</time>
      </trkpt>
      <trkpt lat="43.43051" lon="1.06292">
        <ele>294.4</ele>
        <time>2024-05-20T07:31:22Z</time>
      </trkpt>
      <trkpt lat="43.43055" lon="1.06286">
        <ele>294.6</ele>
        <time>2024-05-20T07:31:23Z</time>
      </trkpt>
      <trkpt lat="43.43059" lon="1.06279">
        <ele>294.8</ele>
        <time>2024-05-20T07:31:24Z</time>
      </trkpt>
      <trkpt lat="43.43064" lon="1.06273">
        <ele>295.2</ele>
        <time>2024-05-20T07:31:25Z</time>
      </trkpt>
      <trkpt lat="43.43068" lon="1.06266">
        <ele>295.4</ele>
        <time>2024-05-20T07:31:26Z</time>
      </trkpt>
      <trkpt lat="43.43073" lon="1.0626">
        <ele>295.6</ele>
        <time>2024-05-20T07:31:27Z</time>
      </trkpt>
      <trkpt lat="43.43077" lon="1.06253">
        <ele>295.8</ele>
        <time>2024-05-20T07:31:28Z</time>
      </trkpt>
      <trkpt lat="43.43081" lon="1.06246">
        <ele>296.2</ele>
        <time>2024-05-20T07:31:29Z</time>
      </trkpt>
      <trkpt lat="43.43085" lon="1.0624">
        <ele>296.2</ele>
        <time>2024-05-20T07:31:30Z</time>
      </trkpt>
      <trkpt lat="43.43089" lon="1.06234">
        <ele>296.4</ele>
        <time>2024-05-20T07:31:31Z</time>
      </trkpt>
      <trkpt lat="43.43094" lon="1.06227">
        <ele>296.4</ele>
        <time>2024-05-20T07:31:32Z</time>
      </trkpt>
      <trkpt lat="43.43098" lon="1.06221">
        <ele>296.4</ele>
        <time>2024-05-20T07:31:33Z</time>
      </trkpt>
      <trkpt lat="43.43102" lon="1.06215">
        <ele>296.6</ele>
        <time>2024-05-20T07:31:34Z</time>
      </trkpt>
      <trkpt lat="43.43107" lon="1.06209">
        <ele>296.8</ele>
        <time>2024-05-20T07:31:35Z</time>
      </trkpt>
      <trkpt lat="43.4311" lon="1.06203">
        <ele>297</ele>
        <time>2024-05-20T07:31:36Z</time>
      </trkpt>
      <trkpt lat="43.43114" lon="1.06197">
        <ele>297.2</ele>
        <time>2024-05-20T07:31:37Z</time>
      </trkpt>
      <trkpt lat="43.43118" lon="1.06191">
        <ele>297.4</ele>
        <time>2024-05-20T07:31:38Z</time>
      </trkpt>
      <trkpt lat="43.43122" lon="1.06185">
        <ele>297.6</ele>
        <time>2024-05-20T07:31:39Z</time>
      </trkpt>
      <trkpt lat="43.43126" lon="1.0618">
        <ele>297.8</ele>
        <time>2024-05-20T07:31:40Z</time>
      </trkpt>
      <trkpt lat="43.4313" lon="1.06174">
        <ele>298</ele>
        <time>2024-05-20T07:31:41Z</time>
      </trkpt>
      <trkpt lat="43.43133" lon="1.06169">
        <ele>298</ele>
        <time>2024-05-20T07:31:42Z</time>
      </trkpt>
      <trkpt lat="43.43138" lon="1.06162">
        <ele>298.2</ele>
        <time>2024-05-20T07:31:43Z</time>
      </trkpt>
      <trkpt lat="43.43142" lon="1.06157">
        <ele>298.2</ele>
        <time>2024-05-20T07:31:44Z</time>
      </trkpt>
      <trkpt lat="43.43146" lon="1.0615">
        <ele>298.4</ele>
        <time>2024-05-20T07:31:45Z</time>
      </trkpt>
      <trkpt lat="43.4315" lon="1.06145">
        <ele>298.4</ele>
        <time>2024-05-20T07:31:46Z</time>
      </trkpt>
      <trkpt lat="43.43154" lon="1.06139">
        <ele>298.8</ele>
        <time>2024-05-20T07:31:47Z</time>
      </trkpt>
      <trkpt lat="43.43159" lon="1.06133">
        <ele>299</ele>
        <time>2024-05-20T07:31:48Z</time>
      </trkpt>
      <trkpt lat="43.43163" lon="1.06128">
        <ele>299.2</ele>
        <time>2024-05-20T07:31:49Z</time>
      </trkpt>
      <trkpt lat="43.43168" lon="1.06123">
        <ele>299.4</ele>
        <time>2024-05-20T07:31:50Z</time>
      </trkpt>
      <trkpt lat="43.43173" lon="1.06118">
        <ele>299.6</ele>
        <time>2024-05-20T07:31:51Z</time>
      </trkpt>
      <trkpt lat="43.43178" lon="1.06113">
        <ele>299.8</ele>
        <time>2024-05-20T07:31:52Z</time>
      </trkpt>
      <trkpt lat="43.43183" lon="1.06108">
        <ele>299.8</ele>
        <time>2024-05-20T07:31:53Z</time>
      </trkpt>
      <trkpt lat="43.43188" lon="1.06103">
        <ele>300</ele>
        <time>2024-05-20T07:31:54Z</time>
      </trkpt>
      <trkpt lat="43.43193" lon="1.06098">
        <ele>300.2</ele>
        <time>2024-05-20T07:31:55Z</time>
      </trkpt>
      <trkpt lat="43.43198" lon="1.06094">
        <ele>300.2</ele>
        <time>2024-05-20T07:31:56Z</time>
      </trkpt>
      <trkpt lat="43.43203" lon="1.06089">
        <ele>300.4</ele>
        <time>2024-05-20T07:31:57Z</time>
      </trkpt>
      <trkpt lat="43.43208" lon="1.06085">
        <ele>300.4</ele>
        <time>2024-05-20T07:31:58Z</time>
      </trkpt>
      <trkpt lat="43.43213" lon="1.06081">
        <ele>300.6</ele>
        <time>2024-05-20T07:31:59Z</time>
      </trkpt>
      <trkpt lat="43.43218" lon="1.06077">
        <ele>300.6</ele>
        <time>2024-05-20T07:32:00Z</time>
      </trkpt>
      <trkpt lat="43.43222" lon="1.06074">
        <ele>300.6</ele>
        <time>2024-05-20T07:32:01Z</time>
      </trkpt>
      <trkpt lat="43.43228" lon="1.06069">
        <ele>300.8</ele>
        <time>2024-05-20T07:32:02Z</time>
      </trkpt>
      <trkpt lat="43.43234" lon="1.06065">
        <ele>301</ele>
        <time>2024-05-20T07:32:03Z</time>
      </trkpt>
      <trkpt lat="43.43239" lon="1.06061">
        <ele>301</ele>
        <time>2024-05-20T07:32:04Z</time>
      </trkpt>
      <trkpt lat="43.43244" lon="1.06057">
        <ele>301</ele>
        <time>2024-05-20T07:32:05Z</time>
      </trkpt>
      <trkpt lat="43.43249" lon="1.06054">
        <ele>301.4</ele>
        <time>2024-05-20T07:32:06Z</time>
      </trkpt>
      <trkpt lat="43.43254" lon="1.06051">
        <ele>301.4</ele>
        <time>2024-05-20T07:32:07Z</time>
      </trkpt>
      <trkpt lat="43.4326" lon="1.06047">
        <ele>301.6</ele>
        <time>2024-05-20T07:32:08Z</time>
      </trkpt>
      <trkpt lat="43.43266" lon="1.06045">
        <ele>301.6</ele>
        <time>2024-05-20T07:32:09Z</time>
      </trkpt>
      <trkpt lat="43.43271" lon="1.06042">
        <ele>301.8</ele>
        <time>2024-05-20T07:32:10Z</time>
      </trkpt>
      <trkpt lat="43.43277" lon="1.0604">
        <ele>301.8</ele>
        <time>2024-05-20T07:32:11Z</time>
      </trkpt>
      <trkpt lat="43.43283" lon="1.06038">
        <ele>302</ele>
        <time>2024-05-20T07:32:12Z</time>
      </trkpt>
      <trkpt lat="43.43289" lon="1.06036">
        <ele>302.2</ele>
        <time>2024-05-20T07:32:13Z</time>
      </trkpt>
      <trkpt lat="43.43294" lon="1.06034">
        <ele>302.2</ele>
        <time>2024-05-20T07:32:14Z</time>
      </trkpt>
      <trkpt lat="43.433" lon="1.06033">
        <ele>302.2</ele>
        <time>2024-05-20T07:32:15Z</time>
      </trkpt>
      <trkpt lat="43.43306" lon="1.06032">
        <ele>302.2</ele>
        <time>2024-05-20T07:32:16Z</time>
      </trkpt>
      <trkpt lat="43.43312" lon="1.06031">
        <ele>302.4</ele>
        <time>2024-05-20T07:32:17Z</time>
      </trkpt>
      <trkpt lat="43.43318" lon="1.0603">
        <ele>302.4</ele>
        <time>2024-05-20T07:32:18Z</time>
      </trkpt>
      <trkpt lat="43.43324" lon="1.0603">
        <ele>302.6</ele>
        <time>2024-05-20T07:32:19Z</time>
      </trkpt>
      <trkpt lat="43.43329" lon="1.06029">
        <ele>302.8</ele>
        <time>2024-05-20T07:32:20Z</time>
      </trkpt>
      <trkpt lat="43.43335" lon="1.06029">
        <ele>303</ele>
        <time>2024-05-20T07:32:21Z</time>
      </trkpt>
      <trkpt lat="43.43341" lon="1.06029">
        <ele>303</ele>
        <time>2024-05-20T07:32:22Z</time>
      </trkpt>
      <trkpt lat="43.43347" lon="1.06028">
        <ele>303</ele>
        <time>2024-05-20T07:32:23Z</time>
      </trkpt>
      <trkpt lat="43.43352" lon="1.06028">
        <ele>303</ele>
        <time>2024-05-20T07:32:24Z</time>
      </trkpt>
      <trkpt lat="43.43358" lon="1.06028">
        <ele>303</ele>
        <time>2024-05-20T07:32:25Z</time>
      </trkpt>
      <trkpt lat="43.43364" lon="1.06027">
        <ele>303.2</ele>
        <time>2024-05-20T07:32:26Z</time>
      </trkpt>
      <trkpt lat="43.4337" lon="1.06027">
        <ele>303.2</ele>
        <time>2024-05-20T07:32:27Z</time>
      </trkpt>
      <trkpt lat="43.43375" lon="1.06027">
        <ele>303.2</ele>
        <time>2024-05-20T07:32:28Z</time>
      </trkpt>
      <trkpt lat="43.43381" lon="1.06027">
        <ele>303.4</ele>
        <time>2024-05-20T07:32:29Z</time>
      </trkpt>
      <trkpt lat="43.43386" lon="1.06026">
        <ele>303.6</ele>
        <time>2024-05-20T07:32:30Z</time>
      </trkpt>
      <trkpt lat="43.43392" lon="1.06026">
        <ele>303.6</ele>
        <time>2024-05-20T07:32:31Z</time>
      </trkpt>
      <trkpt lat="43.43397" lon="1.06025">
        <ele>303.8</ele>
        <time>2024-05-20T07:32:32Z</time>
      </trkpt>
      <trkpt lat="43.43403" lon="1.06025">
        <ele>303.8</ele>
        <time>2024-05-20T07:32:33Z</time>
      </trkpt>
      <trkpt lat="43.43408" lon="1.06025">
        <ele>304</ele>
        <time>2024-05-20T07:32:34Z</time>
      </trkpt>
      <trkpt lat="43.43414" lon="1.06024">
        <ele>304.2</ele>
        <time>2024-05-20T07:32:35Z</time>
      </trkpt>
      <trkpt lat="43.43419" lon="1.06024">
        <ele>304.2</ele>
        <time>2024-05-20T07:32:36Z</time>
      </trkpt>
      <trkpt lat="43.43425" lon="1.06023">
        <ele>304.8</ele>
        <time>2024-05-20T07:32:37Z</time>
      </trkpt>
      <trkpt lat="43.4343" lon="1.06023">
        <ele>304.8</ele>
        <time>2024-05-20T07:32:38Z</time>
      </trkpt>
      <trkpt lat="43.43436" lon="1.06022">
        <ele>305</ele>
        <time>2024-05-20T07:32:39Z</time>
      </trkpt>
      <trkpt lat="43.43441" lon="1.06022">
        <ele>305.4</ele>
        <time>2024-05-20T07:32:40Z</time>
      </trkpt>
      <trkpt lat="43.43447" lon="1.06021">
        <ele>305.6</ele>
        <time>2024-05-20T07:32:41Z</time>
      </trkpt>
      <trkpt lat="43.43452" lon="1.06021">
        <ele>305.8</ele>
        <time>2024-05-20T07:32:42Z</time>
      </trkpt>
      <trkpt lat="43.43458" lon="1.06021">
        <ele>306</ele>
        <time>2024-05-20T07:32:43Z</time>
      </trkpt>
      <trkpt lat="43.43463" lon="1.06021">
        <ele>306.4</ele>
        <time>2024-05-20T07:32:44Z</time>
      </trkpt>
      <trkpt lat="43.43469" lon="1.0602">
        <ele>306.6</ele>
        <time>2024-05-20T07:32:45Z</time>
      </trkpt>
      <trkpt lat="43.43474" lon="1.06019">
        <ele>307</ele>
        <time>2024-05-20T07:32:46Z</time>
      </trkpt>
      <trkpt lat="43.4348" lon="1.06018">
        <ele>307.2</ele>
        <time>2024-05-20T07:32:47Z</time>
      </trkpt>
      <trkpt lat="43.43485" lon="1.06018">
        <ele>307.6</ele>
        <time>2024-05-20T07:32:48Z</time>
      </trkpt>
      <trkpt lat="43.43489" lon="1.06017">
        <ele>307.8</ele>
        <time>2024-05-20T07:32:49Z</time>
      </trkpt>
      <trkpt lat="43.43494" lon="1.06017">
        <ele>307.8</ele>
        <time>2024-05-20T07:32:50Z</time>
      </trkpt>
      <trkpt lat="43.43499" lon="1.06016">
        <ele>308.2</ele>
        <time>2024-05-20T07:32:51Z</time>
      </trkpt>
      <trkpt lat="43.43504" lon="1.06015">
        <ele>308.4</ele>
        <time>2024-05-20T07:32:52Z</time>
      </trkpt>
      <trkpt lat="43.43509" lon="1.06015">
        <ele>308.6</ele>
        <time>2024-05-20T07:32:53Z</time>
      </trkpt>
      <trkpt lat="43.43514" lon="1.06014">
        <ele>308.8</ele>
        <time>2024-05-20T07:32:54Z</time>
      </trkpt>
      <trkpt lat="43.43518" lon="1.06014">
        <ele>309</ele>
        <time>2024-05-20T07:32:55Z</time>
      </trkpt>
      <trkpt lat="43.43523" lon="1.06013">
        <ele>309.2</ele>
        <time>2024-05-20T07:32:56Z</time>
      </trkpt>
      <trkpt lat="43.43528" lon="1.06011">
        <ele>309.6</ele>
        <time>2024-05-20T07:32:57Z</time>
      </trkpt>
      <trkpt lat="43.43533" lon="1.06009">
        <ele>310</ele>
        <time>2024-05-20T07:32:58Z</time>
      </trkpt>
      <trkpt lat="43.43538" lon="1.06007">
        <ele>310.2</ele>
        <time>2024-05-20T07:32:59Z</time>
      </trkpt>
      <trkpt lat="43.43543" lon="1.06005">
        <ele>310.4</ele>
        <time>2024-05-20T07:33:00Z</time>
      </trkpt>
      <trkpt lat="43.43548" lon="1.06003">
        <ele>310.6</ele>
        <time>2024-05-20T07:33:01Z</time>
      </trkpt>
      <trkpt lat="43.43553" lon="1.06">
        <ele>311</ele>
        <time>2024-05-20T07:33:02Z</time>
      </trkpt>
      <trkpt lat="43.43558" lon="1.05998">
        <ele>311.2</ele>
        <time>2024-05-20T07:33:03Z</time>
      </trkpt>
      <trkpt lat="43.43563" lon="1.05996">
        <ele>311.4</ele>
        <time>2024-05-20T07:33:04Z</time>
      </trkpt>
      <trkpt lat="43.43568" lon="1.05993">
        <ele>311.4</ele>
        <time>2024-05-20T07:33:05Z</time>
      </trkpt>
      <trkpt lat="43.43573" lon="1.0599">
        <ele>311.6</ele>
        <time>2024-05-20T07:33:06Z</time>
      </trkpt>
      <trkpt lat="43.43579" lon="1.05987">
        <ele>311.8</ele>
        <time>2024-05-20T07:33:07Z</time>
      </trkpt>
      <trkpt lat="43.43585" lon="1.05985">
        <ele>311.8</ele>
        <time>2024-05-20T07:33:08Z</time>
      </trkpt>
      <trkpt lat="43.4359" lon="1.05983">
        <ele>312</ele>
        <time>2024-05-20T07:33:09Z</time>
      </trkpt>
      <trkpt lat="43.43596" lon="1.0598">
        <ele>312</ele>
        <time>2024-05-20T07:33:10Z</time>
      </trkpt>
      <trkpt lat="43.43602" lon="1.05977">
        <ele>312</ele>
        <time>2024-05-20T07:33:11Z</time>
      </trkpt>
      <trkpt lat="43.43608" lon="1.05973">
        <ele>312</ele>
        <time>2024-05-20T07:33:12Z</time>
      </trkpt>
      <trkpt lat="43.43615" lon="1.0597">
        <ele>312</ele>
        <time>2024-05-20T07:33:13Z</time>
      </trkpt>
      <trkpt lat="43.43622" lon="1.05967">
        <ele>312</ele>
        <time>2024-05-20T07:33:14Z</time>
      </trkpt>
      <trkpt lat="43.43629" lon="1.05964">
        <ele>312</ele>
        <time>2024-05-20T07:33:15Z</time>
      </trkpt>
      <trkpt lat="43.43636" lon="1.0596">
        <ele>312</ele>
        <time>2024-05-20T07:33:16Z</time>
      </trkpt>
      <trkpt lat="43.43643" lon="1.05957">
        <ele>312.2</ele>
        <time>2024-05-20T07:33:17Z</time>
      </trkpt>
      <trkpt lat="43.4365" lon="1.05955">
        <ele>312.2</ele>
        <time>2024-05-20T07:33:18Z</time>
      </trkpt>
      <trkpt lat="43.43658" lon="1.05954">
        <ele>312.2</ele>
        <time>2024-05-20T07:33:19Z</time>
      </trkpt>
      <trkpt lat="43.43664" lon="1.05953">
        <ele>312.2</ele>
        <time>2024-05-20T07:33:20Z</time>
      </trkpt>
      <trkpt lat="43.43671" lon="1.05951">
        <ele>312.2</ele>
        <time>2024-05-20T07:33:21Z</time>
      </trkpt>
      <trkpt lat="43.43678" lon="1.0595">
        <ele>312</ele>
        <time>2024-05-20T07:33:22Z</time>
      </trkpt>
      <trkpt lat="43.43684" lon="1.05949">
        <ele>312</ele>
        <time>2024-05-20T07:33:23Z</time>
      </trkpt>
      <trkpt lat="43.4369" lon="1.05948">
        <ele>312</ele>
        <time>2024-05-20T07:33:24Z</time>
      </trkpt>
      <trkpt lat="43.43695" lon="1.05947">
        <ele>312</ele>
        <time>2024-05-20T07:33:25Z</time>
      </trkpt>
      <trkpt lat="43.437" lon="1.05946">
        <ele>312.2</ele>
        <time>2024-05-20T07:33:26Z</time>
      </trkpt>
      <trkpt lat="43.43705" lon="1.05945">
        <ele>312.2</ele>
        <time>2024-05-20T07:33:27Z</time>
      </trkpt>
      <trkpt lat="43.4371" lon="1.05944">
        <ele>312.4</ele>
        <time>2024-05-20T07:33:28Z</time>
      </trkpt>
      <trkpt lat="43.43715" lon="1.05943">
        <ele>312.4</ele>
        <time>2024-05-20T07:33:29Z</time>
      </trkpt>
      <trkpt lat="43.4372" lon="1.05942">
        <ele>312.6</ele>
        <time>2024-05-20T07:33:30Z</time>
      </trkpt>
      <trkpt lat="43.43725" lon="1.05941">
        <ele>312.8</ele>
        <time>2024-05-20T07:33:31Z</time>
      </trkpt>
      <trkpt lat="43.4373" lon="1.05939">
        <ele>312.8</ele>
        <time>2024-05-20T07:33:32Z</time>
      </trkpt>
      <trkpt lat="43.4373" lon="1.05939">
        <ele>313.2</ele>
        <time>2024-05-20T07:33:33Z</time>
      </trkpt>
      <trkpt lat="43.43739" lon="1.05937">
        <ele>313.4</ele>
        <time>2024-05-20T07:33:34Z</time>
      </trkpt>
      <trkpt lat="43.43745" lon="1.05936">
        <ele>313.6</ele>
        <time>2024-05-20T07:33:35Z</time>
      </trkpt>
      <trkpt lat="43.4375" lon="1.05935">
        <ele>313.8</ele>
        <time>2024-05-20T07:33:36Z</time>
      </trkpt>
      <trkpt lat="43.43755" lon="1.05933">
        <ele>314</ele>
        <time>2024-05-20T07:33:37Z</time>
      </trkpt>
      <trkpt lat="43.43759" lon="1.05933">
        <ele>314.2</ele>
        <time>2024-05-20T07:33:38Z</time>
      </trkpt>
      <trkpt lat="43.43766" lon="1.05932">
        <ele>314.2</ele>
        <time>2024-05-20T07:33:39Z</time>
      </trkpt>
      <trkpt lat="43.4377" lon="1.05932">
        <ele>314.4</ele>
        <time>2024-05-20T07:33:40Z</time>
      </trkpt>
      <trkpt lat="43.43777" lon="1.05931">
        <ele>314.6</ele>
        <time>2024-05-20T07:33:41Z</time>
      </trkpt>
      <trkpt lat="43.43782" lon="1.05929">
        <ele>314.8</ele>
        <time>2024-05-20T07:33:42Z</time>
      </trkpt>
      <trkpt lat="43.43786" lon="1.05928">
        <ele>315</ele>
        <time>2024-05-20T07:33:43Z</time>
      </trkpt>
      <trkpt lat="43.43792" lon="1.05927">
        <ele>315.2</ele>
        <time>2024-05-20T07:33:44Z</time>
      </trkpt>
      <trkpt lat="43.43797" lon="1.05926">
        <ele>315.6</ele>
        <time>2024-05-20T07:33:45Z</time>
      </trkpt>
      <trkpt lat="43.43803" lon="1.05925">
        <ele>315.8</ele>
        <time>2024-05-20T07:33:46Z</time>
      </trkpt>
      <trkpt lat="43.43808" lon="1.05924">
        <ele>316.2</ele>
        <time>2024-05-20T07:33:47Z</time>
      </trkpt>
      <trkpt lat="43.43812" lon="1.05924">
        <ele>316.2</ele>
        <time>2024-05-20T07:33:48Z</time>
      </trkpt>
      <trkpt lat="43.43819" lon="1.05923">
        <ele>316.4</ele>
        <time>2024-05-20T07:33:49Z</time>
      </trkpt>
      <trkpt lat="43.43824" lon="1.05922">
        <ele>316.6</ele>
        <time>2024-05-20T07:33:50Z</time>
      </trkpt>
      <trkpt lat="43.43829" lon="1.05921">
        <ele>317</ele>
        <time>2024-05-20T07:33:51Z</time>
      </trkpt>
      <trkpt lat="43.43834" lon="1.0592">
        <ele>317.2</ele>
        <time>2024-05-20T07:33:52Z</time>
      </trkpt>
      <trkpt lat="43.43838" lon="1.05919">
        <ele>317.4</ele>
        <time>2024-05-20T07:33:53Z</time>
      </trkpt>
      <trkpt lat="43.43844" lon="1.05919">
        <ele>317.6</ele>
        <time>2024-05-20T07:33:54Z</time>
      </trkpt>
      <trkpt lat="43.43849" lon="1.05918">
        <ele>317.8</ele>
        <time>2024-05-20T07:33:55Z</time>
      </trkpt>
      <trkpt lat="43.43854" lon="1.05917">
        <ele>318.2</ele>
        <time>2024-05-20T07:33:56Z</time>
      </trkpt>
      <trkpt lat="43.4386" lon="1.05916">
        <ele>318.2</ele>
        <time>2024-05-20T07:33:57Z</time>
      </trkpt>
      <trkpt lat="43.43865" lon="1.05916">
        <ele>318.4</ele>
        <time>2024-05-20T07:33:58Z</time>
      </trkpt>
      <trkpt lat="43.43869" lon="1.05915">
        <ele>318.8</ele>
        <time>2024-05-20T07:33:59Z</time>
      </trkpt>
      <trkpt lat="43.43874" lon="1.05914">
        <ele>319.2</ele>
        <time>2024-05-20T07:34:00Z</time>
      </trkpt>
      <trkpt lat="43.4388" lon="1.05913">
        <ele>319.4</ele>
        <time>2024-05-20T07:34:01Z</time>
      </trkpt>
      <trkpt lat="43.43886" lon="1.05912">
        <ele>319.6</ele>
        <time>2024-05-20T07:34:02Z</time>
      </trkpt>
      <trkpt lat="43.43891" lon="1.05911">
        <ele>319.8</ele>
        <time>2024-05-20T07:34:03Z</time>
      </trkpt>
      <trkpt lat="43.43897" lon="1.0591">
        <ele>319.8</ele>
        <time>2024-05-20T07:34:04Z</time>
      </trkpt>
      <trkpt lat="43.43901" lon="1.0591">
        <ele>320.4</ele>
        <time>2024-05-20T07:34:05Z</time>
      </trkpt>
      <trkpt lat="43.43908" lon="1.05909">
        <ele>320.6</ele>
        <time>2024-05-20T07:34:06Z</time>
      </trkpt>
      <trkpt lat="43.43914" lon="1.05908">
        <ele>320.8</ele>
        <time>2024-05-20T07:34:07Z</time>
      </trkpt>
      <trkpt lat="43.4392" lon="1.05907">
        <ele>320.8</ele>
        <time>2024-05-20T07:34:08Z</time>
      </trkpt>
      <trkpt lat="43.43926" lon="1.05906">
        <ele>321</ele>
        <time>2024-05-20T07:34:09Z</time>
      </trkpt>
      <trkpt lat="43.4393" lon="1.05905">
        <ele>321.2</ele>
        <time>2024-05-20T07:34:10Z</time>
      </trkpt>
      <trkpt lat="43.43937" lon="1.05904">
        <ele>321.2</ele>
        <time>2024-05-20T07:34:11Z</time>
      </trkpt>
      <trkpt lat="43.43942" lon="1.05902">
        <ele>321.4</ele>
        <time>2024-05-20T07:34:12Z</time>
      </trkpt>
      <trkpt lat="43.43948" lon="1.05901">
        <ele>321.6</ele>
        <time>2024-05-20T07:34:13Z</time>
      </trkpt>
      <trkpt lat="43.43953" lon="1.059">
        <ele>322</ele>
        <time>2024-05-20T07:34:14Z</time>
      </trkpt>
      <trkpt lat="43.43957" lon="1.05898">
        <ele>322</ele>
        <time>2024-05-20T07:34:15Z</time>
      </trkpt>
      <trkpt lat="43.43964" lon="1.05895">
        <ele>322.2</ele>
        <time>2024-05-20T07:34:16Z</time>
      </trkpt>
      <trkpt lat="43.43969" lon="1.05893">
        <ele>322.4</ele>
        <time>2024-05-20T07:34:17Z</time>
      </trkpt>
      <trkpt lat="43.43975" lon="1.05891">
        <ele>322.6</ele>
        <time>2024-05-20T07:34:18Z</time>
      </trkpt>
      <trkpt lat="43.43979" lon="1.05889">
        <ele>322.8</ele>
        <time>2024-05-20T07:34:19Z</time>
      </trkpt>
      <trkpt lat="43.43984" lon="1.05886">
        <ele>323</ele>
        <time>2024-05-20T07:34:20Z</time>
      </trkpt>
      <trkpt lat="43.4399" lon="1.05883">
        <ele>323.2</ele>
        <time>2024-05-20T07:34:21Z</time>
      </trkpt>
      <trkpt lat="43.43994" lon="1.05879">
        <ele>323.4</ele>
        <time>2024-05-20T07:34:22Z</time>
      </trkpt>
      <trkpt lat="43.43999" lon="1.05875">
        <ele>323.6</ele>
        <time>2024-05-20T07:34:23Z</time>
      </trkpt>
      <trkpt lat="43.44002" lon="1.05871">
        <ele>323.6</ele>
        <time>2024-05-20T07:34:24Z</time>
      </trkpt>
      <trkpt lat="43.44006" lon="1.05866">
        <ele>324.2</ele>
        <time>2024-05-20T07:34:25Z</time>
      </trkpt>
      <trkpt lat="43.44011" lon="1.0586">
        <ele>324.4</ele>
        <time>2024-05-20T07:34:26Z</time>
      </trkpt>
      <trkpt lat="43.44014" lon="1.05855">
        <ele>324.8</ele>
        <time>2024-05-20T07:34:27Z</time>
      </trkpt>
      <trkpt lat="43.44017" lon="1.05849">
        <ele>325.2</ele>
        <time>2024-05-20T07:34:28Z</time>
      </trkpt>
      <trkpt lat="43.4402" lon="1.05844">
        <ele>325.2</ele>
        <time>2024-05-20T07:34:29Z</time>
      </trkpt>
      <trkpt lat="43.44023" lon="1.05839">
        <ele>325.4</ele>
        <time>2024-05-20T07:34:30Z</time>
      </trkpt>
      <trkpt lat="43.44026" lon="1.05833">
        <ele>325.6</ele>
        <time>2024-05-20T07:34:31Z</time>
      </trkpt>
      <trkpt lat="43.44029" lon="1.05827">
        <ele>326.2</ele>
        <time>2024-05-20T07:34:32Z</time>
      </trkpt>
      <trkpt lat="43.44032" lon="1.05822">
        <ele>326.4</ele>
        <time>2024-05-20T07:34:33Z</time>
      </trkpt>
      <trkpt lat="43.44035" lon="1.05816">
        <ele>326.8</ele>
        <time>2024-05-20T07:34:34Z</time>
      </trkpt>
      <trkpt lat="43.44038" lon="1.05811">
        <ele>326.8</ele>
        <time>2024-05-20T07:34:35Z</time>
      </trkpt>
      <trkpt lat="43.44041" lon="1.05804">
        <ele>327</ele>
        <time>2024-05-20T07:34:36Z</time>
      </trkpt>
      <trkpt lat="43.44043" lon="1.05798">
        <ele>327.2</ele>
        <time>2024-05-20T07:34:37Z</time>
      </trkpt>
      <trkpt lat="43.44046" lon="1.05792">
        <ele>327.4</ele>
        <time>2024-05-20T07:34:38Z</time>
      </trkpt>
      <trkpt lat="43.44048" lon="1.05786">
        <ele>327.6</ele>
        <time>2024-05-20T07:34:39Z</time>
      </trkpt>
      <trkpt lat="43.44051" lon="1.0578">
        <ele>327.8</ele>
        <time>2024-05-20T07:34:40Z</time>
      </trkpt>
      <trkpt lat="43.44053" lon="1.05775">
        <ele>328.2</ele>
        <time>2024-05-20T07:34:41Z</time>
      </trkpt>
      <trkpt lat="43.44056" lon="1.05768">
        <ele>328.4</ele>
        <time>2024-05-20T07:34:42Z</time>
      </trkpt>
      <trkpt lat="43.44059" lon="1.05761">
        <ele>328.6</ele>
        <time>2024-05-20T07:34:43Z</time>
      </trkpt>
      <trkpt lat="43.44061" lon="1.05756">
        <ele>328.8</ele>
        <time>2024-05-20T07:34:44Z</time>
      </trkpt>
      <trkpt lat="43.44064" lon="1.05751">
        <ele>329</ele>
        <time>2024-05-20T07:34:45Z</time>
      </trkpt>
      <trkpt lat="43.44067" lon="1.05744">
        <ele>329.2</ele>
        <time>2024-05-20T07:34:46Z</time>
      </trkpt>
      <trkpt lat="43.44071" lon="1.05737">
        <ele>329.4</ele>
        <time>2024-05-20T07:34:47Z</time>
      </trkpt>
      <trkpt lat="43.44075" lon="1.05732">
        <ele>329.4</ele>
        <time>2024-05-20T07:34:48Z</time>
      </trkpt>
      <trkpt lat="43.44078" lon="1.05727">
        <ele>329.6</ele>
        <time>2024-05-20T07:34:49Z</time>
      </trkpt>
      <trkpt lat="43.44084" lon="1.05721">
        <ele>329.6</ele>
        <time>2024-05-20T07:34:50Z</time>
      </trkpt>
      <trkpt lat="43.44089" lon="1.05717">
        <ele>329.6</ele>
        <time>2024-05-20T07:34:51Z</time>
      </trkpt>
      <trkpt lat="43.44096" lon="1.05711">
        <ele>329.6</ele>
        <time>2024-05-20T07:34:52Z</time>
      </trkpt>
      <trkpt lat="43.44102" lon="1.05707">
        <ele>329.6</ele>
        <time>2024-05-20T07:34:53Z</time>
      </trkpt>
      <trkpt lat="43.44109" lon="1.05702">
        <ele>329.4</ele>
        <time>2024-05-20T07:34:54Z</time>
      </trkpt>
      <trkpt lat="43.44115" lon="1.05698">
        <ele>329.2</ele>
        <time>2024-05-20T07:34:55Z</time>
      </trkpt>
      <trkpt lat="43.44123" lon="1.05694">
        <ele>329</ele>
        <time>2024-05-20T07:34:56Z</time>
      </trkpt>
      <trkpt lat="43.44133" lon="1.05688">
        <ele>328.6</ele>
        <time>2024-05-20T07:34:57Z</time>
      </trkpt>
      <trkpt lat="43.44141" lon="1.05682">
        <ele>328.2</ele>
        <time>2024-05-20T07:34:58Z</time>
      </trkpt>
      <trkpt lat="43.44149" lon="1.05675">
        <ele>327.8</ele>
        <time>2024-05-20T07:34:59Z</time>
      </trkpt>
      <trkpt lat="43.44155" lon="1.05669">
        <ele>327.6</ele>
        <time>2024-05-20T07:35:00Z</time>
      </trkpt>
      <trkpt lat="43.44163" lon="1.0566">
        <ele>327</ele>
        <time>2024-05-20T07:35:01Z</time>
      </trkpt>
      <trkpt lat="43.44171" lon="1.05648">
        <ele>326.4</ele>
        <time>2024-05-20T07:35:02Z</time>
      </trkpt>
      <trkpt lat="43.44177" lon="1.05636">
        <ele>325.4</ele>
        <time>2024-05-20T07:35:03Z</time>
      </trkpt>
      <trkpt lat="43.44183" lon="1.05625">
        <ele>324.4</ele>
        <time>2024-05-20T07:35:04Z</time>
      </trkpt>
      <trkpt lat="43.44183" lon="1.05625">
        <ele>324</ele>
        <time>2024-05-20T07:35:05Z</time>
      </trkpt>
      <trkpt lat="43.44193" lon="1.05601">
        <ele>323.6</ele>
        <time>2024-05-20T07:35:06Z</time>
      </trkpt>
      <trkpt lat="43.44198" lon="1.05589">
        <ele>323</ele>
        <time>2024-05-20T07:35:07Z</time>
      </trkpt>
      <trkpt lat="43.44203" lon="1.05577">
        <ele>322.4</ele>
        <time>2024-05-20T07:35:08Z</time>
      </trkpt>
      <trkpt lat="43.44208" lon="1.05564">
        <ele>322.2</ele>
        <time>2024-05-20T07:35:09Z</time>
      </trkpt>
      <trkpt lat="43.44208" lon="1.05564">
        <ele>321.6</ele>
        <time>2024-05-20T07:35:10Z</time>
      </trkpt>
      <trkpt lat="43.44217" lon="1.05543">
        <ele>321.4</ele>
        <time>2024-05-20T07:35:11Z</time>
      </trkpt>
      <trkpt lat="43.44222" lon="1.05529">
        <ele>321</ele>
        <time>2024-05-20T07:35:12Z</time>
      </trkpt>
      <trkpt lat="43.44226" lon="1.05517">
        <ele>320.8</ele>
        <time>2024-05-20T07:35:13Z</time>
      </trkpt>
      <trkpt lat="43.4423" lon="1.05505">
        <ele>320.8</ele>
        <time>2024-05-20T07:35:14Z</time>
      </trkpt>
      <trkpt lat="43.44233" lon="1.05496">
        <ele>320.8</ele>
        <time>2024-05-20T07:35:15Z</time>
      </trkpt>
      <trkpt lat="43.44236" lon="1.05484">
        <ele>320.6</ele>
        <time>2024-05-20T07:35:16Z</time>
      </trkpt>
      <trkpt lat="43.44239" lon="1.05469">
        <ele>320.6</ele>
        <time>2024-05-20T07:35:17Z</time>
      </trkpt>
      <trkpt lat="43.4424" lon="1.05458">
        <ele>320.6</ele>
        <time>2024-05-20T07:35:18Z</time>
      </trkpt>
      <trkpt lat="43.44242" lon="1.05446">
        <ele>320.6</ele>
        <time>2024-05-20T07:35:19Z</time>
      </trkpt>
      <trkpt lat="43.44242" lon="1.05437">
        <ele>320.6</ele>
        <time>2024-05-20T07:35:20Z</time>
      </trkpt>
      <trkpt lat="43.44243" lon="1.05425">
        <ele>320.6</ele>
        <time>2024-05-20T07:35:21Z</time>
      </trkpt>
      <trkpt lat="43.44243" lon="1.05412">
        <ele>321</ele>
        <time>2024-05-20T07:35:22Z</time>
      </trkpt>
      <trkpt lat="43.44243" lon="1.05401">
        <ele>321</ele>
        <time>2024-05-20T07:35:23Z</time>
      </trkpt>
      <trkpt lat="43.44243" lon="1.0539">
        <ele>321.2</ele>
        <time>2024-05-20T07:35:24Z</time>
      </trkpt>
      <trkpt lat="43.44243" lon="1.05382">
        <ele>321.4</ele>
        <time>2024-05-20T07:35:25Z</time>
      </trkpt>
      <trkpt lat="43.44242" lon="1.05372">
        <ele>321.6</ele>
        <time>2024-05-20T07:35:26Z</time>
      </trkpt>
      <trkpt lat="43.44241" lon="1.05362">
        <ele>321.6</ele>
        <time>2024-05-20T07:35:27Z</time>
      </trkpt>
      <trkpt lat="43.4424" lon="1.05351">
        <ele>321.6</ele>
        <time>2024-05-20T07:35:28Z</time>
      </trkpt>
      <trkpt lat="43.44239" lon="1.05341">
        <ele>321.8</ele>
        <time>2024-05-20T07:35:29Z</time>
      </trkpt>
      <trkpt lat="43.44238" lon="1.05333">
        <ele>322</ele>
        <time>2024-05-20T07:35:30Z</time>
      </trkpt>
      <trkpt lat="43.44237" lon="1.05324">
        <ele>322.4</ele>
        <time>2024-05-20T07:35:31Z</time>
      </trkpt>
      <trkpt lat="43.44236" lon="1.05318">
        <ele>322.6</ele>
        <time>2024-05-20T07:35:32Z</time>
      </trkpt>
      <trkpt lat="43.44234" lon="1.05309">
        <ele>323</ele>
        <time>2024-05-20T07:35:33Z</time>
      </trkpt>
      <trkpt lat="43.44233" lon="1.05302">
        <ele>323.2</ele>
        <time>2024-05-20T07:35:34Z</time>
      </trkpt>
      <trkpt lat="43.44232" lon="1.05295">
        <ele>323.6</ele>
        <time>2024-05-20T07:35:35Z</time>
      </trkpt>
      <trkpt lat="43.44231" lon="1.05289">
        <ele>324</ele>
        <time>2024-05-20T07:35:36Z</time>
      </trkpt>
      <trkpt lat="43.4423" lon="1.05284">
        <ele>324.8</ele>
        <time>2024-05-20T07:35:37Z</time>
      </trkpt>
      <trkpt lat="43.44229" lon="1.05276">
        <ele>325</ele>
        <time>2024-05-20T07:35:38Z</time>
      </trkpt>
      <trkpt lat="43.44228" lon="1.05269">
        <ele>325.6</ele>
        <time>2024-05-20T07:35:39Z</time>
      </trkpt>
      <trkpt lat="43.44227" lon="1.05263">
        <ele>326</ele>
        <time>2024-05-20T07:35:40Z</time>
      </trkpt>
      <trkpt lat="43.44227" lon="1.05256">
        <ele>326.4</ele>
        <time>2024-05-20T07:35:41Z</time>
      </trkpt>
      <trkpt lat="43.44226" lon="1.05251">
        <ele>327</ele>
        <time>2024-05-20T07:35:42Z</time>
      </trkpt>
      <trkpt lat="43.44225" lon="1.05244">
        <ele>327</ele>
        <time>2024-05-20T07:35:43Z</time>
      </trkpt>
      <trkpt lat="43.44225" lon="1.05237">
        <ele>327.6</ele>
        <time>2024-05-20T07:35:44Z</time>
      </trkpt>
      <trkpt lat="43.44226" lon="1.05229">
        <ele>327.8</ele>
        <time>2024-05-20T07:35:45Z</time>
      </trkpt>
      <trkpt lat="43.44226" lon="1.05222">
        <ele>328.4</ele>
        <time>2024-05-20T07:35:46Z</time>
      </trkpt>
      <trkpt lat="43.44227" lon="1.05215">
        <ele>328.6</ele>
        <time>2024-05-20T07:35:47Z</time>
      </trkpt>
      <trkpt lat="43.44227" lon="1.05208">
        <ele>329.2</ele>
        <time>2024-05-20T07:35:48Z</time>
      </trkpt>
      <trkpt lat="43.44227" lon="1.052">
        <ele>329.8</ele>
        <time>2024-05-20T07:35:49Z</time>
      </trkpt>
      <trkpt lat="43.44227" lon="1.05192">
        <ele>330</ele>
        <time>2024-05-20T07:35:50Z</time>
      </trkpt>
      <trkpt lat="43.44227" lon="1.05192">
        <ele>330.8</ele>
        <time>2024-05-20T07:35:51Z</time>
      </trkpt>
      <trkpt lat="43.44227" lon="1.05179">
        <ele>331</ele>
        <time>2024-05-20T07:35:52Z</time>
      </trkpt>
      <trkpt lat="43.44228" lon="1.0517">
        <ele>331.4</ele>
        <time>2024-05-20T07:35:53Z</time>
      </trkpt>
      <trkpt lat="43.4423" lon="1.05162">
        <ele>331.8</ele>
        <time>2024-05-20T07:35:54Z</time>
      </trkpt>
      <trkpt lat="43.4423" lon="1.05154">
        <ele>332.2</ele>
        <time>2024-05-20T07:35:55Z</time>
      </trkpt>
      <trkpt lat="43.44231" lon="1.05146">
        <ele>332.4</ele>
        <time>2024-05-20T07:35:56Z</time>
      </trkpt>
      <trkpt lat="43.44231" lon="1.05146">
        <ele>332.8</ele>
        <time>2024-05-20T07:35:57Z</time>
      </trkpt>
      <trkpt lat="43.44232" lon="1.05131">
        <ele>333.2</ele>
        <time>2024-05-20T07:35:58Z</time>
      </trkpt>
      <trkpt lat="43.44233" lon="1.05122">
        <ele>333.6</ele>
        <time>2024-05-20T07:35:59Z</time>
      </trkpt>
      <trkpt lat="43.44234" lon="1.05114">
        <ele>334.2</ele>
        <time>2024-05-20T07:36:00Z</time>
      </trkpt>
      <trkpt lat="43.44234" lon="1.05106">
        <ele>334.6</ele>
        <time>2024-05-20T07:36:01Z</time>
      </trkpt>
      <trkpt lat="43.44234" lon="1.051">
        <ele>334.8</ele>
        <time>2024-05-20T07:36:02Z</time>
      </trkpt>
      <trkpt lat="43.44234" lon="1.05093">
        <ele>335.2</ele>
        <time>2024-05-20T07:36:03Z</time>
      </trkpt>
      <trkpt lat="43.44234" lon="1.05084">
        <ele>335.4</ele>
        <time>2024-05-20T07:36:04Z</time>
      </trkpt>
      <trkpt lat="43.44234" lon="1.05077">
        <ele>335.6</ele>
        <time>2024-05-20T07:36:05Z</time>
      </trkpt>
      <trkpt lat="43.44233" lon="1.05069">
        <ele>335.8</ele>
        <time>2024-05-20T07:36:06Z</time>
      </trkpt>
      <trkpt lat="43.44234" lon="1.05061">
        <ele>336</ele>
        <time>2024-05-20T07:36:07Z</time>
      </trkpt>
      <trkpt lat="43.44234" lon="1.05053">
        <ele>336.2</ele>
        <time>2024-05-20T07:36:08Z</time>
      </trkpt>
      <trkpt lat="43.44234" lon="1.05053">
        <ele>336.6</ele>
        <time>2024-05-20T07:36:09Z</time>
      </trkpt>
      <trkpt lat="43.44235" lon="1.05035">
        <ele>336.6</ele>
        <time>2024-05-20T07:36:10Z</time>
      </trkpt>
      <trkpt lat="43.44236" lon="1.05025">
        <ele>336.6</ele>
        <time>2024-05-20T07:36:11Z</time>
      </trkpt>
      <trkpt lat="43.44237" lon="1.05017">
        <ele>336.6</ele>
        <time>2024-05-20T07:36:12Z</time>
      </trkpt>
      <trkpt lat="43.44239" lon="1.05008">
        <ele>336.6</ele>
        <time>2024-05-20T07:36:13Z</time>
      </trkpt>
      <trkpt lat="43.44241" lon="1.04996">
        <ele>336.6</ele>
        <time>2024-05-20T07:36:14Z</time>
      </trkpt>
      <trkpt lat="43.44243" lon="1.04986">
        <ele>336.4</ele>
        <time>2024-05-20T07:36:15Z</time>
      </trkpt>
      <trkpt lat="43.44245" lon="1.04976">
        <ele>336</ele>
        <time>2024-05-20T07:36:16Z</time>
      </trkpt>
      <trkpt lat="43.44247" lon="1.04965">
        <ele>335.6</ele>
        <time>2024-05-20T07:36:17Z</time>
      </trkpt>
      <trkpt lat="43.44249" lon="1.04954">
        <ele>335</ele>
        <time>2024-05-20T07:36:18Z</time>
      </trkpt>
      <trkpt lat="43.44252" lon="1.04942">
        <ele>335</ele>
        <time>2024-05-20T07:36:19Z</time>
      </trkpt>
      <trkpt lat="43.44254" lon="1.04931">
        <ele>334.4</ele>
        <time>2024-05-20T07:36:20Z</time>
      </trkpt>
      <trkpt lat="43.44257" lon="1.0492">
        <ele>334.2</ele>
        <time>2024-05-20T07:36:21Z</time>
      </trkpt>
      <trkpt lat="43.4426" lon="1.04911">
        <ele>333.8</ele>
        <time>2024-05-20T07:36:22Z</time>
      </trkpt>
      <trkpt lat="43.44263" lon="1.049">
        <ele>333.8</ele>
        <time>2024-05-20T07:36:23Z</time>
      </trkpt>
      <trkpt lat="43.44267" lon="1.04888">
        <ele>333.2</ele>
        <time>2024-05-20T07:36:24Z</time>
      </trkpt>
      <trkpt lat="43.44272" lon="1.04879">
        <ele>332.8</ele>
        <time>2024-05-20T07:36:25Z</time>
      </trkpt>
      <trkpt lat="43.44276" lon="1.0487">
        <ele>332.6</ele>
        <time>2024-05-20T07:36:26Z</time>
      </trkpt>
      <trkpt lat="43.44281" lon="1.04861">
        <ele>332.4</ele>
        <time>2024-05-20T07:36:27Z</time>
      </trkpt>
      <trkpt lat="43.44285" lon="1.04853">
        <ele>332.2</ele>
        <time>2024-05-20T07:36:28Z</time>
      </trkpt>
      <trkpt lat="43.44289" lon="1.04844">
        <ele>332</ele>
        <time>2024-05-20T07:36:29Z</time>
      </trkpt>
      <trkpt lat="43.44293" lon="1.04834">
        <ele>331.8</ele>
        <time>2024-05-20T07:36:30Z</time>
      </trkpt>
      <trkpt lat="43.44295" lon="1.04824">
        <ele>331.6</ele>
        <time>2024-05-20T07:36:31Z</time>
      </trkpt>
      <trkpt lat="43.44297" lon="1.04814">
        <ele>331.4</ele>
        <time>2024-05-20T07:36:32Z</time>
      </trkpt>
      <trkpt lat="43.44299" lon="1.04805">
        <ele>331.2</ele>
        <time>2024-05-20T07:36:33Z</time>
      </trkpt>
      <trkpt lat="43.44299" lon="1.04794">
        <ele>331</ele>
        <time>2024-05-20T07:36:34Z</time>
      </trkpt>
      <trkpt lat="43.44298" lon="1.04784">
        <ele>330.8</ele>
        <time>2024-05-20T07:36:35Z</time>
      </trkpt>
      <trkpt lat="43.44296" lon="1.04772">
        <ele>330.6</ele>
        <time>2024-05-20T07:36:36Z</time>
      </trkpt>
      <trkpt lat="43.44294" lon="1.04761">
        <ele>330.4</ele>
        <time>2024-05-20T07:36:37Z</time>
      </trkpt>
      <trkpt lat="43.44291" lon="1.0475">
        <ele>330.2</ele>
        <time>2024-05-20T07:36:38Z</time>
      </trkpt>
      <trkpt lat="43.44289" lon="1.04738">
        <ele>330</ele>
        <time>2024-05-20T07:36:39Z</time>
      </trkpt>
      <trkpt lat="43.44286" lon="1.04726">
        <ele>329.4</ele>
        <time>2024-05-20T07:36:40Z</time>
      </trkpt>
      <trkpt lat="43.44283" lon="1.04714">
        <ele>329.2</ele>
        <time>2024-05-20T07:36:41Z</time>
      </trkpt>
      <trkpt lat="43.4428" lon="1.04702">
        <ele>329</ele>
        <time>2024-05-20T07:36:42Z</time>
      </trkpt>
      <trkpt lat="43.44277" lon="1.04689">
        <ele>328.4</ele>
        <time>2024-05-20T07:36:43Z</time>
      </trkpt>
      <trkpt lat="43.44274" lon="1.04677">
        <ele>328</ele>
        <time>2024-05-20T07:36:44Z</time>
      </trkpt>
      <trkpt lat="43.44272" lon="1.04663">
        <ele>327.4</ele>
        <time>2024-05-20T07:36:45Z</time>
      </trkpt>
      <trkpt lat="43.4427" lon="1.0465">
        <ele>326.8</ele>
        <time>2024-05-20T07:36:46Z</time>
      </trkpt>
      <trkpt lat="43.44268" lon="1.04637">
        <ele>326</ele>
        <time>2024-05-20T07:36:47Z</time>
      </trkpt>
      <trkpt lat="43.44266" lon="1.04623">
        <ele>325.4</ele>
        <time>2024-05-20T07:36:48Z</time>
      </trkpt>
      <trkpt lat="43.44265" lon="1.04608">
        <ele>324.6</ele>
        <time>2024-05-20T07:36:49Z</time>
      </trkpt>
      <trkpt lat="43.44264" lon="1.04594">
        <ele>323.8</ele>
        <time>2024-05-20T07:36:50Z</time>
      </trkpt>
      <trkpt lat="43.44264" lon="1.04579">
        <ele>323</ele>
        <time>2024-05-20T07:36:51Z</time>
      </trkpt>
      <trkpt lat="43.44264" lon="1.04564">
        <ele>322.6</ele>
        <time>2024-05-20T07:36:52Z</time>
      </trkpt>
      <trkpt lat="43.44266" lon="1.04552">
        <ele>322.2</ele>
        <time>2024-05-20T07:36:53Z</time>
      </trkpt>
      <trkpt lat="43.44268" lon="1.04535">
        <ele>321.8</ele>
        <time>2024-05-20T07:36:54Z</time>
      </trkpt>
      <trkpt lat="43.44272" lon="1.04521">
        <ele>321.6</ele>
        <time>2024-05-20T07:36:55Z</time>
      </trkpt>
      <trkpt lat="43.44276" lon="1.04508">
        <ele>320.6</ele>
        <time>2024-05-20T07:36:56Z</time>
      </trkpt>
      <trkpt lat="43.4428" lon="1.04495">
        <ele>320.2</ele>
        <time>2024-05-20T07:36:57Z</time>
      </trkpt>
      <trkpt lat="43.44284" lon="1.04483">
        <ele>319.4</ele>
        <time>2024-05-20T07:36:58Z</time>
      </trkpt>
      <trkpt lat="43.44288" lon="1.04473">
        <ele>319</ele>
        <time>2024-05-20T07:36:59Z</time>
      </trkpt>
      <trkpt lat="43.44294" lon="1.04458">
        <ele>318.4</ele>
        <time>2024-05-20T07:37:00Z</time>
      </trkpt>
      <trkpt lat="43.44299" lon="1.04447">
        <ele>318</ele>
        <time>2024-05-20T07:37:01Z</time>
      </trkpt>
      <trkpt lat="43.44305" lon="1.04435">
        <ele>317.6</ele>
        <time>2024-05-20T07:37:02Z</time>
      </trkpt>
      <trkpt lat="43.44312" lon="1.04425">
        <ele>316.8</ele>
        <time>2024-05-20T07:37:03Z</time>
      </trkpt>
      <trkpt lat="43.44318" lon="1.04414">
        <ele>316.6</ele>
        <time>2024-05-20T07:37:04Z</time>
      </trkpt>
      <trkpt lat="43.44324" lon="1.04406">
        <ele>315.8</ele>
        <time>2024-05-20T07:37:05Z</time>
      </trkpt>
      <trkpt lat="43.44331" lon="1.04394">
        <ele>315.6</ele>
        <time>2024-05-20T07:37:06Z</time>
      </trkpt>
      <trkpt lat="43.44338" lon="1.04384">
        <ele>315.2</ele>
        <time>2024-05-20T07:37:07Z</time>
      </trkpt>
      <trkpt lat="43.44344" lon="1.04374">
        <ele>315</ele>
        <time>2024-05-20T07:37:08Z</time>
      </trkpt>
      <trkpt lat="43.4435" lon="1.04363">
        <ele>314.6</ele>
        <time>2024-05-20T07:37:09Z</time>
      </trkpt>
      <trkpt lat="43.44356" lon="1.04352">
        <ele>314.4</ele>
        <time>2024-05-20T07:37:10Z</time>
      </trkpt>
      <trkpt lat="43.44362" lon="1.04341">
        <ele>314.2</ele>
        <time>2024-05-20T07:37:11Z</time>
      </trkpt>
      <trkpt lat="43.44367" lon="1.04329">
        <ele>314</ele>
        <time>2024-05-20T07:37:12Z</time>
      </trkpt>
      <trkpt lat="43.44372" lon="1.04317">
        <ele>314</ele>
        <time>2024-05-20T07:37:13Z</time>
      </trkpt>
      <trkpt lat="43.44372" lon="1.04317">
        <ele>313.8</ele>
        <time>2024-05-20T07:37:14Z</time>
      </trkpt>
      <trkpt lat="43.44384" lon="1.04292">
        <ele>313.4</ele>
        <time>2024-05-20T07:37:15Z</time>
      </trkpt>
      <trkpt lat="43.4439" lon="1.04278">
        <ele>313</ele>
        <time>2024-05-20T07:37:16Z</time>
      </trkpt>
      <trkpt lat="43.44396" lon="1.04265">
        <ele>312.8</ele>
        <time>2024-05-20T07:37:17Z</time>
      </trkpt>
      <trkpt lat="43.44402" lon="1.04251">
        <ele>312</ele>
        <time>2024-05-20T07:37:18Z</time>
      </trkpt>
      <trkpt lat="43.44409" lon="1.04237">
        <ele>311.4</ele>
        <time>2024-05-20T07:37:19Z</time>
      </trkpt>
      <trkpt lat="43.44416" lon="1.04225">
        <ele>311</ele>
        <time>2024-05-20T07:37:20Z</time>
      </trkpt>
      <trkpt lat="43.44425" lon="1.04214">
        <ele>310.4</ele>
        <time>2024-05-20T07:37:21Z</time>
      </trkpt>
      <trkpt lat="43.44433" lon="1.04204">
        <ele>309.8</ele>
        <time>2024-05-20T07:37:22Z</time>
      </trkpt>
      <trkpt lat="43.44443" lon="1.04195">
        <ele>308.8</ele>
        <time>2024-05-20T07:37:23Z</time>
      </trkpt>
      <trkpt lat="43.44452" lon="1.04187">
        <ele>308.6</ele>
        <time>2024-05-20T07:37:24Z</time>
      </trkpt>
      <trkpt lat="43.44462" lon="1.0418">
        <ele>307.8</ele>
        <time>2024-05-20T07:37:25Z</time>
      </trkpt>
      <trkpt lat="43.44472" lon="1.04173">
        <ele>307.6</ele>
        <time>2024-05-20T07:37:26Z</time>
      </trkpt>
      <trkpt lat="43.44481" lon="1.04167">
        <ele>306.8</ele>
        <time>2024-05-20T07:37:27Z</time>
      </trkpt>
      <trkpt lat="43.4449" lon="1.04161">
        <ele>306.2</ele>
        <time>2024-05-20T07:37:28Z</time>
      </trkpt>
      <trkpt lat="43.44498" lon="1.04154">
        <ele>306</ele>
        <time>2024-05-20T07:37:29Z</time>
      </trkpt>
      <trkpt lat="43.44506" lon="1.04148">
        <ele>305.8</ele>
        <time>2024-05-20T07:37:30Z</time>
      </trkpt>
      <trkpt lat="43.44514" lon="1.04142">
        <ele>305.8</ele>
        <time>2024-05-20T07:37:31Z</time>
      </trkpt>
      <trkpt lat="43.44523" lon="1.04135">
        <ele>305.8</ele>
        <time>2024-05-20T07:37:32Z</time>
      </trkpt>
      <trkpt lat="43.44528" lon="1.04129">
        <ele>305.6</ele>
        <time>2024-05-20T07:37:33Z</time>
      </trkpt>
      <trkpt lat="43.44535" lon="1.04122">
        <ele>305.6</ele>
        <time>2024-05-20T07:37:34Z</time>
      </trkpt>
      <trkpt lat="43.44541" lon="1.04114">
        <ele>305.8</ele>
        <time>2024-05-20T07:37:35Z</time>
      </trkpt>
      <trkpt lat="43.44547" lon="1.04106">
        <ele>305.8</ele>
        <time>2024-05-20T07:37:36Z</time>
      </trkpt>
      <trkpt lat="43.44552" lon="1.04097">
        <ele>306</ele>
        <time>2024-05-20T07:37:37Z</time>
      </trkpt>
      <trkpt lat="43.44558" lon="1.04089">
        <ele>306.2</ele>
        <time>2024-05-20T07:37:38Z</time>
      </trkpt>
      <trkpt lat="43.44562" lon="1.04079">
        <ele>306.6</ele>
        <time>2024-05-20T07:37:39Z</time>
      </trkpt>
      <trkpt lat="43.44567" lon="1.0407">
        <ele>306.6</ele>
        <time>2024-05-20T07:37:40Z</time>
      </trkpt>
      <trkpt lat="43.44567" lon="1.0407">
        <ele>307.2</ele>
        <time>2024-05-20T07:37:41Z</time>
      </trkpt>
      <trkpt lat="43.44575" lon="1.04052">
        <ele>307.4</ele>
        <time>2024-05-20T07:37:42Z</time>
      </trkpt>
      <trkpt lat="43.44579" lon="1.04043">
        <ele>307.8</ele>
        <time>2024-05-20T07:37:43Z</time>
      </trkpt>
      <trkpt lat="43.44582" lon="1.04034">
        <ele>308</ele>
        <time>2024-05-20T07:37:44Z</time>
      </trkpt>
      <trkpt lat="43.44586" lon="1.04025">
        <ele>308</ele>
        <time>2024-05-20T07:37:45Z</time>
      </trkpt>
      <trkpt lat="43.4459" lon="1.04016">
        <ele>308.2</ele>
        <time>2024-05-20T07:37:46Z</time>
      </trkpt>
      <trkpt lat="43.44593" lon="1.04007">
        <ele>308.4</ele>
        <time>2024-05-20T07:37:47Z</time>
      </trkpt>
      <trkpt lat="43.44597" lon="1.03998">
        <ele>308.8</ele>
        <time>2024-05-20T07:37:48Z</time>
      </trkpt>
      <trkpt lat="43.446" lon="1.03989">
        <ele>308.8</ele>
        <time>2024-05-20T07:37:49Z</time>
      </trkpt>
      <trkpt lat="43.44603" lon="1.0398">
        <ele>309</ele>
        <time>2024-05-20T07:37:50Z</time>
      </trkpt>
      <trkpt lat="43.44606" lon="1.03972">
        <ele>309.2</ele>
        <time>2024-05-20T07:37:51Z</time>
      </trkpt>
      <trkpt lat="43.44609" lon="1.03963">
        <ele>309.4</ele>
        <time>2024-05-20T07:37:52Z</time>
      </trkpt>
      <trkpt lat="43.44611" lon="1.03955">
        <ele>309.6</ele>
        <time>2024-05-20T07:37:53Z</time>
      </trkpt>
      <trkpt lat="43.44614" lon="1.03947">
        <ele>309.8</ele>
        <time>2024-05-20T07:37:54Z</time>
      </trkpt>
      <trkpt lat="43.44617" lon="1.03939">
        <ele>310.2</ele>
        <time>2024-05-20T07:37:55Z</time>
      </trkpt>
      <trkpt lat="43.44619" lon="1.03931">
        <ele>310.2</ele>
        <time>2024-05-20T07:37:56Z</time>
      </trkpt>
      <trkpt lat="43.44622" lon="1.03923">
        <ele>310.4</ele>
        <time>2024-05-20T07:37:57Z</time>
      </trkpt>
      <trkpt lat="43.44624" lon="1.03915">
        <ele>310.8</ele>
        <time>2024-05-20T07:37:58Z</time>
      </trkpt>
      <trkpt lat="43.44627" lon="1.03906">
        <ele>311</ele>
        <time>2024-05-20T07:37:59Z</time>
      </trkpt>
      <trkpt lat="43.44629" lon="1.03897">
        <ele>311.2</ele>
        <time>2024-05-20T07:38:00Z</time>
      </trkpt>
      <trkpt lat="43.44631" lon="1.03887">
        <ele>311.4</ele>
        <time>2024-05-20T07:38:01Z</time>
      </trkpt>
      <trkpt lat="43.44633" lon="1.03878">
        <ele>311.6</ele>
        <time>2024-05-20T07:38:02Z</time>
      </trkpt>
      <trkpt lat="43.44635" lon="1.03868">
        <ele>311.6</ele>
        <time>2024-05-20T07:38:03Z</time>
      </trkpt>
      <trkpt lat="43.44637" lon="1.03858">
        <ele>311.8</ele>
        <time>2024-05-20T07:38:04Z</time>
      </trkpt>
      <trkpt lat="43.44639" lon="1.03849">
        <ele>312</ele>
        <time>2024-05-20T07:38:05Z</time>
      </trkpt>
      <trkpt lat="43.44642" lon="1.0384">
        <ele>312</ele>
        <time>2024-05-20T07:38:06Z</time>
      </trkpt>
      <trkpt lat="43.44644" lon="1.03831">
        <ele>312</ele>
        <time>2024-05-20T07:38:07Z</time>
      </trkpt>
      <trkpt lat="43.44646" lon="1.03821">
        <ele>312</ele>
        <time>2024-05-20T07:38:08Z</time>
      </trkpt>
      <trkpt lat="43.44648" lon="1.03812">
        <ele>312</ele>
        <time>2024-05-20T07:38:09Z</time>
      </trkpt>
      <trkpt lat="43.4465" lon="1.03802">
        <ele>312.2</ele>
        <time>2024-05-20T07:38:10Z</time>
      </trkpt>
      <trkpt lat="43.44651" lon="1.03792">
        <ele>312.2</ele>
        <time>2024-05-20T07:38:11Z</time>
      </trkpt>
      <trkpt lat="43.44653" lon="1.03782">
        <ele>312.2</ele>
        <time>2024-05-20T07:38:12Z</time>
      </trkpt>
      <trkpt lat="43.44654" lon="1.03772">
        <ele>312.2</ele>
        <time>2024-05-20T07:38:13Z</time>
      </trkpt>
      <trkpt lat="43.44656" lon="1.03763">
        <ele>312.4</ele>
        <time>2024-05-20T07:38:14Z</time>
      </trkpt>
      <trkpt lat="43.44657" lon="1.03753">
        <ele>312.4</ele>
        <time>2024-05-20T07:38:15Z</time>
      </trkpt>
      <trkpt lat="43.44657" lon="1.03753">
        <ele>312.6</ele>
        <time>2024-05-20T07:38:16Z</time>
      </trkpt>
      <trkpt lat="43.44659" lon="1.03734">
        <ele>312.6</ele>
        <time>2024-05-20T07:38:17Z</time>
      </trkpt>
      <trkpt lat="43.44661" lon="1.03725">
        <ele>312.6</ele>
        <time>2024-05-20T07:38:18Z</time>
      </trkpt>
      <trkpt lat="43.44662" lon="1.03716">
        <ele>313</ele>
        <time>2024-05-20T07:38:19Z</time>
      </trkpt>
      <trkpt lat="43.44663" lon="1.03707">
        <ele>313.2</ele>
        <time>2024-05-20T07:38:20Z</time>
      </trkpt>
      <trkpt lat="43.44664" lon="1.03698">
        <ele>313.2</ele>
        <time>2024-05-20T07:38:21Z</time>
      </trkpt>
      <trkpt lat="43.44665" lon="1.03689">
        <ele>313.4</ele>
        <time>2024-05-20T07:38:22Z</time>
      </trkpt>
      <trkpt lat="43.44666" lon="1.0368">
        <ele>313.4</ele>
        <time>2024-05-20T07:38:23Z</time>
      </trkpt>
      <trkpt lat="43.44667" lon="1.03671">
        <ele>313.8</ele>
        <time>2024-05-20T07:38:24Z</time>
      </trkpt>
      <trkpt lat="43.44668" lon="1.03662">
        <ele>314</ele>
        <time>2024-05-20T07:38:25Z</time>
      </trkpt>
      <trkpt lat="43.4467" lon="1.03653">
        <ele>314.4</ele>
        <time>2024-05-20T07:38:26Z</time>
      </trkpt>
      <trkpt lat="43.44671" lon="1.03646">
        <ele>314.6</ele>
        <time>2024-05-20T07:38:27Z</time>
      </trkpt>
      <trkpt lat="43.44672" lon="1.03635">
        <ele>314.8</ele>
        <time>2024-05-20T07:38:28Z</time>
      </trkpt>
      <trkpt lat="43.44673" lon="1.03625">
        <ele>315</ele>
        <time>2024-05-20T07:38:29Z</time>
      </trkpt>
      <trkpt lat="43.44674" lon="1.03615">
        <ele>315</ele>
        <time>2024-05-20T07:38:30Z</time>
      </trkpt>
      <trkpt lat="43.44675" lon="1.03607">
        <ele>315.2</ele>
        <time>2024-05-20T07:38:31Z</time>
      </trkpt>
      <trkpt lat="43.44678" lon="1.03595">
        <ele>315.2</ele>
        <time>2024-05-20T07:38:32Z</time>
      </trkpt>
      <trkpt lat="43.44679" lon="1.03585">
        <ele>315.2</ele>
        <time>2024-05-20T07:38:33Z</time>
      </trkpt>
      <trkpt lat="43.44681" lon="1.03575">
        <ele>315.2</ele>
        <time>2024-05-20T07:38:34Z</time>
      </trkpt>
      <trkpt lat="43.44683" lon="1.03564">
        <ele>315.2</ele>
        <time>2024-05-20T07:38:35Z</time>
      </trkpt>
      <trkpt lat="43.44686" lon="1.03554">
        <ele>315.2</ele>
        <time>2024-05-20T07:38:36Z</time>
      </trkpt>
      <trkpt lat="43.44688" lon="1.03544">
        <ele>315.2</ele>
        <time>2024-05-20T07:38:37Z</time>
      </trkpt>
      <trkpt lat="43.44691" lon="1.03533">
        <ele>315</ele>
        <time>2024-05-20T07:38:38Z</time>
      </trkpt>
      <trkpt lat="43.44694" lon="1.03522">
        <ele>315</ele>
        <time>2024-05-20T07:38:39Z</time>
      </trkpt>
      <trkpt lat="43.44697" lon="1.03512">
        <ele>314.4</ele>
        <time>2024-05-20T07:38:40Z</time>
      </trkpt>
      <trkpt lat="43.44701" lon="1.03501">
        <ele>314.2</ele>
        <time>2024-05-20T07:38:41Z</time>
      </trkpt>
      <trkpt lat="43.44704" lon="1.0349">
        <ele>314</ele>
        <time>2024-05-20T07:38:42Z</time>
      </trkpt>
      <trkpt lat="43.44707" lon="1.0348">
        <ele>314</ele>
        <time>2024-05-20T07:38:43Z</time>
      </trkpt>
      <trkpt lat="43.44711" lon="1.03469">
        <ele>313.8</ele>
        <time>2024-05-20T07:38:44Z</time>
      </trkpt>
      <trkpt lat="43.44714" lon="1.03457">
        <ele>313.8</ele>
        <time>2024-05-20T07:38:45Z</time>
      </trkpt>
      <trkpt lat="43.44718" lon="1.03446">
        <ele>313.8</ele>
        <time>2024-05-20T07:38:46Z</time>
      </trkpt>
      <trkpt lat="43.44721" lon="1.03435">
        <ele>313.4</ele>
        <time>2024-05-20T07:38:47Z</time>
      </trkpt>
      <trkpt lat="43.44725" lon="1.03423">
        <ele>313.4</ele>
        <time>2024-05-20T07:38:48Z</time>
      </trkpt>
      <trkpt lat="43.44728" lon="1.03412">
        <ele>313.2</ele>
        <time>2024-05-20T07:38:49Z</time>
      </trkpt>
      <trkpt lat="43.44731" lon="1.034">
        <ele>313</ele>
        <time>2024-05-20T07:38:50Z</time>
      </trkpt>
      <trkpt lat="43.44733" lon="1.03388">
        <ele>312.8</ele>
        <time>2024-05-20T07:38:51Z</time>
      </trkpt>
      <trkpt lat="43.44734" lon="1.03377">
        <ele>312.6</ele>
        <time>2024-05-20T07:38:52Z</time>
      </trkpt>
      <trkpt lat="43.44735" lon="1.03366">
        <ele>312.4</ele>
        <time>2024-05-20T07:38:53Z</time>
      </trkpt>
      <trkpt lat="43.44736" lon="1.03355">
        <ele>312.4</ele>
        <time>2024-05-20T07:38:54Z</time>
      </trkpt>
      <trkpt lat="43.44736" lon="1.03345">
        <ele>312.4</ele>
        <time>2024-05-20T07:38:55Z</time>
      </trkpt>
      <trkpt lat="43.44735" lon="1.03334">
        <ele>312.4</ele>
        <time>2024-05-20T07:38:56Z</time>
      </trkpt>
      <trkpt lat="43.44733" lon="1.03325">
        <ele>312.4</ele>
        <time>2024-05-20T07:38:57Z</time>
      </trkpt>
      <trkpt lat="43.44731" lon="1.03314">
        <ele>312.4</ele>
        <time>2024-05-20T07:38:58Z</time>
      </trkpt>
      <trkpt lat="43.44729" lon="1.03307">
        <ele>312.4</ele>
        <time>2024-05-20T07:38:59Z</time>
      </trkpt>
      <trkpt lat="43.44726" lon="1.03299">
        <ele>312.8</ele>
        <time>2024-05-20T07:39:00Z</time>
      </trkpt>
      <trkpt lat="43.44724" lon="1.03291">
        <ele>313</ele>
        <time>2024-05-20T07:39:01Z</time>
      </trkpt>
      <trkpt lat="43.44721" lon="1.03284">
        <ele>313.6</ele>
        <time>2024-05-20T07:39:02Z</time>
      </trkpt>
      <trkpt lat="43.44718" lon="1.03275">
        <ele>313.8</ele>
        <time>2024-05-20T07:39:03Z</time>
      </trkpt>
      <trkpt lat="43.44716" lon="1.03269">
        <ele>314.4</ele>
        <time>2024-05-20T07:39:04Z</time>
      </trkpt>
      <trkpt lat="43.44713" lon="1.03262">
        <ele>315.4</ele>
        <time>2024-05-20T07:39:05Z</time>
      </trkpt>
      <trkpt lat="43.44711" lon="1.03254">
        <ele>315.6</ele>
        <time>2024-05-20T07:39:06Z</time>
      </trkpt>
      <trkpt lat="43.44709" lon="1.03247">
        <ele>316</ele>
        <time>2024-05-20T07:39:07Z</time>
      </trkpt>
      <trkpt lat="43.44707" lon="1.0324">
        <ele>316.6</ele>
        <time>2024-05-20T07:39:08Z</time>
      </trkpt>
      <trkpt lat="43.44705" lon="1.03233">
        <ele>317.2</ele>
        <time>2024-05-20T07:39:09Z</time>
      </trkpt>
      <trkpt lat="43.44703" lon="1.03226">
        <ele>317.4</ele>
        <time>2024-05-20T07:39:10Z</time>
      </trkpt>
      <trkpt lat="43.447" lon="1.03219">
        <ele>318</ele>
        <time>2024-05-20T07:39:11Z</time>
      </trkpt>
      <trkpt lat="43.44697" lon="1.03211">
        <ele>318.2</ele>
        <time>2024-05-20T07:39:12Z</time>
      </trkpt>
      <trkpt lat="43.44695" lon="1.03203">
        <ele>318.8</ele>
        <time>2024-05-20T07:39:13Z</time>
      </trkpt>
      <trkpt lat="43.44693" lon="1.03196">
        <ele>319.4</ele>
        <time>2024-05-20T07:39:14Z</time>
      </trkpt>
      <trkpt lat="43.4469" lon="1.03188">
        <ele>319.8</ele>
        <time>2024-05-20T07:39:15Z</time>
      </trkpt>
      <trkpt lat="43.44686" lon="1.03181">
        <ele>320.2</ele>
        <time>2024-05-20T07:39:16Z</time>
      </trkpt>
      <trkpt lat="43.44682" lon="1.03175">
        <ele>320.6</ele>
        <time>2024-05-20T07:39:17Z</time>
      </trkpt>
      <trkpt lat="43.44679" lon="1.03169">
        <ele>321</ele>
        <time>2024-05-20T07:39:18Z</time>
      </trkpt>
      <trkpt lat="43.44674" lon="1.03162">
        <ele>321.2</ele>
        <time>2024-05-20T07:39:19Z</time>
      </trkpt>
      <trkpt lat="43.4467" lon="1.03156">
        <ele>321.8</ele>
        <time>2024-05-20T07:39:20Z</time>
      </trkpt>
      <trkpt lat="43.44666" lon="1.0315">
        <ele>322.6</ele>
        <time>2024-05-20T07:39:21Z</time>
      </trkpt>
      <trkpt lat="43.44663" lon="1.03143">
        <ele>323</ele>
        <time>2024-05-20T07:39:22Z</time>
      </trkpt>
      <trkpt lat="43.4466" lon="1.03137">
        <ele>323.6</ele>
        <time>2024-05-20T07:39:23Z</time>
      </trkpt>
      <trkpt lat="43.44657" lon="1.0313">
        <ele>323.8</ele>
        <time>2024-05-20T07:39:24Z</time>
      </trkpt>
      <trkpt lat="43.44655" lon="1.03123">
        <ele>324.2</ele>
        <time>2024-05-20T07:39:25Z</time>
      </trkpt>
      <trkpt lat="43.44654" lon="1.03116">
        <ele>324.4</ele>
        <time>2024-05-20T07:39:26Z</time>
      </trkpt>
      <trkpt lat="43.44653" lon="1.03109">
        <ele>325.2</ele>
        <time>2024-05-20T07:39:27Z</time>
      </trkpt>
      <trkpt lat="43.44652" lon="1.03103">
        <ele>325.4</ele>
        <time>2024-05-20T07:39:28Z</time>
      </trkpt>
      <trkpt lat="43.44652" lon="1.03096">
        <ele>325.8</ele>
        <time>2024-05-20T07:39:29Z</time>
      </trkpt>
      <trkpt lat="43.44653" lon="1.0309">
        <ele>326.4</ele>
        <time>2024-05-20T07:39:30Z</time>
      </trkpt>
      <trkpt lat="43.44653" lon="1.03083">
        <ele>326.6</ele>
        <time>2024-05-20T07:39:31Z</time>
      </trkpt>
      <trkpt lat="43.44654" lon="1.03076">
        <ele>326.8</ele>
        <time>2024-05-20T07:39:32Z</time>
      </trkpt>
      <trkpt lat="43.44655" lon="1.03069">
        <ele>327</ele>
        <time>2024-05-20T07:39:33Z</time>
      </trkpt>
      <trkpt lat="43.44657" lon="1.03062">
        <ele>327</ele>
        <time>2024-05-20T07:39:34Z</time>
      </trkpt>
      <trkpt lat="43.44659" lon="1.03055">
        <ele>327</ele>
        <time>2024-05-20T07:39:35Z</time>
      </trkpt>
      <trkpt lat="43.4466" lon="1.03048">
        <ele>327.2</ele>
        <time>2024-05-20T07:39:36Z</time>
      </trkpt>
      <trkpt lat="43.44662" lon="1.0304">
        <ele>327.2</ele>
        <time>2024-05-20T07:39:37Z</time>
      </trkpt>
      <trkpt lat="43.44664" lon="1.03032">
        <ele>327.2</ele>
        <time>2024-05-20T07:39:38Z</time>
      </trkpt>
      <trkpt lat="43.44666" lon="1.03023">
        <ele>327.2</ele>
        <time>2024-05-20T07:39:39Z</time>
      </trkpt>
      <trkpt lat="43.44668" lon="1.03014">
        <ele>327.2</ele>
        <time>2024-05-20T07:39:40Z</time>
      </trkpt>
      <trkpt lat="43.4467" lon="1.03005">
        <ele>327</ele>
        <time>2024-05-20T07:39:41Z</time>
      </trkpt>
      <trkpt lat="43.44672" lon="1.02995">
        <ele>326.8</ele>
        <time>2024-05-20T07:39:42Z</time>
      </trkpt>
      <trkpt lat="43.44675" lon="1.02985">
        <ele>326.4</ele>
        <time>2024-05-20T07:39:43Z</time>
      </trkpt>
      <trkpt lat="43.44677" lon="1.02975">
        <ele>326.2</ele>
        <time>2024-05-20T07:39:44Z</time>
      </trkpt>
      <trkpt lat="43.4468" lon="1.02964">
        <ele>326</ele>
        <time>2024-05-20T07:39:45Z</time>
      </trkpt>
      <trkpt lat="43.44682" lon="1.02953">
        <ele>325.6</ele>
        <time>2024-05-20T07:39:46Z</time>
      </trkpt>
      <trkpt lat="43.44685" lon="1.02943">
        <ele>325</ele>
        <time>2024-05-20T07:39:47Z</time>
      </trkpt>
      <trkpt lat="43.44687" lon="1.02931">
        <ele>324.4</ele>
        <time>2024-05-20T07:39:48Z</time>
      </trkpt>
      <trkpt lat="43.4469" lon="1.0292">
        <ele>324.2</ele>
        <time>2024-05-20T07:39:49Z</time>
      </trkpt>
      <trkpt lat="43.44692" lon="1.02909">
        <ele>323.8</ele>
        <time>2024-05-20T07:39:50Z</time>
      </trkpt>
      <trkpt lat="43.44695" lon="1.02897">
        <ele>323.4</ele>
        <time>2024-05-20T07:39:51Z</time>
      </trkpt>
      <trkpt lat="43.44697" lon="1.02886">
        <ele>323</ele>
        <time>2024-05-20T07:39:52Z</time>
      </trkpt>
      <trkpt lat="43.44701" lon="1.02876">
        <ele>322.8</ele>
        <time>2024-05-20T07:39:53Z</time>
      </trkpt>
      <trkpt lat="43.44704" lon="1.02865">
        <ele>322.4</ele>
        <time>2024-05-20T07:39:54Z</time>
      </trkpt>
      <trkpt lat="43.44707" lon="1.02854">
        <ele>322.2</ele>
        <time>2024-05-20T07:39:55Z</time>
      </trkpt>
      <trkpt lat="43.44709" lon="1.02844">
        <ele>321.6</ele>
        <time>2024-05-20T07:39:56Z</time>
      </trkpt>
      <trkpt lat="43.44713" lon="1.02831">
        <ele>321.4</ele>
        <time>2024-05-20T07:39:57Z</time>
      </trkpt>
      <trkpt lat="43.44715" lon="1.02822">
        <ele>321.2</ele>
        <time>2024-05-20T07:39:58Z</time>
      </trkpt>
      <trkpt lat="43.44717" lon="1.02812">
        <ele>321.2</ele>
        <time>2024-05-20T07:39:59Z</time>
      </trkpt>
      <trkpt lat="43.4472" lon="1.02801">
        <ele>321</ele>
        <time>2024-05-20T07:40:00Z</time>
      </trkpt>
      <trkpt lat="43.44722" lon="1.0279">
        <ele>321</ele>
        <time>2024-05-20T07:40:01Z</time>
      </trkpt>
      <trkpt lat="43.44724" lon="1.0278">
        <ele>321</ele>
        <time>2024-05-20T07:40:02Z</time>
      </trkpt>
      <trkpt lat="43.44726" lon="1.02769">
        <ele>321</ele>
        <time>2024-05-20T07:40:03Z</time>
      </trkpt>
      <trkpt lat="43.44727" lon="1.02758">
        <ele>320.8</ele>
        <time>2024-05-20T07:40:04Z</time>
      </trkpt>
      <trkpt lat="43.44728" lon="1.02747">
        <ele>320.8</ele>
        <time>2024-05-20T07:40:05Z</time>
      </trkpt>
      <trkpt lat="43.44728" lon="1.02736">
        <ele>320.8</ele>
        <time>2024-05-20T07:40:06Z</time>
      </trkpt>
      <trkpt lat="43.44728" lon="1.02726">
        <ele>320.8</ele>
        <time>2024-05-20T07:40:07Z</time>
      </trkpt>
      <trkpt lat="43.44727" lon="1.02715">
        <ele>320.8</ele>
        <time>2024-05-20T07:40:08Z</time>
      </trkpt>
      <trkpt lat="43.44726" lon="1.02704">
        <ele>320.8</ele>
        <time>2024-05-20T07:40:09Z</time>
      </trkpt>
      <trkpt lat="43.44726" lon="1.02694">
        <ele>320.8</ele>
        <time>2024-05-20T07:40:10Z</time>
      </trkpt>
      <trkpt lat="43.44726" lon="1.02684">
        <ele>320.8</ele>
        <time>2024-05-20T07:40:11Z</time>
      </trkpt>
      <trkpt lat="43.44726" lon="1.02673">
        <ele>320.8</ele>
        <time>2024-05-20T07:40:12Z</time>
      </trkpt>
      <trkpt lat="43.44726" lon="1.02663">
        <ele>320.8</ele>
        <time>2024-05-20T07:40:13Z</time>
      </trkpt>
      <trkpt lat="43.44728" lon="1.02653">
        <ele>320.8</ele>
        <time>2024-05-20T07:40:14Z</time>
      </trkpt>
      <trkpt lat="43.44729" lon="1.02643">
        <ele>321</ele>
        <time>2024-05-20T07:40:15Z</time>
      </trkpt>
      <trkpt lat="43.44731" lon="1.02634">
        <ele>321</ele>
        <time>2024-05-20T07:40:16Z</time>
      </trkpt>
      <trkpt lat="43.44733" lon="1.02624">
        <ele>321</ele>
        <time>2024-05-20T07:40:17Z</time>
      </trkpt>
      <trkpt lat="43.44735" lon="1.02615">
        <ele>321</ele>
        <time>2024-05-20T07:40:18Z</time>
      </trkpt>
      <trkpt lat="43.44736" lon="1.02605">
        <ele>321</ele>
        <time>2024-05-20T07:40:19Z</time>
      </trkpt>
      <trkpt lat="43.44738" lon="1.02596">
        <ele>321</ele>
        <time>2024-05-20T07:40:20Z</time>
      </trkpt>
      <trkpt lat="43.44739" lon="1.02587">
        <ele>321</ele>
        <time>2024-05-20T07:40:21Z</time>
      </trkpt>
      <trkpt lat="43.44741" lon="1.02578">
        <ele>321</ele>
        <time>2024-05-20T07:40:22Z</time>
      </trkpt>
      <trkpt lat="43.44742" lon="1.02569">
        <ele>321</ele>
        <time>2024-05-20T07:40:23Z</time>
      </trkpt>
      <trkpt lat="43.44744" lon="1.0256">
        <ele>321</ele>
        <time>2024-05-20T07:40:24Z</time>
      </trkpt>
      <trkpt lat="43.44746" lon="1.0255">
        <ele>320.8</ele>
        <time>2024-05-20T07:40:25Z</time>
      </trkpt>
      <trkpt lat="43.44748" lon="1.0254">
        <ele>320.6</ele>
        <time>2024-05-20T07:40:26Z</time>
      </trkpt>
      <trkpt lat="43.4475" lon="1.0253">
        <ele>320.4</ele>
        <time>2024-05-20T07:40:27Z</time>
      </trkpt>
      <trkpt lat="43.44752" lon="1.02519">
        <ele>320.2</ele>
        <time>2024-05-20T07:40:28Z</time>
      </trkpt>
      <trkpt lat="43.44754" lon="1.02508">
        <ele>320</ele>
        <time>2024-05-20T07:40:29Z</time>
      </trkpt>
      <trkpt lat="43.44756" lon="1.02497">
        <ele>319.8</ele>
        <time>2024-05-20T07:40:30Z</time>
      </trkpt>
      <trkpt lat="43.44758" lon="1.02485">
        <ele>319.8</ele>
        <time>2024-05-20T07:40:31Z</time>
      </trkpt>
      <trkpt lat="43.4476" lon="1.02473">
        <ele>319.4</ele>
        <time>2024-05-20T07:40:32Z</time>
      </trkpt>
      <trkpt lat="43.44762" lon="1.02462">
        <ele>319.4</ele>
        <time>2024-05-20T07:40:33Z</time>
      </trkpt>
      <trkpt lat="43.44764" lon="1.0245">
        <ele>319.4</ele>
        <time>2024-05-20T07:40:34Z</time>
      </trkpt>
      <trkpt lat="43.44766" lon="1.02438">
        <ele>319.2</ele>
        <time>2024-05-20T07:40:35Z</time>
      </trkpt>
      <trkpt lat="43.44768" lon="1.02427">
        <ele>319</ele>
        <time>2024-05-20T07:40:36Z</time>
      </trkpt>
      <trkpt lat="43.4477" lon="1.02415">
        <ele>318.8</ele>
        <time>2024-05-20T07:40:37Z</time>
      </trkpt>
      <trkpt lat="43.44772" lon="1.02403">
        <ele>318.6</ele>
        <time>2024-05-20T07:40:38Z</time>
      </trkpt>
      <trkpt lat="43.44774" lon="1.02392">
        <ele>318.4</ele>
        <time>2024-05-20T07:40:39Z</time>
      </trkpt>
      <trkpt lat="43.44775" lon="1.0238">
        <ele>318.2</ele>
        <time>2024-05-20T07:40:40Z</time>
      </trkpt>
      <trkpt lat="43.44777" lon="1.02368">
        <ele>317.8</ele>
        <time>2024-05-20T07:40:41Z</time>
      </trkpt>
      <trkpt lat="43.4478" lon="1.02355">
        <ele>317.6</ele>
        <time>2024-05-20T07:40:42Z</time>
      </trkpt>
      <trkpt lat="43.44782" lon="1.02342">
        <ele>317.4</ele>
        <time>2024-05-20T07:40:43Z</time>
      </trkpt>
      <trkpt lat="43.44784" lon="1.02329">
        <ele>317.2</ele>
        <time>2024-05-20T07:40:44Z</time>
      </trkpt>
      <trkpt lat="43.44786" lon="1.02316">
        <ele>317.2</ele>
        <time>2024-05-20T07:40:45Z</time>
      </trkpt>
      <trkpt lat="43.44789" lon="1.02302">
        <ele>316.8</ele>
        <time>2024-05-20T07:40:46Z</time>
      </trkpt>
      <trkpt lat="43.44791" lon="1.02288">
        <ele>316.6</ele>
        <time>2024-05-20T07:40:47Z</time>
      </trkpt>
      <trkpt lat="43.44794" lon="1.02274">
        <ele>316</ele>
        <time>2024-05-20T07:40:48Z</time>
      </trkpt>
      <trkpt lat="43.44796" lon="1.02259">
        <ele>315.2</ele>
        <time>2024-05-20T07:40:49Z</time>
      </trkpt>
      <trkpt lat="43.44799" lon="1.02243">
        <ele>314.8</ele>
        <time>2024-05-20T07:40:50Z</time>
      </trkpt>
      <trkpt lat="43.44802" lon="1.02228">
        <ele>314.2</ele>
        <time>2024-05-20T07:40:51Z</time>
      </trkpt>
      <trkpt lat="43.44805" lon="1.02212">
        <ele>314</ele>
        <time>2024-05-20T07:40:52Z</time>
      </trkpt>
      <trkpt lat="43.44808" lon="1.02197">
        <ele>313</ele>
        <time>2024-05-20T07:40:53Z</time>
      </trkpt>
      <trkpt lat="43.4481" lon="1.02181">
        <ele>312.8</ele>
        <time>2024-05-20T07:40:54Z</time>
      </trkpt>
      <trkpt lat="43.44811" lon="1.02165">
        <ele>312</ele>
        <time>2024-05-20T07:40:55Z</time>
      </trkpt>
      <trkpt lat="43.4481" lon="1.02149">
        <ele>311.6</ele>
        <time>2024-05-20T07:40:56Z</time>
      </trkpt>
      <trkpt lat="43.44807" lon="1.02134">
        <ele>310.6</ele>
        <time>2024-05-20T07:40:57Z</time>
      </trkpt>
      <trkpt lat="43.44798" lon="1.02121">
        <ele>309.6</ele>
        <time>2024-05-20T07:40:58Z</time>
      </trkpt>
      <trkpt lat="43.44789" lon="1.02111">
        <ele>309.2</ele>
        <time>2024-05-20T07:40:59Z</time>
      </trkpt>
      <trkpt lat="43.44777" lon="1.02105">
        <ele>308.2</ele>
        <time>2024-05-20T07:41:00Z</time>
      </trkpt>
      <trkpt lat="43.44766" lon="1.02101">
        <ele>307.6</ele>
        <time>2024-05-20T07:41:01Z</time>
      </trkpt>
      <trkpt lat="43.44754" lon="1.02098">
        <ele>306.6</ele>
        <time>2024-05-20T07:41:02Z</time>
      </trkpt>
      <trkpt lat="43.44742" lon="1.02092">
        <ele>306.2</ele>
        <time>2024-05-20T07:41:03Z</time>
      </trkpt>
      <trkpt lat="43.44732" lon="1.02086">
        <ele>305.2</ele>
        <time>2024-05-20T07:41:04Z</time>
      </trkpt>
      <trkpt lat="43.44722" lon="1.02077">
        <ele>305</ele>
        <time>2024-05-20T07:41:05Z</time>
      </trkpt>
      <trkpt lat="43.44714" lon="1.02066">
        <ele>304</ele>
        <time>2024-05-20T07:41:06Z</time>
      </trkpt>
      <trkpt lat="43.44708" lon="1.02053">
        <ele>303</ele>
        <time>2024-05-20T07:41:07Z</time>
      </trkpt>
      <trkpt lat="43.44705" lon="1.0204">
        <ele>302.6</ele>
        <time>2024-05-20T07:41:08Z</time>
      </trkpt>
      <trkpt lat="43.44705" lon="1.02025">
        <ele>301.8</ele>
        <time>2024-05-20T07:41:09Z</time>
      </trkpt>
      <trkpt lat="43.44705" lon="1.02015">
        <ele>301.4</ele>
        <time>2024-05-20T07:41:10Z</time>
      </trkpt>
      <trkpt lat="43.44707" lon="1.02003">
        <ele>300.8</ele>
        <time>2024-05-20T07:41:11Z</time>
      </trkpt>
      <trkpt lat="43.4471" lon="1.01991">
        <ele>300.6</ele>
        <time>2024-05-20T07:41:12Z</time>
      </trkpt>
      <trkpt lat="43.44713" lon="1.0198">
        <ele>300.4</ele>
        <time>2024-05-20T07:41:13Z</time>
      </trkpt>
      <trkpt lat="43.44715" lon="1.01969">
        <ele>300.4</ele>
        <time>2024-05-20T07:41:14Z</time>
      </trkpt>
      <trkpt lat="43.44718" lon="1.01958">
        <ele>300.4</ele>
        <time>2024-05-20T07:41:15Z</time>
      </trkpt>
      <trkpt lat="43.44721" lon="1.01948">
        <ele>300.4</ele>
        <time>2024-05-20T07:41:16Z</time>
      </trkpt>
      <trkpt lat="43.44724" lon="1.01937">
        <ele>300.6</ele>
        <time>2024-05-20T07:41:17Z</time>
      </trkpt>
      <trkpt lat="43.44727" lon="1.01926">
        <ele>300.6</ele>
        <time>2024-05-20T07:41:18Z</time>
      </trkpt>
      <trkpt lat="43.4473" lon="1.01915">
        <ele>300.8</ele>
        <time>2024-05-20T07:41:19Z</time>
      </trkpt>
      <trkpt lat="43.44733" lon="1.01905">
        <ele>300.8</ele>
        <time>2024-05-20T07:41:20Z</time>
      </trkpt>
      <trkpt lat="43.44736" lon="1.01895">
        <ele>300.8</ele>
        <time>2024-05-20T07:41:21Z</time>
      </trkpt>
      <trkpt lat="43.44739" lon="1.01884">
        <ele>301</ele>
        <time>2024-05-20T07:41:22Z</time>
      </trkpt>
      <trkpt lat="43.44742" lon="1.01874">
        <ele>301</ele>
        <time>2024-05-20T07:41:23Z</time>
      </trkpt>
      <trkpt lat="43.44745" lon="1.01864">
        <ele>301</ele>
        <time>2024-05-20T07:41:24Z</time>
      </trkpt>
      <trkpt lat="43.44748" lon="1.01854">
        <ele>301</ele>
        <time>2024-05-20T07:41:25Z</time>
      </trkpt>
      <trkpt lat="43.44751" lon="1.01844">
        <ele>301.2</ele>
        <time>2024-05-20T07:41:26Z</time>
      </trkpt>
      <trkpt lat="43.44754" lon="1.01834">
        <ele>301.4</ele>
        <time>2024-05-20T07:41:27Z</time>
      </trkpt>
      <trkpt lat="43.44757" lon="1.01825">
        <ele>301.4</ele>
        <time>2024-05-20T07:41:28Z</time>
      </trkpt>
      <trkpt lat="43.44759" lon="1.01816">
        <ele>301.6</ele>
        <time>2024-05-20T07:41:29Z</time>
      </trkpt>
      <trkpt lat="43.44762" lon="1.01808">
        <ele>301.8</ele>
        <time>2024-05-20T07:41:30Z</time>
      </trkpt>
      <trkpt lat="43.44764" lon="1.01799">
        <ele>301.8</ele>
        <time>2024-05-20T07:41:31Z</time>
      </trkpt>
      <trkpt lat="43.44767" lon="1.01791">
        <ele>302</ele>
        <time>2024-05-20T07:41:32Z</time>
      </trkpt>
      <trkpt lat="43.44769" lon="1.01783">
        <ele>302.2</ele>
        <time>2024-05-20T07:41:33Z</time>
      </trkpt>
      <trkpt lat="43.44771" lon="1.01775">
        <ele>302.6</ele>
        <time>2024-05-20T07:41:34Z</time>
      </trkpt>
      <trkpt lat="43.44773" lon="1.01768">
        <ele>302.6</ele>
        <time>2024-05-20T07:41:35Z</time>
      </trkpt>
      <trkpt lat="43.44775" lon="1.0176">
        <ele>302.8</ele>
        <time>2024-05-20T07:41:36Z</time>
      </trkpt>
      <trkpt lat="43.44777" lon="1.01752">
        <ele>303</ele>
        <time>2024-05-20T07:41:37Z</time>
      </trkpt>
      <trkpt lat="43.44778" lon="1.01745">
        <ele>303.4</ele>
        <time>2024-05-20T07:41:38Z</time>
      </trkpt>
      <trkpt lat="43.4478" lon="1.01738">
        <ele>303.4</ele>
        <time>2024-05-20T07:41:39Z</time>
      </trkpt>
      <trkpt lat="43.44782" lon="1.01731">
        <ele>303.8</ele>
        <time>2024-05-20T07:41:40Z</time>
      </trkpt>
      <trkpt lat="43.44784" lon="1.01725">
        <ele>304</ele>
        <time>2024-05-20T07:41:41Z</time>
      </trkpt>
      <trkpt lat="43.44785" lon="1.01718">
        <ele>304.6</ele>
        <time>2024-05-20T07:41:42Z</time>
      </trkpt>
      <trkpt lat="43.44786" lon="1.01711">
        <ele>305.2</ele>
        <time>2024-05-20T07:41:43Z</time>
      </trkpt>
      <trkpt lat="43.44787" lon="1.01703">
        <ele>305.4</ele>
        <time>2024-05-20T07:41:44Z</time>
      </trkpt>
      <trkpt lat="43.44788" lon="1.01696">
        <ele>305.6</ele>
        <time>2024-05-20T07:41:45Z</time>
      </trkpt>
      <trkpt lat="43.44789" lon="1.01688">
        <ele>305.6</ele>
        <time>2024-05-20T07:41:46Z</time>
      </trkpt>
      <trkpt lat="43.4479" lon="1.0168">
        <ele>305.8</ele>
        <time>2024-05-20T07:41:47Z</time>
      </trkpt>
      <trkpt lat="43.44791" lon="1.01672">
        <ele>306</ele>
        <time>2024-05-20T07:41:48Z</time>
      </trkpt>
      <trkpt lat="43.44792" lon="1.01664">
        <ele>306.2</ele>
        <time>2024-05-20T07:41:49Z</time>
      </trkpt>
      <trkpt lat="43.44793" lon="1.01656">
        <ele>306.4</ele>
        <time>2024-05-20T07:41:50Z</time>
      </trkpt>
      <trkpt lat="43.44793" lon="1.01647">
        <ele>306.4</ele>
        <time>2024-05-20T07:41:51Z</time>
      </trkpt>
      <trkpt lat="43.44794" lon="1.01638">
        <ele>306.4</ele>
        <time>2024-05-20T07:41:52Z</time>
      </trkpt>
      <trkpt lat="43.44795" lon="1.01629">
        <ele>306.4</ele>
        <time>2024-05-20T07:41:53Z</time>
      </trkpt>
      <trkpt lat="43.44796" lon="1.0162">
        <ele>306.4</ele>
        <time>2024-05-20T07:41:54Z</time>
      </trkpt>
      <trkpt lat="43.44796" lon="1.01611">
        <ele>306.4</ele>
        <time>2024-05-20T07:41:55Z</time>
      </trkpt>
      <trkpt lat="43.44797" lon="1.01601">
        <ele>306.2</ele>
        <time>2024-05-20T07:41:56Z</time>
      </trkpt>
      <trkpt lat="43.44798" lon="1.01589">
        <ele>306.2</ele>
        <time>2024-05-20T07:41:57Z</time>
      </trkpt>
      <trkpt lat="43.44799" lon="1.0158">
        <ele>306</ele>
        <time>2024-05-20T07:41:58Z</time>
      </trkpt>
      <trkpt lat="43.44799" lon="1.01569">
        <ele>306</ele>
        <time>2024-05-20T07:41:59Z</time>
      </trkpt>
      <trkpt lat="43.448" lon="1.01558">
        <ele>305.8</ele>
        <time>2024-05-20T07:42:00Z</time>
      </trkpt>
      <trkpt lat="43.44802" lon="1.01546">
        <ele>305.6</ele>
        <time>2024-05-20T07:42:01Z</time>
      </trkpt>
      <trkpt lat="43.44803" lon="1.01534">
        <ele>305.4</ele>
        <time>2024-05-20T07:42:02Z</time>
      </trkpt>
      <trkpt lat="43.44804" lon="1.0152">
        <ele>305</ele>
        <time>2024-05-20T07:42:03Z</time>
      </trkpt>
      <trkpt lat="43.44806" lon="1.01507">
        <ele>304.6</ele>
        <time>2024-05-20T07:42:04Z</time>
      </trkpt>
      <trkpt lat="43.44807" lon="1.01494">
        <ele>304</ele>
        <time>2024-05-20T07:42:05Z</time>
      </trkpt>
      <trkpt lat="43.44809" lon="1.0148">
        <ele>303.8</ele>
        <time>2024-05-20T07:42:06Z</time>
      </trkpt>
      <trkpt lat="43.44812" lon="1.01467">
        <ele>303.2</ele>
        <time>2024-05-20T07:42:07Z</time>
      </trkpt>
      <trkpt lat="43.44816" lon="1.01454">
        <ele>302.8</ele>
        <time>2024-05-20T07:42:08Z</time>
      </trkpt>
      <trkpt lat="43.44821" lon="1.01442">
        <ele>302.4</ele>
        <time>2024-05-20T07:42:09Z</time>
      </trkpt>
      <trkpt lat="43.44827" lon="1.01431">
        <ele>301.2</ele>
        <time>2024-05-20T07:42:10Z</time>
      </trkpt>
      <trkpt lat="43.44835" lon="1.01418">
        <ele>300.8</ele>
        <time>2024-05-20T07:42:11Z</time>
      </trkpt>
      <trkpt lat="43.4484" lon="1.0141">
        <ele>300.4</ele>
        <time>2024-05-20T07:42:12Z</time>
      </trkpt>
      <trkpt lat="43.44847" lon="1.014">
        <ele>300.2</ele>
        <time>2024-05-20T07:42:13Z</time>
      </trkpt>
      <trkpt lat="43.44853" lon="1.0139">
        <ele>299.6</ele>
        <time>2024-05-20T07:42:14Z</time>
      </trkpt>
      <trkpt lat="43.4486" lon="1.0138">
        <ele>299.2</ele>
        <time>2024-05-20T07:42:15Z</time>
      </trkpt>
      <trkpt lat="43.44866" lon="1.01371">
        <ele>298.8</ele>
        <time>2024-05-20T07:42:16Z</time>
      </trkpt>
      <trkpt lat="43.44873" lon="1.01362">
        <ele>298.6</ele>
        <time>2024-05-20T07:42:17Z</time>
      </trkpt>
      <trkpt lat="43.4488" lon="1.01353">
        <ele>298.6</ele>
        <time>2024-05-20T07:42:18Z</time>
      </trkpt>
      <trkpt lat="43.44887" lon="1.01346">
        <ele>298.4</ele>
        <time>2024-05-20T07:42:19Z</time>
      </trkpt>
      <trkpt lat="43.44894" lon="1.01339">
        <ele>298.4</ele>
        <time>2024-05-20T07:42:20Z</time>
      </trkpt>
      <trkpt lat="43.44901" lon="1.01334">
        <ele>298.4</ele>
        <time>2024-05-20T07:42:21Z</time>
      </trkpt>
      <trkpt lat="43.44908" lon="1.01328">
        <ele>298.4</ele>
        <time>2024-05-20T07:42:22Z</time>
      </trkpt>
      <trkpt lat="43.44914" lon="1.01324">
        <ele>298.4</ele>
        <time>2024-05-20T07:42:23Z</time>
      </trkpt>
      <trkpt lat="43.44921" lon="1.0132">
        <ele>298.4</ele>
        <time>2024-05-20T07:42:24Z</time>
      </trkpt>
      <trkpt lat="43.44928" lon="1.01316">
        <ele>298.4</ele>
        <time>2024-05-20T07:42:25Z</time>
      </trkpt>
      <trkpt lat="43.44935" lon="1.01312">
        <ele>298.4</ele>
        <time>2024-05-20T07:42:26Z</time>
      </trkpt>
      <trkpt lat="43.44941" lon="1.01308">
        <ele>298.4</ele>
        <time>2024-05-20T07:42:27Z</time>
      </trkpt>
      <trkpt lat="43.44947" lon="1.01304">
        <ele>298.4</ele>
        <time>2024-05-20T07:42:28Z</time>
      </trkpt>
      <trkpt lat="43.44953" lon="1.01301">
        <ele>298.4</ele>
        <time>2024-05-20T07:42:29Z</time>
      </trkpt>
      <trkpt lat="43.44959" lon="1.01297">
        <ele>298.6</ele>
        <time>2024-05-20T07:42:30Z</time>
      </trkpt>
      <trkpt lat="43.44966" lon="1.01294">
        <ele>298.8</ele>
        <time>2024-05-20T07:42:31Z</time>
      </trkpt>
      <trkpt lat="43.44972" lon="1.0129">
        <ele>299.2</ele>
        <time>2024-05-20T07:42:32Z</time>
      </trkpt>
      <trkpt lat="43.44978" lon="1.01286">
        <ele>299.4</ele>
        <time>2024-05-20T07:42:33Z</time>
      </trkpt>
      <trkpt lat="43.44984" lon="1.01283">
        <ele>299.8</ele>
        <time>2024-05-20T07:42:34Z</time>
      </trkpt>
      <trkpt lat="43.44991" lon="1.01279">
        <ele>300</ele>
        <time>2024-05-20T07:42:35Z</time>
      </trkpt>
      <trkpt lat="43.44997" lon="1.01275">
        <ele>300</ele>
        <time>2024-05-20T07:42:36Z</time>
      </trkpt>
      <trkpt lat="43.45004" lon="1.01271">
        <ele>300</ele>
        <time>2024-05-20T07:42:37Z</time>
      </trkpt>
      <trkpt lat="43.45011" lon="1.01267">
        <ele>300</ele>
        <time>2024-05-20T07:42:38Z</time>
      </trkpt>
      <trkpt lat="43.45018" lon="1.01262">
        <ele>300.2</ele>
        <time>2024-05-20T07:42:39Z</time>
      </trkpt>
      <trkpt lat="43.45024" lon="1.01256">
        <ele>300.2</ele>
        <time>2024-05-20T07:42:40Z</time>
      </trkpt>
      <trkpt lat="43.45031" lon="1.01251">
        <ele>300.2</ele>
        <time>2024-05-20T07:42:41Z</time>
      </trkpt>
      <trkpt lat="43.45037" lon="1.01245">
        <ele>300</ele>
        <time>2024-05-20T07:42:42Z</time>
      </trkpt>
      <trkpt lat="43.45044" lon="1.01238">
        <ele>300</ele>
        <time>2024-05-20T07:42:43Z</time>
      </trkpt>
      <trkpt lat="43.4505" lon="1.01231">
        <ele>299.8</ele>
        <time>2024-05-20T07:42:44Z</time>
      </trkpt>
      <trkpt lat="43.45057" lon="1.01224">
        <ele>299.8</ele>
        <time>2024-05-20T07:42:45Z</time>
      </trkpt>
      <trkpt lat="43.45063" lon="1.01217">
        <ele>299.6</ele>
        <time>2024-05-20T07:42:46Z</time>
      </trkpt>
      <trkpt lat="43.4507" lon="1.01209">
        <ele>299.4</ele>
        <time>2024-05-20T07:42:47Z</time>
      </trkpt>
      <trkpt lat="43.45076" lon="1.01202">
        <ele>299.2</ele>
        <time>2024-05-20T07:42:48Z</time>
      </trkpt>
      <trkpt lat="43.45083" lon="1.01195">
        <ele>299.2</ele>
        <time>2024-05-20T07:42:49Z</time>
      </trkpt>
      <trkpt lat="43.4509" lon="1.01188">
        <ele>298.8</ele>
        <time>2024-05-20T07:42:50Z</time>
      </trkpt>
      <trkpt lat="43.45097" lon="1.01181">
        <ele>298.4</ele>
        <time>2024-05-20T07:42:51Z</time>
      </trkpt>
      <trkpt lat="43.45104" lon="1.01174">
        <ele>298.2</ele>
        <time>2024-05-20T07:42:52Z</time>
      </trkpt>
      <trkpt lat="43.45112" lon="1.01168">
        <ele>297.8</ele>
        <time>2024-05-20T07:42:53Z</time>
      </trkpt>
      <trkpt lat="43.4512" lon="1.01163">
        <ele>297.4</ele>
        <time>2024-05-20T07:42:54Z</time>
      </trkpt>
      <trkpt lat="43.45128" lon="1.01159">
        <ele>296.8</ele>
        <time>2024-05-20T07:42:55Z</time>
      </trkpt>
      <trkpt lat="43.45138" lon="1.01156">
        <ele>296.6</ele>
        <time>2024-05-20T07:42:56Z</time>
      </trkpt>
      <trkpt lat="43.45147" lon="1.01155">
        <ele>296.2</ele>
        <time>2024-05-20T07:42:57Z</time>
      </trkpt>
      <trkpt lat="43.45159" lon="1.01155">
        <ele>296</ele>
        <time>2024-05-20T07:42:58Z</time>
      </trkpt>
      <trkpt lat="43.45166" lon="1.01157">
        <ele>295.8</ele>
        <time>2024-05-20T07:42:59Z</time>
      </trkpt>
      <trkpt lat="43.45176" lon="1.01159">
        <ele>295.4</ele>
        <time>2024-05-20T07:43:00Z</time>
      </trkpt>
      <trkpt lat="43.45185" lon="1.01161">
        <ele>294.8</ele>
        <time>2024-05-20T07:43:01Z</time>
      </trkpt>
      <trkpt lat="43.45195" lon="1.01163">
        <ele>294.2</ele>
        <time>2024-05-20T07:43:02Z</time>
      </trkpt>
      <trkpt lat="43.45204" lon="1.01163">
        <ele>294</ele>
        <time>2024-05-20T07:43:03Z</time>
      </trkpt>
      <trkpt lat="43.45214" lon="1.01161">
        <ele>293.4</ele>
        <time>2024-05-20T07:43:04Z</time>
      </trkpt>
      <trkpt lat="43.45223" lon="1.01157">
        <ele>293</ele>
        <time>2024-05-20T07:43:05Z</time>
      </trkpt>
      <trkpt lat="43.45232" lon="1.0115">
        <ele>292.2</ele>
        <time>2024-05-20T07:43:06Z</time>
      </trkpt>
      <trkpt lat="43.45241" lon="1.01141">
        <ele>291.8</ele>
        <time>2024-05-20T07:43:07Z</time>
      </trkpt>
      <trkpt lat="43.45248" lon="1.0113">
        <ele>291.4</ele>
        <time>2024-05-20T07:43:08Z</time>
      </trkpt>
      <trkpt lat="43.45254" lon="1.01118">
        <ele>291.2</ele>
        <time>2024-05-20T07:43:09Z</time>
      </trkpt>
      <trkpt lat="43.4526" lon="1.01104">
        <ele>290.8</ele>
        <time>2024-05-20T07:43:10Z</time>
      </trkpt>
      <trkpt lat="43.45266" lon="1.0109">
        <ele>290.2</ele>
        <time>2024-05-20T07:43:11Z</time>
      </trkpt>
      <trkpt lat="43.45272" lon="1.01075">
        <ele>289.8</ele>
        <time>2024-05-20T07:43:12Z</time>
      </trkpt>
      <trkpt lat="43.45278" lon="1.0106">
        <ele>288.6</ele>
        <time>2024-05-20T07:43:13Z</time>
      </trkpt>
      <trkpt lat="43.45284" lon="1.01045">
        <ele>287.8</ele>
        <time>2024-05-20T07:43:14Z</time>
      </trkpt>
      <trkpt lat="43.4529" lon="1.0103">
        <ele>287</ele>
        <time>2024-05-20T07:43:15Z</time>
      </trkpt>
      <trkpt lat="43.45297" lon="1.01015">
        <ele>286.6</ele>
        <time>2024-05-20T07:43:16Z</time>
      </trkpt>
      <trkpt lat="43.45305" lon="1.01">
        <ele>285.6</ele>
        <time>2024-05-20T07:43:17Z</time>
      </trkpt>
      <trkpt lat="43.45314" lon="1.00986">
        <ele>285</ele>
        <time>2024-05-20T07:43:18Z</time>
      </trkpt>
      <trkpt lat="43.45325" lon="1.00974">
        <ele>283.8</ele>
        <time>2024-05-20T07:43:19Z</time>
      </trkpt>
      <trkpt lat="43.45337" lon="1.00965">
        <ele>282.2</ele>
        <time>2024-05-20T07:43:20Z</time>
      </trkpt>
      <trkpt lat="43.4535" lon="1.00957">
        <ele>281.6</ele>
        <time>2024-05-20T07:43:21Z</time>
      </trkpt>
      <trkpt lat="43.45364" lon="1.00951">
        <ele>279.8</ele>
        <time>2024-05-20T07:43:22Z</time>
      </trkpt>
      <trkpt lat="43.45379" lon="1.00946">
        <ele>279</ele>
        <time>2024-05-20T07:43:23Z</time>
      </trkpt>
      <trkpt lat="43.45393" lon="1.00943">
        <ele>277.4</ele>
        <time>2024-05-20T07:43:24Z</time>
      </trkpt>
      <trkpt lat="43.45407" lon="1.00939">
        <ele>276.8</ele>
        <time>2024-05-20T07:43:25Z</time>
      </trkpt>
      <trkpt lat="43.45422" lon="1.00937">
        <ele>275.2</ele>
        <time>2024-05-20T07:43:26Z</time>
      </trkpt>
      <trkpt lat="43.45436" lon="1.00937">
        <ele>274.6</ele>
        <time>2024-05-20T07:43:27Z</time>
      </trkpt>
      <trkpt lat="43.4545" lon="1.00938">
        <ele>273.4</ele>
        <time>2024-05-20T07:43:28Z</time>
      </trkpt>
      <trkpt lat="43.45463" lon="1.00941">
        <ele>272</ele>
        <time>2024-05-20T07:43:29Z</time>
      </trkpt>
      <trkpt lat="43.45476" lon="1.00944">
        <ele>271.4</ele>
        <time>2024-05-20T07:43:30Z</time>
      </trkpt>
      <trkpt lat="43.45488" lon="1.00947">
        <ele>270.6</ele>
        <time>2024-05-20T07:43:31Z</time>
      </trkpt>
      <trkpt lat="43.455" lon="1.0095">
        <ele>270.4</ele>
        <time>2024-05-20T07:43:32Z</time>
      </trkpt>
      <trkpt lat="43.45512" lon="1.00952">
        <ele>270</ele>
        <time>2024-05-20T07:43:33Z</time>
      </trkpt>
      <trkpt lat="43.45524" lon="1.00955">
        <ele>270</ele>
        <time>2024-05-20T07:43:34Z</time>
      </trkpt>
      <trkpt lat="43.45534" lon="1.00958">
        <ele>269.8</ele>
        <time>2024-05-20T07:43:35Z</time>
      </trkpt>
      <trkpt lat="43.45545" lon="1.00961">
        <ele>269.8</ele>
        <time>2024-05-20T07:43:36Z</time>
      </trkpt>
      <trkpt lat="43.45554" lon="1.00963">
        <ele>269.6</ele>
        <time>2024-05-20T07:43:37Z</time>
      </trkpt>
      <trkpt lat="43.45564" lon="1.00966">
        <ele>269.8</ele>
        <time>2024-05-20T07:43:38Z</time>
      </trkpt>
      <trkpt lat="43.45573" lon="1.00968">
        <ele>269.8</ele>
        <time>2024-05-20T07:43:39Z</time>
      </trkpt>
      <trkpt lat="43.45582" lon="1.0097">
        <ele>269.8</ele>
        <time>2024-05-20T07:43:40Z</time>
      </trkpt>
      <trkpt lat="43.4559" lon="1.00972">
        <ele>270</ele>
        <time>2024-05-20T07:43:41Z</time>
      </trkpt>
      <trkpt lat="43.45598" lon="1.00973">
        <ele>270.2</ele>
        <time>2024-05-20T07:43:42Z</time>
      </trkpt>
      <trkpt lat="43.45606" lon="1.00974">
        <ele>270.6</ele>
        <time>2024-05-20T07:43:43Z</time>
      </trkpt>
      <trkpt lat="43.45613" lon="1.00973">
        <ele>271.2</ele>
        <time>2024-05-20T07:43:44Z</time>
      </trkpt>
      <trkpt lat="43.4562" lon="1.00972">
        <ele>271.4</ele>
        <time>2024-05-20T07:43:45Z</time>
      </trkpt>
      <trkpt lat="43.45627" lon="1.0097">
        <ele>272.2</ele>
        <time>2024-05-20T07:43:46Z</time>
      </trkpt>
      <trkpt lat="43.45634" lon="1.00968">
        <ele>273</ele>
        <time>2024-05-20T07:43:47Z</time>
      </trkpt>
      <trkpt lat="43.4564" lon="1.00965">
        <ele>273.4</ele>
        <time>2024-05-20T07:43:48Z</time>
      </trkpt>
      <trkpt lat="43.45646" lon="1.00961">
        <ele>273.8</ele>
        <time>2024-05-20T07:43:49Z</time>
      </trkpt>
      <trkpt lat="43.45653" lon="1.00956">
        <ele>274</ele>
        <time>2024-05-20T07:43:50Z</time>
      </trkpt>
      <trkpt lat="43.45659" lon="1.0095">
        <ele>274.8</ele>
        <time>2024-05-20T07:43:51Z</time>
      </trkpt>
      <trkpt lat="43.45663" lon="1.00946">
        <ele>275.2</ele>
        <time>2024-05-20T07:43:52Z</time>
      </trkpt>
      <trkpt lat="43.45668" lon="1.0094">
        <ele>275.6</ele>
        <time>2024-05-20T07:43:53Z</time>
      </trkpt>
      <trkpt lat="43.45674" lon="1.00934">
        <ele>276</ele>
        <time>2024-05-20T07:43:54Z</time>
      </trkpt>
      <trkpt lat="43.45679" lon="1.00928">
        <ele>276.4</ele>
        <time>2024-05-20T07:43:55Z</time>
      </trkpt>
      <trkpt lat="43.45683" lon="1.00924">
        <ele>277.2</ele>
        <time>2024-05-20T07:43:56Z</time>
      </trkpt>
      <trkpt lat="43.45688" lon="1.00919">
        <ele>277.4</ele>
        <time>2024-05-20T07:43:57Z</time>
      </trkpt>
      <trkpt lat="43.45693" lon="1.00913">
        <ele>277.8</ele>
        <time>2024-05-20T07:43:58Z</time>
      </trkpt>
      <trkpt lat="43.45698" lon="1.00907">
        <ele>278</ele>
        <time>2024-05-20T07:43:59Z</time>
      </trkpt>
      <trkpt lat="43.45704" lon="1.009">
        <ele>278.2</ele>
        <time>2024-05-20T07:44:00Z</time>
      </trkpt>
      <trkpt lat="43.45709" lon="1.00895">
        <ele>278.6</ele>
        <time>2024-05-20T07:44:01Z</time>
      </trkpt>
      <trkpt lat="43.45713" lon="1.0089">
        <ele>279.2</ele>
        <time>2024-05-20T07:44:02Z</time>
      </trkpt>
      <trkpt lat="43.45718" lon="1.00884">
        <ele>279.4</ele>
        <time>2024-05-20T07:44:03Z</time>
      </trkpt>
      <trkpt lat="43.45723" lon="1.00879">
        <ele>279.6</ele>
        <time>2024-05-20T07:44:04Z</time>
      </trkpt>
      <trkpt lat="43.45729" lon="1.00872">
        <ele>280.2</ele>
        <time>2024-05-20T07:44:05Z</time>
      </trkpt>
      <trkpt lat="43.45733" lon="1.00868">
        <ele>280.6</ele>
        <time>2024-05-20T07:44:06Z</time>
      </trkpt>
      <trkpt lat="43.45738" lon="1.00862">
        <ele>280.8</ele>
        <time>2024-05-20T07:44:07Z</time>
      </trkpt>
      <trkpt lat="43.45744" lon="1.00855">
        <ele>280.8</ele>
        <time>2024-05-20T07:44:08Z</time>
      </trkpt>
      <trkpt lat="43.45749" lon="1.00849">
        <ele>281</ele>
        <time>2024-05-20T07:44:09Z</time>
      </trkpt>
      <trkpt lat="43.45754" lon="1.00844">
        <ele>281.2</ele>
        <time>2024-05-20T07:44:10Z</time>
      </trkpt>
      <trkpt lat="43.45759" lon="1.00838">
        <ele>281.2</ele>
        <time>2024-05-20T07:44:11Z</time>
      </trkpt>
      <trkpt lat="43.45766" lon="1.0083">
        <ele>281.2</ele>
        <time>2024-05-20T07:44:12Z</time>
      </trkpt>
      <trkpt lat="43.4577" lon="1.00825">
        <ele>281.2</ele>
        <time>2024-05-20T07:44:13Z</time>
      </trkpt>
      <trkpt lat="43.45778" lon="1.00816">
        <ele>281.4</ele>
        <time>2024-05-20T07:44:14Z</time>
      </trkpt>
      <trkpt lat="43.45782" lon="1.00811">
        <ele>281.4</ele>
        <time>2024-05-20T07:44:15Z</time>
      </trkpt>
      <trkpt lat="43.45789" lon="1.00804">
        <ele>281.4</ele>
        <time>2024-05-20T07:44:16Z</time>
      </trkpt>
      <trkpt lat="43.45795" lon="1.00796">
        <ele>281.4</ele>
        <time>2024-05-20T07:44:17Z</time>
      </trkpt>
      <trkpt lat="43.45802" lon="1.00789">
        <ele>281.2</ele>
        <time>2024-05-20T07:44:18Z</time>
      </trkpt>
      <trkpt lat="43.45809" lon="1.00781">
        <ele>281.2</ele>
        <time>2024-05-20T07:44:19Z</time>
      </trkpt>
      <trkpt lat="43.45815" lon="1.00773">
        <ele>280.8</ele>
        <time>2024-05-20T07:44:20Z</time>
      </trkpt>
      <trkpt lat="43.45823" lon="1.00764">
        <ele>280.4</ele>
        <time>2024-05-20T07:44:21Z</time>
      </trkpt>
      <trkpt lat="43.45827" lon="1.00757">
        <ele>280.4</ele>
        <time>2024-05-20T07:44:22Z</time>
      </trkpt>
      <trkpt lat="43.45833" lon="1.00748">
        <ele>280</ele>
        <time>2024-05-20T07:44:23Z</time>
      </trkpt>
      <trkpt lat="43.45837" lon="1.00738">
        <ele>280</ele>
        <time>2024-05-20T07:44:24Z</time>
      </trkpt>
      <trkpt lat="43.45842" lon="1.00729">
        <ele>279.8</ele>
        <time>2024-05-20T07:44:25Z</time>
      </trkpt>
      <trkpt lat="43.45846" lon="1.00717">
        <ele>279.6</ele>
        <time>2024-05-20T07:44:26Z</time>
      </trkpt>
      <trkpt lat="43.4585" lon="1.00707">
        <ele>279.4</ele>
        <time>2024-05-20T07:44:27Z</time>
      </trkpt>
      <trkpt lat="43.45852" lon="1.00698">
        <ele>279.4</ele>
        <time>2024-05-20T07:44:28Z</time>
      </trkpt>
      <trkpt lat="43.45855" lon="1.00688">
        <ele>279.2</ele>
        <time>2024-05-20T07:44:29Z</time>
      </trkpt>
      <trkpt lat="43.45858" lon="1.00677">
        <ele>279</ele>
        <time>2024-05-20T07:44:30Z</time>
      </trkpt>
      <trkpt lat="43.45861" lon="1.00667">
        <ele>279</ele>
        <time>2024-05-20T07:44:31Z</time>
      </trkpt>
      <trkpt lat="43.45865" lon="1.00654">
        <ele>278.8</ele>
        <time>2024-05-20T07:44:32Z</time>
      </trkpt>
      <trkpt lat="43.45868" lon="1.00643">
        <ele>278.8</ele>
        <time>2024-05-20T07:44:33Z</time>
      </trkpt>
      <trkpt lat="43.4587" lon="1.00634">
        <ele>278.8</ele>
        <time>2024-05-20T07:44:34Z</time>
      </trkpt>
      <trkpt lat="43.45873" lon="1.00623">
        <ele>278.6</ele>
        <time>2024-05-20T07:44:35Z</time>
      </trkpt>
      <trkpt lat="43.45875" lon="1.00612">
        <ele>278.6</ele>
        <time>2024-05-20T07:44:36Z</time>
      </trkpt>
      <trkpt lat="43.45878" lon="1.00602">
        <ele>278.4</ele>
        <time>2024-05-20T07:44:37Z</time>
      </trkpt>
      <trkpt lat="43.45881" lon="1.00591">
        <ele>278.4</ele>
        <time>2024-05-20T07:44:38Z</time>
      </trkpt>
      <trkpt lat="43.45884" lon="1.0058">
        <ele>278.2</ele>
        <time>2024-05-20T07:44:39Z</time>
      </trkpt>
      <trkpt lat="43.45887" lon="1.00569">
        <ele>278.2</ele>
        <time>2024-05-20T07:44:40Z</time>
      </trkpt>
      <trkpt lat="43.4589" lon="1.00558">
        <ele>278</ele>
        <time>2024-05-20T07:44:41Z</time>
      </trkpt>
      <trkpt lat="43.45893" lon="1.00547">
        <ele>278</ele>
        <time>2024-05-20T07:44:42Z</time>
      </trkpt>
      <trkpt lat="43.45895" lon="1.00537">
        <ele>277.8</ele>
        <time>2024-05-20T07:44:43Z</time>
      </trkpt>
      <trkpt lat="43.45898" lon="1.00526">
        <ele>277.6</ele>
        <time>2024-05-20T07:44:44Z</time>
      </trkpt>
      <trkpt lat="43.45901" lon="1.00515">
        <ele>277.6</ele>
        <time>2024-05-20T07:44:45Z</time>
      </trkpt>
      <trkpt lat="43.45903" lon="1.00505">
        <ele>277.4</ele>
        <time>2024-05-20T07:44:46Z</time>
      </trkpt>
      <trkpt lat="43.45906" lon="1.00494">
        <ele>277.2</ele>
        <time>2024-05-20T07:44:47Z</time>
      </trkpt>
      <trkpt lat="43.45909" lon="1.00483">
        <ele>277</ele>
        <time>2024-05-20T07:44:48Z</time>
      </trkpt>
      <trkpt lat="43.45911" lon="1.00472">
        <ele>277</ele>
        <time>2024-05-20T07:44:49Z</time>
      </trkpt>
      <trkpt lat="43.45914" lon="1.00461">
        <ele>276.8</ele>
        <time>2024-05-20T07:44:50Z</time>
      </trkpt>
      <trkpt lat="43.45916" lon="1.0045">
        <ele>276.8</ele>
        <time>2024-05-20T07:44:51Z</time>
      </trkpt>
      <trkpt lat="43.45917" lon="1.00438">
        <ele>276.6</ele>
        <time>2024-05-20T07:44:52Z</time>
      </trkpt>
      <trkpt lat="43.45919" lon="1.00427">
        <ele>276.4</ele>
        <time>2024-05-20T07:44:53Z</time>
      </trkpt>
      <trkpt lat="43.45921" lon="1.00415">
        <ele>276.4</ele>
        <time>2024-05-20T07:44:54Z</time>
      </trkpt>
      <trkpt lat="43.45923" lon="1.00403">
        <ele>276.4</ele>
        <time>2024-05-20T07:44:55Z</time>
      </trkpt>
      <trkpt lat="43.45924" lon="1.00391">
        <ele>276.2</ele>
        <time>2024-05-20T07:44:56Z</time>
      </trkpt>
      <trkpt lat="43.45926" lon="1.00379">
        <ele>276</ele>
        <time>2024-05-20T07:44:57Z</time>
      </trkpt>
      <trkpt lat="43.45928" lon="1.00367">
        <ele>276</ele>
        <time>2024-05-20T07:44:58Z</time>
      </trkpt>
      <trkpt lat="43.45929" lon="1.00354">
        <ele>275.8</ele>
        <time>2024-05-20T07:44:59Z</time>
      </trkpt>
      <trkpt lat="43.45931" lon="1.00342">
        <ele>275.8</ele>
        <time>2024-05-20T07:45:00Z</time>
      </trkpt>
      <trkpt lat="43.45932" lon="1.00329">
        <ele>275.4</ele>
        <time>2024-05-20T07:45:01Z</time>
      </trkpt>
      <trkpt lat="43.45934" lon="1.00318">
        <ele>275.2</ele>
        <time>2024-05-20T07:45:02Z</time>
      </trkpt>
      <trkpt lat="43.45936" lon="1.00306">
        <ele>275</ele>
        <time>2024-05-20T07:45:03Z</time>
      </trkpt>
      <trkpt lat="43.45938" lon="1.00295">
        <ele>274.8</ele>
        <time>2024-05-20T07:45:04Z</time>
      </trkpt>
      <trkpt lat="43.45941" lon="1.00283">
        <ele>274.4</ele>
        <time>2024-05-20T07:45:05Z</time>
      </trkpt>
      <trkpt lat="43.45944" lon="1.00273">
        <ele>274.2</ele>
        <time>2024-05-20T07:45:06Z</time>
      </trkpt>
      <trkpt lat="43.45947" lon="1.00262">
        <ele>274.2</ele>
        <time>2024-05-20T07:45:07Z</time>
      </trkpt>
      <trkpt lat="43.45952" lon="1.00253">
        <ele>274.2</ele>
        <time>2024-05-20T07:45:08Z</time>
      </trkpt>
      <trkpt lat="43.45956" lon="1.00243">
        <ele>274.2</ele>
        <time>2024-05-20T07:45:09Z</time>
      </trkpt>
      <trkpt lat="43.4596" lon="1.00234">
        <ele>274.2</ele>
        <time>2024-05-20T07:45:10Z</time>
      </trkpt>
      <trkpt lat="43.45965" lon="1.00225">
        <ele>274.2</ele>
        <time>2024-05-20T07:45:11Z</time>
      </trkpt>
      <trkpt lat="43.4597" lon="1.00217">
        <ele>274.2</ele>
        <time>2024-05-20T07:45:12Z</time>
      </trkpt>
      <trkpt lat="43.45975" lon="1.00208">
        <ele>274.2</ele>
        <time>2024-05-20T07:45:13Z</time>
      </trkpt>
      <trkpt lat="43.45979" lon="1.00201">
        <ele>274.4</ele>
        <time>2024-05-20T07:45:14Z</time>
      </trkpt>
      <trkpt lat="43.45983" lon="1.00193">
        <ele>274.4</ele>
        <time>2024-05-20T07:45:15Z</time>
      </trkpt>
      <trkpt lat="43.45988" lon="1.00186">
        <ele>274.6</ele>
        <time>2024-05-20T07:45:16Z</time>
      </trkpt>
      <trkpt lat="43.45992" lon="1.00179">
        <ele>274.8</ele>
        <time>2024-05-20T07:45:17Z</time>
      </trkpt>
      <trkpt lat="43.45996" lon="1.00172">
        <ele>275</ele>
        <time>2024-05-20T07:45:18Z</time>
      </trkpt>
      <trkpt lat="43.45999" lon="1.00165">
        <ele>275</ele>
        <time>2024-05-20T07:45:19Z</time>
      </trkpt>
      <trkpt lat="43.46003" lon="1.00158">
        <ele>275.2</ele>
        <time>2024-05-20T07:45:20Z</time>
      </trkpt>
      <trkpt lat="43.46007" lon="1.00151">
        <ele>275.6</ele>
        <time>2024-05-20T07:45:21Z</time>
      </trkpt>
      <trkpt lat="43.46011" lon="1.00144">
        <ele>276</ele>
        <time>2024-05-20T07:45:22Z</time>
      </trkpt>
      <trkpt lat="43.46015" lon="1.00137">
        <ele>276.2</ele>
        <time>2024-05-20T07:45:23Z</time>
      </trkpt>
      <trkpt lat="43.46019" lon="1.0013">
        <ele>276.6</ele>
        <time>2024-05-20T07:45:24Z</time>
      </trkpt>
      <trkpt lat="43.46023" lon="1.00123">
        <ele>276.6</ele>
        <time>2024-05-20T07:45:25Z</time>
      </trkpt>
      <trkpt lat="43.46027" lon="1.00116">
        <ele>276.8</ele>
        <time>2024-05-20T07:45:26Z</time>
      </trkpt>
      <trkpt lat="43.46031" lon="1.00108">
        <ele>276.8</ele>
        <time>2024-05-20T07:45:27Z</time>
      </trkpt>
      <trkpt lat="43.46035" lon="1.00101">
        <ele>277.2</ele>
        <time>2024-05-20T07:45:28Z</time>
      </trkpt>
      <trkpt lat="43.46039" lon="1.00093">
        <ele>277.4</ele>
        <time>2024-05-20T07:45:29Z</time>
      </trkpt>
      <trkpt lat="43.46043" lon="1.00086">
        <ele>277.8</ele>
        <time>2024-05-20T07:45:30Z</time>
      </trkpt>
      <trkpt lat="43.46046" lon="1.00078">
        <ele>277.8</ele>
        <time>2024-05-20T07:45:31Z</time>
      </trkpt>
      <trkpt lat="43.46049" lon="1.0007">
        <ele>278.2</ele>
        <time>2024-05-20T07:45:32Z</time>
      </trkpt>
      <trkpt lat="43.46053" lon="1.00062">
        <ele>278.4</ele>
        <time>2024-05-20T07:45:33Z</time>
      </trkpt>
      <trkpt lat="43.46057" lon="1.00053">
        <ele>278.6</ele>
        <time>2024-05-20T07:45:34Z</time>
      </trkpt>
      <trkpt lat="43.4606" lon="1.00045">
        <ele>278.6</ele>
        <time>2024-05-20T07:45:35Z</time>
      </trkpt>
      <trkpt lat="43.46064" lon="1.00036">
        <ele>278.8</ele>
        <time>2024-05-20T07:45:36Z</time>
      </trkpt>
      <trkpt lat="43.46068" lon="1.00027">
        <ele>279</ele>
        <time>2024-05-20T07:45:37Z</time>
      </trkpt>
      <trkpt lat="43.46071" lon="1.00019">
        <ele>279.2</ele>
        <time>2024-05-20T07:45:38Z</time>
      </trkpt>
      <trkpt lat="43.46075" lon="1.0001">
        <ele>279.4</ele>
        <time>2024-05-20T07:45:39Z</time>
      </trkpt>
      <trkpt lat="43.46078" lon="1.00002">
        <ele>279.6</ele>
        <time>2024-05-20T07:45:40Z</time>
      </trkpt>
      <trkpt lat="43.46081" lon="0.99993">
        <ele>279.6</ele>
        <time>2024-05-20T07:45:41Z</time>
      </trkpt>
      <trkpt lat="43.46085" lon="0.99985">
        <ele>279.6</ele>
        <time>2024-05-20T07:45:42Z</time>
      </trkpt>
      <trkpt lat="43.46088" lon="0.99977">
        <ele>279.6</ele>
        <time>2024-05-20T07:45:43Z</time>
      </trkpt>
      <trkpt lat="43.46091" lon="0.99969">
        <ele>279.8</ele>
        <time>2024-05-20T07:45:44Z</time>
      </trkpt>
      <trkpt lat="43.46095" lon="0.9996">
        <ele>279.8</ele>
        <time>2024-05-20T07:45:45Z</time>
      </trkpt>
      <trkpt lat="43.46098" lon="0.99952">
        <ele>279.8</ele>
        <time>2024-05-20T07:45:46Z</time>
      </trkpt>
      <trkpt lat="43.46102" lon="0.99943">
        <ele>280.2</ele>
        <time>2024-05-20T07:45:47Z</time>
      </trkpt>
      <trkpt lat="43.46106" lon="0.99934">
        <ele>280.2</ele>
        <time>2024-05-20T07:45:48Z</time>
      </trkpt>
      <trkpt lat="43.4611" lon="0.99925">
        <ele>280.2</ele>
        <time>2024-05-20T07:45:49Z</time>
      </trkpt>
      <trkpt lat="43.46114" lon="0.99916">
        <ele>280.2</ele>
        <time>2024-05-20T07:45:50Z</time>
      </trkpt>
      <trkpt lat="43.46118" lon="0.99907">
        <ele>280.2</ele>
        <time>2024-05-20T07:45:51Z</time>
      </trkpt>
      <trkpt lat="43.46121" lon="0.99897">
        <ele>280.2</ele>
        <time>2024-05-20T07:45:52Z</time>
      </trkpt>
      <trkpt lat="43.46125" lon="0.99888">
        <ele>280</ele>
        <time>2024-05-20T07:45:53Z</time>
      </trkpt>
      <trkpt lat="43.46129" lon="0.99878">
        <ele>279.8</ele>
        <time>2024-05-20T07:45:54Z</time>
      </trkpt>
      <trkpt lat="43.46133" lon="0.99869">
        <ele>279.6</ele>
        <time>2024-05-20T07:45:55Z</time>
      </trkpt>
      <trkpt lat="43.46137" lon="0.99859">
        <ele>279.4</ele>
        <time>2024-05-20T07:45:56Z</time>
      </trkpt>
      <trkpt lat="43.4614" lon="0.99849">
        <ele>279.2</ele>
        <time>2024-05-20T07:45:57Z</time>
      </trkpt>
      <trkpt lat="43.46144" lon="0.99839">
        <ele>279.2</ele>
        <time>2024-05-20T07:45:58Z</time>
      </trkpt>
      <trkpt lat="43.46147" lon="0.9983">
        <ele>279</ele>
        <time>2024-05-20T07:45:59Z</time>
      </trkpt>
      <trkpt lat="43.46151" lon="0.9982">
        <ele>279</ele>
        <time>2024-05-20T07:46:00Z</time>
      </trkpt>
      <trkpt lat="43.46154" lon="0.9981">
        <ele>278.8</ele>
        <time>2024-05-20T07:46:01Z</time>
      </trkpt>
      <trkpt lat="43.46157" lon="0.99801">
        <ele>278.8</ele>
        <time>2024-05-20T07:46:02Z</time>
      </trkpt>
      <trkpt lat="43.4616" lon="0.99791">
        <ele>278.6</ele>
        <time>2024-05-20T07:46:03Z</time>
      </trkpt>
      <trkpt lat="43.46164" lon="0.99779">
        <ele>278.6</ele>
        <time>2024-05-20T07:46:04Z</time>
      </trkpt>
      <trkpt lat="43.46166" lon="0.99771">
        <ele>278.4</ele>
        <time>2024-05-20T07:46:05Z</time>
      </trkpt>
      <trkpt lat="43.4617" lon="0.99762">
        <ele>278</ele>
        <time>2024-05-20T07:46:06Z</time>
      </trkpt>
      <trkpt lat="43.46173" lon="0.99751">
        <ele>277.8</ele>
        <time>2024-05-20T07:46:07Z</time>
      </trkpt>
      <trkpt lat="43.46176" lon="0.99743">
        <ele>277.6</ele>
        <time>2024-05-20T07:46:08Z</time>
      </trkpt>
      <trkpt lat="43.4618" lon="0.99734">
        <ele>277.4</ele>
        <time>2024-05-20T07:46:09Z</time>
      </trkpt>
      <trkpt lat="43.46183" lon="0.99724">
        <ele>277.4</ele>
        <time>2024-05-20T07:46:10Z</time>
      </trkpt>
      <trkpt lat="43.46188" lon="0.99714">
        <ele>277.4</ele>
        <time>2024-05-20T07:46:11Z</time>
      </trkpt>
      <trkpt lat="43.46193" lon="0.99703">
        <ele>277.2</ele>
        <time>2024-05-20T07:46:12Z</time>
      </trkpt>
      <trkpt lat="43.46197" lon="0.99693">
        <ele>277.2</ele>
        <time>2024-05-20T07:46:13Z</time>
      </trkpt>
      <trkpt lat="43.46202" lon="0.99683">
        <ele>277</ele>
        <time>2024-05-20T07:46:14Z</time>
      </trkpt>
      <trkpt lat="43.46205" lon="0.99674">
        <ele>277</ele>
        <time>2024-05-20T07:46:15Z</time>
      </trkpt>
      <trkpt lat="43.4621" lon="0.99663">
        <ele>276.8</ele>
        <time>2024-05-20T07:46:16Z</time>
      </trkpt>
      <trkpt lat="43.46215" lon="0.99653">
        <ele>276.6</ele>
        <time>2024-05-20T07:46:17Z</time>
      </trkpt>
      <trkpt lat="43.46221" lon="0.99639">
        <ele>276.2</ele>
        <time>2024-05-20T07:46:18Z</time>
      </trkpt>
      <trkpt lat="43.46225" lon="0.9963">
        <ele>276</ele>
        <time>2024-05-20T07:46:19Z</time>
      </trkpt>
      <trkpt lat="43.4623" lon="0.99619">
        <ele>275.6</ele>
        <time>2024-05-20T07:46:20Z</time>
      </trkpt>
      <trkpt lat="43.46236" lon="0.99605">
        <ele>275.6</ele>
        <time>2024-05-20T07:46:21Z</time>
      </trkpt>
      <trkpt lat="43.46241" lon="0.99594">
        <ele>275.4</ele>
        <time>2024-05-20T07:46:22Z</time>
      </trkpt>
      <trkpt lat="43.46245" lon="0.99585">
        <ele>275</ele>
        <time>2024-05-20T07:46:23Z</time>
      </trkpt>
      <trkpt lat="43.4625" lon="0.99574">
        <ele>274.6</ele>
        <time>2024-05-20T07:46:24Z</time>
      </trkpt>
      <trkpt lat="43.46255" lon="0.99562">
        <ele>274.2</ele>
        <time>2024-05-20T07:46:25Z</time>
      </trkpt>
      <trkpt lat="43.46261" lon="0.99549">
        <ele>274</ele>
        <time>2024-05-20T07:46:26Z</time>
      </trkpt>
      <trkpt lat="43.46266" lon="0.99537">
        <ele>273.4</ele>
        <time>2024-05-20T07:46:27Z</time>
      </trkpt>
      <trkpt lat="43.4627" lon="0.99528">
        <ele>273.4</ele>
        <time>2024-05-20T07:46:28Z</time>
      </trkpt>
      <trkpt lat="43.46275" lon="0.99517">
        <ele>273</ele>
        <time>2024-05-20T07:46:29Z</time>
      </trkpt>
      <trkpt lat="43.4628" lon="0.99506">
        <ele>273</ele>
        <time>2024-05-20T07:46:30Z</time>
      </trkpt>
      <trkpt lat="43.46284" lon="0.99495">
        <ele>272.6</ele>
        <time>2024-05-20T07:46:31Z</time>
      </trkpt>
      <trkpt lat="43.46288" lon="0.99484">
        <ele>272.4</ele>
        <time>2024-05-20T07:46:32Z</time>
      </trkpt>
      <trkpt lat="43.46292" lon="0.99473">
        <ele>271.8</ele>
        <time>2024-05-20T07:46:33Z</time>
      </trkpt>
      <trkpt lat="43.46295" lon="0.99461">
        <ele>271.6</ele>
        <time>2024-05-20T07:46:34Z</time>
      </trkpt>
      <trkpt lat="43.46298" lon="0.99449">
        <ele>271.4</ele>
        <time>2024-05-20T07:46:35Z</time>
      </trkpt>
      <trkpt lat="43.46302" lon="0.99434">
        <ele>271</ele>
        <time>2024-05-20T07:46:36Z</time>
      </trkpt>
      <trkpt lat="43.46304" lon="0.99422">
        <ele>271</ele>
        <time>2024-05-20T07:46:37Z</time>
      </trkpt>
      <trkpt lat="43.46307" lon="0.99412">
        <ele>270.8</ele>
        <time>2024-05-20T07:46:38Z</time>
      </trkpt>
      <trkpt lat="43.46309" lon="0.994">
        <ele>270.8</ele>
        <time>2024-05-20T07:46:39Z</time>
      </trkpt>
      <trkpt lat="43.46312" lon="0.99385">
        <ele>270.4</ele>
        <time>2024-05-20T07:46:40Z</time>
      </trkpt>
      <trkpt lat="43.46314" lon="0.99375">
        <ele>270.2</ele>
        <time>2024-05-20T07:46:41Z</time>
      </trkpt>
      <trkpt lat="43.46317" lon="0.9936">
        <ele>269.8</ele>
        <time>2024-05-20T07:46:42Z</time>
      </trkpt>
      <trkpt lat="43.4632" lon="0.9935">
        <ele>269.6</ele>
        <time>2024-05-20T07:46:43Z</time>
      </trkpt>
      <trkpt lat="43.46325" lon="0.99337">
        <ele>269</ele>
        <time>2024-05-20T07:46:44Z</time>
      </trkpt>
      <trkpt lat="43.46329" lon="0.99325">
        <ele>268.6</ele>
        <time>2024-05-20T07:46:45Z</time>
      </trkpt>
      <trkpt lat="43.46336" lon="0.99311">
        <ele>268.4</ele>
        <time>2024-05-20T07:46:46Z</time>
      </trkpt>
      <trkpt lat="43.46341" lon="0.99302">
        <ele>267.8</ele>
        <time>2024-05-20T07:46:47Z</time>
      </trkpt>
      <trkpt lat="43.46347" lon="0.9929">
        <ele>267.4</ele>
        <time>2024-05-20T07:46:48Z</time>
      </trkpt>
      <trkpt lat="43.46354" lon="0.99276">
        <ele>266.6</ele>
        <time>2024-05-20T07:46:49Z</time>
      </trkpt>
      <trkpt lat="43.46359" lon="0.99267">
        <ele>266.4</ele>
        <time>2024-05-20T07:46:50Z</time>
      </trkpt>
      <trkpt lat="43.46365" lon="0.99256">
        <ele>266</ele>
        <time>2024-05-20T07:46:51Z</time>
      </trkpt>
      <trkpt lat="43.4637" lon="0.99244">
        <ele>265.4</ele>
        <time>2024-05-20T07:46:52Z</time>
      </trkpt>
      <trkpt lat="43.46375" lon="0.99231">
        <ele>264.8</ele>
        <time>2024-05-20T07:46:53Z</time>
      </trkpt>
      <trkpt lat="43.46378" lon="0.99215">
        <ele>263.6</ele>
        <time>2024-05-20T07:46:54Z</time>
      </trkpt>
      <trkpt lat="43.46379" lon="0.99201">
        <ele>263.2</ele>
        <time>2024-05-20T07:46:55Z</time>
      </trkpt>
      <trkpt lat="43.46379" lon="0.99188">
        <ele>262.6</ele>
        <time>2024-05-20T07:46:56Z</time>
      </trkpt>
      <trkpt lat="43.4638" lon="0.99178">
        <ele>262.6</ele>
        <time>2024-05-20T07:46:57Z</time>
      </trkpt>
      <trkpt lat="43.46381" lon="0.99166">
        <ele>262</ele>
        <time>2024-05-20T07:46:58Z</time>
      </trkpt>
      <trkpt lat="43.46382" lon="0.99153">
        <ele>261.8</ele>
        <time>2024-05-20T07:46:59Z</time>
      </trkpt>
      <trkpt lat="43.46383" lon="0.99139">
        <ele>261.4</ele>
        <time>2024-05-20T07:47:00Z</time>
      </trkpt>
      <trkpt lat="43.46384" lon="0.99129">
        <ele>261.2</ele>
        <time>2024-05-20T07:47:01Z</time>
      </trkpt>
      <trkpt lat="43.46385" lon="0.99117">
        <ele>261.2</ele>
        <time>2024-05-20T07:47:02Z</time>
      </trkpt>
      <trkpt lat="43.46386" lon="0.99103">
        <ele>261</ele>
        <time>2024-05-20T07:47:03Z</time>
      </trkpt>
      <trkpt lat="43.46387" lon="0.99092">
        <ele>261</ele>
        <time>2024-05-20T07:47:04Z</time>
      </trkpt>
      <trkpt lat="43.46387" lon="0.99082">
        <ele>261</ele>
        <time>2024-05-20T07:47:05Z</time>
      </trkpt>
      <trkpt lat="43.46388" lon="0.99071">
        <ele>261</ele>
        <time>2024-05-20T07:47:06Z</time>
      </trkpt>
      <trkpt lat="43.4639" lon="0.99059">
        <ele>260.8</ele>
        <time>2024-05-20T07:47:07Z</time>
      </trkpt>
      <trkpt lat="43.46394" lon="0.99046">
        <ele>260.8</ele>
        <time>2024-05-20T07:47:08Z</time>
      </trkpt>
      <trkpt lat="43.46399" lon="0.99035">
        <ele>260.4</ele>
        <time>2024-05-20T07:47:09Z</time>
      </trkpt>
      <trkpt lat="43.46404" lon="0.99023">
        <ele>260.2</ele>
        <time>2024-05-20T07:47:10Z</time>
      </trkpt>
      <trkpt lat="43.46408" lon="0.99013">
        <ele>260</ele>
        <time>2024-05-20T07:47:11Z</time>
      </trkpt>
      <trkpt lat="43.46413" lon="0.99002">
        <ele>259.6</ele>
        <time>2024-05-20T07:47:12Z</time>
      </trkpt>
      <trkpt lat="43.46418" lon="0.98989">
        <ele>259.4</ele>
        <time>2024-05-20T07:47:13Z</time>
      </trkpt>
      <trkpt lat="43.46422" lon="0.98976">
        <ele>258.8</ele>
        <time>2024-05-20T07:47:14Z</time>
      </trkpt>
      <trkpt lat="43.46426" lon="0.98963">
        <ele>258.6</ele>
        <time>2024-05-20T07:47:15Z</time>
      </trkpt>
      <trkpt lat="43.46429" lon="0.9895">
        <ele>257.6</ele>
        <time>2024-05-20T07:47:16Z</time>
      </trkpt>
      <trkpt lat="43.46433" lon="0.98936">
        <ele>257.2</ele>
        <time>2024-05-20T07:47:17Z</time>
      </trkpt>
      <trkpt lat="43.46436" lon="0.98923">
        <ele>256.6</ele>
        <time>2024-05-20T07:47:18Z</time>
      </trkpt>
      <trkpt lat="43.4644" lon="0.9891">
        <ele>256.4</ele>
        <time>2024-05-20T07:47:19Z</time>
      </trkpt>
      <trkpt lat="43.46444" lon="0.98897">
        <ele>255.6</ele>
        <time>2024-05-20T07:47:20Z</time>
      </trkpt>
      <trkpt lat="43.46448" lon="0.98883">
        <ele>255</ele>
        <time>2024-05-20T07:47:21Z</time>
      </trkpt>
      <trkpt lat="43.46451" lon="0.9887">
        <ele>254.4</ele>
        <time>2024-05-20T07:47:22Z</time>
      </trkpt>
      <trkpt lat="43.46456" lon="0.98855">
        <ele>253.8</ele>
        <time>2024-05-20T07:47:23Z</time>
      </trkpt>
      <trkpt lat="43.46462" lon="0.98843">
        <ele>253.4</ele>
        <time>2024-05-20T07:47:24Z</time>
      </trkpt>
      <trkpt lat="43.46466" lon="0.98834">
        <ele>253</ele>
        <time>2024-05-20T07:47:25Z</time>
      </trkpt>
      <trkpt lat="43.4647" lon="0.98822">
        <ele>252.6</ele>
        <time>2024-05-20T07:47:26Z</time>
      </trkpt>
      <trkpt lat="43.46474" lon="0.98808">
        <ele>252.2</ele>
        <time>2024-05-20T07:47:27Z</time>
      </trkpt>
      <trkpt lat="43.46476" lon="0.98798">
        <ele>252</ele>
        <time>2024-05-20T07:47:28Z</time>
      </trkpt>
      <trkpt lat="43.46478" lon="0.98782">
        <ele>251.8</ele>
        <time>2024-05-20T07:47:29Z</time>
      </trkpt>
      <trkpt lat="43.46481" lon="0.98773">
        <ele>251.6</ele>
        <time>2024-05-20T07:47:30Z</time>
      </trkpt>
      <trkpt lat="43.46484" lon="0.98761">
        <ele>251.6</ele>
        <time>2024-05-20T07:47:31Z</time>
      </trkpt>
      <trkpt lat="43.46488" lon="0.98747">
        <ele>251.4</ele>
        <time>2024-05-20T07:47:32Z</time>
      </trkpt>
      <trkpt lat="43.46491" lon="0.98737">
        <ele>251.2</ele>
        <time>2024-05-20T07:47:33Z</time>
      </trkpt>
      <trkpt lat="43.46495" lon="0.98726">
        <ele>251.2</ele>
        <time>2024-05-20T07:47:34Z</time>
      </trkpt>
      <trkpt lat="43.46498" lon="0.98714">
        <ele>251</ele>
        <time>2024-05-20T07:47:35Z</time>
      </trkpt>
      <trkpt lat="43.46501" lon="0.98703">
        <ele>250.8</ele>
        <time>2024-05-20T07:47:36Z</time>
      </trkpt>
      <trkpt lat="43.46506" lon="0.98691">
        <ele>250.6</ele>
        <time>2024-05-20T07:47:37Z</time>
      </trkpt>
      <trkpt lat="43.4651" lon="0.9868">
        <ele>250.6</ele>
        <time>2024-05-20T07:47:38Z</time>
      </trkpt>
      <trkpt lat="43.46515" lon="0.98671">
        <ele>250.4</ele>
        <time>2024-05-20T07:47:39Z</time>
      </trkpt>
      <trkpt lat="43.4652" lon="0.9866">
        <ele>250.2</ele>
        <time>2024-05-20T07:47:40Z</time>
      </trkpt>
      <trkpt lat="43.46527" lon="0.98647">
        <ele>250</ele>
        <time>2024-05-20T07:47:41Z</time>
      </trkpt>
      <trkpt lat="43.46532" lon="0.98638">
        <ele>249.8</ele>
        <time>2024-05-20T07:47:42Z</time>
      </trkpt>
      <trkpt lat="43.46538" lon="0.98627">
        <ele>249.6</ele>
        <time>2024-05-20T07:47:43Z</time>
      </trkpt>
      <trkpt lat="43.46543" lon="0.98615">
        <ele>249.4</ele>
        <time>2024-05-20T07:47:44Z</time>
      </trkpt>
      <trkpt lat="43.46549" lon="0.98603">
        <ele>249</ele>
        <time>2024-05-20T07:47:45Z</time>
      </trkpt>
      <trkpt lat="43.46553" lon="0.9859">
        <ele>248.8</ele>
        <time>2024-05-20T07:47:46Z</time>
      </trkpt>
      <trkpt lat="43.46558" lon="0.98574">
        <ele>248.4</ele>
        <time>2024-05-20T07:47:47Z</time>
      </trkpt>
      <trkpt lat="43.46562" lon="0.9856">
        <ele>247.8</ele>
        <time>2024-05-20T07:47:48Z</time>
      </trkpt>
      <trkpt lat="43.46565" lon="0.98549">
        <ele>247.6</ele>
        <time>2024-05-20T07:47:49Z</time>
      </trkpt>
      <trkpt lat="43.46568" lon="0.98536">
        <ele>247</ele>
        <time>2024-05-20T07:47:50Z</time>
      </trkpt>
      <trkpt lat="43.46572" lon="0.98523">
        <ele>246.6</ele>
        <time>2024-05-20T07:47:51Z</time>
      </trkpt>
      <trkpt lat="43.46576" lon="0.98507">
        <ele>245.8</ele>
        <time>2024-05-20T07:47:52Z</time>
      </trkpt>
      <trkpt lat="43.46579" lon="0.98496">
        <ele>245.6</ele>
        <time>2024-05-20T07:47:53Z</time>
      </trkpt>
      <trkpt lat="43.46583" lon="0.98483">
        <ele>245.2</ele>
        <time>2024-05-20T07:47:54Z</time>
      </trkpt>
      <trkpt lat="43.46588" lon="0.98469">
        <ele>245</ele>
        <time>2024-05-20T07:47:55Z</time>
      </trkpt>
      <trkpt lat="43.46594" lon="0.98457">
        <ele>244.4</ele>
        <time>2024-05-20T07:47:56Z</time>
      </trkpt>
      <trkpt lat="43.46601" lon="0.98442">
        <ele>243.6</ele>
        <time>2024-05-20T07:47:57Z</time>
      </trkpt>
      <trkpt lat="43.46607" lon="0.98432">
        <ele>243</ele>
        <time>2024-05-20T07:47:58Z</time>
      </trkpt>
      <trkpt lat="43.46614" lon="0.9842">
        <ele>242.4</ele>
        <time>2024-05-20T07:47:59Z</time>
      </trkpt>
      <trkpt lat="43.46623" lon="0.98405">
        <ele>241.8</ele>
        <time>2024-05-20T07:48:00Z</time>
      </trkpt>
      <trkpt lat="43.46628" lon="0.98395">
        <ele>240.8</ele>
        <time>2024-05-20T07:48:01Z</time>
      </trkpt>
      <trkpt lat="43.46636" lon="0.98383">
        <ele>240.6</ele>
        <time>2024-05-20T07:48:02Z</time>
      </trkpt>
      <trkpt lat="43.46643" lon="0.98371">
        <ele>240.4</ele>
        <time>2024-05-20T07:48:03Z</time>
      </trkpt>
      <trkpt lat="43.4665" lon="0.98358">
        <ele>240</ele>
        <time>2024-05-20T07:48:04Z</time>
      </trkpt>
      <trkpt lat="43.46657" lon="0.98346">
        <ele>239</ele>
        <time>2024-05-20T07:48:05Z</time>
      </trkpt>
      <trkpt lat="43.46666" lon="0.9833">
        <ele>237.8</ele>
        <time>2024-05-20T07:48:06Z</time>
      </trkpt>
      <trkpt lat="43.46672" lon="0.9832">
        <ele>237.4</ele>
        <time>2024-05-20T07:48:07Z</time>
      </trkpt>
      <trkpt lat="43.4668" lon="0.98307">
        <ele>236.8</ele>
        <time>2024-05-20T07:48:08Z</time>
      </trkpt>
      <trkpt lat="43.46689" lon="0.98291">
        <ele>236.2</ele>
        <time>2024-05-20T07:48:09Z</time>
      </trkpt>
      <trkpt lat="43.46695" lon="0.9828">
        <ele>235.2</ele>
        <time>2024-05-20T07:48:10Z</time>
      </trkpt>
      <trkpt lat="43.46705" lon="0.98264">
        <ele>234.8</ele>
        <time>2024-05-20T07:48:11Z</time>
      </trkpt>
      <trkpt lat="43.46711" lon="0.98253">
        <ele>233.4</ele>
        <time>2024-05-20T07:48:12Z</time>
      </trkpt>
      <trkpt lat="43.46719" lon="0.9824">
        <ele>233</ele>
        <time>2024-05-20T07:48:13Z</time>
      </trkpt>
      <trkpt lat="43.46728" lon="0.98225">
        <ele>232</ele>
        <time>2024-05-20T07:48:14Z</time>
      </trkpt>
      <trkpt lat="43.46736" lon="0.98211">
        <ele>231</ele>
        <time>2024-05-20T07:48:15Z</time>
      </trkpt>
      <trkpt lat="43.46744" lon="0.98197">
        <ele>230.6</ele>
        <time>2024-05-20T07:48:16Z</time>
      </trkpt>
      <trkpt lat="43.46753" lon="0.98182">
        <ele>229.4</ele>
        <time>2024-05-20T07:48:17Z</time>
      </trkpt>
      <trkpt lat="43.46761" lon="0.98167">
        <ele>229.2</ele>
        <time>2024-05-20T07:48:18Z</time>
      </trkpt>
      <trkpt lat="43.46769" lon="0.98151">
        <ele>228</ele>
        <time>2024-05-20T07:48:19Z</time>
      </trkpt>
      <trkpt lat="43.46778" lon="0.98133">
        <ele>227.2</ele>
        <time>2024-05-20T07:48:20Z</time>
      </trkpt>
      <trkpt lat="43.46785" lon="0.9812">
        <ele>225.8</ele>
        <time>2024-05-20T07:48:21Z</time>
      </trkpt>
      <trkpt lat="43.46792" lon="0.98104">
        <ele>225.4</ele>
        <time>2024-05-20T07:48:22Z</time>
      </trkpt>
      <trkpt lat="43.46799" lon="0.98088">
        <ele>224.4</ele>
        <time>2024-05-20T07:48:23Z</time>
      </trkpt>
      <trkpt lat="43.46806" lon="0.98073">
        <ele>223.6</ele>
        <time>2024-05-20T07:48:24Z</time>
      </trkpt>
      <trkpt lat="43.46813" lon="0.98058">
        <ele>222.8</ele>
        <time>2024-05-20T07:48:25Z</time>
      </trkpt>
      <trkpt lat="43.46819" lon="0.98043">
        <ele>221.8</ele>
        <time>2024-05-20T07:48:26Z</time>
      </trkpt>
      <trkpt lat="43.46826" lon="0.98028">
        <ele>221.4</ele>
        <time>2024-05-20T07:48:27Z</time>
      </trkpt>
      <trkpt lat="43.46833" lon="0.98012">
        <ele>220.4</ele>
        <time>2024-05-20T07:48:28Z</time>
      </trkpt>
      <trkpt lat="43.46841" lon="0.97994">
        <ele>220</ele>
        <time>2024-05-20T07:48:29Z</time>
      </trkpt>
      <trkpt lat="43.46847" lon="0.97979">
        <ele>219.2</ele>
        <time>2024-05-20T07:48:30Z</time>
      </trkpt>
      <trkpt lat="43.46853" lon="0.97967">
        <ele>218.6</ele>
        <time>2024-05-20T07:48:31Z</time>
      </trkpt>
      <trkpt lat="43.46861" lon="0.97949">
        <ele>217.6</ele>
        <time>2024-05-20T07:48:32Z</time>
      </trkpt>
      <trkpt lat="43.46866" lon="0.97936">
        <ele>216.4</ele>
        <time>2024-05-20T07:48:33Z</time>
      </trkpt>
      <trkpt lat="43.46872" lon="0.9792">
        <ele>215.8</ele>
        <time>2024-05-20T07:48:34Z</time>
      </trkpt>
      <trkpt lat="43.46877" lon="0.97904">
        <ele>214.8</ele>
        <time>2024-05-20T07:48:35Z</time>
      </trkpt>
      <trkpt lat="43.46881" lon="0.97888">
        <ele>214.4</ele>
        <time>2024-05-20T07:48:36Z</time>
      </trkpt>
      <trkpt lat="43.46885" lon="0.97871">
        <ele>213.2</ele>
        <time>2024-05-20T07:48:37Z</time>
      </trkpt>
      <trkpt lat="43.46888" lon="0.97854">
        <ele>212.6</ele>
        <time>2024-05-20T07:48:38Z</time>
      </trkpt>
      <trkpt lat="43.4689" lon="0.97838">
        <ele>211.2</ele>
        <time>2024-05-20T07:48:39Z</time>
      </trkpt>
      <trkpt lat="43.46891" lon="0.97822">
        <ele>210.4</ele>
        <time>2024-05-20T07:48:40Z</time>
      </trkpt>
      <trkpt lat="43.46891" lon="0.97805">
        <ele>209.4</ele>
        <time>2024-05-20T07:48:41Z</time>
      </trkpt>
      <trkpt lat="43.46889" lon="0.97789">
        <ele>208.6</ele>
        <time>2024-05-20T07:48:42Z</time>
      </trkpt>
      <trkpt lat="43.46884" lon="0.97773">
        <ele>208</ele>
        <time>2024-05-20T07:48:43Z</time>
      </trkpt>
      <trkpt lat="43.46878" lon="0.97758">
        <ele>206.6</ele>
        <time>2024-05-20T07:48:44Z</time>
      </trkpt>
      <trkpt lat="43.4687" lon="0.97745">
        <ele>206</ele>
        <time>2024-05-20T07:48:45Z</time>
      </trkpt>
      <trkpt lat="43.46859" lon="0.97735">
        <ele>204.8</ele>
        <time>2024-05-20T07:48:46Z</time>
      </trkpt>
      <trkpt lat="43.46848" lon="0.97728">
        <ele>203.8</ele>
        <time>2024-05-20T07:48:47Z</time>
      </trkpt>
      <trkpt lat="43.46837" lon="0.9772">
        <ele>202.4</ele>
        <time>2024-05-20T07:48:48Z</time>
      </trkpt>
      <trkpt lat="43.46828" lon="0.97712">
        <ele>201.8</ele>
        <time>2024-05-20T07:48:49Z</time>
      </trkpt>
      <trkpt lat="43.4682" lon="0.97702">
        <ele>200</ele>
        <time>2024-05-20T07:48:50Z</time>
      </trkpt>
      <trkpt lat="43.46814" lon="0.97689">
        <ele>198.6</ele>
        <time>2024-05-20T07:48:51Z</time>
      </trkpt>
      <trkpt lat="43.4681" lon="0.97671">
        <ele>197.8</ele>
        <time>2024-05-20T07:48:52Z</time>
      </trkpt>
      <trkpt lat="43.46809" lon="0.97658">
        <ele>197</ele>
        <time>2024-05-20T07:48:53Z</time>
      </trkpt>
      <trkpt lat="43.4681" lon="0.97643">
        <ele>196.6</ele>
        <time>2024-05-20T07:48:54Z</time>
      </trkpt>
      <trkpt lat="43.46811" lon="0.97628">
        <ele>195.8</ele>
        <time>2024-05-20T07:48:55Z</time>
      </trkpt>
      <trkpt lat="43.46812" lon="0.97613">
        <ele>195.4</ele>
        <time>2024-05-20T07:48:56Z</time>
      </trkpt>
      <trkpt lat="43.46814" lon="0.97599">
        <ele>194.6</ele>
        <time>2024-05-20T07:48:57Z</time>
      </trkpt>
      <trkpt lat="43.46816" lon="0.97585">
        <ele>193.4</ele>
        <time>2024-05-20T07:48:58Z</time>
      </trkpt>
      <trkpt lat="43.46818" lon="0.97571">
        <ele>192.2</ele>
        <time>2024-05-20T07:48:59Z</time>
      </trkpt>
      <trkpt lat="43.46819" lon="0.97558">
        <ele>191.6</ele>
        <time>2024-05-20T07:49:00Z</time>
      </trkpt>
      <trkpt lat="43.46821" lon="0.97542">
        <ele>191.4</ele>
        <time>2024-05-20T07:49:01Z</time>
      </trkpt>
      <trkpt lat="43.46823" lon="0.97529">
        <ele>191.2</ele>
        <time>2024-05-20T07:49:02Z</time>
      </trkpt>
      <trkpt lat="43.46826" lon="0.97519">
        <ele>191</ele>
        <time>2024-05-20T07:49:03Z</time>
      </trkpt>
      <trkpt lat="43.4683" lon="0.97507">
        <ele>191</ele>
        <time>2024-05-20T07:49:04Z</time>
      </trkpt>
      <trkpt lat="43.46836" lon="0.97498">
        <ele>191</ele>
        <time>2024-05-20T07:49:05Z</time>
      </trkpt>
      <trkpt lat="43.46844" lon="0.97492">
        <ele>190.8</ele>
        <time>2024-05-20T07:49:06Z</time>
      </trkpt>
      <trkpt lat="43.46853" lon="0.9749">
        <ele>190.8</ele>
        <time>2024-05-20T07:49:07Z</time>
      </trkpt>
      <trkpt lat="43.46864" lon="0.9749">
        <ele>190.4</ele>
        <time>2024-05-20T07:49:08Z</time>
      </trkpt>
      <trkpt lat="43.46871" lon="0.97492">
        <ele>190.4</ele>
        <time>2024-05-20T07:49:09Z</time>
      </trkpt>
      <trkpt lat="43.46881" lon="0.97494">
        <ele>190.2</ele>
        <time>2024-05-20T07:49:10Z</time>
      </trkpt>
      <trkpt lat="43.46892" lon="0.97496">
        <ele>190.2</ele>
        <time>2024-05-20T07:49:11Z</time>
      </trkpt>
      <trkpt lat="43.46901" lon="0.97498">
        <ele>190</ele>
        <time>2024-05-20T07:49:12Z</time>
      </trkpt>
      <trkpt lat="43.46909" lon="0.975">
        <ele>189.8</ele>
        <time>2024-05-20T07:49:13Z</time>
      </trkpt>
      <trkpt lat="43.46918" lon="0.97502">
        <ele>189.6</ele>
        <time>2024-05-20T07:49:14Z</time>
      </trkpt>
      <trkpt lat="43.46927" lon="0.97505">
        <ele>189.4</ele>
        <time>2024-05-20T07:49:15Z</time>
      </trkpt>
      <trkpt lat="43.46937" lon="0.97506">
        <ele>189.4</ele>
        <time>2024-05-20T07:49:16Z</time>
      </trkpt>
      <trkpt lat="43.46948" lon="0.97508">
        <ele>189.2</ele>
        <time>2024-05-20T07:49:17Z</time>
      </trkpt>
      <trkpt lat="43.46956" lon="0.9751">
        <ele>189</ele>
        <time>2024-05-20T07:49:18Z</time>
      </trkpt>
      <trkpt lat="43.46965" lon="0.97511">
        <ele>189</ele>
        <time>2024-05-20T07:49:19Z</time>
      </trkpt>
      <trkpt lat="43.46974" lon="0.97512">
        <ele>189</ele>
        <time>2024-05-20T07:49:20Z</time>
      </trkpt>
      <trkpt lat="43.46983" lon="0.97512">
        <ele>189</ele>
        <time>2024-05-20T07:49:21Z</time>
      </trkpt>
      <trkpt lat="43.46993" lon="0.97512">
        <ele>189</ele>
        <time>2024-05-20T07:49:22Z</time>
      </trkpt>
      <trkpt lat="43.47001" lon="0.9751">
        <ele>188.8</ele>
        <time>2024-05-20T07:49:23Z</time>
      </trkpt>
      <trkpt lat="43.4701" lon="0.97508">
        <ele>188.8</ele>
        <time>2024-05-20T07:49:24Z</time>
      </trkpt>
      <trkpt lat="43.47018" lon="0.97506">
        <ele>188.8</ele>
        <time>2024-05-20T07:49:25Z</time>
      </trkpt>
      <trkpt lat="43.47026" lon="0.97502">
        <ele>188.8</ele>
        <time>2024-05-20T07:49:26Z</time>
      </trkpt>
      <trkpt lat="43.47035" lon="0.97499">
        <ele>188.8</ele>
        <time>2024-05-20T07:49:27Z</time>
      </trkpt>
      <trkpt lat="43.4704" lon="0.97496">
        <ele>188.8</ele>
        <time>2024-05-20T07:49:28Z</time>
      </trkpt>
      <trkpt lat="43.47047" lon="0.97492">
        <ele>189</ele>
        <time>2024-05-20T07:49:29Z</time>
      </trkpt>
      <trkpt lat="43.47055" lon="0.97488">
        <ele>189</ele>
        <time>2024-05-20T07:49:30Z</time>
      </trkpt>
      <trkpt lat="43.4706" lon="0.97485">
        <ele>189.2</ele>
        <time>2024-05-20T07:49:31Z</time>
      </trkpt>
      <trkpt lat="43.47067" lon="0.97481">
        <ele>189.4</ele>
        <time>2024-05-20T07:49:32Z</time>
      </trkpt>
      <trkpt lat="43.47072" lon="0.97478">
        <ele>189.6</ele>
        <time>2024-05-20T07:49:33Z</time>
      </trkpt>
      <trkpt lat="43.47078" lon="0.97474">
        <ele>189.8</ele>
        <time>2024-05-20T07:49:34Z</time>
      </trkpt>
      <trkpt lat="43.47084" lon="0.97471">
        <ele>190</ele>
        <time>2024-05-20T07:49:35Z</time>
      </trkpt>
      <trkpt lat="43.4709" lon="0.97467">
        <ele>190.4</ele>
        <time>2024-05-20T07:49:36Z</time>
      </trkpt>
      <trkpt lat="43.47095" lon="0.97464">
        <ele>190.6</ele>
        <time>2024-05-20T07:49:37Z</time>
      </trkpt>
      <trkpt lat="43.47099" lon="0.97461">
        <ele>190.8</ele>
        <time>2024-05-20T07:49:38Z</time>
      </trkpt>
      <trkpt lat="43.47104" lon="0.97457">
        <ele>191</ele>
        <time>2024-05-20T07:49:39Z</time>
      </trkpt>
      <trkpt lat="43.47109" lon="0.97454">
        <ele>191.4</ele>
        <time>2024-05-20T07:49:40Z</time>
      </trkpt>
      <trkpt lat="43.47114" lon="0.97451">
        <ele>191.8</ele>
        <time>2024-05-20T07:49:41Z</time>
      </trkpt>
      <trkpt lat="43.47119" lon="0.97449">
        <ele>192</ele>
        <time>2024-05-20T07:49:42Z</time>
      </trkpt>
      <trkpt lat="43.47124" lon="0.97447">
        <ele>192.2</ele>
        <time>2024-05-20T07:49:43Z</time>
      </trkpt>
      <trkpt lat="43.47129" lon="0.97444">
        <ele>192.4</ele>
        <time>2024-05-20T07:49:44Z</time>
      </trkpt>
      <trkpt lat="43.47134" lon="0.97441">
        <ele>192.6</ele>
        <time>2024-05-20T07:49:45Z</time>
      </trkpt>
      <trkpt lat="43.47138" lon="0.97438">
        <ele>192.6</ele>
        <time>2024-05-20T07:49:46Z</time>
      </trkpt>
      <trkpt lat="43.47142" lon="0.97436">
        <ele>193</ele>
        <time>2024-05-20T07:49:47Z</time>
      </trkpt>
      <trkpt lat="43.47146" lon="0.97433">
        <ele>193.2</ele>
        <time>2024-05-20T07:49:48Z</time>
      </trkpt>
      <trkpt lat="43.47151" lon="0.97431">
        <ele>193.6</ele>
        <time>2024-05-20T07:49:49Z</time>
      </trkpt>
      <trkpt lat="43.47156" lon="0.97429">
        <ele>194.2</ele>
        <time>2024-05-20T07:49:50Z</time>
      </trkpt>
      <trkpt lat="43.47161" lon="0.97426">
        <ele>194.8</ele>
        <time>2024-05-20T07:49:51Z</time>
      </trkpt>
      <trkpt lat="43.47164" lon="0.97424">
        <ele>195.2</ele>
        <time>2024-05-20T07:49:52Z</time>
      </trkpt>
      <trkpt lat="43.47168" lon="0.97421">
        <ele>195.2</ele>
        <time>2024-05-20T07:49:53Z</time>
      </trkpt>
      <trkpt lat="43.47173" lon="0.97418">
        <ele>195.4</ele>
        <time>2024-05-20T07:49:54Z</time>
      </trkpt>
      <trkpt lat="43.47178" lon="0.97414">
        <ele>195.6</ele>
        <time>2024-05-20T07:49:55Z</time>
      </trkpt>
      <trkpt lat="43.47181" lon="0.97411">
        <ele>195.8</ele>
        <time>2024-05-20T07:49:56Z</time>
      </trkpt>
      <trkpt lat="43.47185" lon="0.97408">
        <ele>196.4</ele>
        <time>2024-05-20T07:49:57Z</time>
      </trkpt>
      <trkpt lat="43.4719" lon="0.97405">
        <ele>197</ele>
        <time>2024-05-20T07:49:58Z</time>
      </trkpt>
      <trkpt lat="43.47194" lon="0.97402">
        <ele>197.2</ele>
        <time>2024-05-20T07:49:59Z</time>
      </trkpt>
      <trkpt lat="43.47198" lon="0.97399">
        <ele>197.6</ele>
        <time>2024-05-20T07:50:00Z</time>
      </trkpt>
      <trkpt lat="43.47203" lon="0.97397">
        <ele>198</ele>
        <time>2024-05-20T07:50:01Z</time>
      </trkpt>
      <trkpt lat="43.47207" lon="0.97394">
        <ele>198.2</ele>
        <time>2024-05-20T07:50:02Z</time>
      </trkpt>
      <trkpt lat="43.47211" lon="0.97391">
        <ele>198.4</ele>
        <time>2024-05-20T07:50:03Z</time>
      </trkpt>
      <trkpt lat="43.47216" lon="0.97388">
        <ele>198.4</ele>
        <time>2024-05-20T07:50:04Z</time>
      </trkpt>
      <trkpt lat="43.47221" lon="0.97385">
        <ele>199</ele>
        <time>2024-05-20T07:50:05Z</time>
      </trkpt>
      <trkpt lat="43.47225" lon="0.97383">
        <ele>199</ele>
        <time>2024-05-20T07:50:06Z</time>
      </trkpt>
      <trkpt lat="43.4723" lon="0.9738">
        <ele>199.4</ele>
        <time>2024-05-20T07:50:07Z</time>
      </trkpt>
      <trkpt lat="43.47235" lon="0.97377">
        <ele>199.4</ele>
        <time>2024-05-20T07:50:08Z</time>
      </trkpt>
      <trkpt lat="43.4724" lon="0.97375">
        <ele>199.6</ele>
        <time>2024-05-20T07:50:09Z</time>
      </trkpt>
      <trkpt lat="43.47246" lon="0.97371">
        <ele>200</ele>
        <time>2024-05-20T07:50:10Z</time>
      </trkpt>
      <trkpt lat="43.47249" lon="0.97368">
        <ele>200</ele>
        <time>2024-05-20T07:50:11Z</time>
      </trkpt>
      <trkpt lat="43.47254" lon="0.97366">
        <ele>200.4</ele>
        <time>2024-05-20T07:50:12Z</time>
      </trkpt>
      <trkpt lat="43.47261" lon="0.97362">
        <ele>200.4</ele>
        <time>2024-05-20T07:50:13Z</time>
      </trkpt>
      <trkpt lat="43.47265" lon="0.9736">
        <ele>200.6</ele>
        <time>2024-05-20T07:50:14Z</time>
      </trkpt>
      <trkpt lat="43.4727" lon="0.97357">
        <ele>200.8</ele>
        <time>2024-05-20T07:50:15Z</time>
      </trkpt>
      <trkpt lat="43.47275" lon="0.97354">
        <ele>201</ele>
        <time>2024-05-20T07:50:16Z</time>
      </trkpt>
      <trkpt lat="43.4728" lon="0.97351">
        <ele>201</ele>
        <time>2024-05-20T07:50:17Z</time>
      </trkpt>
      <trkpt lat="43.47285" lon="0.97348">
        <ele>201.2</ele>
        <time>2024-05-20T07:50:18Z</time>
      </trkpt>
      <trkpt lat="43.47291" lon="0.97344">
        <ele>201.4</ele>
        <time>2024-05-20T07:50:19Z</time>
      </trkpt>
      <trkpt lat="43.47295" lon="0.97342">
        <ele>201.4</ele>
        <time>2024-05-20T07:50:20Z</time>
      </trkpt>
      <trkpt lat="43.473" lon="0.97339">
        <ele>201.4</ele>
        <time>2024-05-20T07:50:21Z</time>
      </trkpt>
      <trkpt lat="43.47305" lon="0.97336">
        <ele>201.4</ele>
        <time>2024-05-20T07:50:22Z</time>
      </trkpt>
      <trkpt lat="43.47311" lon="0.97332">
        <ele>201.6</ele>
        <time>2024-05-20T07:50:23Z</time>
      </trkpt>
      <trkpt lat="43.47316" lon="0.97329">
        <ele>201.6</ele>
        <time>2024-05-20T07:50:24Z</time>
      </trkpt>
      <trkpt lat="43.47322" lon="0.97326">
        <ele>201.8</ele>
        <time>2024-05-20T07:50:25Z</time>
      </trkpt>
      <trkpt lat="43.47327" lon="0.97323">
        <ele>201.8</ele>
        <time>2024-05-20T07:50:26Z</time>
      </trkpt>
      <trkpt lat="43.47334" lon="0.97319">
        <ele>201.8</ele>
        <time>2024-05-20T07:50:27Z</time>
      </trkpt>
      <trkpt lat="43.47339" lon="0.97316">
        <ele>202</ele>
        <time>2024-05-20T07:50:28Z</time>
      </trkpt>
      <trkpt lat="43.47345" lon="0.97313">
        <ele>202</ele>
        <time>2024-05-20T07:50:29Z</time>
      </trkpt>
      <trkpt lat="43.4735" lon="0.9731">
        <ele>202</ele>
        <time>2024-05-20T07:50:30Z</time>
      </trkpt>
      <trkpt lat="43.47358" lon="0.97307">
        <ele>202</ele>
        <time>2024-05-20T07:50:31Z</time>
      </trkpt>
      <trkpt lat="43.47364" lon="0.97306">
        <ele>202</ele>
        <time>2024-05-20T07:50:32Z</time>
      </trkpt>
      <trkpt lat="43.47371" lon="0.97304">
        <ele>202</ele>
        <time>2024-05-20T07:50:33Z</time>
      </trkpt>
      <trkpt lat="43.47376" lon="0.97303">
        <ele>202</ele>
        <time>2024-05-20T07:50:34Z</time>
      </trkpt>
      <trkpt lat="43.47383" lon="0.97302">
        <ele>202</ele>
        <time>2024-05-20T07:50:35Z</time>
      </trkpt>
      <trkpt lat="43.47389" lon="0.97302">
        <ele>202</ele>
        <time>2024-05-20T07:50:36Z</time>
      </trkpt>
      <trkpt lat="43.47396" lon="0.97302">
        <ele>202</ele>
        <time>2024-05-20T07:50:37Z</time>
      </trkpt>
      <trkpt lat="43.47402" lon="0.97302">
        <ele>202</ele>
        <time>2024-05-20T07:50:38Z</time>
      </trkpt>
      <trkpt lat="43.47409" lon="0.97302">
        <ele>202</ele>
        <time>2024-05-20T07:50:39Z</time>
      </trkpt>
      <trkpt lat="43.47415" lon="0.97302">
        <ele>202</ele>
        <time>2024-05-20T07:50:40Z</time>
      </trkpt>
      <trkpt lat="43.47422" lon="0.97302">
        <ele>202.2</ele>
        <time>2024-05-20T07:50:41Z</time>
      </trkpt>
      <trkpt lat="43.47428" lon="0.97302">
        <ele>202.2</ele>
        <time>2024-05-20T07:50:42Z</time>
      </trkpt>
      <trkpt lat="43.47435" lon="0.97302">
        <ele>202.2</ele>
        <time>2024-05-20T07:50:43Z</time>
      </trkpt>
      <trkpt lat="43.47441" lon="0.97302">
        <ele>202.2</ele>
        <time>2024-05-20T07:50:44Z</time>
      </trkpt>
      <trkpt lat="43.47448" lon="0.97301">
        <ele>202.4</ele>
        <time>2024-05-20T07:50:45Z</time>
      </trkpt>
      <trkpt lat="43.47454" lon="0.97301">
        <ele>202.4</ele>
        <time>2024-05-20T07:50:46Z</time>
      </trkpt>
      <trkpt lat="43.47461" lon="0.97301">
        <ele>202.6</ele>
        <time>2024-05-20T07:50:47Z</time>
      </trkpt>
      <trkpt lat="43.47467" lon="0.97301">
        <ele>202.6</ele>
        <time>2024-05-20T07:50:48Z</time>
      </trkpt>
      <trkpt lat="43.47474" lon="0.97301">
        <ele>202.8</ele>
        <time>2024-05-20T07:50:49Z</time>
      </trkpt>
      <trkpt lat="43.47481" lon="0.97301">
        <ele>202.8</ele>
        <time>2024-05-20T07:50:50Z</time>
      </trkpt>
      <trkpt lat="43.47488" lon="0.97301">
        <ele>202.8</ele>
        <time>2024-05-20T07:50:51Z</time>
      </trkpt>
      <trkpt lat="43.47495" lon="0.97301">
        <ele>202.8</ele>
        <time>2024-05-20T07:50:52Z</time>
      </trkpt>
      <trkpt lat="43.47502" lon="0.97301">
        <ele>202.8</ele>
        <time>2024-05-20T07:50:53Z</time>
      </trkpt>
      <trkpt lat="43.47509" lon="0.97301">
        <ele>202.8</ele>
        <time>2024-05-20T07:50:54Z</time>
      </trkpt>
      <trkpt lat="43.47516" lon="0.97301">
        <ele>202.6</ele>
        <time>2024-05-20T07:50:55Z</time>
      </trkpt>
      <trkpt lat="43.47523" lon="0.97301">
        <ele>202.6</ele>
        <time>2024-05-20T07:50:56Z</time>
      </trkpt>
      <trkpt lat="43.4753" lon="0.97301">
        <ele>202.4</ele>
        <time>2024-05-20T07:50:57Z</time>
      </trkpt>
      <trkpt lat="43.47537" lon="0.97301">
        <ele>202.4</ele>
        <time>2024-05-20T07:50:58Z</time>
      </trkpt>
      <trkpt lat="43.47544" lon="0.97301">
        <ele>202.2</ele>
        <time>2024-05-20T07:50:59Z</time>
      </trkpt>
      <trkpt lat="43.47551" lon="0.97301">
        <ele>202.2</ele>
        <time>2024-05-20T07:51:00Z</time>
      </trkpt>
      <trkpt lat="43.47559" lon="0.97301">
        <ele>202</ele>
        <time>2024-05-20T07:51:01Z</time>
      </trkpt>
      <trkpt lat="43.47566" lon="0.97301">
        <ele>202</ele>
        <time>2024-05-20T07:51:02Z</time>
      </trkpt>
      <trkpt lat="43.47574" lon="0.97301">
        <ele>201.8</ele>
        <time>2024-05-20T07:51:03Z</time>
      </trkpt>
      <trkpt lat="43.47582" lon="0.97301">
        <ele>201.6</ele>
        <time>2024-05-20T07:51:04Z</time>
      </trkpt>
      <trkpt lat="43.4759" lon="0.97301">
        <ele>201.4</ele>
        <time>2024-05-20T07:51:05Z</time>
      </trkpt>
      <trkpt lat="43.47598" lon="0.97301">
        <ele>201.2</ele>
        <time>2024-05-20T07:51:06Z</time>
      </trkpt>
      <trkpt lat="43.47606" lon="0.973">
        <ele>201.2</ele>
        <time>2024-05-20T07:51:07Z</time>
      </trkpt>
      <trkpt lat="43.47613" lon="0.973">
        <ele>201.2</ele>
        <time>2024-05-20T07:51:08Z</time>
      </trkpt>
      <trkpt lat="43.47621" lon="0.97301">
        <ele>201</ele>
        <time>2024-05-20T07:51:09Z</time>
      </trkpt>
      <trkpt lat="43.47628" lon="0.97301">
        <ele>200.8</ele>
        <time>2024-05-20T07:51:10Z</time>
      </trkpt>
      <trkpt lat="43.47636" lon="0.97302">
        <ele>200.8</ele>
        <time>2024-05-20T07:51:11Z</time>
      </trkpt>
      <trkpt lat="43.47644" lon="0.97302">
        <ele>200.4</ele>
        <time>2024-05-20T07:51:12Z</time>
      </trkpt>
      <trkpt lat="43.47651" lon="0.97302">
        <ele>200.2</ele>
        <time>2024-05-20T07:51:13Z</time>
      </trkpt>
      <trkpt lat="43.47659" lon="0.97303">
        <ele>200.2</ele>
        <time>2024-05-20T07:51:14Z</time>
      </trkpt>
      <trkpt lat="43.47666" lon="0.97303">
        <ele>200</ele>
        <time>2024-05-20T07:51:15Z</time>
      </trkpt>
      <trkpt lat="43.47674" lon="0.97304">
        <ele>199.8</ele>
        <time>2024-05-20T07:51:16Z</time>
      </trkpt>
      <trkpt lat="43.47681" lon="0.97304">
        <ele>199.6</ele>
        <time>2024-05-20T07:51:17Z</time>
      </trkpt>
      <trkpt lat="43.47689" lon="0.97305">
        <ele>199.6</ele>
        <time>2024-05-20T07:51:18Z</time>
      </trkpt>
      <trkpt lat="43.47697" lon="0.97306">
        <ele>199.4</ele>
        <time>2024-05-20T07:51:19Z</time>
      </trkpt>
      <trkpt lat="43.47704" lon="0.97308">
        <ele>199.4</ele>
        <time>2024-05-20T07:51:20Z</time>
      </trkpt>
      <trkpt lat="43.47712" lon="0.9731">
        <ele>199.2</ele>
        <time>2024-05-20T07:51:21Z</time>
      </trkpt>
      <trkpt lat="43.47721" lon="0.97312">
        <ele>199.2</ele>
        <time>2024-05-20T07:51:22Z</time>
      </trkpt>
      <trkpt lat="43.47729" lon="0.97314">
        <ele>199.2</ele>
        <time>2024-05-20T07:51:23Z</time>
      </trkpt>
      <trkpt lat="43.47737" lon="0.97318">
        <ele>199</ele>
        <time>2024-05-20T07:51:24Z</time>
      </trkpt>
      <trkpt lat="43.47745" lon="0.97321">
        <ele>198.8</ele>
        <time>2024-05-20T07:51:25Z</time>
      </trkpt>
      <trkpt lat="43.47753" lon="0.97324">
        <ele>198.6</ele>
        <time>2024-05-20T07:51:26Z</time>
      </trkpt>
      <trkpt lat="43.47762" lon="0.97326">
        <ele>198.4</ele>
        <time>2024-05-20T07:51:27Z</time>
      </trkpt>
      <trkpt lat="43.4777" lon="0.97328">
        <ele>198</ele>
        <time>2024-05-20T07:51:28Z</time>
      </trkpt>
      <trkpt lat="43.47779" lon="0.97328">
        <ele>198</ele>
        <time>2024-05-20T07:51:29Z</time>
      </trkpt>
      <trkpt lat="43.47787" lon="0.97328">
        <ele>197.4</ele>
        <time>2024-05-20T07:51:30Z</time>
      </trkpt>
      <trkpt lat="43.47796" lon="0.97328">
        <ele>197</ele>
        <time>2024-05-20T07:51:31Z</time>
      </trkpt>
      <trkpt lat="43.47804" lon="0.97327">
        <ele>196.8</ele>
        <time>2024-05-20T07:51:32Z</time>
      </trkpt>
      <trkpt lat="43.47812" lon="0.97326">
        <ele>196.6</ele>
        <time>2024-05-20T07:51:33Z</time>
      </trkpt>
      <trkpt lat="43.47821" lon="0.97325">
        <ele>196.6</ele>
        <time>2024-05-20T07:51:34Z</time>
      </trkpt>
      <trkpt lat="43.47829" lon="0.97324">
        <ele>196.6</ele>
        <time>2024-05-20T07:51:35Z</time>
      </trkpt>
      <trkpt lat="43.47837" lon="0.97322">
        <ele>196.4</ele>
        <time>2024-05-20T07:51:36Z</time>
      </trkpt>
      <trkpt lat="43.47845" lon="0.9732">
        <ele>196.4</ele>
        <time>2024-05-20T07:51:37Z</time>
      </trkpt>
      <trkpt lat="43.47853" lon="0.97318">
        <ele>196.4</ele>
        <time>2024-05-20T07:51:38Z</time>
      </trkpt>
      <trkpt lat="43.47861" lon="0.97315">
        <ele>196</ele>
        <time>2024-05-20T07:51:39Z</time>
      </trkpt>
      <trkpt lat="43.47868" lon="0.97313">
        <ele>195.8</ele>
        <time>2024-05-20T07:51:40Z</time>
      </trkpt>
      <trkpt lat="43.47875" lon="0.97312">
        <ele>195.8</ele>
        <time>2024-05-20T07:51:41Z</time>
      </trkpt>
      <trkpt lat="43.4788" lon="0.97311">
        <ele>195.6</ele>
        <time>2024-05-20T07:51:42Z</time>
      </trkpt>
      <trkpt lat="43.47885" lon="0.97308">
        <ele>195.6</ele>
        <time>2024-05-20T07:51:43Z</time>
      </trkpt>
      <trkpt lat="43.47888" lon="0.97303">
        <ele>195.2</ele>
        <time>2024-05-20T07:51:44Z</time>
      </trkpt>
      <trkpt lat="43.4789" lon="0.97298">
        <ele>195.2</ele>
        <time>2024-05-20T07:51:45Z</time>
      </trkpt>
      <trkpt lat="43.47892" lon="0.97293">
        <ele>195</ele>
        <time>2024-05-20T07:51:46Z</time>
      </trkpt>
      <trkpt lat="43.47894" lon="0.97288">
        <ele>194.8</ele>
        <time>2024-05-20T07:51:47Z</time>
      </trkpt>
      <trkpt lat="43.47896" lon="0.97283">
        <ele>194.8</ele>
        <time>2024-05-20T07:51:48Z</time>
      </trkpt>
      <trkpt lat="43.47898" lon="0.97278">
        <ele>194.8</ele>
        <time>2024-05-20T07:51:49Z</time>
      </trkpt>
      <trkpt lat="43.479" lon="0.97272">
        <ele>194.8</ele>
        <time>2024-05-20T07:51:50Z</time>
      </trkpt>
      <trkpt lat="43.47902" lon="0.97266">
        <ele>194.8</ele>
        <time>2024-05-20T07:51:51Z</time>
      </trkpt>
      <trkpt lat="43.47904" lon="0.9726">
        <ele>194.8</ele>
        <time>2024-05-20T07:51:52Z</time>
      </trkpt>
      <trkpt lat="43.47906" lon="0.97253">
        <ele>195</ele>
        <time>2024-05-20T07:51:53Z</time>
      </trkpt>
      <trkpt lat="43.47908" lon="0.97248">
        <ele>195</ele>
        <time>2024-05-20T07:51:54Z</time>
      </trkpt>
      <trkpt lat="43.4791" lon="0.97242">
        <ele>195</ele>
        <time>2024-05-20T07:51:55Z</time>
      </trkpt>
      <trkpt lat="43.47912" lon="0.97236">
        <ele>195.2</ele>
        <time>2024-05-20T07:51:56Z</time>
      </trkpt>
      <trkpt lat="43.47915" lon="0.9723">
        <ele>195.2</ele>
        <time>2024-05-20T07:51:57Z</time>
      </trkpt>
      <trkpt lat="43.47917" lon="0.97224">
        <ele>195.4</ele>
        <time>2024-05-20T07:51:58Z</time>
      </trkpt>
      <trkpt lat="43.4792" lon="0.97217">
        <ele>195.4</ele>
        <time>2024-05-20T07:51:59Z</time>
      </trkpt>
      <trkpt lat="43.47922" lon="0.97211">
        <ele>195.4</ele>
        <time>2024-05-20T07:52:00Z</time>
      </trkpt>
      <trkpt lat="43.47925" lon="0.97204">
        <ele>195.6</ele>
        <time>2024-05-20T07:52:01Z</time>
      </trkpt>
      <trkpt lat="43.47927" lon="0.97197">
        <ele>195.8</ele>
        <time>2024-05-20T07:52:02Z</time>
      </trkpt>
      <trkpt lat="43.4793" lon="0.97191">
        <ele>196</ele>
        <time>2024-05-20T07:52:03Z</time>
      </trkpt>
      <trkpt lat="43.47933" lon="0.97183">
        <ele>196</ele>
        <time>2024-05-20T07:52:04Z</time>
      </trkpt>
      <trkpt lat="43.47935" lon="0.97176">
        <ele>196.2</ele>
        <time>2024-05-20T07:52:05Z</time>
      </trkpt>
      <trkpt lat="43.47938" lon="0.97169">
        <ele>196.4</ele>
        <time>2024-05-20T07:52:06Z</time>
      </trkpt>
      <trkpt lat="43.47942" lon="0.97162">
        <ele>196.4</ele>
        <time>2024-05-20T07:52:07Z</time>
      </trkpt>
      <trkpt lat="43.47944" lon="0.97155">
        <ele>196.4</ele>
        <time>2024-05-20T07:52:08Z</time>
      </trkpt>
      <trkpt lat="43.47947" lon="0.97148">
        <ele>196.8</ele>
        <time>2024-05-20T07:52:09Z</time>
      </trkpt>
      <trkpt lat="43.47951" lon="0.97141">
        <ele>196.8</ele>
        <time>2024-05-20T07:52:10Z</time>
      </trkpt>
      <trkpt lat="43.47954" lon="0.97133">
        <ele>197</ele>
        <time>2024-05-20T07:52:11Z</time>
      </trkpt>
      <trkpt lat="43.47957" lon="0.97126">
        <ele>197</ele>
        <time>2024-05-20T07:52:12Z</time>
      </trkpt>
      <trkpt lat="43.4796" lon="0.97119">
        <ele>197.2</ele>
        <time>2024-05-20T07:52:13Z</time>
      </trkpt>
      <trkpt lat="43.47963" lon="0.97111">
        <ele>197.4</ele>
        <time>2024-05-20T07:52:14Z</time>
      </trkpt>
      <trkpt lat="43.47966" lon="0.97104">
        <ele>197.6</ele>
        <time>2024-05-20T07:52:15Z</time>
      </trkpt>
      <trkpt lat="43.47968" lon="0.97096">
        <ele>197.6</ele>
        <time>2024-05-20T07:52:16Z</time>
      </trkpt>
      <trkpt lat="43.47971" lon="0.97089">
        <ele>197.8</ele>
        <time>2024-05-20T07:52:17Z</time>
      </trkpt>
      <trkpt lat="43.47974" lon="0.97081">
        <ele>197.8</ele>
        <time>2024-05-20T07:52:18Z</time>
      </trkpt>
      <trkpt lat="43.47977" lon="0.97074">
        <ele>197.8</ele>
        <time>2024-05-20T07:52:19Z</time>
      </trkpt>
      <trkpt lat="43.47979" lon="0.97066">
        <ele>197.8</ele>
        <time>2024-05-20T07:52:20Z</time>
      </trkpt>
      <trkpt lat="43.47981" lon="0.97058">
        <ele>198</ele>
        <time>2024-05-20T07:52:21Z</time>
      </trkpt>
      <trkpt lat="43.47983" lon="0.9705">
        <ele>198</ele>
        <time>2024-05-20T07:52:22Z</time>
      </trkpt>
      <trkpt lat="43.47985" lon="0.97042">
        <ele>198</ele>
        <time>2024-05-20T07:52:23Z</time>
      </trkpt>
      <trkpt lat="43.47987" lon="0.97035">
        <ele>198.2</ele>
        <time>2024-05-20T07:52:24Z</time>
      </trkpt>
      <trkpt lat="43.47988" lon="0.97027">
        <ele>198.4</ele>
        <time>2024-05-20T07:52:25Z</time>
      </trkpt>
      <trkpt lat="43.47989" lon="0.97019">
        <ele>198.6</ele>
        <time>2024-05-20T07:52:26Z</time>
      </trkpt>
      <trkpt lat="43.4799" lon="0.97011">
        <ele>199</ele>
        <time>2024-05-20T07:52:27Z</time>
      </trkpt>
      <trkpt lat="43.47992" lon="0.97002">
        <ele>199.2</ele>
        <time>2024-05-20T07:52:28Z</time>
      </trkpt>
      <trkpt lat="43.47993" lon="0.96994">
        <ele>199.4</ele>
        <time>2024-05-20T07:52:29Z</time>
      </trkpt>
      <trkpt lat="43.47994" lon="0.96986">
        <ele>199.4</ele>
        <time>2024-05-20T07:52:30Z</time>
      </trkpt>
      <trkpt lat="43.47995" lon="0.96978">
        <ele>199.4</ele>
        <time>2024-05-20T07:52:31Z</time>
      </trkpt>
      <trkpt lat="43.47996" lon="0.9697">
        <ele>199.8</ele>
        <time>2024-05-20T07:52:32Z</time>
      </trkpt>
      <trkpt lat="43.47998" lon="0.96961">
        <ele>199.8</ele>
        <time>2024-05-20T07:52:33Z</time>
      </trkpt>
      <trkpt lat="43.47999" lon="0.96954">
        <ele>200</ele>
        <time>2024-05-20T07:52:34Z</time>
      </trkpt>
      <trkpt lat="43.48001" lon="0.96946">
        <ele>200</ele>
        <time>2024-05-20T07:52:35Z</time>
      </trkpt>
      <trkpt lat="43.48002" lon="0.96939">
        <ele>200.2</ele>
        <time>2024-05-20T07:52:36Z</time>
      </trkpt>
      <trkpt lat="43.48004" lon="0.96932">
        <ele>200.4</ele>
        <time>2024-05-20T07:52:37Z</time>
      </trkpt>
      <trkpt lat="43.48006" lon="0.96926">
        <ele>200.8</ele>
        <time>2024-05-20T07:52:38Z</time>
      </trkpt>
      <trkpt lat="43.48009" lon="0.96919">
        <ele>201</ele>
        <time>2024-05-20T07:52:39Z</time>
      </trkpt>
      <trkpt lat="43.48011" lon="0.96913">
        <ele>201.2</ele>
        <time>2024-05-20T07:52:40Z</time>
      </trkpt>
      <trkpt lat="43.48014" lon="0.96907">
        <ele>201.6</ele>
        <time>2024-05-20T07:52:41Z</time>
      </trkpt>
      <trkpt lat="43.48017" lon="0.96902">
        <ele>201.8</ele>
        <time>2024-05-20T07:52:42Z</time>
      </trkpt>
      <trkpt lat="43.48019" lon="0.96897">
        <ele>202</ele>
        <time>2024-05-20T07:52:43Z</time>
      </trkpt>
      <trkpt lat="43.48021" lon="0.96892">
        <ele>202.2</ele>
        <time>2024-05-20T07:52:44Z</time>
      </trkpt>
      <trkpt lat="43.48024" lon="0.96887">
        <ele>202.4</ele>
        <time>2024-05-20T07:52:45Z</time>
      </trkpt>
      <trkpt lat="43.48026" lon="0.96881">
        <ele>202.6</ele>
        <time>2024-05-20T07:52:46Z</time>
      </trkpt>
      <trkpt lat="43.4803" lon="0.96875">
        <ele>203</ele>
        <time>2024-05-20T07:52:47Z</time>
      </trkpt>
      <trkpt lat="43.48033" lon="0.9687">
        <ele>203.4</ele>
        <time>2024-05-20T07:52:48Z</time>
      </trkpt>
      <trkpt lat="43.48035" lon="0.96865">
        <ele>203.4</ele>
        <time>2024-05-20T07:52:49Z</time>
      </trkpt>
      <trkpt lat="43.48038" lon="0.9686">
        <ele>203.8</ele>
        <time>2024-05-20T07:52:50Z</time>
      </trkpt>
      <trkpt lat="43.48041" lon="0.96854">
        <ele>204</ele>
        <time>2024-05-20T07:52:51Z</time>
      </trkpt>
      <trkpt lat="43.48044" lon="0.96848">
        <ele>204.4</ele>
        <time>2024-05-20T07:52:52Z</time>
      </trkpt>
      <trkpt lat="43.48046" lon="0.96843">
        <ele>204.8</ele>
        <time>2024-05-20T07:52:53Z</time>
      </trkpt>
      <trkpt lat="43.48049" lon="0.96837">
        <ele>205</ele>
        <time>2024-05-20T07:52:54Z</time>
      </trkpt>
      <trkpt lat="43.48052" lon="0.96832">
        <ele>205.2</ele>
        <time>2024-05-20T07:52:55Z</time>
      </trkpt>
      <trkpt lat="43.48055" lon="0.96827">
        <ele>205.6</ele>
        <time>2024-05-20T07:52:56Z</time>
      </trkpt>
      <trkpt lat="43.48058" lon="0.96821">
        <ele>205.8</ele>
        <time>2024-05-20T07:52:57Z</time>
      </trkpt>
      <trkpt lat="43.48061" lon="0.96816">
        <ele>205.8</ele>
        <time>2024-05-20T07:52:58Z</time>
      </trkpt>
      <trkpt lat="43.48064" lon="0.9681">
        <ele>206.4</ele>
        <time>2024-05-20T07:52:59Z</time>
      </trkpt>
      <trkpt lat="43.48067" lon="0.96805">
        <ele>206.6</ele>
        <time>2024-05-20T07:53:00Z</time>
      </trkpt>
      <trkpt lat="43.4807" lon="0.96799">
        <ele>207.2</ele>
        <time>2024-05-20T07:53:01Z</time>
      </trkpt>
      <trkpt lat="43.48072" lon="0.96793">
        <ele>207.4</ele>
        <time>2024-05-20T07:53:02Z</time>
      </trkpt>
      <trkpt lat="43.48075" lon="0.96788">
        <ele>207.8</ele>
        <time>2024-05-20T07:53:03Z</time>
      </trkpt>
      <trkpt lat="43.48079" lon="0.96782">
        <ele>207.8</ele>
        <time>2024-05-20T07:53:04Z</time>
      </trkpt>
      <trkpt lat="43.48082" lon="0.96776">
        <ele>208.2</ele>
        <time>2024-05-20T07:53:05Z</time>
      </trkpt>
      <trkpt lat="43.48085" lon="0.96769">
        <ele>208.4</ele>
        <time>2024-05-20T07:53:06Z</time>
      </trkpt>
      <trkpt lat="43.48089" lon="0.96763">
        <ele>208.6</ele>
        <time>2024-05-20T07:53:07Z</time>
      </trkpt>
      <trkpt lat="43.48093" lon="0.96757">
        <ele>208.6</ele>
        <time>2024-05-20T07:53:08Z</time>
      </trkpt>
      <trkpt lat="43.48096" lon="0.9675">
        <ele>208.8</ele>
        <time>2024-05-20T07:53:09Z</time>
      </trkpt>
      <trkpt lat="43.481" lon="0.96744">
        <ele>209</ele>
        <time>2024-05-20T07:53:10Z</time>
      </trkpt>
      <trkpt lat="43.48103" lon="0.96737">
        <ele>209</ele>
        <time>2024-05-20T07:53:11Z</time>
      </trkpt>
      <trkpt lat="43.48107" lon="0.9673">
        <ele>209</ele>
        <time>2024-05-20T07:53:12Z</time>
      </trkpt>
      <trkpt lat="43.48111" lon="0.96724">
        <ele>209</ele>
        <time>2024-05-20T07:53:13Z</time>
      </trkpt>
      <trkpt lat="43.48115" lon="0.96717">
        <ele>208.8</ele>
        <time>2024-05-20T07:53:14Z</time>
      </trkpt>
      <trkpt lat="43.48119" lon="0.96709">
        <ele>208.6</ele>
        <time>2024-05-20T07:53:15Z</time>
      </trkpt>
      <trkpt lat="43.48124" lon="0.96701">
        <ele>208.6</ele>
        <time>2024-05-20T07:53:16Z</time>
      </trkpt>
      <trkpt lat="43.48128" lon="0.96693">
        <ele>208.4</ele>
        <time>2024-05-20T07:53:17Z</time>
      </trkpt>
      <trkpt lat="43.48133" lon="0.96685">
        <ele>208.4</ele>
        <time>2024-05-20T07:53:18Z</time>
      </trkpt>
      <trkpt lat="43.48138" lon="0.96677">
        <ele>208.2</ele>
        <time>2024-05-20T07:53:19Z</time>
      </trkpt>
      <trkpt lat="43.48143" lon="0.96668">
        <ele>208</ele>
        <time>2024-05-20T07:53:20Z</time>
      </trkpt>
      <trkpt lat="43.48147" lon="0.96658">
        <ele>207.6</ele>
        <time>2024-05-20T07:53:21Z</time>
      </trkpt>
      <trkpt lat="43.48152" lon="0.96648">
        <ele>207.2</ele>
        <time>2024-05-20T07:53:22Z</time>
      </trkpt>
      <trkpt lat="43.48157" lon="0.96638">
        <ele>207</ele>
        <time>2024-05-20T07:53:23Z</time>
      </trkpt>
      <trkpt lat="43.48161" lon="0.96627">
        <ele>206.4</ele>
        <time>2024-05-20T07:53:24Z</time>
      </trkpt>
      <trkpt lat="43.48166" lon="0.96616">
        <ele>206</ele>
        <time>2024-05-20T07:53:25Z</time>
      </trkpt>
      <trkpt lat="43.48171" lon="0.96605">
        <ele>205.6</ele>
        <time>2024-05-20T07:53:26Z</time>
      </trkpt>
      <trkpt lat="43.48176" lon="0.96594">
        <ele>205.4</ele>
        <time>2024-05-20T07:53:27Z</time>
      </trkpt>
      <trkpt lat="43.48182" lon="0.96582">
        <ele>204.8</ele>
        <time>2024-05-20T07:53:28Z</time>
      </trkpt>
      <trkpt lat="43.48187" lon="0.96571">
        <ele>204.6</ele>
        <time>2024-05-20T07:53:29Z</time>
      </trkpt>
      <trkpt lat="43.48192" lon="0.96559">
        <ele>203.8</ele>
        <time>2024-05-20T07:53:30Z</time>
      </trkpt>
      <trkpt lat="43.48197" lon="0.96548">
        <ele>203.2</ele>
        <time>2024-05-20T07:53:31Z</time>
      </trkpt>
      <trkpt lat="43.48202" lon="0.96537">
        <ele>203</ele>
        <time>2024-05-20T07:53:32Z</time>
      </trkpt>
      <trkpt lat="43.48206" lon="0.96525">
        <ele>202.2</ele>
        <time>2024-05-20T07:53:33Z</time>
      </trkpt>
      <trkpt lat="43.48211" lon="0.96513">
        <ele>201.8</ele>
        <time>2024-05-20T07:53:34Z</time>
      </trkpt>
      <trkpt lat="43.48216" lon="0.96501">
        <ele>201.2</ele>
        <time>2024-05-20T07:53:35Z</time>
      </trkpt>
      <trkpt lat="43.48221" lon="0.96489">
        <ele>201</ele>
        <time>2024-05-20T07:53:36Z</time>
      </trkpt>
      <trkpt lat="43.48225" lon="0.96477">
        <ele>200.4</ele>
        <time>2024-05-20T07:53:37Z</time>
      </trkpt>
      <trkpt lat="43.48229" lon="0.96465">
        <ele>200.2</ele>
        <time>2024-05-20T07:53:38Z</time>
      </trkpt>
      <trkpt lat="43.48232" lon="0.96449">
        <ele>199.8</ele>
        <time>2024-05-20T07:53:39Z</time>
      </trkpt>
      <trkpt lat="43.48235" lon="0.96438">
        <ele>198.8</ele>
        <time>2024-05-20T07:53:40Z</time>
      </trkpt>
      <trkpt lat="43.48237" lon="0.96425">
        <ele>198.2</ele>
        <time>2024-05-20T07:53:41Z</time>
      </trkpt>
      <trkpt lat="43.4824" lon="0.96408">
        <ele>197.2</ele>
        <time>2024-05-20T07:53:42Z</time>
      </trkpt>
      <trkpt lat="43.48242" lon="0.96397">
        <ele>196.8</ele>
        <time>2024-05-20T07:53:43Z</time>
      </trkpt>
      <trkpt lat="43.48244" lon="0.96384">
        <ele>196</ele>
        <time>2024-05-20T07:53:44Z</time>
      </trkpt>
      <trkpt lat="43.48247" lon="0.96369">
        <ele>195.6</ele>
        <time>2024-05-20T07:53:45Z</time>
      </trkpt>
      <trkpt lat="43.48249" lon="0.96355">
        <ele>195</ele>
        <time>2024-05-20T07:53:46Z</time>
      </trkpt>
      <trkpt lat="43.48252" lon="0.96341">
        <ele>194.8</ele>
        <time>2024-05-20T07:53:47Z</time>
      </trkpt>
      <trkpt lat="43.48254" lon="0.96327">
        <ele>193.8</ele>
        <time>2024-05-20T07:53:48Z</time>
      </trkpt>
      <trkpt lat="43.48256" lon="0.96312">
        <ele>192.8</ele>
        <time>2024-05-20T07:53:49Z</time>
      </trkpt>
      <trkpt lat="43.48257" lon="0.96298">
        <ele>192.4</ele>
        <time>2024-05-20T07:53:50Z</time>
      </trkpt>
      <trkpt lat="43.48259" lon="0.96284">
        <ele>191.8</ele>
        <time>2024-05-20T07:53:51Z</time>
      </trkpt>
      <trkpt lat="43.48261" lon="0.96269">
        <ele>191.2</ele>
        <time>2024-05-20T07:53:52Z</time>
      </trkpt>
      <trkpt lat="43.48263" lon="0.96254">
        <ele>190.6</ele>
        <time>2024-05-20T07:53:53Z</time>
      </trkpt>
      <trkpt lat="43.48266" lon="0.96239">
        <ele>190.2</ele>
        <time>2024-05-20T07:53:54Z</time>
      </trkpt>
      <trkpt lat="43.48268" lon="0.96225">
        <ele>189.2</ele>
        <time>2024-05-20T07:53:55Z</time>
      </trkpt>
      <trkpt lat="43.48271" lon="0.9621">
        <ele>188.4</ele>
        <time>2024-05-20T07:53:56Z</time>
      </trkpt>
      <trkpt lat="43.48274" lon="0.96195">
        <ele>188</ele>
        <time>2024-05-20T07:53:57Z</time>
      </trkpt>
      <trkpt lat="43.48277" lon="0.9618">
        <ele>187.4</ele>
        <time>2024-05-20T07:53:58Z</time>
      </trkpt>
      <trkpt lat="43.48281" lon="0.96165">
        <ele>187</ele>
        <time>2024-05-20T07:53:59Z</time>
      </trkpt>
      <trkpt lat="43.48286" lon="0.96151">
        <ele>186.4</ele>
        <time>2024-05-20T07:54:00Z</time>
      </trkpt>
      <trkpt lat="43.48292" lon="0.96137">
        <ele>186</ele>
        <time>2024-05-20T07:54:01Z</time>
      </trkpt>
      <trkpt lat="43.48298" lon="0.96124">
        <ele>185.4</ele>
        <time>2024-05-20T07:54:02Z</time>
      </trkpt>
      <trkpt lat="43.48304" lon="0.96111">
        <ele>185</ele>
        <time>2024-05-20T07:54:03Z</time>
      </trkpt>
      <trkpt lat="43.4831" lon="0.96099">
        <ele>184.4</ele>
        <time>2024-05-20T07:54:04Z</time>
      </trkpt>
      <trkpt lat="43.48315" lon="0.96086">
        <ele>183.6</ele>
        <time>2024-05-20T07:54:05Z</time>
      </trkpt>
      <trkpt lat="43.48321" lon="0.96074">
        <ele>183</ele>
        <time>2024-05-20T07:54:06Z</time>
      </trkpt>
      <trkpt lat="43.48326" lon="0.96061">
        <ele>182.4</ele>
        <time>2024-05-20T07:54:07Z</time>
      </trkpt>
      <trkpt lat="43.48331" lon="0.96049">
        <ele>182.2</ele>
        <time>2024-05-20T07:54:08Z</time>
      </trkpt>
      <trkpt lat="43.48336" lon="0.96036">
        <ele>181.8</ele>
        <time>2024-05-20T07:54:09Z</time>
      </trkpt>
      <trkpt lat="43.4834" lon="0.96024">
        <ele>181.4</ele>
        <time>2024-05-20T07:54:10Z</time>
      </trkpt>
      <trkpt lat="43.48345" lon="0.96012">
        <ele>180.8</ele>
        <time>2024-05-20T07:54:11Z</time>
      </trkpt>
      <trkpt lat="43.48349" lon="0.96001">
        <ele>180.6</ele>
        <time>2024-05-20T07:54:12Z</time>
      </trkpt>
      <trkpt lat="43.48353" lon="0.95989">
        <ele>180.2</ele>
        <time>2024-05-20T07:54:13Z</time>
      </trkpt>
      <trkpt lat="43.48357" lon="0.95979">
        <ele>180</ele>
        <time>2024-05-20T07:54:14Z</time>
      </trkpt>
      <trkpt lat="43.48361" lon="0.95968">
        <ele>180</ele>
        <time>2024-05-20T07:54:15Z</time>
      </trkpt>
      <trkpt lat="43.48366" lon="0.95958">
        <ele>179.6</ele>
        <time>2024-05-20T07:54:16Z</time>
      </trkpt>
      <trkpt lat="43.4837" lon="0.95946">
        <ele>179.6</ele>
        <time>2024-05-20T07:54:17Z</time>
      </trkpt>
      <trkpt lat="43.48374" lon="0.95938">
        <ele>179.6</ele>
        <time>2024-05-20T07:54:18Z</time>
      </trkpt>
      <trkpt lat="43.48377" lon="0.95928">
        <ele>179.6</ele>
        <time>2024-05-20T07:54:19Z</time>
      </trkpt>
      <trkpt lat="43.48381" lon="0.95918">
        <ele>179.4</ele>
        <time>2024-05-20T07:54:20Z</time>
      </trkpt>
      <trkpt lat="43.48386" lon="0.95906">
        <ele>179.4</ele>
        <time>2024-05-20T07:54:21Z</time>
      </trkpt>
      <trkpt lat="43.48389" lon="0.95898">
        <ele>179.4</ele>
        <time>2024-05-20T07:54:22Z</time>
      </trkpt>
      <trkpt lat="43.48392" lon="0.95888">
        <ele>179.4</ele>
        <time>2024-05-20T07:54:23Z</time>
      </trkpt>
      <trkpt lat="43.48396" lon="0.95878">
        <ele>179.4</ele>
        <time>2024-05-20T07:54:24Z</time>
      </trkpt>
      <trkpt lat="43.484" lon="0.95868">
        <ele>179.6</ele>
        <time>2024-05-20T07:54:25Z</time>
      </trkpt>
      <trkpt lat="43.48404" lon="0.95859">
        <ele>179.6</ele>
        <time>2024-05-20T07:54:26Z</time>
      </trkpt>
      <trkpt lat="43.48407" lon="0.9585">
        <ele>179.8</ele>
        <time>2024-05-20T07:54:27Z</time>
      </trkpt>
      <trkpt lat="43.48411" lon="0.95841">
        <ele>179.8</ele>
        <time>2024-05-20T07:54:28Z</time>
      </trkpt>
      <trkpt lat="43.48414" lon="0.95832">
        <ele>179.8</ele>
        <time>2024-05-20T07:54:29Z</time>
      </trkpt>
      <trkpt lat="43.48417" lon="0.95824">
        <ele>180</ele>
        <time>2024-05-20T07:54:30Z</time>
      </trkpt>
      <trkpt lat="43.4842" lon="0.95815">
        <ele>180.2</ele>
        <time>2024-05-20T07:54:31Z</time>
      </trkpt>
      <trkpt lat="43.48423" lon="0.95807">
        <ele>180.2</ele>
        <time>2024-05-20T07:54:32Z</time>
      </trkpt>
      <trkpt lat="43.48426" lon="0.95799">
        <ele>180.4</ele>
        <time>2024-05-20T07:54:33Z</time>
      </trkpt>
      <trkpt lat="43.4843" lon="0.9579">
        <ele>180.6</ele>
        <time>2024-05-20T07:54:34Z</time>
      </trkpt>
      <trkpt lat="43.48433" lon="0.95782">
        <ele>180.6</ele>
        <time>2024-05-20T07:54:35Z</time>
      </trkpt>
      <trkpt lat="43.48436" lon="0.95773">
        <ele>180.6</ele>
        <time>2024-05-20T07:54:36Z</time>
      </trkpt>
      <trkpt lat="43.48439" lon="0.95764">
        <ele>180.8</ele>
        <time>2024-05-20T07:54:37Z</time>
      </trkpt>
      <trkpt lat="43.48441" lon="0.95755">
        <ele>180.8</ele>
        <time>2024-05-20T07:54:38Z</time>
      </trkpt>
      <trkpt lat="43.48443" lon="0.95745">
        <ele>181</ele>
        <time>2024-05-20T07:54:39Z</time>
      </trkpt>
      <trkpt lat="43.48446" lon="0.95736">
        <ele>181</ele>
        <time>2024-05-20T07:54:40Z</time>
      </trkpt>
      <trkpt lat="43.48447" lon="0.95727">
        <ele>181</ele>
        <time>2024-05-20T07:54:41Z</time>
      </trkpt>
      <trkpt lat="43.48449" lon="0.95717">
        <ele>181</ele>
        <time>2024-05-20T07:54:42Z</time>
      </trkpt>
      <trkpt lat="43.48449" lon="0.95707">
        <ele>181</ele>
        <time>2024-05-20T07:54:43Z</time>
      </trkpt>
      <trkpt lat="43.48449" lon="0.95697">
        <ele>181</ele>
        <time>2024-05-20T07:54:44Z</time>
      </trkpt>
      <trkpt lat="43.48449" lon="0.95688">
        <ele>181</ele>
        <time>2024-05-20T07:54:45Z</time>
      </trkpt>
      <trkpt lat="43.48449" lon="0.95678">
        <ele>181</ele>
        <time>2024-05-20T07:54:46Z</time>
      </trkpt>
      <trkpt lat="43.48448" lon="0.95668">
        <ele>180.8</ele>
        <time>2024-05-20T07:54:47Z</time>
      </trkpt>
      <trkpt lat="43.48447" lon="0.95658">
        <ele>180.8</ele>
        <time>2024-05-20T07:54:48Z</time>
      </trkpt>
      <trkpt lat="43.48445" lon="0.95648">
        <ele>180.8</ele>
        <time>2024-05-20T07:54:49Z</time>
      </trkpt>
      <trkpt lat="43.48444" lon="0.95638">
        <ele>180.8</ele>
        <time>2024-05-20T07:54:50Z</time>
      </trkpt>
      <trkpt lat="43.48442" lon="0.95629">
        <ele>180.8</ele>
        <time>2024-05-20T07:54:51Z</time>
      </trkpt>
      <trkpt lat="43.4844" lon="0.95619">
        <ele>180.8</ele>
        <time>2024-05-20T07:54:52Z</time>
      </trkpt>
      <trkpt lat="43.48438" lon="0.9561">
        <ele>180.8</ele>
        <time>2024-05-20T07:54:53Z</time>
      </trkpt>
      <trkpt lat="43.48436" lon="0.956">
        <ele>180.8</ele>
        <time>2024-05-20T07:54:54Z</time>
      </trkpt>
      <trkpt lat="43.48434" lon="0.9559">
        <ele>180.8</ele>
        <time>2024-05-20T07:54:55Z</time>
      </trkpt>
      <trkpt lat="43.48432" lon="0.95581">
        <ele>180.8</ele>
        <time>2024-05-20T07:54:56Z</time>
      </trkpt>
      <trkpt lat="43.4843" lon="0.95571">
        <ele>180.8</ele>
        <time>2024-05-20T07:54:57Z</time>
      </trkpt>
      <trkpt lat="43.48428" lon="0.95561">
        <ele>180.8</ele>
        <time>2024-05-20T07:54:58Z</time>
      </trkpt>
      <trkpt lat="43.48425" lon="0.95551">
        <ele>180.8</ele>
        <time>2024-05-20T07:54:59Z</time>
      </trkpt>
      <trkpt lat="43.48424" lon="0.95542">
        <ele>180.8</ele>
        <time>2024-05-20T07:55:00Z</time>
      </trkpt>
      <trkpt lat="43.48422" lon="0.95532">
        <ele>181</ele>
        <time>2024-05-20T07:55:01Z</time>
      </trkpt>
      <trkpt lat="43.4842" lon="0.95523">
        <ele>181</ele>
        <time>2024-05-20T07:55:02Z</time>
      </trkpt>
      <trkpt lat="43.48418" lon="0.95513">
        <ele>181.2</ele>
        <time>2024-05-20T07:55:03Z</time>
      </trkpt>
      <trkpt lat="43.48416" lon="0.95503">
        <ele>181.2</ele>
        <time>2024-05-20T07:55:04Z</time>
      </trkpt>
      <trkpt lat="43.48415" lon="0.95494">
        <ele>181.2</ele>
        <time>2024-05-20T07:55:05Z</time>
      </trkpt>
      <trkpt lat="43.48414" lon="0.95484">
        <ele>181.4</ele>
        <time>2024-05-20T07:55:06Z</time>
      </trkpt>
      <trkpt lat="43.48413" lon="0.95474">
        <ele>181.4</ele>
        <time>2024-05-20T07:55:07Z</time>
      </trkpt>
      <trkpt lat="43.48413" lon="0.95464">
        <ele>181.4</ele>
        <time>2024-05-20T07:55:08Z</time>
      </trkpt>
      <trkpt lat="43.48414" lon="0.95453">
        <ele>181.4</ele>
        <time>2024-05-20T07:55:09Z</time>
      </trkpt>
      <trkpt lat="43.48416" lon="0.95444">
        <ele>181.4</ele>
        <time>2024-05-20T07:55:10Z</time>
      </trkpt>
      <trkpt lat="43.48419" lon="0.95432">
        <ele>181.4</ele>
        <time>2024-05-20T07:55:11Z</time>
      </trkpt>
      <trkpt lat="43.48422" lon="0.95425">
        <ele>181.4</ele>
        <time>2024-05-20T07:55:12Z</time>
      </trkpt>
      <trkpt lat="43.48427" lon="0.95414">
        <ele>181.6</ele>
        <time>2024-05-20T07:55:13Z</time>
      </trkpt>
      <trkpt lat="43.4843" lon="0.95407">
        <ele>181.8</ele>
        <time>2024-05-20T07:55:14Z</time>
      </trkpt>
      <trkpt lat="43.48434" lon="0.95398">
        <ele>181.8</ele>
        <time>2024-05-20T07:55:15Z</time>
      </trkpt>
      <trkpt lat="43.48438" lon="0.95389">
        <ele>182</ele>
        <time>2024-05-20T07:55:16Z</time>
      </trkpt>
      <trkpt lat="43.48442" lon="0.95381">
        <ele>182</ele>
        <time>2024-05-20T07:55:17Z</time>
      </trkpt>
      <trkpt lat="43.48446" lon="0.95373">
        <ele>182</ele>
        <time>2024-05-20T07:55:18Z</time>
      </trkpt>
      <trkpt lat="43.4845" lon="0.95364">
        <ele>182.2</ele>
        <time>2024-05-20T07:55:19Z</time>
      </trkpt>
      <trkpt lat="43.48453" lon="0.95356">
        <ele>182.2</ele>
        <time>2024-05-20T07:55:20Z</time>
      </trkpt>
      <trkpt lat="43.48457" lon="0.95347">
        <ele>182.4</ele>
        <time>2024-05-20T07:55:21Z</time>
      </trkpt>
      <trkpt lat="43.48462" lon="0.95337">
        <ele>182.6</ele>
        <time>2024-05-20T07:55:22Z</time>
      </trkpt>
      <trkpt lat="43.48465" lon="0.95331">
        <ele>182.6</ele>
        <time>2024-05-20T07:55:23Z</time>
      </trkpt>
      <trkpt lat="43.48468" lon="0.95323">
        <ele>183</ele>
        <time>2024-05-20T07:55:24Z</time>
      </trkpt>
      <trkpt lat="43.48472" lon="0.95313">
        <ele>183</ele>
        <time>2024-05-20T07:55:25Z</time>
      </trkpt>
      <trkpt lat="43.48475" lon="0.95307">
        <ele>183.2</ele>
        <time>2024-05-20T07:55:26Z</time>
      </trkpt>
      <trkpt lat="43.48478" lon="0.95299">
        <ele>183.2</ele>
        <time>2024-05-20T07:55:27Z</time>
      </trkpt>
      <trkpt lat="43.48481" lon="0.95292">
        <ele>183.4</ele>
        <time>2024-05-20T07:55:28Z</time>
      </trkpt>
      <trkpt lat="43.48484" lon="0.95284">
        <ele>183.6</ele>
        <time>2024-05-20T07:55:29Z</time>
      </trkpt>
      <trkpt lat="43.48487" lon="0.95277">
        <ele>184</ele>
        <time>2024-05-20T07:55:30Z</time>
      </trkpt>
      <trkpt lat="43.4849" lon="0.9527">
        <ele>184.2</ele>
        <time>2024-05-20T07:55:31Z</time>
      </trkpt>
      <trkpt lat="43.48494" lon="0.95262">
        <ele>184.4</ele>
        <time>2024-05-20T07:55:32Z</time>
      </trkpt>
      <trkpt lat="43.48497" lon="0.95256">
        <ele>184.6</ele>
        <time>2024-05-20T07:55:33Z</time>
      </trkpt>
      <trkpt lat="43.485" lon="0.95249">
        <ele>184.8</ele>
        <time>2024-05-20T07:55:34Z</time>
      </trkpt>
      <trkpt lat="43.48504" lon="0.95241">
        <ele>185.4</ele>
        <time>2024-05-20T07:55:35Z</time>
      </trkpt>
      <trkpt lat="43.48506" lon="0.95236">
        <ele>185.6</ele>
        <time>2024-05-20T07:55:36Z</time>
      </trkpt>
      <trkpt lat="43.48508" lon="0.95229">
        <ele>185.8</ele>
        <time>2024-05-20T07:55:37Z</time>
      </trkpt>
      <trkpt lat="43.48511" lon="0.95221">
        <ele>186.2</ele>
        <time>2024-05-20T07:55:38Z</time>
      </trkpt>
      <trkpt lat="43.48513" lon="0.95215">
        <ele>186.4</ele>
        <time>2024-05-20T07:55:39Z</time>
      </trkpt>
      <trkpt lat="43.48516" lon="0.95208">
        <ele>186.8</ele>
        <time>2024-05-20T07:55:40Z</time>
      </trkpt>
      <trkpt lat="43.48519" lon="0.95202">
        <ele>187</ele>
        <time>2024-05-20T07:55:41Z</time>
      </trkpt>
      <trkpt lat="43.48522" lon="0.95196">
        <ele>187.6</ele>
        <time>2024-05-20T07:55:42Z</time>
      </trkpt>
      <trkpt lat="43.48525" lon="0.95191">
        <ele>188</ele>
        <time>2024-05-20T07:55:43Z</time>
      </trkpt>
      <trkpt lat="43.48528" lon="0.95185">
        <ele>188.6</ele>
        <time>2024-05-20T07:55:44Z</time>
      </trkpt>
      <trkpt lat="43.4853" lon="0.95179">
        <ele>188.8</ele>
        <time>2024-05-20T07:55:45Z</time>
      </trkpt>
      <trkpt lat="43.48534" lon="0.95171">
        <ele>189.2</ele>
        <time>2024-05-20T07:55:46Z</time>
      </trkpt>
      <trkpt lat="43.48536" lon="0.95166">
        <ele>189.6</ele>
        <time>2024-05-20T07:55:47Z</time>
      </trkpt>
      <trkpt lat="43.48539" lon="0.9516">
        <ele>189.8</ele>
        <time>2024-05-20T07:55:48Z</time>
      </trkpt>
      <trkpt lat="43.48542" lon="0.95153">
        <ele>190.4</ele>
        <time>2024-05-20T07:55:49Z</time>
      </trkpt>
      <trkpt lat="43.48544" lon="0.95147">
        <ele>190.6</ele>
        <time>2024-05-20T07:55:50Z</time>
      </trkpt>
      <trkpt lat="43.48546" lon="0.95143">
        <ele>191</ele>
        <time>2024-05-20T07:55:51Z</time>
      </trkpt>
      <trkpt lat="43.48548" lon="0.95137">
        <ele>191.2</ele>
        <time>2024-05-20T07:55:52Z</time>
      </trkpt>
      <trkpt lat="43.4855" lon="0.95131">
        <ele>191.8</ele>
        <time>2024-05-20T07:55:53Z</time>
      </trkpt>
      <trkpt lat="43.48553" lon="0.95125">
        <ele>192</ele>
        <time>2024-05-20T07:55:54Z</time>
      </trkpt>
      <trkpt lat="43.48556" lon="0.95118">
        <ele>192.6</ele>
        <time>2024-05-20T07:55:55Z</time>
      </trkpt>
      <trkpt lat="43.48558" lon="0.95114">
        <ele>193.2</ele>
        <time>2024-05-20T07:55:56Z</time>
      </trkpt>
      <trkpt lat="43.48561" lon="0.95108">
        <ele>193.4</ele>
        <time>2024-05-20T07:55:57Z</time>
      </trkpt>
      <trkpt lat="43.48564" lon="0.95103">
        <ele>193.8</ele>
        <time>2024-05-20T07:55:58Z</time>
      </trkpt>
      <trkpt lat="43.48567" lon="0.95096">
        <ele>194</ele>
        <time>2024-05-20T07:55:59Z</time>
      </trkpt>
      <trkpt lat="43.48569" lon="0.95092">
        <ele>194.4</ele>
        <time>2024-05-20T07:56:00Z</time>
      </trkpt>
      <trkpt lat="43.48572" lon="0.95086">
        <ele>194.4</ele>
        <time>2024-05-20T07:56:01Z</time>
      </trkpt>
      <trkpt lat="43.48574" lon="0.9508">
        <ele>194.8</ele>
        <time>2024-05-20T07:56:02Z</time>
      </trkpt>
      <trkpt lat="43.48577" lon="0.95075">
        <ele>195.2</ele>
        <time>2024-05-20T07:56:03Z</time>
      </trkpt>
      <trkpt lat="43.48581" lon="0.95068">
        <ele>195.6</ele>
        <time>2024-05-20T07:56:04Z</time>
      </trkpt>
      <trkpt lat="43.48583" lon="0.95064">
        <ele>196.2</ele>
        <time>2024-05-20T07:56:05Z</time>
      </trkpt>
      <trkpt lat="43.48585" lon="0.9506">
        <ele>196.4</ele>
        <time>2024-05-20T07:56:06Z</time>
      </trkpt>
      <trkpt lat="43.48588" lon="0.95054">
        <ele>196.8</ele>
        <time>2024-05-20T07:56:07Z</time>
      </trkpt>
      <trkpt lat="43.4859" lon="0.95049">
        <ele>197</ele>
        <time>2024-05-20T07:56:08Z</time>
      </trkpt>
      <trkpt lat="43.48593" lon="0.95044">
        <ele>197.4</ele>
        <time>2024-05-20T07:56:09Z</time>
      </trkpt>
      <trkpt lat="43.48595" lon="0.9504">
        <ele>197.6</ele>
        <time>2024-05-20T07:56:10Z</time>
      </trkpt>
      <trkpt lat="43.48597" lon="0.95035">
        <ele>198</ele>
        <time>2024-05-20T07:56:11Z</time>
      </trkpt>
      <trkpt lat="43.48599" lon="0.95031">
        <ele>198.2</ele>
        <time>2024-05-20T07:56:12Z</time>
      </trkpt>
      <trkpt lat="43.48601" lon="0.95025">
        <ele>198.4</ele>
        <time>2024-05-20T07:56:13Z</time>
      </trkpt>
      <trkpt lat="43.48603" lon="0.95022">
        <ele>198.8</ele>
        <time>2024-05-20T07:56:14Z</time>
      </trkpt>
      <trkpt lat="43.48606" lon="0.95017">
        <ele>199</ele>
        <time>2024-05-20T07:56:15Z</time>
      </trkpt>
      <trkpt lat="43.48609" lon="0.95011">
        <ele>199.2</ele>
        <time>2024-05-20T07:56:16Z</time>
      </trkpt>
      <trkpt lat="43.48612" lon="0.95005">
        <ele>199.4</ele>
        <time>2024-05-20T07:56:17Z</time>
      </trkpt>
      <trkpt lat="43.48614" lon="0.95001">
        <ele>199.6</ele>
        <time>2024-05-20T07:56:18Z</time>
      </trkpt>
      <trkpt lat="43.48616" lon="0.94996">
        <ele>199.6</ele>
        <time>2024-05-20T07:56:19Z</time>
      </trkpt>
      <trkpt lat="43.48617" lon="0.94992">
        <ele>199.8</ele>
        <time>2024-05-20T07:56:20Z</time>
      </trkpt>
      <trkpt lat="43.48619" lon="0.94987">
        <ele>200.4</ele>
        <time>2024-05-20T07:56:21Z</time>
      </trkpt>
      <trkpt lat="43.48621" lon="0.94982">
        <ele>200.6</ele>
        <time>2024-05-20T07:56:22Z</time>
      </trkpt>
      <trkpt lat="43.48624" lon="0.94977">
        <ele>201</ele>
        <time>2024-05-20T07:56:23Z</time>
      </trkpt>
      <trkpt lat="43.48626" lon="0.94972">
        <ele>201</ele>
        <time>2024-05-20T07:56:24Z</time>
      </trkpt>
      <trkpt lat="43.48627" lon="0.94967">
        <ele>201.4</ele>
        <time>2024-05-20T07:56:25Z</time>
      </trkpt>
      <trkpt lat="43.4863" lon="0.94962">
        <ele>201.6</ele>
        <time>2024-05-20T07:56:26Z</time>
      </trkpt>
      <trkpt lat="43.48632" lon="0.94957">
        <ele>202</ele>
        <time>2024-05-20T07:56:27Z</time>
      </trkpt>
      <trkpt lat="43.48635" lon="0.94952">
        <ele>202</ele>
        <time>2024-05-20T07:56:28Z</time>
      </trkpt>
      <trkpt lat="43.48636" lon="0.94947">
        <ele>202.6</ele>
        <time>2024-05-20T07:56:29Z</time>
      </trkpt>
      <trkpt lat="43.48639" lon="0.94942">
        <ele>203</ele>
        <time>2024-05-20T07:56:30Z</time>
      </trkpt>
      <trkpt lat="43.48642" lon="0.94935">
        <ele>203.2</ele>
        <time>2024-05-20T07:56:31Z</time>
      </trkpt>
      <trkpt lat="43.48644" lon="0.9493">
        <ele>203.4</ele>
        <time>2024-05-20T07:56:32Z</time>
      </trkpt>
      <trkpt lat="43.48647" lon="0.94925">
        <ele>203.6</ele>
        <time>2024-05-20T07:56:33Z</time>
      </trkpt>
      <trkpt lat="43.48649" lon="0.9492">
        <ele>203.8</ele>
        <time>2024-05-20T07:56:34Z</time>
      </trkpt>
      <trkpt lat="43.48652" lon="0.94915">
        <ele>204</ele>
        <time>2024-05-20T07:56:35Z</time>
      </trkpt>
      <trkpt lat="43.48654" lon="0.94911">
        <ele>204.4</ele>
        <time>2024-05-20T07:56:36Z</time>
      </trkpt>
      <trkpt lat="43.48656" lon="0.94908">
        <ele>204.8</ele>
        <time>2024-05-20T07:56:37Z</time>
      </trkpt>
      <trkpt lat="43.48659" lon="0.94904">
        <ele>204.8</ele>
        <time>2024-05-20T07:56:38Z</time>
      </trkpt>
      <trkpt lat="43.48663" lon="0.949">
        <ele>205</ele>
        <time>2024-05-20T07:56:39Z</time>
      </trkpt>
      <trkpt lat="43.48667" lon="0.94896">
        <ele>205.2</ele>
        <time>2024-05-20T07:56:40Z</time>
      </trkpt>
      <trkpt lat="43.48671" lon="0.94892">
        <ele>205.6</ele>
        <time>2024-05-20T07:56:41Z</time>
      </trkpt>
      <trkpt lat="43.48675" lon="0.94889">
        <ele>205.8</ele>
        <time>2024-05-20T07:56:42Z</time>
      </trkpt>
      <trkpt lat="43.48679" lon="0.94886">
        <ele>206.4</ele>
        <time>2024-05-20T07:56:43Z</time>
      </trkpt>
      <trkpt lat="43.48682" lon="0.94883">
        <ele>206.6</ele>
        <time>2024-05-20T07:56:44Z</time>
      </trkpt>
      <trkpt lat="43.48686" lon="0.94881">
        <ele>206.8</ele>
        <time>2024-05-20T07:56:45Z</time>
      </trkpt>
      <trkpt lat="43.4869" lon="0.94877">
        <ele>207.2</ele>
        <time>2024-05-20T07:56:46Z</time>
      </trkpt>
      <trkpt lat="43.48695" lon="0.94873">
        <ele>207</ele>
        <time>2024-05-20T07:56:47Z</time>
      </trkpt>
      <trkpt lat="43.48699" lon="0.9487">
        <ele>207.2</ele>
        <time>2024-05-20T07:56:48Z</time>
      </trkpt>
      <trkpt lat="43.48703" lon="0.94866">
        <ele>207.6</ele>
        <time>2024-05-20T07:56:49Z</time>
      </trkpt>
      <trkpt lat="43.48707" lon="0.94862">
        <ele>208</ele>
        <time>2024-05-20T07:56:50Z</time>
      </trkpt>
      <trkpt lat="43.48711" lon="0.94858">
        <ele>208.2</ele>
        <time>2024-05-20T07:56:51Z</time>
      </trkpt>
      <trkpt lat="43.48715" lon="0.94854">
        <ele>208.8</ele>
        <time>2024-05-20T07:56:52Z</time>
      </trkpt>
      <trkpt lat="43.48718" lon="0.94851">
        <ele>208.8</ele>
        <time>2024-05-20T07:56:53Z</time>
      </trkpt>
      <trkpt lat="43.48721" lon="0.94848">
        <ele>209.2</ele>
        <time>2024-05-20T07:56:54Z</time>
      </trkpt>
      <trkpt lat="43.48724" lon="0.94844">
        <ele>209.6</ele>
        <time>2024-05-20T07:56:55Z</time>
      </trkpt>
      <trkpt lat="43.48726" lon="0.94841">
        <ele>209.6</ele>
        <time>2024-05-20T07:56:56Z</time>
      </trkpt>
      <trkpt lat="43.48729" lon="0.94838">
        <ele>209.8</ele>
        <time>2024-05-20T07:56:57Z</time>
      </trkpt>
      <trkpt lat="43.48732" lon="0.94835">
        <ele>210</ele>
        <time>2024-05-20T07:56:58Z</time>
      </trkpt>
      <trkpt lat="43.48734" lon="0.94833">
        <ele>210.2</ele>
        <time>2024-05-20T07:56:59Z</time>
      </trkpt>
      <trkpt lat="43.48735" lon="0.94831">
        <ele>210.4</ele>
        <time>2024-05-20T07:57:00Z</time>
      </trkpt>
      <trkpt lat="43.48736" lon="0.9483">
        <ele>210.4</ele>
        <time>2024-05-20T07:57:01Z</time>
      </trkpt>
      <trkpt lat="43.48736" lon="0.94829">
        <ele>210.6</ele>
        <time>2024-05-20T07:57:02Z</time>
      </trkpt>
      <trkpt lat="43.48737" lon="0.94829">
        <ele>210.6</ele>
        <time>2024-05-20T07:57:03Z</time>
      </trkpt>
      <trkpt lat="43.48737" lon="0.94829">
        <ele>210.6</ele>
        <time>2024-05-20T07:57:04Z</time>
      </trkpt>
      <trkpt lat="43.48737" lon="0.94829">
        <ele>210.6</ele>
        <time>2024-05-20T07:57:05Z</time>
      </trkpt>
      <trkpt lat="43.4874" lon="0.94823">
        <ele>210.4</ele>
        <time>2024-05-20T07:59:15Z</time>
      </trkpt>
      <trkpt lat="43.48741" lon="0.94821">
        <ele>210.2</ele>
        <time>2024-05-20T07:59:16Z</time>
      </trkpt>
      <trkpt lat="43.48743" lon="0.94819">
        <ele>210.2</ele>
        <time>2024-05-20T07:59:17Z</time>
      </trkpt>
      <trkpt lat="43.48745" lon="0.94816">
        <ele>210.2</ele>
        <time>2024-05-20T07:59:18Z</time>
      </trkpt>
      <trkpt lat="43.48747" lon="0.94813">
        <ele>210</ele>
        <time>2024-05-20T07:59:19Z</time>
      </trkpt>
      <trkpt lat="43.48749" lon="0.94809">
        <ele>210</ele>
        <time>2024-05-20T07:59:20Z</time>
      </trkpt>
      <trkpt lat="43.48752" lon="0.94806">
        <ele>210</ele>
        <time>2024-05-20T07:59:21Z</time>
      </trkpt>
      <trkpt lat="43.48755" lon="0.94802">
        <ele>210</ele>
        <time>2024-05-20T07:59:22Z</time>
      </trkpt>
      <trkpt lat="43.48757" lon="0.94798">
        <ele>209.8</ele>
        <time>2024-05-20T07:59:23Z</time>
      </trkpt>
      <trkpt lat="43.4876" lon="0.94793">
        <ele>209.6</ele>
        <time>2024-05-20T07:59:24Z</time>
      </trkpt>
      <trkpt lat="43.48763" lon="0.94789">
        <ele>209.4</ele>
        <time>2024-05-20T07:59:25Z</time>
      </trkpt>
      <trkpt lat="43.48766" lon="0.94784">
        <ele>209.4</ele>
        <time>2024-05-20T07:59:26Z</time>
      </trkpt>
      <trkpt lat="43.48769" lon="0.94779">
        <ele>209.2</ele>
        <time>2024-05-20T07:59:27Z</time>
      </trkpt>
      <trkpt lat="43.48772" lon="0.94774">
        <ele>209</ele>
        <time>2024-05-20T07:59:28Z</time>
      </trkpt>
      <trkpt lat="43.48776" lon="0.94769">
        <ele>209</ele>
        <time>2024-05-20T07:59:29Z</time>
      </trkpt>
      <trkpt lat="43.4878" lon="0.94764">
        <ele>208.8</ele>
        <time>2024-05-20T07:59:30Z</time>
      </trkpt>
      <trkpt lat="43.48784" lon="0.94758">
        <ele>208.4</ele>
        <time>2024-05-20T07:59:31Z</time>
      </trkpt>
      <trkpt lat="43.48788" lon="0.94752">
        <ele>208.4</ele>
        <time>2024-05-20T07:59:32Z</time>
      </trkpt>
      <trkpt lat="43.48793" lon="0.94745">
        <ele>207.6</ele>
        <time>2024-05-20T07:59:33Z</time>
      </trkpt>
      <trkpt lat="43.48798" lon="0.94738">
        <ele>207.2</ele>
        <time>2024-05-20T07:59:34Z</time>
      </trkpt>
      <trkpt lat="43.48803" lon="0.9473">
        <ele>207</ele>
        <time>2024-05-20T07:59:35Z</time>
      </trkpt>
      <trkpt lat="43.4881" lon="0.9472">
        <ele>206.6</ele>
        <time>2024-05-20T07:59:36Z</time>
      </trkpt>
      <trkpt lat="43.48815" lon="0.94712">
        <ele>206.4</ele>
        <time>2024-05-20T07:59:37Z</time>
      </trkpt>
      <trkpt lat="43.48822" lon="0.94703">
        <ele>205.8</ele>
        <time>2024-05-20T07:59:38Z</time>
      </trkpt>
      <trkpt lat="43.48829" lon="0.94693">
        <ele>205.4</ele>
        <time>2024-05-20T07:59:39Z</time>
      </trkpt>
      <trkpt lat="43.48837" lon="0.94682">
        <ele>204.6</ele>
        <time>2024-05-20T07:59:40Z</time>
      </trkpt>
      <trkpt lat="43.48844" lon="0.94671">
        <ele>203.4</ele>
        <time>2024-05-20T07:59:41Z</time>
      </trkpt>
      <trkpt lat="43.48852" lon="0.9466">
        <ele>203</ele>
        <time>2024-05-20T07:59:42Z</time>
      </trkpt>
      <trkpt lat="43.4886" lon="0.94649">
        <ele>201.6</ele>
        <time>2024-05-20T07:59:43Z</time>
      </trkpt>
      <trkpt lat="43.48868" lon="0.94637">
        <ele>201</ele>
        <time>2024-05-20T07:59:44Z</time>
      </trkpt>
      <trkpt lat="43.48877" lon="0.94623">
        <ele>199.8</ele>
        <time>2024-05-20T07:59:45Z</time>
      </trkpt>
      <trkpt lat="43.48884" lon="0.94613">
        <ele>199.2</ele>
        <time>2024-05-20T07:59:46Z</time>
      </trkpt>
      <trkpt lat="43.48893" lon="0.946">
        <ele>198.4</ele>
        <time>2024-05-20T07:59:47Z</time>
      </trkpt>
      <trkpt lat="43.48904" lon="0.94584">
        <ele>197.8</ele>
        <time>2024-05-20T07:59:48Z</time>
      </trkpt>
      <trkpt lat="43.48911" lon="0.94574">
        <ele>196.6</ele>
        <time>2024-05-20T07:59:49Z</time>
      </trkpt>
      <trkpt lat="43.4892" lon="0.94561">
        <ele>194.4</ele>
        <time>2024-05-20T07:59:50Z</time>
      </trkpt>
      <trkpt lat="43.48929" lon="0.94548">
        <ele>193.6</ele>
        <time>2024-05-20T07:59:51Z</time>
      </trkpt>
      <trkpt lat="43.48938" lon="0.94536">
        <ele>192</ele>
        <time>2024-05-20T07:59:52Z</time>
      </trkpt>
      <trkpt lat="43.48948" lon="0.94522">
        <ele>191.6</ele>
        <time>2024-05-20T07:59:53Z</time>
      </trkpt>
      <trkpt lat="43.48957" lon="0.94509">
        <ele>190.2</ele>
        <time>2024-05-20T07:59:54Z</time>
      </trkpt>
      <trkpt lat="43.48965" lon="0.94496">
        <ele>188.8</ele>
        <time>2024-05-20T07:59:55Z</time>
      </trkpt>
      <trkpt lat="43.48973" lon="0.94483">
        <ele>187.4</ele>
        <time>2024-05-20T07:59:56Z</time>
      </trkpt>
      <trkpt lat="43.48979" lon="0.94471">
        <ele>186.8</ele>
        <time>2024-05-20T07:59:57Z</time>
      </trkpt>
      <trkpt lat="43.48986" lon="0.94457">
        <ele>185.8</ele>
        <time>2024-05-20T07:59:58Z</time>
      </trkpt>
      <trkpt lat="43.48992" lon="0.94446">
        <ele>184.6</ele>
        <time>2024-05-20T07:59:59Z</time>
      </trkpt>
      <trkpt lat="43.48996" lon="0.94437">
        <ele>184</ele>
        <time>2024-05-20T08:00:00Z</time>
      </trkpt>
      <trkpt lat="43.49001" lon="0.94425">
        <ele>183.2</ele>
        <time>2024-05-20T08:00:01Z</time>
      </trkpt>
      <trkpt lat="43.49008" lon="0.94412">
        <ele>182.6</ele>
        <time>2024-05-20T08:00:02Z</time>
      </trkpt>
      <trkpt lat="43.49012" lon="0.94403">
        <ele>182</ele>
        <time>2024-05-20T08:00:03Z</time>
      </trkpt>
      <trkpt lat="43.49017" lon="0.94392">
        <ele>181.8</ele>
        <time>2024-05-20T08:00:04Z</time>
      </trkpt>
      <trkpt lat="43.49021" lon="0.94381">
        <ele>181.4</ele>
        <time>2024-05-20T08:00:05Z</time>
      </trkpt>
      <trkpt lat="43.49026" lon="0.9437">
        <ele>181.2</ele>
        <time>2024-05-20T08:00:06Z</time>
      </trkpt>
      <trkpt lat="43.4903" lon="0.94359">
        <ele>181</ele>
        <time>2024-05-20T08:00:07Z</time>
      </trkpt>
      <trkpt lat="43.49034" lon="0.94347">
        <ele>180.8</ele>
        <time>2024-05-20T08:00:08Z</time>
      </trkpt>
      <trkpt lat="43.49038" lon="0.94337">
        <ele>180.6</ele>
        <time>2024-05-20T08:00:09Z</time>
      </trkpt>
      <trkpt lat="43.49041" lon="0.9433">
        <ele>180.2</ele>
        <time>2024-05-20T08:00:10Z</time>
      </trkpt>
      <trkpt lat="43.49045" lon="0.94321">
        <ele>180.2</ele>
        <time>2024-05-20T08:00:11Z</time>
      </trkpt>
      <trkpt lat="43.4905" lon="0.94313">
        <ele>180</ele>
        <time>2024-05-20T08:00:12Z</time>
      </trkpt>
      <trkpt lat="43.49055" lon="0.94308">
        <ele>179.8</ele>
        <time>2024-05-20T08:00:13Z</time>
      </trkpt>
      <trkpt lat="43.49058" lon="0.94306">
        <ele>179.4</ele>
        <time>2024-05-20T08:00:14Z</time>
      </trkpt>
      <trkpt lat="43.4906" lon="0.94304">
        <ele>179</ele>
        <time>2024-05-20T08:00:15Z</time>
      </trkpt>
      <trkpt lat="43.49063" lon="0.94303">
        <ele>179</ele>
        <time>2024-05-20T08:00:16Z</time>
      </trkpt>
      <trkpt lat="43.49066" lon="0.94302">
        <ele>178.8</ele>
        <time>2024-05-20T08:00:17Z</time>
      </trkpt>
      <trkpt lat="43.4907" lon="0.94301">
        <ele>178.8</ele>
        <time>2024-05-20T08:00:18Z</time>
      </trkpt>
      <trkpt lat="43.49074" lon="0.94299">
        <ele>178.6</ele>
        <time>2024-05-20T08:00:19Z</time>
      </trkpt>
      <trkpt lat="43.49077" lon="0.94296">
        <ele>178.6</ele>
        <time>2024-05-20T08:00:20Z</time>
      </trkpt>
      <trkpt lat="43.49081" lon="0.9429">
        <ele>178.6</ele>
        <time>2024-05-20T08:00:21Z</time>
      </trkpt>
      <trkpt lat="43.49082" lon="0.94285">
        <ele>178.6</ele>
        <time>2024-05-20T08:00:22Z</time>
      </trkpt>
      <trkpt lat="43.49082" lon="0.94278">
        <ele>178.4</ele>
        <time>2024-05-20T08:00:23Z</time>
      </trkpt>
      <trkpt lat="43.49081" lon="0.94271">
        <ele>178.4</ele>
        <time>2024-05-20T08:00:24Z</time>
      </trkpt>
      <trkpt lat="43.49078" lon="0.94265">
        <ele>178.4</ele>
        <time>2024-05-20T08:00:25Z</time>
      </trkpt>
      <trkpt lat="43.49074" lon="0.9426">
        <ele>178.2</ele>
        <time>2024-05-20T08:00:26Z</time>
      </trkpt>
      <trkpt lat="43.49068" lon="0.94256">
        <ele>178.2</ele>
        <time>2024-05-20T08:00:27Z</time>
      </trkpt>
      <trkpt lat="43.49064" lon="0.94254">
        <ele>178.2</ele>
        <time>2024-05-20T08:00:28Z</time>
      </trkpt>
      <trkpt lat="43.49059" lon="0.9425">
        <ele>178</ele>
        <time>2024-05-20T08:00:29Z</time>
      </trkpt>
      <trkpt lat="43.49053" lon="0.94243">
        <ele>178</ele>
        <time>2024-05-20T08:00:30Z</time>
      </trkpt>
      <trkpt lat="43.4905" lon="0.94238">
        <ele>177.8</ele>
        <time>2024-05-20T08:00:31Z</time>
      </trkpt>
      <trkpt lat="43.49046" lon="0.94232">
        <ele>177.8</ele>
        <time>2024-05-20T08:00:32Z</time>
      </trkpt>
      <trkpt lat="43.49042" lon="0.94225">
        <ele>177.8</ele>
        <time>2024-05-20T08:00:33Z</time>
      </trkpt>
      <trkpt lat="43.49038" lon="0.94218">
        <ele>177.8</ele>
        <time>2024-05-20T08:00:34Z</time>
      </trkpt>
      <trkpt lat="43.49034" lon="0.94212">
        <ele>177.8</ele>
        <time>2024-05-20T08:00:35Z</time>
      </trkpt>
      <trkpt lat="43.4903" lon="0.94204">
        <ele>177.8</ele>
        <time>2024-05-20T08:00:36Z</time>
      </trkpt>
      <trkpt lat="43.49027" lon="0.94197">
        <ele>177.8</ele>
        <time>2024-05-20T08:00:37Z</time>
      </trkpt>
      <trkpt lat="43.49024" lon="0.94189">
        <ele>177.8</ele>
        <time>2024-05-20T08:00:38Z</time>
      </trkpt>
      <trkpt lat="43.4902" lon="0.94182">
        <ele>177.8</ele>
        <time>2024-05-20T08:00:39Z</time>
      </trkpt>
      <trkpt lat="43.49017" lon="0.94174">
        <ele>177.8</ele>
        <time>2024-05-20T08:00:40Z</time>
      </trkpt>
      <trkpt lat="43.49013" lon="0.94166">
        <ele>177.8</ele>
        <time>2024-05-20T08:00:41Z</time>
      </trkpt>
      <trkpt lat="43.49009" lon="0.94157">
        <ele>177.8</ele>
        <time>2024-05-20T08:00:42Z</time>
      </trkpt>
      <trkpt lat="43.49006" lon="0.9415">
        <ele>177.8</ele>
        <time>2024-05-20T08:00:43Z</time>
      </trkpt>
      <trkpt lat="43.49002" lon="0.94141">
        <ele>177.8</ele>
        <time>2024-05-20T08:00:44Z</time>
      </trkpt>
      <trkpt lat="43.48998" lon="0.94131">
        <ele>177.8</ele>
        <time>2024-05-20T08:00:45Z</time>
      </trkpt>
      <trkpt lat="43.48994" lon="0.94122">
        <ele>177.8</ele>
        <time>2024-05-20T08:00:46Z</time>
      </trkpt>
      <trkpt lat="43.48991" lon="0.94115">
        <ele>177.8</ele>
        <time>2024-05-20T08:00:47Z</time>
      </trkpt>
      <trkpt lat="43.48987" lon="0.94107">
        <ele>177.8</ele>
        <time>2024-05-20T08:00:48Z</time>
      </trkpt>
      <trkpt lat="43.48984" lon="0.94098">
        <ele>177.6</ele>
        <time>2024-05-20T08:00:49Z</time>
      </trkpt>
      <trkpt lat="43.4898" lon="0.94089">
        <ele>177.6</ele>
        <time>2024-05-20T08:00:50Z</time>
      </trkpt>
      <trkpt lat="43.48975" lon="0.94078">
        <ele>177.6</ele>
        <time>2024-05-20T08:00:51Z</time>
      </trkpt>
      <trkpt lat="43.48972" lon="0.94071">
        <ele>177.6</ele>
        <time>2024-05-20T08:00:52Z</time>
      </trkpt>
      <trkpt lat="43.48969" lon="0.94063">
        <ele>177.6</ele>
        <time>2024-05-20T08:00:53Z</time>
      </trkpt>
      <trkpt lat="43.48965" lon="0.94054">
        <ele>177.6</ele>
        <time>2024-05-20T08:00:54Z</time>
      </trkpt>
      <trkpt lat="43.4896" lon="0.94044">
        <ele>177.6</ele>
        <time>2024-05-20T08:00:55Z</time>
      </trkpt>
      <trkpt lat="43.48958" lon="0.94037">
        <ele>177.6</ele>
        <time>2024-05-20T08:00:56Z</time>
      </trkpt>
      <trkpt lat="43.48954" lon="0.94029">
        <ele>177.6</ele>
        <time>2024-05-20T08:00:57Z</time>
      </trkpt>
      <trkpt lat="43.48951" lon="0.94022">
        <ele>177.4</ele>
        <time>2024-05-20T08:00:58Z</time>
      </trkpt>
      <trkpt lat="43.48948" lon="0.94014">
        <ele>177.4</ele>
        <time>2024-05-20T08:00:59Z</time>
      </trkpt>
      <trkpt lat="43.48944" lon="0.94005">
        <ele>177.4</ele>
        <time>2024-05-20T08:01:00Z</time>
      </trkpt>
      <trkpt lat="43.48942" lon="0.93998">
        <ele>177.4</ele>
        <time>2024-05-20T08:01:01Z</time>
      </trkpt>
      <trkpt lat="43.48939" lon="0.93989">
        <ele>177.4</ele>
        <time>2024-05-20T08:01:02Z</time>
      </trkpt>
      <trkpt lat="43.48936" lon="0.9398">
        <ele>177.4</ele>
        <time>2024-05-20T08:01:03Z</time>
      </trkpt>
      <trkpt lat="43.48933" lon="0.93973">
        <ele>177.4</ele>
        <time>2024-05-20T08:01:04Z</time>
      </trkpt>
      <trkpt lat="43.4893" lon="0.93964">
        <ele>177.4</ele>
        <time>2024-05-20T08:01:05Z</time>
      </trkpt>
      <trkpt lat="43.48927" lon="0.93955">
        <ele>177.4</ele>
        <time>2024-05-20T08:01:06Z</time>
      </trkpt>
      <trkpt lat="43.48924" lon="0.93946">
        <ele>177.4</ele>
        <time>2024-05-20T08:01:07Z</time>
      </trkpt>
      <trkpt lat="43.4892" lon="0.93935">
        <ele>177.4</ele>
        <time>2024-05-20T08:01:08Z</time>
      </trkpt>
      <trkpt lat="43.48918" lon="0.93928">
        <ele>177.2</ele>
        <time>2024-05-20T08:01:09Z</time>
      </trkpt>
      <trkpt lat="43.48914" lon="0.93919">
        <ele>177.2</ele>
        <time>2024-05-20T08:01:10Z</time>
      </trkpt>
      <trkpt lat="43.48911" lon="0.9391">
        <ele>177.2</ele>
        <time>2024-05-20T08:01:11Z</time>
      </trkpt>
      <trkpt lat="43.48907" lon="0.93899">
        <ele>177.2</ele>
        <time>2024-05-20T08:01:12Z</time>
      </trkpt>
      <trkpt lat="43.48904" lon="0.9389">
        <ele>177.2</ele>
        <time>2024-05-20T08:01:13Z</time>
      </trkpt>
      <trkpt lat="43.48901" lon="0.93882">
        <ele>177.2</ele>
        <time>2024-05-20T08:01:14Z</time>
      </trkpt>
      <trkpt lat="43.48898" lon="0.93873">
        <ele>177</ele>
        <time>2024-05-20T08:01:15Z</time>
      </trkpt>
      <trkpt lat="43.48894" lon="0.93863">
        <ele>177</ele>
        <time>2024-05-20T08:01:16Z</time>
      </trkpt>
      <trkpt lat="43.48891" lon="0.93854">
        <ele>177</ele>
        <time>2024-05-20T08:01:17Z</time>
      </trkpt>
      <trkpt lat="43.48888" lon="0.93844">
        <ele>177</ele>
        <time>2024-05-20T08:01:18Z</time>
      </trkpt>
      <trkpt lat="43.48884" lon="0.93835">
        <ele>177</ele>
        <time>2024-05-20T08:01:19Z</time>
      </trkpt>
      <trkpt lat="43.48881" lon="0.93825">
        <ele>177</ele>
        <time>2024-05-20T08:01:20Z</time>
      </trkpt>
      <trkpt lat="43.48878" lon="0.93815">
        <ele>177</ele>
        <time>2024-05-20T08:01:21Z</time>
      </trkpt>
      <trkpt lat="43.48874" lon="0.93805">
        <ele>177</ele>
        <time>2024-05-20T08:01:22Z</time>
      </trkpt>
      <trkpt lat="43.48871" lon="0.93796">
        <ele>177</ele>
        <time>2024-05-20T08:01:23Z</time>
      </trkpt>
      <trkpt lat="43.48867" lon="0.93785">
        <ele>177</ele>
        <time>2024-05-20T08:01:24Z</time>
      </trkpt>
      <trkpt lat="43.48864" lon="0.93777">
        <ele>177</ele>
        <time>2024-05-20T08:01:25Z</time>
      </trkpt>
      <trkpt lat="43.48861" lon="0.93767">
        <ele>177</ele>
        <time>2024-05-20T08:01:26Z</time>
      </trkpt>
      <trkpt lat="43.48857" lon="0.93758">
        <ele>177</ele>
        <time>2024-05-20T08:01:27Z</time>
      </trkpt>
      <trkpt lat="43.48852" lon="0.93746">
        <ele>177</ele>
        <time>2024-05-20T08:01:28Z</time>
      </trkpt>
      <trkpt lat="43.4885" lon="0.93738">
        <ele>177</ele>
        <time>2024-05-20T08:01:29Z</time>
      </trkpt>
      <trkpt lat="43.48846" lon="0.93728">
        <ele>177.2</ele>
        <time>2024-05-20T08:01:30Z</time>
      </trkpt>
      <trkpt lat="43.48842" lon="0.93716">
        <ele>177.2</ele>
        <time>2024-05-20T08:01:31Z</time>
      </trkpt>
      <trkpt lat="43.48839" lon="0.93707">
        <ele>177.2</ele>
        <time>2024-05-20T08:01:32Z</time>
      </trkpt>
      <trkpt lat="43.48835" lon="0.93698">
        <ele>177.2</ele>
        <time>2024-05-20T08:01:33Z</time>
      </trkpt>
      <trkpt lat="43.48832" lon="0.93688">
        <ele>177.2</ele>
        <time>2024-05-20T08:01:34Z</time>
      </trkpt>
      <trkpt lat="43.48828" lon="0.93678">
        <ele>177.2</ele>
        <time>2024-05-20T08:01:35Z</time>
      </trkpt>
      <trkpt lat="43.48825" lon="0.93668">
        <ele>177.2</ele>
        <time>2024-05-20T08:01:36Z</time>
      </trkpt>
      <trkpt lat="43.4882" lon="0.93655">
        <ele>177.2</ele>
        <time>2024-05-20T08:01:37Z</time>
      </trkpt>
      <trkpt lat="43.48816" lon="0.93644">
        <ele>177.2</ele>
        <time>2024-05-20T08:01:38Z</time>
      </trkpt>
      <trkpt lat="43.48813" lon="0.93636">
        <ele>177.2</ele>
        <time>2024-05-20T08:01:39Z</time>
      </trkpt>
      <trkpt lat="43.4881" lon="0.93626">
        <ele>177.2</ele>
        <time>2024-05-20T08:01:40Z</time>
      </trkpt>
      <trkpt lat="43.48806" lon="0.93615">
        <ele>177.2</ele>
        <time>2024-05-20T08:01:41Z</time>
      </trkpt>
      <trkpt lat="43.48802" lon="0.93606">
        <ele>177.2</ele>
        <time>2024-05-20T08:01:42Z</time>
      </trkpt>
      <trkpt lat="43.48799" lon="0.93597">
        <ele>177.2</ele>
        <time>2024-05-20T08:01:43Z</time>
      </trkpt>
      <trkpt lat="43.48797" lon="0.9359">
        <ele>177.2</ele>
        <time>2024-05-20T08:01:44Z</time>
      </trkpt>
      <trkpt lat="43.48793" lon="0.93578">
        <ele>177.4</ele>
        <time>2024-05-20T08:01:45Z</time>
      </trkpt>
      <trkpt lat="43.4879" lon="0.93569">
        <ele>177.6</ele>
        <time>2024-05-20T08:01:46Z</time>
      </trkpt>
      <trkpt lat="43.48787" lon="0.93559">
        <ele>177.6</ele>
        <time>2024-05-20T08:01:47Z</time>
      </trkpt>
      <trkpt lat="43.48784" lon="0.93551">
        <ele>177.8</ele>
        <time>2024-05-20T08:01:48Z</time>
      </trkpt>
      <trkpt lat="43.48781" lon="0.93542">
        <ele>177.8</ele>
        <time>2024-05-20T08:01:49Z</time>
      </trkpt>
      <trkpt lat="43.48777" lon="0.93531">
        <ele>177.8</ele>
        <time>2024-05-20T08:01:50Z</time>
      </trkpt>
      <trkpt lat="43.48774" lon="0.93522">
        <ele>178</ele>
        <time>2024-05-20T08:01:51Z</time>
      </trkpt>
      <trkpt lat="43.48771" lon="0.93513">
        <ele>178.2</ele>
        <time>2024-05-20T08:01:52Z</time>
      </trkpt>
      <trkpt lat="43.48769" lon="0.93506">
        <ele>178.2</ele>
        <time>2024-05-20T08:01:53Z</time>
      </trkpt>
      <trkpt lat="43.48766" lon="0.93498">
        <ele>178.2</ele>
        <time>2024-05-20T08:01:54Z</time>
      </trkpt>
      <trkpt lat="43.48762" lon="0.93488">
        <ele>178.2</ele>
        <time>2024-05-20T08:01:55Z</time>
      </trkpt>
      <trkpt lat="43.4876" lon="0.93481">
        <ele>178.4</ele>
        <time>2024-05-20T08:01:56Z</time>
      </trkpt>
      <trkpt lat="43.48757" lon="0.93475">
        <ele>178.4</ele>
        <time>2024-05-20T08:01:57Z</time>
      </trkpt>
      <trkpt lat="43.48755" lon="0.93468">
        <ele>178.4</ele>
        <time>2024-05-20T08:01:58Z</time>
      </trkpt>
      <trkpt lat="43.48754" lon="0.93459">
        <ele>178.4</ele>
        <time>2024-05-20T08:01:59Z</time>
      </trkpt>
      <trkpt lat="43.48754" lon="0.9345">
        <ele>178.6</ele>
        <time>2024-05-20T08:02:00Z</time>
      </trkpt>
      <trkpt lat="43.48756" lon="0.93444">
        <ele>178.6</ele>
        <time>2024-05-20T08:02:01Z</time>
      </trkpt>
      <trkpt lat="43.48759" lon="0.93438">
        <ele>178.6</ele>
        <time>2024-05-20T08:02:02Z</time>
      </trkpt>
      <trkpt lat="43.48764" lon="0.93433">
        <ele>178.6</ele>
        <time>2024-05-20T08:02:03Z</time>
      </trkpt>
      <trkpt lat="43.4877" lon="0.9343">
        <ele>178.8</ele>
        <time>2024-05-20T08:02:04Z</time>
      </trkpt>
      <trkpt lat="43.48777" lon="0.93427">
        <ele>178.8</ele>
        <time>2024-05-20T08:02:05Z</time>
      </trkpt>
      <trkpt lat="43.48783" lon="0.93425">
        <ele>179</ele>
        <time>2024-05-20T08:02:06Z</time>
      </trkpt>
      <trkpt lat="43.48788" lon="0.93423">
        <ele>179</ele>
        <time>2024-05-20T08:02:07Z</time>
      </trkpt>
      <trkpt lat="43.48795" lon="0.93421">
        <ele>179</ele>
        <time>2024-05-20T08:02:08Z</time>
      </trkpt>
      <trkpt lat="43.48803" lon="0.93419">
        <ele>179.2</ele>
        <time>2024-05-20T08:02:09Z</time>
      </trkpt>
      <trkpt lat="43.4881" lon="0.93417">
        <ele>179.2</ele>
        <time>2024-05-20T08:02:10Z</time>
      </trkpt>
      <trkpt lat="43.48817" lon="0.93414">
        <ele>179.4</ele>
        <time>2024-05-20T08:02:11Z</time>
      </trkpt>
      <trkpt lat="43.48822" lon="0.93413">
        <ele>179.4</ele>
        <time>2024-05-20T08:02:12Z</time>
      </trkpt>
      <trkpt lat="43.4883" lon="0.9341">
        <ele>179.4</ele>
        <time>2024-05-20T08:02:13Z</time>
      </trkpt>
      <trkpt lat="43.48836" lon="0.93407">
        <ele>179.4</ele>
        <time>2024-05-20T08:02:14Z</time>
      </trkpt>
      <trkpt lat="43.48843" lon="0.93405">
        <ele>179.4</ele>
        <time>2024-05-20T08:02:15Z</time>
      </trkpt>
      <trkpt lat="43.48848" lon="0.93403">
        <ele>179.4</ele>
        <time>2024-05-20T08:02:16Z</time>
      </trkpt>
      <trkpt lat="43.48854" lon="0.93401">
        <ele>179.4</ele>
        <time>2024-05-20T08:02:17Z</time>
      </trkpt>
      <trkpt lat="43.48862" lon="0.93398">
        <ele>179.4</ele>
        <time>2024-05-20T08:02:18Z</time>
      </trkpt>
      <trkpt lat="43.48868" lon="0.93396">
        <ele>179.4</ele>
        <time>2024-05-20T08:02:19Z</time>
      </trkpt>
      <trkpt lat="43.48874" lon="0.93393">
        <ele>179.4</ele>
        <time>2024-05-20T08:02:20Z</time>
      </trkpt>
      <trkpt lat="43.48879" lon="0.93391">
        <ele>179.4</ele>
        <time>2024-05-20T08:02:21Z</time>
      </trkpt>
      <trkpt lat="43.48885" lon="0.93388">
        <ele>179.4</ele>
        <time>2024-05-20T08:02:22Z</time>
      </trkpt>
      <trkpt lat="43.48891" lon="0.93386">
        <ele>179.4</ele>
        <time>2024-05-20T08:02:23Z</time>
      </trkpt>
      <trkpt lat="43.48898" lon="0.93382">
        <ele>179.6</ele>
        <time>2024-05-20T08:02:24Z</time>
      </trkpt>
      <trkpt lat="43.48902" lon="0.9338">
        <ele>179.6</ele>
        <time>2024-05-20T08:02:25Z</time>
      </trkpt>
      <trkpt lat="43.48907" lon="0.93378">
        <ele>179.6</ele>
        <time>2024-05-20T08:02:26Z</time>
      </trkpt>
      <trkpt lat="43.48912" lon="0.93375">
        <ele>179.6</ele>
        <time>2024-05-20T08:02:27Z</time>
      </trkpt>
      <trkpt lat="43.48917" lon="0.93371">
        <ele>179.6</ele>
        <time>2024-05-20T08:02:28Z</time>
      </trkpt>
      <trkpt lat="43.48921" lon="0.93368">
        <ele>179.6</ele>
        <time>2024-05-20T08:02:29Z</time>
      </trkpt>
      <trkpt lat="43.48925" lon="0.93365">
        <ele>179.6</ele>
        <time>2024-05-20T08:02:30Z</time>
      </trkpt>
      <trkpt lat="43.4893" lon="0.93361">
        <ele>179.8</ele>
        <time>2024-05-20T08:02:31Z</time>
      </trkpt>
      <trkpt lat="43.48935" lon="0.93356">
        <ele>179.8</ele>
        <time>2024-05-20T08:02:32Z</time>
      </trkpt>
      <trkpt lat="43.48938" lon="0.93353">
        <ele>179.8</ele>
        <time>2024-05-20T08:02:33Z</time>
      </trkpt>
      <trkpt lat="43.48943" lon="0.9335">
        <ele>179.8</ele>
        <time>2024-05-20T08:02:34Z</time>
      </trkpt>
      <trkpt lat="43.48946" lon="0.93346">
        <ele>179.8</ele>
        <time>2024-05-20T08:02:35Z</time>
      </trkpt>
      <trkpt lat="43.48951" lon="0.93342">
        <ele>179.8</ele>
        <time>2024-05-20T08:02:36Z</time>
      </trkpt>
      <trkpt lat="43.48954" lon="0.93338">
        <ele>179.8</ele>
        <time>2024-05-20T08:02:37Z</time>
      </trkpt>
      <trkpt lat="43.48957" lon="0.93336">
        <ele>179.8</ele>
        <time>2024-05-20T08:02:38Z</time>
      </trkpt>
      <trkpt lat="43.4896" lon="0.93333">
        <ele>179.8</ele>
        <time>2024-05-20T08:02:39Z</time>
      </trkpt>
      <trkpt lat="43.48962" lon="0.93331">
        <ele>179.6</ele>
        <time>2024-05-20T08:02:40Z</time>
      </trkpt>
      <trkpt lat="43.48965" lon="0.93328">
        <ele>179.6</ele>
        <time>2024-05-20T08:02:41Z</time>
      </trkpt>
      <trkpt lat="43.48967" lon="0.93326">
        <ele>179.6</ele>
        <time>2024-05-20T08:02:42Z</time>
      </trkpt>
      <trkpt lat="43.48969" lon="0.93324">
        <ele>179.4</ele>
        <time>2024-05-20T08:02:43Z</time>
      </trkpt>
      <trkpt lat="43.4897" lon="0.93322">
        <ele>179.4</ele>
        <time>2024-05-20T08:02:44Z</time>
      </trkpt>
      <trkpt lat="43.48971" lon="0.93321">
        <ele>179.4</ele>
        <time>2024-05-20T08:02:45Z</time>
      </trkpt>
      <trkpt lat="43.48972" lon="0.93319">
        <ele>179.4</ele>
        <time>2024-05-20T08:02:46Z</time>
      </trkpt>
      <trkpt lat="43.48974" lon="0.93318">
        <ele>179.2</ele>
        <time>2024-05-20T08:02:47Z</time>
      </trkpt>
      <trkpt lat="43.48976" lon="0.93316">
        <ele>179.2</ele>
        <time>2024-05-20T08:02:48Z</time>
      </trkpt>
      <trkpt lat="43.48978" lon="0.93314">
        <ele>179.2</ele>
        <time>2024-05-20T08:02:49Z</time>
      </trkpt>
      <trkpt lat="43.4898" lon="0.93312">
        <ele>179.2</ele>
        <time>2024-05-20T08:02:50Z</time>
      </trkpt>
      <trkpt lat="43.48984" lon="0.93309">
        <ele>179.2</ele>
        <time>2024-05-20T08:02:51Z</time>
      </trkpt>
      <trkpt lat="43.48987" lon="0.93307">
        <ele>179.2</ele>
        <time>2024-05-20T08:02:52Z</time>
      </trkpt>
      <trkpt lat="43.48989" lon="0.93305">
        <ele>179.2</ele>
        <time>2024-05-20T08:02:53Z</time>
      </trkpt>
      <trkpt lat="43.48993" lon="0.93303">
        <ele>179.2</ele>
        <time>2024-05-20T08:02:54Z</time>
      </trkpt>
      <trkpt lat="43.48997" lon="0.93299">
        <ele>179</ele>
        <time>2024-05-20T08:02:55Z</time>
      </trkpt>
      <trkpt lat="43.49001" lon="0.93296">
        <ele>179</ele>
        <time>2024-05-20T08:02:56Z</time>
      </trkpt>
      <trkpt lat="43.49006" lon="0.93293">
        <ele>179</ele>
        <time>2024-05-20T08:02:57Z</time>
      </trkpt>
      <trkpt lat="43.4901" lon="0.93289">
        <ele>179</ele>
        <time>2024-05-20T08:02:58Z</time>
      </trkpt>
      <trkpt lat="43.49014" lon="0.93285">
        <ele>179</ele>
        <time>2024-05-20T08:02:59Z</time>
      </trkpt>
      <trkpt lat="43.49019" lon="0.93281">
        <ele>179</ele>
        <time>2024-05-20T08:03:00Z</time>
      </trkpt>
      <trkpt lat="43.49024" lon="0.93277">
        <ele>179</ele>
        <time>2024-05-20T08:03:01Z</time>
      </trkpt>
      <trkpt lat="43.49028" lon="0.93273">
        <ele>179</ele>
        <time>2024-05-20T08:03:02Z</time>
      </trkpt>
      <trkpt lat="43.49032" lon="0.93269">
        <ele>179</ele>
        <time>2024-05-20T08:03:03Z</time>
      </trkpt>
      <trkpt lat="43.49038" lon="0.93264">
        <ele>179</ele>
        <time>2024-05-20T08:03:04Z</time>
      </trkpt>
      <trkpt lat="43.49043" lon="0.9326">
        <ele>179</ele>
        <time>2024-05-20T08:03:05Z</time>
      </trkpt>
      <trkpt lat="43.49048" lon="0.93256">
        <ele>179</ele>
        <time>2024-05-20T08:03:06Z</time>
      </trkpt>
      <trkpt lat="43.49051" lon="0.93252">
        <ele>179</ele>
        <time>2024-05-20T08:03:07Z</time>
      </trkpt>
      <trkpt lat="43.49056" lon="0.93248">
        <ele>179</ele>
        <time>2024-05-20T08:03:08Z</time>
      </trkpt>
      <trkpt lat="43.49062" lon="0.93243">
        <ele>179</ele>
        <time>2024-05-20T08:03:09Z</time>
      </trkpt>
      <trkpt lat="43.49066" lon="0.93239">
        <ele>179</ele>
        <time>2024-05-20T08:03:10Z</time>
      </trkpt>
      <trkpt lat="43.49071" lon="0.93235">
        <ele>179</ele>
        <time>2024-05-20T08:03:11Z</time>
      </trkpt>
      <trkpt lat="43.49074" lon="0.93232">
        <ele>178.8</ele>
        <time>2024-05-20T08:03:12Z</time>
      </trkpt>
      <trkpt lat="43.49079" lon="0.93228">
        <ele>178.8</ele>
        <time>2024-05-20T08:03:13Z</time>
      </trkpt>
      <trkpt lat="43.49084" lon="0.93223">
        <ele>178.8</ele>
        <time>2024-05-20T08:03:14Z</time>
      </trkpt>
      <trkpt lat="43.49088" lon="0.93219">
        <ele>178.8</ele>
        <time>2024-05-20T08:03:15Z</time>
      </trkpt>
      <trkpt lat="43.49092" lon="0.93216">
        <ele>178.8</ele>
        <time>2024-05-20T08:03:16Z</time>
      </trkpt>
      <trkpt lat="43.49096" lon="0.93213">
        <ele>178.8</ele>
        <time>2024-05-20T08:03:17Z</time>
      </trkpt>
      <trkpt lat="43.491" lon="0.9321">
        <ele>179</ele>
        <time>2024-05-20T08:03:18Z</time>
      </trkpt>
      <trkpt lat="43.49105" lon="0.93205">
        <ele>179</ele>
        <time>2024-05-20T08:03:19Z</time>
      </trkpt>
      <trkpt lat="43.49109" lon="0.93202">
        <ele>179</ele>
        <time>2024-05-20T08:03:20Z</time>
      </trkpt>
      <trkpt lat="43.49112" lon="0.93199">
        <ele>179.2</ele>
        <time>2024-05-20T08:03:21Z</time>
      </trkpt>
      <trkpt lat="43.49116" lon="0.93195">
        <ele>179.2</ele>
        <time>2024-05-20T08:03:22Z</time>
      </trkpt>
      <trkpt lat="43.4912" lon="0.93191">
        <ele>179.2</ele>
        <time>2024-05-20T08:03:23Z</time>
      </trkpt>
      <trkpt lat="43.49124" lon="0.93187">
        <ele>179.2</ele>
        <time>2024-05-20T08:03:24Z</time>
      </trkpt>
      <trkpt lat="43.49127" lon="0.93184">
        <ele>179.2</ele>
        <time>2024-05-20T08:03:25Z</time>
      </trkpt>
      <trkpt lat="43.4913" lon="0.9318">
        <ele>179.2</ele>
        <time>2024-05-20T08:03:26Z</time>
      </trkpt>
      <trkpt lat="43.49134" lon="0.93177">
        <ele>179.2</ele>
        <time>2024-05-20T08:03:27Z</time>
      </trkpt>
      <trkpt lat="43.49138" lon="0.93172">
        <ele>179.2</ele>
        <time>2024-05-20T08:03:28Z</time>
      </trkpt>
      <trkpt lat="43.49142" lon="0.93168">
        <ele>179.2</ele>
        <time>2024-05-20T08:03:29Z</time>
      </trkpt>
      <trkpt lat="43.49145" lon="0.93163">
        <ele>179.2</ele>
        <time>2024-05-20T08:03:30Z</time>
      </trkpt>
      <trkpt lat="43.49148" lon="0.93158">
        <ele>179.2</ele>
        <time>2024-05-20T08:03:31Z</time>
      </trkpt>
      <trkpt lat="43.49152" lon="0.93154">
        <ele>179.2</ele>
        <time>2024-05-20T08:03:32Z</time>
      </trkpt>
      <trkpt lat="43.49154" lon="0.93151">
        <ele>179.2</ele>
        <time>2024-05-20T08:03:33Z</time>
      </trkpt>
      <trkpt lat="43.49157" lon="0.93146">
        <ele>179.2</ele>
        <time>2024-05-20T08:03:34Z</time>
      </trkpt>
      <trkpt lat="43.4916" lon="0.93141">
        <ele>179.2</ele>
        <time>2024-05-20T08:03:35Z</time>
      </trkpt>
      <trkpt lat="43.49163" lon="0.93137">
        <ele>179.2</ele>
        <time>2024-05-20T08:03:36Z</time>
      </trkpt>
      <trkpt lat="43.49166" lon="0.93133">
        <ele>179</ele>
        <time>2024-05-20T08:03:37Z</time>
      </trkpt>
      <trkpt lat="43.49168" lon="0.9313">
        <ele>179</ele>
        <time>2024-05-20T08:03:38Z</time>
      </trkpt>
      <trkpt lat="43.4917" lon="0.93127">
        <ele>179</ele>
        <time>2024-05-20T08:03:39Z</time>
      </trkpt>
      <trkpt lat="43.49171" lon="0.93125">
        <ele>179</ele>
        <time>2024-05-20T08:03:40Z</time>
      </trkpt>
      <trkpt lat="43.49172" lon="0.93123">
        <ele>178.8</ele>
        <time>2024-05-20T08:03:41Z</time>
      </trkpt>
      <trkpt lat="43.49174" lon="0.93121">
        <ele>178.8</ele>
        <time>2024-05-20T08:03:42Z</time>
      </trkpt>
      <trkpt lat="43.49176" lon="0.93121">
        <ele>178.8</ele>
        <time>2024-05-20T08:03:43Z</time>
      </trkpt>
      <trkpt lat="43.49177" lon="0.93121">
        <ele>178.8</ele>
        <time>2024-05-20T08:03:44Z</time>
      </trkpt>
      <trkpt lat="43.49178" lon="0.9312">
        <ele>178.6</ele>
        <time>2024-05-20T08:03:45Z</time>
      </trkpt>
      <trkpt lat="43.49179" lon="0.9312">
        <ele>178.6</ele>
        <time>2024-05-20T08:03:46Z</time>
      </trkpt>
      <trkpt lat="43.49179" lon="0.9312">
        <ele>178.6</ele>
        <time>2024-05-20T08:03:47Z</time>
      </trkpt>
      <trkpt lat="43.49179" lon="0.9312">
        <ele>178.6</ele>
        <time>2024-05-20T08:03:48Z</time>
      </trkpt>
      <trkpt lat="43.4918" lon="0.93118">
        <ele>178</ele>
        <time>2024-05-20T08:08:02Z</time>
      </trkpt>
      <trkpt lat="43.49182" lon="0.93116">
        <ele>178</ele>
        <time>2024-05-20T08:08:03Z</time>
      </trkpt>
      <trkpt lat="43.49184" lon="0.93114">
        <ele>177.8</ele>
        <time>2024-05-20T08:08:04Z</time>
      </trkpt>
      <trkpt lat="43.49186" lon="0.93112">
        <ele>177.8</ele>
        <time>2024-05-20T08:08:05Z</time>
      </trkpt>
      <trkpt lat="43.49188" lon="0.9311">
        <ele>177.8</ele>
        <time>2024-05-20T08:08:06Z</time>
      </trkpt>
      <trkpt lat="43.4919" lon="0.93108">
        <ele>177.8</ele>
        <time>2024-05-20T08:08:07Z</time>
      </trkpt>
      <trkpt lat="43.49192" lon="0.93105">
        <ele>177.8</ele>
        <time>2024-05-20T08:08:08Z</time>
      </trkpt>
      <trkpt lat="43.49194" lon="0.93103">
        <ele>177.8</ele>
        <time>2024-05-20T08:08:09Z</time>
      </trkpt>
      <trkpt lat="43.49197" lon="0.93101">
        <ele>177.8</ele>
        <time>2024-05-20T08:08:10Z</time>
      </trkpt>
      <trkpt lat="43.49198" lon="0.93099">
        <ele>177.8</ele>
        <time>2024-05-20T08:08:11Z</time>
      </trkpt>
      <trkpt lat="43.492" lon="0.93098">
        <ele>177.8</ele>
        <time>2024-05-20T08:08:12Z</time>
      </trkpt>
      <trkpt lat="43.49203" lon="0.93096">
        <ele>177.8</ele>
        <time>2024-05-20T08:08:13Z</time>
      </trkpt>
      <trkpt lat="43.49205" lon="0.93093">
        <ele>177.8</ele>
        <time>2024-05-20T08:08:14Z</time>
      </trkpt>
      <trkpt lat="43.49207" lon="0.93091">
        <ele>178</ele>
        <time>2024-05-20T08:08:15Z</time>
      </trkpt>
      <trkpt lat="43.4921" lon="0.93089">
        <ele>178</ele>
        <time>2024-05-20T08:08:16Z</time>
      </trkpt>
      <trkpt lat="43.49211" lon="0.93087">
        <ele>178.2</ele>
        <time>2024-05-20T08:08:17Z</time>
      </trkpt>
      <trkpt lat="43.49213" lon="0.93086">
        <ele>178.2</ele>
        <time>2024-05-20T08:08:18Z</time>
      </trkpt>
      <trkpt lat="43.49215" lon="0.93084">
        <ele>178.2</ele>
        <time>2024-05-20T08:08:19Z</time>
      </trkpt>
      <trkpt lat="43.49216" lon="0.93083">
        <ele>178.2</ele>
        <time>2024-05-20T08:08:20Z</time>
      </trkpt>
      <trkpt lat="43.49217" lon="0.93081">
        <ele>178.4</ele>
        <time>2024-05-20T08:08:21Z</time>
      </trkpt>
      <trkpt lat="43.49218" lon="0.93078">
        <ele>178.4</ele>
        <time>2024-05-20T08:08:22Z</time>
      </trkpt>
      <trkpt lat="43.49219" lon="0.93076">
        <ele>178.6</ele>
        <time>2024-05-20T08:08:23Z</time>
      </trkpt>
      <trkpt lat="43.4922" lon="0.93075">
        <ele>178.6</ele>
        <time>2024-05-20T08:08:24Z</time>
      </trkpt>
      <trkpt lat="43.49221" lon="0.93073">
        <ele>178.8</ele>
        <time>2024-05-20T08:08:25Z</time>
      </trkpt>
      <trkpt lat="43.49222" lon="0.93072">
        <ele>178.8</ele>
        <time>2024-05-20T08:08:26Z</time>
      </trkpt>
      <trkpt lat="43.49224" lon="0.9307">
        <ele>179</ele>
        <time>2024-05-20T08:08:27Z</time>
      </trkpt>
      <trkpt lat="43.49227" lon="0.93069">
        <ele>179</ele>
        <time>2024-05-20T08:08:28Z</time>
      </trkpt>
      <trkpt lat="43.4923" lon="0.93069">
        <ele>179</ele>
        <time>2024-05-20T08:08:29Z</time>
      </trkpt>
      <trkpt lat="43.49232" lon="0.93068">
        <ele>179.2</ele>
        <time>2024-05-20T08:08:30Z</time>
      </trkpt>
      <trkpt lat="43.49235" lon="0.93068">
        <ele>179.2</ele>
        <time>2024-05-20T08:08:31Z</time>
      </trkpt>
      <trkpt lat="43.49238" lon="0.93068">
        <ele>179.4</ele>
        <time>2024-05-20T08:08:32Z</time>
      </trkpt>
      <trkpt lat="43.49242" lon="0.93069">
        <ele>179.4</ele>
        <time>2024-05-20T08:08:33Z</time>
      </trkpt>
      <trkpt lat="43.49245" lon="0.9307">
        <ele>179.4</ele>
        <time>2024-05-20T08:08:34Z</time>
      </trkpt>
      <trkpt lat="43.49249" lon="0.93071">
        <ele>179.6</ele>
        <time>2024-05-20T08:08:35Z</time>
      </trkpt>
      <trkpt lat="43.49253" lon="0.93073">
        <ele>179.6</ele>
        <time>2024-05-20T08:08:36Z</time>
      </trkpt>
      <trkpt lat="43.49257" lon="0.93074">
        <ele>180</ele>
        <time>2024-05-20T08:08:37Z</time>
      </trkpt>
      <trkpt lat="43.49261" lon="0.93076">
        <ele>180</ele>
        <time>2024-05-20T08:08:38Z</time>
      </trkpt>
      <trkpt lat="43.49266" lon="0.93078">
        <ele>180.2</ele>
        <time>2024-05-20T08:08:39Z</time>
      </trkpt>
      <trkpt lat="43.49269" lon="0.93081">
        <ele>180.4</ele>
        <time>2024-05-20T08:08:40Z</time>
      </trkpt>
      <trkpt lat="43.49273" lon="0.93084">
        <ele>180.4</ele>
        <time>2024-05-20T08:08:41Z</time>
      </trkpt>
      <trkpt lat="43.49276" lon="0.93087">
        <ele>180.6</ele>
        <time>2024-05-20T08:08:42Z</time>
      </trkpt>
      <trkpt lat="43.4928" lon="0.93091">
        <ele>180.6</ele>
        <time>2024-05-20T08:08:43Z</time>
      </trkpt>
      <trkpt lat="43.49284" lon="0.93094">
        <ele>180.8</ele>
        <time>2024-05-20T08:08:44Z</time>
      </trkpt>
      <trkpt lat="43.49287" lon="0.93097">
        <ele>180.8</ele>
        <time>2024-05-20T08:08:45Z</time>
      </trkpt>
      <trkpt lat="43.49291" lon="0.931">
        <ele>181</ele>
        <time>2024-05-20T08:08:46Z</time>
      </trkpt>
      <trkpt lat="43.49294" lon="0.93103">
        <ele>181.2</ele>
        <time>2024-05-20T08:08:47Z</time>
      </trkpt>
      <trkpt lat="43.49298" lon="0.93106">
        <ele>181.4</ele>
        <time>2024-05-20T08:08:48Z</time>
      </trkpt>
      <trkpt lat="43.49301" lon="0.93109">
        <ele>181.6</ele>
        <time>2024-05-20T08:08:49Z</time>
      </trkpt>
      <trkpt lat="43.49305" lon="0.93113">
        <ele>181.8</ele>
        <time>2024-05-20T08:08:50Z</time>
      </trkpt>
      <trkpt lat="43.49309" lon="0.93116">
        <ele>182</ele>
        <time>2024-05-20T08:08:51Z</time>
      </trkpt>
      <trkpt lat="43.49313" lon="0.93119">
        <ele>182</ele>
        <time>2024-05-20T08:08:52Z</time>
      </trkpt>
      <trkpt lat="43.49317" lon="0.93123">
        <ele>182.4</ele>
        <time>2024-05-20T08:08:53Z</time>
      </trkpt>
      <trkpt lat="43.49321" lon="0.93125">
        <ele>182.4</ele>
        <time>2024-05-20T08:08:54Z</time>
      </trkpt>
      <trkpt lat="43.49325" lon="0.93128">
        <ele>182.8</ele>
        <time>2024-05-20T08:08:55Z</time>
      </trkpt>
      <trkpt lat="43.49328" lon="0.93132">
        <ele>183</ele>
        <time>2024-05-20T08:08:56Z</time>
      </trkpt>
      <trkpt lat="43.49332" lon="0.93135">
        <ele>183.2</ele>
        <time>2024-05-20T08:08:57Z</time>
      </trkpt>
      <trkpt lat="43.49337" lon="0.93137">
        <ele>183.4</ele>
        <time>2024-05-20T08:08:58Z</time>
      </trkpt>
      <trkpt lat="43.49342" lon="0.93139">
        <ele>183.4</ele>
        <time>2024-05-20T08:08:59Z</time>
      </trkpt>
      <trkpt lat="43.49346" lon="0.93139">
        <ele>183.4</ele>
        <time>2024-05-20T08:09:00Z</time>
      </trkpt>
      <trkpt lat="43.49351" lon="0.93139">
        <ele>183.6</ele>
        <time>2024-05-20T08:09:01Z</time>
      </trkpt>
      <trkpt lat="43.49356" lon="0.93137">
        <ele>184</ele>
        <time>2024-05-20T08:09:02Z</time>
      </trkpt>
      <trkpt lat="43.4936" lon="0.93136">
        <ele>184</ele>
        <time>2024-05-20T08:09:03Z</time>
      </trkpt>
      <trkpt lat="43.49363" lon="0.93135">
        <ele>184.6</ele>
        <time>2024-05-20T08:09:04Z</time>
      </trkpt>
      <trkpt lat="43.49367" lon="0.93136">
        <ele>184.8</ele>
        <time>2024-05-20T08:09:05Z</time>
      </trkpt>
      <trkpt lat="43.4937" lon="0.93137">
        <ele>185</ele>
        <time>2024-05-20T08:09:06Z</time>
      </trkpt>
      <trkpt lat="43.49372" lon="0.93139">
        <ele>185.2</ele>
        <time>2024-05-20T08:09:07Z</time>
      </trkpt>
      <trkpt lat="43.49376" lon="0.93141">
        <ele>185.4</ele>
        <time>2024-05-20T08:09:08Z</time>
      </trkpt>
      <trkpt lat="43.49379" lon="0.93144">
        <ele>185.6</ele>
        <time>2024-05-20T08:09:09Z</time>
      </trkpt>
      <trkpt lat="43.49382" lon="0.93147">
        <ele>185.6</ele>
        <time>2024-05-20T08:09:10Z</time>
      </trkpt>
      <trkpt lat="43.49386" lon="0.9315">
        <ele>185.6</ele>
        <time>2024-05-20T08:09:11Z</time>
      </trkpt>
      <trkpt lat="43.4939" lon="0.93154">
        <ele>185.6</ele>
        <time>2024-05-20T08:09:12Z</time>
      </trkpt>
      <trkpt lat="43.49394" lon="0.93157">
        <ele>185.6</ele>
        <time>2024-05-20T08:09:13Z</time>
      </trkpt>
      <trkpt lat="43.49399" lon="0.93161">
        <ele>185.8</ele>
        <time>2024-05-20T08:09:14Z</time>
      </trkpt>
      <trkpt lat="43.49403" lon="0.93165">
        <ele>185.6</ele>
        <time>2024-05-20T08:09:15Z</time>
      </trkpt>
      <trkpt lat="43.49408" lon="0.9317">
        <ele>185.6</ele>
        <time>2024-05-20T08:09:16Z</time>
      </trkpt>
      <trkpt lat="43.49413" lon="0.93174">
        <ele>185.6</ele>
        <time>2024-05-20T08:09:17Z</time>
      </trkpt>
      <trkpt lat="43.49419" lon="0.9318">
        <ele>185.4</ele>
        <time>2024-05-20T08:09:18Z</time>
      </trkpt>
      <trkpt lat="43.49424" lon="0.93184">
        <ele>185.2</ele>
        <time>2024-05-20T08:09:19Z</time>
      </trkpt>
      <trkpt lat="43.49429" lon="0.93189">
        <ele>185.2</ele>
        <time>2024-05-20T08:09:20Z</time>
      </trkpt>
      <trkpt lat="43.49434" lon="0.93194">
        <ele>185</ele>
        <time>2024-05-20T08:09:21Z</time>
      </trkpt>
      <trkpt lat="43.4944" lon="0.93199">
        <ele>184.8</ele>
        <time>2024-05-20T08:09:22Z</time>
      </trkpt>
      <trkpt lat="43.49446" lon="0.93204">
        <ele>184.6</ele>
        <time>2024-05-20T08:09:23Z</time>
      </trkpt>
      <trkpt lat="43.49451" lon="0.9321">
        <ele>184.4</ele>
        <time>2024-05-20T08:09:24Z</time>
      </trkpt>
      <trkpt lat="43.49457" lon="0.93215">
        <ele>184.2</ele>
        <time>2024-05-20T08:09:25Z</time>
      </trkpt>
      <trkpt lat="43.49463" lon="0.9322">
        <ele>184</ele>
        <time>2024-05-20T08:09:26Z</time>
      </trkpt>
      <trkpt lat="43.49469" lon="0.93226">
        <ele>183.6</ele>
        <time>2024-05-20T08:09:27Z</time>
      </trkpt>
      <trkpt lat="43.49475" lon="0.93231">
        <ele>183.4</ele>
        <time>2024-05-20T08:09:28Z</time>
      </trkpt>
      <trkpt lat="43.49481" lon="0.93236">
        <ele>183</ele>
        <time>2024-05-20T08:09:29Z</time>
      </trkpt>
      <trkpt lat="43.49487" lon="0.93242">
        <ele>182.8</ele>
        <time>2024-05-20T08:09:30Z</time>
      </trkpt>
      <trkpt lat="43.49493" lon="0.93248">
        <ele>182.6</ele>
        <time>2024-05-20T08:09:31Z</time>
      </trkpt>
      <trkpt lat="43.49499" lon="0.93254">
        <ele>182.4</ele>
        <time>2024-05-20T08:09:32Z</time>
      </trkpt>
      <trkpt lat="43.49506" lon="0.9326">
        <ele>182.2</ele>
        <time>2024-05-20T08:09:33Z</time>
      </trkpt>
      <trkpt lat="43.49512" lon="0.93265">
        <ele>181.8</ele>
        <time>2024-05-20T08:09:34Z</time>
      </trkpt>
      <trkpt lat="43.49518" lon="0.93271">
        <ele>181.8</ele>
        <time>2024-05-20T08:09:35Z</time>
      </trkpt>
      <trkpt lat="43.49524" lon="0.93277">
        <ele>181.6</ele>
        <time>2024-05-20T08:09:36Z</time>
      </trkpt>
      <trkpt lat="43.4953" lon="0.93282">
        <ele>181.4</ele>
        <time>2024-05-20T08:09:37Z</time>
      </trkpt>
      <trkpt lat="43.49537" lon="0.93288">
        <ele>181.4</ele>
        <time>2024-05-20T08:09:38Z</time>
      </trkpt>
      <trkpt lat="43.49543" lon="0.93293">
        <ele>181.2</ele>
        <time>2024-05-20T08:09:39Z</time>
      </trkpt>
      <trkpt lat="43.49549" lon="0.93299">
        <ele>181.2</ele>
        <time>2024-05-20T08:09:40Z</time>
      </trkpt>
      <trkpt lat="43.49555" lon="0.93305">
        <ele>181</ele>
        <time>2024-05-20T08:09:41Z</time>
      </trkpt>
      <trkpt lat="43.49561" lon="0.93311">
        <ele>181</ele>
        <time>2024-05-20T08:09:42Z</time>
      </trkpt>
      <trkpt lat="43.49568" lon="0.93317">
        <ele>180.8</ele>
        <time>2024-05-20T08:09:43Z</time>
      </trkpt>
      <trkpt lat="43.49574" lon="0.93323">
        <ele>180.4</ele>
        <time>2024-05-20T08:09:44Z</time>
      </trkpt>
      <trkpt lat="43.4958" lon="0.93328">
        <ele>180.2</ele>
        <time>2024-05-20T08:09:45Z</time>
      </trkpt>
      <trkpt lat="43.49586" lon="0.93334">
        <ele>180</ele>
        <time>2024-05-20T08:09:46Z</time>
      </trkpt>
      <trkpt lat="43.49593" lon="0.9334">
        <ele>180</ele>
        <time>2024-05-20T08:09:47Z</time>
      </trkpt>
      <trkpt lat="43.49599" lon="0.93346">
        <ele>180</ele>
        <time>2024-05-20T08:09:48Z</time>
      </trkpt>
      <trkpt lat="43.49606" lon="0.93352">
        <ele>179.8</ele>
        <time>2024-05-20T08:09:49Z</time>
      </trkpt>
      <trkpt lat="43.49612" lon="0.93358">
        <ele>179.8</ele>
        <time>2024-05-20T08:09:50Z</time>
      </trkpt>
      <trkpt lat="43.49619" lon="0.93364">
        <ele>179.8</ele>
        <time>2024-05-20T08:09:51Z</time>
      </trkpt>
      <trkpt lat="43.49625" lon="0.93371">
        <ele>179.6</ele>
        <time>2024-05-20T08:09:52Z</time>
      </trkpt>
      <trkpt lat="43.49631" lon="0.93377">
        <ele>179.6</ele>
        <time>2024-05-20T08:09:53Z</time>
      </trkpt>
      <trkpt lat="43.49638" lon="0.93383">
        <ele>179.4</ele>
        <time>2024-05-20T08:09:54Z</time>
      </trkpt>
      <trkpt lat="43.49645" lon="0.93389">
        <ele>179.4</ele>
        <time>2024-05-20T08:09:55Z</time>
      </trkpt>
      <trkpt lat="43.49651" lon="0.93396">
        <ele>179.4</ele>
        <time>2024-05-20T08:09:56Z</time>
      </trkpt>
      <trkpt lat="43.49658" lon="0.93402">
        <ele>179.2</ele>
        <time>2024-05-20T08:09:57Z</time>
      </trkpt>
      <trkpt lat="43.49665" lon="0.93408">
        <ele>179.2</ele>
        <time>2024-05-20T08:09:58Z</time>
      </trkpt>
      <trkpt lat="43.49671" lon="0.93414">
        <ele>179.2</ele>
        <time>2024-05-20T08:09:59Z</time>
      </trkpt>
      <trkpt lat="43.49678" lon="0.9342">
        <ele>179</ele>
        <time>2024-05-20T08:10:00Z</time>
      </trkpt>
      <trkpt lat="43.49684" lon="0.93426">
        <ele>179</ele>
        <time>2024-05-20T08:10:01Z</time>
      </trkpt>
      <trkpt lat="43.4969" lon="0.93432">
        <ele>178.8</ele>
        <time>2024-05-20T08:10:02Z</time>
      </trkpt>
      <trkpt lat="43.49696" lon="0.93438">
        <ele>178.8</ele>
        <time>2024-05-20T08:10:03Z</time>
      </trkpt>
      <trkpt lat="43.49702" lon="0.93443">
        <ele>178.6</ele>
        <time>2024-05-20T08:10:04Z</time>
      </trkpt>
      <trkpt lat="43.49708" lon="0.93449">
        <ele>178.6</ele>
        <time>2024-05-20T08:10:05Z</time>
      </trkpt>
      <trkpt lat="43.49715" lon="0.93455">
        <ele>178.6</ele>
        <time>2024-05-20T08:10:06Z</time>
      </trkpt>
      <trkpt lat="43.49722" lon="0.93461">
        <ele>178.6</ele>
        <time>2024-05-20T08:10:07Z</time>
      </trkpt>
      <trkpt lat="43.49729" lon="0.93467">
        <ele>178.4</ele>
        <time>2024-05-20T08:10:08Z</time>
      </trkpt>
      <trkpt lat="43.49734" lon="0.93472">
        <ele>178.4</ele>
        <time>2024-05-20T08:10:09Z</time>
      </trkpt>
      <trkpt lat="43.49741" lon="0.93478">
        <ele>178.2</ele>
        <time>2024-05-20T08:10:10Z</time>
      </trkpt>
      <trkpt lat="43.49747" lon="0.93484">
        <ele>178.2</ele>
        <time>2024-05-20T08:10:11Z</time>
      </trkpt>
      <trkpt lat="43.49755" lon="0.93492">
        <ele>178.2</ele>
        <time>2024-05-20T08:10:12Z</time>
      </trkpt>
      <trkpt lat="43.4976" lon="0.93496">
        <ele>178.2</ele>
        <time>2024-05-20T08:10:13Z</time>
      </trkpt>
      <trkpt lat="43.49767" lon="0.93502">
        <ele>178.2</ele>
        <time>2024-05-20T08:10:14Z</time>
      </trkpt>
      <trkpt lat="43.49773" lon="0.93507">
        <ele>178.4</ele>
        <time>2024-05-20T08:10:15Z</time>
      </trkpt>
      <trkpt lat="43.49779" lon="0.93512">
        <ele>178.4</ele>
        <time>2024-05-20T08:10:16Z</time>
      </trkpt>
      <trkpt lat="43.49786" lon="0.93517">
        <ele>178.4</ele>
        <time>2024-05-20T08:10:17Z</time>
      </trkpt>
      <trkpt lat="43.49792" lon="0.93523">
        <ele>178.4</ele>
        <time>2024-05-20T08:10:18Z</time>
      </trkpt>
      <trkpt lat="43.49798" lon="0.93529">
        <ele>178.2</ele>
        <time>2024-05-20T08:10:19Z</time>
      </trkpt>
      <trkpt lat="43.49804" lon="0.93535">
        <ele>178.2</ele>
        <time>2024-05-20T08:10:20Z</time>
      </trkpt>
      <trkpt lat="43.4981" lon="0.9354">
        <ele>178.2</ele>
        <time>2024-05-20T08:10:21Z</time>
      </trkpt>
      <trkpt lat="43.49816" lon="0.93546">
        <ele>178.2</ele>
        <time>2024-05-20T08:10:22Z</time>
      </trkpt>
      <trkpt lat="43.49822" lon="0.93552">
        <ele>178.2</ele>
        <time>2024-05-20T08:10:23Z</time>
      </trkpt>
      <trkpt lat="43.49828" lon="0.93557">
        <ele>178.2</ele>
        <time>2024-05-20T08:10:24Z</time>
      </trkpt>
      <trkpt lat="43.49834" lon="0.93564">
        <ele>178.2</ele>
        <time>2024-05-20T08:10:25Z</time>
      </trkpt>
      <trkpt lat="43.49841" lon="0.9357">
        <ele>178.2</ele>
        <time>2024-05-20T08:10:26Z</time>
      </trkpt>
      <trkpt lat="43.49847" lon="0.93577">
        <ele>178.2</ele>
        <time>2024-05-20T08:10:27Z</time>
      </trkpt>
      <trkpt lat="43.49853" lon="0.93583">
        <ele>178.2</ele>
        <time>2024-05-20T08:10:28Z</time>
      </trkpt>
      <trkpt lat="43.4986" lon="0.93589">
        <ele>178.2</ele>
        <time>2024-05-20T08:10:29Z</time>
      </trkpt>
      <trkpt lat="43.49866" lon="0.93596">
        <ele>178.2</ele>
        <time>2024-05-20T08:10:30Z</time>
      </trkpt>
      <trkpt lat="43.49873" lon="0.93602">
        <ele>178.2</ele>
        <time>2024-05-20T08:10:31Z</time>
      </trkpt>
      <trkpt lat="43.49878" lon="0.93609">
        <ele>178.2</ele>
        <time>2024-05-20T08:10:32Z</time>
      </trkpt>
      <trkpt lat="43.49884" lon="0.93616">
        <ele>178.2</ele>
        <time>2024-05-20T08:10:33Z</time>
      </trkpt>
      <trkpt lat="43.49889" lon="0.93623">
        <ele>178.4</ele>
        <time>2024-05-20T08:10:34Z</time>
      </trkpt>
      <trkpt lat="43.49894" lon="0.9363">
        <ele>178.4</ele>
        <time>2024-05-20T08:10:35Z</time>
      </trkpt>
      <trkpt lat="43.49899" lon="0.93637">
        <ele>178.4</ele>
        <time>2024-05-20T08:10:36Z</time>
      </trkpt>
      <trkpt lat="43.49904" lon="0.93645">
        <ele>178.4</ele>
        <time>2024-05-20T08:10:37Z</time>
      </trkpt>
      <trkpt lat="43.49904" lon="0.93645">
        <ele>178.6</ele>
        <time>2024-05-20T08:10:38Z</time>
      </trkpt>
      <trkpt lat="43.49913" lon="0.93663">
        <ele>178.6</ele>
        <time>2024-05-20T08:10:39Z</time>
      </trkpt>
      <trkpt lat="43.49917" lon="0.93672">
        <ele>178.6</ele>
        <time>2024-05-20T08:10:40Z</time>
      </trkpt>
      <trkpt lat="43.49922" lon="0.9368">
        <ele>178.6</ele>
        <time>2024-05-20T08:10:41Z</time>
      </trkpt>
      <trkpt lat="43.49926" lon="0.93689">
        <ele>178.6</ele>
        <time>2024-05-20T08:10:42Z</time>
      </trkpt>
      <trkpt lat="43.4993" lon="0.93698">
        <ele>178.6</ele>
        <time>2024-05-20T08:10:43Z</time>
      </trkpt>
      <trkpt lat="43.49935" lon="0.93706">
        <ele>178.6</ele>
        <time>2024-05-20T08:10:44Z</time>
      </trkpt>
      <trkpt lat="43.49939" lon="0.93714">
        <ele>178.6</ele>
        <time>2024-05-20T08:10:45Z</time>
      </trkpt>
      <trkpt lat="43.49943" lon="0.93723">
        <ele>178.6</ele>
        <time>2024-05-20T08:10:46Z</time>
      </trkpt>
      <trkpt lat="43.49948" lon="0.93731">
        <ele>178.6</ele>
        <time>2024-05-20T08:10:47Z</time>
      </trkpt>
      <trkpt lat="43.49952" lon="0.93739">
        <ele>178.6</ele>
        <time>2024-05-20T08:10:48Z</time>
      </trkpt>
      <trkpt lat="43.49956" lon="0.93747">
        <ele>178.6</ele>
        <time>2024-05-20T08:10:49Z</time>
      </trkpt>
      <trkpt lat="43.49961" lon="0.93756">
        <ele>178.6</ele>
        <time>2024-05-20T08:10:50Z</time>
      </trkpt>
      <trkpt lat="43.49965" lon="0.93764">
        <ele>178.6</ele>
        <time>2024-05-20T08:10:51Z</time>
      </trkpt>
      <trkpt lat="43.4997" lon="0.93774">
        <ele>178.6</ele>
        <time>2024-05-20T08:10:52Z</time>
      </trkpt>
      <trkpt lat="43.49974" lon="0.93781">
        <ele>178.6</ele>
        <time>2024-05-20T08:10:53Z</time>
      </trkpt>
      <trkpt lat="43.49978" lon="0.9379">
        <ele>178.6</ele>
        <time>2024-05-20T08:10:54Z</time>
      </trkpt>
      <trkpt lat="43.49982" lon="0.93798">
        <ele>178.6</ele>
        <time>2024-05-20T08:10:55Z</time>
      </trkpt>
      <trkpt lat="43.49987" lon="0.93806">
        <ele>178.6</ele>
        <time>2024-05-20T08:10:56Z</time>
      </trkpt>
      <trkpt lat="43.49992" lon="0.93816">
        <ele>178.6</ele>
        <time>2024-05-20T08:10:57Z</time>
      </trkpt>
      <trkpt lat="43.49995" lon="0.93822">
        <ele>178.6</ele>
        <time>2024-05-20T08:10:58Z</time>
      </trkpt>
      <trkpt lat="43.49999" lon="0.93831">
        <ele>178.4</ele>
        <time>2024-05-20T08:10:59Z</time>
      </trkpt>
      <trkpt lat="43.50005" lon="0.93841">
        <ele>178.6</ele>
        <time>2024-05-20T08:11:00Z</time>
      </trkpt>
      <trkpt lat="43.50008" lon="0.93847">
        <ele>178.6</ele>
        <time>2024-05-20T08:11:01Z</time>
      </trkpt>
      <trkpt lat="43.50013" lon="0.93855">
        <ele>178.6</ele>
        <time>2024-05-20T08:11:02Z</time>
      </trkpt>
      <trkpt lat="43.50017" lon="0.93863">
        <ele>178.4</ele>
        <time>2024-05-20T08:11:03Z</time>
      </trkpt>
      <trkpt lat="43.50022" lon="0.93871">
        <ele>178.4</ele>
        <time>2024-05-20T08:11:04Z</time>
      </trkpt>
      <trkpt lat="43.50027" lon="0.93878">
        <ele>178.4</ele>
        <time>2024-05-20T08:11:05Z</time>
      </trkpt>
      <trkpt lat="43.50031" lon="0.93884">
        <ele>178.4</ele>
        <time>2024-05-20T08:11:06Z</time>
      </trkpt>
      <trkpt lat="43.50036" lon="0.93891">
        <ele>178.4</ele>
        <time>2024-05-20T08:11:07Z</time>
      </trkpt>
      <trkpt lat="43.50042" lon="0.93898">
        <ele>178.4</ele>
        <time>2024-05-20T08:11:08Z</time>
      </trkpt>
      <trkpt lat="43.50048" lon="0.93905">
        <ele>178.4</ele>
        <time>2024-05-20T08:11:09Z</time>
      </trkpt>
      <trkpt lat="43.50053" lon="0.93913">
        <ele>178.4</ele>
        <time>2024-05-20T08:11:10Z</time>
      </trkpt>
      <trkpt lat="43.50059" lon="0.93921">
        <ele>178.4</ele>
        <time>2024-05-20T08:11:11Z</time>
      </trkpt>
      <trkpt lat="43.50064" lon="0.93929">
        <ele>178.4</ele>
        <time>2024-05-20T08:11:12Z</time>
      </trkpt>
      <trkpt lat="43.5007" lon="0.93936">
        <ele>178.4</ele>
        <time>2024-05-20T08:11:13Z</time>
      </trkpt>
      <trkpt lat="43.50076" lon="0.93944">
        <ele>178.4</ele>
        <time>2024-05-20T08:11:14Z</time>
      </trkpt>
      <trkpt lat="43.50082" lon="0.93952">
        <ele>178.4</ele>
        <time>2024-05-20T08:11:15Z</time>
      </trkpt>
      <trkpt lat="43.50087" lon="0.9396">
        <ele>178.4</ele>
        <time>2024-05-20T08:11:16Z</time>
      </trkpt>
      <trkpt lat="43.50094" lon="0.9397">
        <ele>178.4</ele>
        <time>2024-05-20T08:11:17Z</time>
      </trkpt>
      <trkpt lat="43.50099" lon="0.93979">
        <ele>178.4</ele>
        <time>2024-05-20T08:11:18Z</time>
      </trkpt>
      <trkpt lat="43.50103" lon="0.93986">
        <ele>178.4</ele>
        <time>2024-05-20T08:11:19Z</time>
      </trkpt>
      <trkpt lat="43.50108" lon="0.93996">
        <ele>178.4</ele>
        <time>2024-05-20T08:11:20Z</time>
      </trkpt>
      <trkpt lat="43.50113" lon="0.94005">
        <ele>178.4</ele>
        <time>2024-05-20T08:11:21Z</time>
      </trkpt>
      <trkpt lat="43.50117" lon="0.94011">
        <ele>178.4</ele>
        <time>2024-05-20T08:11:22Z</time>
      </trkpt>
      <trkpt lat="43.50117" lon="0.94011">
        <ele>178.4</ele>
        <time>2024-05-20T08:11:23Z</time>
      </trkpt>
      <trkpt lat="43.50125" lon="0.94028">
        <ele>178.4</ele>
        <time>2024-05-20T08:11:24Z</time>
      </trkpt>
      <trkpt lat="43.50129" lon="0.94036">
        <ele>178.6</ele>
        <time>2024-05-20T08:11:25Z</time>
      </trkpt>
      <trkpt lat="43.50133" lon="0.94044">
        <ele>178.8</ele>
        <time>2024-05-20T08:11:26Z</time>
      </trkpt>
      <trkpt lat="43.50137" lon="0.94051">
        <ele>178.8</ele>
        <time>2024-05-20T08:11:27Z</time>
      </trkpt>
      <trkpt lat="43.50141" lon="0.94058">
        <ele>179</ele>
        <time>2024-05-20T08:11:28Z</time>
      </trkpt>
      <trkpt lat="43.50145" lon="0.94066">
        <ele>179.4</ele>
        <time>2024-05-20T08:11:29Z</time>
      </trkpt>
      <trkpt lat="43.50148" lon="0.94074">
        <ele>179.4</ele>
        <time>2024-05-20T08:11:30Z</time>
      </trkpt>
      <trkpt lat="43.50152" lon="0.94082">
        <ele>179.8</ele>
        <time>2024-05-20T08:11:31Z</time>
      </trkpt>
      <trkpt lat="43.50156" lon="0.9409">
        <ele>179.8</ele>
        <time>2024-05-20T08:11:32Z</time>
      </trkpt>
      <trkpt lat="43.50159" lon="0.94098">
        <ele>180</ele>
        <time>2024-05-20T08:11:33Z</time>
      </trkpt>
      <trkpt lat="43.50163" lon="0.94106">
        <ele>180.2</ele>
        <time>2024-05-20T08:11:34Z</time>
      </trkpt>
      <trkpt lat="43.50167" lon="0.94114">
        <ele>180.6</ele>
        <time>2024-05-20T08:11:35Z</time>
      </trkpt>
      <trkpt lat="43.50171" lon="0.94122">
        <ele>180.8</ele>
        <time>2024-05-20T08:11:36Z</time>
      </trkpt>
      <trkpt lat="43.50174" lon="0.9413">
        <ele>181.2</ele>
        <time>2024-05-20T08:11:37Z</time>
      </trkpt>
      <trkpt lat="43.50178" lon="0.94138">
        <ele>181.6</ele>
        <time>2024-05-20T08:11:38Z</time>
      </trkpt>
      <trkpt lat="43.50181" lon="0.94146">
        <ele>181.8</ele>
        <time>2024-05-20T08:11:39Z</time>
      </trkpt>
      <trkpt lat="43.50185" lon="0.94153">
        <ele>181.8</ele>
        <time>2024-05-20T08:11:40Z</time>
      </trkpt>
      <trkpt lat="43.50188" lon="0.94162">
        <ele>181.8</ele>
        <time>2024-05-20T08:11:41Z</time>
      </trkpt>
      <trkpt lat="43.50192" lon="0.94171">
        <ele>182</ele>
        <time>2024-05-20T08:11:42Z</time>
      </trkpt>
      <trkpt lat="43.50195" lon="0.94177">
        <ele>182.2</ele>
        <time>2024-05-20T08:11:43Z</time>
      </trkpt>
      <trkpt lat="43.50199" lon="0.94186">
        <ele>182.4</ele>
        <time>2024-05-20T08:11:44Z</time>
      </trkpt>
      <trkpt lat="43.50202" lon="0.94193">
        <ele>182.4</ele>
        <time>2024-05-20T08:11:45Z</time>
      </trkpt>
      <trkpt lat="43.50205" lon="0.94201">
        <ele>182.6</ele>
        <time>2024-05-20T08:11:46Z</time>
      </trkpt>
      <trkpt lat="43.50209" lon="0.94209">
        <ele>182.8</ele>
        <time>2024-05-20T08:11:47Z</time>
      </trkpt>
      <trkpt lat="43.50212" lon="0.94217">
        <ele>182.8</ele>
        <time>2024-05-20T08:11:48Z</time>
      </trkpt>
      <trkpt lat="43.50216" lon="0.94225">
        <ele>183</ele>
        <time>2024-05-20T08:11:49Z</time>
      </trkpt>
      <trkpt lat="43.5022" lon="0.94233">
        <ele>183</ele>
        <time>2024-05-20T08:11:50Z</time>
      </trkpt>
      <trkpt lat="43.50224" lon="0.94241">
        <ele>183</ele>
        <time>2024-05-20T08:11:51Z</time>
      </trkpt>
      <trkpt lat="43.50229" lon="0.94249">
        <ele>183</ele>
        <time>2024-05-20T08:11:52Z</time>
      </trkpt>
      <trkpt lat="43.50233" lon="0.94257">
        <ele>183</ele>
        <time>2024-05-20T08:11:53Z</time>
      </trkpt>
      <trkpt lat="43.50238" lon="0.94265">
        <ele>183</ele>
        <time>2024-05-20T08:11:54Z</time>
      </trkpt>
      <trkpt lat="43.50243" lon="0.94274">
        <ele>183</ele>
        <time>2024-05-20T08:11:55Z</time>
      </trkpt>
      <trkpt lat="43.50248" lon="0.94282">
        <ele>182.8</ele>
        <time>2024-05-20T08:11:56Z</time>
      </trkpt>
      <trkpt lat="43.50252" lon="0.9429">
        <ele>182.8</ele>
        <time>2024-05-20T08:11:57Z</time>
      </trkpt>
      <trkpt lat="43.50257" lon="0.94299">
        <ele>182.6</ele>
        <time>2024-05-20T08:11:58Z</time>
      </trkpt>
      <trkpt lat="43.50262" lon="0.94308">
        <ele>182.4</ele>
        <time>2024-05-20T08:11:59Z</time>
      </trkpt>
      <trkpt lat="43.50267" lon="0.94318">
        <ele>182</ele>
        <time>2024-05-20T08:12:00Z</time>
      </trkpt>
      <trkpt lat="43.50273" lon="0.94328">
        <ele>182</ele>
        <time>2024-05-20T08:12:01Z</time>
      </trkpt>
      <trkpt lat="43.50278" lon="0.94338">
        <ele>181.6</ele>
        <time>2024-05-20T08:12:02Z</time>
      </trkpt>
      <trkpt lat="43.50283" lon="0.94347">
        <ele>181.4</ele>
        <time>2024-05-20T08:12:03Z</time>
      </trkpt>
      <trkpt lat="43.50289" lon="0.94357">
        <ele>181.4</ele>
        <time>2024-05-20T08:12:04Z</time>
      </trkpt>
      <trkpt lat="43.50294" lon="0.94366">
        <ele>181</ele>
        <time>2024-05-20T08:12:05Z</time>
      </trkpt>
      <trkpt lat="43.503" lon="0.94374">
        <ele>180.8</ele>
        <time>2024-05-20T08:12:06Z</time>
      </trkpt>
      <trkpt lat="43.50306" lon="0.94383">
        <ele>180.8</ele>
        <time>2024-05-20T08:12:07Z</time>
      </trkpt>
      <trkpt lat="43.50313" lon="0.94391">
        <ele>180.6</ele>
        <time>2024-05-20T08:12:08Z</time>
      </trkpt>
      <trkpt lat="43.50319" lon="0.94399">
        <ele>180.6</ele>
        <time>2024-05-20T08:12:09Z</time>
      </trkpt>
      <trkpt lat="43.50326" lon="0.94406">
        <ele>180.4</ele>
        <time>2024-05-20T08:12:10Z</time>
      </trkpt>
      <trkpt lat="43.50333" lon="0.94414">
        <ele>180.4</ele>
        <time>2024-05-20T08:12:11Z</time>
      </trkpt>
      <trkpt lat="43.50339" lon="0.94422">
        <ele>180.4</ele>
        <time>2024-05-20T08:12:12Z</time>
      </trkpt>
      <trkpt lat="43.50346" lon="0.94429">
        <ele>180.4</ele>
        <time>2024-05-20T08:12:13Z</time>
      </trkpt>
      <trkpt lat="43.50353" lon="0.94435">
        <ele>180.2</ele>
        <time>2024-05-20T08:12:14Z</time>
      </trkpt>
      <trkpt lat="43.50359" lon="0.94442">
        <ele>180.2</ele>
        <time>2024-05-20T08:12:15Z</time>
      </trkpt>
      <trkpt lat="43.50365" lon="0.94449">
        <ele>180.4</ele>
        <time>2024-05-20T08:12:16Z</time>
      </trkpt>
      <trkpt lat="43.50372" lon="0.94456">
        <ele>180.4</ele>
        <time>2024-05-20T08:12:17Z</time>
      </trkpt>
      <trkpt lat="43.50378" lon="0.94463">
        <ele>180.4</ele>
        <time>2024-05-20T08:12:18Z</time>
      </trkpt>
      <trkpt lat="43.50384" lon="0.94469">
        <ele>180.6</ele>
        <time>2024-05-20T08:12:19Z</time>
      </trkpt>
      <trkpt lat="43.5039" lon="0.94476">
        <ele>180.6</ele>
        <time>2024-05-20T08:12:20Z</time>
      </trkpt>
      <trkpt lat="43.50397" lon="0.94482">
        <ele>180.8</ele>
        <time>2024-05-20T08:12:21Z</time>
      </trkpt>
      <trkpt lat="43.50403" lon="0.94489">
        <ele>180.8</ele>
        <time>2024-05-20T08:12:22Z</time>
      </trkpt>
      <trkpt lat="43.50409" lon="0.94496">
        <ele>181</ele>
        <time>2024-05-20T08:12:23Z</time>
      </trkpt>
      <trkpt lat="43.50415" lon="0.94502">
        <ele>181</ele>
        <time>2024-05-20T08:12:24Z</time>
      </trkpt>
      <trkpt lat="43.50422" lon="0.94508">
        <ele>181.4</ele>
        <time>2024-05-20T08:12:25Z</time>
      </trkpt>
      <trkpt lat="43.50428" lon="0.94515">
        <ele>181.4</ele>
        <time>2024-05-20T08:12:26Z</time>
      </trkpt>
      <trkpt lat="43.50434" lon="0.94521">
        <ele>181.6</ele>
        <time>2024-05-20T08:12:27Z</time>
      </trkpt>
      <trkpt lat="43.5044" lon="0.94528">
        <ele>181.8</ele>
        <time>2024-05-20T08:12:28Z</time>
      </trkpt>
      <trkpt lat="43.50446" lon="0.94534">
        <ele>182</ele>
        <time>2024-05-20T08:12:29Z</time>
      </trkpt>
      <trkpt lat="43.50452" lon="0.94541">
        <ele>182.2</ele>
        <time>2024-05-20T08:12:30Z</time>
      </trkpt>
      <trkpt lat="43.50458" lon="0.94547">
        <ele>182.4</ele>
        <time>2024-05-20T08:12:31Z</time>
      </trkpt>
      <trkpt lat="43.50464" lon="0.94554">
        <ele>182.6</ele>
        <time>2024-05-20T08:12:32Z</time>
      </trkpt>
      <trkpt lat="43.50471" lon="0.9456">
        <ele>182.6</ele>
        <time>2024-05-20T08:12:33Z</time>
      </trkpt>
      <trkpt lat="43.50477" lon="0.94567">
        <ele>182.8</ele>
        <time>2024-05-20T08:12:34Z</time>
      </trkpt>
      <trkpt lat="43.50483" lon="0.94574">
        <ele>183</ele>
        <time>2024-05-20T08:12:35Z</time>
      </trkpt>
      <trkpt lat="43.50489" lon="0.94581">
        <ele>183</ele>
        <time>2024-05-20T08:12:36Z</time>
      </trkpt>
      <trkpt lat="43.50495" lon="0.94587">
        <ele>183</ele>
        <time>2024-05-20T08:12:37Z</time>
      </trkpt>
      <trkpt lat="43.50501" lon="0.94594">
        <ele>183.2</ele>
        <time>2024-05-20T08:12:38Z</time>
      </trkpt>
      <trkpt lat="43.50508" lon="0.94601">
        <ele>183.2</ele>
        <time>2024-05-20T08:12:39Z</time>
      </trkpt>
      <trkpt lat="43.50514" lon="0.94608">
        <ele>183.2</ele>
        <time>2024-05-20T08:12:40Z</time>
      </trkpt>
      <trkpt lat="43.5052" lon="0.94615">
        <ele>183.2</ele>
        <time>2024-05-20T08:12:41Z</time>
      </trkpt>
      <trkpt lat="43.50526" lon="0.94621">
        <ele>183.2</ele>
        <time>2024-05-20T08:12:42Z</time>
      </trkpt>
      <trkpt lat="43.50532" lon="0.94628">
        <ele>183.4</ele>
        <time>2024-05-20T08:12:43Z</time>
      </trkpt>
      <trkpt lat="43.50539" lon="0.94635">
        <ele>183.4</ele>
        <time>2024-05-20T08:12:44Z</time>
      </trkpt>
      <trkpt lat="43.50545" lon="0.94642">
        <ele>183.4</ele>
        <time>2024-05-20T08:12:45Z</time>
      </trkpt>
      <trkpt lat="43.50551" lon="0.94649">
        <ele>183.4</ele>
        <time>2024-05-20T08:12:46Z</time>
      </trkpt>
      <trkpt lat="43.50557" lon="0.94655">
        <ele>183.4</ele>
        <time>2024-05-20T08:12:47Z</time>
      </trkpt>
      <trkpt lat="43.50564" lon="0.94662">
        <ele>183.4</ele>
        <time>2024-05-20T08:12:48Z</time>
      </trkpt>
      <trkpt lat="43.5057" lon="0.94669">
        <ele>183.4</ele>
        <time>2024-05-20T08:12:49Z</time>
      </trkpt>
      <trkpt lat="43.50576" lon="0.94676">
        <ele>183.4</ele>
        <time>2024-05-20T08:12:50Z</time>
      </trkpt>
      <trkpt lat="43.50582" lon="0.94683">
        <ele>183.4</ele>
        <time>2024-05-20T08:12:51Z</time>
      </trkpt>
      <trkpt lat="43.50589" lon="0.9469">
        <ele>183.4</ele>
        <time>2024-05-20T08:12:52Z</time>
      </trkpt>
      <trkpt lat="43.50595" lon="0.94696">
        <ele>183.2</ele>
        <time>2024-05-20T08:12:53Z</time>
      </trkpt>
      <trkpt lat="43.50602" lon="0.94703">
        <ele>183.2</ele>
        <time>2024-05-20T08:12:54Z</time>
      </trkpt>
      <trkpt lat="43.50609" lon="0.9471">
        <ele>183.2</ele>
        <time>2024-05-20T08:12:55Z</time>
      </trkpt>
      <trkpt lat="43.50616" lon="0.94717">
        <ele>183</ele>
        <time>2024-05-20T08:12:56Z</time>
      </trkpt>
      <trkpt lat="43.50623" lon="0.94724">
        <ele>183</ele>
        <time>2024-05-20T08:12:57Z</time>
      </trkpt>
      <trkpt lat="43.50623" lon="0.94724">
        <ele>183</ele>
        <time>2024-05-20T08:12:58Z</time>
      </trkpt>
      <trkpt lat="43.50638" lon="0.94737">
        <ele>182.8</ele>
        <time>2024-05-20T08:12:59Z</time>
      </trkpt>
      <trkpt lat="43.50646" lon="0.94743">
        <ele>182.4</ele>
        <time>2024-05-20T08:13:00Z</time>
      </trkpt>
      <trkpt lat="43.50654" lon="0.94749">
        <ele>182.2</ele>
        <time>2024-05-20T08:13:01Z</time>
      </trkpt>
      <trkpt lat="43.50662" lon="0.94754">
        <ele>182</ele>
        <time>2024-05-20T08:13:02Z</time>
      </trkpt>
      <trkpt lat="43.5067" lon="0.9476">
        <ele>181.8</ele>
        <time>2024-05-20T08:13:03Z</time>
      </trkpt>
      <trkpt lat="43.50678" lon="0.94766">
        <ele>181.4</ele>
        <time>2024-05-20T08:13:04Z</time>
      </trkpt>
      <trkpt lat="43.50687" lon="0.94772">
        <ele>181.4</ele>
        <time>2024-05-20T08:13:05Z</time>
      </trkpt>
      <trkpt lat="43.50695" lon="0.94777">
        <ele>181.2</ele>
        <time>2024-05-20T08:13:06Z</time>
      </trkpt>
      <trkpt lat="43.50703" lon="0.94783">
        <ele>181</ele>
        <time>2024-05-20T08:13:07Z</time>
      </trkpt>
      <trkpt lat="43.50712" lon="0.94788">
        <ele>180.8</ele>
        <time>2024-05-20T08:13:08Z</time>
      </trkpt>
      <trkpt lat="43.5072" lon="0.94794">
        <ele>180.4</ele>
        <time>2024-05-20T08:13:09Z</time>
      </trkpt>
      <trkpt lat="43.50729" lon="0.948">
        <ele>180.4</ele>
        <time>2024-05-20T08:13:10Z</time>
      </trkpt>
      <trkpt lat="43.50737" lon="0.94805">
        <ele>180</ele>
        <time>2024-05-20T08:13:11Z</time>
      </trkpt>
      <trkpt lat="43.50745" lon="0.94811">
        <ele>179.6</ele>
        <time>2024-05-20T08:13:12Z</time>
      </trkpt>
      <trkpt lat="43.50753" lon="0.94818">
        <ele>179</ele>
        <time>2024-05-20T08:13:13Z</time>
      </trkpt>
      <trkpt lat="43.50762" lon="0.94824">
        <ele>178.8</ele>
        <time>2024-05-20T08:13:14Z</time>
      </trkpt>
      <trkpt lat="43.5077" lon="0.9483">
        <ele>178.6</ele>
        <time>2024-05-20T08:13:15Z</time>
      </trkpt>
      <trkpt lat="43.50778" lon="0.94836">
        <ele>178.4</ele>
        <time>2024-05-20T08:13:16Z</time>
      </trkpt>
      <trkpt lat="43.50786" lon="0.94842">
        <ele>178.2</ele>
        <time>2024-05-20T08:13:17Z</time>
      </trkpt>
      <trkpt lat="43.50795" lon="0.94848">
        <ele>178</ele>
        <time>2024-05-20T08:13:18Z</time>
      </trkpt>
      <trkpt lat="43.50803" lon="0.94854">
        <ele>177.8</ele>
        <time>2024-05-20T08:13:19Z</time>
      </trkpt>
      <trkpt lat="43.50811" lon="0.9486">
        <ele>177.8</ele>
        <time>2024-05-20T08:13:20Z</time>
      </trkpt>
      <trkpt lat="43.50819" lon="0.94866">
        <ele>177.6</ele>
        <time>2024-05-20T08:13:21Z</time>
      </trkpt>
      <trkpt lat="43.50827" lon="0.94873">
        <ele>177.4</ele>
        <time>2024-05-20T08:13:22Z</time>
      </trkpt>
      <trkpt lat="43.50835" lon="0.9488">
        <ele>177.4</ele>
        <time>2024-05-20T08:13:23Z</time>
      </trkpt>
      <trkpt lat="43.50843" lon="0.94888">
        <ele>177.2</ele>
        <time>2024-05-20T08:13:24Z</time>
      </trkpt>
      <trkpt lat="43.50851" lon="0.94896">
        <ele>177</ele>
        <time>2024-05-20T08:13:25Z</time>
      </trkpt>
      <trkpt lat="43.50858" lon="0.94904">
        <ele>177</ele>
        <time>2024-05-20T08:13:26Z</time>
      </trkpt>
      <trkpt lat="43.50865" lon="0.94913">
        <ele>176.8</ele>
        <time>2024-05-20T08:13:27Z</time>
      </trkpt>
      <trkpt lat="43.50871" lon="0.94923">
        <ele>176.8</ele>
        <time>2024-05-20T08:13:28Z</time>
      </trkpt>
      <trkpt lat="43.50878" lon="0.94932">
        <ele>176.8</ele>
        <time>2024-05-20T08:13:29Z</time>
      </trkpt>
      <trkpt lat="43.50884" lon="0.94941">
        <ele>176.8</ele>
        <time>2024-05-20T08:13:30Z</time>
      </trkpt>
      <trkpt lat="43.5089" lon="0.94951">
        <ele>176.8</ele>
        <time>2024-05-20T08:13:31Z</time>
      </trkpt>
      <trkpt lat="43.50896" lon="0.9496">
        <ele>176.8</ele>
        <time>2024-05-20T08:13:32Z</time>
      </trkpt>
      <trkpt lat="43.50902" lon="0.94969">
        <ele>176.8</ele>
        <time>2024-05-20T08:13:33Z</time>
      </trkpt>
      <trkpt lat="43.50908" lon="0.94978">
        <ele>176.8</ele>
        <time>2024-05-20T08:13:34Z</time>
      </trkpt>
      <trkpt lat="43.50915" lon="0.94987">
        <ele>176.8</ele>
        <time>2024-05-20T08:13:35Z</time>
      </trkpt>
      <trkpt lat="43.50922" lon="0.94995">
        <ele>176.8</ele>
        <time>2024-05-20T08:13:36Z</time>
      </trkpt>
      <trkpt lat="43.50929" lon="0.95002">
        <ele>176.8</ele>
        <time>2024-05-20T08:13:37Z</time>
      </trkpt>
      <trkpt lat="43.50937" lon="0.95009">
        <ele>176.8</ele>
        <time>2024-05-20T08:13:38Z</time>
      </trkpt>
      <trkpt lat="43.50945" lon="0.95015">
        <ele>176.6</ele>
        <time>2024-05-20T08:13:39Z</time>
      </trkpt>
      <trkpt lat="43.50953" lon="0.95021">
        <ele>176.6</ele>
        <time>2024-05-20T08:13:40Z</time>
      </trkpt>
      <trkpt lat="43.50962" lon="0.95027">
        <ele>176.6</ele>
        <time>2024-05-20T08:13:41Z</time>
      </trkpt>
      <trkpt lat="43.5097" lon="0.95033">
        <ele>176.6</ele>
        <time>2024-05-20T08:13:42Z</time>
      </trkpt>
      <trkpt lat="43.50978" lon="0.95039">
        <ele>176.6</ele>
        <time>2024-05-20T08:13:43Z</time>
      </trkpt>
      <trkpt lat="43.50986" lon="0.95045">
        <ele>176.6</ele>
        <time>2024-05-20T08:13:44Z</time>
      </trkpt>
      <trkpt lat="43.50994" lon="0.9505">
        <ele>176.6</ele>
        <time>2024-05-20T08:13:45Z</time>
      </trkpt>
      <trkpt lat="43.51002" lon="0.95056">
        <ele>176.6</ele>
        <time>2024-05-20T08:13:46Z</time>
      </trkpt>
      <trkpt lat="43.5101" lon="0.95062">
        <ele>176.4</ele>
        <time>2024-05-20T08:13:47Z</time>
      </trkpt>
      <trkpt lat="43.51018" lon="0.95068">
        <ele>176.4</ele>
        <time>2024-05-20T08:13:48Z</time>
      </trkpt>
      <trkpt lat="43.51025" lon="0.95073">
        <ele>176.4</ele>
        <time>2024-05-20T08:13:49Z</time>
      </trkpt>
      <trkpt lat="43.51033" lon="0.95079">
        <ele>176.4</ele>
        <time>2024-05-20T08:13:50Z</time>
      </trkpt>
      <trkpt lat="43.5104" lon="0.95084">
        <ele>176.4</ele>
        <time>2024-05-20T08:13:51Z</time>
      </trkpt>
      <trkpt lat="43.51047" lon="0.95089">
        <ele>176.4</ele>
        <time>2024-05-20T08:13:52Z</time>
      </trkpt>
      <trkpt lat="43.51055" lon="0.95095">
        <ele>176.4</ele>
        <time>2024-05-20T08:13:53Z</time>
      </trkpt>
      <trkpt lat="43.51063" lon="0.951">
        <ele>176.4</ele>
        <time>2024-05-20T08:13:54Z</time>
      </trkpt>
      <trkpt lat="43.5107" lon="0.95105">
        <ele>176.4</ele>
        <time>2024-05-20T08:13:55Z</time>
      </trkpt>
      <trkpt lat="43.51077" lon="0.95111">
        <ele>176.2</ele>
        <time>2024-05-20T08:13:56Z</time>
      </trkpt>
      <trkpt lat="43.51085" lon="0.95116">
        <ele>176.2</ele>
        <time>2024-05-20T08:13:57Z</time>
      </trkpt>
      <trkpt lat="43.51092" lon="0.95122">
        <ele>176.2</ele>
        <time>2024-05-20T08:13:58Z</time>
      </trkpt>
      <trkpt lat="43.51099" lon="0.95127">
        <ele>176.2</ele>
        <time>2024-05-20T08:13:59Z</time>
      </trkpt>
      <trkpt lat="43.51106" lon="0.95132">
        <ele>176.2</ele>
        <time>2024-05-20T08:14:00Z</time>
      </trkpt>
      <trkpt lat="43.51113" lon="0.95137">
        <ele>176.4</ele>
        <time>2024-05-20T08:14:01Z</time>
      </trkpt>
      <trkpt lat="43.51121" lon="0.95143">
        <ele>176.4</ele>
        <time>2024-05-20T08:14:02Z</time>
      </trkpt>
      <trkpt lat="43.51128" lon="0.95148">
        <ele>176.4</ele>
        <time>2024-05-20T08:14:03Z</time>
      </trkpt>
      <trkpt lat="43.51135" lon="0.95154">
        <ele>176.4</ele>
        <time>2024-05-20T08:14:04Z</time>
      </trkpt>
      <trkpt lat="43.51142" lon="0.95159">
        <ele>176.4</ele>
        <time>2024-05-20T08:14:05Z</time>
      </trkpt>
      <trkpt lat="43.5115" lon="0.95165">
        <ele>176.4</ele>
        <time>2024-05-20T08:14:06Z</time>
      </trkpt>
      <trkpt lat="43.51157" lon="0.95171">
        <ele>176.2</ele>
        <time>2024-05-20T08:14:07Z</time>
      </trkpt>
      <trkpt lat="43.51164" lon="0.95178">
        <ele>176.2</ele>
        <time>2024-05-20T08:14:08Z</time>
      </trkpt>
      <trkpt lat="43.5117" lon="0.95185">
        <ele>176.2</ele>
        <time>2024-05-20T08:14:09Z</time>
      </trkpt>
      <trkpt lat="43.51177" lon="0.95191">
        <ele>176.2</ele>
        <time>2024-05-20T08:14:10Z</time>
      </trkpt>
      <trkpt lat="43.51184" lon="0.95198">
        <ele>176.2</ele>
        <time>2024-05-20T08:14:11Z</time>
      </trkpt>
      <trkpt lat="43.51191" lon="0.95206">
        <ele>176.2</ele>
        <time>2024-05-20T08:14:12Z</time>
      </trkpt>
      <trkpt lat="43.51197" lon="0.95213">
        <ele>176.2</ele>
        <time>2024-05-20T08:14:13Z</time>
      </trkpt>
      <trkpt lat="43.51204" lon="0.9522">
        <ele>176.2</ele>
        <time>2024-05-20T08:14:14Z</time>
      </trkpt>
      <trkpt lat="43.5121" lon="0.95227">
        <ele>176.2</ele>
        <time>2024-05-20T08:14:15Z</time>
      </trkpt>
      <trkpt lat="43.51216" lon="0.95234">
        <ele>176.2</ele>
        <time>2024-05-20T08:14:16Z</time>
      </trkpt>
      <trkpt lat="43.51222" lon="0.95242">
        <ele>176.2</ele>
        <time>2024-05-20T08:14:17Z</time>
      </trkpt>
      <trkpt lat="43.51228" lon="0.95249">
        <ele>176.2</ele>
        <time>2024-05-20T08:14:18Z</time>
      </trkpt>
      <trkpt lat="43.51233" lon="0.95256">
        <ele>176.2</ele>
        <time>2024-05-20T08:14:19Z</time>
      </trkpt>
      <trkpt lat="43.51239" lon="0.95263">
        <ele>176.4</ele>
        <time>2024-05-20T08:14:20Z</time>
      </trkpt>
      <trkpt lat="43.51244" lon="0.95269">
        <ele>176.6</ele>
        <time>2024-05-20T08:14:21Z</time>
      </trkpt>
      <trkpt lat="43.5125" lon="0.95276">
        <ele>176.8</ele>
        <time>2024-05-20T08:14:22Z</time>
      </trkpt>
      <trkpt lat="43.51256" lon="0.95282">
        <ele>177</ele>
        <time>2024-05-20T08:14:23Z</time>
      </trkpt>
      <trkpt lat="43.51261" lon="0.95289">
        <ele>177.2</ele>
        <time>2024-05-20T08:14:24Z</time>
      </trkpt>
      <trkpt lat="43.51267" lon="0.95296">
        <ele>177.2</ele>
        <time>2024-05-20T08:14:25Z</time>
      </trkpt>
      <trkpt lat="43.51273" lon="0.95302">
        <ele>177.4</ele>
        <time>2024-05-20T08:14:26Z</time>
      </trkpt>
      <trkpt lat="43.51279" lon="0.95309">
        <ele>177.6</ele>
        <time>2024-05-20T08:14:27Z</time>
      </trkpt>
      <trkpt lat="43.51286" lon="0.95316">
        <ele>177.8</ele>
        <time>2024-05-20T08:14:28Z</time>
      </trkpt>
      <trkpt lat="43.51292" lon="0.95322">
        <ele>177.8</ele>
        <time>2024-05-20T08:14:29Z</time>
      </trkpt>
      <trkpt lat="43.51298" lon="0.95329">
        <ele>178</ele>
        <time>2024-05-20T08:14:30Z</time>
      </trkpt>
      <trkpt lat="43.51304" lon="0.95335">
        <ele>178</ele>
        <time>2024-05-20T08:14:31Z</time>
      </trkpt>
      <trkpt lat="43.5131" lon="0.95341">
        <ele>178</ele>
        <time>2024-05-20T08:14:32Z</time>
      </trkpt>
      <trkpt lat="43.51315" lon="0.95347">
        <ele>178.2</ele>
        <time>2024-05-20T08:14:33Z</time>
      </trkpt>
      <trkpt lat="43.5132" lon="0.95353">
        <ele>178.2</ele>
        <time>2024-05-20T08:14:34Z</time>
      </trkpt>
      <trkpt lat="43.51325" lon="0.95359">
        <ele>178.6</ele>
        <time>2024-05-20T08:14:35Z</time>
      </trkpt>
      <trkpt lat="43.51331" lon="0.95365">
        <ele>178.6</ele>
        <time>2024-05-20T08:14:36Z</time>
      </trkpt>
      <trkpt lat="43.51337" lon="0.95372">
        <ele>178.8</ele>
        <time>2024-05-20T08:14:37Z</time>
      </trkpt>
      <trkpt lat="43.51342" lon="0.95377">
        <ele>179</ele>
        <time>2024-05-20T08:14:38Z</time>
      </trkpt>
      <trkpt lat="43.51347" lon="0.95383">
        <ele>179.2</ele>
        <time>2024-05-20T08:14:39Z</time>
      </trkpt>
      <trkpt lat="43.51352" lon="0.95388">
        <ele>179.4</ele>
        <time>2024-05-20T08:14:40Z</time>
      </trkpt>
      <trkpt lat="43.51357" lon="0.95393">
        <ele>179.6</ele>
        <time>2024-05-20T08:14:41Z</time>
      </trkpt>
      <trkpt lat="43.51362" lon="0.95399">
        <ele>180.2</ele>
        <time>2024-05-20T08:14:43Z</time>
      </trkpt>
      <trkpt lat="43.51367" lon="0.95405">
        <ele>180.4</ele>
        <time>2024-05-20T08:14:44Z</time>
      </trkpt>
      <trkpt lat="43.51373" lon="0.95411">
        <ele>180.6</ele>
        <time>2024-05-20T08:14:45Z</time>
      </trkpt>
      <trkpt lat="43.51379" lon="0.95417">
        <ele>180.8</ele>
        <time>2024-05-20T08:14:46Z</time>
      </trkpt>
      <trkpt lat="43.51385" lon="0.95423">
        <ele>181</ele>
        <time>2024-05-20T08:14:47Z</time>
      </trkpt>
      <trkpt lat="43.51391" lon="0.9543">
        <ele>181.2</ele>
        <time>2024-05-20T08:14:48Z</time>
      </trkpt>
      <trkpt lat="43.51397" lon="0.95436">
        <ele>181.4</ele>
        <time>2024-05-20T08:14:49Z</time>
      </trkpt>
      <trkpt lat="43.51402" lon="0.95442">
        <ele>181.8</ele>
        <time>2024-05-20T08:14:50Z</time>
      </trkpt>
      <trkpt lat="43.51408" lon="0.95449">
        <ele>182</ele>
        <time>2024-05-20T08:14:51Z</time>
      </trkpt>
      <trkpt lat="43.51413" lon="0.95455">
        <ele>182.4</ele>
        <time>2024-05-20T08:14:52Z</time>
      </trkpt>
      <trkpt lat="43.51419" lon="0.95462">
        <ele>182.6</ele>
        <time>2024-05-20T08:14:53Z</time>
      </trkpt>
      <trkpt lat="43.51425" lon="0.95468">
        <ele>183</ele>
        <time>2024-05-20T08:14:54Z</time>
      </trkpt>
      <trkpt lat="43.51431" lon="0.95475">
        <ele>183</ele>
        <time>2024-05-20T08:14:55Z</time>
      </trkpt>
      <trkpt lat="43.51437" lon="0.95481">
        <ele>183.2</ele>
        <time>2024-05-20T08:14:56Z</time>
      </trkpt>
      <trkpt lat="43.51443" lon="0.95487">
        <ele>183.4</ele>
        <time>2024-05-20T08:14:57Z</time>
      </trkpt>
      <trkpt lat="43.51449" lon="0.95493">
        <ele>183.6</ele>
        <time>2024-05-20T08:14:58Z</time>
      </trkpt>
      <trkpt lat="43.51454" lon="0.95499">
        <ele>184</ele>
        <time>2024-05-20T08:14:59Z</time>
      </trkpt>
      <trkpt lat="43.5146" lon="0.95505">
        <ele>184.2</ele>
        <time>2024-05-20T08:15:00Z</time>
      </trkpt>
      <trkpt lat="43.51466" lon="0.95511">
        <ele>184.2</ele>
        <time>2024-05-20T08:15:01Z</time>
      </trkpt>
      <trkpt lat="43.5147" lon="0.95517">
        <ele>184.4</ele>
        <time>2024-05-20T08:15:02Z</time>
      </trkpt>
      <trkpt lat="43.51476" lon="0.95523">
        <ele>184.8</ele>
        <time>2024-05-20T08:15:03Z</time>
      </trkpt>
      <trkpt lat="43.51482" lon="0.95529">
        <ele>185.4</ele>
        <time>2024-05-20T08:15:04Z</time>
      </trkpt>
      <trkpt lat="43.51487" lon="0.95534">
        <ele>185.6</ele>
        <time>2024-05-20T08:15:05Z</time>
      </trkpt>
      <trkpt lat="43.51492" lon="0.9554">
        <ele>185.8</ele>
        <time>2024-05-20T08:15:06Z</time>
      </trkpt>
      <trkpt lat="43.51497" lon="0.95545">
        <ele>186</ele>
        <time>2024-05-20T08:15:07Z</time>
      </trkpt>
      <trkpt lat="43.51502" lon="0.95551">
        <ele>186.6</ele>
        <time>2024-05-20T08:15:08Z</time>
      </trkpt>
      <trkpt lat="43.51507" lon="0.95557">
        <ele>186.8</ele>
        <time>2024-05-20T08:15:09Z</time>
      </trkpt>
      <trkpt lat="43.51512" lon="0.95563">
        <ele>187.2</ele>
        <time>2024-05-20T08:15:10Z</time>
      </trkpt>
      <trkpt lat="43.51518" lon="0.95569">
        <ele>187.2</ele>
        <time>2024-05-20T08:15:11Z</time>
      </trkpt>
      <trkpt lat="43.51523" lon="0.95575">
        <ele>187.6</ele>
        <time>2024-05-20T08:15:12Z</time>
      </trkpt>
      <trkpt lat="43.51528" lon="0.95581">
        <ele>187.8</ele>
        <time>2024-05-20T08:15:13Z</time>
      </trkpt>
      <trkpt lat="43.51533" lon="0.95587">
        <ele>187.8</ele>
        <time>2024-05-20T08:15:14Z</time>
      </trkpt>
      <trkpt lat="43.51538" lon="0.95593">
        <ele>188</ele>
        <time>2024-05-20T08:15:15Z</time>
      </trkpt>
      <trkpt lat="43.51543" lon="0.95599">
        <ele>188.2</ele>
        <time>2024-05-20T08:15:16Z</time>
      </trkpt>
      <trkpt lat="43.51549" lon="0.95605">
        <ele>188.4</ele>
        <time>2024-05-20T08:15:17Z</time>
      </trkpt>
      <trkpt lat="43.51554" lon="0.95611">
        <ele>188.4</ele>
        <time>2024-05-20T08:15:18Z</time>
      </trkpt>
      <trkpt lat="43.51559" lon="0.95618">
        <ele>188.6</ele>
        <time>2024-05-20T08:15:19Z</time>
      </trkpt>
      <trkpt lat="43.51564" lon="0.95625">
        <ele>188.6</ele>
        <time>2024-05-20T08:15:20Z</time>
      </trkpt>
      <trkpt lat="43.51568" lon="0.95633">
        <ele>188.6</ele>
        <time>2024-05-20T08:15:21Z</time>
      </trkpt>
      <trkpt lat="43.51572" lon="0.95641">
        <ele>188.8</ele>
        <time>2024-05-20T08:15:22Z</time>
      </trkpt>
      <trkpt lat="43.51576" lon="0.9565">
        <ele>188.8</ele>
        <time>2024-05-20T08:15:23Z</time>
      </trkpt>
      <trkpt lat="43.5158" lon="0.95659">
        <ele>188.8</ele>
        <time>2024-05-20T08:15:24Z</time>
      </trkpt>
      <trkpt lat="43.51583" lon="0.95668">
        <ele>188.8</ele>
        <time>2024-05-20T08:15:25Z</time>
      </trkpt>
      <trkpt lat="43.51585" lon="0.95676">
        <ele>188.8</ele>
        <time>2024-05-20T08:15:26Z</time>
      </trkpt>
      <trkpt lat="43.51588" lon="0.95687">
        <ele>188.8</ele>
        <time>2024-05-20T08:15:27Z</time>
      </trkpt>
      <trkpt lat="43.5159" lon="0.95696">
        <ele>188.8</ele>
        <time>2024-05-20T08:15:28Z</time>
      </trkpt>
      <trkpt lat="43.51592" lon="0.95706">
        <ele>188.8</ele>
        <time>2024-05-20T08:15:29Z</time>
      </trkpt>
      <trkpt lat="43.51595" lon="0.95716">
        <ele>188.8</ele>
        <time>2024-05-20T08:15:30Z</time>
      </trkpt>
      <trkpt lat="43.51598" lon="0.95726">
        <ele>188.8</ele>
        <time>2024-05-20T08:15:31Z</time>
      </trkpt>
      <trkpt lat="43.516" lon="0.95736">
        <ele>188.6</ele>
        <time>2024-05-20T08:15:32Z</time>
      </trkpt>
      <trkpt lat="43.51603" lon="0.95746">
        <ele>188.6</ele>
        <time>2024-05-20T08:15:33Z</time>
      </trkpt>
      <trkpt lat="43.51605" lon="0.95757">
        <ele>188.6</ele>
        <time>2024-05-20T08:15:34Z</time>
      </trkpt>
      <trkpt lat="43.51608" lon="0.95767">
        <ele>188.4</ele>
        <time>2024-05-20T08:15:35Z</time>
      </trkpt>
      <trkpt lat="43.51611" lon="0.95778">
        <ele>188.4</ele>
        <time>2024-05-20T08:15:36Z</time>
      </trkpt>
      <trkpt lat="43.51613" lon="0.95789">
        <ele>188.4</ele>
        <time>2024-05-20T08:15:37Z</time>
      </trkpt>
      <trkpt lat="43.51616" lon="0.95799">
        <ele>188.2</ele>
        <time>2024-05-20T08:15:38Z</time>
      </trkpt>
      <trkpt lat="43.51619" lon="0.9581">
        <ele>188.2</ele>
        <time>2024-05-20T08:15:39Z</time>
      </trkpt>
      <trkpt lat="43.51622" lon="0.95821">
        <ele>188</ele>
        <time>2024-05-20T08:15:40Z</time>
      </trkpt>
      <trkpt lat="43.51624" lon="0.95832">
        <ele>187.8</ele>
        <time>2024-05-20T08:15:41Z</time>
      </trkpt>
      <trkpt lat="43.51627" lon="0.95843">
        <ele>187.6</ele>
        <time>2024-05-20T08:15:42Z</time>
      </trkpt>
      <trkpt lat="43.5163" lon="0.95854">
        <ele>187.4</ele>
        <time>2024-05-20T08:15:43Z</time>
      </trkpt>
      <trkpt lat="43.51632" lon="0.95865">
        <ele>187.2</ele>
        <time>2024-05-20T08:15:44Z</time>
      </trkpt>
      <trkpt lat="43.51635" lon="0.95875">
        <ele>187.2</ele>
        <time>2024-05-20T08:15:45Z</time>
      </trkpt>
      <trkpt lat="43.51638" lon="0.95886">
        <ele>187</ele>
        <time>2024-05-20T08:15:46Z</time>
      </trkpt>
      <trkpt lat="43.51641" lon="0.95897">
        <ele>186.8</ele>
        <time>2024-05-20T08:15:47Z</time>
      </trkpt>
      <trkpt lat="43.51644" lon="0.95908">
        <ele>186.8</ele>
        <time>2024-05-20T08:15:48Z</time>
      </trkpt>
      <trkpt lat="43.51647" lon="0.9592">
        <ele>186.6</ele>
        <time>2024-05-20T08:15:49Z</time>
      </trkpt>
      <trkpt lat="43.51649" lon="0.95931">
        <ele>186.6</ele>
        <time>2024-05-20T08:15:50Z</time>
      </trkpt>
      <trkpt lat="43.51653" lon="0.95942">
        <ele>186.4</ele>
        <time>2024-05-20T08:15:51Z</time>
      </trkpt>
      <trkpt lat="43.51656" lon="0.95953">
        <ele>186.2</ele>
        <time>2024-05-20T08:15:52Z</time>
      </trkpt>
      <trkpt lat="43.51658" lon="0.95965">
        <ele>186</ele>
        <time>2024-05-20T08:15:53Z</time>
      </trkpt>
      <trkpt lat="43.51661" lon="0.95976">
        <ele>185.8</ele>
        <time>2024-05-20T08:15:54Z</time>
      </trkpt>
      <trkpt lat="43.51664" lon="0.95987">
        <ele>185.6</ele>
        <time>2024-05-20T08:15:55Z</time>
      </trkpt>
      <trkpt lat="43.51667" lon="0.95998">
        <ele>185.4</ele>
        <time>2024-05-20T08:15:56Z</time>
      </trkpt>
      <trkpt lat="43.5167" lon="0.96009">
        <ele>185.2</ele>
        <time>2024-05-20T08:15:57Z</time>
      </trkpt>
      <trkpt lat="43.51673" lon="0.9602">
        <ele>185</ele>
        <time>2024-05-20T08:15:58Z</time>
      </trkpt>
      <trkpt lat="43.51675" lon="0.96031">
        <ele>185</ele>
        <time>2024-05-20T08:15:59Z</time>
      </trkpt>
      <trkpt lat="43.51678" lon="0.96043">
        <ele>184.6</ele>
        <time>2024-05-20T08:16:00Z</time>
      </trkpt>
      <trkpt lat="43.51682" lon="0.96054">
        <ele>184.6</ele>
        <time>2024-05-20T08:16:01Z</time>
      </trkpt>
      <trkpt lat="43.51685" lon="0.96066">
        <ele>184.4</ele>
        <time>2024-05-20T08:16:02Z</time>
      </trkpt>
      <trkpt lat="43.51688" lon="0.96078">
        <ele>184.2</ele>
        <time>2024-05-20T08:16:03Z</time>
      </trkpt>
      <trkpt lat="43.51691" lon="0.9609">
        <ele>184.2</ele>
        <time>2024-05-20T08:16:04Z</time>
      </trkpt>
      <trkpt lat="43.51694" lon="0.96103">
        <ele>184</ele>
        <time>2024-05-20T08:16:05Z</time>
      </trkpt>
      <trkpt lat="43.51697" lon="0.96114">
        <ele>184</ele>
        <time>2024-05-20T08:16:06Z</time>
      </trkpt>
      <trkpt lat="43.51701" lon="0.96126">
        <ele>183.6</ele>
        <time>2024-05-20T08:16:07Z</time>
      </trkpt>
      <trkpt lat="43.51705" lon="0.96137">
        <ele>183.4</ele>
        <time>2024-05-20T08:16:08Z</time>
      </trkpt>
      <trkpt lat="43.5171" lon="0.96148">
        <ele>183</ele>
        <time>2024-05-20T08:16:09Z</time>
      </trkpt>
      <trkpt lat="43.51716" lon="0.96158">
        <ele>182.8</ele>
        <time>2024-05-20T08:16:10Z</time>
      </trkpt>
      <trkpt lat="43.51723" lon="0.96167">
        <ele>182.4</ele>
        <time>2024-05-20T08:16:11Z</time>
      </trkpt>
      <trkpt lat="43.51723" lon="0.96167">
        <ele>181.6</ele>
        <time>2024-05-20T08:16:12Z</time>
      </trkpt>
      <trkpt lat="43.51739" lon="0.96183">
        <ele>181.4</ele>
        <time>2024-05-20T08:16:13Z</time>
      </trkpt>
      <trkpt lat="43.51747" lon="0.96189">
        <ele>181</ele>
        <time>2024-05-20T08:16:14Z</time>
      </trkpt>
      <trkpt lat="43.51756" lon="0.96195">
        <ele>180.8</ele>
        <time>2024-05-20T08:16:15Z</time>
      </trkpt>
      <trkpt lat="43.51764" lon="0.962">
        <ele>180.8</ele>
        <time>2024-05-20T08:16:16Z</time>
      </trkpt>
      <trkpt lat="43.51772" lon="0.96206">
        <ele>180.6</ele>
        <time>2024-05-20T08:16:17Z</time>
      </trkpt>
      <trkpt lat="43.51781" lon="0.96211">
        <ele>180.4</ele>
        <time>2024-05-20T08:16:18Z</time>
      </trkpt>
      <trkpt lat="43.51789" lon="0.96216">
        <ele>180.4</ele>
        <time>2024-05-20T08:16:19Z</time>
      </trkpt>
      <trkpt lat="43.51798" lon="0.96222">
        <ele>180</ele>
        <time>2024-05-20T08:16:20Z</time>
      </trkpt>
      <trkpt lat="43.51807" lon="0.96228">
        <ele>179.6</ele>
        <time>2024-05-20T08:16:21Z</time>
      </trkpt>
      <trkpt lat="43.51814" lon="0.96233">
        <ele>179.4</ele>
        <time>2024-05-20T08:16:22Z</time>
      </trkpt>
      <trkpt lat="43.51824" lon="0.9624">
        <ele>179.2</ele>
        <time>2024-05-20T08:16:23Z</time>
      </trkpt>
      <trkpt lat="43.51833" lon="0.96246">
        <ele>179</ele>
        <time>2024-05-20T08:16:24Z</time>
      </trkpt>
      <trkpt lat="43.51841" lon="0.96252">
        <ele>179</ele>
        <time>2024-05-20T08:16:25Z</time>
      </trkpt>
      <trkpt lat="43.5185" lon="0.96257">
        <ele>179</ele>
        <time>2024-05-20T08:16:26Z</time>
      </trkpt>
      <trkpt lat="43.51858" lon="0.96262">
        <ele>178.8</ele>
        <time>2024-05-20T08:16:27Z</time>
      </trkpt>
      <trkpt lat="43.51867" lon="0.96268">
        <ele>178.8</ele>
        <time>2024-05-20T08:16:28Z</time>
      </trkpt>
      <trkpt lat="43.51875" lon="0.96274">
        <ele>178.6</ele>
        <time>2024-05-20T08:16:29Z</time>
      </trkpt>
      <trkpt lat="43.51883" lon="0.96279">
        <ele>178.6</ele>
        <time>2024-05-20T08:16:30Z</time>
      </trkpt>
      <trkpt lat="43.51891" lon="0.96284">
        <ele>178.6</ele>
        <time>2024-05-20T08:16:31Z</time>
      </trkpt>
      <trkpt lat="43.51899" lon="0.96289">
        <ele>178.6</ele>
        <time>2024-05-20T08:16:32Z</time>
      </trkpt>
      <trkpt lat="43.51899" lon="0.96289">
        <ele>178.6</ele>
        <time>2024-05-20T08:16:33Z</time>
      </trkpt>
      <trkpt lat="43.51914" lon="0.96299">
        <ele>178.6</ele>
        <time>2024-05-20T08:16:34Z</time>
      </trkpt>
      <trkpt lat="43.51921" lon="0.96303">
        <ele>178.6</ele>
        <time>2024-05-20T08:16:35Z</time>
      </trkpt>
      <trkpt lat="43.51928" lon="0.96308">
        <ele>178.6</ele>
        <time>2024-05-20T08:16:36Z</time>
      </trkpt>
      <trkpt lat="43.51935" lon="0.96313">
        <ele>178.8</ele>
        <time>2024-05-20T08:16:37Z</time>
      </trkpt>
      <trkpt lat="43.51942" lon="0.96317">
        <ele>178.8</ele>
        <time>2024-05-20T08:16:38Z</time>
      </trkpt>
      <trkpt lat="43.51949" lon="0.96322">
        <ele>179.2</ele>
        <time>2024-05-20T08:16:39Z</time>
      </trkpt>
      <trkpt lat="43.51955" lon="0.96327">
        <ele>179.4</ele>
        <time>2024-05-20T08:16:40Z</time>
      </trkpt>
      <trkpt lat="43.51962" lon="0.96331">
        <ele>179.6</ele>
        <time>2024-05-20T08:16:41Z</time>
      </trkpt>
      <trkpt lat="43.51969" lon="0.96336">
        <ele>179.6</ele>
        <time>2024-05-20T08:16:42Z</time>
      </trkpt>
      <trkpt lat="43.51976" lon="0.96341">
        <ele>180</ele>
        <time>2024-05-20T08:16:43Z</time>
      </trkpt>
      <trkpt lat="43.51982" lon="0.96346">
        <ele>180</ele>
        <time>2024-05-20T08:16:44Z</time>
      </trkpt>
      <trkpt lat="43.51989" lon="0.96351">
        <ele>180.2</ele>
        <time>2024-05-20T08:16:45Z</time>
      </trkpt>
      <trkpt lat="43.51996" lon="0.96356">
        <ele>180.2</ele>
        <time>2024-05-20T08:16:46Z</time>
      </trkpt>
      <trkpt lat="43.52003" lon="0.96361">
        <ele>180.2</ele>
        <time>2024-05-20T08:16:47Z</time>
      </trkpt>
      <trkpt lat="43.5201" lon="0.96366">
        <ele>180.2</ele>
        <time>2024-05-20T08:16:48Z</time>
      </trkpt>
      <trkpt lat="43.52017" lon="0.96371">
        <ele>180.2</ele>
        <time>2024-05-20T08:16:49Z</time>
      </trkpt>
      <trkpt lat="43.52024" lon="0.96376">
        <ele>180.2</ele>
        <time>2024-05-20T08:16:50Z</time>
      </trkpt>
      <trkpt lat="43.52031" lon="0.96381">
        <ele>180.2</ele>
        <time>2024-05-20T08:16:51Z</time>
      </trkpt>
      <trkpt lat="43.52038" lon="0.96386">
        <ele>180</ele>
        <time>2024-05-20T08:16:52Z</time>
      </trkpt>
      <trkpt lat="43.52045" lon="0.96391">
        <ele>180</ele>
        <time>2024-05-20T08:16:53Z</time>
      </trkpt>
      <trkpt lat="43.52052" lon="0.96396">
        <ele>180</ele>
        <time>2024-05-20T08:16:54Z</time>
      </trkpt>
      <trkpt lat="43.52059" lon="0.96401">
        <ele>180</ele>
        <time>2024-05-20T08:16:55Z</time>
      </trkpt>
      <trkpt lat="43.52066" lon="0.96406">
        <ele>180</ele>
        <time>2024-05-20T08:16:56Z</time>
      </trkpt>
      <trkpt lat="43.52072" lon="0.9641">
        <ele>180</ele>
        <time>2024-05-20T08:16:57Z</time>
      </trkpt>
      <trkpt lat="43.52079" lon="0.96415">
        <ele>180</ele>
        <time>2024-05-20T08:16:58Z</time>
      </trkpt>
      <trkpt lat="43.52086" lon="0.9642">
        <ele>179.8</ele>
        <time>2024-05-20T08:16:59Z</time>
      </trkpt>
      <trkpt lat="43.52092" lon="0.96425">
        <ele>179.8</ele>
        <time>2024-05-20T08:17:00Z</time>
      </trkpt>
      <trkpt lat="43.52099" lon="0.9643">
        <ele>179.8</ele>
        <time>2024-05-20T08:17:01Z</time>
      </trkpt>
      <trkpt lat="43.52106" lon="0.96435">
        <ele>179.8</ele>
        <time>2024-05-20T08:17:02Z</time>
      </trkpt>
      <trkpt lat="43.52113" lon="0.9644">
        <ele>179.6</ele>
        <time>2024-05-20T08:17:03Z</time>
      </trkpt>
      <trkpt lat="43.5212" lon="0.96445">
        <ele>179.6</ele>
        <time>2024-05-20T08:17:04Z</time>
      </trkpt>
      <trkpt lat="43.52127" lon="0.9645">
        <ele>179.6</ele>
        <time>2024-05-20T08:17:05Z</time>
      </trkpt>
      <trkpt lat="43.52134" lon="0.96455">
        <ele>179.4</ele>
        <time>2024-05-20T08:17:06Z</time>
      </trkpt>
      <trkpt lat="43.52141" lon="0.96461">
        <ele>179.4</ele>
        <time>2024-05-20T08:17:07Z</time>
      </trkpt>
      <trkpt lat="43.52147" lon="0.96466">
        <ele>179.4</ele>
        <time>2024-05-20T08:17:08Z</time>
      </trkpt>
      <trkpt lat="43.52154" lon="0.96472">
        <ele>179.2</ele>
        <time>2024-05-20T08:17:09Z</time>
      </trkpt>
      <trkpt lat="43.52154" lon="0.96472">
        <ele>179</ele>
        <time>2024-05-20T08:17:10Z</time>
      </trkpt>
      <trkpt lat="43.52168" lon="0.96482">
        <ele>179</ele>
        <time>2024-05-20T08:17:11Z</time>
      </trkpt>
      <trkpt lat="43.52176" lon="0.96486">
        <ele>179</ele>
        <time>2024-05-20T08:17:12Z</time>
      </trkpt>
      <trkpt lat="43.52183" lon="0.96491">
        <ele>179</ele>
        <time>2024-05-20T08:17:13Z</time>
      </trkpt>
      <trkpt lat="43.5219" lon="0.96494">
        <ele>179</ele>
        <time>2024-05-20T08:17:14Z</time>
      </trkpt>
      <trkpt lat="43.52197" lon="0.96497">
        <ele>179</ele>
        <time>2024-05-20T08:17:15Z</time>
      </trkpt>
      <trkpt lat="43.52204" lon="0.965">
        <ele>179</ele>
        <time>2024-05-20T08:17:16Z</time>
      </trkpt>
      <trkpt lat="43.52212" lon="0.96502">
        <ele>178.8</ele>
        <time>2024-05-20T08:17:17Z</time>
      </trkpt>
      <trkpt lat="43.52219" lon="0.96503">
        <ele>178.8</ele>
        <time>2024-05-20T08:17:18Z</time>
      </trkpt>
      <trkpt lat="43.52226" lon="0.96505">
        <ele>178.8</ele>
        <time>2024-05-20T08:17:19Z</time>
      </trkpt>
      <trkpt lat="43.52233" lon="0.96506">
        <ele>178.8</ele>
        <time>2024-05-20T08:17:20Z</time>
      </trkpt>
      <trkpt lat="43.52241" lon="0.96507">
        <ele>179</ele>
        <time>2024-05-20T08:17:21Z</time>
      </trkpt>
      <trkpt lat="43.52248" lon="0.96508">
        <ele>179</ele>
        <time>2024-05-20T08:17:22Z</time>
      </trkpt>
      <trkpt lat="43.52255" lon="0.96509">
        <ele>179</ele>
        <time>2024-05-20T08:17:23Z</time>
      </trkpt>
      <trkpt lat="43.52263" lon="0.9651">
        <ele>179</ele>
        <time>2024-05-20T08:17:24Z</time>
      </trkpt>
      <trkpt lat="43.52271" lon="0.96511">
        <ele>179</ele>
        <time>2024-05-20T08:17:25Z</time>
      </trkpt>
      <trkpt lat="43.52278" lon="0.96512">
        <ele>179</ele>
        <time>2024-05-20T08:17:26Z</time>
      </trkpt>
      <trkpt lat="43.52286" lon="0.96513">
        <ele>179</ele>
        <time>2024-05-20T08:17:27Z</time>
      </trkpt>
      <trkpt lat="43.52294" lon="0.96514">
        <ele>179</ele>
        <time>2024-05-20T08:17:28Z</time>
      </trkpt>
      <trkpt lat="43.52301" lon="0.96515">
        <ele>179</ele>
        <time>2024-05-20T08:17:29Z</time>
      </trkpt>
      <trkpt lat="43.52309" lon="0.96517">
        <ele>179</ele>
        <time>2024-05-20T08:17:30Z</time>
      </trkpt>
      <trkpt lat="43.52317" lon="0.96518">
        <ele>179</ele>
        <time>2024-05-20T08:17:31Z</time>
      </trkpt>
      <trkpt lat="43.52324" lon="0.96519">
        <ele>179</ele>
        <time>2024-05-20T08:17:32Z</time>
      </trkpt>
      <trkpt lat="43.52331" lon="0.9652">
        <ele>179.4</ele>
        <time>2024-05-20T08:17:33Z</time>
      </trkpt>
      <trkpt lat="43.52339" lon="0.96522">
        <ele>179.4</ele>
        <time>2024-05-20T08:17:34Z</time>
      </trkpt>
      <trkpt lat="43.52346" lon="0.96523">
        <ele>179.8</ele>
        <time>2024-05-20T08:17:35Z</time>
      </trkpt>
      <trkpt lat="43.52353" lon="0.96524">
        <ele>180</ele>
        <time>2024-05-20T08:17:36Z</time>
      </trkpt>
      <trkpt lat="43.5236" lon="0.96525">
        <ele>180</ele>
        <time>2024-05-20T08:17:37Z</time>
      </trkpt>
      <trkpt lat="43.52367" lon="0.96526">
        <ele>180.2</ele>
        <time>2024-05-20T08:17:38Z</time>
      </trkpt>
      <trkpt lat="43.52375" lon="0.96527">
        <ele>180.4</ele>
        <time>2024-05-20T08:17:39Z</time>
      </trkpt>
      <trkpt lat="43.52382" lon="0.96528">
        <ele>180.4</ele>
        <time>2024-05-20T08:17:40Z</time>
      </trkpt>
      <trkpt lat="43.52389" lon="0.9653">
        <ele>180.6</ele>
        <time>2024-05-20T08:17:41Z</time>
      </trkpt>
      <trkpt lat="43.52396" lon="0.96531">
        <ele>180.8</ele>
        <time>2024-05-20T08:17:42Z</time>
      </trkpt>
      <trkpt lat="43.52403" lon="0.96532">
        <ele>181</ele>
        <time>2024-05-20T08:17:43Z</time>
      </trkpt>
      <trkpt lat="43.5241" lon="0.96532">
        <ele>181</ele>
        <time>2024-05-20T08:17:44Z</time>
      </trkpt>
      <trkpt lat="43.52418" lon="0.96533">
        <ele>181.2</ele>
        <time>2024-05-20T08:17:45Z</time>
      </trkpt>
      <trkpt lat="43.52425" lon="0.96534">
        <ele>181.2</ele>
        <time>2024-05-20T08:17:46Z</time>
      </trkpt>
      <trkpt lat="43.52432" lon="0.96534">
        <ele>181.4</ele>
        <time>2024-05-20T08:17:47Z</time>
      </trkpt>
      <trkpt lat="43.5244" lon="0.96534">
        <ele>181.4</ele>
        <time>2024-05-20T08:17:48Z</time>
      </trkpt>
      <trkpt lat="43.52447" lon="0.96532">
        <ele>181.4</ele>
        <time>2024-05-20T08:17:49Z</time>
      </trkpt>
      <trkpt lat="43.52447" lon="0.96532">
        <ele>181.6</ele>
        <time>2024-05-20T08:17:50Z</time>
      </trkpt>
      <trkpt lat="43.52462" lon="0.96528">
        <ele>181.8</ele>
        <time>2024-05-20T08:17:51Z</time>
      </trkpt>
      <trkpt lat="43.52462" lon="0.96528">
        <ele>181.8</ele>
        <time>2024-05-20T08:17:52Z</time>
      </trkpt>
      <trkpt lat="43.52478" lon="0.96523">
        <ele>181.8</ele>
        <time>2024-05-20T08:17:53Z</time>
      </trkpt>
      <trkpt lat="43.52485" lon="0.9652">
        <ele>181.8</ele>
        <time>2024-05-20T08:17:54Z</time>
      </trkpt>
      <trkpt lat="43.52493" lon="0.96517">
        <ele>181.8</ele>
        <time>2024-05-20T08:17:55Z</time>
      </trkpt>
      <trkpt lat="43.525" lon="0.96514">
        <ele>182</ele>
        <time>2024-05-20T08:17:56Z</time>
      </trkpt>
      <trkpt lat="43.52508" lon="0.96511">
        <ele>182</ele>
        <time>2024-05-20T08:17:57Z</time>
      </trkpt>
      <trkpt lat="43.52515" lon="0.96509">
        <ele>182.2</ele>
        <time>2024-05-20T08:17:58Z</time>
      </trkpt>
      <trkpt lat="43.52523" lon="0.96506">
        <ele>182.2</ele>
        <time>2024-05-20T08:17:59Z</time>
      </trkpt>
      <trkpt lat="43.52531" lon="0.96504">
        <ele>182.2</ele>
        <time>2024-05-20T08:18:00Z</time>
      </trkpt>
      <trkpt lat="43.52539" lon="0.96502">
        <ele>182.2</ele>
        <time>2024-05-20T08:18:01Z</time>
      </trkpt>
      <trkpt lat="43.52547" lon="0.96501">
        <ele>182</ele>
        <time>2024-05-20T08:18:02Z</time>
      </trkpt>
      <trkpt lat="43.52555" lon="0.96501">
        <ele>181.8</ele>
        <time>2024-05-20T08:18:03Z</time>
      </trkpt>
      <trkpt lat="43.52564" lon="0.96503">
        <ele>181.8</ele>
        <time>2024-05-20T08:18:04Z</time>
      </trkpt>
      <trkpt lat="43.52572" lon="0.96506">
        <ele>181.6</ele>
        <time>2024-05-20T08:18:05Z</time>
      </trkpt>
      <trkpt lat="43.52572" lon="0.96506">
        <ele>181.6</ele>
        <time>2024-05-20T08:18:06Z</time>
      </trkpt>
      <trkpt lat="43.52587" lon="0.96515">
        <ele>181.6</ele>
        <time>2024-05-20T08:18:07Z</time>
      </trkpt>
      <trkpt lat="43.52595" lon="0.96521">
        <ele>181.6</ele>
        <time>2024-05-20T08:18:08Z</time>
      </trkpt>
      <trkpt lat="43.52601" lon="0.96527">
        <ele>181.6</ele>
        <time>2024-05-20T08:18:09Z</time>
      </trkpt>
      <trkpt lat="43.52607" lon="0.96533">
        <ele>181.6</ele>
        <time>2024-05-20T08:18:10Z</time>
      </trkpt>
      <trkpt lat="43.52613" lon="0.9654">
        <ele>181.6</ele>
        <time>2024-05-20T08:18:11Z</time>
      </trkpt>
      <trkpt lat="43.52619" lon="0.96547">
        <ele>181.6</ele>
        <time>2024-05-20T08:18:12Z</time>
      </trkpt>
      <trkpt lat="43.52625" lon="0.96554">
        <ele>181.6</ele>
        <time>2024-05-20T08:18:13Z</time>
      </trkpt>
      <trkpt lat="43.5263" lon="0.96561">
        <ele>182</ele>
        <time>2024-05-20T08:18:14Z</time>
      </trkpt>
      <trkpt lat="43.52636" lon="0.96568">
        <ele>182</ele>
        <time>2024-05-20T08:18:15Z</time>
      </trkpt>
      <trkpt lat="43.52641" lon="0.96575">
        <ele>182.4</ele>
        <time>2024-05-20T08:18:16Z</time>
      </trkpt>
      <trkpt lat="43.52641" lon="0.96575">
        <ele>182.6</ele>
        <time>2024-05-20T08:18:17Z</time>
      </trkpt>
      <trkpt lat="43.52652" lon="0.96588">
        <ele>183.4</ele>
        <time>2024-05-20T08:18:18Z</time>
      </trkpt>
      <trkpt lat="43.52657" lon="0.96595">
        <ele>183.6</ele>
        <time>2024-05-20T08:18:19Z</time>
      </trkpt>
      <trkpt lat="43.52663" lon="0.96602">
        <ele>184.2</ele>
        <time>2024-05-20T08:18:20Z</time>
      </trkpt>
      <trkpt lat="43.52668" lon="0.96609">
        <ele>185</ele>
        <time>2024-05-20T08:18:21Z</time>
      </trkpt>
      <trkpt lat="43.52668" lon="0.96609">
        <ele>185.4</ele>
        <time>2024-05-20T08:18:22Z</time>
      </trkpt>
      <trkpt lat="43.52677" lon="0.9662">
        <ele>186</ele>
        <time>2024-05-20T08:18:23Z</time>
      </trkpt>
      <trkpt lat="43.52683" lon="0.96628">
        <ele>186.2</ele>
        <time>2024-05-20T08:18:24Z</time>
      </trkpt>
      <trkpt lat="43.52689" lon="0.96634">
        <ele>186.6</ele>
        <time>2024-05-20T08:18:25Z</time>
      </trkpt>
      <trkpt lat="43.52694" lon="0.9664">
        <ele>187</ele>
        <time>2024-05-20T08:18:26Z</time>
      </trkpt>
      <trkpt lat="43.527" lon="0.96646">
        <ele>187.4</ele>
        <time>2024-05-20T08:18:27Z</time>
      </trkpt>
      <trkpt lat="43.52705" lon="0.96652">
        <ele>187.6</ele>
        <time>2024-05-20T08:18:28Z</time>
      </trkpt>
      <trkpt lat="43.52711" lon="0.96658">
        <ele>187.6</ele>
        <time>2024-05-20T08:18:29Z</time>
      </trkpt>
      <trkpt lat="43.52716" lon="0.96664">
        <ele>187.8</ele>
        <time>2024-05-20T08:18:30Z</time>
      </trkpt>
      <trkpt lat="43.52722" lon="0.96669">
        <ele>188</ele>
        <time>2024-05-20T08:18:31Z</time>
      </trkpt>
      <trkpt lat="43.52727" lon="0.96675">
        <ele>188</ele>
        <time>2024-05-20T08:18:32Z</time>
      </trkpt>
      <trkpt lat="43.52733" lon="0.96679">
        <ele>188.2</ele>
        <time>2024-05-20T08:18:33Z</time>
      </trkpt>
      <trkpt lat="43.5274" lon="0.96683">
        <ele>188.2</ele>
        <time>2024-05-20T08:18:34Z</time>
      </trkpt>
      <trkpt lat="43.52747" lon="0.96688">
        <ele>188.2</ele>
        <time>2024-05-20T08:18:35Z</time>
      </trkpt>
      <trkpt lat="43.52754" lon="0.96692">
        <ele>188.2</ele>
        <time>2024-05-20T08:18:36Z</time>
      </trkpt>
      <trkpt lat="43.52761" lon="0.96696">
        <ele>188.2</ele>
        <time>2024-05-20T08:18:37Z</time>
      </trkpt>
      <trkpt lat="43.52769" lon="0.967">
        <ele>188.2</ele>
        <time>2024-05-20T08:18:38Z</time>
      </trkpt>
      <trkpt lat="43.52776" lon="0.96705">
        <ele>188.2</ele>
        <time>2024-05-20T08:18:39Z</time>
      </trkpt>
      <trkpt lat="43.52783" lon="0.96709">
        <ele>188.2</ele>
        <time>2024-05-20T08:18:40Z</time>
      </trkpt>
      <trkpt lat="43.52791" lon="0.96713">
        <ele>188.2</ele>
        <time>2024-05-20T08:18:41Z</time>
      </trkpt>
      <trkpt lat="43.52798" lon="0.96717">
        <ele>188.2</ele>
        <time>2024-05-20T08:18:42Z</time>
      </trkpt>
      <trkpt lat="43.52805" lon="0.96721">
        <ele>188.2</ele>
        <time>2024-05-20T08:18:43Z</time>
      </trkpt>
      <trkpt lat="43.52813" lon="0.96725">
        <ele>188.2</ele>
        <time>2024-05-20T08:18:44Z</time>
      </trkpt>
      <trkpt lat="43.5282" lon="0.96729">
        <ele>188.2</ele>
        <time>2024-05-20T08:18:45Z</time>
      </trkpt>
      <trkpt lat="43.52827" lon="0.96734">
        <ele>188.2</ele>
        <time>2024-05-20T08:18:46Z</time>
      </trkpt>
      <trkpt lat="43.52834" lon="0.96739">
        <ele>188.2</ele>
        <time>2024-05-20T08:18:47Z</time>
      </trkpt>
      <trkpt lat="43.52842" lon="0.96744">
        <ele>188.2</ele>
        <time>2024-05-20T08:18:48Z</time>
      </trkpt>
      <trkpt lat="43.52849" lon="0.96749">
        <ele>188.2</ele>
        <time>2024-05-20T08:18:49Z</time>
      </trkpt>
      <trkpt lat="43.52855" lon="0.96756">
        <ele>188.2</ele>
        <time>2024-05-20T08:18:50Z</time>
      </trkpt>
      <trkpt lat="43.52862" lon="0.96763">
        <ele>188.2</ele>
        <time>2024-05-20T08:18:51Z</time>
      </trkpt>
      <trkpt lat="43.52868" lon="0.96771">
        <ele>188</ele>
        <time>2024-05-20T08:18:52Z</time>
      </trkpt>
      <trkpt lat="43.52873" lon="0.96779">
        <ele>188</ele>
        <time>2024-05-20T08:18:53Z</time>
      </trkpt>
      <trkpt lat="43.52879" lon="0.96788">
        <ele>188</ele>
        <time>2024-05-20T08:18:54Z</time>
      </trkpt>
      <trkpt lat="43.52884" lon="0.96797">
        <ele>187.8</ele>
        <time>2024-05-20T08:18:55Z</time>
      </trkpt>
      <trkpt lat="43.52889" lon="0.96805">
        <ele>187.8</ele>
        <time>2024-05-20T08:18:56Z</time>
      </trkpt>
      <trkpt lat="43.52894" lon="0.96814">
        <ele>187.8</ele>
        <time>2024-05-20T08:18:57Z</time>
      </trkpt>
      <trkpt lat="43.52898" lon="0.96823">
        <ele>187.8</ele>
        <time>2024-05-20T08:18:58Z</time>
      </trkpt>
      <trkpt lat="43.52903" lon="0.96831">
        <ele>187.8</ele>
        <time>2024-05-20T08:18:59Z</time>
      </trkpt>
      <trkpt lat="43.52908" lon="0.96839">
        <ele>187.6</ele>
        <time>2024-05-20T08:19:00Z</time>
      </trkpt>
      <trkpt lat="43.52912" lon="0.96848">
        <ele>187.6</ele>
        <time>2024-05-20T08:19:01Z</time>
      </trkpt>
      <trkpt lat="43.52917" lon="0.96857">
        <ele>187.4</ele>
        <time>2024-05-20T08:19:02Z</time>
      </trkpt>
      <trkpt lat="43.52923" lon="0.96866">
        <ele>187.2</ele>
        <time>2024-05-20T08:19:03Z</time>
      </trkpt>
      <trkpt lat="43.52927" lon="0.96874">
        <ele>187.2</ele>
        <time>2024-05-20T08:19:04Z</time>
      </trkpt>
      <trkpt lat="43.52932" lon="0.96883">
        <ele>187</ele>
        <time>2024-05-20T08:19:05Z</time>
      </trkpt>
      <trkpt lat="43.52938" lon="0.96892">
        <ele>187</ele>
        <time>2024-05-20T08:19:06Z</time>
      </trkpt>
      <trkpt lat="43.52943" lon="0.96902">
        <ele>186.8</ele>
        <time>2024-05-20T08:19:07Z</time>
      </trkpt>
      <trkpt lat="43.52947" lon="0.96911">
        <ele>186.8</ele>
        <time>2024-05-20T08:19:08Z</time>
      </trkpt>
      <trkpt lat="43.52953" lon="0.9692">
        <ele>186.6</ele>
        <time>2024-05-20T08:19:09Z</time>
      </trkpt>
      <trkpt lat="43.52953" lon="0.9692">
        <ele>186.4</ele>
        <time>2024-05-20T08:19:10Z</time>
      </trkpt>
      <trkpt lat="43.52963" lon="0.96939">
        <ele>186.2</ele>
        <time>2024-05-20T08:19:11Z</time>
      </trkpt>
      <trkpt lat="43.52969" lon="0.96951">
        <ele>186</ele>
        <time>2024-05-20T08:19:12Z</time>
      </trkpt>
      <trkpt lat="43.52973" lon="0.96959">
        <ele>185.8</ele>
        <time>2024-05-20T08:19:13Z</time>
      </trkpt>
      <trkpt lat="43.52979" lon="0.96969">
        <ele>185.4</ele>
        <time>2024-05-20T08:19:14Z</time>
      </trkpt>
      <trkpt lat="43.52984" lon="0.96979">
        <ele>185</ele>
        <time>2024-05-20T08:19:15Z</time>
      </trkpt>
      <trkpt lat="43.52989" lon="0.96989">
        <ele>184.8</ele>
        <time>2024-05-20T08:19:16Z</time>
      </trkpt>
      <trkpt lat="43.52994" lon="0.96998">
        <ele>184.6</ele>
        <time>2024-05-20T08:19:17Z</time>
      </trkpt>
      <trkpt lat="43.53001" lon="0.97009">
        <ele>184.6</ele>
        <time>2024-05-20T08:19:18Z</time>
      </trkpt>
      <trkpt lat="43.53007" lon="0.97019">
        <ele>184.2</ele>
        <time>2024-05-20T08:19:19Z</time>
      </trkpt>
      <trkpt lat="43.53012" lon="0.97026">
        <ele>184</ele>
        <time>2024-05-20T08:19:20Z</time>
      </trkpt>
      <trkpt lat="43.53019" lon="0.97035">
        <ele>184</ele>
        <time>2024-05-20T08:19:21Z</time>
      </trkpt>
      <trkpt lat="43.53026" lon="0.97044">
        <ele>183.8</ele>
        <time>2024-05-20T08:19:22Z</time>
      </trkpt>
      <trkpt lat="43.53032" lon="0.97053">
        <ele>183.6</ele>
        <time>2024-05-20T08:19:23Z</time>
      </trkpt>
      <trkpt lat="43.53038" lon="0.97061">
        <ele>183.4</ele>
        <time>2024-05-20T08:19:24Z</time>
      </trkpt>
      <trkpt lat="43.53045" lon="0.97069">
        <ele>183.4</ele>
        <time>2024-05-20T08:19:25Z</time>
      </trkpt>
      <trkpt lat="43.53051" lon="0.97078">
        <ele>183.2</ele>
        <time>2024-05-20T08:19:26Z</time>
      </trkpt>
      <trkpt lat="43.53056" lon="0.97087">
        <ele>183</ele>
        <time>2024-05-20T08:19:27Z</time>
      </trkpt>
      <trkpt lat="43.53062" lon="0.97097">
        <ele>182.8</ele>
        <time>2024-05-20T08:19:28Z</time>
      </trkpt>
      <trkpt lat="43.53067" lon="0.97108">
        <ele>182.6</ele>
        <time>2024-05-20T08:19:29Z</time>
      </trkpt>
      <trkpt lat="43.53072" lon="0.97118">
        <ele>182.6</ele>
        <time>2024-05-20T08:19:30Z</time>
      </trkpt>
      <trkpt lat="43.53076" lon="0.97129">
        <ele>182.4</ele>
        <time>2024-05-20T08:19:31Z</time>
      </trkpt>
      <trkpt lat="43.5308" lon="0.9714">
        <ele>182.4</ele>
        <time>2024-05-20T08:19:32Z</time>
      </trkpt>
      <trkpt lat="43.53084" lon="0.97151">
        <ele>182.4</ele>
        <time>2024-05-20T08:19:33Z</time>
      </trkpt>
      <trkpt lat="43.53087" lon="0.97162">
        <ele>182.2</ele>
        <time>2024-05-20T08:19:34Z</time>
      </trkpt>
      <trkpt lat="43.53091" lon="0.97173">
        <ele>182.2</ele>
        <time>2024-05-20T08:19:35Z</time>
      </trkpt>
      <trkpt lat="43.53095" lon="0.97185">
        <ele>182</ele>
        <time>2024-05-20T08:19:36Z</time>
      </trkpt>
      <trkpt lat="43.53099" lon="0.97196">
        <ele>181.8</ele>
        <time>2024-05-20T08:19:37Z</time>
      </trkpt>
      <trkpt lat="43.53103" lon="0.97207">
        <ele>181.8</ele>
        <time>2024-05-20T08:19:38Z</time>
      </trkpt>
      <trkpt lat="43.53106" lon="0.97218">
        <ele>181.8</ele>
        <time>2024-05-20T08:19:39Z</time>
      </trkpt>
      <trkpt lat="43.5311" lon="0.9723">
        <ele>181.8</ele>
        <time>2024-05-20T08:19:40Z</time>
      </trkpt>
      <trkpt lat="43.53114" lon="0.97241">
        <ele>181.8</ele>
        <time>2024-05-20T08:19:41Z</time>
      </trkpt>
      <trkpt lat="43.53118" lon="0.97252">
        <ele>181.8</ele>
        <time>2024-05-20T08:19:42Z</time>
      </trkpt>
      <trkpt lat="43.53122" lon="0.97264">
        <ele>181.8</ele>
        <time>2024-05-20T08:19:43Z</time>
      </trkpt>
      <trkpt lat="43.53125" lon="0.97275">
        <ele>181.8</ele>
        <time>2024-05-20T08:19:44Z</time>
      </trkpt>
      <trkpt lat="43.53129" lon="0.97286">
        <ele>181.4</ele>
        <time>2024-05-20T08:19:45Z</time>
      </trkpt>
      <trkpt lat="43.53133" lon="0.97297">
        <ele>181.4</ele>
        <time>2024-05-20T08:19:46Z</time>
      </trkpt>
      <trkpt lat="43.53136" lon="0.97309">
        <ele>181.4</ele>
        <time>2024-05-20T08:19:47Z</time>
      </trkpt>
      <trkpt lat="43.5314" lon="0.9732">
        <ele>181.4</ele>
        <time>2024-05-20T08:19:48Z</time>
      </trkpt>
      <trkpt lat="43.53146" lon="0.97333">
        <ele>181.4</ele>
        <time>2024-05-20T08:19:49Z</time>
      </trkpt>
      <trkpt lat="43.5315" lon="0.97341">
        <ele>181.4</ele>
        <time>2024-05-20T08:19:50Z</time>
      </trkpt>
      <trkpt lat="43.53156" lon="0.9735">
        <ele>181.2</ele>
        <time>2024-05-20T08:19:51Z</time>
      </trkpt>
      <trkpt lat="43.53163" lon="0.97358">
        <ele>181</ele>
        <time>2024-05-20T08:19:52Z</time>
      </trkpt>
      <trkpt lat="43.53171" lon="0.97365">
        <ele>181</ele>
        <time>2024-05-20T08:19:53Z</time>
      </trkpt>
      <trkpt lat="43.5318" lon="0.97369">
        <ele>180.8</ele>
        <time>2024-05-20T08:19:54Z</time>
      </trkpt>
      <trkpt lat="43.5319" lon="0.97372">
        <ele>180.6</ele>
        <time>2024-05-20T08:19:55Z</time>
      </trkpt>
      <trkpt lat="43.532" lon="0.97373">
        <ele>180.4</ele>
        <time>2024-05-20T08:19:56Z</time>
      </trkpt>
      <trkpt lat="43.5321" lon="0.97373">
        <ele>180.2</ele>
        <time>2024-05-20T08:19:57Z</time>
      </trkpt>
      <trkpt lat="43.53222" lon="0.97373">
        <ele>180</ele>
        <time>2024-05-20T08:19:58Z</time>
      </trkpt>
      <trkpt lat="43.53231" lon="0.97372">
        <ele>179.8</ele>
        <time>2024-05-20T08:19:59Z</time>
      </trkpt>
      <trkpt lat="43.53241" lon="0.97373">
        <ele>179.2</ele>
        <time>2024-05-20T08:20:00Z</time>
      </trkpt>
      <trkpt lat="43.53252" lon="0.97374">
        <ele>179</ele>
        <time>2024-05-20T08:20:01Z</time>
      </trkpt>
      <trkpt lat="43.53262" lon="0.97376">
        <ele>178.8</ele>
        <time>2024-05-20T08:20:02Z</time>
      </trkpt>
      <trkpt lat="43.53273" lon="0.97378">
        <ele>178.2</ele>
        <time>2024-05-20T08:20:03Z</time>
      </trkpt>
      <trkpt lat="43.53283" lon="0.97382">
        <ele>178</ele>
        <time>2024-05-20T08:20:04Z</time>
      </trkpt>
      <trkpt lat="43.53293" lon="0.97387">
        <ele>177.4</ele>
        <time>2024-05-20T08:20:05Z</time>
      </trkpt>
      <trkpt lat="43.53303" lon="0.97392">
        <ele>177.2</ele>
        <time>2024-05-20T08:20:06Z</time>
      </trkpt>
      <trkpt lat="43.53313" lon="0.97398">
        <ele>176.8</ele>
        <time>2024-05-20T08:20:07Z</time>
      </trkpt>
      <trkpt lat="43.53323" lon="0.97406">
        <ele>176.6</ele>
        <time>2024-05-20T08:20:08Z</time>
      </trkpt>
      <trkpt lat="43.5333" lon="0.97413">
        <ele>176.4</ele>
        <time>2024-05-20T08:20:09Z</time>
      </trkpt>
      <trkpt lat="43.53338" lon="0.97421">
        <ele>176</ele>
        <time>2024-05-20T08:20:10Z</time>
      </trkpt>
      <trkpt lat="43.53345" lon="0.9743">
        <ele>175.8</ele>
        <time>2024-05-20T08:20:11Z</time>
      </trkpt>
      <trkpt lat="43.53351" lon="0.97439">
        <ele>175.6</ele>
        <time>2024-05-20T08:20:12Z</time>
      </trkpt>
      <trkpt lat="43.53358" lon="0.97449">
        <ele>175.6</ele>
        <time>2024-05-20T08:20:13Z</time>
      </trkpt>
      <trkpt lat="43.53364" lon="0.97458">
        <ele>175.4</ele>
        <time>2024-05-20T08:20:14Z</time>
      </trkpt>
      <trkpt lat="43.5337" lon="0.97467">
        <ele>175.4</ele>
        <time>2024-05-20T08:20:15Z</time>
      </trkpt>
      <trkpt lat="43.53375" lon="0.97477">
        <ele>175.4</ele>
        <time>2024-05-20T08:20:16Z</time>
      </trkpt>
      <trkpt lat="43.5338" lon="0.97486">
        <ele>175.4</ele>
        <time>2024-05-20T08:20:17Z</time>
      </trkpt>
      <trkpt lat="43.53385" lon="0.97495">
        <ele>175.4</ele>
        <time>2024-05-20T08:20:18Z</time>
      </trkpt>
      <trkpt lat="43.5339" lon="0.97505">
        <ele>175.8</ele>
        <time>2024-05-20T08:20:19Z</time>
      </trkpt>
      <trkpt lat="43.53395" lon="0.97514">
        <ele>176</ele>
        <time>2024-05-20T08:20:20Z</time>
      </trkpt>
      <trkpt lat="43.534" lon="0.97523">
        <ele>176</ele>
        <time>2024-05-20T08:20:21Z</time>
      </trkpt>
      <trkpt lat="43.53405" lon="0.97531">
        <ele>176.2</ele>
        <time>2024-05-20T08:20:22Z</time>
      </trkpt>
      <trkpt lat="43.5341" lon="0.97541">
        <ele>176.6</ele>
        <time>2024-05-20T08:20:23Z</time>
      </trkpt>
      <trkpt lat="43.53415" lon="0.9755">
        <ele>176.8</ele>
        <time>2024-05-20T08:20:24Z</time>
      </trkpt>
      <trkpt lat="43.5342" lon="0.9756">
        <ele>177</ele>
        <time>2024-05-20T08:20:25Z</time>
      </trkpt>
      <trkpt lat="43.53426" lon="0.97569">
        <ele>177</ele>
        <time>2024-05-20T08:20:26Z</time>
      </trkpt>
      <trkpt lat="43.53431" lon="0.97579">
        <ele>177.2</ele>
        <time>2024-05-20T08:20:27Z</time>
      </trkpt>
      <trkpt lat="43.53436" lon="0.97589">
        <ele>177.2</ele>
        <time>2024-05-20T08:20:28Z</time>
      </trkpt>
      <trkpt lat="43.53441" lon="0.97599">
        <ele>177.2</ele>
        <time>2024-05-20T08:20:29Z</time>
      </trkpt>
      <trkpt lat="43.53446" lon="0.97609">
        <ele>177.2</ele>
        <time>2024-05-20T08:20:30Z</time>
      </trkpt>
      <trkpt lat="43.53451" lon="0.97619">
        <ele>177.2</ele>
        <time>2024-05-20T08:20:31Z</time>
      </trkpt>
      <trkpt lat="43.53456" lon="0.97629">
        <ele>177.2</ele>
        <time>2024-05-20T08:20:32Z</time>
      </trkpt>
      <trkpt lat="43.53462" lon="0.9764">
        <ele>177.2</ele>
        <time>2024-05-20T08:20:33Z</time>
      </trkpt>
      <trkpt lat="43.53467" lon="0.9765">
        <ele>177</ele>
        <time>2024-05-20T08:20:34Z</time>
      </trkpt>
      <trkpt lat="43.53472" lon="0.9766">
        <ele>177</ele>
        <time>2024-05-20T08:20:35Z</time>
      </trkpt>
      <trkpt lat="43.53478" lon="0.9767">
        <ele>176.6</ele>
        <time>2024-05-20T08:20:36Z</time>
      </trkpt>
      <trkpt lat="43.53483" lon="0.97681">
        <ele>176.4</ele>
        <time>2024-05-20T08:20:37Z</time>
      </trkpt>
      <trkpt lat="43.53489" lon="0.97691">
        <ele>176.2</ele>
        <time>2024-05-20T08:20:38Z</time>
      </trkpt>
      <trkpt lat="43.53494" lon="0.97702">
        <ele>176.2</ele>
        <time>2024-05-20T08:20:39Z</time>
      </trkpt>
      <trkpt lat="43.535" lon="0.97712">
        <ele>176.2</ele>
        <time>2024-05-20T08:20:40Z</time>
      </trkpt>
      <trkpt lat="43.53506" lon="0.97723">
        <ele>176</ele>
        <time>2024-05-20T08:20:41Z</time>
      </trkpt>
      <trkpt lat="43.53512" lon="0.97733">
        <ele>176</ele>
        <time>2024-05-20T08:20:42Z</time>
      </trkpt>
      <trkpt lat="43.53518" lon="0.97744">
        <ele>175.8</ele>
        <time>2024-05-20T08:20:43Z</time>
      </trkpt>
      <trkpt lat="43.53524" lon="0.97755">
        <ele>175.4</ele>
        <time>2024-05-20T08:20:44Z</time>
      </trkpt>
      <trkpt lat="43.53531" lon="0.97767">
        <ele>175.2</ele>
        <time>2024-05-20T08:20:45Z</time>
      </trkpt>
      <trkpt lat="43.53537" lon="0.97778">
        <ele>175</ele>
        <time>2024-05-20T08:20:46Z</time>
      </trkpt>
      <trkpt lat="43.53544" lon="0.97789">
        <ele>174.8</ele>
        <time>2024-05-20T08:20:47Z</time>
      </trkpt>
      <trkpt lat="43.53551" lon="0.97801">
        <ele>174.2</ele>
        <time>2024-05-20T08:20:48Z</time>
      </trkpt>
      <trkpt lat="43.53559" lon="0.97812">
        <ele>174</ele>
        <time>2024-05-20T08:20:49Z</time>
      </trkpt>
      <trkpt lat="43.53566" lon="0.97822">
        <ele>173.8</ele>
        <time>2024-05-20T08:20:50Z</time>
      </trkpt>
      <trkpt lat="43.53574" lon="0.97831">
        <ele>173.4</ele>
        <time>2024-05-20T08:20:51Z</time>
      </trkpt>
      <trkpt lat="43.53584" lon="0.97842">
        <ele>173.2</ele>
        <time>2024-05-20T08:20:52Z</time>
      </trkpt>
      <trkpt lat="43.53591" lon="0.97847">
        <ele>172</ele>
        <time>2024-05-20T08:20:53Z</time>
      </trkpt>
      <trkpt lat="43.536" lon="0.97855">
        <ele>171.8</ele>
        <time>2024-05-20T08:20:54Z</time>
      </trkpt>
      <trkpt lat="43.53609" lon="0.97862">
        <ele>171.2</ele>
        <time>2024-05-20T08:20:55Z</time>
      </trkpt>
      <trkpt lat="43.53617" lon="0.97869">
        <ele>171.2</ele>
        <time>2024-05-20T08:20:56Z</time>
      </trkpt>
      <trkpt lat="43.53626" lon="0.97875">
        <ele>171</ele>
        <time>2024-05-20T08:20:57Z</time>
      </trkpt>
      <trkpt lat="43.53634" lon="0.97882">
        <ele>171</ele>
        <time>2024-05-20T08:20:58Z</time>
      </trkpt>
      <trkpt lat="43.53642" lon="0.97888">
        <ele>171</ele>
        <time>2024-05-20T08:20:59Z</time>
      </trkpt>
      <trkpt lat="43.5365" lon="0.97895">
        <ele>170.8</ele>
        <time>2024-05-20T08:21:00Z</time>
      </trkpt>
      <trkpt lat="43.53658" lon="0.97901">
        <ele>171</ele>
        <time>2024-05-20T08:21:01Z</time>
      </trkpt>
      <trkpt lat="43.53666" lon="0.97906">
        <ele>171.2</ele>
        <time>2024-05-20T08:21:02Z</time>
      </trkpt>
      <trkpt lat="43.53673" lon="0.97912">
        <ele>171.2</ele>
        <time>2024-05-20T08:21:03Z</time>
      </trkpt>
      <trkpt lat="43.53681" lon="0.97917">
        <ele>171.2</ele>
        <time>2024-05-20T08:21:04Z</time>
      </trkpt>
      <trkpt lat="43.53689" lon="0.97921">
        <ele>171.2</ele>
        <time>2024-05-20T08:21:05Z</time>
      </trkpt>
      <trkpt lat="43.53697" lon="0.97924">
        <ele>171.4</ele>
        <time>2024-05-20T08:21:06Z</time>
      </trkpt>
      <trkpt lat="43.53706" lon="0.97927">
        <ele>171.4</ele>
        <time>2024-05-20T08:21:07Z</time>
      </trkpt>
      <trkpt lat="43.53715" lon="0.97929">
        <ele>171.4</ele>
        <time>2024-05-20T08:21:08Z</time>
      </trkpt>
      <trkpt lat="43.53724" lon="0.97931">
        <ele>171.4</ele>
        <time>2024-05-20T08:21:09Z</time>
      </trkpt>
      <trkpt lat="43.53733" lon="0.97933">
        <ele>171.4</ele>
        <time>2024-05-20T08:21:10Z</time>
      </trkpt>
      <trkpt lat="43.53743" lon="0.97935">
        <ele>171.6</ele>
        <time>2024-05-20T08:21:11Z</time>
      </trkpt>
      <trkpt lat="43.5375" lon="0.97936">
        <ele>171.6</ele>
        <time>2024-05-20T08:21:12Z</time>
      </trkpt>
      <trkpt lat="43.53759" lon="0.97939">
        <ele>171.8</ele>
        <time>2024-05-20T08:21:13Z</time>
      </trkpt>
      <trkpt lat="43.53768" lon="0.97941">
        <ele>171.8</ele>
        <time>2024-05-20T08:21:14Z</time>
      </trkpt>
      <trkpt lat="43.53776" lon="0.97943">
        <ele>171.8</ele>
        <time>2024-05-20T08:21:15Z</time>
      </trkpt>
      <trkpt lat="43.53785" lon="0.97945">
        <ele>172</ele>
        <time>2024-05-20T08:21:16Z</time>
      </trkpt>
      <trkpt lat="43.53794" lon="0.97947">
        <ele>172</ele>
        <time>2024-05-20T08:21:17Z</time>
      </trkpt>
      <trkpt lat="43.53802" lon="0.97951">
        <ele>172.2</ele>
        <time>2024-05-20T08:21:18Z</time>
      </trkpt>
      <trkpt lat="43.53812" lon="0.97953">
        <ele>172.2</ele>
        <time>2024-05-20T08:21:19Z</time>
      </trkpt>
      <trkpt lat="43.5382" lon="0.97956">
        <ele>172.4</ele>
        <time>2024-05-20T08:21:20Z</time>
      </trkpt>
      <trkpt lat="43.53827" lon="0.97959">
        <ele>172.6</ele>
        <time>2024-05-20T08:21:21Z</time>
      </trkpt>
      <trkpt lat="43.53833" lon="0.97962">
        <ele>173</ele>
        <time>2024-05-20T08:21:22Z</time>
      </trkpt>
      <trkpt lat="43.53841" lon="0.97966">
        <ele>173.2</ele>
        <time>2024-05-20T08:21:23Z</time>
      </trkpt>
      <trkpt lat="43.53848" lon="0.97971">
        <ele>173.8</ele>
        <time>2024-05-20T08:21:24Z</time>
      </trkpt>
      <trkpt lat="43.53854" lon="0.97976">
        <ele>173.8</ele>
        <time>2024-05-20T08:21:25Z</time>
      </trkpt>
      <trkpt lat="43.53862" lon="0.97982">
        <ele>174.8</ele>
        <time>2024-05-20T08:21:26Z</time>
      </trkpt>
      <trkpt lat="43.53867" lon="0.97986">
        <ele>175.2</ele>
        <time>2024-05-20T08:21:27Z</time>
      </trkpt>
      <trkpt lat="43.53874" lon="0.97992">
        <ele>175.4</ele>
        <time>2024-05-20T08:21:28Z</time>
      </trkpt>
      <trkpt lat="43.5388" lon="0.97998">
        <ele>176</ele>
        <time>2024-05-20T08:21:29Z</time>
      </trkpt>
      <trkpt lat="43.53887" lon="0.98003">
        <ele>176.2</ele>
        <time>2024-05-20T08:21:30Z</time>
      </trkpt>
      <trkpt lat="43.53893" lon="0.98008">
        <ele>176.8</ele>
        <time>2024-05-20T08:21:31Z</time>
      </trkpt>
      <trkpt lat="43.53899" lon="0.98014">
        <ele>177.2</ele>
        <time>2024-05-20T08:21:32Z</time>
      </trkpt>
      <trkpt lat="43.53906" lon="0.98019">
        <ele>177.6</ele>
        <time>2024-05-20T08:21:33Z</time>
      </trkpt>
      <trkpt lat="43.53913" lon="0.98025">
        <ele>177.8</ele>
        <time>2024-05-20T08:21:34Z</time>
      </trkpt>
      <trkpt lat="43.5392" lon="0.98031">
        <ele>178</ele>
        <time>2024-05-20T08:21:35Z</time>
      </trkpt>
      <trkpt lat="43.53928" lon="0.98037">
        <ele>178.4</ele>
        <time>2024-05-20T08:21:36Z</time>
      </trkpt>
      <trkpt lat="43.53936" lon="0.98041">
        <ele>178.6</ele>
        <time>2024-05-20T08:21:37Z</time>
      </trkpt>
      <trkpt lat="43.53944" lon="0.98047">
        <ele>179</ele>
        <time>2024-05-20T08:21:38Z</time>
      </trkpt>
      <trkpt lat="43.53953" lon="0.98052">
        <ele>179</ele>
        <time>2024-05-20T08:21:39Z</time>
      </trkpt>
      <trkpt lat="43.53961" lon="0.98057">
        <ele>179.2</ele>
        <time>2024-05-20T08:21:40Z</time>
      </trkpt>
      <trkpt lat="43.53969" lon="0.98063">
        <ele>179.2</ele>
        <time>2024-05-20T08:21:41Z</time>
      </trkpt>
      <trkpt lat="43.53977" lon="0.98068">
        <ele>179.2</ele>
        <time>2024-05-20T08:21:42Z</time>
      </trkpt>
      <trkpt lat="43.53985" lon="0.98074">
        <ele>179.2</ele>
        <time>2024-05-20T08:21:43Z</time>
      </trkpt>
      <trkpt lat="43.53993" lon="0.9808">
        <ele>179.2</ele>
        <time>2024-05-20T08:21:44Z</time>
      </trkpt>
      <trkpt lat="43.54001" lon="0.98086">
        <ele>179</ele>
        <time>2024-05-20T08:21:45Z</time>
      </trkpt>
      <trkpt lat="43.54009" lon="0.98091">
        <ele>179</ele>
        <time>2024-05-20T08:21:46Z</time>
      </trkpt>
      <trkpt lat="43.54017" lon="0.98097">
        <ele>179</ele>
        <time>2024-05-20T08:21:47Z</time>
      </trkpt>
      <trkpt lat="43.54025" lon="0.98103">
        <ele>179</ele>
        <time>2024-05-20T08:21:48Z</time>
      </trkpt>
      <trkpt lat="43.54033" lon="0.98108">
        <ele>178.8</ele>
        <time>2024-05-20T08:21:49Z</time>
      </trkpt>
      <trkpt lat="43.54041" lon="0.98114">
        <ele>178.6</ele>
        <time>2024-05-20T08:21:50Z</time>
      </trkpt>
      <trkpt lat="43.54048" lon="0.98119">
        <ele>178.6</ele>
        <time>2024-05-20T08:21:51Z</time>
      </trkpt>
      <trkpt lat="43.54056" lon="0.98125">
        <ele>178.4</ele>
        <time>2024-05-20T08:21:52Z</time>
      </trkpt>
      <trkpt lat="43.54063" lon="0.9813">
        <ele>178.4</ele>
        <time>2024-05-20T08:21:53Z</time>
      </trkpt>
      <trkpt lat="43.54071" lon="0.98136">
        <ele>178.2</ele>
        <time>2024-05-20T08:21:54Z</time>
      </trkpt>
      <trkpt lat="43.54079" lon="0.9814">
        <ele>178</ele>
        <time>2024-05-20T08:21:55Z</time>
      </trkpt>
      <trkpt lat="43.54087" lon="0.98143">
        <ele>177.8</ele>
        <time>2024-05-20T08:21:56Z</time>
      </trkpt>
      <trkpt lat="43.54096" lon="0.98144">
        <ele>177.6</ele>
        <time>2024-05-20T08:21:57Z</time>
      </trkpt>
      <trkpt lat="43.54104" lon="0.98146">
        <ele>177.6</ele>
        <time>2024-05-20T08:21:58Z</time>
      </trkpt>
      <trkpt lat="43.54112" lon="0.98148">
        <ele>177.4</ele>
        <time>2024-05-20T08:21:59Z</time>
      </trkpt>
      <trkpt lat="43.54119" lon="0.98151">
        <ele>177.2</ele>
        <time>2024-05-20T08:22:00Z</time>
      </trkpt>
      <trkpt lat="43.54127" lon="0.98154">
        <ele>176.8</ele>
        <time>2024-05-20T08:22:01Z</time>
      </trkpt>
      <trkpt lat="43.54134" lon="0.98157">
        <ele>176.6</ele>
        <time>2024-05-20T08:22:02Z</time>
      </trkpt>
      <trkpt lat="43.54141" lon="0.9816">
        <ele>176.4</ele>
        <time>2024-05-20T08:22:03Z</time>
      </trkpt>
      <trkpt lat="43.54148" lon="0.98163">
        <ele>176.4</ele>
        <time>2024-05-20T08:22:04Z</time>
      </trkpt>
      <trkpt lat="43.54155" lon="0.98166">
        <ele>176.2</ele>
        <time>2024-05-20T08:22:05Z</time>
      </trkpt>
      <trkpt lat="43.54163" lon="0.98168">
        <ele>176.2</ele>
        <time>2024-05-20T08:22:06Z</time>
      </trkpt>
      <trkpt lat="43.54172" lon="0.98171">
        <ele>176</ele>
        <time>2024-05-20T08:22:07Z</time>
      </trkpt>
      <trkpt lat="43.54181" lon="0.98173">
        <ele>175.4</ele>
        <time>2024-05-20T08:22:08Z</time>
      </trkpt>
      <trkpt lat="43.5419" lon="0.98175">
        <ele>175</ele>
        <time>2024-05-20T08:22:09Z</time>
      </trkpt>
      <trkpt lat="43.542" lon="0.98178">
        <ele>174.2</ele>
        <time>2024-05-20T08:22:10Z</time>
      </trkpt>
      <trkpt lat="43.54209" lon="0.9818">
        <ele>174</ele>
        <time>2024-05-20T08:22:11Z</time>
      </trkpt>
      <trkpt lat="43.54219" lon="0.98181">
        <ele>173.6</ele>
        <time>2024-05-20T08:22:12Z</time>
      </trkpt>
      <trkpt lat="43.54228" lon="0.98182">
        <ele>172.8</ele>
        <time>2024-05-20T08:22:13Z</time>
      </trkpt>
      <trkpt lat="43.54239" lon="0.98181">
        <ele>171.8</ele>
        <time>2024-05-20T08:22:14Z</time>
      </trkpt>
      <trkpt lat="43.54248" lon="0.9818">
        <ele>171.2</ele>
        <time>2024-05-20T08:22:15Z</time>
      </trkpt>
      <trkpt lat="43.54258" lon="0.98179">
        <ele>170.8</ele>
        <time>2024-05-20T08:22:16Z</time>
      </trkpt>
      <trkpt lat="43.54267" lon="0.98181">
        <ele>170.4</ele>
        <time>2024-05-20T08:22:17Z</time>
      </trkpt>
      <trkpt lat="43.54276" lon="0.98183">
        <ele>170</ele>
        <time>2024-05-20T08:22:18Z</time>
      </trkpt>
      <trkpt lat="43.54285" lon="0.98187">
        <ele>169.4</ele>
        <time>2024-05-20T08:22:19Z</time>
      </trkpt>
      <trkpt lat="43.54293" lon="0.98192">
        <ele>169.2</ele>
        <time>2024-05-20T08:22:20Z</time>
      </trkpt>
      <trkpt lat="43.54301" lon="0.98197">
        <ele>169</ele>
        <time>2024-05-20T08:22:21Z</time>
      </trkpt>
      <trkpt lat="43.54308" lon="0.98203">
        <ele>169</ele>
        <time>2024-05-20T08:22:22Z</time>
      </trkpt>
      <trkpt lat="43.54314" lon="0.98209">
        <ele>169</ele>
        <time>2024-05-20T08:22:23Z</time>
      </trkpt>
      <trkpt lat="43.5432" lon="0.98216">
        <ele>169</ele>
        <time>2024-05-20T08:22:24Z</time>
      </trkpt>
      <trkpt lat="43.54326" lon="0.98223">
        <ele>169</ele>
        <time>2024-05-20T08:22:25Z</time>
      </trkpt>
      <trkpt lat="43.54331" lon="0.9823">
        <ele>169.2</ele>
        <time>2024-05-20T08:22:26Z</time>
      </trkpt>
      <trkpt lat="43.54336" lon="0.98237">
        <ele>169.2</ele>
        <time>2024-05-20T08:22:27Z</time>
      </trkpt>
      <trkpt lat="43.54339" lon="0.98245">
        <ele>169.4</ele>
        <time>2024-05-20T08:22:28Z</time>
      </trkpt>
      <trkpt lat="43.54342" lon="0.98253">
        <ele>169.6</ele>
        <time>2024-05-20T08:22:29Z</time>
      </trkpt>
      <trkpt lat="43.54345" lon="0.98264">
        <ele>169.8</ele>
        <time>2024-05-20T08:22:30Z</time>
      </trkpt>
      <trkpt lat="43.54347" lon="0.98271">
        <ele>169.8</ele>
        <time>2024-05-20T08:22:31Z</time>
      </trkpt>
      <trkpt lat="43.54348" lon="0.9828">
        <ele>170.2</ele>
        <time>2024-05-20T08:22:32Z</time>
      </trkpt>
      <trkpt lat="43.54349" lon="0.98289">
        <ele>170.8</ele>
        <time>2024-05-20T08:22:33Z</time>
      </trkpt>
      <trkpt lat="43.5435" lon="0.98297">
        <ele>171</ele>
        <time>2024-05-20T08:22:34Z</time>
      </trkpt>
      <trkpt lat="43.54351" lon="0.98308">
        <ele>171.6</ele>
        <time>2024-05-20T08:22:35Z</time>
      </trkpt>
      <trkpt lat="43.54352" lon="0.98317">
        <ele>171.6</ele>
        <time>2024-05-20T08:22:36Z</time>
      </trkpt>
      <trkpt lat="43.54352" lon="0.98327">
        <ele>172</ele>
        <time>2024-05-20T08:22:37Z</time>
      </trkpt>
      <trkpt lat="43.54353" lon="0.98337">
        <ele>172.2</ele>
        <time>2024-05-20T08:22:38Z</time>
      </trkpt>
      <trkpt lat="43.54354" lon="0.98347">
        <ele>172.6</ele>
        <time>2024-05-20T08:22:39Z</time>
      </trkpt>
      <trkpt lat="43.54354" lon="0.98359">
        <ele>172.8</ele>
        <time>2024-05-20T08:22:40Z</time>
      </trkpt>
      <trkpt lat="43.54355" lon="0.98367">
        <ele>173</ele>
        <time>2024-05-20T08:22:41Z</time>
      </trkpt>
      <trkpt lat="43.54355" lon="0.98378">
        <ele>173.2</ele>
        <time>2024-05-20T08:22:42Z</time>
      </trkpt>
      <trkpt lat="43.54355" lon="0.98388">
        <ele>173.2</ele>
        <time>2024-05-20T08:22:43Z</time>
      </trkpt>
      <trkpt lat="43.54356" lon="0.98397">
        <ele>173.4</ele>
        <time>2024-05-20T08:22:44Z</time>
      </trkpt>
      <trkpt lat="43.54356" lon="0.98407">
        <ele>173.4</ele>
        <time>2024-05-20T08:22:45Z</time>
      </trkpt>
      <trkpt lat="43.54357" lon="0.98418">
        <ele>173.4</ele>
        <time>2024-05-20T08:22:46Z</time>
      </trkpt>
      <trkpt lat="43.54357" lon="0.98429">
        <ele>173.4</ele>
        <time>2024-05-20T08:22:47Z</time>
      </trkpt>
      <trkpt lat="43.54357" lon="0.98441">
        <ele>173.6</ele>
        <time>2024-05-20T08:22:48Z</time>
      </trkpt>
      <trkpt lat="43.54357" lon="0.98452">
        <ele>173.6</ele>
        <time>2024-05-20T08:22:49Z</time>
      </trkpt>
      <trkpt lat="43.54357" lon="0.98464">
        <ele>173.6</ele>
        <time>2024-05-20T08:22:50Z</time>
      </trkpt>
      <trkpt lat="43.54356" lon="0.98475">
        <ele>173.6</ele>
        <time>2024-05-20T08:22:51Z</time>
      </trkpt>
      <trkpt lat="43.54356" lon="0.98487">
        <ele>173.6</ele>
        <time>2024-05-20T08:22:52Z</time>
      </trkpt>
      <trkpt lat="43.54355" lon="0.985">
        <ele>173.6</ele>
        <time>2024-05-20T08:22:53Z</time>
      </trkpt>
      <trkpt lat="43.54355" lon="0.98513">
        <ele>173.6</ele>
        <time>2024-05-20T08:22:54Z</time>
      </trkpt>
      <trkpt lat="43.54356" lon="0.98528">
        <ele>173.4</ele>
        <time>2024-05-20T08:22:55Z</time>
      </trkpt>
      <trkpt lat="43.54357" lon="0.98538">
        <ele>173.4</ele>
        <time>2024-05-20T08:22:56Z</time>
      </trkpt>
      <trkpt lat="43.54358" lon="0.9855">
        <ele>173.2</ele>
        <time>2024-05-20T08:22:57Z</time>
      </trkpt>
      <trkpt lat="43.5436" lon="0.98563">
        <ele>173</ele>
        <time>2024-05-20T08:22:58Z</time>
      </trkpt>
      <trkpt lat="43.54362" lon="0.98575">
        <ele>173</ele>
        <time>2024-05-20T08:22:59Z</time>
      </trkpt>
      <trkpt lat="43.54364" lon="0.98588">
        <ele>172.8</ele>
        <time>2024-05-20T08:23:00Z</time>
      </trkpt>
      <trkpt lat="43.54366" lon="0.98601">
        <ele>172.8</ele>
        <time>2024-05-20T08:23:01Z</time>
      </trkpt>
      <trkpt lat="43.54368" lon="0.98614">
        <ele>172.6</ele>
        <time>2024-05-20T08:23:02Z</time>
      </trkpt>
      <trkpt lat="43.5437" lon="0.98626">
        <ele>172.4</ele>
        <time>2024-05-20T08:23:03Z</time>
      </trkpt>
      <trkpt lat="43.54373" lon="0.98638">
        <ele>172.2</ele>
        <time>2024-05-20T08:23:04Z</time>
      </trkpt>
      <trkpt lat="43.54377" lon="0.9865">
        <ele>172</ele>
        <time>2024-05-20T08:23:05Z</time>
      </trkpt>
      <trkpt lat="43.54382" lon="0.98659">
        <ele>171.8</ele>
        <time>2024-05-20T08:23:06Z</time>
      </trkpt>
      <trkpt lat="43.54387" lon="0.98668">
        <ele>171.8</ele>
        <time>2024-05-20T08:23:07Z</time>
      </trkpt>
      <trkpt lat="43.54394" lon="0.98677">
        <ele>171.8</ele>
        <time>2024-05-20T08:23:08Z</time>
      </trkpt>
      <trkpt lat="43.54401" lon="0.98686">
        <ele>171.6</ele>
        <time>2024-05-20T08:23:09Z</time>
      </trkpt>
      <trkpt lat="43.54408" lon="0.98693">
        <ele>171.6</ele>
        <time>2024-05-20T08:23:10Z</time>
      </trkpt>
      <trkpt lat="43.54414" lon="0.98701">
        <ele>171.6</ele>
        <time>2024-05-20T08:23:11Z</time>
      </trkpt>
      <trkpt lat="43.54421" lon="0.98708">
        <ele>171.6</ele>
        <time>2024-05-20T08:23:12Z</time>
      </trkpt>
      <trkpt lat="43.54427" lon="0.98715">
        <ele>171.8</ele>
        <time>2024-05-20T08:23:13Z</time>
      </trkpt>
      <trkpt lat="43.54433" lon="0.98722">
        <ele>171.8</ele>
        <time>2024-05-20T08:23:14Z</time>
      </trkpt>
      <trkpt lat="43.54438" lon="0.9873">
        <ele>171.8</ele>
        <time>2024-05-20T08:23:15Z</time>
      </trkpt>
      <trkpt lat="43.54444" lon="0.98737">
        <ele>172</ele>
        <time>2024-05-20T08:23:16Z</time>
      </trkpt>
      <trkpt lat="43.54449" lon="0.98745">
        <ele>172.2</ele>
        <time>2024-05-20T08:23:17Z</time>
      </trkpt>
      <trkpt lat="43.54455" lon="0.98754">
        <ele>172.4</ele>
        <time>2024-05-20T08:23:18Z</time>
      </trkpt>
      <trkpt lat="43.5446" lon="0.98764">
        <ele>172.6</ele>
        <time>2024-05-20T08:23:19Z</time>
      </trkpt>
      <trkpt lat="43.54465" lon="0.98773">
        <ele>173</ele>
        <time>2024-05-20T08:23:20Z</time>
      </trkpt>
      <trkpt lat="43.54469" lon="0.98782">
        <ele>173.2</ele>
        <time>2024-05-20T08:23:21Z</time>
      </trkpt>
      <trkpt lat="43.54474" lon="0.98791">
        <ele>173.4</ele>
        <time>2024-05-20T08:23:22Z</time>
      </trkpt>
      <trkpt lat="43.54479" lon="0.988">
        <ele>173.6</ele>
        <time>2024-05-20T08:23:23Z</time>
      </trkpt>
      <trkpt lat="43.54484" lon="0.98809">
        <ele>173.6</ele>
        <time>2024-05-20T08:23:24Z</time>
      </trkpt>
      <trkpt lat="43.54489" lon="0.98818">
        <ele>173.6</ele>
        <time>2024-05-20T08:23:25Z</time>
      </trkpt>
      <trkpt lat="43.54494" lon="0.98828">
        <ele>173.6</ele>
        <time>2024-05-20T08:23:26Z</time>
      </trkpt>
      <trkpt lat="43.545" lon="0.98838">
        <ele>173.6</ele>
        <time>2024-05-20T08:23:27Z</time>
      </trkpt>
      <trkpt lat="43.54506" lon="0.98848">
        <ele>173.6</ele>
        <time>2024-05-20T08:23:28Z</time>
      </trkpt>
      <trkpt lat="43.54511" lon="0.98859">
        <ele>173.6</ele>
        <time>2024-05-20T08:23:29Z</time>
      </trkpt>
      <trkpt lat="43.54511" lon="0.98859">
        <ele>173.4</ele>
        <time>2024-05-20T08:23:30Z</time>
      </trkpt>
      <trkpt lat="43.54523" lon="0.98879">
        <ele>173.2</ele>
        <time>2024-05-20T08:23:31Z</time>
      </trkpt>
      <trkpt lat="43.54529" lon="0.98889">
        <ele>173</ele>
        <time>2024-05-20T08:23:32Z</time>
      </trkpt>
      <trkpt lat="43.54535" lon="0.98899">
        <ele>172.8</ele>
        <time>2024-05-20T08:23:33Z</time>
      </trkpt>
      <trkpt lat="43.54541" lon="0.98908">
        <ele>172.2</ele>
        <time>2024-05-20T08:23:34Z</time>
      </trkpt>
      <trkpt lat="43.54547" lon="0.98918">
        <ele>172</ele>
        <time>2024-05-20T08:23:35Z</time>
      </trkpt>
      <trkpt lat="43.54553" lon="0.98929">
        <ele>171.8</ele>
        <time>2024-05-20T08:23:36Z</time>
      </trkpt>
      <trkpt lat="43.54558" lon="0.98939">
        <ele>171.6</ele>
        <time>2024-05-20T08:23:37Z</time>
      </trkpt>
      <trkpt lat="43.54564" lon="0.98948">
        <ele>171.4</ele>
        <time>2024-05-20T08:23:38Z</time>
      </trkpt>
      <trkpt lat="43.54569" lon="0.98958">
        <ele>171.2</ele>
        <time>2024-05-20T08:23:39Z</time>
      </trkpt>
      <trkpt lat="43.54576" lon="0.98968">
        <ele>171.2</ele>
        <time>2024-05-20T08:23:40Z</time>
      </trkpt>
      <trkpt lat="43.54582" lon="0.98978">
        <ele>171</ele>
        <time>2024-05-20T08:23:41Z</time>
      </trkpt>
      <trkpt lat="43.54588" lon="0.98989">
        <ele>171</ele>
        <time>2024-05-20T08:23:42Z</time>
      </trkpt>
      <trkpt lat="43.54594" lon="0.98999">
        <ele>170.8</ele>
        <time>2024-05-20T08:23:43Z</time>
      </trkpt>
      <trkpt lat="43.546" lon="0.9901">
        <ele>170.8</ele>
        <time>2024-05-20T08:23:44Z</time>
      </trkpt>
      <trkpt lat="43.54605" lon="0.99021">
        <ele>170.6</ele>
        <time>2024-05-20T08:23:45Z</time>
      </trkpt>
      <trkpt lat="43.5461" lon="0.99032">
        <ele>170.4</ele>
        <time>2024-05-20T08:23:46Z</time>
      </trkpt>
      <trkpt lat="43.54616" lon="0.99044">
        <ele>170.4</ele>
        <time>2024-05-20T08:23:47Z</time>
      </trkpt>
      <trkpt lat="43.54622" lon="0.99054">
        <ele>170.2</ele>
        <time>2024-05-20T08:23:48Z</time>
      </trkpt>
      <trkpt lat="43.54627" lon="0.99064">
        <ele>170.2</ele>
        <time>2024-05-20T08:23:49Z</time>
      </trkpt>
      <trkpt lat="43.54632" lon="0.99074">
        <ele>170</ele>
        <time>2024-05-20T08:23:50Z</time>
      </trkpt>
      <trkpt lat="43.54636" lon="0.99085">
        <ele>170</ele>
        <time>2024-05-20T08:23:51Z</time>
      </trkpt>
      <trkpt lat="43.54642" lon="0.99097">
        <ele>169.6</ele>
        <time>2024-05-20T08:23:52Z</time>
      </trkpt>
      <trkpt lat="43.54647" lon="0.9911">
        <ele>169.6</ele>
        <time>2024-05-20T08:23:53Z</time>
      </trkpt>
      <trkpt lat="43.54652" lon="0.99121">
        <ele>169.4</ele>
        <time>2024-05-20T08:23:54Z</time>
      </trkpt>
      <trkpt lat="43.54657" lon="0.99133">
        <ele>169.4</ele>
        <time>2024-05-20T08:23:55Z</time>
      </trkpt>
      <trkpt lat="43.54664" lon="0.99144">
        <ele>169.4</ele>
        <time>2024-05-20T08:23:56Z</time>
      </trkpt>
      <trkpt lat="43.5467" lon="0.99155">
        <ele>169.4</ele>
        <time>2024-05-20T08:23:57Z</time>
      </trkpt>
      <trkpt lat="43.54676" lon="0.99164">
        <ele>169.2</ele>
        <time>2024-05-20T08:23:58Z</time>
      </trkpt>
      <trkpt lat="43.54681" lon="0.99172">
        <ele>169.2</ele>
        <time>2024-05-20T08:23:59Z</time>
      </trkpt>
      <trkpt lat="43.54687" lon="0.99181">
        <ele>168.8</ele>
        <time>2024-05-20T08:24:00Z</time>
      </trkpt>
      <trkpt lat="43.54693" lon="0.99189">
        <ele>168.8</ele>
        <time>2024-05-20T08:24:01Z</time>
      </trkpt>
      <trkpt lat="43.54699" lon="0.99198">
        <ele>168.8</ele>
        <time>2024-05-20T08:24:02Z</time>
      </trkpt>
      <trkpt lat="43.54706" lon="0.99208">
        <ele>168.6</ele>
        <time>2024-05-20T08:24:03Z</time>
      </trkpt>
      <trkpt lat="43.54713" lon="0.99217">
        <ele>168.8</ele>
        <time>2024-05-20T08:24:04Z</time>
      </trkpt>
      <trkpt lat="43.54719" lon="0.99227">
        <ele>168.6</ele>
        <time>2024-05-20T08:24:05Z</time>
      </trkpt>
      <trkpt lat="43.54726" lon="0.99237">
        <ele>168.6</ele>
        <time>2024-05-20T08:24:06Z</time>
      </trkpt>
      <trkpt lat="43.54732" lon="0.99247">
        <ele>168.6</ele>
        <time>2024-05-20T08:24:07Z</time>
      </trkpt>
      <trkpt lat="43.54739" lon="0.99256">
        <ele>168.4</ele>
        <time>2024-05-20T08:24:08Z</time>
      </trkpt>
      <trkpt lat="43.54745" lon="0.99265">
        <ele>168.4</ele>
        <time>2024-05-20T08:24:09Z</time>
      </trkpt>
      <trkpt lat="43.54751" lon="0.99274">
        <ele>168.4</ele>
        <time>2024-05-20T08:24:10Z</time>
      </trkpt>
      <trkpt lat="43.54757" lon="0.99284">
        <ele>168.4</ele>
        <time>2024-05-20T08:24:11Z</time>
      </trkpt>
      <trkpt lat="43.54763" lon="0.99293">
        <ele>168.4</ele>
        <time>2024-05-20T08:24:12Z</time>
      </trkpt>
      <trkpt lat="43.5477" lon="0.99302">
        <ele>168.2</ele>
        <time>2024-05-20T08:24:13Z</time>
      </trkpt>
      <trkpt lat="43.54776" lon="0.99311">
        <ele>168</ele>
        <time>2024-05-20T08:24:14Z</time>
      </trkpt>
      <trkpt lat="43.54782" lon="0.99319">
        <ele>168</ele>
        <time>2024-05-20T08:24:15Z</time>
      </trkpt>
      <trkpt lat="43.54789" lon="0.99329">
        <ele>168</ele>
        <time>2024-05-20T08:24:16Z</time>
      </trkpt>
      <trkpt lat="43.54796" lon="0.99341">
        <ele>168</ele>
        <time>2024-05-20T08:24:17Z</time>
      </trkpt>
      <trkpt lat="43.54803" lon="0.99351">
        <ele>168</ele>
        <time>2024-05-20T08:24:18Z</time>
      </trkpt>
      <trkpt lat="43.54809" lon="0.99361">
        <ele>168</ele>
        <time>2024-05-20T08:24:19Z</time>
      </trkpt>
      <trkpt lat="43.54815" lon="0.99371">
        <ele>168</ele>
        <time>2024-05-20T08:24:20Z</time>
      </trkpt>
      <trkpt lat="43.54822" lon="0.99381">
        <ele>168</ele>
        <time>2024-05-20T08:24:21Z</time>
      </trkpt>
      <trkpt lat="43.54828" lon="0.9939">
        <ele>168</ele>
        <time>2024-05-20T08:24:22Z</time>
      </trkpt>
      <trkpt lat="43.54835" lon="0.99398">
        <ele>168</ele>
        <time>2024-05-20T08:24:23Z</time>
      </trkpt>
      <trkpt lat="43.54841" lon="0.99405">
        <ele>168</ele>
        <time>2024-05-20T08:24:24Z</time>
      </trkpt>
      <trkpt lat="43.54848" lon="0.99414">
        <ele>168</ele>
        <time>2024-05-20T08:24:25Z</time>
      </trkpt>
      <trkpt lat="43.54856" lon="0.99424">
        <ele>168</ele>
        <time>2024-05-20T08:24:26Z</time>
      </trkpt>
      <trkpt lat="43.54864" lon="0.99435">
        <ele>168</ele>
        <time>2024-05-20T08:24:27Z</time>
      </trkpt>
      <trkpt lat="43.5487" lon="0.99442">
        <ele>168.2</ele>
        <time>2024-05-20T08:24:28Z</time>
      </trkpt>
      <trkpt lat="43.54877" lon="0.9945">
        <ele>168.2</ele>
        <time>2024-05-20T08:24:29Z</time>
      </trkpt>
      <trkpt lat="43.54884" lon="0.99458">
        <ele>168.2</ele>
        <time>2024-05-20T08:24:30Z</time>
      </trkpt>
      <trkpt lat="43.54892" lon="0.99469">
        <ele>168.2</ele>
        <time>2024-05-20T08:24:31Z</time>
      </trkpt>
      <trkpt lat="43.54898" lon="0.99476">
        <ele>168.2</ele>
        <time>2024-05-20T08:24:32Z</time>
      </trkpt>
      <trkpt lat="43.54906" lon="0.99483">
        <ele>168.2</ele>
        <time>2024-05-20T08:24:33Z</time>
      </trkpt>
      <trkpt lat="43.54914" lon="0.99492">
        <ele>168.2</ele>
        <time>2024-05-20T08:24:34Z</time>
      </trkpt>
      <trkpt lat="43.54921" lon="0.995">
        <ele>168.2</ele>
        <time>2024-05-20T08:24:35Z</time>
      </trkpt>
      <trkpt lat="43.54929" lon="0.99511">
        <ele>168.2</ele>
        <time>2024-05-20T08:24:36Z</time>
      </trkpt>
      <trkpt lat="43.54936" lon="0.99519">
        <ele>168.2</ele>
        <time>2024-05-20T08:24:37Z</time>
      </trkpt>
      <trkpt lat="43.54942" lon="0.99525">
        <ele>168.2</ele>
        <time>2024-05-20T08:24:38Z</time>
      </trkpt>
      <trkpt lat="43.5495" lon="0.99534">
        <ele>168.2</ele>
        <time>2024-05-20T08:24:39Z</time>
      </trkpt>
      <trkpt lat="43.54956" lon="0.99542">
        <ele>168.2</ele>
        <time>2024-05-20T08:24:40Z</time>
      </trkpt>
      <trkpt lat="43.54963" lon="0.9955">
        <ele>168</ele>
        <time>2024-05-20T08:24:41Z</time>
      </trkpt>
      <trkpt lat="43.54969" lon="0.99556">
        <ele>168</ele>
        <time>2024-05-20T08:24:42Z</time>
      </trkpt>
      <trkpt lat="43.54976" lon="0.99564">
        <ele>168</ele>
        <time>2024-05-20T08:24:43Z</time>
      </trkpt>
      <trkpt lat="43.54984" lon="0.99571">
        <ele>168</ele>
        <time>2024-05-20T08:24:44Z</time>
      </trkpt>
      <trkpt lat="43.54993" lon="0.99581">
        <ele>168</ele>
        <time>2024-05-20T08:24:45Z</time>
      </trkpt>
      <trkpt lat="43.55" lon="0.99589">
        <ele>168</ele>
        <time>2024-05-20T08:24:46Z</time>
      </trkpt>
      <trkpt lat="43.55006" lon="0.99596">
        <ele>167.8</ele>
        <time>2024-05-20T08:24:47Z</time>
      </trkpt>
      <trkpt lat="43.55013" lon="0.99603">
        <ele>167.8</ele>
        <time>2024-05-20T08:24:48Z</time>
      </trkpt>
      <trkpt lat="43.55022" lon="0.99613">
        <ele>168</ele>
        <time>2024-05-20T08:24:49Z</time>
      </trkpt>
      <trkpt lat="43.55029" lon="0.99621">
        <ele>168</ele>
        <time>2024-05-20T08:24:50Z</time>
      </trkpt>
      <trkpt lat="43.55037" lon="0.99628">
        <ele>168</ele>
        <time>2024-05-20T08:24:51Z</time>
      </trkpt>
      <trkpt lat="43.55043" lon="0.99635">
        <ele>168.2</ele>
        <time>2024-05-20T08:24:52Z</time>
      </trkpt>
      <trkpt lat="43.55052" lon="0.99644">
        <ele>168</ele>
        <time>2024-05-20T08:24:53Z</time>
      </trkpt>
      <trkpt lat="43.5506" lon="0.99652">
        <ele>168</ele>
        <time>2024-05-20T08:24:54Z</time>
      </trkpt>
      <trkpt lat="43.55067" lon="0.99659">
        <ele>168</ele>
        <time>2024-05-20T08:24:55Z</time>
      </trkpt>
      <trkpt lat="43.55075" lon="0.99667">
        <ele>168</ele>
        <time>2024-05-20T08:24:56Z</time>
      </trkpt>
      <trkpt lat="43.5508" lon="0.99673">
        <ele>168</ele>
        <time>2024-05-20T08:24:57Z</time>
      </trkpt>
      <trkpt lat="43.55088" lon="0.9968">
        <ele>168.2</ele>
        <time>2024-05-20T08:24:58Z</time>
      </trkpt>
      <trkpt lat="43.55096" lon="0.99688">
        <ele>168.2</ele>
        <time>2024-05-20T08:24:59Z</time>
      </trkpt>
      <trkpt lat="43.55103" lon="0.99695">
        <ele>168.4</ele>
        <time>2024-05-20T08:25:00Z</time>
      </trkpt>
      <trkpt lat="43.5511" lon="0.99701">
        <ele>168.4</ele>
        <time>2024-05-20T08:25:01Z</time>
      </trkpt>
      <trkpt lat="43.55116" lon="0.99706">
        <ele>168.4</ele>
        <time>2024-05-20T08:25:02Z</time>
      </trkpt>
      <trkpt lat="43.55124" lon="0.99714">
        <ele>168.4</ele>
        <time>2024-05-20T08:25:03Z</time>
      </trkpt>
      <trkpt lat="43.55132" lon="0.99722">
        <ele>168.4</ele>
        <time>2024-05-20T08:25:04Z</time>
      </trkpt>
      <trkpt lat="43.55139" lon="0.9973">
        <ele>168.6</ele>
        <time>2024-05-20T08:25:05Z</time>
      </trkpt>
      <trkpt lat="43.55147" lon="0.99737">
        <ele>168.6</ele>
        <time>2024-05-20T08:25:06Z</time>
      </trkpt>
      <trkpt lat="43.55154" lon="0.99744">
        <ele>168.6</ele>
        <time>2024-05-20T08:25:07Z</time>
      </trkpt>
      <trkpt lat="43.5516" lon="0.99749">
        <ele>168.8</ele>
        <time>2024-05-20T08:25:08Z</time>
      </trkpt>
      <trkpt lat="43.55167" lon="0.99756">
        <ele>168.8</ele>
        <time>2024-05-20T08:25:09Z</time>
      </trkpt>
      <trkpt lat="43.55175" lon="0.99765">
        <ele>169</ele>
        <time>2024-05-20T08:25:10Z</time>
      </trkpt>
      <trkpt lat="43.55183" lon="0.99772">
        <ele>169</ele>
        <time>2024-05-20T08:25:11Z</time>
      </trkpt>
      <trkpt lat="43.5519" lon="0.9978">
        <ele>169</ele>
        <time>2024-05-20T08:25:12Z</time>
      </trkpt>
      <trkpt lat="43.55196" lon="0.99785">
        <ele>169</ele>
        <time>2024-05-20T08:25:13Z</time>
      </trkpt>
      <trkpt lat="43.55203" lon="0.99792">
        <ele>169</ele>
        <time>2024-05-20T08:25:14Z</time>
      </trkpt>
      <trkpt lat="43.55212" lon="0.998">
        <ele>169</ele>
        <time>2024-05-20T08:25:15Z</time>
      </trkpt>
      <trkpt lat="43.5522" lon="0.99808">
        <ele>169.2</ele>
        <time>2024-05-20T08:25:16Z</time>
      </trkpt>
      <trkpt lat="43.55227" lon="0.99816">
        <ele>169.2</ele>
        <time>2024-05-20T08:25:17Z</time>
      </trkpt>
      <trkpt lat="43.55233" lon="0.99822">
        <ele>169.2</ele>
        <time>2024-05-20T08:25:18Z</time>
      </trkpt>
      <trkpt lat="43.55242" lon="0.99832">
        <ele>169.4</ele>
        <time>2024-05-20T08:25:19Z</time>
      </trkpt>
      <trkpt lat="43.55249" lon="0.9984">
        <ele>169.4</ele>
        <time>2024-05-20T08:25:20Z</time>
      </trkpt>
      <trkpt lat="43.55256" lon="0.99848">
        <ele>169.2</ele>
        <time>2024-05-20T08:25:21Z</time>
      </trkpt>
      <trkpt lat="43.55264" lon="0.99856">
        <ele>169</ele>
        <time>2024-05-20T08:25:22Z</time>
      </trkpt>
      <trkpt lat="43.55271" lon="0.99864">
        <ele>169</ele>
        <time>2024-05-20T08:25:23Z</time>
      </trkpt>
      <trkpt lat="43.55277" lon="0.99872">
        <ele>169</ele>
        <time>2024-05-20T08:25:24Z</time>
      </trkpt>
      <trkpt lat="43.55283" lon="0.9988">
        <ele>169</ele>
        <time>2024-05-20T08:25:25Z</time>
      </trkpt>
      <trkpt lat="43.5529" lon="0.99888">
        <ele>169</ele>
        <time>2024-05-20T08:25:26Z</time>
      </trkpt>
      <trkpt lat="43.55295" lon="0.99894">
        <ele>169</ele>
        <time>2024-05-20T08:25:27Z</time>
      </trkpt>
      <trkpt lat="43.55301" lon="0.99903">
        <ele>168.8</ele>
        <time>2024-05-20T08:25:28Z</time>
      </trkpt>
      <trkpt lat="43.5531" lon="0.99914">
        <ele>168.8</ele>
        <time>2024-05-20T08:25:29Z</time>
      </trkpt>
      <trkpt lat="43.55317" lon="0.99924">
        <ele>168.8</ele>
        <time>2024-05-20T08:25:30Z</time>
      </trkpt>
      <trkpt lat="43.55323" lon="0.99932">
        <ele>168.8</ele>
        <time>2024-05-20T08:25:31Z</time>
      </trkpt>
      <trkpt lat="43.55329" lon="0.9994">
        <ele>168.8</ele>
        <time>2024-05-20T08:25:32Z</time>
      </trkpt>
      <trkpt lat="43.55337" lon="0.99949">
        <ele>168.6</ele>
        <time>2024-05-20T08:25:33Z</time>
      </trkpt>
      <trkpt lat="43.55345" lon="0.99961">
        <ele>168.6</ele>
        <time>2024-05-20T08:25:34Z</time>
      </trkpt>
      <trkpt lat="43.55353" lon="0.99971">
        <ele>168.6</ele>
        <time>2024-05-20T08:25:35Z</time>
      </trkpt>
      <trkpt lat="43.5536" lon="0.99981">
        <ele>168.4</ele>
        <time>2024-05-20T08:25:36Z</time>
      </trkpt>
      <trkpt lat="43.55367" lon="0.99989">
        <ele>168.4</ele>
        <time>2024-05-20T08:25:37Z</time>
      </trkpt>
      <trkpt lat="43.55375" lon="1">
        <ele>168.4</ele>
        <time>2024-05-20T08:25:38Z</time>
      </trkpt>
      <trkpt lat="43.55383" lon="1.00011">
        <ele>168.2</ele>
        <time>2024-05-20T08:25:39Z</time>
      </trkpt>
      <trkpt lat="43.5539" lon="1.00021">
        <ele>168.2</ele>
        <time>2024-05-20T08:25:40Z</time>
      </trkpt>
      <trkpt lat="43.55397" lon="1.00031">
        <ele>168.2</ele>
        <time>2024-05-20T08:25:41Z</time>
      </trkpt>
      <trkpt lat="43.55404" lon="1.00039">
        <ele>168</ele>
        <time>2024-05-20T08:25:42Z</time>
      </trkpt>
      <trkpt lat="43.55411" lon="1.00049">
        <ele>168</ele>
        <time>2024-05-20T08:25:43Z</time>
      </trkpt>
      <trkpt lat="43.5542" lon="1.00061">
        <ele>168</ele>
        <time>2024-05-20T08:25:44Z</time>
      </trkpt>
      <trkpt lat="43.55428" lon="1.00071">
        <ele>167.8</ele>
        <time>2024-05-20T08:25:45Z</time>
      </trkpt>
      <trkpt lat="43.55435" lon="1.0008">
        <ele>167.8</ele>
        <time>2024-05-20T08:25:46Z</time>
      </trkpt>
      <trkpt lat="43.55441" lon="1.00088">
        <ele>167.8</ele>
        <time>2024-05-20T08:25:47Z</time>
      </trkpt>
      <trkpt lat="43.55448" lon="1.00098">
        <ele>167.6</ele>
        <time>2024-05-20T08:25:48Z</time>
      </trkpt>
      <trkpt lat="43.55455" lon="1.00107">
        <ele>167.4</ele>
        <time>2024-05-20T08:25:49Z</time>
      </trkpt>
      <trkpt lat="43.55463" lon="1.00117">
        <ele>167.4</ele>
        <time>2024-05-20T08:25:50Z</time>
      </trkpt>
      <trkpt lat="43.5547" lon="1.00127">
        <ele>167.2</ele>
        <time>2024-05-20T08:25:51Z</time>
      </trkpt>
      <trkpt lat="43.55478" lon="1.00137">
        <ele>167.2</ele>
        <time>2024-05-20T08:25:52Z</time>
      </trkpt>
      <trkpt lat="43.55485" lon="1.00147">
        <ele>167</ele>
        <time>2024-05-20T08:25:53Z</time>
      </trkpt>
      <trkpt lat="43.55493" lon="1.00157">
        <ele>167</ele>
        <time>2024-05-20T08:25:54Z</time>
      </trkpt>
      <trkpt lat="43.555" lon="1.00167">
        <ele>167</ele>
        <time>2024-05-20T08:25:55Z</time>
      </trkpt>
      <trkpt lat="43.55508" lon="1.00176">
        <ele>167</ele>
        <time>2024-05-20T08:25:56Z</time>
      </trkpt>
      <trkpt lat="43.55516" lon="1.00186">
        <ele>166.6</ele>
        <time>2024-05-20T08:25:57Z</time>
      </trkpt>
      <trkpt lat="43.55524" lon="1.00195">
        <ele>166.6</ele>
        <time>2024-05-20T08:25:58Z</time>
      </trkpt>
      <trkpt lat="43.55532" lon="1.00204">
        <ele>166.4</ele>
        <time>2024-05-20T08:25:59Z</time>
      </trkpt>
      <trkpt lat="43.55541" lon="1.00213">
        <ele>166.2</ele>
        <time>2024-05-20T08:26:00Z</time>
      </trkpt>
      <trkpt lat="43.55549" lon="1.00222">
        <ele>166.2</ele>
        <time>2024-05-20T08:26:01Z</time>
      </trkpt>
      <trkpt lat="43.55558" lon="1.0023">
        <ele>166.2</ele>
        <time>2024-05-20T08:26:02Z</time>
      </trkpt>
      <trkpt lat="43.55567" lon="1.00237">
        <ele>166</ele>
        <time>2024-05-20T08:26:03Z</time>
      </trkpt>
      <trkpt lat="43.55577" lon="1.00244">
        <ele>166</ele>
        <time>2024-05-20T08:26:04Z</time>
      </trkpt>
      <trkpt lat="43.55586" lon="1.0025">
        <ele>165.8</ele>
        <time>2024-05-20T08:26:05Z</time>
      </trkpt>
      <trkpt lat="43.55595" lon="1.00257">
        <ele>165.6</ele>
        <time>2024-05-20T08:26:06Z</time>
      </trkpt>
      <trkpt lat="43.55604" lon="1.00263">
        <ele>165.4</ele>
        <time>2024-05-20T08:26:07Z</time>
      </trkpt>
      <trkpt lat="43.55613" lon="1.0027">
        <ele>165.4</ele>
        <time>2024-05-20T08:26:08Z</time>
      </trkpt>
      <trkpt lat="43.55622" lon="1.00277">
        <ele>165.4</ele>
        <time>2024-05-20T08:26:09Z</time>
      </trkpt>
      <trkpt lat="43.55631" lon="1.00283">
        <ele>165.2</ele>
        <time>2024-05-20T08:26:10Z</time>
      </trkpt>
      <trkpt lat="43.5564" lon="1.00289">
        <ele>165.2</ele>
        <time>2024-05-20T08:26:11Z</time>
      </trkpt>
      <trkpt lat="43.55649" lon="1.00295">
        <ele>165.2</ele>
        <time>2024-05-20T08:26:12Z</time>
      </trkpt>
      <trkpt lat="43.55658" lon="1.00301">
        <ele>165</ele>
        <time>2024-05-20T08:26:13Z</time>
      </trkpt>
      <trkpt lat="43.55667" lon="1.00307">
        <ele>164.8</ele>
        <time>2024-05-20T08:26:14Z</time>
      </trkpt>
      <trkpt lat="43.55676" lon="1.00313">
        <ele>164.8</ele>
        <time>2024-05-20T08:26:15Z</time>
      </trkpt>
      <trkpt lat="43.55685" lon="1.0032">
        <ele>164.8</ele>
        <time>2024-05-20T08:26:16Z</time>
      </trkpt>
      <trkpt lat="43.55694" lon="1.00328">
        <ele>164.8</ele>
        <time>2024-05-20T08:26:17Z</time>
      </trkpt>
      <trkpt lat="43.55702" lon="1.00336">
        <ele>164.8</ele>
        <time>2024-05-20T08:26:18Z</time>
      </trkpt>
      <trkpt lat="43.5571" lon="1.00344">
        <ele>165</ele>
        <time>2024-05-20T08:26:19Z</time>
      </trkpt>
      <trkpt lat="43.55716" lon="1.00351">
        <ele>164.8</ele>
        <time>2024-05-20T08:26:20Z</time>
      </trkpt>
      <trkpt lat="43.55723" lon="1.00359">
        <ele>164.8</ele>
        <time>2024-05-20T08:26:21Z</time>
      </trkpt>
      <trkpt lat="43.5573" lon="1.00368">
        <ele>164.8</ele>
        <time>2024-05-20T08:26:22Z</time>
      </trkpt>
      <trkpt lat="43.55738" lon="1.00376">
        <ele>164.8</ele>
        <time>2024-05-20T08:26:23Z</time>
      </trkpt>
      <trkpt lat="43.55745" lon="1.00385">
        <ele>164.8</ele>
        <time>2024-05-20T08:26:24Z</time>
      </trkpt>
      <trkpt lat="43.55752" lon="1.00393">
        <ele>164.8</ele>
        <time>2024-05-20T08:26:25Z</time>
      </trkpt>
      <trkpt lat="43.55758" lon="1.00402">
        <ele>164.8</ele>
        <time>2024-05-20T08:26:26Z</time>
      </trkpt>
      <trkpt lat="43.55766" lon="1.0041">
        <ele>164.8</ele>
        <time>2024-05-20T08:26:27Z</time>
      </trkpt>
      <trkpt lat="43.55774" lon="1.00421">
        <ele>164.6</ele>
        <time>2024-05-20T08:26:28Z</time>
      </trkpt>
      <trkpt lat="43.55781" lon="1.00429">
        <ele>164.6</ele>
        <time>2024-05-20T08:26:29Z</time>
      </trkpt>
      <trkpt lat="43.55787" lon="1.00436">
        <ele>164.4</ele>
        <time>2024-05-20T08:26:30Z</time>
      </trkpt>
      <trkpt lat="43.55794" lon="1.00445">
        <ele>164.4</ele>
        <time>2024-05-20T08:26:31Z</time>
      </trkpt>
      <trkpt lat="43.55802" lon="1.00455">
        <ele>164.4</ele>
        <time>2024-05-20T08:26:32Z</time>
      </trkpt>
      <trkpt lat="43.55809" lon="1.00463">
        <ele>164.4</ele>
        <time>2024-05-20T08:26:33Z</time>
      </trkpt>
      <trkpt lat="43.55816" lon="1.00472">
        <ele>164.4</ele>
        <time>2024-05-20T08:26:34Z</time>
      </trkpt>
      <trkpt lat="43.55823" lon="1.0048">
        <ele>164.4</ele>
        <time>2024-05-20T08:26:35Z</time>
      </trkpt>
      <trkpt lat="43.55831" lon="1.00488">
        <ele>164.4</ele>
        <time>2024-05-20T08:26:36Z</time>
      </trkpt>
      <trkpt lat="43.55838" lon="1.00497">
        <ele>164.4</ele>
        <time>2024-05-20T08:26:37Z</time>
      </trkpt>
      <trkpt lat="43.55845" lon="1.00506">
        <ele>164.4</ele>
        <time>2024-05-20T08:26:38Z</time>
      </trkpt>
      <trkpt lat="43.55851" lon="1.00514">
        <ele>164.4</ele>
        <time>2024-05-20T08:26:39Z</time>
      </trkpt>
      <trkpt lat="43.55858" lon="1.00523">
        <ele>164.4</ele>
        <time>2024-05-20T08:26:40Z</time>
      </trkpt>
      <trkpt lat="43.55864" lon="1.0053">
        <ele>164.4</ele>
        <time>2024-05-20T08:26:41Z</time>
      </trkpt>
      <trkpt lat="43.55871" lon="1.00538">
        <ele>164.4</ele>
        <time>2024-05-20T08:26:42Z</time>
      </trkpt>
      <trkpt lat="43.5588" lon="1.00548">
        <ele>164.4</ele>
        <time>2024-05-20T08:26:43Z</time>
      </trkpt>
      <trkpt lat="43.55887" lon="1.00556">
        <ele>164.4</ele>
        <time>2024-05-20T08:26:44Z</time>
      </trkpt>
      <trkpt lat="43.55894" lon="1.00563">
        <ele>164.4</ele>
        <time>2024-05-20T08:26:45Z</time>
      </trkpt>
      <trkpt lat="43.559" lon="1.0057">
        <ele>164.4</ele>
        <time>2024-05-20T08:26:46Z</time>
      </trkpt>
      <trkpt lat="43.55909" lon="1.00578">
        <ele>164.4</ele>
        <time>2024-05-20T08:26:47Z</time>
      </trkpt>
      <trkpt lat="43.55917" lon="1.00585">
        <ele>164.4</ele>
        <time>2024-05-20T08:26:48Z</time>
      </trkpt>
      <trkpt lat="43.55925" lon="1.0059">
        <ele>164.4</ele>
        <time>2024-05-20T08:26:49Z</time>
      </trkpt>
      <trkpt lat="43.55933" lon="1.00596">
        <ele>164.4</ele>
        <time>2024-05-20T08:26:50Z</time>
      </trkpt>
      <trkpt lat="43.55941" lon="1.00602">
        <ele>164.6</ele>
        <time>2024-05-20T08:26:51Z</time>
      </trkpt>
      <trkpt lat="43.55949" lon="1.00607">
        <ele>164.6</ele>
        <time>2024-05-20T08:26:52Z</time>
      </trkpt>
      <trkpt lat="43.55956" lon="1.00613">
        <ele>164.6</ele>
        <time>2024-05-20T08:26:53Z</time>
      </trkpt>
      <trkpt lat="43.55964" lon="1.0062">
        <ele>164.8</ele>
        <time>2024-05-20T08:26:54Z</time>
      </trkpt>
      <trkpt lat="43.5597" lon="1.00626">
        <ele>164.8</ele>
        <time>2024-05-20T08:26:55Z</time>
      </trkpt>
      <trkpt lat="43.55976" lon="1.00634">
        <ele>164.8</ele>
        <time>2024-05-20T08:26:56Z</time>
      </trkpt>
      <trkpt lat="43.55981" lon="1.00644">
        <ele>165</ele>
        <time>2024-05-20T08:26:57Z</time>
      </trkpt>
      <trkpt lat="43.55985" lon="1.00654">
        <ele>165</ele>
        <time>2024-05-20T08:26:58Z</time>
      </trkpt>
      <trkpt lat="43.5599" lon="1.00664">
        <ele>165.2</ele>
        <time>2024-05-20T08:26:59Z</time>
      </trkpt>
      <trkpt lat="43.55993" lon="1.00675">
        <ele>165.2</ele>
        <time>2024-05-20T08:27:00Z</time>
      </trkpt>
      <trkpt lat="43.55997" lon="1.00685">
        <ele>165.4</ele>
        <time>2024-05-20T08:27:01Z</time>
      </trkpt>
      <trkpt lat="43.56" lon="1.00696">
        <ele>165.4</ele>
        <time>2024-05-20T08:27:02Z</time>
      </trkpt>
      <trkpt lat="43.56004" lon="1.00706">
        <ele>165.4</ele>
        <time>2024-05-20T08:27:03Z</time>
      </trkpt>
      <trkpt lat="43.56007" lon="1.00717">
        <ele>165.6</ele>
        <time>2024-05-20T08:27:04Z</time>
      </trkpt>
      <trkpt lat="43.56011" lon="1.00728">
        <ele>165.6</ele>
        <time>2024-05-20T08:27:05Z</time>
      </trkpt>
      <trkpt lat="43.56015" lon="1.00739">
        <ele>165.8</ele>
        <time>2024-05-20T08:27:06Z</time>
      </trkpt>
      <trkpt lat="43.56019" lon="1.0075">
        <ele>165.8</ele>
        <time>2024-05-20T08:27:07Z</time>
      </trkpt>
      <trkpt lat="43.56023" lon="1.00761">
        <ele>166.2</ele>
        <time>2024-05-20T08:27:08Z</time>
      </trkpt>
      <trkpt lat="43.56027" lon="1.00772">
        <ele>166.4</ele>
        <time>2024-05-20T08:27:09Z</time>
      </trkpt>
      <trkpt lat="43.5603" lon="1.00782">
        <ele>166.8</ele>
        <time>2024-05-20T08:27:10Z</time>
      </trkpt>
      <trkpt lat="43.56034" lon="1.00793">
        <ele>166.8</ele>
        <time>2024-05-20T08:27:11Z</time>
      </trkpt>
      <trkpt lat="43.56038" lon="1.00804">
        <ele>167</ele>
        <time>2024-05-20T08:27:12Z</time>
      </trkpt>
      <trkpt lat="43.56041" lon="1.00815">
        <ele>167</ele>
        <time>2024-05-20T08:27:13Z</time>
      </trkpt>
      <trkpt lat="43.56045" lon="1.00825">
        <ele>167.2</ele>
        <time>2024-05-20T08:27:14Z</time>
      </trkpt>
      <trkpt lat="43.56049" lon="1.00836">
        <ele>167.2</ele>
        <time>2024-05-20T08:27:15Z</time>
      </trkpt>
      <trkpt lat="43.56052" lon="1.00846">
        <ele>167.2</ele>
        <time>2024-05-20T08:27:16Z</time>
      </trkpt>
      <trkpt lat="43.56056" lon="1.00857">
        <ele>167.4</ele>
        <time>2024-05-20T08:27:17Z</time>
      </trkpt>
      <trkpt lat="43.5606" lon="1.00868">
        <ele>167.4</ele>
        <time>2024-05-20T08:27:18Z</time>
      </trkpt>
      <trkpt lat="43.56064" lon="1.00879">
        <ele>167.4</ele>
        <time>2024-05-20T08:27:19Z</time>
      </trkpt>
      <trkpt lat="43.56067" lon="1.0089">
        <ele>167.4</ele>
        <time>2024-05-20T08:27:20Z</time>
      </trkpt>
      <trkpt lat="43.56071" lon="1.00901">
        <ele>167.4</ele>
        <time>2024-05-20T08:27:21Z</time>
      </trkpt>
      <trkpt lat="43.56075" lon="1.00912">
        <ele>167</ele>
        <time>2024-05-20T08:27:22Z</time>
      </trkpt>
      <trkpt lat="43.56079" lon="1.00923">
        <ele>167</ele>
        <time>2024-05-20T08:27:23Z</time>
      </trkpt>
      <trkpt lat="43.56083" lon="1.00933">
        <ele>167</ele>
        <time>2024-05-20T08:27:24Z</time>
      </trkpt>
      <trkpt lat="43.56088" lon="1.00944">
        <ele>167</ele>
        <time>2024-05-20T08:27:25Z</time>
      </trkpt>
      <trkpt lat="43.56093" lon="1.00953">
        <ele>167</ele>
        <time>2024-05-20T08:27:26Z</time>
      </trkpt>
      <trkpt lat="43.56099" lon="1.00962">
        <ele>167</ele>
        <time>2024-05-20T08:27:27Z</time>
      </trkpt>
      <trkpt lat="43.56106" lon="1.0097">
        <ele>167</ele>
        <time>2024-05-20T08:27:28Z</time>
      </trkpt>
      <trkpt lat="43.56112" lon="1.00977">
        <ele>166.8</ele>
        <time>2024-05-20T08:27:29Z</time>
      </trkpt>
      <trkpt lat="43.5612" lon="1.00983">
        <ele>166.8</ele>
        <time>2024-05-20T08:27:30Z</time>
      </trkpt>
      <trkpt lat="43.56127" lon="1.00989">
        <ele>166.8</ele>
        <time>2024-05-20T08:27:31Z</time>
      </trkpt>
      <trkpt lat="43.56134" lon="1.00994">
        <ele>166.8</ele>
        <time>2024-05-20T08:27:32Z</time>
      </trkpt>
      <trkpt lat="43.56141" lon="1.00999">
        <ele>166.8</ele>
        <time>2024-05-20T08:27:33Z</time>
      </trkpt>
      <trkpt lat="43.56148" lon="1.01004">
        <ele>167</ele>
        <time>2024-05-20T08:27:34Z</time>
      </trkpt>
      <trkpt lat="43.56155" lon="1.01009">
        <ele>167</ele>
        <time>2024-05-20T08:27:35Z</time>
      </trkpt>
      <trkpt lat="43.56163" lon="1.01014">
        <ele>167.2</ele>
        <time>2024-05-20T08:27:36Z</time>
      </trkpt>
      <trkpt lat="43.5617" lon="1.01019">
        <ele>167.2</ele>
        <time>2024-05-20T08:27:37Z</time>
      </trkpt>
      <trkpt lat="43.56177" lon="1.01024">
        <ele>167.4</ele>
        <time>2024-05-20T08:27:38Z</time>
      </trkpt>
      <trkpt lat="43.56184" lon="1.01029">
        <ele>167.4</ele>
        <time>2024-05-20T08:27:39Z</time>
      </trkpt>
      <trkpt lat="43.56192" lon="1.01034">
        <ele>167.4</ele>
        <time>2024-05-20T08:27:40Z</time>
      </trkpt>
      <trkpt lat="43.56199" lon="1.01039">
        <ele>167.4</ele>
        <time>2024-05-20T08:27:41Z</time>
      </trkpt>
      <trkpt lat="43.56206" lon="1.01043">
        <ele>167.4</ele>
        <time>2024-05-20T08:27:42Z</time>
      </trkpt>
      <trkpt lat="43.56213" lon="1.01047">
        <ele>167.4</ele>
        <time>2024-05-20T08:27:43Z</time>
      </trkpt>
      <trkpt lat="43.5622" lon="1.01051">
        <ele>167.4</ele>
        <time>2024-05-20T08:27:44Z</time>
      </trkpt>
      <trkpt lat="43.56227" lon="1.01056">
        <ele>167.4</ele>
        <time>2024-05-20T08:27:45Z</time>
      </trkpt>
      <trkpt lat="43.56234" lon="1.01061">
        <ele>167.6</ele>
        <time>2024-05-20T08:27:46Z</time>
      </trkpt>
      <trkpt lat="43.5624" lon="1.01066">
        <ele>167.8</ele>
        <time>2024-05-20T08:27:47Z</time>
      </trkpt>
      <trkpt lat="43.56248" lon="1.01072">
        <ele>168</ele>
        <time>2024-05-20T08:27:48Z</time>
      </trkpt>
      <trkpt lat="43.56255" lon="1.01077">
        <ele>168</ele>
        <time>2024-05-20T08:27:49Z</time>
      </trkpt>
      <trkpt lat="43.56262" lon="1.01082">
        <ele>168</ele>
        <time>2024-05-20T08:27:50Z</time>
      </trkpt>
      <trkpt lat="43.56269" lon="1.01087">
        <ele>168</ele>
        <time>2024-05-20T08:27:51Z</time>
      </trkpt>
      <trkpt lat="43.56276" lon="1.01092">
        <ele>168</ele>
        <time>2024-05-20T08:27:52Z</time>
      </trkpt>
      <trkpt lat="43.56283" lon="1.01097">
        <ele>168</ele>
        <time>2024-05-20T08:27:53Z</time>
      </trkpt>
      <trkpt lat="43.56291" lon="1.01102">
        <ele>168</ele>
        <time>2024-05-20T08:27:54Z</time>
      </trkpt>
      <trkpt lat="43.56299" lon="1.01107">
        <ele>168</ele>
        <time>2024-05-20T08:27:55Z</time>
      </trkpt>
      <trkpt lat="43.56306" lon="1.01112">
        <ele>167.8</ele>
        <time>2024-05-20T08:27:56Z</time>
      </trkpt>
      <trkpt lat="43.56314" lon="1.01118">
        <ele>167.6</ele>
        <time>2024-05-20T08:27:57Z</time>
      </trkpt>
      <trkpt lat="43.56321" lon="1.01123">
        <ele>167.4</ele>
        <time>2024-05-20T08:27:58Z</time>
      </trkpt>
      <trkpt lat="43.56329" lon="1.0113">
        <ele>167.4</ele>
        <time>2024-05-20T08:27:59Z</time>
      </trkpt>
      <trkpt lat="43.56336" lon="1.01137">
        <ele>167.4</ele>
        <time>2024-05-20T08:28:00Z</time>
      </trkpt>
      <trkpt lat="43.56343" lon="1.01145">
        <ele>167.2</ele>
        <time>2024-05-20T08:28:01Z</time>
      </trkpt>
      <trkpt lat="43.5635" lon="1.01154">
        <ele>167.2</ele>
        <time>2024-05-20T08:28:02Z</time>
      </trkpt>
      <trkpt lat="43.56356" lon="1.01163">
        <ele>167</ele>
        <time>2024-05-20T08:28:03Z</time>
      </trkpt>
      <trkpt lat="43.56363" lon="1.01172">
        <ele>167</ele>
        <time>2024-05-20T08:28:04Z</time>
      </trkpt>
      <trkpt lat="43.5637" lon="1.01182">
        <ele>167</ele>
        <time>2024-05-20T08:28:05Z</time>
      </trkpt>
      <trkpt lat="43.56376" lon="1.01192">
        <ele>167</ele>
        <time>2024-05-20T08:28:06Z</time>
      </trkpt>
      <trkpt lat="43.56384" lon="1.01203">
        <ele>167</ele>
        <time>2024-05-20T08:28:07Z</time>
      </trkpt>
      <trkpt lat="43.5639" lon="1.01213">
        <ele>166.8</ele>
        <time>2024-05-20T08:28:08Z</time>
      </trkpt>
      <trkpt lat="43.56396" lon="1.0122">
        <ele>166.8</ele>
        <time>2024-05-20T08:28:09Z</time>
      </trkpt>
      <trkpt lat="43.56403" lon="1.0123">
        <ele>166.8</ele>
        <time>2024-05-20T08:28:10Z</time>
      </trkpt>
      <trkpt lat="43.56411" lon="1.01241">
        <ele>166.6</ele>
        <time>2024-05-20T08:28:11Z</time>
      </trkpt>
      <trkpt lat="43.56419" lon="1.0125">
        <ele>166.6</ele>
        <time>2024-05-20T08:28:12Z</time>
      </trkpt>
      <trkpt lat="43.56426" lon="1.01259">
        <ele>166.4</ele>
        <time>2024-05-20T08:28:13Z</time>
      </trkpt>
      <trkpt lat="43.56433" lon="1.01266">
        <ele>166.4</ele>
        <time>2024-05-20T08:28:14Z</time>
      </trkpt>
      <trkpt lat="43.56441" lon="1.01274">
        <ele>166.2</ele>
        <time>2024-05-20T08:28:15Z</time>
      </trkpt>
      <trkpt lat="43.5645" lon="1.01282">
        <ele>166.2</ele>
        <time>2024-05-20T08:28:16Z</time>
      </trkpt>
      <trkpt lat="43.5646" lon="1.01291">
        <ele>166</ele>
        <time>2024-05-20T08:28:17Z</time>
      </trkpt>
      <trkpt lat="43.56467" lon="1.01297">
        <ele>166</ele>
        <time>2024-05-20T08:28:18Z</time>
      </trkpt>
      <trkpt lat="43.56475" lon="1.01305">
        <ele>165.8</ele>
        <time>2024-05-20T08:28:19Z</time>
      </trkpt>
      <trkpt lat="43.56486" lon="1.01314">
        <ele>165.8</ele>
        <time>2024-05-20T08:28:20Z</time>
      </trkpt>
      <trkpt lat="43.56494" lon="1.01321">
        <ele>165.8</ele>
        <time>2024-05-20T08:28:21Z</time>
      </trkpt>
      <trkpt lat="43.56501" lon="1.01327">
        <ele>165.6</ele>
        <time>2024-05-20T08:28:22Z</time>
      </trkpt>
      <trkpt lat="43.56509" lon="1.01334">
        <ele>165.6</ele>
        <time>2024-05-20T08:28:23Z</time>
      </trkpt>
      <trkpt lat="43.56518" lon="1.01342">
        <ele>165.2</ele>
        <time>2024-05-20T08:28:24Z</time>
      </trkpt>
      <trkpt lat="43.56527" lon="1.0135">
        <ele>164.8</ele>
        <time>2024-05-20T08:28:25Z</time>
      </trkpt>
      <trkpt lat="43.56535" lon="1.01358">
        <ele>164.6</ele>
        <time>2024-05-20T08:28:26Z</time>
      </trkpt>
      <trkpt lat="43.56546" lon="1.01367">
        <ele>164.6</ele>
        <time>2024-05-20T08:28:27Z</time>
      </trkpt>
      <trkpt lat="43.56553" lon="1.01372">
        <ele>164.4</ele>
        <time>2024-05-20T08:28:28Z</time>
      </trkpt>
      <trkpt lat="43.56562" lon="1.01379">
        <ele>164.4</ele>
        <time>2024-05-20T08:28:29Z</time>
      </trkpt>
      <trkpt lat="43.56572" lon="1.01385">
        <ele>164.2</ele>
        <time>2024-05-20T08:28:30Z</time>
      </trkpt>
      <trkpt lat="43.56583" lon="1.01392">
        <ele>164.2</ele>
        <time>2024-05-20T08:28:31Z</time>
      </trkpt>
      <trkpt lat="43.56591" lon="1.01396">
        <ele>164.2</ele>
        <time>2024-05-20T08:28:32Z</time>
      </trkpt>
      <trkpt lat="43.56601" lon="1.01401">
        <ele>164.2</ele>
        <time>2024-05-20T08:28:33Z</time>
      </trkpt>
      <trkpt lat="43.56613" lon="1.01407">
        <ele>164.2</ele>
        <time>2024-05-20T08:28:34Z</time>
      </trkpt>
      <trkpt lat="43.56623" lon="1.01411">
        <ele>164.2</ele>
        <time>2024-05-20T08:28:35Z</time>
      </trkpt>
      <trkpt lat="43.56632" lon="1.01416">
        <ele>164</ele>
        <time>2024-05-20T08:28:36Z</time>
      </trkpt>
      <trkpt lat="43.5664" lon="1.0142">
        <ele>164</ele>
        <time>2024-05-20T08:28:37Z</time>
      </trkpt>
      <trkpt lat="43.5665" lon="1.01424">
        <ele>163.8</ele>
        <time>2024-05-20T08:28:38Z</time>
      </trkpt>
      <trkpt lat="43.56659" lon="1.01429">
        <ele>163.8</ele>
        <time>2024-05-20T08:28:39Z</time>
      </trkpt>
      <trkpt lat="43.56669" lon="1.01433">
        <ele>163.8</ele>
        <time>2024-05-20T08:28:40Z</time>
      </trkpt>
      <trkpt lat="43.56678" lon="1.01437">
        <ele>163.8</ele>
        <time>2024-05-20T08:28:41Z</time>
      </trkpt>
      <trkpt lat="43.56686" lon="1.01441">
        <ele>163.8</ele>
        <time>2024-05-20T08:28:42Z</time>
      </trkpt>
      <trkpt lat="43.56695" lon="1.01444">
        <ele>163.8</ele>
        <time>2024-05-20T08:28:43Z</time>
      </trkpt>
      <trkpt lat="43.56704" lon="1.01447">
        <ele>163.8</ele>
        <time>2024-05-20T08:28:44Z</time>
      </trkpt>
      <trkpt lat="43.56715" lon="1.01451">
        <ele>163.8</ele>
        <time>2024-05-20T08:28:45Z</time>
      </trkpt>
      <trkpt lat="43.56722" lon="1.01454">
        <ele>163.8</ele>
        <time>2024-05-20T08:28:46Z</time>
      </trkpt>
      <trkpt lat="43.56733" lon="1.01457">
        <ele>163.8</ele>
        <time>2024-05-20T08:28:47Z</time>
      </trkpt>
      <trkpt lat="43.56739" lon="1.01459">
        <ele>163.6</ele>
        <time>2024-05-20T08:28:48Z</time>
      </trkpt>
      <trkpt lat="43.56748" lon="1.01462">
        <ele>163.6</ele>
        <time>2024-05-20T08:28:49Z</time>
      </trkpt>
      <trkpt lat="43.56758" lon="1.01466">
        <ele>163.6</ele>
        <time>2024-05-20T08:28:50Z</time>
      </trkpt>
      <trkpt lat="43.56766" lon="1.01469">
        <ele>163.8</ele>
        <time>2024-05-20T08:28:51Z</time>
      </trkpt>
      <trkpt lat="43.56774" lon="1.01472">
        <ele>163.8</ele>
        <time>2024-05-20T08:28:52Z</time>
      </trkpt>
      <trkpt lat="43.56781" lon="1.01474">
        <ele>164</ele>
        <time>2024-05-20T08:28:53Z</time>
      </trkpt>
      <trkpt lat="43.56789" lon="1.01477">
        <ele>164</ele>
        <time>2024-05-20T08:28:54Z</time>
      </trkpt>
      <trkpt lat="43.56797" lon="1.0148">
        <ele>164</ele>
        <time>2024-05-20T08:28:55Z</time>
      </trkpt>
      <trkpt lat="43.56807" lon="1.01484">
        <ele>164</ele>
        <time>2024-05-20T08:28:56Z</time>
      </trkpt>
      <trkpt lat="43.56815" lon="1.01486">
        <ele>164</ele>
        <time>2024-05-20T08:28:57Z</time>
      </trkpt>
      <trkpt lat="43.56823" lon="1.01489">
        <ele>164</ele>
        <time>2024-05-20T08:28:58Z</time>
      </trkpt>
      <trkpt lat="43.56829" lon="1.01491">
        <ele>164</ele>
        <time>2024-05-20T08:28:59Z</time>
      </trkpt>
      <trkpt lat="43.56838" lon="1.01495">
        <ele>164</ele>
        <time>2024-05-20T08:29:00Z</time>
      </trkpt>
      <trkpt lat="43.56847" lon="1.01498">
        <ele>164</ele>
        <time>2024-05-20T08:29:01Z</time>
      </trkpt>
      <trkpt lat="43.56855" lon="1.01501">
        <ele>164</ele>
        <time>2024-05-20T08:29:02Z</time>
      </trkpt>
      <trkpt lat="43.56864" lon="1.01504">
        <ele>164</ele>
        <time>2024-05-20T08:29:03Z</time>
      </trkpt>
      <trkpt lat="43.5687" lon="1.01506">
        <ele>164</ele>
        <time>2024-05-20T08:29:04Z</time>
      </trkpt>
      <trkpt lat="43.56878" lon="1.01509">
        <ele>164</ele>
        <time>2024-05-20T08:29:05Z</time>
      </trkpt>
      <trkpt lat="43.56888" lon="1.01513">
        <ele>164</ele>
        <time>2024-05-20T08:29:06Z</time>
      </trkpt>
      <trkpt lat="43.56896" lon="1.01515">
        <ele>164</ele>
        <time>2024-05-20T08:29:07Z</time>
      </trkpt>
      <trkpt lat="43.56904" lon="1.01518">
        <ele>164.2</ele>
        <time>2024-05-20T08:29:08Z</time>
      </trkpt>
      <trkpt lat="43.56912" lon="1.01521">
        <ele>164.4</ele>
        <time>2024-05-20T08:29:09Z</time>
      </trkpt>
      <trkpt lat="43.56918" lon="1.01524">
        <ele>164.6</ele>
        <time>2024-05-20T08:29:10Z</time>
      </trkpt>
      <trkpt lat="43.56926" lon="1.01527">
        <ele>164.6</ele>
        <time>2024-05-20T08:29:11Z</time>
      </trkpt>
      <trkpt lat="43.56936" lon="1.0153">
        <ele>164.6</ele>
        <time>2024-05-20T08:29:12Z</time>
      </trkpt>
      <trkpt lat="43.56943" lon="1.01533">
        <ele>164.6</ele>
        <time>2024-05-20T08:29:13Z</time>
      </trkpt>
      <trkpt lat="43.56951" lon="1.01535">
        <ele>164.8</ele>
        <time>2024-05-20T08:29:14Z</time>
      </trkpt>
      <trkpt lat="43.56957" lon="1.01538">
        <ele>164.8</ele>
        <time>2024-05-20T08:29:15Z</time>
      </trkpt>
      <trkpt lat="43.56965" lon="1.01541">
        <ele>164.8</ele>
        <time>2024-05-20T08:29:16Z</time>
      </trkpt>
      <trkpt lat="43.56974" lon="1.01544">
        <ele>165</ele>
        <time>2024-05-20T08:29:17Z</time>
      </trkpt>
      <trkpt lat="43.56981" lon="1.01548">
        <ele>165</ele>
        <time>2024-05-20T08:29:18Z</time>
      </trkpt>
      <trkpt lat="43.56989" lon="1.01553">
        <ele>165.4</ele>
        <time>2024-05-20T08:29:19Z</time>
      </trkpt>
      <trkpt lat="43.56994" lon="1.01557">
        <ele>165.6</ele>
        <time>2024-05-20T08:29:20Z</time>
      </trkpt>
      <trkpt lat="43.57001" lon="1.01563">
        <ele>165.8</ele>
        <time>2024-05-20T08:29:21Z</time>
      </trkpt>
      <trkpt lat="43.5701" lon="1.0157">
        <ele>165.8</ele>
        <time>2024-05-20T08:29:22Z</time>
      </trkpt>
      <trkpt lat="43.57017" lon="1.01576">
        <ele>165.8</ele>
        <time>2024-05-20T08:29:23Z</time>
      </trkpt>
      <trkpt lat="43.57023" lon="1.01583">
        <ele>165.8</ele>
        <time>2024-05-20T08:29:24Z</time>
      </trkpt>
      <trkpt lat="43.57029" lon="1.01589">
        <ele>165.8</ele>
        <time>2024-05-20T08:29:25Z</time>
      </trkpt>
      <trkpt lat="43.57035" lon="1.01596">
        <ele>165.8</ele>
        <time>2024-05-20T08:29:26Z</time>
      </trkpt>
      <trkpt lat="43.57042" lon="1.01603">
        <ele>165.8</ele>
        <time>2024-05-20T08:29:27Z</time>
      </trkpt>
      <trkpt lat="43.5705" lon="1.01612">
        <ele>165.6</ele>
        <time>2024-05-20T08:29:28Z</time>
      </trkpt>
      <trkpt lat="43.57057" lon="1.01619">
        <ele>165.4</ele>
        <time>2024-05-20T08:29:29Z</time>
      </trkpt>
      <trkpt lat="43.57064" lon="1.01627">
        <ele>165.4</ele>
        <time>2024-05-20T08:29:30Z</time>
      </trkpt>
      <trkpt lat="43.5707" lon="1.01632">
        <ele>165.2</ele>
        <time>2024-05-20T08:29:31Z</time>
      </trkpt>
      <trkpt lat="43.57077" lon="1.01639">
        <ele>165.2</ele>
        <time>2024-05-20T08:29:32Z</time>
      </trkpt>
      <trkpt lat="43.57085" lon="1.01648">
        <ele>165</ele>
        <time>2024-05-20T08:29:33Z</time>
      </trkpt>
      <trkpt lat="43.57092" lon="1.01655">
        <ele>165</ele>
        <time>2024-05-20T08:29:34Z</time>
      </trkpt>
      <trkpt lat="43.57099" lon="1.01662">
        <ele>165</ele>
        <time>2024-05-20T08:29:35Z</time>
      </trkpt>
      <trkpt lat="43.57105" lon="1.01667">
        <ele>164.8</ele>
        <time>2024-05-20T08:29:36Z</time>
      </trkpt>
      <trkpt lat="43.57112" lon="1.01674">
        <ele>165</ele>
        <time>2024-05-20T08:29:37Z</time>
      </trkpt>
      <trkpt lat="43.5712" lon="1.01683">
        <ele>164.8</ele>
        <time>2024-05-20T08:29:38Z</time>
      </trkpt>
      <trkpt lat="43.57127" lon="1.01689">
        <ele>164.8</ele>
        <time>2024-05-20T08:29:39Z</time>
      </trkpt>
      <trkpt lat="43.57134" lon="1.01696">
        <ele>164.8</ele>
        <time>2024-05-20T08:29:40Z</time>
      </trkpt>
      <trkpt lat="43.5714" lon="1.01703">
        <ele>164.6</ele>
        <time>2024-05-20T08:29:41Z</time>
      </trkpt>
      <trkpt lat="43.57146" lon="1.01709">
        <ele>164.6</ele>
        <time>2024-05-20T08:29:42Z</time>
      </trkpt>
      <trkpt lat="43.57153" lon="1.01716">
        <ele>164.6</ele>
        <time>2024-05-20T08:29:43Z</time>
      </trkpt>
      <trkpt lat="43.57161" lon="1.01725">
        <ele>164.6</ele>
        <time>2024-05-20T08:29:44Z</time>
      </trkpt>
      <trkpt lat="43.57168" lon="1.01731">
        <ele>164.6</ele>
        <time>2024-05-20T08:29:45Z</time>
      </trkpt>
      <trkpt lat="43.57175" lon="1.01738">
        <ele>164.6</ele>
        <time>2024-05-20T08:29:46Z</time>
      </trkpt>
      <trkpt lat="43.5718" lon="1.01744">
        <ele>164.6</ele>
        <time>2024-05-20T08:29:47Z</time>
      </trkpt>
      <trkpt lat="43.57187" lon="1.01751">
        <ele>164.6</ele>
        <time>2024-05-20T08:29:48Z</time>
      </trkpt>
      <trkpt lat="43.57195" lon="1.0176">
        <ele>164.6</ele>
        <time>2024-05-20T08:29:49Z</time>
      </trkpt>
      <trkpt lat="43.57202" lon="1.01767">
        <ele>164.6</ele>
        <time>2024-05-20T08:29:50Z</time>
      </trkpt>
      <trkpt lat="43.57209" lon="1.01775">
        <ele>164.6</ele>
        <time>2024-05-20T08:29:51Z</time>
      </trkpt>
      <trkpt lat="43.57214" lon="1.01781">
        <ele>164.6</ele>
        <time>2024-05-20T08:29:52Z</time>
      </trkpt>
      <trkpt lat="43.57221" lon="1.01789">
        <ele>164.6</ele>
        <time>2024-05-20T08:29:53Z</time>
      </trkpt>
      <trkpt lat="43.57229" lon="1.01798">
        <ele>164.6</ele>
        <time>2024-05-20T08:29:54Z</time>
      </trkpt>
      <trkpt lat="43.57234" lon="1.01805">
        <ele>164.6</ele>
        <time>2024-05-20T08:29:55Z</time>
      </trkpt>
      <trkpt lat="43.5724" lon="1.01813">
        <ele>164.6</ele>
        <time>2024-05-20T08:29:56Z</time>
      </trkpt>
      <trkpt lat="43.57246" lon="1.01821">
        <ele>164.6</ele>
        <time>2024-05-20T08:29:57Z</time>
      </trkpt>
      <trkpt lat="43.57251" lon="1.01829">
        <ele>164.4</ele>
        <time>2024-05-20T08:29:58Z</time>
      </trkpt>
      <trkpt lat="43.57257" lon="1.01838">
        <ele>164.4</ele>
        <time>2024-05-20T08:29:59Z</time>
      </trkpt>
      <trkpt lat="43.57262" lon="1.01847">
        <ele>164.4</ele>
        <time>2024-05-20T08:30:00Z</time>
      </trkpt>
      <trkpt lat="43.57267" lon="1.01855">
        <ele>164.4</ele>
        <time>2024-05-20T08:30:01Z</time>
      </trkpt>
      <trkpt lat="43.57272" lon="1.01864">
        <ele>164.4</ele>
        <time>2024-05-20T08:30:02Z</time>
      </trkpt>
      <trkpt lat="43.57278" lon="1.01873">
        <ele>164.2</ele>
        <time>2024-05-20T08:30:03Z</time>
      </trkpt>
      <trkpt lat="43.57284" lon="1.0188">
        <ele>164.2</ele>
        <time>2024-05-20T08:30:04Z</time>
      </trkpt>
      <trkpt lat="43.57289" lon="1.01888">
        <ele>164.2</ele>
        <time>2024-05-20T08:30:05Z</time>
      </trkpt>
      <trkpt lat="43.57296" lon="1.01894">
        <ele>164.2</ele>
        <time>2024-05-20T08:30:06Z</time>
      </trkpt>
      <trkpt lat="43.57302" lon="1.01901">
        <ele>164.4</ele>
        <time>2024-05-20T08:30:07Z</time>
      </trkpt>
      <trkpt lat="43.57308" lon="1.01907">
        <ele>164.4</ele>
        <time>2024-05-20T08:30:08Z</time>
      </trkpt>
      <trkpt lat="43.57314" lon="1.01913">
        <ele>164.6</ele>
        <time>2024-05-20T08:30:09Z</time>
      </trkpt>
      <trkpt lat="43.57322" lon="1.01921">
        <ele>164.6</ele>
        <time>2024-05-20T08:30:10Z</time>
      </trkpt>
      <trkpt lat="43.57328" lon="1.01927">
        <ele>164.6</ele>
        <time>2024-05-20T08:30:11Z</time>
      </trkpt>
      <trkpt lat="43.57334" lon="1.01933">
        <ele>164.6</ele>
        <time>2024-05-20T08:30:12Z</time>
      </trkpt>
      <trkpt lat="43.5734" lon="1.01939">
        <ele>164.6</ele>
        <time>2024-05-20T08:30:13Z</time>
      </trkpt>
      <trkpt lat="43.57345" lon="1.01943">
        <ele>164.8</ele>
        <time>2024-05-20T08:30:14Z</time>
      </trkpt>
      <trkpt lat="43.57353" lon="1.0195">
        <ele>164.8</ele>
        <time>2024-05-20T08:30:15Z</time>
      </trkpt>
      <trkpt lat="43.57359" lon="1.01956">
        <ele>164.8</ele>
        <time>2024-05-20T08:30:16Z</time>
      </trkpt>
      <trkpt lat="43.57365" lon="1.01961">
        <ele>164.8</ele>
        <time>2024-05-20T08:30:17Z</time>
      </trkpt>
      <trkpt lat="43.5737" lon="1.01965">
        <ele>164.8</ele>
        <time>2024-05-20T08:30:18Z</time>
      </trkpt>
      <trkpt lat="43.57376" lon="1.01971">
        <ele>164.8</ele>
        <time>2024-05-20T08:30:19Z</time>
      </trkpt>
      <trkpt lat="43.57384" lon="1.01978">
        <ele>164.6</ele>
        <time>2024-05-20T08:30:20Z</time>
      </trkpt>
      <trkpt lat="43.5739" lon="1.01984">
        <ele>164.6</ele>
        <time>2024-05-20T08:30:21Z</time>
      </trkpt>
      <trkpt lat="43.57397" lon="1.0199">
        <ele>164.6</ele>
        <time>2024-05-20T08:30:22Z</time>
      </trkpt>
      <trkpt lat="43.57403" lon="1.01996">
        <ele>164.6</ele>
        <time>2024-05-20T08:30:23Z</time>
      </trkpt>
      <trkpt lat="43.57408" lon="1.02001">
        <ele>164.6</ele>
        <time>2024-05-20T08:30:24Z</time>
      </trkpt>
      <trkpt lat="43.57417" lon="1.02009">
        <ele>164.6</ele>
        <time>2024-05-20T08:30:25Z</time>
      </trkpt>
      <trkpt lat="43.57424" lon="1.02016">
        <ele>164.6</ele>
        <time>2024-05-20T08:30:26Z</time>
      </trkpt>
      <trkpt lat="43.5743" lon="1.02023">
        <ele>164.6</ele>
        <time>2024-05-20T08:30:27Z</time>
      </trkpt>
      <trkpt lat="43.57437" lon="1.0203">
        <ele>164.6</ele>
        <time>2024-05-20T08:30:28Z</time>
      </trkpt>
      <trkpt lat="43.57442" lon="1.02036">
        <ele>164.6</ele>
        <time>2024-05-20T08:30:29Z</time>
      </trkpt>
      <trkpt lat="43.57448" lon="1.02043">
        <ele>164.6</ele>
        <time>2024-05-20T08:30:30Z</time>
      </trkpt>
      <trkpt lat="43.57456" lon="1.02052">
        <ele>164.4</ele>
        <time>2024-05-20T08:30:31Z</time>
      </trkpt>
      <trkpt lat="43.57462" lon="1.02059">
        <ele>164.4</ele>
        <time>2024-05-20T08:30:32Z</time>
      </trkpt>
      <trkpt lat="43.57469" lon="1.02067">
        <ele>164.4</ele>
        <time>2024-05-20T08:30:33Z</time>
      </trkpt>
      <trkpt lat="43.57474" lon="1.02073">
        <ele>164.4</ele>
        <time>2024-05-20T08:30:34Z</time>
      </trkpt>
      <trkpt lat="43.5748" lon="1.02081">
        <ele>164.4</ele>
        <time>2024-05-20T08:30:35Z</time>
      </trkpt>
      <trkpt lat="43.57488" lon="1.0209">
        <ele>164.2</ele>
        <time>2024-05-20T08:30:36Z</time>
      </trkpt>
      <trkpt lat="43.57494" lon="1.02097">
        <ele>164.2</ele>
        <time>2024-05-20T08:30:37Z</time>
      </trkpt>
      <trkpt lat="43.575" lon="1.02104">
        <ele>164.2</ele>
        <time>2024-05-20T08:30:38Z</time>
      </trkpt>
      <trkpt lat="43.57506" lon="1.02111">
        <ele>164</ele>
        <time>2024-05-20T08:30:39Z</time>
      </trkpt>
      <trkpt lat="43.57511" lon="1.02116">
        <ele>164</ele>
        <time>2024-05-20T08:30:40Z</time>
      </trkpt>
      <trkpt lat="43.57518" lon="1.02122">
        <ele>163.8</ele>
        <time>2024-05-20T08:30:41Z</time>
      </trkpt>
      <trkpt lat="43.57526" lon="1.02128">
        <ele>163.8</ele>
        <time>2024-05-20T08:30:42Z</time>
      </trkpt>
      <trkpt lat="43.57533" lon="1.02133">
        <ele>163.8</ele>
        <time>2024-05-20T08:30:43Z</time>
      </trkpt>
      <trkpt lat="43.5754" lon="1.02138">
        <ele>163.8</ele>
        <time>2024-05-20T08:30:44Z</time>
      </trkpt>
      <trkpt lat="43.57546" lon="1.02141">
        <ele>163.8</ele>
        <time>2024-05-20T08:30:45Z</time>
      </trkpt>
      <trkpt lat="43.57553" lon="1.02144">
        <ele>163.8</ele>
        <time>2024-05-20T08:30:46Z</time>
      </trkpt>
      <trkpt lat="43.57562" lon="1.02148">
        <ele>163.8</ele>
        <time>2024-05-20T08:30:47Z</time>
      </trkpt>
      <trkpt lat="43.57569" lon="1.02153">
        <ele>163.6</ele>
        <time>2024-05-20T08:30:48Z</time>
      </trkpt>
      <trkpt lat="43.57575" lon="1.02158">
        <ele>163.6</ele>
        <time>2024-05-20T08:30:49Z</time>
      </trkpt>
      <trkpt lat="43.57581" lon="1.02164">
        <ele>163.6</ele>
        <time>2024-05-20T08:30:50Z</time>
      </trkpt>
      <trkpt lat="43.57586" lon="1.02172">
        <ele>163.6</ele>
        <time>2024-05-20T08:30:51Z</time>
      </trkpt>
      <trkpt lat="43.57592" lon="1.02183">
        <ele>163.6</ele>
        <time>2024-05-20T08:30:52Z</time>
      </trkpt>
      <trkpt lat="43.57595" lon="1.02191">
        <ele>163.6</ele>
        <time>2024-05-20T08:30:53Z</time>
      </trkpt>
      <trkpt lat="43.576" lon="1.02201">
        <ele>163.6</ele>
        <time>2024-05-20T08:30:54Z</time>
      </trkpt>
      <trkpt lat="43.57604" lon="1.0221">
        <ele>163.6</ele>
        <time>2024-05-20T08:30:55Z</time>
      </trkpt>
      <trkpt lat="43.57608" lon="1.02219">
        <ele>163.6</ele>
        <time>2024-05-20T08:30:56Z</time>
      </trkpt>
      <trkpt lat="43.57613" lon="1.02228">
        <ele>163.4</ele>
        <time>2024-05-20T08:30:57Z</time>
      </trkpt>
      <trkpt lat="43.57618" lon="1.02237">
        <ele>163.4</ele>
        <time>2024-05-20T08:30:58Z</time>
      </trkpt>
      <trkpt lat="43.57623" lon="1.02246">
        <ele>163.4</ele>
        <time>2024-05-20T08:30:59Z</time>
      </trkpt>
      <trkpt lat="43.57628" lon="1.02254">
        <ele>163.4</ele>
        <time>2024-05-20T08:31:00Z</time>
      </trkpt>
      <trkpt lat="43.57634" lon="1.02262">
        <ele>163.4</ele>
        <time>2024-05-20T08:31:01Z</time>
      </trkpt>
      <trkpt lat="43.57639" lon="1.0227">
        <ele>163.4</ele>
        <time>2024-05-20T08:31:02Z</time>
      </trkpt>
      <trkpt lat="43.57643" lon="1.02277">
        <ele>163.4</ele>
        <time>2024-05-20T08:31:03Z</time>
      </trkpt>
      <trkpt lat="43.57647" lon="1.02284">
        <ele>163.4</ele>
        <time>2024-05-20T08:31:04Z</time>
      </trkpt>
      <trkpt lat="43.5765" lon="1.02291">
        <ele>163.4</ele>
        <time>2024-05-20T08:31:05Z</time>
      </trkpt>
      <trkpt lat="43.57649" lon="1.02299">
        <ele>163.4</ele>
        <time>2024-05-20T08:31:06Z</time>
      </trkpt>
      <trkpt lat="43.57647" lon="1.02306">
        <ele>163.4</ele>
        <time>2024-05-20T08:31:07Z</time>
      </trkpt>
      <trkpt lat="43.57644" lon="1.02311">
        <ele>163.6</ele>
        <time>2024-05-20T08:31:08Z</time>
      </trkpt>
      <trkpt lat="43.57638" lon="1.02316">
        <ele>163.8</ele>
        <time>2024-05-20T08:31:09Z</time>
      </trkpt>
      <trkpt lat="43.57634" lon="1.02318">
        <ele>163.8</ele>
        <time>2024-05-20T08:31:10Z</time>
      </trkpt>
      <trkpt lat="43.57629" lon="1.02321">
        <ele>163.8</ele>
        <time>2024-05-20T08:31:11Z</time>
      </trkpt>
      <trkpt lat="43.57624" lon="1.02324">
        <ele>163.8</ele>
        <time>2024-05-20T08:31:12Z</time>
      </trkpt>
      <trkpt lat="43.57619" lon="1.02327">
        <ele>164</ele>
        <time>2024-05-20T08:31:13Z</time>
      </trkpt>
      <trkpt lat="43.57614" lon="1.02331">
        <ele>164</ele>
        <time>2024-05-20T08:31:14Z</time>
      </trkpt>
      <trkpt lat="43.57609" lon="1.02334">
        <ele>164</ele>
        <time>2024-05-20T08:31:15Z</time>
      </trkpt>
      <trkpt lat="43.57603" lon="1.02337">
        <ele>164</ele>
        <time>2024-05-20T08:31:16Z</time>
      </trkpt>
      <trkpt lat="43.57598" lon="1.02342">
        <ele>164</ele>
        <time>2024-05-20T08:31:17Z</time>
      </trkpt>
      <trkpt lat="43.57592" lon="1.02347">
        <ele>164</ele>
        <time>2024-05-20T08:31:18Z</time>
      </trkpt>
      <trkpt lat="43.57586" lon="1.02352">
        <ele>164</ele>
        <time>2024-05-20T08:31:19Z</time>
      </trkpt>
      <trkpt lat="43.5758" lon="1.02357">
        <ele>164</ele>
        <time>2024-05-20T08:31:20Z</time>
      </trkpt>
      <trkpt lat="43.57575" lon="1.02363">
        <ele>164</ele>
        <time>2024-05-20T08:31:21Z</time>
      </trkpt>
      <trkpt lat="43.57569" lon="1.02367">
        <ele>163.8</ele>
        <time>2024-05-20T08:31:22Z</time>
      </trkpt>
      <trkpt lat="43.57564" lon="1.02372">
        <ele>163.8</ele>
        <time>2024-05-20T08:31:23Z</time>
      </trkpt>
      <trkpt lat="43.57559" lon="1.02378">
        <ele>163.6</ele>
        <time>2024-05-20T08:31:24Z</time>
      </trkpt>
      <trkpt lat="43.57554" lon="1.02383">
        <ele>163.2</ele>
        <time>2024-05-20T08:31:25Z</time>
      </trkpt>
      <trkpt lat="43.57548" lon="1.02388">
        <ele>163.2</ele>
        <time>2024-05-20T08:31:26Z</time>
      </trkpt>
      <trkpt lat="43.57544" lon="1.02393">
        <ele>163</ele>
        <time>2024-05-20T08:31:27Z</time>
      </trkpt>
      <trkpt lat="43.57539" lon="1.02399">
        <ele>163</ele>
        <time>2024-05-20T08:31:28Z</time>
      </trkpt>
      <trkpt lat="43.57534" lon="1.02405">
        <ele>163</ele>
        <time>2024-05-20T08:31:29Z</time>
      </trkpt>
      <trkpt lat="43.5753" lon="1.02411">
        <ele>162.8</ele>
        <time>2024-05-20T08:31:30Z</time>
      </trkpt>
      <trkpt lat="43.57526" lon="1.02417">
        <ele>162.8</ele>
        <time>2024-05-20T08:31:31Z</time>
      </trkpt>
      <trkpt lat="43.57522" lon="1.02423">
        <ele>162.8</ele>
        <time>2024-05-20T08:31:32Z</time>
      </trkpt>
      <trkpt lat="43.57518" lon="1.0243">
        <ele>162.8</ele>
        <time>2024-05-20T08:31:33Z</time>
      </trkpt>
      <trkpt lat="43.57514" lon="1.02437">
        <ele>162.8</ele>
        <time>2024-05-20T08:31:34Z</time>
      </trkpt>
      <trkpt lat="43.5751" lon="1.02444">
        <ele>162.8</ele>
        <time>2024-05-20T08:31:35Z</time>
      </trkpt>
      <trkpt lat="43.57506" lon="1.0245">
        <ele>162.8</ele>
        <time>2024-05-20T08:31:36Z</time>
      </trkpt>
      <trkpt lat="43.57502" lon="1.02457">
        <ele>162.8</ele>
        <time>2024-05-20T08:31:37Z</time>
      </trkpt>
      <trkpt lat="43.57497" lon="1.02464">
        <ele>162.8</ele>
        <time>2024-05-20T08:31:38Z</time>
      </trkpt>
      <trkpt lat="43.57493" lon="1.0247">
        <ele>162.8</ele>
        <time>2024-05-20T08:31:39Z</time>
      </trkpt>
      <trkpt lat="43.57488" lon="1.02477">
        <ele>162.8</ele>
        <time>2024-05-20T08:31:40Z</time>
      </trkpt>
      <trkpt lat="43.57484" lon="1.02483">
        <ele>162.8</ele>
        <time>2024-05-20T08:31:41Z</time>
      </trkpt>
      <trkpt lat="43.57479" lon="1.02489">
        <ele>162.8</ele>
        <time>2024-05-20T08:31:42Z</time>
      </trkpt>
      <trkpt lat="43.57474" lon="1.02495">
        <ele>163</ele>
        <time>2024-05-20T08:31:43Z</time>
      </trkpt>
      <trkpt lat="43.5747" lon="1.02502">
        <ele>163</ele>
        <time>2024-05-20T08:31:44Z</time>
      </trkpt>
      <trkpt lat="43.57465" lon="1.02508">
        <ele>162.8</ele>
        <time>2024-05-20T08:31:45Z</time>
      </trkpt>
      <trkpt lat="43.5746" lon="1.02515">
        <ele>163</ele>
        <time>2024-05-20T08:31:46Z</time>
      </trkpt>
      <trkpt lat="43.57456" lon="1.02521">
        <ele>163</ele>
        <time>2024-05-20T08:31:47Z</time>
      </trkpt>
      <trkpt lat="43.57451" lon="1.02527">
        <ele>163</ele>
        <time>2024-05-20T08:31:48Z</time>
      </trkpt>
      <trkpt lat="43.57446" lon="1.02534">
        <ele>163</ele>
        <time>2024-05-20T08:31:49Z</time>
      </trkpt>
      <trkpt lat="43.57442" lon="1.02541">
        <ele>163</ele>
        <time>2024-05-20T08:31:50Z</time>
      </trkpt>
      <trkpt lat="43.57438" lon="1.02548">
        <ele>163</ele>
        <time>2024-05-20T08:31:51Z</time>
      </trkpt>
      <trkpt lat="43.57434" lon="1.02555">
        <ele>163</ele>
        <time>2024-05-20T08:31:52Z</time>
      </trkpt>
      <trkpt lat="43.5743" lon="1.02562">
        <ele>163</ele>
        <time>2024-05-20T08:31:53Z</time>
      </trkpt>
      <trkpt lat="43.57427" lon="1.02569">
        <ele>163</ele>
        <time>2024-05-20T08:31:54Z</time>
      </trkpt>
      <trkpt lat="43.57423" lon="1.02578">
        <ele>163</ele>
        <time>2024-05-20T08:31:55Z</time>
      </trkpt>
      <trkpt lat="43.5742" lon="1.02586">
        <ele>163</ele>
        <time>2024-05-20T08:31:56Z</time>
      </trkpt>
      <trkpt lat="43.57416" lon="1.02596">
        <ele>163</ele>
        <time>2024-05-20T08:31:57Z</time>
      </trkpt>
      <trkpt lat="43.57414" lon="1.02603">
        <ele>162.8</ele>
        <time>2024-05-20T08:31:58Z</time>
      </trkpt>
      <trkpt lat="43.57411" lon="1.02612">
        <ele>162.8</ele>
        <time>2024-05-20T08:31:59Z</time>
      </trkpt>
      <trkpt lat="43.57408" lon="1.02619">
        <ele>162.8</ele>
        <time>2024-05-20T08:32:00Z</time>
      </trkpt>
      <trkpt lat="43.57405" lon="1.02629">
        <ele>162.8</ele>
        <time>2024-05-20T08:32:01Z</time>
      </trkpt>
      <trkpt lat="43.57403" lon="1.02635">
        <ele>162.6</ele>
        <time>2024-05-20T08:32:02Z</time>
      </trkpt>
      <trkpt lat="43.574" lon="1.02644">
        <ele>162.6</ele>
        <time>2024-05-20T08:32:03Z</time>
      </trkpt>
      <trkpt lat="43.57398" lon="1.02653">
        <ele>162.6</ele>
        <time>2024-05-20T08:32:04Z</time>
      </trkpt>
      <trkpt lat="43.57395" lon="1.02661">
        <ele>162.6</ele>
        <time>2024-05-20T08:32:05Z</time>
      </trkpt>
      <trkpt lat="43.57393" lon="1.0267">
        <ele>162.6</ele>
        <time>2024-05-20T08:32:06Z</time>
      </trkpt>
      <trkpt lat="43.57392" lon="1.02679">
        <ele>162.6</ele>
        <time>2024-05-20T08:32:07Z</time>
      </trkpt>
      <trkpt lat="43.57391" lon="1.02688">
        <ele>162.6</ele>
        <time>2024-05-20T08:32:08Z</time>
      </trkpt>
      <trkpt lat="43.5739" lon="1.02698">
        <ele>162.6</ele>
        <time>2024-05-20T08:32:09Z</time>
      </trkpt>
      <trkpt lat="43.57389" lon="1.02708">
        <ele>162.6</ele>
        <time>2024-05-20T08:32:10Z</time>
      </trkpt>
      <trkpt lat="43.57389" lon="1.02719">
        <ele>162.6</ele>
        <time>2024-05-20T08:32:11Z</time>
      </trkpt>
      <trkpt lat="43.5739" lon="1.02729">
        <ele>162.8</ele>
        <time>2024-05-20T08:32:12Z</time>
      </trkpt>
      <trkpt lat="43.57391" lon="1.0274">
        <ele>162.8</ele>
        <time>2024-05-20T08:32:13Z</time>
      </trkpt>
      <trkpt lat="43.57392" lon="1.02751">
        <ele>162.8</ele>
        <time>2024-05-20T08:32:14Z</time>
      </trkpt>
      <trkpt lat="43.57394" lon="1.02762">
        <ele>162.8</ele>
        <time>2024-05-20T08:32:15Z</time>
      </trkpt>
      <trkpt lat="43.57395" lon="1.02774">
        <ele>162.8</ele>
        <time>2024-05-20T08:32:16Z</time>
      </trkpt>
      <trkpt lat="43.57397" lon="1.02784">
        <ele>162.8</ele>
        <time>2024-05-20T08:32:17Z</time>
      </trkpt>
      <trkpt lat="43.57399" lon="1.02795">
        <ele>162.8</ele>
        <time>2024-05-20T08:32:18Z</time>
      </trkpt>
      <trkpt lat="43.57401" lon="1.02806">
        <ele>162.8</ele>
        <time>2024-05-20T08:32:19Z</time>
      </trkpt>
      <trkpt lat="43.57405" lon="1.02818">
        <ele>162.8</ele>
        <time>2024-05-20T08:32:20Z</time>
      </trkpt>
      <trkpt lat="43.57407" lon="1.02826">
        <ele>162.8</ele>
        <time>2024-05-20T08:32:21Z</time>
      </trkpt>
      <trkpt lat="43.57409" lon="1.02836">
        <ele>162.8</ele>
        <time>2024-05-20T08:32:22Z</time>
      </trkpt>
      <trkpt lat="43.57412" lon="1.02847">
        <ele>162.8</ele>
        <time>2024-05-20T08:32:23Z</time>
      </trkpt>
      <trkpt lat="43.57415" lon="1.02857">
        <ele>162.8</ele>
        <time>2024-05-20T08:32:24Z</time>
      </trkpt>
      <trkpt lat="43.57417" lon="1.02868">
        <ele>162.8</ele>
        <time>2024-05-20T08:32:25Z</time>
      </trkpt>
      <trkpt lat="43.57418" lon="1.02878">
        <ele>162.8</ele>
        <time>2024-05-20T08:32:26Z</time>
      </trkpt>
      <trkpt lat="43.5742" lon="1.02889">
        <ele>162.8</ele>
        <time>2024-05-20T08:32:27Z</time>
      </trkpt>
      <trkpt lat="43.57421" lon="1.02899">
        <ele>162.8</ele>
        <time>2024-05-20T08:32:28Z</time>
      </trkpt>
      <trkpt lat="43.57422" lon="1.02909">
        <ele>162.8</ele>
        <time>2024-05-20T08:32:29Z</time>
      </trkpt>
      <trkpt lat="43.57423" lon="1.0292">
        <ele>162.8</ele>
        <time>2024-05-20T08:32:30Z</time>
      </trkpt>
      <trkpt lat="43.57424" lon="1.02931">
        <ele>163</ele>
        <time>2024-05-20T08:32:31Z</time>
      </trkpt>
      <trkpt lat="43.57424" lon="1.02942">
        <ele>162.8</ele>
        <time>2024-05-20T08:32:32Z</time>
      </trkpt>
      <trkpt lat="43.57424" lon="1.02953">
        <ele>162.8</ele>
        <time>2024-05-20T08:32:33Z</time>
      </trkpt>
      <trkpt lat="43.57424" lon="1.02965">
        <ele>162.8</ele>
        <time>2024-05-20T08:32:34Z</time>
      </trkpt>
      <trkpt lat="43.57424" lon="1.02977">
        <ele>163</ele>
        <time>2024-05-20T08:32:35Z</time>
      </trkpt>
      <trkpt lat="43.57424" lon="1.02988">
        <ele>162.8</ele>
        <time>2024-05-20T08:32:36Z</time>
      </trkpt>
      <trkpt lat="43.57422" lon="1.02998">
        <ele>162.8</ele>
        <time>2024-05-20T08:32:37Z</time>
      </trkpt>
      <trkpt lat="43.57421" lon="1.03009">
        <ele>162.8</ele>
        <time>2024-05-20T08:32:38Z</time>
      </trkpt>
      <trkpt lat="43.57419" lon="1.03019">
        <ele>162.8</ele>
        <time>2024-05-20T08:32:39Z</time>
      </trkpt>
      <trkpt lat="43.57417" lon="1.0303">
        <ele>163</ele>
        <time>2024-05-20T08:32:40Z</time>
      </trkpt>
      <trkpt lat="43.57415" lon="1.0304">
        <ele>163</ele>
        <time>2024-05-20T08:32:41Z</time>
      </trkpt>
      <trkpt lat="43.57412" lon="1.0305">
        <ele>163</ele>
        <time>2024-05-20T08:32:42Z</time>
      </trkpt>
      <trkpt lat="43.5741" lon="1.0306">
        <ele>162.8</ele>
        <time>2024-05-20T08:32:43Z</time>
      </trkpt>
      <trkpt lat="43.57407" lon="1.03071">
        <ele>162.8</ele>
        <time>2024-05-20T08:32:44Z</time>
      </trkpt>
      <trkpt lat="43.57406" lon="1.03081">
        <ele>162.8</ele>
        <time>2024-05-20T08:32:45Z</time>
      </trkpt>
      <trkpt lat="43.57405" lon="1.03091">
        <ele>163</ele>
        <time>2024-05-20T08:32:46Z</time>
      </trkpt>
      <trkpt lat="43.57406" lon="1.03102">
        <ele>163</ele>
        <time>2024-05-20T08:32:47Z</time>
      </trkpt>
      <trkpt lat="43.57408" lon="1.03112">
        <ele>163</ele>
        <time>2024-05-20T08:32:48Z</time>
      </trkpt>
      <trkpt lat="43.57413" lon="1.03123">
        <ele>163</ele>
        <time>2024-05-20T08:32:49Z</time>
      </trkpt>
      <trkpt lat="43.57418" lon="1.03128">
        <ele>163</ele>
        <time>2024-05-20T08:32:50Z</time>
      </trkpt>
      <trkpt lat="43.57425" lon="1.03133">
        <ele>163</ele>
        <time>2024-05-20T08:32:51Z</time>
      </trkpt>
      <trkpt lat="43.57432" lon="1.03137">
        <ele>162.8</ele>
        <time>2024-05-20T08:32:52Z</time>
      </trkpt>
      <trkpt lat="43.5744" lon="1.03141">
        <ele>162.8</ele>
        <time>2024-05-20T08:32:53Z</time>
      </trkpt>
      <trkpt lat="43.57447" lon="1.03145">
        <ele>163</ele>
        <time>2024-05-20T08:32:54Z</time>
      </trkpt>
      <trkpt lat="43.57453" lon="1.03151">
        <ele>163</ele>
        <time>2024-05-20T08:32:55Z</time>
      </trkpt>
      <trkpt lat="43.57456" lon="1.03157">
        <ele>163</ele>
        <time>2024-05-20T08:32:56Z</time>
      </trkpt>
      <trkpt lat="43.57459" lon="1.03167">
        <ele>163</ele>
        <time>2024-05-20T08:32:57Z</time>
      </trkpt>
      <trkpt lat="43.57459" lon="1.03176">
        <ele>163</ele>
        <time>2024-05-20T08:32:58Z</time>
      </trkpt>
      <trkpt lat="43.57457" lon="1.03184">
        <ele>163</ele>
        <time>2024-05-20T08:32:59Z</time>
      </trkpt>
      <trkpt lat="43.57453" lon="1.03193">
        <ele>163</ele>
        <time>2024-05-20T08:33:00Z</time>
      </trkpt>
      <trkpt lat="43.5745" lon="1.03201">
        <ele>163</ele>
        <time>2024-05-20T08:33:01Z</time>
      </trkpt>
      <trkpt lat="43.57446" lon="1.03213">
        <ele>163</ele>
        <time>2024-05-20T08:33:02Z</time>
      </trkpt>
      <trkpt lat="43.57442" lon="1.03223">
        <ele>163</ele>
        <time>2024-05-20T08:33:03Z</time>
      </trkpt>
      <trkpt lat="43.57439" lon="1.03233">
        <ele>163</ele>
        <time>2024-05-20T08:33:04Z</time>
      </trkpt>
      <trkpt lat="43.57435" lon="1.03244">
        <ele>163</ele>
        <time>2024-05-20T08:33:05Z</time>
      </trkpt>
      <trkpt lat="43.57432" lon="1.03255">
        <ele>163</ele>
        <time>2024-05-20T08:33:06Z</time>
      </trkpt>
      <trkpt lat="43.57428" lon="1.03266">
        <ele>163</ele>
        <time>2024-05-20T08:33:07Z</time>
      </trkpt>
      <trkpt lat="43.57425" lon="1.03277">
        <ele>162.8</ele>
        <time>2024-05-20T08:33:08Z</time>
      </trkpt>
      <trkpt lat="43.57421" lon="1.03286">
        <ele>162.8</ele>
        <time>2024-05-20T08:33:09Z</time>
      </trkpt>
      <trkpt lat="43.57418" lon="1.03297">
        <ele>162.6</ele>
        <time>2024-05-20T08:33:10Z</time>
      </trkpt>
      <trkpt lat="43.57413" lon="1.03309">
        <ele>162.4</ele>
        <time>2024-05-20T08:33:11Z</time>
      </trkpt>
      <trkpt lat="43.5741" lon="1.03319">
        <ele>162</ele>
        <time>2024-05-20T08:33:12Z</time>
      </trkpt>
      <trkpt lat="43.57407" lon="1.03329">
        <ele>161.8</ele>
        <time>2024-05-20T08:33:13Z</time>
      </trkpt>
      <trkpt lat="43.57403" lon="1.03338">
        <ele>161.8</ele>
        <time>2024-05-20T08:33:14Z</time>
      </trkpt>
      <trkpt lat="43.574" lon="1.03348">
        <ele>161.8</ele>
        <time>2024-05-20T08:33:15Z</time>
      </trkpt>
      <trkpt lat="43.57397" lon="1.03357">
        <ele>161.8</ele>
        <time>2024-05-20T08:33:16Z</time>
      </trkpt>
      <trkpt lat="43.57394" lon="1.03366">
        <ele>161.8</ele>
        <time>2024-05-20T08:33:17Z</time>
      </trkpt>
      <trkpt lat="43.57392" lon="1.03373">
        <ele>161.8</ele>
        <time>2024-05-20T08:33:18Z</time>
      </trkpt>
      <trkpt lat="43.57389" lon="1.03382">
        <ele>161.8</ele>
        <time>2024-05-20T08:33:19Z</time>
      </trkpt>
      <trkpt lat="43.57385" lon="1.03393">
        <ele>161.8</ele>
        <time>2024-05-20T08:33:20Z</time>
      </trkpt>
      <trkpt lat="43.57382" lon="1.03401">
        <ele>161.8</ele>
        <time>2024-05-20T08:33:21Z</time>
      </trkpt>
      <trkpt lat="43.57379" lon="1.0341">
        <ele>161.8</ele>
        <time>2024-05-20T08:33:22Z</time>
      </trkpt>
      <trkpt lat="43.57376" lon="1.03419">
        <ele>161.8</ele>
        <time>2024-05-20T08:33:23Z</time>
      </trkpt>
      <trkpt lat="43.57373" lon="1.03427">
        <ele>161.8</ele>
        <time>2024-05-20T08:33:24Z</time>
      </trkpt>
      <trkpt lat="43.5737" lon="1.03437">
        <ele>161.8</ele>
        <time>2024-05-20T08:33:25Z</time>
      </trkpt>
      <trkpt lat="43.57367" lon="1.03446">
        <ele>161.8</ele>
        <time>2024-05-20T08:33:26Z</time>
      </trkpt>
      <trkpt lat="43.57364" lon="1.03455">
        <ele>161.8</ele>
        <time>2024-05-20T08:33:27Z</time>
      </trkpt>
      <trkpt lat="43.57362" lon="1.03462">
        <ele>161.8</ele>
        <time>2024-05-20T08:33:28Z</time>
      </trkpt>
      <trkpt lat="43.57358" lon="1.03473">
        <ele>161.8</ele>
        <time>2024-05-20T08:33:29Z</time>
      </trkpt>
      <trkpt lat="43.57355" lon="1.03482">
        <ele>161.8</ele>
        <time>2024-05-20T08:33:30Z</time>
      </trkpt>
      <trkpt lat="43.57352" lon="1.03491">
        <ele>161.8</ele>
        <time>2024-05-20T08:33:31Z</time>
      </trkpt>
      <trkpt lat="43.57349" lon="1.03498">
        <ele>161.8</ele>
        <time>2024-05-20T08:33:32Z</time>
      </trkpt>
      <trkpt lat="43.57346" lon="1.03507">
        <ele>161.6</ele>
        <time>2024-05-20T08:33:33Z</time>
      </trkpt>
      <trkpt lat="43.57342" lon="1.03518">
        <ele>161.6</ele>
        <time>2024-05-20T08:33:34Z</time>
      </trkpt>
      <trkpt lat="43.57339" lon="1.03526">
        <ele>161.6</ele>
        <time>2024-05-20T08:33:35Z</time>
      </trkpt>
      <trkpt lat="43.57335" lon="1.03534">
        <ele>161.8</ele>
        <time>2024-05-20T08:33:36Z</time>
      </trkpt>
      <trkpt lat="43.57331" lon="1.03542">
        <ele>161.8</ele>
        <time>2024-05-20T08:33:37Z</time>
      </trkpt>
      <trkpt lat="43.57326" lon="1.03548">
        <ele>161.8</ele>
        <time>2024-05-20T08:33:38Z</time>
      </trkpt>
      <trkpt lat="43.57321" lon="1.03554">
        <ele>162</ele>
        <time>2024-05-20T08:33:39Z</time>
      </trkpt>
      <trkpt lat="43.57315" lon="1.03558">
        <ele>162.2</ele>
        <time>2024-05-20T08:33:40Z</time>
      </trkpt>
      <trkpt lat="43.57311" lon="1.03561">
        <ele>162.4</ele>
        <time>2024-05-20T08:33:41Z</time>
      </trkpt>
      <trkpt lat="43.57304" lon="1.03564">
        <ele>162.4</ele>
        <time>2024-05-20T08:33:42Z</time>
      </trkpt>
      <trkpt lat="43.57298" lon="1.03565">
        <ele>162.4</ele>
        <time>2024-05-20T08:33:43Z</time>
      </trkpt>
      <trkpt lat="43.57293" lon="1.03565">
        <ele>162.6</ele>
        <time>2024-05-20T08:33:44Z</time>
      </trkpt>
      <trkpt lat="43.57287" lon="1.03566">
        <ele>163</ele>
        <time>2024-05-20T08:33:45Z</time>
      </trkpt>
      <trkpt lat="43.57282" lon="1.03566">
        <ele>163.2</ele>
        <time>2024-05-20T08:33:46Z</time>
      </trkpt>
      <trkpt lat="43.57277" lon="1.03566">
        <ele>163.6</ele>
        <time>2024-05-20T08:33:47Z</time>
      </trkpt>
      <trkpt lat="43.57272" lon="1.03566">
        <ele>163.8</ele>
        <time>2024-05-20T08:33:48Z</time>
      </trkpt>
      <trkpt lat="43.57266" lon="1.03567">
        <ele>164</ele>
        <time>2024-05-20T08:33:49Z</time>
      </trkpt>
      <trkpt lat="43.57261" lon="1.03569">
        <ele>164.2</ele>
        <time>2024-05-20T08:33:50Z</time>
      </trkpt>
      <trkpt lat="43.57257" lon="1.03571">
        <ele>164.4</ele>
        <time>2024-05-20T08:33:51Z</time>
      </trkpt>
      <trkpt lat="43.57252" lon="1.03574">
        <ele>164.4</ele>
        <time>2024-05-20T08:33:52Z</time>
      </trkpt>
      <trkpt lat="43.57248" lon="1.03577">
        <ele>164.4</ele>
        <time>2024-05-20T08:33:53Z</time>
      </trkpt>
      <trkpt lat="43.57246" lon="1.03579">
        <ele>164.6</ele>
        <time>2024-05-20T08:33:54Z</time>
      </trkpt>
      <trkpt lat="43.57243" lon="1.03581">
        <ele>164.6</ele>
        <time>2024-05-20T08:33:55Z</time>
      </trkpt>
      <trkpt lat="43.57241" lon="1.03583">
        <ele>164.6</ele>
        <time>2024-05-20T08:33:56Z</time>
      </trkpt>
      <trkpt lat="43.57239" lon="1.03584">
        <ele>164.6</ele>
        <time>2024-05-20T08:33:57Z</time>
      </trkpt>
      <trkpt lat="43.57238" lon="1.03586">
        <ele>164.8</ele>
        <time>2024-05-20T08:33:58Z</time>
      </trkpt>
      <trkpt lat="43.57237" lon="1.03588">
        <ele>164.8</ele>
        <time>2024-05-20T08:33:59Z</time>
      </trkpt>
      <trkpt lat="43.57235" lon="1.03589">
        <ele>165</ele>
        <time>2024-05-20T08:34:00Z</time>
      </trkpt>
      <trkpt lat="43.57234" lon="1.03591">
        <ele>165.2</ele>
        <time>2024-05-20T08:34:01Z</time>
      </trkpt>
      <trkpt lat="43.57232" lon="1.03593">
        <ele>165.4</ele>
        <time>2024-05-20T08:34:02Z</time>
      </trkpt>
      <trkpt lat="43.57232" lon="1.03596">
        <ele>165.6</ele>
        <time>2024-05-20T08:34:03Z</time>
      </trkpt>
      <trkpt lat="43.57232" lon="1.03599">
        <ele>165.6</ele>
        <time>2024-05-20T08:34:04Z</time>
      </trkpt>
      <trkpt lat="43.57234" lon="1.03602">
        <ele>165.8</ele>
        <time>2024-05-20T08:34:05Z</time>
      </trkpt>
      <trkpt lat="43.57236" lon="1.03604">
        <ele>165.8</ele>
        <time>2024-05-20T08:34:06Z</time>
      </trkpt>
      <trkpt lat="43.57239" lon="1.03606">
        <ele>166</ele>
        <time>2024-05-20T08:34:07Z</time>
      </trkpt>
      <trkpt lat="43.57242" lon="1.03609">
        <ele>166</ele>
        <time>2024-05-20T08:34:08Z</time>
      </trkpt>
      <trkpt lat="43.57245" lon="1.03612">
        <ele>166</ele>
        <time>2024-05-20T08:34:09Z</time>
      </trkpt>
      <trkpt lat="43.57248" lon="1.03615">
        <ele>165.8</ele>
        <time>2024-05-20T08:34:10Z</time>
      </trkpt>
      <trkpt lat="43.57252" lon="1.03619">
        <ele>165.6</ele>
        <time>2024-05-20T08:34:11Z</time>
      </trkpt>
      <trkpt lat="43.57256" lon="1.03624">
        <ele>165.6</ele>
        <time>2024-05-20T08:34:12Z</time>
      </trkpt>
      <trkpt lat="43.57259" lon="1.03628">
        <ele>165.4</ele>
        <time>2024-05-20T08:34:13Z</time>
      </trkpt>
      <trkpt lat="43.57265" lon="1.03634">
        <ele>165.2</ele>
        <time>2024-05-20T08:34:14Z</time>
      </trkpt>
      <trkpt lat="43.5727" lon="1.03639">
        <ele>165.2</ele>
        <time>2024-05-20T08:34:15Z</time>
      </trkpt>
      <trkpt lat="43.57276" lon="1.03645">
        <ele>165</ele>
        <time>2024-05-20T08:34:16Z</time>
      </trkpt>
      <trkpt lat="43.57282" lon="1.03651">
        <ele>164.8</ele>
        <time>2024-05-20T08:34:17Z</time>
      </trkpt>
      <trkpt lat="43.57288" lon="1.03657">
        <ele>164.8</ele>
        <time>2024-05-20T08:34:18Z</time>
      </trkpt>
      <trkpt lat="43.57294" lon="1.03664">
        <ele>164.4</ele>
        <time>2024-05-20T08:34:19Z</time>
      </trkpt>
      <trkpt lat="43.57301" lon="1.03671">
        <ele>164.4</ele>
        <time>2024-05-20T08:34:20Z</time>
      </trkpt>
      <trkpt lat="43.57307" lon="1.03677">
        <ele>164</ele>
        <time>2024-05-20T08:34:21Z</time>
      </trkpt>
      <trkpt lat="43.57314" lon="1.03684">
        <ele>164</ele>
        <time>2024-05-20T08:34:22Z</time>
      </trkpt>
      <trkpt lat="43.5732" lon="1.03691">
        <ele>163.8</ele>
        <time>2024-05-20T08:34:23Z</time>
      </trkpt>
      <trkpt lat="43.57327" lon="1.03698">
        <ele>163.4</ele>
        <time>2024-05-20T08:34:24Z</time>
      </trkpt>
      <trkpt lat="43.57333" lon="1.03705">
        <ele>163.4</ele>
        <time>2024-05-20T08:34:25Z</time>
      </trkpt>
      <trkpt lat="43.5734" lon="1.03711">
        <ele>163.2</ele>
        <time>2024-05-20T08:34:26Z</time>
      </trkpt>
      <trkpt lat="43.57347" lon="1.03718">
        <ele>163.2</ele>
        <time>2024-05-20T08:34:27Z</time>
      </trkpt>
      <trkpt lat="43.57353" lon="1.03725">
        <ele>163</ele>
        <time>2024-05-20T08:34:28Z</time>
      </trkpt>
      <trkpt lat="43.5736" lon="1.03732">
        <ele>162.8</ele>
        <time>2024-05-20T08:34:29Z</time>
      </trkpt>
      <trkpt lat="43.57366" lon="1.03738">
        <ele>162.6</ele>
        <time>2024-05-20T08:34:30Z</time>
      </trkpt>
      <trkpt lat="43.57373" lon="1.03745">
        <ele>162.6</ele>
        <time>2024-05-20T08:34:31Z</time>
      </trkpt>
      <trkpt lat="43.57379" lon="1.03752">
        <ele>162.4</ele>
        <time>2024-05-20T08:34:32Z</time>
      </trkpt>
      <trkpt lat="43.57386" lon="1.03758">
        <ele>162.2</ele>
        <time>2024-05-20T08:34:33Z</time>
      </trkpt>
      <trkpt lat="43.57392" lon="1.03765">
        <ele>162.2</ele>
        <time>2024-05-20T08:34:34Z</time>
      </trkpt>
      <trkpt lat="43.57398" lon="1.03771">
        <ele>162.2</ele>
        <time>2024-05-20T08:34:35Z</time>
      </trkpt>
      <trkpt lat="43.57404" lon="1.03777">
        <ele>162.2</ele>
        <time>2024-05-20T08:34:36Z</time>
      </trkpt>
      <trkpt lat="43.5741" lon="1.03783">
        <ele>162.2</ele>
        <time>2024-05-20T08:34:37Z</time>
      </trkpt>
      <trkpt lat="43.57416" lon="1.03789">
        <ele>162.4</ele>
        <time>2024-05-20T08:34:38Z</time>
      </trkpt>
      <trkpt lat="43.57422" lon="1.03796">
        <ele>162.4</ele>
        <time>2024-05-20T08:34:39Z</time>
      </trkpt>
      <trkpt lat="43.57428" lon="1.03802">
        <ele>162.6</ele>
        <time>2024-05-20T08:34:40Z</time>
      </trkpt>
      <trkpt lat="43.57434" lon="1.03808">
        <ele>162.6</ele>
        <time>2024-05-20T08:34:41Z</time>
      </trkpt>
      <trkpt lat="43.5744" lon="1.03814">
        <ele>162.8</ele>
        <time>2024-05-20T08:34:42Z</time>
      </trkpt>
      <trkpt lat="43.57446" lon="1.03821">
        <ele>162.8</ele>
        <time>2024-05-20T08:34:43Z</time>
      </trkpt>
      <trkpt lat="43.57451" lon="1.03827">
        <ele>163</ele>
        <time>2024-05-20T08:34:44Z</time>
      </trkpt>
      <trkpt lat="43.57456" lon="1.03831">
        <ele>163</ele>
        <time>2024-05-20T08:34:45Z</time>
      </trkpt>
      <trkpt lat="43.57463" lon="1.03839">
        <ele>163</ele>
        <time>2024-05-20T08:34:46Z</time>
      </trkpt>
      <trkpt lat="43.57468" lon="1.03845">
        <ele>163</ele>
        <time>2024-05-20T08:34:47Z</time>
      </trkpt>
      <trkpt lat="43.57473" lon="1.03851">
        <ele>163.2</ele>
        <time>2024-05-20T08:34:48Z</time>
      </trkpt>
      <trkpt lat="43.57479" lon="1.03857">
        <ele>163.2</ele>
        <time>2024-05-20T08:34:49Z</time>
      </trkpt>
      <trkpt lat="43.57485" lon="1.03863">
        <ele>163.2</ele>
        <time>2024-05-20T08:34:50Z</time>
      </trkpt>
      <trkpt lat="43.5749" lon="1.03869">
        <ele>163.4</ele>
        <time>2024-05-20T08:34:51Z</time>
      </trkpt>
      <trkpt lat="43.57496" lon="1.03875">
        <ele>163.6</ele>
        <time>2024-05-20T08:34:52Z</time>
      </trkpt>
      <trkpt lat="43.57502" lon="1.03881">
        <ele>163.6</ele>
        <time>2024-05-20T08:34:53Z</time>
      </trkpt>
      <trkpt lat="43.57508" lon="1.03887">
        <ele>163.8</ele>
        <time>2024-05-20T08:34:54Z</time>
      </trkpt>
      <trkpt lat="43.57514" lon="1.03893">
        <ele>164</ele>
        <time>2024-05-20T08:34:55Z</time>
      </trkpt>
      <trkpt lat="43.5752" lon="1.03899">
        <ele>164</ele>
        <time>2024-05-20T08:34:56Z</time>
      </trkpt>
      <trkpt lat="43.57527" lon="1.03906">
        <ele>164</ele>
        <time>2024-05-20T08:34:57Z</time>
      </trkpt>
      <trkpt lat="43.57533" lon="1.03912">
        <ele>164</ele>
        <time>2024-05-20T08:34:58Z</time>
      </trkpt>
      <trkpt lat="43.57539" lon="1.03919">
        <ele>164</ele>
        <time>2024-05-20T08:34:59Z</time>
      </trkpt>
      <trkpt lat="43.57546" lon="1.03926">
        <ele>164</ele>
        <time>2024-05-20T08:35:00Z</time>
      </trkpt>
      <trkpt lat="43.57552" lon="1.03932">
        <ele>164</ele>
        <time>2024-05-20T08:35:01Z</time>
      </trkpt>
      <trkpt lat="43.57559" lon="1.03939">
        <ele>164</ele>
        <time>2024-05-20T08:35:02Z</time>
      </trkpt>
      <trkpt lat="43.57565" lon="1.03945">
        <ele>164</ele>
        <time>2024-05-20T08:35:03Z</time>
      </trkpt>
      <trkpt lat="43.5757" lon="1.03951">
        <ele>164</ele>
        <time>2024-05-20T08:35:04Z</time>
      </trkpt>
      <trkpt lat="43.57576" lon="1.03956">
        <ele>164</ele>
        <time>2024-05-20T08:35:05Z</time>
      </trkpt>
      <trkpt lat="43.57582" lon="1.03962">
        <ele>164</ele>
        <time>2024-05-20T08:35:06Z</time>
      </trkpt>
      <trkpt lat="43.57588" lon="1.03968">
        <ele>163.8</ele>
        <time>2024-05-20T08:35:07Z</time>
      </trkpt>
      <trkpt lat="43.57594" lon="1.03974">
        <ele>163.8</ele>
        <time>2024-05-20T08:35:08Z</time>
      </trkpt>
      <trkpt lat="43.576" lon="1.0398">
        <ele>163.8</ele>
        <time>2024-05-20T08:35:09Z</time>
      </trkpt>
      <trkpt lat="43.57606" lon="1.03987">
        <ele>163.8</ele>
        <time>2024-05-20T08:35:10Z</time>
      </trkpt>
      <trkpt lat="43.57612" lon="1.03993">
        <ele>163.8</ele>
        <time>2024-05-20T08:35:11Z</time>
      </trkpt>
      <trkpt lat="43.57617" lon="1.03999">
        <ele>163.8</ele>
        <time>2024-05-20T08:35:12Z</time>
      </trkpt>
      <trkpt lat="43.57623" lon="1.04005">
        <ele>163.8</ele>
        <time>2024-05-20T08:35:13Z</time>
      </trkpt>
      <trkpt lat="43.57629" lon="1.0401">
        <ele>163.8</ele>
        <time>2024-05-20T08:35:14Z</time>
      </trkpt>
      <trkpt lat="43.57635" lon="1.04016">
        <ele>163.8</ele>
        <time>2024-05-20T08:35:15Z</time>
      </trkpt>
      <trkpt lat="43.57641" lon="1.04022">
        <ele>163.8</ele>
        <time>2024-05-20T08:35:16Z</time>
      </trkpt>
      <trkpt lat="43.57645" lon="1.04027">
        <ele>163.8</ele>
        <time>2024-05-20T08:35:17Z</time>
      </trkpt>
      <trkpt lat="43.57652" lon="1.04033">
        <ele>163.8</ele>
        <time>2024-05-20T08:35:18Z</time>
      </trkpt>
      <trkpt lat="43.57658" lon="1.04039">
        <ele>163.8</ele>
        <time>2024-05-20T08:35:19Z</time>
      </trkpt>
      <trkpt lat="43.57663" lon="1.04045">
        <ele>164</ele>
        <time>2024-05-20T08:35:20Z</time>
      </trkpt>
      <trkpt lat="43.57669" lon="1.0405">
        <ele>164.2</ele>
        <time>2024-05-20T08:35:21Z</time>
      </trkpt>
      <trkpt lat="43.57674" lon="1.04056">
        <ele>164.4</ele>
        <time>2024-05-20T08:35:22Z</time>
      </trkpt>
      <trkpt lat="43.5768" lon="1.04061">
        <ele>164.6</ele>
        <time>2024-05-20T08:35:23Z</time>
      </trkpt>
      <trkpt lat="43.57685" lon="1.04067">
        <ele>164.6</ele>
        <time>2024-05-20T08:35:24Z</time>
      </trkpt>
      <trkpt lat="43.5769" lon="1.04072">
        <ele>164.6</ele>
        <time>2024-05-20T08:35:25Z</time>
      </trkpt>
      <trkpt lat="43.57694" lon="1.04076">
        <ele>165</ele>
        <time>2024-05-20T08:35:26Z</time>
      </trkpt>
      <trkpt lat="43.577" lon="1.04082">
        <ele>165</ele>
        <time>2024-05-20T08:35:27Z</time>
      </trkpt>
      <trkpt lat="43.57706" lon="1.04088">
        <ele>165.4</ele>
        <time>2024-05-20T08:35:28Z</time>
      </trkpt>
      <trkpt lat="43.57711" lon="1.04093">
        <ele>165.4</ele>
        <time>2024-05-20T08:35:29Z</time>
      </trkpt>
      <trkpt lat="43.57715" lon="1.04097">
        <ele>165.6</ele>
        <time>2024-05-20T08:35:30Z</time>
      </trkpt>
      <trkpt lat="43.57721" lon="1.04104">
        <ele>165.6</ele>
        <time>2024-05-20T08:35:31Z</time>
      </trkpt>
      <trkpt lat="43.57726" lon="1.04109">
        <ele>165.8</ele>
        <time>2024-05-20T08:35:32Z</time>
      </trkpt>
      <trkpt lat="43.57731" lon="1.04114">
        <ele>166</ele>
        <time>2024-05-20T08:35:33Z</time>
      </trkpt>
      <trkpt lat="43.57736" lon="1.04119">
        <ele>166.2</ele>
        <time>2024-05-20T08:35:34Z</time>
      </trkpt>
      <trkpt lat="43.57742" lon="1.04125">
        <ele>166.4</ele>
        <time>2024-05-20T08:35:35Z</time>
      </trkpt>
      <trkpt lat="43.57746" lon="1.04129">
        <ele>166.6</ele>
        <time>2024-05-20T08:35:36Z</time>
      </trkpt>
      <trkpt lat="43.57752" lon="1.04135">
        <ele>166.8</ele>
        <time>2024-05-20T08:35:37Z</time>
      </trkpt>
      <trkpt lat="43.57758" lon="1.04141">
        <ele>167</ele>
        <time>2024-05-20T08:35:38Z</time>
      </trkpt>
      <trkpt lat="43.57763" lon="1.04146">
        <ele>167.2</ele>
        <time>2024-05-20T08:35:39Z</time>
      </trkpt>
      <trkpt lat="43.57768" lon="1.04152">
        <ele>167.2</ele>
        <time>2024-05-20T08:35:40Z</time>
      </trkpt>
      <trkpt lat="43.57774" lon="1.04158">
        <ele>167.4</ele>
        <time>2024-05-20T08:35:41Z</time>
      </trkpt>
      <trkpt lat="43.57779" lon="1.04163">
        <ele>167.6</ele>
        <time>2024-05-20T08:35:42Z</time>
      </trkpt>
      <trkpt lat="43.57784" lon="1.04169">
        <ele>167.6</ele>
        <time>2024-05-20T08:35:43Z</time>
      </trkpt>
      <trkpt lat="43.57789" lon="1.04174">
        <ele>167.8</ele>
        <time>2024-05-20T08:35:44Z</time>
      </trkpt>
      <trkpt lat="43.57794" lon="1.04179">
        <ele>167.8</ele>
        <time>2024-05-20T08:35:45Z</time>
      </trkpt>
      <trkpt lat="43.57799" lon="1.04184">
        <ele>167.8</ele>
        <time>2024-05-20T08:35:46Z</time>
      </trkpt>
      <trkpt lat="43.57804" lon="1.04189">
        <ele>168</ele>
        <time>2024-05-20T08:35:47Z</time>
      </trkpt>
      <trkpt lat="43.57809" lon="1.04195">
        <ele>168</ele>
        <time>2024-05-20T08:35:48Z</time>
      </trkpt>
      <trkpt lat="43.57814" lon="1.042">
        <ele>168</ele>
        <time>2024-05-20T08:35:49Z</time>
      </trkpt>
      <trkpt lat="43.57819" lon="1.04205">
        <ele>168</ele>
        <time>2024-05-20T08:35:50Z</time>
      </trkpt>
      <trkpt lat="43.57824" lon="1.04211">
        <ele>168.2</ele>
        <time>2024-05-20T08:35:51Z</time>
      </trkpt>
      <trkpt lat="43.5783" lon="1.04216">
        <ele>168.4</ele>
        <time>2024-05-20T08:35:52Z</time>
      </trkpt>
      <trkpt lat="43.57835" lon="1.04221">
        <ele>168.4</ele>
        <time>2024-05-20T08:35:53Z</time>
      </trkpt>
      <trkpt lat="43.5784" lon="1.04226">
        <ele>168.6</ele>
        <time>2024-05-20T08:35:54Z</time>
      </trkpt>
      <trkpt lat="43.57845" lon="1.04231">
        <ele>168.8</ele>
        <time>2024-05-20T08:35:55Z</time>
      </trkpt>
      <trkpt lat="43.5785" lon="1.04236">
        <ele>168.8</ele>
        <time>2024-05-20T08:35:56Z</time>
      </trkpt>
      <trkpt lat="43.57855" lon="1.04242">
        <ele>169</ele>
        <time>2024-05-20T08:35:57Z</time>
      </trkpt>
      <trkpt lat="43.57861" lon="1.04248">
        <ele>169.2</ele>
        <time>2024-05-20T08:35:58Z</time>
      </trkpt>
      <trkpt lat="43.57866" lon="1.04253">
        <ele>169.2</ele>
        <time>2024-05-20T08:35:59Z</time>
      </trkpt>
      <trkpt lat="43.57871" lon="1.04259">
        <ele>169.4</ele>
        <time>2024-05-20T08:36:00Z</time>
      </trkpt>
      <trkpt lat="43.57876" lon="1.04264">
        <ele>169.6</ele>
        <time>2024-05-20T08:36:01Z</time>
      </trkpt>
      <trkpt lat="43.57881" lon="1.04269">
        <ele>169.8</ele>
        <time>2024-05-20T08:36:02Z</time>
      </trkpt>
      <trkpt lat="43.57886" lon="1.04274">
        <ele>170</ele>
        <time>2024-05-20T08:36:03Z</time>
      </trkpt>
      <trkpt lat="43.5789" lon="1.04279">
        <ele>170.2</ele>
        <time>2024-05-20T08:36:04Z</time>
      </trkpt>
      <trkpt lat="43.57895" lon="1.04283">
        <ele>170.6</ele>
        <time>2024-05-20T08:36:05Z</time>
      </trkpt>
      <trkpt lat="43.579" lon="1.04288">
        <ele>170.8</ele>
        <time>2024-05-20T08:36:06Z</time>
      </trkpt>
      <trkpt lat="43.57904" lon="1.04293">
        <ele>171</ele>
        <time>2024-05-20T08:36:07Z</time>
      </trkpt>
      <trkpt lat="43.57909" lon="1.04298">
        <ele>171.2</ele>
        <time>2024-05-20T08:36:08Z</time>
      </trkpt>
      <trkpt lat="43.57914" lon="1.04302">
        <ele>171.4</ele>
        <time>2024-05-20T08:36:09Z</time>
      </trkpt>
      <trkpt lat="43.57917" lon="1.04307">
        <ele>171.6</ele>
        <time>2024-05-20T08:36:10Z</time>
      </trkpt>
      <trkpt lat="43.57921" lon="1.04311">
        <ele>172</ele>
        <time>2024-05-20T08:36:11Z</time>
      </trkpt>
      <trkpt lat="43.57926" lon="1.04315">
        <ele>172.2</ele>
        <time>2024-05-20T08:36:12Z</time>
      </trkpt>
      <trkpt lat="43.57931" lon="1.04321">
        <ele>172.4</ele>
        <time>2024-05-20T08:36:13Z</time>
      </trkpt>
      <trkpt lat="43.57936" lon="1.04326">
        <ele>172.8</ele>
        <time>2024-05-20T08:36:14Z</time>
      </trkpt>
      <trkpt lat="43.57941" lon="1.04331">
        <ele>172.8</ele>
        <time>2024-05-20T08:36:15Z</time>
      </trkpt>
      <trkpt lat="43.57946" lon="1.04335">
        <ele>173</ele>
        <time>2024-05-20T08:36:16Z</time>
      </trkpt>
      <trkpt lat="43.57951" lon="1.0434">
        <ele>173</ele>
        <time>2024-05-20T08:36:17Z</time>
      </trkpt>
      <trkpt lat="43.57955" lon="1.04345">
        <ele>173.4</ele>
        <time>2024-05-20T08:36:18Z</time>
      </trkpt>
      <trkpt lat="43.5796" lon="1.04349">
        <ele>173.6</ele>
        <time>2024-05-20T08:36:19Z</time>
      </trkpt>
      <trkpt lat="43.57965" lon="1.04354">
        <ele>174</ele>
        <time>2024-05-20T08:36:20Z</time>
      </trkpt>
      <trkpt lat="43.5797" lon="1.04359">
        <ele>174.2</ele>
        <time>2024-05-20T08:36:21Z</time>
      </trkpt>
      <trkpt lat="43.57973" lon="1.04363">
        <ele>174.4</ele>
        <time>2024-05-20T08:36:22Z</time>
      </trkpt>
      <trkpt lat="43.57979" lon="1.04369">
        <ele>174.8</ele>
        <time>2024-05-20T08:36:23Z</time>
      </trkpt>
      <trkpt lat="43.57983" lon="1.04373">
        <ele>175</ele>
        <time>2024-05-20T08:36:24Z</time>
      </trkpt>
      <trkpt lat="43.57988" lon="1.04378">
        <ele>175.4</ele>
        <time>2024-05-20T08:36:25Z</time>
      </trkpt>
      <trkpt lat="43.57993" lon="1.04382">
        <ele>175.6</ele>
        <time>2024-05-20T08:36:26Z</time>
      </trkpt>
      <trkpt lat="43.57997" lon="1.04387">
        <ele>175.8</ele>
        <time>2024-05-20T08:36:27Z</time>
      </trkpt>
      <trkpt lat="43.58002" lon="1.04392">
        <ele>176.2</ele>
        <time>2024-05-20T08:36:28Z</time>
      </trkpt>
      <trkpt lat="43.58006" lon="1.04396">
        <ele>176.2</ele>
        <time>2024-05-20T08:36:29Z</time>
      </trkpt>
      <trkpt lat="43.5801" lon="1.04401">
        <ele>176.4</ele>
        <time>2024-05-20T08:36:30Z</time>
      </trkpt>
      <trkpt lat="43.58015" lon="1.04405">
        <ele>176.4</ele>
        <time>2024-05-20T08:36:31Z</time>
      </trkpt>
      <trkpt lat="43.58019" lon="1.0441">
        <ele>176.4</ele>
        <time>2024-05-20T08:36:32Z</time>
      </trkpt>
      <trkpt lat="43.58023" lon="1.04414">
        <ele>176.4</ele>
        <time>2024-05-20T08:36:33Z</time>
      </trkpt>
      <trkpt lat="43.58027" lon="1.04419">
        <ele>176.6</ele>
        <time>2024-05-20T08:36:34Z</time>
      </trkpt>
      <trkpt lat="43.58031" lon="1.04423">
        <ele>176.6</ele>
        <time>2024-05-20T08:36:35Z</time>
      </trkpt>
      <trkpt lat="43.58034" lon="1.04429">
        <ele>176.6</ele>
        <time>2024-05-20T08:36:36Z</time>
      </trkpt>
      <trkpt lat="43.58036" lon="1.04436">
        <ele>177</ele>
        <time>2024-05-20T08:36:37Z</time>
      </trkpt>
      <trkpt lat="43.58036" lon="1.04444">
        <ele>177.2</ele>
        <time>2024-05-20T08:36:38Z</time>
      </trkpt>
      <trkpt lat="43.58035" lon="1.04452">
        <ele>177.4</ele>
        <time>2024-05-20T08:36:39Z</time>
      </trkpt>
      <trkpt lat="43.58033" lon="1.0446">
        <ele>177.6</ele>
        <time>2024-05-20T08:36:40Z</time>
      </trkpt>
      <trkpt lat="43.5803" lon="1.04467">
        <ele>177.6</ele>
        <time>2024-05-20T08:36:41Z</time>
      </trkpt>
      <trkpt lat="43.58028" lon="1.04473">
        <ele>177.8</ele>
        <time>2024-05-20T08:36:42Z</time>
      </trkpt>
      <trkpt lat="43.58025" lon="1.04479">
        <ele>177.8</ele>
        <time>2024-05-20T08:36:43Z</time>
      </trkpt>
      <trkpt lat="43.58022" lon="1.04484">
        <ele>178</ele>
        <time>2024-05-20T08:36:44Z</time>
      </trkpt>
      <trkpt lat="43.58019" lon="1.0449">
        <ele>178</ele>
        <time>2024-05-20T08:36:45Z</time>
      </trkpt>
      <trkpt lat="43.58016" lon="1.04495">
        <ele>178.4</ele>
        <time>2024-05-20T08:36:46Z</time>
      </trkpt>
      <trkpt lat="43.58014" lon="1.045">
        <ele>178.6</ele>
        <time>2024-05-20T08:36:47Z</time>
      </trkpt>
      <trkpt lat="43.58011" lon="1.04505">
        <ele>179</ele>
        <time>2024-05-20T08:36:48Z</time>
      </trkpt>
      <trkpt lat="43.58008" lon="1.0451">
        <ele>179.2</ele>
        <time>2024-05-20T08:36:49Z</time>
      </trkpt>
      <trkpt lat="43.58005" lon="1.04515">
        <ele>179.4</ele>
        <time>2024-05-20T08:36:50Z</time>
      </trkpt>
      <trkpt lat="43.58003" lon="1.04519">
        <ele>179.8</ele>
        <time>2024-05-20T08:36:51Z</time>
      </trkpt>
      <trkpt lat="43.58" lon="1.04524">
        <ele>179.8</ele>
        <time>2024-05-20T08:36:52Z</time>
      </trkpt>
      <trkpt lat="43.57998" lon="1.04529">
        <ele>180.2</ele>
        <time>2024-05-20T08:36:53Z</time>
      </trkpt>
      <trkpt lat="43.57995" lon="1.04534">
        <ele>180.4</ele>
        <time>2024-05-20T08:36:54Z</time>
      </trkpt>
      <trkpt lat="43.57992" lon="1.04539">
        <ele>181</ele>
        <time>2024-05-20T08:36:55Z</time>
      </trkpt>
      <trkpt lat="43.5799" lon="1.04543">
        <ele>181.4</ele>
        <time>2024-05-20T08:36:56Z</time>
      </trkpt>
      <trkpt lat="43.57987" lon="1.04548">
        <ele>181.8</ele>
        <time>2024-05-20T08:36:57Z</time>
      </trkpt>
      <trkpt lat="43.57984" lon="1.04552">
        <ele>182</ele>
        <time>2024-05-20T08:36:58Z</time>
      </trkpt>
      <trkpt lat="43.57982" lon="1.04556">
        <ele>182.2</ele>
        <time>2024-05-20T08:36:59Z</time>
      </trkpt>
      <trkpt lat="43.5798" lon="1.0456">
        <ele>182.6</ele>
        <time>2024-05-20T08:37:00Z</time>
      </trkpt>
      <trkpt lat="43.57978" lon="1.04565">
        <ele>182.8</ele>
        <time>2024-05-20T08:37:01Z</time>
      </trkpt>
      <trkpt lat="43.57975" lon="1.04569">
        <ele>183.4</ele>
        <time>2024-05-20T08:37:02Z</time>
      </trkpt>
      <trkpt lat="43.57973" lon="1.04573">
        <ele>183.6</ele>
        <time>2024-05-20T08:37:03Z</time>
      </trkpt>
      <trkpt lat="43.57971" lon="1.04578">
        <ele>184</ele>
        <time>2024-05-20T08:37:04Z</time>
      </trkpt>
      <trkpt lat="43.57969" lon="1.04583">
        <ele>184.4</ele>
        <time>2024-05-20T08:37:05Z</time>
      </trkpt>
      <trkpt lat="43.57966" lon="1.04588">
        <ele>184.6</ele>
        <time>2024-05-20T08:37:06Z</time>
      </trkpt>
      <trkpt lat="43.57964" lon="1.04592">
        <ele>185.2</ele>
        <time>2024-05-20T08:37:07Z</time>
      </trkpt>
      <trkpt lat="43.57961" lon="1.04598">
        <ele>185.2</ele>
        <time>2024-05-20T08:37:08Z</time>
      </trkpt>
      <trkpt lat="43.57958" lon="1.04603">
        <ele>185.6</ele>
        <time>2024-05-20T08:37:09Z</time>
      </trkpt>
      <trkpt lat="43.57955" lon="1.04609">
        <ele>185.6</ele>
        <time>2024-05-20T08:37:10Z</time>
      </trkpt>
      <trkpt lat="43.57952" lon="1.04615">
        <ele>186</ele>
        <time>2024-05-20T08:37:11Z</time>
      </trkpt>
      <trkpt lat="43.57949" lon="1.04622">
        <ele>186.2</ele>
        <time>2024-05-20T08:37:12Z</time>
      </trkpt>
      <trkpt lat="43.57946" lon="1.04628">
        <ele>186.8</ele>
        <time>2024-05-20T08:37:13Z</time>
      </trkpt>
      <trkpt lat="43.57943" lon="1.04634">
        <ele>187.2</ele>
        <time>2024-05-20T08:37:14Z</time>
      </trkpt>
      <trkpt lat="43.57941" lon="1.04641">
        <ele>187.2</ele>
        <time>2024-05-20T08:37:15Z</time>
      </trkpt>
      <trkpt lat="43.57938" lon="1.04647">
        <ele>187.4</ele>
        <time>2024-05-20T08:37:16Z</time>
      </trkpt>
      <trkpt lat="43.57935" lon="1.04654">
        <ele>187.6</ele>
        <time>2024-05-20T08:37:17Z</time>
      </trkpt>
      <trkpt lat="43.57932" lon="1.0466">
        <ele>187.8</ele>
        <time>2024-05-20T08:37:18Z</time>
      </trkpt>
      <trkpt lat="43.5793" lon="1.04667">
        <ele>188</ele>
        <time>2024-05-20T08:37:19Z</time>
      </trkpt>
      <trkpt lat="43.57928" lon="1.04673">
        <ele>188.4</ele>
        <time>2024-05-20T08:37:20Z</time>
      </trkpt>
      <trkpt lat="43.57925" lon="1.04679">
        <ele>188.6</ele>
        <time>2024-05-20T08:37:21Z</time>
      </trkpt>
      <trkpt lat="43.57923" lon="1.04686">
        <ele>188.8</ele>
        <time>2024-05-20T08:37:22Z</time>
      </trkpt>
      <trkpt lat="43.5792" lon="1.04693">
        <ele>189</ele>
        <time>2024-05-20T08:37:23Z</time>
      </trkpt>
      <trkpt lat="43.57918" lon="1.04699">
        <ele>189.2</ele>
        <time>2024-05-20T08:37:24Z</time>
      </trkpt>
      <trkpt lat="43.57915" lon="1.04706">
        <ele>189.4</ele>
        <time>2024-05-20T08:37:25Z</time>
      </trkpt>
      <trkpt lat="43.57913" lon="1.04712">
        <ele>189.6</ele>
        <time>2024-05-20T08:37:26Z</time>
      </trkpt>
      <trkpt lat="43.57911" lon="1.04718">
        <ele>190.2</ele>
        <time>2024-05-20T08:37:27Z</time>
      </trkpt>
      <trkpt lat="43.57908" lon="1.04724">
        <ele>190.6</ele>
        <time>2024-05-20T08:37:28Z</time>
      </trkpt>
      <trkpt lat="43.57905" lon="1.0473">
        <ele>190.6</ele>
        <time>2024-05-20T08:37:29Z</time>
      </trkpt>
      <trkpt lat="43.57902" lon="1.04736">
        <ele>191.2</ele>
        <time>2024-05-20T08:37:30Z</time>
      </trkpt>
      <trkpt lat="43.57899" lon="1.04742">
        <ele>191.4</ele>
        <time>2024-05-20T08:37:31Z</time>
      </trkpt>
      <trkpt lat="43.57896" lon="1.04748">
        <ele>191.8</ele>
        <time>2024-05-20T08:37:32Z</time>
      </trkpt>
      <trkpt lat="43.57893" lon="1.04753">
        <ele>192</ele>
        <time>2024-05-20T08:37:33Z</time>
      </trkpt>
      <trkpt lat="43.57891" lon="1.04759">
        <ele>192.4</ele>
        <time>2024-05-20T08:37:34Z</time>
      </trkpt>
      <trkpt lat="43.57888" lon="1.04764">
        <ele>192.8</ele>
        <time>2024-05-20T08:37:35Z</time>
      </trkpt>
      <trkpt lat="43.57886" lon="1.04769">
        <ele>193</ele>
        <time>2024-05-20T08:37:36Z</time>
      </trkpt>
      <trkpt lat="43.57883" lon="1.04774">
        <ele>193.4</ele>
        <time>2024-05-20T08:37:37Z</time>
      </trkpt>
      <trkpt lat="43.5788" lon="1.0478">
        <ele>193.6</ele>
        <time>2024-05-20T08:37:38Z</time>
      </trkpt>
      <trkpt lat="43.57877" lon="1.04785">
        <ele>194</ele>
        <time>2024-05-20T08:37:39Z</time>
      </trkpt>
      <trkpt lat="43.57874" lon="1.04791">
        <ele>194.2</ele>
        <time>2024-05-20T08:37:40Z</time>
      </trkpt>
      <trkpt lat="43.57871" lon="1.04797">
        <ele>194.4</ele>
        <time>2024-05-20T08:37:41Z</time>
      </trkpt>
      <trkpt lat="43.57868" lon="1.04802">
        <ele>194.6</ele>
        <time>2024-05-20T08:37:42Z</time>
      </trkpt>
      <trkpt lat="43.57865" lon="1.04808">
        <ele>194.8</ele>
        <time>2024-05-20T08:37:43Z</time>
      </trkpt>
      <trkpt lat="43.57862" lon="1.04814">
        <ele>194.8</ele>
        <time>2024-05-20T08:37:44Z</time>
      </trkpt>
      <trkpt lat="43.57859" lon="1.04819">
        <ele>195</ele>
        <time>2024-05-20T08:37:45Z</time>
      </trkpt>
      <trkpt lat="43.57856" lon="1.04825">
        <ele>195.2</ele>
        <time>2024-05-20T08:37:46Z</time>
      </trkpt>
      <trkpt lat="43.57853" lon="1.04831">
        <ele>195.2</ele>
        <time>2024-05-20T08:37:47Z</time>
      </trkpt>
      <trkpt lat="43.5785" lon="1.04836">
        <ele>195.4</ele>
        <time>2024-05-20T08:37:48Z</time>
      </trkpt>
      <trkpt lat="43.57847" lon="1.04842">
        <ele>195.4</ele>
        <time>2024-05-20T08:37:49Z</time>
      </trkpt>
      <trkpt lat="43.57844" lon="1.04848">
        <ele>195.6</ele>
        <time>2024-05-20T08:37:50Z</time>
      </trkpt>
      <trkpt lat="43.5784" lon="1.04854">
        <ele>195.8</ele>
        <time>2024-05-20T08:37:51Z</time>
      </trkpt>
      <trkpt lat="43.57837" lon="1.0486">
        <ele>195.8</ele>
        <time>2024-05-20T08:37:52Z</time>
      </trkpt>
      <trkpt lat="43.57835" lon="1.04866">
        <ele>196</ele>
        <time>2024-05-20T08:37:53Z</time>
      </trkpt>
      <trkpt lat="43.57831" lon="1.04872">
        <ele>196</ele>
        <time>2024-05-20T08:37:54Z</time>
      </trkpt>
      <trkpt lat="43.57828" lon="1.04877">
        <ele>196.2</ele>
        <time>2024-05-20T08:37:55Z</time>
      </trkpt>
      <trkpt lat="43.57825" lon="1.04883">
        <ele>196.2</ele>
        <time>2024-05-20T08:37:56Z</time>
      </trkpt>
      <trkpt lat="43.57821" lon="1.04888">
        <ele>196.4</ele>
        <time>2024-05-20T08:37:57Z</time>
      </trkpt>
      <trkpt lat="43.57818" lon="1.04894">
        <ele>196.6</ele>
        <time>2024-05-20T08:37:58Z</time>
      </trkpt>
      <trkpt lat="43.57814" lon="1.04898">
        <ele>196.6</ele>
        <time>2024-05-20T08:37:59Z</time>
      </trkpt>
      <trkpt lat="43.5781" lon="1.04903">
        <ele>196.8</ele>
        <time>2024-05-20T08:38:00Z</time>
      </trkpt>
      <trkpt lat="43.57806" lon="1.04907">
        <ele>196.8</ele>
        <time>2024-05-20T08:38:01Z</time>
      </trkpt>
      <trkpt lat="43.57801" lon="1.04911">
        <ele>197</ele>
        <time>2024-05-20T08:38:02Z</time>
      </trkpt>
      <trkpt lat="43.57796" lon="1.04914">
        <ele>197.2</ele>
        <time>2024-05-20T08:38:03Z</time>
      </trkpt>
      <trkpt lat="43.57792" lon="1.04916">
        <ele>197.4</ele>
        <time>2024-05-20T08:38:04Z</time>
      </trkpt>
      <trkpt lat="43.57787" lon="1.04918">
        <ele>197.6</ele>
        <time>2024-05-20T08:38:05Z</time>
      </trkpt>
      <trkpt lat="43.57781" lon="1.04921">
        <ele>197.8</ele>
        <time>2024-05-20T08:38:06Z</time>
      </trkpt>
      <trkpt lat="43.57776" lon="1.04924">
        <ele>198</ele>
        <time>2024-05-20T08:38:07Z</time>
      </trkpt>
      <trkpt lat="43.57771" lon="1.04928">
        <ele>198.2</ele>
        <time>2024-05-20T08:38:08Z</time>
      </trkpt>
      <trkpt lat="43.57766" lon="1.04933">
        <ele>198.2</ele>
        <time>2024-05-20T08:38:09Z</time>
      </trkpt>
      <trkpt lat="43.57761" lon="1.04938">
        <ele>198.4</ele>
        <time>2024-05-20T08:38:10Z</time>
      </trkpt>
      <trkpt lat="43.57757" lon="1.04944">
        <ele>198.4</ele>
        <time>2024-05-20T08:38:11Z</time>
      </trkpt>
      <trkpt lat="43.57754" lon="1.04951">
        <ele>198.4</ele>
        <time>2024-05-20T08:38:12Z</time>
      </trkpt>
      <trkpt lat="43.5775" lon="1.04958">
        <ele>198.4</ele>
        <time>2024-05-20T08:38:13Z</time>
      </trkpt>
      <trkpt lat="43.57746" lon="1.04966">
        <ele>198.4</ele>
        <time>2024-05-20T08:38:14Z</time>
      </trkpt>
      <trkpt lat="43.57743" lon="1.04974">
        <ele>198.4</ele>
        <time>2024-05-20T08:38:15Z</time>
      </trkpt>
      <trkpt lat="43.57739" lon="1.04981">
        <ele>198.4</ele>
        <time>2024-05-20T08:38:16Z</time>
      </trkpt>
      <trkpt lat="43.57736" lon="1.04989">
        <ele>198.2</ele>
        <time>2024-05-20T08:38:17Z</time>
      </trkpt>
      <trkpt lat="43.57732" lon="1.04997">
        <ele>198.2</ele>
        <time>2024-05-20T08:38:18Z</time>
      </trkpt>
      <trkpt lat="43.57729" lon="1.05005">
        <ele>198.2</ele>
        <time>2024-05-20T08:38:19Z</time>
      </trkpt>
      <trkpt lat="43.57725" lon="1.05013">
        <ele>198.4</ele>
        <time>2024-05-20T08:38:20Z</time>
      </trkpt>
      <trkpt lat="43.57721" lon="1.05021">
        <ele>198.4</ele>
        <time>2024-05-20T08:38:21Z</time>
      </trkpt>
      <trkpt lat="43.57717" lon="1.05029">
        <ele>198.4</ele>
        <time>2024-05-20T08:38:22Z</time>
      </trkpt>
      <trkpt lat="43.57713" lon="1.05037">
        <ele>198.4</ele>
        <time>2024-05-20T08:38:23Z</time>
      </trkpt>
      <trkpt lat="43.57709" lon="1.05045">
        <ele>198.4</ele>
        <time>2024-05-20T08:38:24Z</time>
      </trkpt>
      <trkpt lat="43.57705" lon="1.05052">
        <ele>198.4</ele>
        <time>2024-05-20T08:38:25Z</time>
      </trkpt>
      <trkpt lat="43.577" lon="1.0506">
        <ele>198.4</ele>
        <time>2024-05-20T08:38:26Z</time>
      </trkpt>
      <trkpt lat="43.57696" lon="1.05067">
        <ele>198.4</ele>
        <time>2024-05-20T08:38:27Z</time>
      </trkpt>
      <trkpt lat="43.5769" lon="1.05074">
        <ele>198.4</ele>
        <time>2024-05-20T08:38:28Z</time>
      </trkpt>
      <trkpt lat="43.57684" lon="1.05081">
        <ele>198.4</ele>
        <time>2024-05-20T08:38:29Z</time>
      </trkpt>
      <trkpt lat="43.57678" lon="1.05086">
        <ele>198.4</ele>
        <time>2024-05-20T08:38:30Z</time>
      </trkpt>
      <trkpt lat="43.57672" lon="1.05092">
        <ele>198.4</ele>
        <time>2024-05-20T08:38:31Z</time>
      </trkpt>
      <trkpt lat="43.57665" lon="1.05097">
        <ele>198.4</ele>
        <time>2024-05-20T08:38:32Z</time>
      </trkpt>
      <trkpt lat="43.57658" lon="1.05102">
        <ele>198.4</ele>
        <time>2024-05-20T08:38:33Z</time>
      </trkpt>
      <trkpt lat="43.57651" lon="1.05106">
        <ele>198.4</ele>
        <time>2024-05-20T08:38:34Z</time>
      </trkpt>
      <trkpt lat="43.57644" lon="1.0511">
        <ele>198.4</ele>
        <time>2024-05-20T08:38:35Z</time>
      </trkpt>
      <trkpt lat="43.57637" lon="1.05114">
        <ele>198.4</ele>
        <time>2024-05-20T08:38:36Z</time>
      </trkpt>
      <trkpt lat="43.5763" lon="1.05117">
        <ele>198.4</ele>
        <time>2024-05-20T08:38:37Z</time>
      </trkpt>
      <trkpt lat="43.57624" lon="1.05121">
        <ele>198.4</ele>
        <time>2024-05-20T08:38:38Z</time>
      </trkpt>
      <trkpt lat="43.57617" lon="1.05125">
        <ele>198.4</ele>
        <time>2024-05-20T08:38:39Z</time>
      </trkpt>
      <trkpt lat="43.57611" lon="1.05129">
        <ele>198.4</ele>
        <time>2024-05-20T08:38:40Z</time>
      </trkpt>
      <trkpt lat="43.57604" lon="1.05133">
        <ele>198.4</ele>
        <time>2024-05-20T08:38:41Z</time>
      </trkpt>
      <trkpt lat="43.57597" lon="1.05136">
        <ele>198.4</ele>
        <time>2024-05-20T08:38:42Z</time>
      </trkpt>
      <trkpt lat="43.5759" lon="1.0514">
        <ele>198.4</ele>
        <time>2024-05-20T08:38:43Z</time>
      </trkpt>
      <trkpt lat="43.57582" lon="1.05144">
        <ele>198.4</ele>
        <time>2024-05-20T08:38:44Z</time>
      </trkpt>
      <trkpt lat="43.57577" lon="1.05147">
        <ele>198.4</ele>
        <time>2024-05-20T08:38:45Z</time>
      </trkpt>
      <trkpt lat="43.57569" lon="1.0515">
        <ele>198.4</ele>
        <time>2024-05-20T08:38:46Z</time>
      </trkpt>
      <trkpt lat="43.57562" lon="1.05153">
        <ele>198.4</ele>
        <time>2024-05-20T08:38:47Z</time>
      </trkpt>
      <trkpt lat="43.57553" lon="1.05156">
        <ele>198.4</ele>
        <time>2024-05-20T08:38:48Z</time>
      </trkpt>
      <trkpt lat="43.57547" lon="1.05158">
        <ele>198.4</ele>
        <time>2024-05-20T08:38:49Z</time>
      </trkpt>
      <trkpt lat="43.5754" lon="1.05159">
        <ele>198.4</ele>
        <time>2024-05-20T08:38:50Z</time>
      </trkpt>
      <trkpt lat="43.57533" lon="1.05161">
        <ele>198.6</ele>
        <time>2024-05-20T08:38:51Z</time>
      </trkpt>
      <trkpt lat="43.57525" lon="1.05162">
        <ele>198.6</ele>
        <time>2024-05-20T08:38:52Z</time>
      </trkpt>
      <trkpt lat="43.57518" lon="1.05163">
        <ele>198.8</ele>
        <time>2024-05-20T08:38:53Z</time>
      </trkpt>
      <trkpt lat="43.57511" lon="1.05164">
        <ele>199</ele>
        <time>2024-05-20T08:38:54Z</time>
      </trkpt>
      <trkpt lat="43.57502" lon="1.05166">
        <ele>199.2</ele>
        <time>2024-05-20T08:38:55Z</time>
      </trkpt>
      <trkpt lat="43.57495" lon="1.05167">
        <ele>199.2</ele>
        <time>2024-05-20T08:38:56Z</time>
      </trkpt>
      <trkpt lat="43.57488" lon="1.05169">
        <ele>199.2</ele>
        <time>2024-05-20T08:38:57Z</time>
      </trkpt>
      <trkpt lat="43.57481" lon="1.0517">
        <ele>199.2</ele>
        <time>2024-05-20T08:38:58Z</time>
      </trkpt>
      <trkpt lat="43.57474" lon="1.05172">
        <ele>199.4</ele>
        <time>2024-05-20T08:38:59Z</time>
      </trkpt>
      <trkpt lat="43.57467" lon="1.05174">
        <ele>199.6</ele>
        <time>2024-05-20T08:39:00Z</time>
      </trkpt>
      <trkpt lat="43.57461" lon="1.05177">
        <ele>199.6</ele>
        <time>2024-05-20T08:39:01Z</time>
      </trkpt>
      <trkpt lat="43.57454" lon="1.05179">
        <ele>199.8</ele>
        <time>2024-05-20T08:39:02Z</time>
      </trkpt>
      <trkpt lat="43.57447" lon="1.05182">
        <ele>199.8</ele>
        <time>2024-05-20T08:39:03Z</time>
      </trkpt>
      <trkpt lat="43.57439" lon="1.05185">
        <ele>200</ele>
        <time>2024-05-20T08:39:04Z</time>
      </trkpt>
      <trkpt lat="43.57432" lon="1.05187">
        <ele>200</ele>
        <time>2024-05-20T08:39:05Z</time>
      </trkpt>
      <trkpt lat="43.57424" lon="1.0519">
        <ele>200</ele>
        <time>2024-05-20T08:39:06Z</time>
      </trkpt>
      <trkpt lat="43.57416" lon="1.05193">
        <ele>200.2</ele>
        <time>2024-05-20T08:39:07Z</time>
      </trkpt>
      <trkpt lat="43.57409" lon="1.05195">
        <ele>200.2</ele>
        <time>2024-05-20T08:39:08Z</time>
      </trkpt>
      <trkpt lat="43.57401" lon="1.05198">
        <ele>200.4</ele>
        <time>2024-05-20T08:39:09Z</time>
      </trkpt>
      <trkpt lat="43.57394" lon="1.05201">
        <ele>200.4</ele>
        <time>2024-05-20T08:39:10Z</time>
      </trkpt>
      <trkpt lat="43.57387" lon="1.05204">
        <ele>200.4</ele>
        <time>2024-05-20T08:39:11Z</time>
      </trkpt>
      <trkpt lat="43.5738" lon="1.05207">
        <ele>200.4</ele>
        <time>2024-05-20T08:39:12Z</time>
      </trkpt>
      <trkpt lat="43.57373" lon="1.0521">
        <ele>200.4</ele>
        <time>2024-05-20T08:39:13Z</time>
      </trkpt>
      <trkpt lat="43.57366" lon="1.05213">
        <ele>200.4</ele>
        <time>2024-05-20T08:39:14Z</time>
      </trkpt>
      <trkpt lat="43.57359" lon="1.05215">
        <ele>200.4</ele>
        <time>2024-05-20T08:39:15Z</time>
      </trkpt>
      <trkpt lat="43.57352" lon="1.05218">
        <ele>200.4</ele>
        <time>2024-05-20T08:39:16Z</time>
      </trkpt>
      <trkpt lat="43.57345" lon="1.05221">
        <ele>200.4</ele>
        <time>2024-05-20T08:39:17Z</time>
      </trkpt>
      <trkpt lat="43.57338" lon="1.05223">
        <ele>200.4</ele>
        <time>2024-05-20T08:39:18Z</time>
      </trkpt>
      <trkpt lat="43.57331" lon="1.05226">
        <ele>200.4</ele>
        <time>2024-05-20T08:39:19Z</time>
      </trkpt>
      <trkpt lat="43.57324" lon="1.05229">
        <ele>200.6</ele>
        <time>2024-05-20T08:39:20Z</time>
      </trkpt>
      <trkpt lat="43.57318" lon="1.05231">
        <ele>200.4</ele>
        <time>2024-05-20T08:39:21Z</time>
      </trkpt>
      <trkpt lat="43.5731" lon="1.05232">
        <ele>200.4</ele>
        <time>2024-05-20T08:39:22Z</time>
      </trkpt>
      <trkpt lat="43.573" lon="1.05233">
        <ele>200.6</ele>
        <time>2024-05-20T08:39:23Z</time>
      </trkpt>
      <trkpt lat="43.57292" lon="1.05232">
        <ele>200.6</ele>
        <time>2024-05-20T08:39:24Z</time>
      </trkpt>
      <trkpt lat="43.57284" lon="1.05231">
        <ele>200.4</ele>
        <time>2024-05-20T08:39:25Z</time>
      </trkpt>
      <trkpt lat="43.57275" lon="1.0523">
        <ele>200.4</ele>
        <time>2024-05-20T08:39:26Z</time>
      </trkpt>
      <trkpt lat="43.57269" lon="1.0523">
        <ele>200.2</ele>
        <time>2024-05-20T08:39:27Z</time>
      </trkpt>
      <trkpt lat="43.57259" lon="1.0523">
        <ele>199.8</ele>
        <time>2024-05-20T08:39:28Z</time>
      </trkpt>
      <trkpt lat="43.57251" lon="1.05232">
        <ele>199.8</ele>
        <time>2024-05-20T08:39:29Z</time>
      </trkpt>
      <trkpt lat="43.57242" lon="1.05235">
        <ele>199.6</ele>
        <time>2024-05-20T08:39:30Z</time>
      </trkpt>
      <trkpt lat="43.57235" lon="1.05239">
        <ele>199.4</ele>
        <time>2024-05-20T08:39:31Z</time>
      </trkpt>
      <trkpt lat="43.57227" lon="1.05244">
        <ele>199.2</ele>
        <time>2024-05-20T08:39:32Z</time>
      </trkpt>
      <trkpt lat="43.57219" lon="1.0525">
        <ele>199</ele>
        <time>2024-05-20T08:39:33Z</time>
      </trkpt>
      <trkpt lat="43.57212" lon="1.05257">
        <ele>199</ele>
        <time>2024-05-20T08:39:34Z</time>
      </trkpt>
      <trkpt lat="43.57204" lon="1.05264">
        <ele>198.8</ele>
        <time>2024-05-20T08:39:35Z</time>
      </trkpt>
      <trkpt lat="43.57198" lon="1.05269">
        <ele>198.8</ele>
        <time>2024-05-20T08:39:36Z</time>
      </trkpt>
      <trkpt lat="43.57189" lon="1.05278">
        <ele>198.8</ele>
        <time>2024-05-20T08:39:37Z</time>
      </trkpt>
      <trkpt lat="43.57182" lon="1.05284">
        <ele>198.8</ele>
        <time>2024-05-20T08:39:38Z</time>
      </trkpt>
      <trkpt lat="43.57175" lon="1.05291">
        <ele>198.6</ele>
        <time>2024-05-20T08:39:39Z</time>
      </trkpt>
      <trkpt lat="43.57167" lon="1.05297">
        <ele>198.8</ele>
        <time>2024-05-20T08:39:40Z</time>
      </trkpt>
      <trkpt lat="43.5716" lon="1.05303">
        <ele>198.8</ele>
        <time>2024-05-20T08:39:41Z</time>
      </trkpt>
      <trkpt lat="43.57153" lon="1.0531">
        <ele>199</ele>
        <time>2024-05-20T08:39:42Z</time>
      </trkpt>
      <trkpt lat="43.57146" lon="1.05316">
        <ele>199</ele>
        <time>2024-05-20T08:39:43Z</time>
      </trkpt>
      <trkpt lat="43.5714" lon="1.05321">
        <ele>199</ele>
        <time>2024-05-20T08:39:44Z</time>
      </trkpt>
      <trkpt lat="43.57133" lon="1.05327">
        <ele>199</ele>
        <time>2024-05-20T08:39:45Z</time>
      </trkpt>
      <trkpt lat="43.57125" lon="1.05335">
        <ele>199.2</ele>
        <time>2024-05-20T08:39:46Z</time>
      </trkpt>
      <trkpt lat="43.57118" lon="1.05342">
        <ele>199.4</ele>
        <time>2024-05-20T08:39:47Z</time>
      </trkpt>
      <trkpt lat="43.57112" lon="1.05349">
        <ele>199.6</ele>
        <time>2024-05-20T08:39:48Z</time>
      </trkpt>
      <trkpt lat="43.57107" lon="1.05357">
        <ele>199.8</ele>
        <time>2024-05-20T08:39:49Z</time>
      </trkpt>
      <trkpt lat="43.57101" lon="1.05366">
        <ele>199.8</ele>
        <time>2024-05-20T08:39:50Z</time>
      </trkpt>
      <trkpt lat="43.57096" lon="1.05374">
        <ele>200</ele>
        <time>2024-05-20T08:39:51Z</time>
      </trkpt>
      <trkpt lat="43.57092" lon="1.05381">
        <ele>200.2</ele>
        <time>2024-05-20T08:39:52Z</time>
      </trkpt>
      <trkpt lat="43.57087" lon="1.05389">
        <ele>200.4</ele>
        <time>2024-05-20T08:39:53Z</time>
      </trkpt>
      <trkpt lat="43.57081" lon="1.05398">
        <ele>200.4</ele>
        <time>2024-05-20T08:39:54Z</time>
      </trkpt>
      <trkpt lat="43.57076" lon="1.05406">
        <ele>200.4</ele>
        <time>2024-05-20T08:39:55Z</time>
      </trkpt>
      <trkpt lat="43.5707" lon="1.05415">
        <ele>200.4</ele>
        <time>2024-05-20T08:39:56Z</time>
      </trkpt>
      <trkpt lat="43.57064" lon="1.05424">
        <ele>200.4</ele>
        <time>2024-05-20T08:39:57Z</time>
      </trkpt>
      <trkpt lat="43.57058" lon="1.05433">
        <ele>200.2</ele>
        <time>2024-05-20T08:39:58Z</time>
      </trkpt>
      <trkpt lat="43.57051" lon="1.05442">
        <ele>200.2</ele>
        <time>2024-05-20T08:39:59Z</time>
      </trkpt>
      <trkpt lat="43.57044" lon="1.05451">
        <ele>200</ele>
        <time>2024-05-20T08:40:00Z</time>
      </trkpt>
      <trkpt lat="43.57037" lon="1.05461">
        <ele>199.8</ele>
        <time>2024-05-20T08:40:01Z</time>
      </trkpt>
      <trkpt lat="43.57029" lon="1.05471">
        <ele>199.4</ele>
        <time>2024-05-20T08:40:02Z</time>
      </trkpt>
      <trkpt lat="43.57022" lon="1.05482">
        <ele>199</ele>
        <time>2024-05-20T08:40:03Z</time>
      </trkpt>
      <trkpt lat="43.57013" lon="1.05493">
        <ele>198</ele>
        <time>2024-05-20T08:40:04Z</time>
      </trkpt>
      <trkpt lat="43.57005" lon="1.05504">
        <ele>197</ele>
        <time>2024-05-20T08:40:05Z</time>
      </trkpt>
      <trkpt lat="43.56996" lon="1.05516">
        <ele>196.4</ele>
        <time>2024-05-20T08:40:06Z</time>
      </trkpt>
      <trkpt lat="43.56987" lon="1.05527">
        <ele>195</ele>
        <time>2024-05-20T08:40:07Z</time>
      </trkpt>
      <trkpt lat="43.56978" lon="1.05538">
        <ele>194.6</ele>
        <time>2024-05-20T08:40:08Z</time>
      </trkpt>
      <trkpt lat="43.56968" lon="1.05549">
        <ele>193.4</ele>
        <time>2024-05-20T08:40:09Z</time>
      </trkpt>
      <trkpt lat="43.56958" lon="1.05558">
        <ele>192.8</ele>
        <time>2024-05-20T08:40:10Z</time>
      </trkpt>
      <trkpt lat="43.56947" lon="1.05567">
        <ele>192.2</ele>
        <time>2024-05-20T08:40:11Z</time>
      </trkpt>
      <trkpt lat="43.56935" lon="1.05577">
        <ele>191.2</ele>
        <time>2024-05-20T08:40:12Z</time>
      </trkpt>
      <trkpt lat="43.56927" lon="1.05585">
        <ele>190.6</ele>
        <time>2024-05-20T08:40:13Z</time>
      </trkpt>
      <trkpt lat="43.56918" lon="1.05595">
        <ele>189.8</ele>
        <time>2024-05-20T08:40:14Z</time>
      </trkpt>
      <trkpt lat="43.56907" lon="1.05608">
        <ele>189.2</ele>
        <time>2024-05-20T08:40:15Z</time>
      </trkpt>
      <trkpt lat="43.56901" lon="1.05616">
        <ele>188.2</ele>
        <time>2024-05-20T08:40:16Z</time>
      </trkpt>
      <trkpt lat="43.56891" lon="1.0563">
        <ele>187.8</ele>
        <time>2024-05-20T08:40:17Z</time>
      </trkpt>
      <trkpt lat="43.56887" lon="1.0564">
        <ele>187.4</ele>
        <time>2024-05-20T08:40:18Z</time>
      </trkpt>
      <trkpt lat="43.56882" lon="1.05654">
        <ele>186.8</ele>
        <time>2024-05-20T08:40:19Z</time>
      </trkpt>
      <trkpt lat="43.56879" lon="1.05668">
        <ele>186.8</ele>
        <time>2024-05-20T08:40:20Z</time>
      </trkpt>
      <trkpt lat="43.56876" lon="1.05684">
        <ele>186.6</ele>
        <time>2024-05-20T08:40:21Z</time>
      </trkpt>
      <trkpt lat="43.56875" lon="1.05695">
        <ele>186.4</ele>
        <time>2024-05-20T08:40:22Z</time>
      </trkpt>
      <trkpt lat="43.56875" lon="1.05709">
        <ele>186.4</ele>
        <time>2024-05-20T08:40:23Z</time>
      </trkpt>
      <trkpt lat="43.56875" lon="1.05722">
        <ele>186.4</ele>
        <time>2024-05-20T08:40:24Z</time>
      </trkpt>
      <trkpt lat="43.56875" lon="1.05735">
        <ele>186.4</ele>
        <time>2024-05-20T08:40:25Z</time>
      </trkpt>
      <trkpt lat="43.56875" lon="1.05748">
        <ele>186.4</ele>
        <time>2024-05-20T08:40:26Z</time>
      </trkpt>
      <trkpt lat="43.56874" lon="1.05761">
        <ele>186.4</ele>
        <time>2024-05-20T08:40:27Z</time>
      </trkpt>
      <trkpt lat="43.56872" lon="1.05773">
        <ele>186.4</ele>
        <time>2024-05-20T08:40:28Z</time>
      </trkpt>
      <trkpt lat="43.56867" lon="1.05783">
        <ele>186.4</ele>
        <time>2024-05-20T08:40:29Z</time>
      </trkpt>
      <trkpt lat="43.56859" lon="1.05788">
        <ele>186.4</ele>
        <time>2024-05-20T08:40:30Z</time>
      </trkpt>
      <trkpt lat="43.56852" lon="1.05789">
        <ele>186.4</ele>
        <time>2024-05-20T08:40:31Z</time>
      </trkpt>
      <trkpt lat="43.56845" lon="1.05788">
        <ele>186.6</ele>
        <time>2024-05-20T08:40:32Z</time>
      </trkpt>
      <trkpt lat="43.56837" lon="1.05786">
        <ele>186.6</ele>
        <time>2024-05-20T08:40:33Z</time>
      </trkpt>
      <trkpt lat="43.5683" lon="1.05785">
        <ele>186.8</ele>
        <time>2024-05-20T08:40:34Z</time>
      </trkpt>
      <trkpt lat="43.56822" lon="1.05784">
        <ele>187</ele>
        <time>2024-05-20T08:40:35Z</time>
      </trkpt>
      <trkpt lat="43.56814" lon="1.05782">
        <ele>187</ele>
        <time>2024-05-20T08:40:36Z</time>
      </trkpt>
      <trkpt lat="43.56806" lon="1.05781">
        <ele>187.2</ele>
        <time>2024-05-20T08:40:37Z</time>
      </trkpt>
      <trkpt lat="43.56799" lon="1.0578">
        <ele>187.2</ele>
        <time>2024-05-20T08:40:38Z</time>
      </trkpt>
      <trkpt lat="43.56792" lon="1.05779">
        <ele>187.4</ele>
        <time>2024-05-20T08:40:39Z</time>
      </trkpt>
      <trkpt lat="43.56784" lon="1.05778">
        <ele>187.4</ele>
        <time>2024-05-20T08:40:40Z</time>
      </trkpt>
      <trkpt lat="43.56775" lon="1.05777">
        <ele>187.8</ele>
        <time>2024-05-20T08:40:41Z</time>
      </trkpt>
      <trkpt lat="43.5677" lon="1.05776">
        <ele>188.2</ele>
        <time>2024-05-20T08:40:42Z</time>
      </trkpt>
      <trkpt lat="43.56763" lon="1.05774">
        <ele>188.4</ele>
        <time>2024-05-20T08:40:43Z</time>
      </trkpt>
      <trkpt lat="43.56756" lon="1.05772">
        <ele>188.8</ele>
        <time>2024-05-20T08:40:44Z</time>
      </trkpt>
      <trkpt lat="43.56747" lon="1.0577">
        <ele>189</ele>
        <time>2024-05-20T08:40:45Z</time>
      </trkpt>
      <trkpt lat="43.56742" lon="1.05768">
        <ele>189.6</ele>
        <time>2024-05-20T08:40:46Z</time>
      </trkpt>
      <trkpt lat="43.56735" lon="1.05765">
        <ele>189.8</ele>
        <time>2024-05-20T08:40:47Z</time>
      </trkpt>
      <trkpt lat="43.56727" lon="1.05762">
        <ele>190.4</ele>
        <time>2024-05-20T08:40:48Z</time>
      </trkpt>
      <trkpt lat="43.5672" lon="1.05759">
        <ele>190.8</ele>
        <time>2024-05-20T08:40:49Z</time>
      </trkpt>
      <trkpt lat="43.56713" lon="1.05756">
        <ele>191</ele>
        <time>2024-05-20T08:40:50Z</time>
      </trkpt>
      <trkpt lat="43.56708" lon="1.05754">
        <ele>191.6</ele>
        <time>2024-05-20T08:40:51Z</time>
      </trkpt>
      <trkpt lat="43.56701" lon="1.05751">
        <ele>191.8</ele>
        <time>2024-05-20T08:40:52Z</time>
      </trkpt>
      <trkpt lat="43.56695" lon="1.05748">
        <ele>192.6</ele>
        <time>2024-05-20T08:40:53Z</time>
      </trkpt>
      <trkpt lat="43.56688" lon="1.05745">
        <ele>193</ele>
        <time>2024-05-20T08:40:54Z</time>
      </trkpt>
      <trkpt lat="43.56682" lon="1.05743">
        <ele>193.8</ele>
        <time>2024-05-20T08:40:55Z</time>
      </trkpt>
      <trkpt lat="43.56676" lon="1.05741">
        <ele>194.4</ele>
        <time>2024-05-20T08:40:56Z</time>
      </trkpt>
      <trkpt lat="43.5667" lon="1.0574">
        <ele>194.6</ele>
        <time>2024-05-20T08:40:57Z</time>
      </trkpt>
      <trkpt lat="43.56664" lon="1.05739">
        <ele>195.6</ele>
        <time>2024-05-20T08:40:58Z</time>
      </trkpt>
      <trkpt lat="43.56657" lon="1.05738">
        <ele>195.8</ele>
        <time>2024-05-20T08:40:59Z</time>
      </trkpt>
      <trkpt lat="43.56653" lon="1.05738">
        <ele>196.6</ele>
        <time>2024-05-20T08:41:00Z</time>
      </trkpt>
      <trkpt lat="43.56648" lon="1.05738">
        <ele>196.8</ele>
        <time>2024-05-20T08:41:01Z</time>
      </trkpt>
      <trkpt lat="43.56643" lon="1.05739">
        <ele>197.6</ele>
        <time>2024-05-20T08:41:02Z</time>
      </trkpt>
      <trkpt lat="43.56637" lon="1.05739">
        <ele>198</ele>
        <time>2024-05-20T08:41:03Z</time>
      </trkpt>
      <trkpt lat="43.56631" lon="1.05742">
        <ele>198.6</ele>
        <time>2024-05-20T08:41:04Z</time>
      </trkpt>
      <trkpt lat="43.56627" lon="1.05744">
        <ele>199.2</ele>
        <time>2024-05-20T08:41:05Z</time>
      </trkpt>
      <trkpt lat="43.56623" lon="1.05748">
        <ele>199.6</ele>
        <time>2024-05-20T08:41:06Z</time>
      </trkpt>
      <trkpt lat="43.56619" lon="1.05753">
        <ele>200.4</ele>
        <time>2024-05-20T08:41:07Z</time>
      </trkpt>
      <trkpt lat="43.56615" lon="1.05757">
        <ele>200.6</ele>
        <time>2024-05-20T08:41:08Z</time>
      </trkpt>
      <trkpt lat="43.5661" lon="1.05762">
        <ele>201</ele>
        <time>2024-05-20T08:41:09Z</time>
      </trkpt>
      <trkpt lat="43.56607" lon="1.05765">
        <ele>201.2</ele>
        <time>2024-05-20T08:41:10Z</time>
      </trkpt>
      <trkpt lat="43.56604" lon="1.0577">
        <ele>201.6</ele>
        <time>2024-05-20T08:41:11Z</time>
      </trkpt>
      <trkpt lat="43.56599" lon="1.05775">
        <ele>202</ele>
        <time>2024-05-20T08:41:12Z</time>
      </trkpt>
      <trkpt lat="43.56596" lon="1.05779">
        <ele>202.2</ele>
        <time>2024-05-20T08:41:13Z</time>
      </trkpt>
      <trkpt lat="43.56592" lon="1.05785">
        <ele>202.2</ele>
        <time>2024-05-20T08:41:14Z</time>
      </trkpt>
      <trkpt lat="43.56589" lon="1.05789">
        <ele>202.4</ele>
        <time>2024-05-20T08:41:15Z</time>
      </trkpt>
      <trkpt lat="43.56585" lon="1.05794">
        <ele>202.4</ele>
        <time>2024-05-20T08:41:16Z</time>
      </trkpt>
      <trkpt lat="43.5658" lon="1.05799">
        <ele>202.6</ele>
        <time>2024-05-20T08:41:17Z</time>
      </trkpt>
      <trkpt lat="43.56576" lon="1.05805">
        <ele>202.6</ele>
        <time>2024-05-20T08:41:18Z</time>
      </trkpt>
      <trkpt lat="43.56572" lon="1.05809">
        <ele>203</ele>
        <time>2024-05-20T08:41:19Z</time>
      </trkpt>
      <trkpt lat="43.56568" lon="1.05814">
        <ele>203</ele>
        <time>2024-05-20T08:41:20Z</time>
      </trkpt>
      <trkpt lat="43.56564" lon="1.05819">
        <ele>203.2</ele>
        <time>2024-05-20T08:41:21Z</time>
      </trkpt>
      <trkpt lat="43.56558" lon="1.05825">
        <ele>203.2</ele>
        <time>2024-05-20T08:41:22Z</time>
      </trkpt>
      <trkpt lat="43.56554" lon="1.0583">
        <ele>203.2</ele>
        <time>2024-05-20T08:41:23Z</time>
      </trkpt>
      <trkpt lat="43.5655" lon="1.05834">
        <ele>203.4</ele>
        <time>2024-05-20T08:41:24Z</time>
      </trkpt>
      <trkpt lat="43.56546" lon="1.05839">
        <ele>203.4</ele>
        <time>2024-05-20T08:41:25Z</time>
      </trkpt>
      <trkpt lat="43.5654" lon="1.05846">
        <ele>203.4</ele>
        <time>2024-05-20T08:41:26Z</time>
      </trkpt>
      <trkpt lat="43.56536" lon="1.0585">
        <ele>203.4</ele>
        <time>2024-05-20T08:41:27Z</time>
      </trkpt>
      <trkpt lat="43.56531" lon="1.05855">
        <ele>203.6</ele>
        <time>2024-05-20T08:41:28Z</time>
      </trkpt>
      <trkpt lat="43.56527" lon="1.0586">
        <ele>203.6</ele>
        <time>2024-05-20T08:41:29Z</time>
      </trkpt>
      <trkpt lat="43.56522" lon="1.05865">
        <ele>203.6</ele>
        <time>2024-05-20T08:41:30Z</time>
      </trkpt>
      <trkpt lat="43.56517" lon="1.0587">
        <ele>203.6</ele>
        <time>2024-05-20T08:41:31Z</time>
      </trkpt>
      <trkpt lat="43.56513" lon="1.05876">
        <ele>203.6</ele>
        <time>2024-05-20T08:41:32Z</time>
      </trkpt>
      <trkpt lat="43.56509" lon="1.05883">
        <ele>203.6</ele>
        <time>2024-05-20T08:41:33Z</time>
      </trkpt>
      <trkpt lat="43.56505" lon="1.0589">
        <ele>203.6</ele>
        <time>2024-05-20T08:41:34Z</time>
      </trkpt>
      <trkpt lat="43.56501" lon="1.05898">
        <ele>203.4</ele>
        <time>2024-05-20T08:41:35Z</time>
      </trkpt>
      <trkpt lat="43.56498" lon="1.05908">
        <ele>203.4</ele>
        <time>2024-05-20T08:41:36Z</time>
      </trkpt>
      <trkpt lat="43.56495" lon="1.05916">
        <ele>203.4</ele>
        <time>2024-05-20T08:41:37Z</time>
      </trkpt>
      <trkpt lat="43.56494" lon="1.05923">
        <ele>203.4</ele>
        <time>2024-05-20T08:41:38Z</time>
      </trkpt>
      <trkpt lat="43.56493" lon="1.05931">
        <ele>203.4</ele>
        <time>2024-05-20T08:41:39Z</time>
      </trkpt>
      <trkpt lat="43.56491" lon="1.05942">
        <ele>203.4</ele>
        <time>2024-05-20T08:41:40Z</time>
      </trkpt>
      <trkpt lat="43.56491" lon="1.05949">
        <ele>203.4</ele>
        <time>2024-05-20T08:41:41Z</time>
      </trkpt>
      <trkpt lat="43.5649" lon="1.05959">
        <ele>203.4</ele>
        <time>2024-05-20T08:41:42Z</time>
      </trkpt>
      <trkpt lat="43.5649" lon="1.05966">
        <ele>203.4</ele>
        <time>2024-05-20T08:41:43Z</time>
      </trkpt>
      <trkpt lat="43.56489" lon="1.05974">
        <ele>203.6</ele>
        <time>2024-05-20T08:41:44Z</time>
      </trkpt>
      <trkpt lat="43.56488" lon="1.05982">
        <ele>203.6</ele>
        <time>2024-05-20T08:41:45Z</time>
      </trkpt>
      <trkpt lat="43.56486" lon="1.05989">
        <ele>204</ele>
        <time>2024-05-20T08:41:46Z</time>
      </trkpt>
      <trkpt lat="43.56485" lon="1.05996">
        <ele>204</ele>
        <time>2024-05-20T08:41:47Z</time>
      </trkpt>
      <trkpt lat="43.56484" lon="1.06002">
        <ele>204.2</ele>
        <time>2024-05-20T08:41:48Z</time>
      </trkpt>
      <trkpt lat="43.56483" lon="1.06008">
        <ele>204.8</ele>
        <time>2024-05-20T08:41:49Z</time>
      </trkpt>
      <trkpt lat="43.56482" lon="1.06015">
        <ele>205</ele>
        <time>2024-05-20T08:41:50Z</time>
      </trkpt>
      <trkpt lat="43.56481" lon="1.06023">
        <ele>205.4</ele>
        <time>2024-05-20T08:41:51Z</time>
      </trkpt>
      <trkpt lat="43.5648" lon="1.06029">
        <ele>205.4</ele>
        <time>2024-05-20T08:41:52Z</time>
      </trkpt>
      <trkpt lat="43.56479" lon="1.06034">
        <ele>205.8</ele>
        <time>2024-05-20T08:41:53Z</time>
      </trkpt>
      <trkpt lat="43.56478" lon="1.0604">
        <ele>206</ele>
        <time>2024-05-20T08:41:54Z</time>
      </trkpt>
      <trkpt lat="43.56476" lon="1.06046">
        <ele>206.2</ele>
        <time>2024-05-20T08:41:55Z</time>
      </trkpt>
      <trkpt lat="43.56475" lon="1.06053">
        <ele>206.4</ele>
        <time>2024-05-20T08:41:56Z</time>
      </trkpt>
      <trkpt lat="43.56474" lon="1.06057">
        <ele>206.8</ele>
        <time>2024-05-20T08:41:57Z</time>
      </trkpt>
      <trkpt lat="43.56473" lon="1.06063">
        <ele>207</ele>
        <time>2024-05-20T08:41:58Z</time>
      </trkpt>
      <trkpt lat="43.56471" lon="1.06069">
        <ele>207.2</ele>
        <time>2024-05-20T08:41:59Z</time>
      </trkpt>
      <trkpt lat="43.5647" lon="1.06075">
        <ele>207.6</ele>
        <time>2024-05-20T08:42:00Z</time>
      </trkpt>
      <trkpt lat="43.56468" lon="1.06083">
        <ele>208</ele>
        <time>2024-05-20T08:42:01Z</time>
      </trkpt>
      <trkpt lat="43.56467" lon="1.06088">
        <ele>208.4</ele>
        <time>2024-05-20T08:42:02Z</time>
      </trkpt>
      <trkpt lat="43.56466" lon="1.06094">
        <ele>208.6</ele>
        <time>2024-05-20T08:42:03Z</time>
      </trkpt>
      <trkpt lat="43.56465" lon="1.061">
        <ele>209.2</ele>
        <time>2024-05-20T08:42:04Z</time>
      </trkpt>
      <trkpt lat="43.56464" lon="1.06106">
        <ele>209.4</ele>
        <time>2024-05-20T08:42:05Z</time>
      </trkpt>
      <trkpt lat="43.56462" lon="1.06112">
        <ele>209.6</ele>
        <time>2024-05-20T08:42:06Z</time>
      </trkpt>
      <trkpt lat="43.56461" lon="1.06118">
        <ele>210.2</ele>
        <time>2024-05-20T08:42:07Z</time>
      </trkpt>
      <trkpt lat="43.56459" lon="1.06124">
        <ele>210.4</ele>
        <time>2024-05-20T08:42:08Z</time>
      </trkpt>
      <trkpt lat="43.56458" lon="1.0613">
        <ele>210.6</ele>
        <time>2024-05-20T08:42:09Z</time>
      </trkpt>
      <trkpt lat="43.56456" lon="1.06136">
        <ele>210.8</ele>
        <time>2024-05-20T08:42:10Z</time>
      </trkpt>
      <trkpt lat="43.56454" lon="1.06142">
        <ele>211.2</ele>
        <time>2024-05-20T08:42:11Z</time>
      </trkpt>
      <trkpt lat="43.56452" lon="1.06148">
        <ele>211.4</ele>
        <time>2024-05-20T08:42:12Z</time>
      </trkpt>
      <trkpt lat="43.5645" lon="1.06153">
        <ele>211.6</ele>
        <time>2024-05-20T08:42:13Z</time>
      </trkpt>
      <trkpt lat="43.56448" lon="1.06159">
        <ele>211.8</ele>
        <time>2024-05-20T08:42:14Z</time>
      </trkpt>
      <trkpt lat="43.56444" lon="1.06165">
        <ele>212</ele>
        <time>2024-05-20T08:42:15Z</time>
      </trkpt>
      <trkpt lat="43.56442" lon="1.06169">
        <ele>212</ele>
        <time>2024-05-20T08:42:16Z</time>
      </trkpt>
      <trkpt lat="43.56439" lon="1.06174">
        <ele>212.2</ele>
        <time>2024-05-20T08:42:17Z</time>
      </trkpt>
      <trkpt lat="43.56436" lon="1.0618">
        <ele>212.4</ele>
        <time>2024-05-20T08:42:18Z</time>
      </trkpt>
      <trkpt lat="43.56433" lon="1.06185">
        <ele>212.4</ele>
        <time>2024-05-20T08:42:19Z</time>
      </trkpt>
      <trkpt lat="43.5643" lon="1.06191">
        <ele>212.6</ele>
        <time>2024-05-20T08:42:20Z</time>
      </trkpt>
      <trkpt lat="43.56427" lon="1.06196">
        <ele>212.8</ele>
        <time>2024-05-20T08:42:21Z</time>
      </trkpt>
      <trkpt lat="43.56424" lon="1.06201">
        <ele>213</ele>
        <time>2024-05-20T08:42:22Z</time>
      </trkpt>
      <trkpt lat="43.56421" lon="1.06206">
        <ele>213.2</ele>
        <time>2024-05-20T08:42:23Z</time>
      </trkpt>
      <trkpt lat="43.56417" lon="1.06211">
        <ele>213.4</ele>
        <time>2024-05-20T08:42:24Z</time>
      </trkpt>
      <trkpt lat="43.56414" lon="1.06215">
        <ele>213.4</ele>
        <time>2024-05-20T08:42:25Z</time>
      </trkpt>
      <trkpt lat="43.56412" lon="1.0622">
        <ele>213.6</ele>
        <time>2024-05-20T08:42:26Z</time>
      </trkpt>
      <trkpt lat="43.56408" lon="1.06226">
        <ele>213.6</ele>
        <time>2024-05-20T08:42:27Z</time>
      </trkpt>
      <trkpt lat="43.56406" lon="1.0623">
        <ele>213.8</ele>
        <time>2024-05-20T08:42:28Z</time>
      </trkpt>
      <trkpt lat="43.56403" lon="1.06235">
        <ele>213.8</ele>
        <time>2024-05-20T08:42:29Z</time>
      </trkpt>
      <trkpt lat="43.56401" lon="1.06239">
        <ele>214.2</ele>
        <time>2024-05-20T08:42:30Z</time>
      </trkpt>
      <trkpt lat="43.56398" lon="1.06244">
        <ele>214.6</ele>
        <time>2024-05-20T08:42:31Z</time>
      </trkpt>
      <trkpt lat="43.56395" lon="1.06248">
        <ele>214.8</ele>
        <time>2024-05-20T08:42:32Z</time>
      </trkpt>
      <trkpt lat="43.56393" lon="1.06253">
        <ele>215.2</ele>
        <time>2024-05-20T08:42:33Z</time>
      </trkpt>
      <trkpt lat="43.5639" lon="1.06257">
        <ele>215.4</ele>
        <time>2024-05-20T08:42:34Z</time>
      </trkpt>
      <trkpt lat="43.56388" lon="1.06262">
        <ele>216</ele>
        <time>2024-05-20T08:42:35Z</time>
      </trkpt>
      <trkpt lat="43.56386" lon="1.06266">
        <ele>216.2</ele>
        <time>2024-05-20T08:42:36Z</time>
      </trkpt>
      <trkpt lat="43.56384" lon="1.06271">
        <ele>216.6</ele>
        <time>2024-05-20T08:42:37Z</time>
      </trkpt>
      <trkpt lat="43.56381" lon="1.06276">
        <ele>216.6</ele>
        <time>2024-05-20T08:42:38Z</time>
      </trkpt>
      <trkpt lat="43.56379" lon="1.0628">
        <ele>216.8</ele>
        <time>2024-05-20T08:42:39Z</time>
      </trkpt>
      <trkpt lat="43.56377" lon="1.06284">
        <ele>216.8</ele>
        <time>2024-05-20T08:42:40Z</time>
      </trkpt>
      <trkpt lat="43.56375" lon="1.0629">
        <ele>217.4</ele>
        <time>2024-05-20T08:42:41Z</time>
      </trkpt>
      <trkpt lat="43.56373" lon="1.06293">
        <ele>217.6</ele>
        <time>2024-05-20T08:42:42Z</time>
      </trkpt>
      <trkpt lat="43.56371" lon="1.06298">
        <ele>218</ele>
        <time>2024-05-20T08:42:43Z</time>
      </trkpt>
      <trkpt lat="43.5637" lon="1.06302">
        <ele>218.4</ele>
        <time>2024-05-20T08:42:44Z</time>
      </trkpt>
      <trkpt lat="43.56368" lon="1.06307">
        <ele>218.8</ele>
        <time>2024-05-20T08:42:45Z</time>
      </trkpt>
      <trkpt lat="43.56366" lon="1.06311">
        <ele>219</ele>
        <time>2024-05-20T08:42:46Z</time>
      </trkpt>
      <trkpt lat="43.56364" lon="1.06317">
        <ele>219</ele>
        <time>2024-05-20T08:42:47Z</time>
      </trkpt>
      <trkpt lat="43.56363" lon="1.06321">
        <ele>219.8</ele>
        <time>2024-05-20T08:42:48Z</time>
      </trkpt>
      <trkpt lat="43.56362" lon="1.06325">
        <ele>219.8</ele>
        <time>2024-05-20T08:42:49Z</time>
      </trkpt>
      <trkpt lat="43.56361" lon="1.06331">
        <ele>220.2</ele>
        <time>2024-05-20T08:42:50Z</time>
      </trkpt>
      <trkpt lat="43.56359" lon="1.06335">
        <ele>220.6</ele>
        <time>2024-05-20T08:42:51Z</time>
      </trkpt>
      <trkpt lat="43.56358" lon="1.06339">
        <ele>220.8</ele>
        <time>2024-05-20T08:42:52Z</time>
      </trkpt>
      <trkpt lat="43.56356" lon="1.06343">
        <ele>221</ele>
        <time>2024-05-20T08:42:53Z</time>
      </trkpt>
      <trkpt lat="43.56354" lon="1.06348">
        <ele>221.6</ele>
        <time>2024-05-20T08:42:54Z</time>
      </trkpt>
      <trkpt lat="43.56353" lon="1.06355">
        <ele>222.2</ele>
        <time>2024-05-20T08:42:55Z</time>
      </trkpt>
      <trkpt lat="43.56351" lon="1.0636">
        <ele>222.4</ele>
        <time>2024-05-20T08:42:56Z</time>
      </trkpt>
      <trkpt lat="43.5635" lon="1.06365">
        <ele>222.8</ele>
        <time>2024-05-20T08:42:57Z</time>
      </trkpt>
      <trkpt lat="43.56349" lon="1.0637">
        <ele>223</ele>
        <time>2024-05-20T08:42:58Z</time>
      </trkpt>
      <trkpt lat="43.56348" lon="1.06376">
        <ele>223.2</ele>
        <time>2024-05-20T08:42:59Z</time>
      </trkpt>
      <trkpt lat="43.56347" lon="1.06381">
        <ele>223.6</ele>
        <time>2024-05-20T08:43:00Z</time>
      </trkpt>
      <trkpt lat="43.56346" lon="1.06389">
        <ele>223.8</ele>
        <time>2024-05-20T08:43:01Z</time>
      </trkpt>
      <trkpt lat="43.56345" lon="1.06394">
        <ele>224.2</ele>
        <time>2024-05-20T08:43:02Z</time>
      </trkpt>
      <trkpt lat="43.56344" lon="1.064">
        <ele>224.4</ele>
        <time>2024-05-20T08:43:03Z</time>
      </trkpt>
      <trkpt lat="43.56343" lon="1.06408">
        <ele>224.6</ele>
        <time>2024-05-20T08:43:04Z</time>
      </trkpt>
      <trkpt lat="43.56343" lon="1.06415">
        <ele>224.6</ele>
        <time>2024-05-20T08:43:05Z</time>
      </trkpt>
      <trkpt lat="43.56342" lon="1.06422">
        <ele>224.6</ele>
        <time>2024-05-20T08:43:06Z</time>
      </trkpt>
      <trkpt lat="43.56342" lon="1.06428">
        <ele>225</ele>
        <time>2024-05-20T08:43:07Z</time>
      </trkpt>
      <trkpt lat="43.56341" lon="1.06435">
        <ele>225</ele>
        <time>2024-05-20T08:43:08Z</time>
      </trkpt>
      <trkpt lat="43.5634" lon="1.06443">
        <ele>225.2</ele>
        <time>2024-05-20T08:43:09Z</time>
      </trkpt>
      <trkpt lat="43.5634" lon="1.06451">
        <ele>225.2</ele>
        <time>2024-05-20T08:43:10Z</time>
      </trkpt>
      <trkpt lat="43.56339" lon="1.06458">
        <ele>225.4</ele>
        <time>2024-05-20T08:43:11Z</time>
      </trkpt>
      <trkpt lat="43.56339" lon="1.06464">
        <ele>225.4</ele>
        <time>2024-05-20T08:43:12Z</time>
      </trkpt>
      <trkpt lat="43.56338" lon="1.06472">
        <ele>225.6</ele>
        <time>2024-05-20T08:43:13Z</time>
      </trkpt>
      <trkpt lat="43.56337" lon="1.06479">
        <ele>225.8</ele>
        <time>2024-05-20T08:43:14Z</time>
      </trkpt>
      <trkpt lat="43.56336" lon="1.06488">
        <ele>225.8</ele>
        <time>2024-05-20T08:43:15Z</time>
      </trkpt>
      <trkpt lat="43.56336" lon="1.06496">
        <ele>226</ele>
        <time>2024-05-20T08:43:16Z</time>
      </trkpt>
      <trkpt lat="43.56335" lon="1.06502">
        <ele>226</ele>
        <time>2024-05-20T08:43:17Z</time>
      </trkpt>
      <trkpt lat="43.56334" lon="1.06511">
        <ele>226.2</ele>
        <time>2024-05-20T08:43:18Z</time>
      </trkpt>
      <trkpt lat="43.56334" lon="1.06517">
        <ele>226.2</ele>
        <time>2024-05-20T08:43:19Z</time>
      </trkpt>
      <trkpt lat="43.56332" lon="1.06525">
        <ele>226.2</ele>
        <time>2024-05-20T08:43:20Z</time>
      </trkpt>
      <trkpt lat="43.56332" lon="1.06531">
        <ele>226.4</ele>
        <time>2024-05-20T08:43:21Z</time>
      </trkpt>
      <trkpt lat="43.56331" lon="1.06539">
        <ele>226.4</ele>
        <time>2024-05-20T08:43:22Z</time>
      </trkpt>
      <trkpt lat="43.5633" lon="1.06547">
        <ele>226.4</ele>
        <time>2024-05-20T08:43:23Z</time>
      </trkpt>
      <trkpt lat="43.56329" lon="1.06554">
        <ele>226.4</ele>
        <time>2024-05-20T08:43:24Z</time>
      </trkpt>
      <trkpt lat="43.56328" lon="1.0656">
        <ele>226.6</ele>
        <time>2024-05-20T08:43:25Z</time>
      </trkpt>
      <trkpt lat="43.56327" lon="1.06567">
        <ele>226.6</ele>
        <time>2024-05-20T08:43:26Z</time>
      </trkpt>
      <trkpt lat="43.56326" lon="1.06574">
        <ele>227</ele>
        <time>2024-05-20T08:43:27Z</time>
      </trkpt>
      <trkpt lat="43.56324" lon="1.06583">
        <ele>227.2</ele>
        <time>2024-05-20T08:43:28Z</time>
      </trkpt>
      <trkpt lat="43.56323" lon="1.0659">
        <ele>227.6</ele>
        <time>2024-05-20T08:43:29Z</time>
      </trkpt>
      <trkpt lat="43.56321" lon="1.06595">
        <ele>228</ele>
        <time>2024-05-20T08:43:30Z</time>
      </trkpt>
      <trkpt lat="43.5632" lon="1.06603">
        <ele>228.2</ele>
        <time>2024-05-20T08:43:31Z</time>
      </trkpt>
      <trkpt lat="43.56318" lon="1.06611">
        <ele>228.6</ele>
        <time>2024-05-20T08:43:32Z</time>
      </trkpt>
      <trkpt lat="43.56317" lon="1.06618">
        <ele>228.8</ele>
        <time>2024-05-20T08:43:33Z</time>
      </trkpt>
      <trkpt lat="43.56315" lon="1.06625">
        <ele>229.2</ele>
        <time>2024-05-20T08:43:34Z</time>
      </trkpt>
      <trkpt lat="43.56314" lon="1.06631">
        <ele>229.4</ele>
        <time>2024-05-20T08:43:35Z</time>
      </trkpt>
      <trkpt lat="43.56312" lon="1.06638">
        <ele>229.6</ele>
        <time>2024-05-20T08:43:36Z</time>
      </trkpt>
      <trkpt lat="43.56309" lon="1.06646">
        <ele>229.8</ele>
        <time>2024-05-20T08:43:37Z</time>
      </trkpt>
      <trkpt lat="43.56307" lon="1.06653">
        <ele>230</ele>
        <time>2024-05-20T08:43:38Z</time>
      </trkpt>
      <trkpt lat="43.56305" lon="1.0666">
        <ele>230.6</ele>
        <time>2024-05-20T08:43:39Z</time>
      </trkpt>
      <trkpt lat="43.56304" lon="1.06665">
        <ele>231</ele>
        <time>2024-05-20T08:43:40Z</time>
      </trkpt>
      <trkpt lat="43.56302" lon="1.06672">
        <ele>231.4</ele>
        <time>2024-05-20T08:43:41Z</time>
      </trkpt>
      <trkpt lat="43.563" lon="1.06681">
        <ele>231.6</ele>
        <time>2024-05-20T08:43:42Z</time>
      </trkpt>
      <trkpt lat="43.56298" lon="1.06687">
        <ele>231.8</ele>
        <time>2024-05-20T08:43:43Z</time>
      </trkpt>
      <trkpt lat="43.56297" lon="1.06693">
        <ele>232.2</ele>
        <time>2024-05-20T08:43:44Z</time>
      </trkpt>
      <trkpt lat="43.56295" lon="1.067">
        <ele>232.2</ele>
        <time>2024-05-20T08:43:45Z</time>
      </trkpt>
      <trkpt lat="43.56293" lon="1.06707">
        <ele>232.6</ele>
        <time>2024-05-20T08:43:46Z</time>
      </trkpt>
      <trkpt lat="43.56291" lon="1.06714">
        <ele>232.6</ele>
        <time>2024-05-20T08:43:47Z</time>
      </trkpt>
      <trkpt lat="43.56289" lon="1.0672">
        <ele>233</ele>
        <time>2024-05-20T08:43:48Z</time>
      </trkpt>
      <trkpt lat="43.56288" lon="1.06726">
        <ele>233</ele>
        <time>2024-05-20T08:43:49Z</time>
      </trkpt>
      <trkpt lat="43.56286" lon="1.06732">
        <ele>233.6</ele>
        <time>2024-05-20T08:43:50Z</time>
      </trkpt>
      <trkpt lat="43.56284" lon="1.06739">
        <ele>234.2</ele>
        <time>2024-05-20T08:43:51Z</time>
      </trkpt>
      <trkpt lat="43.56282" lon="1.06747">
        <ele>234.4</ele>
        <time>2024-05-20T08:43:52Z</time>
      </trkpt>
      <trkpt lat="43.5628" lon="1.06754">
        <ele>234.8</ele>
        <time>2024-05-20T08:43:53Z</time>
      </trkpt>
      <trkpt lat="43.56278" lon="1.0676">
        <ele>235</ele>
        <time>2024-05-20T08:43:54Z</time>
      </trkpt>
      <trkpt lat="43.56276" lon="1.06767">
        <ele>235.2</ele>
        <time>2024-05-20T08:43:55Z</time>
      </trkpt>
      <trkpt lat="43.56274" lon="1.06774">
        <ele>235.2</ele>
        <time>2024-05-20T08:43:56Z</time>
      </trkpt>
      <trkpt lat="43.56272" lon="1.06782">
        <ele>235.4</ele>
        <time>2024-05-20T08:43:57Z</time>
      </trkpt>
      <trkpt lat="43.5627" lon="1.0679">
        <ele>235.4</ele>
        <time>2024-05-20T08:43:58Z</time>
      </trkpt>
      <trkpt lat="43.56269" lon="1.06796">
        <ele>235.6</ele>
        <time>2024-05-20T08:43:59Z</time>
      </trkpt>
      <trkpt lat="43.56266" lon="1.06805">
        <ele>235.6</ele>
        <time>2024-05-20T08:44:00Z</time>
      </trkpt>
      <trkpt lat="43.56264" lon="1.06813">
        <ele>235.8</ele>
        <time>2024-05-20T08:44:01Z</time>
      </trkpt>
      <trkpt lat="43.56262" lon="1.0682">
        <ele>235.8</ele>
        <time>2024-05-20T08:44:02Z</time>
      </trkpt>
      <trkpt lat="43.5626" lon="1.06827">
        <ele>236</ele>
        <time>2024-05-20T08:44:03Z</time>
      </trkpt>
      <trkpt lat="43.56258" lon="1.06834">
        <ele>236.2</ele>
        <time>2024-05-20T08:44:04Z</time>
      </trkpt>
      <trkpt lat="43.56255" lon="1.06843">
        <ele>236.4</ele>
        <time>2024-05-20T08:44:05Z</time>
      </trkpt>
      <trkpt lat="43.56253" lon="1.06851">
        <ele>236.4</ele>
        <time>2024-05-20T08:44:06Z</time>
      </trkpt>
      <trkpt lat="43.56251" lon="1.06859">
        <ele>236.6</ele>
        <time>2024-05-20T08:44:07Z</time>
      </trkpt>
      <trkpt lat="43.5625" lon="1.06866">
        <ele>236.6</ele>
        <time>2024-05-20T08:44:08Z</time>
      </trkpt>
      <trkpt lat="43.56248" lon="1.06874">
        <ele>236.8</ele>
        <time>2024-05-20T08:44:09Z</time>
      </trkpt>
      <trkpt lat="43.56245" lon="1.06883">
        <ele>236.8</ele>
        <time>2024-05-20T08:44:10Z</time>
      </trkpt>
      <trkpt lat="43.56243" lon="1.06892">
        <ele>236.8</ele>
        <time>2024-05-20T08:44:11Z</time>
      </trkpt>
      <trkpt lat="43.56241" lon="1.069">
        <ele>236.8</ele>
        <time>2024-05-20T08:44:12Z</time>
      </trkpt>
      <trkpt lat="43.56239" lon="1.06906">
        <ele>237</ele>
        <time>2024-05-20T08:44:13Z</time>
      </trkpt>
      <trkpt lat="43.56236" lon="1.06916">
        <ele>237.2</ele>
        <time>2024-05-20T08:44:14Z</time>
      </trkpt>
      <trkpt lat="43.56234" lon="1.06924">
        <ele>237.2</ele>
        <time>2024-05-20T08:44:15Z</time>
      </trkpt>
      <trkpt lat="43.56232" lon="1.06932">
        <ele>237.4</ele>
        <time>2024-05-20T08:44:16Z</time>
      </trkpt>
      <trkpt lat="43.5623" lon="1.06939">
        <ele>237.4</ele>
        <time>2024-05-20T08:44:17Z</time>
      </trkpt>
      <trkpt lat="43.56228" lon="1.06948">
        <ele>237.2</ele>
        <time>2024-05-20T08:44:18Z</time>
      </trkpt>
      <trkpt lat="43.56226" lon="1.06958">
        <ele>237.2</ele>
        <time>2024-05-20T08:44:19Z</time>
      </trkpt>
      <trkpt lat="43.56225" lon="1.06966">
        <ele>237.4</ele>
        <time>2024-05-20T08:44:20Z</time>
      </trkpt>
      <trkpt lat="43.56223" lon="1.06975">
        <ele>237.4</ele>
        <time>2024-05-20T08:44:21Z</time>
      </trkpt>
      <trkpt lat="43.56223" lon="1.06982">
        <ele>237.4</ele>
        <time>2024-05-20T08:44:22Z</time>
      </trkpt>
      <trkpt lat="43.56222" lon="1.06991">
        <ele>237.6</ele>
        <time>2024-05-20T08:44:23Z</time>
      </trkpt>
      <trkpt lat="43.56222" lon="1.07001">
        <ele>237.6</ele>
        <time>2024-05-20T08:44:24Z</time>
      </trkpt>
      <trkpt lat="43.56221" lon="1.0701">
        <ele>237.8</ele>
        <time>2024-05-20T08:44:25Z</time>
      </trkpt>
      <trkpt lat="43.56221" lon="1.07018">
        <ele>237.8</ele>
        <time>2024-05-20T08:44:26Z</time>
      </trkpt>
      <trkpt lat="43.5622" lon="1.07025">
        <ele>238</ele>
        <time>2024-05-20T08:44:27Z</time>
      </trkpt>
      <trkpt lat="43.5622" lon="1.07035">
        <ele>238</ele>
        <time>2024-05-20T08:44:28Z</time>
      </trkpt>
      <trkpt lat="43.5622" lon="1.07043">
        <ele>238.4</ele>
        <time>2024-05-20T08:44:29Z</time>
      </trkpt>
      <trkpt lat="43.5622" lon="1.07052">
        <ele>238.6</ele>
        <time>2024-05-20T08:44:30Z</time>
      </trkpt>
      <trkpt lat="43.5622" lon="1.07058">
        <ele>238.8</ele>
        <time>2024-05-20T08:44:31Z</time>
      </trkpt>
      <trkpt lat="43.5622" lon="1.07066">
        <ele>239.2</ele>
        <time>2024-05-20T08:44:32Z</time>
      </trkpt>
      <trkpt lat="43.56221" lon="1.07077">
        <ele>239.2</ele>
        <time>2024-05-20T08:44:33Z</time>
      </trkpt>
      <trkpt lat="43.56221" lon="1.07086">
        <ele>239.6</ele>
        <time>2024-05-20T08:44:34Z</time>
      </trkpt>
      <trkpt lat="43.56222" lon="1.07095">
        <ele>239.8</ele>
        <time>2024-05-20T08:44:35Z</time>
      </trkpt>
      <trkpt lat="43.56222" lon="1.07103">
        <ele>240</ele>
        <time>2024-05-20T08:44:36Z</time>
      </trkpt>
      <trkpt lat="43.56223" lon="1.07115">
        <ele>240</ele>
        <time>2024-05-20T08:44:37Z</time>
      </trkpt>
      <trkpt lat="43.56224" lon="1.07123">
        <ele>240</ele>
        <time>2024-05-20T08:44:38Z</time>
      </trkpt>
      <trkpt lat="43.56226" lon="1.07136">
        <ele>240</ele>
        <time>2024-05-20T08:44:39Z</time>
      </trkpt>
      <trkpt lat="43.56227" lon="1.07145">
        <ele>240</ele>
        <time>2024-05-20T08:44:40Z</time>
      </trkpt>
      <trkpt lat="43.56228" lon="1.07156">
        <ele>240</ele>
        <time>2024-05-20T08:44:41Z</time>
      </trkpt>
      <trkpt lat="43.5623" lon="1.0717">
        <ele>239.8</ele>
        <time>2024-05-20T08:44:42Z</time>
      </trkpt>
      <trkpt lat="43.56233" lon="1.07182">
        <ele>239.6</ele>
        <time>2024-05-20T08:44:43Z</time>
      </trkpt>
      <trkpt lat="43.56235" lon="1.07193">
        <ele>239.6</ele>
        <time>2024-05-20T08:44:44Z</time>
      </trkpt>
      <trkpt lat="43.56238" lon="1.07203">
        <ele>239.4</ele>
        <time>2024-05-20T08:44:45Z</time>
      </trkpt>
      <trkpt lat="43.56242" lon="1.07215">
        <ele>239</ele>
        <time>2024-05-20T08:44:46Z</time>
      </trkpt>
      <trkpt lat="43.56246" lon="1.07229">
        <ele>238.6</ele>
        <time>2024-05-20T08:44:47Z</time>
      </trkpt>
      <trkpt lat="43.56249" lon="1.07241">
        <ele>238.2</ele>
        <time>2024-05-20T08:44:48Z</time>
      </trkpt>
      <trkpt lat="43.56253" lon="1.07254">
        <ele>237.8</ele>
        <time>2024-05-20T08:44:49Z</time>
      </trkpt>
      <trkpt lat="43.56255" lon="1.07263">
        <ele>237.4</ele>
        <time>2024-05-20T08:44:50Z</time>
      </trkpt>
      <trkpt lat="43.56259" lon="1.07275">
        <ele>237.2</ele>
        <time>2024-05-20T08:44:51Z</time>
      </trkpt>
      <trkpt lat="43.56263" lon="1.0729">
        <ele>237</ele>
        <time>2024-05-20T08:44:52Z</time>
      </trkpt>
      <trkpt lat="43.56266" lon="1.07302">
        <ele>236.8</ele>
        <time>2024-05-20T08:44:53Z</time>
      </trkpt>
      <trkpt lat="43.56268" lon="1.07315">
        <ele>236.6</ele>
        <time>2024-05-20T08:44:54Z</time>
      </trkpt>
      <trkpt lat="43.5627" lon="1.07325">
        <ele>236.4</ele>
        <time>2024-05-20T08:44:55Z</time>
      </trkpt>
      <trkpt lat="43.56274" lon="1.0734">
        <ele>236.2</ele>
        <time>2024-05-20T08:44:56Z</time>
      </trkpt>
      <trkpt lat="43.56276" lon="1.07352">
        <ele>236.2</ele>
        <time>2024-05-20T08:44:57Z</time>
      </trkpt>
      <trkpt lat="43.56279" lon="1.07364">
        <ele>236</ele>
        <time>2024-05-20T08:44:58Z</time>
      </trkpt>
      <trkpt lat="43.56281" lon="1.07374">
        <ele>236</ele>
        <time>2024-05-20T08:44:59Z</time>
      </trkpt>
      <trkpt lat="43.56283" lon="1.07387">
        <ele>235.8</ele>
        <time>2024-05-20T08:45:00Z</time>
      </trkpt>
      <trkpt lat="43.56286" lon="1.07401">
        <ele>235.8</ele>
        <time>2024-05-20T08:45:01Z</time>
      </trkpt>
      <trkpt lat="43.56288" lon="1.07414">
        <ele>235.6</ele>
        <time>2024-05-20T08:45:02Z</time>
      </trkpt>
      <trkpt lat="43.56289" lon="1.07426">
        <ele>235.6</ele>
        <time>2024-05-20T08:45:03Z</time>
      </trkpt>
      <trkpt lat="43.5629" lon="1.07436">
        <ele>235.6</ele>
        <time>2024-05-20T08:45:04Z</time>
      </trkpt>
      <trkpt lat="43.56292" lon="1.07448">
        <ele>235.6</ele>
        <time>2024-05-20T08:45:05Z</time>
      </trkpt>
      <trkpt lat="43.56294" lon="1.07463">
        <ele>235.6</ele>
        <time>2024-05-20T08:45:06Z</time>
      </trkpt>
      <trkpt lat="43.56295" lon="1.07475">
        <ele>235.8</ele>
        <time>2024-05-20T08:45:07Z</time>
      </trkpt>
      <trkpt lat="43.56297" lon="1.07484">
        <ele>235.8</ele>
        <time>2024-05-20T08:45:08Z</time>
      </trkpt>
      <trkpt lat="43.56298" lon="1.07495">
        <ele>235.8</ele>
        <time>2024-05-20T08:45:09Z</time>
      </trkpt>
      <trkpt lat="43.563" lon="1.07508">
        <ele>235.8</ele>
        <time>2024-05-20T08:45:10Z</time>
      </trkpt>
      <trkpt lat="43.56301" lon="1.07519">
        <ele>236</ele>
        <time>2024-05-20T08:45:11Z</time>
      </trkpt>
      <trkpt lat="43.56302" lon="1.07529">
        <ele>236.2</ele>
        <time>2024-05-20T08:45:12Z</time>
      </trkpt>
      <trkpt lat="43.56303" lon="1.07536">
        <ele>236.4</ele>
        <time>2024-05-20T08:45:13Z</time>
      </trkpt>
      <trkpt lat="43.56305" lon="1.07546">
        <ele>237.2</ele>
        <time>2024-05-20T08:45:14Z</time>
      </trkpt>
      <trkpt lat="43.56306" lon="1.07557">
        <ele>237.4</ele>
        <time>2024-05-20T08:45:15Z</time>
      </trkpt>
      <trkpt lat="43.56307" lon="1.07566">
        <ele>237.8</ele>
        <time>2024-05-20T08:45:16Z</time>
      </trkpt>
      <trkpt lat="43.56309" lon="1.07574">
        <ele>238</ele>
        <time>2024-05-20T08:45:17Z</time>
      </trkpt>
      <trkpt lat="43.56309" lon="1.0758">
        <ele>238.6</ele>
        <time>2024-05-20T08:45:18Z</time>
      </trkpt>
      <trkpt lat="43.56311" lon="1.0759">
        <ele>239</ele>
        <time>2024-05-20T08:45:19Z</time>
      </trkpt>
      <trkpt lat="43.56311" lon="1.07597">
        <ele>240.4</ele>
        <time>2024-05-20T08:45:20Z</time>
      </trkpt>
      <trkpt lat="43.56312" lon="1.07602">
        <ele>240.8</ele>
        <time>2024-05-20T08:45:21Z</time>
      </trkpt>
      <trkpt lat="43.56312" lon="1.07609">
        <ele>241.2</ele>
        <time>2024-05-20T08:45:22Z</time>
      </trkpt>
      <trkpt lat="43.56313" lon="1.07615">
        <ele>241.8</ele>
        <time>2024-05-20T08:45:23Z</time>
      </trkpt>
      <trkpt lat="43.56314" lon="1.07623">
        <ele>242</ele>
        <time>2024-05-20T08:45:24Z</time>
      </trkpt>
      <trkpt lat="43.56314" lon="1.07627">
        <ele>242.8</ele>
        <time>2024-05-20T08:45:25Z</time>
      </trkpt>
      <trkpt lat="43.56315" lon="1.07635">
        <ele>243.2</ele>
        <time>2024-05-20T08:45:26Z</time>
      </trkpt>
      <trkpt lat="43.56316" lon="1.0764">
        <ele>244</ele>
        <time>2024-05-20T08:45:27Z</time>
      </trkpt>
      <trkpt lat="43.56317" lon="1.07646">
        <ele>244.4</ele>
        <time>2024-05-20T08:45:28Z</time>
      </trkpt>
      <trkpt lat="43.56317" lon="1.07654">
        <ele>245</ele>
        <time>2024-05-20T08:45:29Z</time>
      </trkpt>
      <trkpt lat="43.56317" lon="1.07661">
        <ele>245.2</ele>
        <time>2024-05-20T08:45:30Z</time>
      </trkpt>
      <trkpt lat="43.56318" lon="1.07668">
        <ele>245.4</ele>
        <time>2024-05-20T08:45:31Z</time>
      </trkpt>
      <trkpt lat="43.56318" lon="1.07674">
        <ele>245.8</ele>
        <time>2024-05-20T08:45:32Z</time>
      </trkpt>
      <trkpt lat="43.56318" lon="1.07682">
        <ele>245.8</ele>
        <time>2024-05-20T08:45:33Z</time>
      </trkpt>
      <trkpt lat="43.56318" lon="1.07691">
        <ele>246</ele>
        <time>2024-05-20T08:45:34Z</time>
      </trkpt>
      <trkpt lat="43.56318" lon="1.07699">
        <ele>246</ele>
        <time>2024-05-20T08:45:35Z</time>
      </trkpt>
      <trkpt lat="43.56318" lon="1.07707">
        <ele>246.2</ele>
        <time>2024-05-20T08:45:36Z</time>
      </trkpt>
      <trkpt lat="43.56318" lon="1.07714">
        <ele>246.4</ele>
        <time>2024-05-20T08:45:37Z</time>
      </trkpt>
      <trkpt lat="43.56318" lon="1.07724">
        <ele>246.4</ele>
        <time>2024-05-20T08:45:38Z</time>
      </trkpt>
      <trkpt lat="43.56318" lon="1.07732">
        <ele>246.4</ele>
        <time>2024-05-20T08:45:39Z</time>
      </trkpt>
      <trkpt lat="43.56318" lon="1.07741">
        <ele>246.4</ele>
        <time>2024-05-20T08:45:40Z</time>
      </trkpt>
      <trkpt lat="43.56318" lon="1.07748">
        <ele>246.6</ele>
        <time>2024-05-20T08:45:41Z</time>
      </trkpt>
      <trkpt lat="43.56318" lon="1.07756">
        <ele>246.6</ele>
        <time>2024-05-20T08:45:42Z</time>
      </trkpt>
      <trkpt lat="43.56318" lon="1.07767">
        <ele>246.8</ele>
        <time>2024-05-20T08:45:43Z</time>
      </trkpt>
      <trkpt lat="43.56318" lon="1.07775">
        <ele>246.8</ele>
        <time>2024-05-20T08:45:44Z</time>
      </trkpt>
      <trkpt lat="43.56318" lon="1.07784">
        <ele>246.8</ele>
        <time>2024-05-20T08:45:45Z</time>
      </trkpt>
      <trkpt lat="43.56318" lon="1.07791">
        <ele>246.8</ele>
        <time>2024-05-20T08:45:46Z</time>
      </trkpt>
      <trkpt lat="43.56317" lon="1.078">
        <ele>246.8</ele>
        <time>2024-05-20T08:45:47Z</time>
      </trkpt>
      <trkpt lat="43.56317" lon="1.07811">
        <ele>247</ele>
        <time>2024-05-20T08:45:48Z</time>
      </trkpt>
      <trkpt lat="43.56316" lon="1.0782">
        <ele>247</ele>
        <time>2024-05-20T08:45:49Z</time>
      </trkpt>
      <trkpt lat="43.56316" lon="1.07829">
        <ele>247</ele>
        <time>2024-05-20T08:45:50Z</time>
      </trkpt>
      <trkpt lat="43.56316" lon="1.07836">
        <ele>247.2</ele>
        <time>2024-05-20T08:45:51Z</time>
      </trkpt>
      <trkpt lat="43.56316" lon="1.07846">
        <ele>247.4</ele>
        <time>2024-05-20T08:45:52Z</time>
      </trkpt>
      <trkpt lat="43.56315" lon="1.07855">
        <ele>247.6</ele>
        <time>2024-05-20T08:45:53Z</time>
      </trkpt>
      <trkpt lat="43.56315" lon="1.07864">
        <ele>247.6</ele>
        <time>2024-05-20T08:45:54Z</time>
      </trkpt>
      <trkpt lat="43.56314" lon="1.07871">
        <ele>247.8</ele>
        <time>2024-05-20T08:45:55Z</time>
      </trkpt>
      <trkpt lat="43.56314" lon="1.0788">
        <ele>248</ele>
        <time>2024-05-20T08:45:56Z</time>
      </trkpt>
      <trkpt lat="43.56313" lon="1.0789">
        <ele>248.2</ele>
        <time>2024-05-20T08:45:57Z</time>
      </trkpt>
      <trkpt lat="43.56313" lon="1.07899">
        <ele>248.4</ele>
        <time>2024-05-20T08:45:58Z</time>
      </trkpt>
      <trkpt lat="43.56313" lon="1.07908">
        <ele>248.6</ele>
        <time>2024-05-20T08:45:59Z</time>
      </trkpt>
      <trkpt lat="43.56313" lon="1.07915">
        <ele>248.8</ele>
        <time>2024-05-20T08:46:00Z</time>
      </trkpt>
      <trkpt lat="43.56312" lon="1.07923">
        <ele>249</ele>
        <time>2024-05-20T08:46:01Z</time>
      </trkpt>
      <trkpt lat="43.56311" lon="1.07934">
        <ele>249.2</ele>
        <time>2024-05-20T08:46:02Z</time>
      </trkpt>
      <trkpt lat="43.56311" lon="1.07942">
        <ele>249.4</ele>
        <time>2024-05-20T08:46:03Z</time>
      </trkpt>
      <trkpt lat="43.56311" lon="1.07949">
        <ele>249.6</ele>
        <time>2024-05-20T08:46:04Z</time>
      </trkpt>
      <trkpt lat="43.56311" lon="1.07958">
        <ele>249.6</ele>
        <time>2024-05-20T08:46:05Z</time>
      </trkpt>
      <trkpt lat="43.5631" lon="1.07968">
        <ele>249.8</ele>
        <time>2024-05-20T08:46:06Z</time>
      </trkpt>
      <trkpt lat="43.5631" lon="1.07975">
        <ele>250.2</ele>
        <time>2024-05-20T08:46:07Z</time>
      </trkpt>
      <trkpt lat="43.5631" lon="1.07984">
        <ele>250.4</ele>
        <time>2024-05-20T08:46:08Z</time>
      </trkpt>
      <trkpt lat="43.56309" lon="1.07991">
        <ele>250.6</ele>
        <time>2024-05-20T08:46:09Z</time>
      </trkpt>
      <trkpt lat="43.56309" lon="1.08">
        <ele>250.8</ele>
        <time>2024-05-20T08:46:10Z</time>
      </trkpt>
      <trkpt lat="43.56308" lon="1.08008">
        <ele>251</ele>
        <time>2024-05-20T08:46:11Z</time>
      </trkpt>
      <trkpt lat="43.56308" lon="1.08018">
        <ele>251</ele>
        <time>2024-05-20T08:46:12Z</time>
      </trkpt>
      <trkpt lat="43.56308" lon="1.08026">
        <ele>251.4</ele>
        <time>2024-05-20T08:46:13Z</time>
      </trkpt>
      <trkpt lat="43.56307" lon="1.08035">
        <ele>251.8</ele>
        <time>2024-05-20T08:46:14Z</time>
      </trkpt>
      <trkpt lat="43.56307" lon="1.08042">
        <ele>252.2</ele>
        <time>2024-05-20T08:46:15Z</time>
      </trkpt>
      <trkpt lat="43.56307" lon="1.08053">
        <ele>252.4</ele>
        <time>2024-05-20T08:46:16Z</time>
      </trkpt>
      <trkpt lat="43.56306" lon="1.08062">
        <ele>252.6</ele>
        <time>2024-05-20T08:46:17Z</time>
      </trkpt>
      <trkpt lat="43.56306" lon="1.0807">
        <ele>252.8</ele>
        <time>2024-05-20T08:46:18Z</time>
      </trkpt>
      <trkpt lat="43.56305" lon="1.08077">
        <ele>252.8</ele>
        <time>2024-05-20T08:46:19Z</time>
      </trkpt>
      <trkpt lat="43.56304" lon="1.08086">
        <ele>253</ele>
        <time>2024-05-20T08:46:20Z</time>
      </trkpt>
      <trkpt lat="43.56304" lon="1.08097">
        <ele>253</ele>
        <time>2024-05-20T08:46:21Z</time>
      </trkpt>
      <trkpt lat="43.56303" lon="1.08105">
        <ele>253.2</ele>
        <time>2024-05-20T08:46:22Z</time>
      </trkpt>
      <trkpt lat="43.56302" lon="1.08113">
        <ele>253.4</ele>
        <time>2024-05-20T08:46:23Z</time>
      </trkpt>
      <trkpt lat="43.56301" lon="1.0812">
        <ele>253.6</ele>
        <time>2024-05-20T08:46:24Z</time>
      </trkpt>
      <trkpt lat="43.563" lon="1.08128">
        <ele>254</ele>
        <time>2024-05-20T08:46:25Z</time>
      </trkpt>
      <trkpt lat="43.56299" lon="1.08138">
        <ele>254.2</ele>
        <time>2024-05-20T08:46:26Z</time>
      </trkpt>
      <trkpt lat="43.56298" lon="1.08145">
        <ele>254.4</ele>
        <time>2024-05-20T08:46:27Z</time>
      </trkpt>
      <trkpt lat="43.56297" lon="1.08153">
        <ele>254.6</ele>
        <time>2024-05-20T08:46:28Z</time>
      </trkpt>
      <trkpt lat="43.56296" lon="1.08158">
        <ele>254.8</ele>
        <time>2024-05-20T08:46:29Z</time>
      </trkpt>
      <trkpt lat="43.56295" lon="1.08167">
        <ele>255.2</ele>
        <time>2024-05-20T08:46:30Z</time>
      </trkpt>
      <trkpt lat="43.56294" lon="1.08174">
        <ele>255.4</ele>
        <time>2024-05-20T08:46:31Z</time>
      </trkpt>
      <trkpt lat="43.56293" lon="1.08181">
        <ele>255.8</ele>
        <time>2024-05-20T08:46:32Z</time>
      </trkpt>
      <trkpt lat="43.56292" lon="1.08186">
        <ele>255.8</ele>
        <time>2024-05-20T08:46:33Z</time>
      </trkpt>
      <trkpt lat="43.56291" lon="1.08193">
        <ele>256.4</ele>
        <time>2024-05-20T08:46:34Z</time>
      </trkpt>
      <trkpt lat="43.5629" lon="1.08201">
        <ele>256.8</ele>
        <time>2024-05-20T08:46:35Z</time>
      </trkpt>
      <trkpt lat="43.56289" lon="1.08208">
        <ele>257</ele>
        <time>2024-05-20T08:46:36Z</time>
      </trkpt>
      <trkpt lat="43.56288" lon="1.08215">
        <ele>257.4</ele>
        <time>2024-05-20T08:46:37Z</time>
      </trkpt>
      <trkpt lat="43.56288" lon="1.0822">
        <ele>258</ele>
        <time>2024-05-20T08:46:38Z</time>
      </trkpt>
      <trkpt lat="43.56287" lon="1.08228">
        <ele>258</ele>
        <time>2024-05-20T08:46:39Z</time>
      </trkpt>
      <trkpt lat="43.56286" lon="1.08235">
        <ele>258.2</ele>
        <time>2024-05-20T08:46:40Z</time>
      </trkpt>
      <trkpt lat="43.56285" lon="1.08242">
        <ele>258.6</ele>
        <time>2024-05-20T08:46:41Z</time>
      </trkpt>
      <trkpt lat="43.56285" lon="1.08247">
        <ele>259.2</ele>
        <time>2024-05-20T08:46:42Z</time>
      </trkpt>
      <trkpt lat="43.56284" lon="1.08254">
        <ele>259.6</ele>
        <time>2024-05-20T08:46:43Z</time>
      </trkpt>
      <trkpt lat="43.56284" lon="1.08262">
        <ele>259.6</ele>
        <time>2024-05-20T08:46:44Z</time>
      </trkpt>
      <trkpt lat="43.56284" lon="1.08269">
        <ele>259.8</ele>
        <time>2024-05-20T08:46:45Z</time>
      </trkpt>
      <trkpt lat="43.56285" lon="1.08276">
        <ele>260</ele>
        <time>2024-05-20T08:46:46Z</time>
      </trkpt>
      <trkpt lat="43.56285" lon="1.08282">
        <ele>260</ele>
        <time>2024-05-20T08:46:47Z</time>
      </trkpt>
      <trkpt lat="43.56286" lon="1.0829">
        <ele>260.4</ele>
        <time>2024-05-20T08:46:48Z</time>
      </trkpt>
      <trkpt lat="43.56287" lon="1.08298">
        <ele>260.4</ele>
        <time>2024-05-20T08:46:49Z</time>
      </trkpt>
      <trkpt lat="43.56288" lon="1.08306">
        <ele>260.6</ele>
        <time>2024-05-20T08:46:50Z</time>
      </trkpt>
      <trkpt lat="43.56289" lon="1.08313">
        <ele>261</ele>
        <time>2024-05-20T08:46:51Z</time>
      </trkpt>
      <trkpt lat="43.56291" lon="1.08319">
        <ele>261</ele>
        <time>2024-05-20T08:46:52Z</time>
      </trkpt>
      <trkpt lat="43.56293" lon="1.08328">
        <ele>261.2</ele>
        <time>2024-05-20T08:46:53Z</time>
      </trkpt>
      <trkpt lat="43.56294" lon="1.08336">
        <ele>261.2</ele>
        <time>2024-05-20T08:46:54Z</time>
      </trkpt>
      <trkpt lat="43.56295" lon="1.08343">
        <ele>261.4</ele>
        <time>2024-05-20T08:46:55Z</time>
      </trkpt>
      <trkpt lat="43.56296" lon="1.08349">
        <ele>261.4</ele>
        <time>2024-05-20T08:46:56Z</time>
      </trkpt>
      <trkpt lat="43.56297" lon="1.08357">
        <ele>261.6</ele>
        <time>2024-05-20T08:46:57Z</time>
      </trkpt>
      <trkpt lat="43.56298" lon="1.08366">
        <ele>261.6</ele>
        <time>2024-05-20T08:46:58Z</time>
      </trkpt>
      <trkpt lat="43.563" lon="1.08373">
        <ele>261.8</ele>
        <time>2024-05-20T08:46:59Z</time>
      </trkpt>
      <trkpt lat="43.563" lon="1.08381">
        <ele>262</ele>
        <time>2024-05-20T08:47:00Z</time>
      </trkpt>
      <trkpt lat="43.56301" lon="1.08387">
        <ele>262</ele>
        <time>2024-05-20T08:47:01Z</time>
      </trkpt>
      <trkpt lat="43.56301" lon="1.08395">
        <ele>262.2</ele>
        <time>2024-05-20T08:47:02Z</time>
      </trkpt>
      <trkpt lat="43.563" lon="1.08404">
        <ele>262.4</ele>
        <time>2024-05-20T08:47:03Z</time>
      </trkpt>
      <trkpt lat="43.56299" lon="1.08412">
        <ele>262.6</ele>
        <time>2024-05-20T08:47:04Z</time>
      </trkpt>
      <trkpt lat="43.56296" lon="1.08419">
        <ele>262.8</ele>
        <time>2024-05-20T08:47:05Z</time>
      </trkpt>
      <trkpt lat="43.56294" lon="1.08424">
        <ele>262.8</ele>
        <time>2024-05-20T08:47:06Z</time>
      </trkpt>
      <trkpt lat="43.5629" lon="1.08431">
        <ele>263</ele>
        <time>2024-05-20T08:47:07Z</time>
      </trkpt>
      <trkpt lat="43.56287" lon="1.08436">
        <ele>263.2</ele>
        <time>2024-05-20T08:47:08Z</time>
      </trkpt>
      <trkpt lat="43.56283" lon="1.08442">
        <ele>263.4</ele>
        <time>2024-05-20T08:47:09Z</time>
      </trkpt>
      <trkpt lat="43.5628" lon="1.08445">
        <ele>263.4</ele>
        <time>2024-05-20T08:47:10Z</time>
      </trkpt>
      <trkpt lat="43.56277" lon="1.0845">
        <ele>263.6</ele>
        <time>2024-05-20T08:47:11Z</time>
      </trkpt>
      <trkpt lat="43.56272" lon="1.08456">
        <ele>263.8</ele>
        <time>2024-05-20T08:47:12Z</time>
      </trkpt>
      <trkpt lat="43.56269" lon="1.08461">
        <ele>263.8</ele>
        <time>2024-05-20T08:47:13Z</time>
      </trkpt>
      <trkpt lat="43.56265" lon="1.08466">
        <ele>264.2</ele>
        <time>2024-05-20T08:47:14Z</time>
      </trkpt>
      <trkpt lat="43.56263" lon="1.08469">
        <ele>264.4</ele>
        <time>2024-05-20T08:47:15Z</time>
      </trkpt>
      <trkpt lat="43.56259" lon="1.08474">
        <ele>265.2</ele>
        <time>2024-05-20T08:47:16Z</time>
      </trkpt>
      <trkpt lat="43.56255" lon="1.08479">
        <ele>265.4</ele>
        <time>2024-05-20T08:47:17Z</time>
      </trkpt>
      <trkpt lat="43.56252" lon="1.08484">
        <ele>265.6</ele>
        <time>2024-05-20T08:47:18Z</time>
      </trkpt>
      <trkpt lat="43.56249" lon="1.08488">
        <ele>265.8</ele>
        <time>2024-05-20T08:47:19Z</time>
      </trkpt>
      <trkpt lat="43.56246" lon="1.08492">
        <ele>266</ele>
        <time>2024-05-20T08:47:20Z</time>
      </trkpt>
      <trkpt lat="43.56243" lon="1.08497">
        <ele>266.4</ele>
        <time>2024-05-20T08:47:21Z</time>
      </trkpt>
      <trkpt lat="43.5624" lon="1.08501">
        <ele>266.6</ele>
        <time>2024-05-20T08:47:22Z</time>
      </trkpt>
      <trkpt lat="43.56237" lon="1.08505">
        <ele>267</ele>
        <time>2024-05-20T08:47:23Z</time>
      </trkpt>
      <trkpt lat="43.56235" lon="1.08508">
        <ele>267.2</ele>
        <time>2024-05-20T08:47:24Z</time>
      </trkpt>
      <trkpt lat="43.56232" lon="1.08512">
        <ele>267.8</ele>
        <time>2024-05-20T08:47:25Z</time>
      </trkpt>
      <trkpt lat="43.56229" lon="1.08517">
        <ele>268</ele>
        <time>2024-05-20T08:47:26Z</time>
      </trkpt>
      <trkpt lat="43.56226" lon="1.0852">
        <ele>268.4</ele>
        <time>2024-05-20T08:47:27Z</time>
      </trkpt>
      <trkpt lat="43.56224" lon="1.08523">
        <ele>269</ele>
        <time>2024-05-20T08:47:28Z</time>
      </trkpt>
      <trkpt lat="43.56222" lon="1.08526">
        <ele>269.2</ele>
        <time>2024-05-20T08:47:29Z</time>
      </trkpt>
      <trkpt lat="43.56219" lon="1.08531">
        <ele>270</ele>
        <time>2024-05-20T08:47:30Z</time>
      </trkpt>
      <trkpt lat="43.56217" lon="1.08535">
        <ele>270.2</ele>
        <time>2024-05-20T08:47:31Z</time>
      </trkpt>
      <trkpt lat="43.56215" lon="1.08539">
        <ele>270.6</ele>
        <time>2024-05-20T08:47:32Z</time>
      </trkpt>
      <trkpt lat="43.56213" lon="1.08544">
        <ele>270.8</ele>
        <time>2024-05-20T08:47:33Z</time>
      </trkpt>
      <trkpt lat="43.56212" lon="1.08549">
        <ele>271</ele>
        <time>2024-05-20T08:47:34Z</time>
      </trkpt>
      <trkpt lat="43.56211" lon="1.08554">
        <ele>271.2</ele>
        <time>2024-05-20T08:47:35Z</time>
      </trkpt>
      <trkpt lat="43.56209" lon="1.08561">
        <ele>271.4</ele>
        <time>2024-05-20T08:47:36Z</time>
      </trkpt>
      <trkpt lat="43.56208" lon="1.08567">
        <ele>271.8</ele>
        <time>2024-05-20T08:47:37Z</time>
      </trkpt>
      <trkpt lat="43.56207" lon="1.08573">
        <ele>272</ele>
        <time>2024-05-20T08:47:38Z</time>
      </trkpt>
      <trkpt lat="43.56207" lon="1.08578">
        <ele>272.4</ele>
        <time>2024-05-20T08:47:39Z</time>
      </trkpt>
      <trkpt lat="43.56206" lon="1.08586">
        <ele>272.6</ele>
        <time>2024-05-20T08:47:40Z</time>
      </trkpt>
      <trkpt lat="43.56205" lon="1.08593">
        <ele>272.8</ele>
        <time>2024-05-20T08:47:41Z</time>
      </trkpt>
      <trkpt lat="43.56205" lon="1.086">
        <ele>272.8</ele>
        <time>2024-05-20T08:47:42Z</time>
      </trkpt>
      <trkpt lat="43.56205" lon="1.08605">
        <ele>273</ele>
        <time>2024-05-20T08:47:43Z</time>
      </trkpt>
      <trkpt lat="43.56206" lon="1.08612">
        <ele>273</ele>
        <time>2024-05-20T08:47:44Z</time>
      </trkpt>
      <trkpt lat="43.56206" lon="1.08621">
        <ele>273.2</ele>
        <time>2024-05-20T08:47:45Z</time>
      </trkpt>
      <trkpt lat="43.56206" lon="1.08628">
        <ele>273.4</ele>
        <time>2024-05-20T08:47:46Z</time>
      </trkpt>
      <trkpt lat="43.56207" lon="1.08636">
        <ele>273.4</ele>
        <time>2024-05-20T08:47:47Z</time>
      </trkpt>
      <trkpt lat="43.56207" lon="1.08642">
        <ele>273.6</ele>
        <time>2024-05-20T08:47:48Z</time>
      </trkpt>
      <trkpt lat="43.56208" lon="1.08651">
        <ele>273.6</ele>
        <time>2024-05-20T08:47:49Z</time>
      </trkpt>
      <trkpt lat="43.56208" lon="1.08658">
        <ele>273.8</ele>
        <time>2024-05-20T08:47:50Z</time>
      </trkpt>
      <trkpt lat="43.56208" lon="1.08666">
        <ele>274</ele>
        <time>2024-05-20T08:47:51Z</time>
      </trkpt>
      <trkpt lat="43.56208" lon="1.08672">
        <ele>274</ele>
        <time>2024-05-20T08:47:52Z</time>
      </trkpt>
      <trkpt lat="43.56208" lon="1.08679">
        <ele>274</ele>
        <time>2024-05-20T08:47:53Z</time>
      </trkpt>
      <trkpt lat="43.56207" lon="1.08688">
        <ele>274</ele>
        <time>2024-05-20T08:47:54Z</time>
      </trkpt>
      <trkpt lat="43.56206" lon="1.08695">
        <ele>274.2</ele>
        <time>2024-05-20T08:47:55Z</time>
      </trkpt>
      <trkpt lat="43.56205" lon="1.08702">
        <ele>274.2</ele>
        <time>2024-05-20T08:47:56Z</time>
      </trkpt>
      <trkpt lat="43.56204" lon="1.08708">
        <ele>274.2</ele>
        <time>2024-05-20T08:47:57Z</time>
      </trkpt>
      <trkpt lat="43.56202" lon="1.08715">
        <ele>274.4</ele>
        <time>2024-05-20T08:47:58Z</time>
      </trkpt>
      <trkpt lat="43.56199" lon="1.08724">
        <ele>274.4</ele>
        <time>2024-05-20T08:47:59Z</time>
      </trkpt>
      <trkpt lat="43.56197" lon="1.08731">
        <ele>274.6</ele>
        <time>2024-05-20T08:48:00Z</time>
      </trkpt>
      <trkpt lat="43.56195" lon="1.08738">
        <ele>274.6</ele>
        <time>2024-05-20T08:48:01Z</time>
      </trkpt>
      <trkpt lat="43.56193" lon="1.08744">
        <ele>274.6</ele>
        <time>2024-05-20T08:48:02Z</time>
      </trkpt>
      <trkpt lat="43.56191" lon="1.08753">
        <ele>274.8</ele>
        <time>2024-05-20T08:48:03Z</time>
      </trkpt>
      <trkpt lat="43.56188" lon="1.08761">
        <ele>274.8</ele>
        <time>2024-05-20T08:48:04Z</time>
      </trkpt>
      <trkpt lat="43.56186" lon="1.08769">
        <ele>274.8</ele>
        <time>2024-05-20T08:48:05Z</time>
      </trkpt>
      <trkpt lat="43.56183" lon="1.08775">
        <ele>274.8</ele>
        <time>2024-05-20T08:48:06Z</time>
      </trkpt>
      <trkpt lat="43.5618" lon="1.08782">
        <ele>274.8</ele>
        <time>2024-05-20T08:48:07Z</time>
      </trkpt>
      <trkpt lat="43.56175" lon="1.0879">
        <ele>274.8</ele>
        <time>2024-05-20T08:48:08Z</time>
      </trkpt>
      <trkpt lat="43.56172" lon="1.08797">
        <ele>274.6</ele>
        <time>2024-05-20T08:48:09Z</time>
      </trkpt>
      <trkpt lat="43.56169" lon="1.08804">
        <ele>274.6</ele>
        <time>2024-05-20T08:48:10Z</time>
      </trkpt>
      <trkpt lat="43.56166" lon="1.0881">
        <ele>274.6</ele>
        <time>2024-05-20T08:48:11Z</time>
      </trkpt>
      <trkpt lat="43.56163" lon="1.08817">
        <ele>274.6</ele>
        <time>2024-05-20T08:48:12Z</time>
      </trkpt>
      <trkpt lat="43.56159" lon="1.08825">
        <ele>274.8</ele>
        <time>2024-05-20T08:48:13Z</time>
      </trkpt>
      <trkpt lat="43.56155" lon="1.08832">
        <ele>274.8</ele>
        <time>2024-05-20T08:48:14Z</time>
      </trkpt>
      <trkpt lat="43.56152" lon="1.08839">
        <ele>274.8</ele>
        <time>2024-05-20T08:48:15Z</time>
      </trkpt>
      <trkpt lat="43.5615" lon="1.08844">
        <ele>275</ele>
        <time>2024-05-20T08:48:16Z</time>
      </trkpt>
      <trkpt lat="43.56146" lon="1.08852">
        <ele>275.2</ele>
        <time>2024-05-20T08:48:17Z</time>
      </trkpt>
      <trkpt lat="43.56143" lon="1.08859">
        <ele>275.4</ele>
        <time>2024-05-20T08:48:18Z</time>
      </trkpt>
      <trkpt lat="43.5614" lon="1.08866">
        <ele>275.4</ele>
        <time>2024-05-20T08:48:19Z</time>
      </trkpt>
      <trkpt lat="43.56137" lon="1.08871">
        <ele>275.6</ele>
        <time>2024-05-20T08:48:20Z</time>
      </trkpt>
      <trkpt lat="43.56134" lon="1.08878">
        <ele>275.6</ele>
        <time>2024-05-20T08:48:21Z</time>
      </trkpt>
      <trkpt lat="43.5613" lon="1.08886">
        <ele>275.8</ele>
        <time>2024-05-20T08:48:22Z</time>
      </trkpt>
      <trkpt lat="43.56127" lon="1.08893">
        <ele>276</ele>
        <time>2024-05-20T08:48:23Z</time>
      </trkpt>
      <trkpt lat="43.56123" lon="1.089">
        <ele>276.2</ele>
        <time>2024-05-20T08:48:24Z</time>
      </trkpt>
      <trkpt lat="43.5612" lon="1.08905">
        <ele>276.4</ele>
        <time>2024-05-20T08:48:25Z</time>
      </trkpt>
      <trkpt lat="43.56117" lon="1.08912">
        <ele>276.8</ele>
        <time>2024-05-20T08:48:26Z</time>
      </trkpt>
      <trkpt lat="43.56113" lon="1.0892">
        <ele>276.8</ele>
        <time>2024-05-20T08:48:27Z</time>
      </trkpt>
      <trkpt lat="43.5611" lon="1.08927">
        <ele>277.2</ele>
        <time>2024-05-20T08:48:28Z</time>
      </trkpt>
      <trkpt lat="43.56107" lon="1.08934">
        <ele>277.4</ele>
        <time>2024-05-20T08:48:29Z</time>
      </trkpt>
      <trkpt lat="43.56105" lon="1.08939">
        <ele>277.6</ele>
        <time>2024-05-20T08:48:30Z</time>
      </trkpt>
      <trkpt lat="43.56101" lon="1.08947">
        <ele>277.8</ele>
        <time>2024-05-20T08:48:31Z</time>
      </trkpt>
      <trkpt lat="43.56098" lon="1.08954">
        <ele>278</ele>
        <time>2024-05-20T08:48:32Z</time>
      </trkpt>
      <trkpt lat="43.56094" lon="1.0896">
        <ele>278</ele>
        <time>2024-05-20T08:48:33Z</time>
      </trkpt>
      <trkpt lat="43.56092" lon="1.08965">
        <ele>278.2</ele>
        <time>2024-05-20T08:48:34Z</time>
      </trkpt>
      <trkpt lat="43.56089" lon="1.08972">
        <ele>278.6</ele>
        <time>2024-05-20T08:48:35Z</time>
      </trkpt>
      <trkpt lat="43.56085" lon="1.0898">
        <ele>278.8</ele>
        <time>2024-05-20T08:48:36Z</time>
      </trkpt>
      <trkpt lat="43.56082" lon="1.08987">
        <ele>279</ele>
        <time>2024-05-20T08:48:37Z</time>
      </trkpt>
      <trkpt lat="43.56078" lon="1.08994">
        <ele>279.2</ele>
        <time>2024-05-20T08:48:38Z</time>
      </trkpt>
      <trkpt lat="43.56075" lon="1.09">
        <ele>279.4</ele>
        <time>2024-05-20T08:48:39Z</time>
      </trkpt>
      <trkpt lat="43.56072" lon="1.09007">
        <ele>279.4</ele>
        <time>2024-05-20T08:48:40Z</time>
      </trkpt>
      <trkpt lat="43.56068" lon="1.09017">
        <ele>279.4</ele>
        <time>2024-05-20T08:48:41Z</time>
      </trkpt>
      <trkpt lat="43.56064" lon="1.09025">
        <ele>279.4</ele>
        <time>2024-05-20T08:48:42Z</time>
      </trkpt>
      <trkpt lat="43.56061" lon="1.09032">
        <ele>279.2</ele>
        <time>2024-05-20T08:48:43Z</time>
      </trkpt>
      <trkpt lat="43.56056" lon="1.09041">
        <ele>279.2</ele>
        <time>2024-05-20T08:48:44Z</time>
      </trkpt>
      <trkpt lat="43.5605" lon="1.09052">
        <ele>279.2</ele>
        <time>2024-05-20T08:48:45Z</time>
      </trkpt>
      <trkpt lat="43.56045" lon="1.09061">
        <ele>278.4</ele>
        <time>2024-05-20T08:48:46Z</time>
      </trkpt>
      <trkpt lat="43.56039" lon="1.0907">
        <ele>278.2</ele>
        <time>2024-05-20T08:48:47Z</time>
      </trkpt>
      <trkpt lat="43.56034" lon="1.09076">
        <ele>277.8</ele>
        <time>2024-05-20T08:48:48Z</time>
      </trkpt>
      <trkpt lat="43.56026" lon="1.09083">
        <ele>277.6</ele>
        <time>2024-05-20T08:48:49Z</time>
      </trkpt>
      <trkpt lat="43.56017" lon="1.0909">
        <ele>277.4</ele>
        <time>2024-05-20T08:48:50Z</time>
      </trkpt>
      <trkpt lat="43.56009" lon="1.09094">
        <ele>276.8</ele>
        <time>2024-05-20T08:48:51Z</time>
      </trkpt>
      <trkpt lat="43.56" lon="1.09098">
        <ele>276.6</ele>
        <time>2024-05-20T08:48:52Z</time>
      </trkpt>
      <trkpt lat="43.55994" lon="1.09101">
        <ele>276.2</ele>
        <time>2024-05-20T08:48:53Z</time>
      </trkpt>
      <trkpt lat="43.55986" lon="1.09105">
        <ele>275.8</ele>
        <time>2024-05-20T08:48:54Z</time>
      </trkpt>
      <trkpt lat="43.55977" lon="1.09109">
        <ele>275.6</ele>
        <time>2024-05-20T08:48:55Z</time>
      </trkpt>
      <trkpt lat="43.55968" lon="1.09112">
        <ele>275.4</ele>
        <time>2024-05-20T08:48:56Z</time>
      </trkpt>
      <trkpt lat="43.55961" lon="1.09113">
        <ele>275</ele>
        <time>2024-05-20T08:48:57Z</time>
      </trkpt>
      <trkpt lat="43.55952" lon="1.09115">
        <ele>274.6</ele>
        <time>2024-05-20T08:48:58Z</time>
      </trkpt>
      <trkpt lat="43.55943" lon="1.09115">
        <ele>274.4</ele>
        <time>2024-05-20T08:48:59Z</time>
      </trkpt>
      <trkpt lat="43.55933" lon="1.09114">
        <ele>274</ele>
        <time>2024-05-20T08:49:00Z</time>
      </trkpt>
      <trkpt lat="43.55925" lon="1.09112">
        <ele>273.6</ele>
        <time>2024-05-20T08:49:01Z</time>
      </trkpt>
      <trkpt lat="43.55917" lon="1.0911">
        <ele>273.2</ele>
        <time>2024-05-20T08:49:02Z</time>
      </trkpt>
      <trkpt lat="43.55911" lon="1.09107">
        <ele>272.8</ele>
        <time>2024-05-20T08:49:03Z</time>
      </trkpt>
      <trkpt lat="43.55902" lon="1.09103">
        <ele>272.8</ele>
        <time>2024-05-20T08:49:04Z</time>
      </trkpt>
      <trkpt lat="43.55894" lon="1.091">
        <ele>272.8</ele>
        <time>2024-05-20T08:49:05Z</time>
      </trkpt>
      <trkpt lat="43.55887" lon="1.09096">
        <ele>272.8</ele>
        <time>2024-05-20T08:49:06Z</time>
      </trkpt>
      <trkpt lat="43.55881" lon="1.09093">
        <ele>272.8</ele>
        <time>2024-05-20T08:49:07Z</time>
      </trkpt>
      <trkpt lat="43.55875" lon="1.09089">
        <ele>272.8</ele>
        <time>2024-05-20T08:49:08Z</time>
      </trkpt>
      <trkpt lat="43.55867" lon="1.09084">
        <ele>272.8</ele>
        <time>2024-05-20T08:49:09Z</time>
      </trkpt>
      <trkpt lat="43.55861" lon="1.09079">
        <ele>272.8</ele>
        <time>2024-05-20T08:49:10Z</time>
      </trkpt>
      <trkpt lat="43.55855" lon="1.09075">
        <ele>272.8</ele>
        <time>2024-05-20T08:49:11Z</time>
      </trkpt>
      <trkpt lat="43.55849" lon="1.09071">
        <ele>273</ele>
        <time>2024-05-20T08:49:12Z</time>
      </trkpt>
      <trkpt lat="43.55842" lon="1.09066">
        <ele>273</ele>
        <time>2024-05-20T08:49:13Z</time>
      </trkpt>
      <trkpt lat="43.55835" lon="1.09062">
        <ele>273</ele>
        <time>2024-05-20T08:49:14Z</time>
      </trkpt>
      <trkpt lat="43.55829" lon="1.09058">
        <ele>273</ele>
        <time>2024-05-20T08:49:15Z</time>
      </trkpt>
      <trkpt lat="43.55823" lon="1.09054">
        <ele>273.2</ele>
        <time>2024-05-20T08:49:16Z</time>
      </trkpt>
      <trkpt lat="43.55817" lon="1.09049">
        <ele>273.2</ele>
        <time>2024-05-20T08:49:17Z</time>
      </trkpt>
      <trkpt lat="43.55808" lon="1.09045">
        <ele>273</ele>
        <time>2024-05-20T08:49:18Z</time>
      </trkpt>
      <trkpt lat="43.55801" lon="1.09043">
        <ele>272.8</ele>
        <time>2024-05-20T08:49:19Z</time>
      </trkpt>
      <trkpt lat="43.55793" lon="1.09042">
        <ele>272.6</ele>
        <time>2024-05-20T08:49:20Z</time>
      </trkpt>
      <trkpt lat="43.55786" lon="1.09043">
        <ele>272.4</ele>
        <time>2024-05-20T08:49:21Z</time>
      </trkpt>
      <trkpt lat="43.55777" lon="1.09045">
        <ele>272</ele>
        <time>2024-05-20T08:49:22Z</time>
      </trkpt>
      <trkpt lat="43.55769" lon="1.09048">
        <ele>271.6</ele>
        <time>2024-05-20T08:49:23Z</time>
      </trkpt>
      <trkpt lat="43.55761" lon="1.09051">
        <ele>271.4</ele>
        <time>2024-05-20T08:49:24Z</time>
      </trkpt>
      <trkpt lat="43.55754" lon="1.09054">
        <ele>271</ele>
        <time>2024-05-20T08:49:25Z</time>
      </trkpt>
      <trkpt lat="43.55746" lon="1.09058">
        <ele>270.6</ele>
        <time>2024-05-20T08:49:26Z</time>
      </trkpt>
      <trkpt lat="43.55739" lon="1.09061">
        <ele>270.4</ele>
        <time>2024-05-20T08:49:27Z</time>
      </trkpt>
      <trkpt lat="43.55731" lon="1.09065">
        <ele>270</ele>
        <time>2024-05-20T08:49:28Z</time>
      </trkpt>
      <trkpt lat="43.55725" lon="1.09069">
        <ele>269.6</ele>
        <time>2024-05-20T08:49:29Z</time>
      </trkpt>
      <trkpt lat="43.5572" lon="1.09071">
        <ele>269</ele>
        <time>2024-05-20T08:49:30Z</time>
      </trkpt>
      <trkpt lat="43.55716" lon="1.09074">
        <ele>268.6</ele>
        <time>2024-05-20T08:49:31Z</time>
      </trkpt>
      <trkpt lat="43.55712" lon="1.09076">
        <ele>268.4</ele>
        <time>2024-05-20T08:49:32Z</time>
      </trkpt>
      <trkpt lat="43.55708" lon="1.09078">
        <ele>268.2</ele>
        <time>2024-05-20T08:49:33Z</time>
      </trkpt>
      <trkpt lat="43.55706" lon="1.09081">
        <ele>268.2</ele>
        <time>2024-05-20T08:49:34Z</time>
      </trkpt>
      <trkpt lat="43.55704" lon="1.09083">
        <ele>267.8</ele>
        <time>2024-05-20T08:49:35Z</time>
      </trkpt>
      <trkpt lat="43.55705" lon="1.09085">
        <ele>267.8</ele>
        <time>2024-05-20T08:49:36Z</time>
      </trkpt>
      <trkpt lat="43.55706" lon="1.09086">
        <ele>267.6</ele>
        <time>2024-05-20T08:49:37Z</time>
      </trkpt>
      <trkpt lat="43.55706" lon="1.09086">
        <ele>267.4</ele>
        <time>2024-05-20T08:49:38Z</time>
      </trkpt>
      <trkpt lat="43.55706" lon="1.09086">
        <ele>267.2</ele>
        <time>2024-05-20T08:49:39Z</time>
      </trkpt>
      <trkpt lat="43.55706" lon="1.09086">
        <ele>267</ele>
        <time>2024-05-20T08:49:40Z</time>
      </trkpt>
      <trkpt lat="43.55703" lon="1.09081">
        <ele>266</ele>
        <time>2024-05-20T08:50:18Z</time>
      </trkpt>
      <trkpt lat="43.55701" lon="1.09081">
        <ele>265.8</ele>
        <time>2024-05-20T08:50:19Z</time>
      </trkpt>
      <trkpt lat="43.55699" lon="1.09081">
        <ele>265.8</ele>
        <time>2024-05-20T08:50:20Z</time>
      </trkpt>
      <trkpt lat="43.55697" lon="1.09083">
        <ele>265.8</ele>
        <time>2024-05-20T08:50:21Z</time>
      </trkpt>
      <trkpt lat="43.55695" lon="1.09084">
        <ele>265.8</ele>
        <time>2024-05-20T08:50:22Z</time>
      </trkpt>
      <trkpt lat="43.55693" lon="1.09085">
        <ele>265.6</ele>
        <time>2024-05-20T08:50:23Z</time>
      </trkpt>
      <trkpt lat="43.55692" lon="1.09086">
        <ele>265.6</ele>
        <time>2024-05-20T08:50:24Z</time>
      </trkpt>
      <trkpt lat="43.5569" lon="1.09087">
        <ele>265.6</ele>
        <time>2024-05-20T08:50:25Z</time>
      </trkpt>
      <trkpt lat="43.55688" lon="1.09087">
        <ele>265.4</ele>
        <time>2024-05-20T08:50:26Z</time>
      </trkpt>
      <trkpt lat="43.55686" lon="1.09088">
        <ele>265.4</ele>
        <time>2024-05-20T08:50:27Z</time>
      </trkpt>
      <trkpt lat="43.55684" lon="1.09089">
        <ele>265.4</ele>
        <time>2024-05-20T08:50:28Z</time>
      </trkpt>
      <trkpt lat="43.55682" lon="1.09089">
        <ele>265.4</ele>
        <time>2024-05-20T08:50:29Z</time>
      </trkpt>
      <trkpt lat="43.55681" lon="1.0909">
        <ele>265.4</ele>
        <time>2024-05-20T08:50:30Z</time>
      </trkpt>
      <trkpt lat="43.55679" lon="1.09091">
        <ele>265.4</ele>
        <time>2024-05-20T08:50:31Z</time>
      </trkpt>
      <trkpt lat="43.55677" lon="1.09092">
        <ele>265.4</ele>
        <time>2024-05-20T08:50:32Z</time>
      </trkpt>
      <trkpt lat="43.55675" lon="1.09093">
        <ele>265.4</ele>
        <time>2024-05-20T08:50:33Z</time>
      </trkpt>
      <trkpt lat="43.55672" lon="1.09094">
        <ele>265.4</ele>
        <time>2024-05-20T08:50:34Z</time>
      </trkpt>
      <trkpt lat="43.5567" lon="1.09095">
        <ele>265.4</ele>
        <time>2024-05-20T08:50:35Z</time>
      </trkpt>
      <trkpt lat="43.55667" lon="1.09097">
        <ele>265.4</ele>
        <time>2024-05-20T08:50:36Z</time>
      </trkpt>
      <trkpt lat="43.55664" lon="1.09099">
        <ele>265.6</ele>
        <time>2024-05-20T08:50:37Z</time>
      </trkpt>
      <trkpt lat="43.5566" lon="1.09101">
        <ele>265.6</ele>
        <time>2024-05-20T08:50:38Z</time>
      </trkpt>
      <trkpt lat="43.55657" lon="1.09104">
        <ele>265.6</ele>
        <time>2024-05-20T08:50:39Z</time>
      </trkpt>
      <trkpt lat="43.55653" lon="1.09105">
        <ele>265.8</ele>
        <time>2024-05-20T08:50:40Z</time>
      </trkpt>
      <trkpt lat="43.55649" lon="1.09107">
        <ele>265.6</ele>
        <time>2024-05-20T08:50:41Z</time>
      </trkpt>
      <trkpt lat="43.55646" lon="1.09109">
        <ele>265.8</ele>
        <time>2024-05-20T08:50:42Z</time>
      </trkpt>
      <trkpt lat="43.55642" lon="1.09112">
        <ele>265.6</ele>
        <time>2024-05-20T08:50:43Z</time>
      </trkpt>
      <trkpt lat="43.55639" lon="1.09113">
        <ele>265.6</ele>
        <time>2024-05-20T08:50:44Z</time>
      </trkpt>
      <trkpt lat="43.55635" lon="1.09115">
        <ele>265.6</ele>
        <time>2024-05-20T08:50:45Z</time>
      </trkpt>
      <trkpt lat="43.55631" lon="1.09116">
        <ele>265.6</ele>
        <time>2024-05-20T08:50:46Z</time>
      </trkpt>
      <trkpt lat="43.55626" lon="1.09119">
        <ele>265.6</ele>
        <time>2024-05-20T08:50:47Z</time>
      </trkpt>
      <trkpt lat="43.55622" lon="1.09121">
        <ele>265.6</ele>
        <time>2024-05-20T08:50:48Z</time>
      </trkpt>
      <trkpt lat="43.55617" lon="1.09123">
        <ele>265.6</ele>
        <time>2024-05-20T08:50:49Z</time>
      </trkpt>
      <trkpt lat="43.55612" lon="1.09126">
        <ele>265.6</ele>
        <time>2024-05-20T08:50:50Z</time>
      </trkpt>
      <trkpt lat="43.55608" lon="1.09128">
        <ele>265.6</ele>
        <time>2024-05-20T08:50:51Z</time>
      </trkpt>
      <trkpt lat="43.55601" lon="1.09131">
        <ele>265.6</ele>
        <time>2024-05-20T08:50:52Z</time>
      </trkpt>
      <trkpt lat="43.55595" lon="1.09134">
        <ele>265.4</ele>
        <time>2024-05-20T08:50:53Z</time>
      </trkpt>
      <trkpt lat="43.5559" lon="1.09137">
        <ele>265.4</ele>
        <time>2024-05-20T08:50:54Z</time>
      </trkpt>
      <trkpt lat="43.55585" lon="1.0914">
        <ele>265.4</ele>
        <time>2024-05-20T08:50:55Z</time>
      </trkpt>
      <trkpt lat="43.55578" lon="1.09143">
        <ele>265.2</ele>
        <time>2024-05-20T08:50:56Z</time>
      </trkpt>
      <trkpt lat="43.55571" lon="1.09146">
        <ele>265.2</ele>
        <time>2024-05-20T08:50:57Z</time>
      </trkpt>
      <trkpt lat="43.55565" lon="1.0915">
        <ele>265.2</ele>
        <time>2024-05-20T08:50:58Z</time>
      </trkpt>
      <trkpt lat="43.55559" lon="1.09153">
        <ele>265.2</ele>
        <time>2024-05-20T08:50:59Z</time>
      </trkpt>
      <trkpt lat="43.55551" lon="1.09157">
        <ele>265.2</ele>
        <time>2024-05-20T08:51:00Z</time>
      </trkpt>
      <trkpt lat="43.55544" lon="1.09161">
        <ele>265.2</ele>
        <time>2024-05-20T08:51:01Z</time>
      </trkpt>
      <trkpt lat="43.55537" lon="1.09164">
        <ele>265.2</ele>
        <time>2024-05-20T08:51:02Z</time>
      </trkpt>
      <trkpt lat="43.5553" lon="1.09168">
        <ele>265.2</ele>
        <time>2024-05-20T08:51:03Z</time>
      </trkpt>
      <trkpt lat="43.55523" lon="1.09172">
        <ele>265.2</ele>
        <time>2024-05-20T08:51:04Z</time>
      </trkpt>
      <trkpt lat="43.55516" lon="1.09175">
        <ele>265.2</ele>
        <time>2024-05-20T08:51:05Z</time>
      </trkpt>
      <trkpt lat="43.5551" lon="1.09178">
        <ele>265.2</ele>
        <time>2024-05-20T08:51:06Z</time>
      </trkpt>
      <trkpt lat="43.55503" lon="1.09181">
        <ele>265.2</ele>
        <time>2024-05-20T08:51:07Z</time>
      </trkpt>
      <trkpt lat="43.55497" lon="1.09184">
        <ele>265.2</ele>
        <time>2024-05-20T08:51:08Z</time>
      </trkpt>
      <trkpt lat="43.55491" lon="1.09187">
        <ele>265.2</ele>
        <time>2024-05-20T08:51:09Z</time>
      </trkpt>
      <trkpt lat="43.55485" lon="1.0919">
        <ele>265.2</ele>
        <time>2024-05-20T08:51:10Z</time>
      </trkpt>
      <trkpt lat="43.5548" lon="1.09193">
        <ele>265.2</ele>
        <time>2024-05-20T08:51:11Z</time>
      </trkpt>
      <trkpt lat="43.55475" lon="1.09196">
        <ele>265.2</ele>
        <time>2024-05-20T08:51:12Z</time>
      </trkpt>
      <trkpt lat="43.5547" lon="1.09198">
        <ele>265.2</ele>
        <time>2024-05-20T08:51:13Z</time>
      </trkpt>
      <trkpt lat="43.55465" lon="1.09201">
        <ele>265.2</ele>
        <time>2024-05-20T08:51:14Z</time>
      </trkpt>
      <trkpt lat="43.5546" lon="1.09204">
        <ele>265.2</ele>
        <time>2024-05-20T08:51:15Z</time>
      </trkpt>
      <trkpt lat="43.55455" lon="1.09206">
        <ele>265.2</ele>
        <time>2024-05-20T08:51:16Z</time>
      </trkpt>
      <trkpt lat="43.55451" lon="1.09208">
        <ele>265.4</ele>
        <time>2024-05-20T08:51:17Z</time>
      </trkpt>
      <trkpt lat="43.55447" lon="1.09208">
        <ele>265.4</ele>
        <time>2024-05-20T08:51:18Z</time>
      </trkpt>
      <trkpt lat="43.55443" lon="1.09208">
        <ele>265.4</ele>
        <time>2024-05-20T08:51:19Z</time>
      </trkpt>
      <trkpt lat="43.5544" lon="1.09209">
        <ele>265.4</ele>
        <time>2024-05-20T08:51:20Z</time>
      </trkpt>
      <trkpt lat="43.55438" lon="1.0921">
        <ele>265.6</ele>
        <time>2024-05-20T08:51:21Z</time>
      </trkpt>
      <trkpt lat="43.55436" lon="1.09211">
        <ele>265.6</ele>
        <time>2024-05-20T08:51:22Z</time>
      </trkpt>
      <trkpt lat="43.55435" lon="1.09212">
        <ele>265.6</ele>
        <time>2024-05-20T08:51:23Z</time>
      </trkpt>
      <trkpt lat="43.55434" lon="1.09213">
        <ele>265.6</ele>
        <time>2024-05-20T08:51:24Z</time>
      </trkpt>
      <trkpt lat="43.55433" lon="1.09214">
        <ele>265.6</ele>
        <time>2024-05-20T08:51:25Z</time>
      </trkpt>
      <trkpt lat="43.55433" lon="1.09214">
        <ele>265.6</ele>
        <time>2024-05-20T08:51:26Z</time>
      </trkpt>
      <trkpt lat="43.55433" lon="1.09214">
        <ele>265.6</ele>
        <time>2024-05-20T08:51:27Z</time>
      </trkpt>
      <trkpt lat="43.5543" lon="1.09217">
        <ele>265.2</ele>
        <time>2024-05-20T08:51:46Z</time>
      </trkpt>
      <trkpt lat="43.55428" lon="1.09219">
        <ele>265.2</ele>
        <time>2024-05-20T08:51:47Z</time>
      </trkpt>
      <trkpt lat="43.55424" lon="1.09221">
        <ele>265.2</ele>
        <time>2024-05-20T08:51:48Z</time>
      </trkpt>
      <trkpt lat="43.55421" lon="1.09223">
        <ele>265</ele>
        <time>2024-05-20T08:51:49Z</time>
      </trkpt>
      <trkpt lat="43.55417" lon="1.09227">
        <ele>265</ele>
        <time>2024-05-20T08:51:50Z</time>
      </trkpt>
      <trkpt lat="43.55412" lon="1.0923">
        <ele>265</ele>
        <time>2024-05-20T08:51:51Z</time>
      </trkpt>
      <trkpt lat="43.55408" lon="1.09233">
        <ele>265</ele>
        <time>2024-05-20T08:51:52Z</time>
      </trkpt>
      <trkpt lat="43.55402" lon="1.09237">
        <ele>265</ele>
        <time>2024-05-20T08:51:53Z</time>
      </trkpt>
      <trkpt lat="43.55397" lon="1.09242">
        <ele>265</ele>
        <time>2024-05-20T08:51:54Z</time>
      </trkpt>
      <trkpt lat="43.55391" lon="1.09246">
        <ele>265</ele>
        <time>2024-05-20T08:51:55Z</time>
      </trkpt>
      <trkpt lat="43.55385" lon="1.0925">
        <ele>264.8</ele>
        <time>2024-05-20T08:51:56Z</time>
      </trkpt>
      <trkpt lat="43.55379" lon="1.09254">
        <ele>264.8</ele>
        <time>2024-05-20T08:51:57Z</time>
      </trkpt>
      <trkpt lat="43.55373" lon="1.09259">
        <ele>264.8</ele>
        <time>2024-05-20T08:51:58Z</time>
      </trkpt>
      <trkpt lat="43.55366" lon="1.09264">
        <ele>264.6</ele>
        <time>2024-05-20T08:51:59Z</time>
      </trkpt>
      <trkpt lat="43.5536" lon="1.09269">
        <ele>264.6</ele>
        <time>2024-05-20T08:52:00Z</time>
      </trkpt>
      <trkpt lat="43.55353" lon="1.09274">
        <ele>264.2</ele>
        <time>2024-05-20T08:52:01Z</time>
      </trkpt>
      <trkpt lat="43.55347" lon="1.09279">
        <ele>264</ele>
        <time>2024-05-20T08:52:02Z</time>
      </trkpt>
      <trkpt lat="43.5534" lon="1.09284">
        <ele>263.6</ele>
        <time>2024-05-20T08:52:03Z</time>
      </trkpt>
      <trkpt lat="43.55333" lon="1.09289">
        <ele>263.4</ele>
        <time>2024-05-20T08:52:04Z</time>
      </trkpt>
      <trkpt lat="43.55327" lon="1.09294">
        <ele>263</ele>
        <time>2024-05-20T08:52:05Z</time>
      </trkpt>
      <trkpt lat="43.5532" lon="1.09299">
        <ele>262.6</ele>
        <time>2024-05-20T08:52:06Z</time>
      </trkpt>
      <trkpt lat="43.55313" lon="1.09304">
        <ele>262.4</ele>
        <time>2024-05-20T08:52:07Z</time>
      </trkpt>
      <trkpt lat="43.55306" lon="1.09309">
        <ele>262.2</ele>
        <time>2024-05-20T08:52:08Z</time>
      </trkpt>
      <trkpt lat="43.55299" lon="1.09314">
        <ele>262</ele>
        <time>2024-05-20T08:52:09Z</time>
      </trkpt>
      <trkpt lat="43.55293" lon="1.09319">
        <ele>261.8</ele>
        <time>2024-05-20T08:52:10Z</time>
      </trkpt>
      <trkpt lat="43.55286" lon="1.09324">
        <ele>261.6</ele>
        <time>2024-05-20T08:52:11Z</time>
      </trkpt>
      <trkpt lat="43.55279" lon="1.09328">
        <ele>261.4</ele>
        <time>2024-05-20T08:52:12Z</time>
      </trkpt>
      <trkpt lat="43.55273" lon="1.09333">
        <ele>261.4</ele>
        <time>2024-05-20T08:52:13Z</time>
      </trkpt>
      <trkpt lat="43.55266" lon="1.09338">
        <ele>261.4</ele>
        <time>2024-05-20T08:52:14Z</time>
      </trkpt>
      <trkpt lat="43.5526" lon="1.09343">
        <ele>261.2</ele>
        <time>2024-05-20T08:52:15Z</time>
      </trkpt>
      <trkpt lat="43.55254" lon="1.09347">
        <ele>261.2</ele>
        <time>2024-05-20T08:52:16Z</time>
      </trkpt>
      <trkpt lat="43.55248" lon="1.09352">
        <ele>261.2</ele>
        <time>2024-05-20T08:52:17Z</time>
      </trkpt>
      <trkpt lat="43.55242" lon="1.09356">
        <ele>261.2</ele>
        <time>2024-05-20T08:52:18Z</time>
      </trkpt>
      <trkpt lat="43.55236" lon="1.0936">
        <ele>261.2</ele>
        <time>2024-05-20T08:52:19Z</time>
      </trkpt>
      <trkpt lat="43.55231" lon="1.09364">
        <ele>261.4</ele>
        <time>2024-05-20T08:52:20Z</time>
      </trkpt>
      <trkpt lat="43.55226" lon="1.09368">
        <ele>261.6</ele>
        <time>2024-05-20T08:52:21Z</time>
      </trkpt>
      <trkpt lat="43.55222" lon="1.09371">
        <ele>261.6</ele>
        <time>2024-05-20T08:52:22Z</time>
      </trkpt>
      <trkpt lat="43.55217" lon="1.09374">
        <ele>261.6</ele>
        <time>2024-05-20T08:52:23Z</time>
      </trkpt>
      <trkpt lat="43.55212" lon="1.09377">
        <ele>262</ele>
        <time>2024-05-20T08:52:24Z</time>
      </trkpt>
      <trkpt lat="43.55208" lon="1.09381">
        <ele>262.2</ele>
        <time>2024-05-20T08:52:25Z</time>
      </trkpt>
      <trkpt lat="43.55204" lon="1.09384">
        <ele>262.2</ele>
        <time>2024-05-20T08:52:26Z</time>
      </trkpt>
      <trkpt lat="43.55199" lon="1.09388">
        <ele>262.4</ele>
        <time>2024-05-20T08:52:27Z</time>
      </trkpt>
      <trkpt lat="43.55194" lon="1.09391">
        <ele>262.6</ele>
        <time>2024-05-20T08:52:28Z</time>
      </trkpt>
      <trkpt lat="43.55189" lon="1.09395">
        <ele>263</ele>
        <time>2024-05-20T08:52:29Z</time>
      </trkpt>
      <trkpt lat="43.55184" lon="1.09399">
        <ele>263.2</ele>
        <time>2024-05-20T08:52:30Z</time>
      </trkpt>
      <trkpt lat="43.55178" lon="1.09403">
        <ele>263.6</ele>
        <time>2024-05-20T08:52:31Z</time>
      </trkpt>
      <trkpt lat="43.55173" lon="1.09407">
        <ele>263.8</ele>
        <time>2024-05-20T08:52:32Z</time>
      </trkpt>
      <trkpt lat="43.55168" lon="1.09412">
        <ele>264</ele>
        <time>2024-05-20T08:52:33Z</time>
      </trkpt>
      <trkpt lat="43.55163" lon="1.09416">
        <ele>264.2</ele>
        <time>2024-05-20T08:52:34Z</time>
      </trkpt>
      <trkpt lat="43.55158" lon="1.09421">
        <ele>264.4</ele>
        <time>2024-05-20T08:52:35Z</time>
      </trkpt>
      <trkpt lat="43.55153" lon="1.09425">
        <ele>264.6</ele>
        <time>2024-05-20T08:52:36Z</time>
      </trkpt>
      <trkpt lat="43.55148" lon="1.0943">
        <ele>264.8</ele>
        <time>2024-05-20T08:52:37Z</time>
      </trkpt>
      <trkpt lat="43.55142" lon="1.09435">
        <ele>265</ele>
        <time>2024-05-20T08:52:38Z</time>
      </trkpt>
      <trkpt lat="43.55137" lon="1.0944">
        <ele>265</ele>
        <time>2024-05-20T08:52:39Z</time>
      </trkpt>
      <trkpt lat="43.55133" lon="1.09444">
        <ele>265.2</ele>
        <time>2024-05-20T08:52:40Z</time>
      </trkpt>
      <trkpt lat="43.55126" lon="1.0945">
        <ele>265.2</ele>
        <time>2024-05-20T08:52:41Z</time>
      </trkpt>
      <trkpt lat="43.55121" lon="1.09454">
        <ele>265.4</ele>
        <time>2024-05-20T08:52:42Z</time>
      </trkpt>
      <trkpt lat="43.55115" lon="1.09459">
        <ele>265.6</ele>
        <time>2024-05-20T08:52:43Z</time>
      </trkpt>
      <trkpt lat="43.55109" lon="1.09465">
        <ele>265.8</ele>
        <time>2024-05-20T08:52:44Z</time>
      </trkpt>
      <trkpt lat="43.55104" lon="1.09469">
        <ele>265.8</ele>
        <time>2024-05-20T08:52:45Z</time>
      </trkpt>
      <trkpt lat="43.55097" lon="1.09476">
        <ele>265.8</ele>
        <time>2024-05-20T08:52:46Z</time>
      </trkpt>
      <trkpt lat="43.5509" lon="1.09482">
        <ele>266</ele>
        <time>2024-05-20T08:52:47Z</time>
      </trkpt>
      <trkpt lat="43.55083" lon="1.09488">
        <ele>266</ele>
        <time>2024-05-20T08:52:48Z</time>
      </trkpt>
      <trkpt lat="43.55077" lon="1.09494">
        <ele>265.8</ele>
        <time>2024-05-20T08:52:49Z</time>
      </trkpt>
      <trkpt lat="43.55069" lon="1.095">
        <ele>265.4</ele>
        <time>2024-05-20T08:52:50Z</time>
      </trkpt>
      <trkpt lat="43.55062" lon="1.09507">
        <ele>265.2</ele>
        <time>2024-05-20T08:52:51Z</time>
      </trkpt>
      <trkpt lat="43.55054" lon="1.09514">
        <ele>264.8</ele>
        <time>2024-05-20T08:52:52Z</time>
      </trkpt>
      <trkpt lat="43.55047" lon="1.09521">
        <ele>264.6</ele>
        <time>2024-05-20T08:52:53Z</time>
      </trkpt>
      <trkpt lat="43.5504" lon="1.09528">
        <ele>263.8</ele>
        <time>2024-05-20T08:52:54Z</time>
      </trkpt>
      <trkpt lat="43.55032" lon="1.09534">
        <ele>263.2</ele>
        <time>2024-05-20T08:52:55Z</time>
      </trkpt>
      <trkpt lat="43.55025" lon="1.09541">
        <ele>262.6</ele>
        <time>2024-05-20T08:52:56Z</time>
      </trkpt>
      <trkpt lat="43.55018" lon="1.09547">
        <ele>262.2</ele>
        <time>2024-05-20T08:52:57Z</time>
      </trkpt>
      <trkpt lat="43.55011" lon="1.09554">
        <ele>262</ele>
        <time>2024-05-20T08:52:58Z</time>
      </trkpt>
      <trkpt lat="43.55005" lon="1.09559">
        <ele>261.6</ele>
        <time>2024-05-20T08:52:59Z</time>
      </trkpt>
      <trkpt lat="43.54996" lon="1.09565">
        <ele>261.4</ele>
        <time>2024-05-20T08:53:00Z</time>
      </trkpt>
      <trkpt lat="43.54989" lon="1.0957">
        <ele>261</ele>
        <time>2024-05-20T08:53:01Z</time>
      </trkpt>
      <trkpt lat="43.54981" lon="1.09574">
        <ele>261</ele>
        <time>2024-05-20T08:53:02Z</time>
      </trkpt>
      <trkpt lat="43.54974" lon="1.09578">
        <ele>260.8</ele>
        <time>2024-05-20T08:53:03Z</time>
      </trkpt>
      <trkpt lat="43.54966" lon="1.0958">
        <ele>260.6</ele>
        <time>2024-05-20T08:53:04Z</time>
      </trkpt>
      <trkpt lat="43.54959" lon="1.09582">
        <ele>260.8</ele>
        <time>2024-05-20T08:53:05Z</time>
      </trkpt>
      <trkpt lat="43.54951" lon="1.09584">
        <ele>260.8</ele>
        <time>2024-05-20T08:53:06Z</time>
      </trkpt>
      <trkpt lat="43.54945" lon="1.09585">
        <ele>260.8</ele>
        <time>2024-05-20T08:53:07Z</time>
      </trkpt>
      <trkpt lat="43.54936" lon="1.09587">
        <ele>261</ele>
        <time>2024-05-20T08:53:08Z</time>
      </trkpt>
      <trkpt lat="43.54929" lon="1.09588">
        <ele>261</ele>
        <time>2024-05-20T08:53:09Z</time>
      </trkpt>
      <trkpt lat="43.54922" lon="1.09589">
        <ele>261.2</ele>
        <time>2024-05-20T08:53:10Z</time>
      </trkpt>
      <trkpt lat="43.54915" lon="1.0959">
        <ele>261.4</ele>
        <time>2024-05-20T08:53:11Z</time>
      </trkpt>
      <trkpt lat="43.54908" lon="1.09592">
        <ele>261.4</ele>
        <time>2024-05-20T08:53:12Z</time>
      </trkpt>
      <trkpt lat="43.54901" lon="1.09593">
        <ele>261.6</ele>
        <time>2024-05-20T08:53:13Z</time>
      </trkpt>
      <trkpt lat="43.54894" lon="1.09594">
        <ele>261.8</ele>
        <time>2024-05-20T08:53:14Z</time>
      </trkpt>
      <trkpt lat="43.54887" lon="1.09595">
        <ele>261.8</ele>
        <time>2024-05-20T08:53:15Z</time>
      </trkpt>
      <trkpt lat="43.54881" lon="1.09596">
        <ele>262</ele>
        <time>2024-05-20T08:53:16Z</time>
      </trkpt>
      <trkpt lat="43.54874" lon="1.09598">
        <ele>262</ele>
        <time>2024-05-20T08:53:17Z</time>
      </trkpt>
      <trkpt lat="43.54868" lon="1.09599">
        <ele>262.2</ele>
        <time>2024-05-20T08:53:18Z</time>
      </trkpt>
      <trkpt lat="43.54862" lon="1.096">
        <ele>262.4</ele>
        <time>2024-05-20T08:53:19Z</time>
      </trkpt>
      <trkpt lat="43.54856" lon="1.096">
        <ele>262.8</ele>
        <time>2024-05-20T08:53:20Z</time>
      </trkpt>
      <trkpt lat="43.54851" lon="1.09601">
        <ele>262.8</ele>
        <time>2024-05-20T08:53:21Z</time>
      </trkpt>
      <trkpt lat="43.54845" lon="1.09602">
        <ele>263.2</ele>
        <time>2024-05-20T08:53:22Z</time>
      </trkpt>
      <trkpt lat="43.54839" lon="1.09603">
        <ele>263.2</ele>
        <time>2024-05-20T08:53:23Z</time>
      </trkpt>
      <trkpt lat="43.54833" lon="1.09605">
        <ele>263.6</ele>
        <time>2024-05-20T08:53:24Z</time>
      </trkpt>
      <trkpt lat="43.54828" lon="1.09607">
        <ele>263.8</ele>
        <time>2024-05-20T08:53:25Z</time>
      </trkpt>
      <trkpt lat="43.54824" lon="1.09608">
        <ele>264</ele>
        <time>2024-05-20T08:53:26Z</time>
      </trkpt>
      <trkpt lat="43.54818" lon="1.0961">
        <ele>264.6</ele>
        <time>2024-05-20T08:53:27Z</time>
      </trkpt>
      <trkpt lat="43.54813" lon="1.09613">
        <ele>264.6</ele>
        <time>2024-05-20T08:53:28Z</time>
      </trkpt>
      <trkpt lat="43.54808" lon="1.09615">
        <ele>265</ele>
        <time>2024-05-20T08:53:29Z</time>
      </trkpt>
      <trkpt lat="43.54803" lon="1.09618">
        <ele>265.2</ele>
        <time>2024-05-20T08:53:30Z</time>
      </trkpt>
      <trkpt lat="43.54798" lon="1.09621">
        <ele>265.6</ele>
        <time>2024-05-20T08:53:31Z</time>
      </trkpt>
      <trkpt lat="43.54792" lon="1.09625">
        <ele>265.6</ele>
        <time>2024-05-20T08:53:32Z</time>
      </trkpt>
      <trkpt lat="43.54786" lon="1.09629">
        <ele>266</ele>
        <time>2024-05-20T08:53:33Z</time>
      </trkpt>
      <trkpt lat="43.5478" lon="1.09633">
        <ele>266.4</ele>
        <time>2024-05-20T08:53:34Z</time>
      </trkpt>
      <trkpt lat="43.54775" lon="1.09637">
        <ele>266.4</ele>
        <time>2024-05-20T08:53:35Z</time>
      </trkpt>
      <trkpt lat="43.54769" lon="1.09641">
        <ele>266.6</ele>
        <time>2024-05-20T08:53:36Z</time>
      </trkpt>
      <trkpt lat="43.54763" lon="1.09645">
        <ele>266.8</ele>
        <time>2024-05-20T08:53:37Z</time>
      </trkpt>
      <trkpt lat="43.54757" lon="1.09649">
        <ele>266.8</ele>
        <time>2024-05-20T08:53:38Z</time>
      </trkpt>
      <trkpt lat="43.54751" lon="1.09653">
        <ele>267</ele>
        <time>2024-05-20T08:53:39Z</time>
      </trkpt>
      <trkpt lat="43.54746" lon="1.09657">
        <ele>267</ele>
        <time>2024-05-20T08:53:40Z</time>
      </trkpt>
      <trkpt lat="43.54739" lon="1.09662">
        <ele>267</ele>
        <time>2024-05-20T08:53:41Z</time>
      </trkpt>
      <trkpt lat="43.54733" lon="1.09666">
        <ele>267</ele>
        <time>2024-05-20T08:53:42Z</time>
      </trkpt>
      <trkpt lat="43.54727" lon="1.0967">
        <ele>267.2</ele>
        <time>2024-05-20T08:53:43Z</time>
      </trkpt>
      <trkpt lat="43.54721" lon="1.09674">
        <ele>267.2</ele>
        <time>2024-05-20T08:53:44Z</time>
      </trkpt>
      <trkpt lat="43.54715" lon="1.09679">
        <ele>267.4</ele>
        <time>2024-05-20T08:53:45Z</time>
      </trkpt>
      <trkpt lat="43.5471" lon="1.09683">
        <ele>267.4</ele>
        <time>2024-05-20T08:53:46Z</time>
      </trkpt>
      <trkpt lat="43.54704" lon="1.09687">
        <ele>267.4</ele>
        <time>2024-05-20T08:53:47Z</time>
      </trkpt>
      <trkpt lat="43.54698" lon="1.09691">
        <ele>267.6</ele>
        <time>2024-05-20T08:53:48Z</time>
      </trkpt>
      <trkpt lat="43.54694" lon="1.09695">
        <ele>267.6</ele>
        <time>2024-05-20T08:53:49Z</time>
      </trkpt>
      <trkpt lat="43.54687" lon="1.09699">
        <ele>267.6</ele>
        <time>2024-05-20T08:53:50Z</time>
      </trkpt>
      <trkpt lat="43.54682" lon="1.09703">
        <ele>267.6</ele>
        <time>2024-05-20T08:53:51Z</time>
      </trkpt>
      <trkpt lat="43.54676" lon="1.09706">
        <ele>268</ele>
        <time>2024-05-20T08:53:52Z</time>
      </trkpt>
      <trkpt lat="43.54672" lon="1.09709">
        <ele>268.2</ele>
        <time>2024-05-20T08:53:53Z</time>
      </trkpt>
      <trkpt lat="43.54666" lon="1.09713">
        <ele>268.4</ele>
        <time>2024-05-20T08:53:54Z</time>
      </trkpt>
      <trkpt lat="43.5466" lon="1.09716">
        <ele>268.6</ele>
        <time>2024-05-20T08:53:55Z</time>
      </trkpt>
      <trkpt lat="43.54655" lon="1.0972">
        <ele>268.8</ele>
        <time>2024-05-20T08:53:56Z</time>
      </trkpt>
      <trkpt lat="43.54649" lon="1.09722">
        <ele>269.2</ele>
        <time>2024-05-20T08:53:57Z</time>
      </trkpt>
      <trkpt lat="43.54644" lon="1.09725">
        <ele>269.4</ele>
        <time>2024-05-20T08:53:58Z</time>
      </trkpt>
      <trkpt lat="43.54639" lon="1.09728">
        <ele>269.6</ele>
        <time>2024-05-20T08:53:59Z</time>
      </trkpt>
      <trkpt lat="43.54633" lon="1.0973">
        <ele>269.8</ele>
        <time>2024-05-20T08:54:00Z</time>
      </trkpt>
      <trkpt lat="43.54628" lon="1.09733">
        <ele>270</ele>
        <time>2024-05-20T08:54:01Z</time>
      </trkpt>
      <trkpt lat="43.54622" lon="1.09735">
        <ele>270.4</ele>
        <time>2024-05-20T08:54:02Z</time>
      </trkpt>
      <trkpt lat="43.54617" lon="1.09736">
        <ele>270.6</ele>
        <time>2024-05-20T08:54:03Z</time>
      </trkpt>
      <trkpt lat="43.5461" lon="1.09738">
        <ele>271</ele>
        <time>2024-05-20T08:54:04Z</time>
      </trkpt>
      <trkpt lat="43.54604" lon="1.09739">
        <ele>271.4</ele>
        <time>2024-05-20T08:54:05Z</time>
      </trkpt>
      <trkpt lat="43.54597" lon="1.0974">
        <ele>271.8</ele>
        <time>2024-05-20T08:54:06Z</time>
      </trkpt>
      <trkpt lat="43.5459" lon="1.09741">
        <ele>271.8</ele>
        <time>2024-05-20T08:54:07Z</time>
      </trkpt>
      <trkpt lat="43.54583" lon="1.09741">
        <ele>272</ele>
        <time>2024-05-20T08:54:08Z</time>
      </trkpt>
      <trkpt lat="43.54576" lon="1.09742">
        <ele>272</ele>
        <time>2024-05-20T08:54:09Z</time>
      </trkpt>
      <trkpt lat="43.54569" lon="1.09741">
        <ele>272.2</ele>
        <time>2024-05-20T08:54:10Z</time>
      </trkpt>
      <trkpt lat="43.54561" lon="1.09741">
        <ele>272.2</ele>
        <time>2024-05-20T08:54:11Z</time>
      </trkpt>
      <trkpt lat="43.54554" lon="1.09741">
        <ele>272.2</ele>
        <time>2024-05-20T08:54:12Z</time>
      </trkpt>
      <trkpt lat="43.54546" lon="1.0974">
        <ele>272.4</ele>
        <time>2024-05-20T08:54:13Z</time>
      </trkpt>
      <trkpt lat="43.54539" lon="1.09739">
        <ele>272.4</ele>
        <time>2024-05-20T08:54:14Z</time>
      </trkpt>
      <trkpt lat="43.54531" lon="1.09739">
        <ele>272.2</ele>
        <time>2024-05-20T08:54:15Z</time>
      </trkpt>
      <trkpt lat="43.54524" lon="1.09738">
        <ele>272.2</ele>
        <time>2024-05-20T08:54:16Z</time>
      </trkpt>
      <trkpt lat="43.54517" lon="1.09737">
        <ele>271.8</ele>
        <time>2024-05-20T08:54:17Z</time>
      </trkpt>
      <trkpt lat="43.54508" lon="1.09736">
        <ele>271.6</ele>
        <time>2024-05-20T08:54:18Z</time>
      </trkpt>
      <trkpt lat="43.545" lon="1.09735">
        <ele>271.4</ele>
        <time>2024-05-20T08:54:19Z</time>
      </trkpt>
      <trkpt lat="43.54492" lon="1.09735">
        <ele>271.2</ele>
        <time>2024-05-20T08:54:20Z</time>
      </trkpt>
      <trkpt lat="43.54486" lon="1.09734">
        <ele>271</ele>
        <time>2024-05-20T08:54:21Z</time>
      </trkpt>
      <trkpt lat="43.54476" lon="1.09733">
        <ele>270.8</ele>
        <time>2024-05-20T08:54:22Z</time>
      </trkpt>
      <trkpt lat="43.54468" lon="1.09732">
        <ele>270.8</ele>
        <time>2024-05-20T08:54:23Z</time>
      </trkpt>
      <trkpt lat="43.5446" lon="1.09731">
        <ele>270.8</ele>
        <time>2024-05-20T08:54:24Z</time>
      </trkpt>
      <trkpt lat="43.54452" lon="1.0973">
        <ele>270.6</ele>
        <time>2024-05-20T08:54:25Z</time>
      </trkpt>
      <trkpt lat="43.54446" lon="1.09729">
        <ele>270.6</ele>
        <time>2024-05-20T08:54:26Z</time>
      </trkpt>
      <trkpt lat="43.54438" lon="1.09729">
        <ele>270.6</ele>
        <time>2024-05-20T08:54:27Z</time>
      </trkpt>
      <trkpt lat="43.54429" lon="1.09728">
        <ele>270.8</ele>
        <time>2024-05-20T08:54:28Z</time>
      </trkpt>
      <trkpt lat="43.54421" lon="1.09727">
        <ele>270.8</ele>
        <time>2024-05-20T08:54:29Z</time>
      </trkpt>
      <trkpt lat="43.54415" lon="1.09726">
        <ele>270.8</ele>
        <time>2024-05-20T08:54:30Z</time>
      </trkpt>
      <trkpt lat="43.54408" lon="1.09725">
        <ele>270.8</ele>
        <time>2024-05-20T08:54:31Z</time>
      </trkpt>
      <trkpt lat="43.54398" lon="1.09725">
        <ele>270.8</ele>
        <time>2024-05-20T08:54:32Z</time>
      </trkpt>
      <trkpt lat="43.54391" lon="1.09724">
        <ele>270.8</ele>
        <time>2024-05-20T08:54:33Z</time>
      </trkpt>
      <trkpt lat="43.54383" lon="1.09723">
        <ele>271</ele>
        <time>2024-05-20T08:54:34Z</time>
      </trkpt>
      <trkpt lat="43.54377" lon="1.09723">
        <ele>271</ele>
        <time>2024-05-20T08:54:35Z</time>
      </trkpt>
      <trkpt lat="43.5437" lon="1.09722">
        <ele>271.2</ele>
        <time>2024-05-20T08:54:36Z</time>
      </trkpt>
      <trkpt lat="43.54361" lon="1.09721">
        <ele>271.2</ele>
        <time>2024-05-20T08:54:37Z</time>
      </trkpt>
      <trkpt lat="43.54353" lon="1.09721">
        <ele>271.2</ele>
        <time>2024-05-20T08:54:38Z</time>
      </trkpt>
      <trkpt lat="43.54346" lon="1.0972">
        <ele>271</ele>
        <time>2024-05-20T08:54:39Z</time>
      </trkpt>
      <trkpt lat="43.54339" lon="1.09719">
        <ele>271</ele>
        <time>2024-05-20T08:54:40Z</time>
      </trkpt>
      <trkpt lat="43.54331" lon="1.09719">
        <ele>271</ele>
        <time>2024-05-20T08:54:41Z</time>
      </trkpt>
      <trkpt lat="43.54324" lon="1.09718">
        <ele>271</ele>
        <time>2024-05-20T08:54:42Z</time>
      </trkpt>
      <trkpt lat="43.54317" lon="1.09717">
        <ele>271.2</ele>
        <time>2024-05-20T08:54:43Z</time>
      </trkpt>
      <trkpt lat="43.54311" lon="1.09717">
        <ele>271.2</ele>
        <time>2024-05-20T08:54:44Z</time>
      </trkpt>
      <trkpt lat="43.54304" lon="1.09716">
        <ele>271.2</ele>
        <time>2024-05-20T08:54:45Z</time>
      </trkpt>
      <trkpt lat="43.54296" lon="1.09715">
        <ele>271.2</ele>
        <time>2024-05-20T08:54:46Z</time>
      </trkpt>
      <trkpt lat="43.54289" lon="1.09715">
        <ele>271.2</ele>
        <time>2024-05-20T08:54:47Z</time>
      </trkpt>
      <trkpt lat="43.54282" lon="1.09714">
        <ele>271.4</ele>
        <time>2024-05-20T08:54:48Z</time>
      </trkpt>
      <trkpt lat="43.54276" lon="1.09714">
        <ele>271.6</ele>
        <time>2024-05-20T08:54:49Z</time>
      </trkpt>
      <trkpt lat="43.54269" lon="1.09713">
        <ele>271.8</ele>
        <time>2024-05-20T08:54:50Z</time>
      </trkpt>
      <trkpt lat="43.54263" lon="1.09713">
        <ele>272</ele>
        <time>2024-05-20T08:54:51Z</time>
      </trkpt>
      <trkpt lat="43.54257" lon="1.09713">
        <ele>272.2</ele>
        <time>2024-05-20T08:54:52Z</time>
      </trkpt>
      <trkpt lat="43.54251" lon="1.09713">
        <ele>272.2</ele>
        <time>2024-05-20T08:54:53Z</time>
      </trkpt>
      <trkpt lat="43.54246" lon="1.09712">
        <ele>272.6</ele>
        <time>2024-05-20T08:54:54Z</time>
      </trkpt>
      <trkpt lat="43.54239" lon="1.09711">
        <ele>273</ele>
        <time>2024-05-20T08:54:55Z</time>
      </trkpt>
      <trkpt lat="43.54233" lon="1.09711">
        <ele>273.2</ele>
        <time>2024-05-20T08:54:56Z</time>
      </trkpt>
      <trkpt lat="43.54227" lon="1.0971">
        <ele>273.6</ele>
        <time>2024-05-20T08:54:57Z</time>
      </trkpt>
      <trkpt lat="43.54222" lon="1.09709">
        <ele>273.8</ele>
        <time>2024-05-20T08:54:58Z</time>
      </trkpt>
      <trkpt lat="43.54216" lon="1.09709">
        <ele>274.2</ele>
        <time>2024-05-20T08:54:59Z</time>
      </trkpt>
      <trkpt lat="43.54211" lon="1.09708">
        <ele>274.4</ele>
        <time>2024-05-20T08:55:00Z</time>
      </trkpt>
      <trkpt lat="43.54205" lon="1.09707">
        <ele>274.8</ele>
        <time>2024-05-20T08:55:01Z</time>
      </trkpt>
      <trkpt lat="43.542" lon="1.09707">
        <ele>275.2</ele>
        <time>2024-05-20T08:55:02Z</time>
      </trkpt>
      <trkpt lat="43.54194" lon="1.09706">
        <ele>275.4</ele>
        <time>2024-05-20T08:55:03Z</time>
      </trkpt>
      <trkpt lat="43.54189" lon="1.09705">
        <ele>275.8</ele>
        <time>2024-05-20T08:55:04Z</time>
      </trkpt>
      <trkpt lat="43.54183" lon="1.09705">
        <ele>276</ele>
        <time>2024-05-20T08:55:05Z</time>
      </trkpt>
      <trkpt lat="43.54178" lon="1.09704">
        <ele>276.4</ele>
        <time>2024-05-20T08:55:06Z</time>
      </trkpt>
      <trkpt lat="43.54173" lon="1.09704">
        <ele>276.6</ele>
        <time>2024-05-20T08:55:07Z</time>
      </trkpt>
      <trkpt lat="43.54167" lon="1.09704">
        <ele>277.2</ele>
        <time>2024-05-20T08:55:08Z</time>
      </trkpt>
      <trkpt lat="43.54162" lon="1.09703">
        <ele>277.4</ele>
        <time>2024-05-20T08:55:09Z</time>
      </trkpt>
      <trkpt lat="43.54157" lon="1.09702">
        <ele>277.8</ele>
        <time>2024-05-20T08:55:10Z</time>
      </trkpt>
      <trkpt lat="43.54152" lon="1.09702">
        <ele>278.2</ele>
        <time>2024-05-20T08:55:11Z</time>
      </trkpt>
      <trkpt lat="43.54148" lon="1.09702">
        <ele>278.4</ele>
        <time>2024-05-20T08:55:12Z</time>
      </trkpt>
      <trkpt lat="43.54143" lon="1.09701">
        <ele>278.6</ele>
        <time>2024-05-20T08:55:13Z</time>
      </trkpt>
      <trkpt lat="43.54137" lon="1.09701">
        <ele>278.8</ele>
        <time>2024-05-20T08:55:14Z</time>
      </trkpt>
      <trkpt lat="43.54132" lon="1.097">
        <ele>279</ele>
        <time>2024-05-20T08:55:15Z</time>
      </trkpt>
      <trkpt lat="43.54127" lon="1.09699">
        <ele>279.2</ele>
        <time>2024-05-20T08:55:16Z</time>
      </trkpt>
      <trkpt lat="43.54122" lon="1.09699">
        <ele>279.4</ele>
        <time>2024-05-20T08:55:17Z</time>
      </trkpt>
      <trkpt lat="43.54117" lon="1.09699">
        <ele>279.8</ele>
        <time>2024-05-20T08:55:18Z</time>
      </trkpt>
      <trkpt lat="43.54113" lon="1.09698">
        <ele>279.8</ele>
        <time>2024-05-20T08:55:19Z</time>
      </trkpt>
      <trkpt lat="43.54108" lon="1.09698">
        <ele>280.2</ele>
        <time>2024-05-20T08:55:20Z</time>
      </trkpt>
      <trkpt lat="43.54103" lon="1.09698">
        <ele>280.4</ele>
        <time>2024-05-20T08:55:21Z</time>
      </trkpt>
      <trkpt lat="43.541" lon="1.09697">
        <ele>281</ele>
        <time>2024-05-20T08:55:22Z</time>
      </trkpt>
      <trkpt lat="43.54094" lon="1.09697">
        <ele>281.2</ele>
        <time>2024-05-20T08:55:23Z</time>
      </trkpt>
      <trkpt lat="43.54089" lon="1.09696">
        <ele>281.6</ele>
        <time>2024-05-20T08:55:24Z</time>
      </trkpt>
      <trkpt lat="43.54085" lon="1.09696">
        <ele>281.8</ele>
        <time>2024-05-20T08:55:25Z</time>
      </trkpt>
      <trkpt lat="43.54081" lon="1.09696">
        <ele>281.8</ele>
        <time>2024-05-20T08:55:26Z</time>
      </trkpt>
      <trkpt lat="43.54075" lon="1.09696">
        <ele>282</ele>
        <time>2024-05-20T08:55:27Z</time>
      </trkpt>
      <trkpt lat="43.54071" lon="1.09695">
        <ele>282.2</ele>
        <time>2024-05-20T08:55:28Z</time>
      </trkpt>
      <trkpt lat="43.54066" lon="1.09695">
        <ele>282.6</ele>
        <time>2024-05-20T08:55:29Z</time>
      </trkpt>
      <trkpt lat="43.54061" lon="1.09695">
        <ele>282.8</ele>
        <time>2024-05-20T08:55:30Z</time>
      </trkpt>
      <trkpt lat="43.54057" lon="1.09694">
        <ele>283.4</ele>
        <time>2024-05-20T08:55:31Z</time>
      </trkpt>
      <trkpt lat="43.54052" lon="1.09693">
        <ele>283.6</ele>
        <time>2024-05-20T08:55:32Z</time>
      </trkpt>
      <trkpt lat="43.54047" lon="1.09692">
        <ele>283.8</ele>
        <time>2024-05-20T08:55:33Z</time>
      </trkpt>
      <trkpt lat="43.54043" lon="1.09691">
        <ele>284.2</ele>
        <time>2024-05-20T08:55:34Z</time>
      </trkpt>
      <trkpt lat="43.54039" lon="1.0969">
        <ele>284.4</ele>
        <time>2024-05-20T08:55:35Z</time>
      </trkpt>
      <trkpt lat="43.54035" lon="1.09689">
        <ele>284.4</ele>
        <time>2024-05-20T08:55:36Z</time>
      </trkpt>
      <trkpt lat="43.54029" lon="1.09688">
        <ele>284.6</ele>
        <time>2024-05-20T08:55:37Z</time>
      </trkpt>
      <trkpt lat="43.54025" lon="1.09687">
        <ele>285.2</ele>
        <time>2024-05-20T08:55:38Z</time>
      </trkpt>
      <trkpt lat="43.54021" lon="1.09685">
        <ele>285.4</ele>
        <time>2024-05-20T08:55:39Z</time>
      </trkpt>
      <trkpt lat="43.54017" lon="1.09684">
        <ele>285.6</ele>
        <time>2024-05-20T08:55:40Z</time>
      </trkpt>
      <trkpt lat="43.54012" lon="1.09682">
        <ele>286</ele>
        <time>2024-05-20T08:55:41Z</time>
      </trkpt>
      <trkpt lat="43.54007" lon="1.0968">
        <ele>286.2</ele>
        <time>2024-05-20T08:55:42Z</time>
      </trkpt>
      <trkpt lat="43.54002" lon="1.09679">
        <ele>286.4</ele>
        <time>2024-05-20T08:55:43Z</time>
      </trkpt>
      <trkpt lat="43.53998" lon="1.09676">
        <ele>286.6</ele>
        <time>2024-05-20T08:55:44Z</time>
      </trkpt>
      <trkpt lat="43.53992" lon="1.09674">
        <ele>286.8</ele>
        <time>2024-05-20T08:55:45Z</time>
      </trkpt>
      <trkpt lat="43.53987" lon="1.09672">
        <ele>287</ele>
        <time>2024-05-20T08:55:46Z</time>
      </trkpt>
      <trkpt lat="43.53982" lon="1.0967">
        <ele>287</ele>
        <time>2024-05-20T08:55:47Z</time>
      </trkpt>
      <trkpt lat="43.53977" lon="1.09668">
        <ele>287.2</ele>
        <time>2024-05-20T08:55:48Z</time>
      </trkpt>
      <trkpt lat="43.53973" lon="1.09667">
        <ele>287.6</ele>
        <time>2024-05-20T08:55:49Z</time>
      </trkpt>
      <trkpt lat="43.53967" lon="1.09665">
        <ele>287.8</ele>
        <time>2024-05-20T08:55:50Z</time>
      </trkpt>
      <trkpt lat="43.53962" lon="1.09663">
        <ele>288</ele>
        <time>2024-05-20T08:55:51Z</time>
      </trkpt>
      <trkpt lat="43.53957" lon="1.09661">
        <ele>288.2</ele>
        <time>2024-05-20T08:55:52Z</time>
      </trkpt>
      <trkpt lat="43.53952" lon="1.09659">
        <ele>288.4</ele>
        <time>2024-05-20T08:55:53Z</time>
      </trkpt>
      <trkpt lat="43.53947" lon="1.09657">
        <ele>288.4</ele>
        <time>2024-05-20T08:55:54Z</time>
      </trkpt>
      <trkpt lat="43.53941" lon="1.09656">
        <ele>288.4</ele>
        <time>2024-05-20T08:55:55Z</time>
      </trkpt>
      <trkpt lat="43.53936" lon="1.09654">
        <ele>288.4</ele>
        <time>2024-05-20T08:55:56Z</time>
      </trkpt>
      <trkpt lat="43.5393" lon="1.09651">
        <ele>288.6</ele>
        <time>2024-05-20T08:55:57Z</time>
      </trkpt>
      <trkpt lat="43.53926" lon="1.09649">
        <ele>288.6</ele>
        <time>2024-05-20T08:55:58Z</time>
      </trkpt>
      <trkpt lat="43.5392" lon="1.09647">
        <ele>288.6</ele>
        <time>2024-05-20T08:55:59Z</time>
      </trkpt>
      <trkpt lat="43.53914" lon="1.09643">
        <ele>288.6</ele>
        <time>2024-05-20T08:56:00Z</time>
      </trkpt>
      <trkpt lat="43.53909" lon="1.09641">
        <ele>288.8</ele>
        <time>2024-05-20T08:56:01Z</time>
      </trkpt>
      <trkpt lat="43.53904" lon="1.09638">
        <ele>288.8</ele>
        <time>2024-05-20T08:56:02Z</time>
      </trkpt>
      <trkpt lat="43.53899" lon="1.09636">
        <ele>288.8</ele>
        <time>2024-05-20T08:56:03Z</time>
      </trkpt>
      <trkpt lat="43.53895" lon="1.09635">
        <ele>288.8</ele>
        <time>2024-05-20T08:56:04Z</time>
      </trkpt>
      <trkpt lat="43.53889" lon="1.09632">
        <ele>289</ele>
        <time>2024-05-20T08:56:05Z</time>
      </trkpt>
      <trkpt lat="43.53884" lon="1.09631">
        <ele>289</ele>
        <time>2024-05-20T08:56:06Z</time>
      </trkpt>
      <trkpt lat="43.5388" lon="1.09629">
        <ele>289.2</ele>
        <time>2024-05-20T08:56:07Z</time>
      </trkpt>
      <trkpt lat="43.53875" lon="1.09627">
        <ele>289.2</ele>
        <time>2024-05-20T08:56:08Z</time>
      </trkpt>
      <trkpt lat="43.5387" lon="1.09625">
        <ele>289.4</ele>
        <time>2024-05-20T08:56:09Z</time>
      </trkpt>
      <trkpt lat="43.53866" lon="1.09623">
        <ele>289.6</ele>
        <time>2024-05-20T08:56:10Z</time>
      </trkpt>
      <trkpt lat="43.53861" lon="1.09622">
        <ele>289.8</ele>
        <time>2024-05-20T08:56:11Z</time>
      </trkpt>
      <trkpt lat="43.53857" lon="1.09619">
        <ele>290</ele>
        <time>2024-05-20T08:56:12Z</time>
      </trkpt>
      <trkpt lat="43.53853" lon="1.09617">
        <ele>290.2</ele>
        <time>2024-05-20T08:56:13Z</time>
      </trkpt>
      <trkpt lat="43.53848" lon="1.09614">
        <ele>290.4</ele>
        <time>2024-05-20T08:56:14Z</time>
      </trkpt>
      <trkpt lat="43.53844" lon="1.0961">
        <ele>290.6</ele>
        <time>2024-05-20T08:56:15Z</time>
      </trkpt>
      <trkpt lat="43.5384" lon="1.09607">
        <ele>290.8</ele>
        <time>2024-05-20T08:56:16Z</time>
      </trkpt>
      <trkpt lat="43.53837" lon="1.09603">
        <ele>291</ele>
        <time>2024-05-20T08:56:17Z</time>
      </trkpt>
      <trkpt lat="43.53832" lon="1.09598">
        <ele>291.2</ele>
        <time>2024-05-20T08:56:18Z</time>
      </trkpt>
      <trkpt lat="43.53828" lon="1.09595">
        <ele>291.4</ele>
        <time>2024-05-20T08:56:19Z</time>
      </trkpt>
      <trkpt lat="43.53824" lon="1.09591">
        <ele>291.6</ele>
        <time>2024-05-20T08:56:20Z</time>
      </trkpt>
      <trkpt lat="43.53821" lon="1.09587">
        <ele>292</ele>
        <time>2024-05-20T08:56:21Z</time>
      </trkpt>
      <trkpt lat="43.53818" lon="1.09584">
        <ele>292.4</ele>
        <time>2024-05-20T08:56:22Z</time>
      </trkpt>
      <trkpt lat="43.53813" lon="1.09579">
        <ele>292.4</ele>
        <time>2024-05-20T08:56:23Z</time>
      </trkpt>
      <trkpt lat="43.5381" lon="1.09574">
        <ele>292.8</ele>
        <time>2024-05-20T08:56:24Z</time>
      </trkpt>
      <trkpt lat="43.53807" lon="1.09569">
        <ele>293</ele>
        <time>2024-05-20T08:56:25Z</time>
      </trkpt>
      <trkpt lat="43.53804" lon="1.09564">
        <ele>293.2</ele>
        <time>2024-05-20T08:56:26Z</time>
      </trkpt>
      <trkpt lat="43.53801" lon="1.0956">
        <ele>293.6</ele>
        <time>2024-05-20T08:56:27Z</time>
      </trkpt>
      <trkpt lat="43.53797" lon="1.09556">
        <ele>293.6</ele>
        <time>2024-05-20T08:56:28Z</time>
      </trkpt>
      <trkpt lat="43.53793" lon="1.09552">
        <ele>294</ele>
        <time>2024-05-20T08:56:29Z</time>
      </trkpt>
      <trkpt lat="43.5379" lon="1.09547">
        <ele>294.2</ele>
        <time>2024-05-20T08:56:30Z</time>
      </trkpt>
      <trkpt lat="43.53787" lon="1.09543">
        <ele>294.6</ele>
        <time>2024-05-20T08:56:31Z</time>
      </trkpt>
      <trkpt lat="43.53783" lon="1.09538">
        <ele>294.8</ele>
        <time>2024-05-20T08:56:32Z</time>
      </trkpt>
      <trkpt lat="43.5378" lon="1.09533">
        <ele>295</ele>
        <time>2024-05-20T08:56:33Z</time>
      </trkpt>
      <trkpt lat="43.53776" lon="1.09527">
        <ele>295.2</ele>
        <time>2024-05-20T08:56:34Z</time>
      </trkpt>
      <trkpt lat="43.53772" lon="1.09522">
        <ele>295.2</ele>
        <time>2024-05-20T08:56:35Z</time>
      </trkpt>
      <trkpt lat="43.53769" lon="1.09516">
        <ele>295.6</ele>
        <time>2024-05-20T08:56:36Z</time>
      </trkpt>
      <trkpt lat="43.53764" lon="1.09511">
        <ele>295.8</ele>
        <time>2024-05-20T08:56:37Z</time>
      </trkpt>
      <trkpt lat="43.5376" lon="1.09505">
        <ele>296.2</ele>
        <time>2024-05-20T08:56:38Z</time>
      </trkpt>
      <trkpt lat="43.53755" lon="1.09499">
        <ele>296.4</ele>
        <time>2024-05-20T08:56:39Z</time>
      </trkpt>
      <trkpt lat="43.53752" lon="1.09494">
        <ele>296.6</ele>
        <time>2024-05-20T08:56:40Z</time>
      </trkpt>
      <trkpt lat="43.53747" lon="1.09487">
        <ele>296.8</ele>
        <time>2024-05-20T08:56:41Z</time>
      </trkpt>
      <trkpt lat="43.53742" lon="1.0948">
        <ele>296.8</ele>
        <time>2024-05-20T08:56:42Z</time>
      </trkpt>
      <trkpt lat="43.53738" lon="1.09473">
        <ele>297.2</ele>
        <time>2024-05-20T08:56:43Z</time>
      </trkpt>
      <trkpt lat="43.53734" lon="1.09467">
        <ele>297.4</ele>
        <time>2024-05-20T08:56:44Z</time>
      </trkpt>
      <trkpt lat="43.5373" lon="1.0946">
        <ele>297.6</ele>
        <time>2024-05-20T08:56:45Z</time>
      </trkpt>
      <trkpt lat="43.53726" lon="1.09454">
        <ele>297.6</ele>
        <time>2024-05-20T08:56:46Z</time>
      </trkpt>
      <trkpt lat="43.53721" lon="1.09448">
        <ele>297.8</ele>
        <time>2024-05-20T08:56:47Z</time>
      </trkpt>
      <trkpt lat="43.53717" lon="1.09442">
        <ele>297.8</ele>
        <time>2024-05-20T08:56:48Z</time>
      </trkpt>
      <trkpt lat="43.53713" lon="1.09437">
        <ele>297.8</ele>
        <time>2024-05-20T08:56:49Z</time>
      </trkpt>
      <trkpt lat="43.53708" lon="1.0943">
        <ele>298</ele>
        <time>2024-05-20T08:56:50Z</time>
      </trkpt>
      <trkpt lat="43.53703" lon="1.09422">
        <ele>298</ele>
        <time>2024-05-20T08:56:51Z</time>
      </trkpt>
      <trkpt lat="43.53698" lon="1.09415">
        <ele>298</ele>
        <time>2024-05-20T08:56:52Z</time>
      </trkpt>
      <trkpt lat="43.53693" lon="1.09408">
        <ele>298.2</ele>
        <time>2024-05-20T08:56:53Z</time>
      </trkpt>
      <trkpt lat="43.53688" lon="1.09402">
        <ele>298.4</ele>
        <time>2024-05-20T08:56:54Z</time>
      </trkpt>
      <trkpt lat="43.53683" lon="1.09395">
        <ele>298.6</ele>
        <time>2024-05-20T08:56:55Z</time>
      </trkpt>
      <trkpt lat="43.53679" lon="1.09389">
        <ele>298.6</ele>
        <time>2024-05-20T08:56:56Z</time>
      </trkpt>
      <trkpt lat="43.53674" lon="1.09382">
        <ele>299</ele>
        <time>2024-05-20T08:56:57Z</time>
      </trkpt>
      <trkpt lat="43.53669" lon="1.09376">
        <ele>299</ele>
        <time>2024-05-20T08:56:58Z</time>
      </trkpt>
      <trkpt lat="43.53665" lon="1.0937">
        <ele>299.2</ele>
        <time>2024-05-20T08:56:59Z</time>
      </trkpt>
      <trkpt lat="43.5366" lon="1.09362">
        <ele>299.2</ele>
        <time>2024-05-20T08:57:00Z</time>
      </trkpt>
      <trkpt lat="43.53655" lon="1.09355">
        <ele>299.4</ele>
        <time>2024-05-20T08:57:01Z</time>
      </trkpt>
      <trkpt lat="43.5365" lon="1.09348">
        <ele>299.4</ele>
        <time>2024-05-20T08:57:02Z</time>
      </trkpt>
      <trkpt lat="43.53646" lon="1.09341">
        <ele>299.4</ele>
        <time>2024-05-20T08:57:03Z</time>
      </trkpt>
      <trkpt lat="43.53641" lon="1.09333">
        <ele>299.4</ele>
        <time>2024-05-20T08:57:04Z</time>
      </trkpt>
      <trkpt lat="43.53637" lon="1.09325">
        <ele>299.4</ele>
        <time>2024-05-20T08:57:05Z</time>
      </trkpt>
      <trkpt lat="43.53633" lon="1.09317">
        <ele>299.4</ele>
        <time>2024-05-20T08:57:06Z</time>
      </trkpt>
      <trkpt lat="43.53629" lon="1.09309">
        <ele>299.4</ele>
        <time>2024-05-20T08:57:07Z</time>
      </trkpt>
      <trkpt lat="43.53626" lon="1.09303">
        <ele>299.4</ele>
        <time>2024-05-20T08:57:08Z</time>
      </trkpt>
      <trkpt lat="43.5362" lon="1.09293">
        <ele>299.4</ele>
        <time>2024-05-20T08:57:09Z</time>
      </trkpt>
      <trkpt lat="43.53616" lon="1.09285">
        <ele>299.4</ele>
        <time>2024-05-20T08:57:10Z</time>
      </trkpt>
      <trkpt lat="43.53612" lon="1.09276">
        <ele>299.4</ele>
        <time>2024-05-20T08:57:11Z</time>
      </trkpt>
      <trkpt lat="43.53608" lon="1.09268">
        <ele>299.4</ele>
        <time>2024-05-20T08:57:12Z</time>
      </trkpt>
      <trkpt lat="43.53604" lon="1.0926">
        <ele>299.4</ele>
        <time>2024-05-20T08:57:13Z</time>
      </trkpt>
      <trkpt lat="43.536" lon="1.09251">
        <ele>299.4</ele>
        <time>2024-05-20T08:57:14Z</time>
      </trkpt>
      <trkpt lat="43.53595" lon="1.09241">
        <ele>299.4</ele>
        <time>2024-05-20T08:57:15Z</time>
      </trkpt>
      <trkpt lat="43.5359" lon="1.09232">
        <ele>299.4</ele>
        <time>2024-05-20T08:57:16Z</time>
      </trkpt>
      <trkpt lat="43.53586" lon="1.09223">
        <ele>299.6</ele>
        <time>2024-05-20T08:57:17Z</time>
      </trkpt>
      <trkpt lat="43.53582" lon="1.09214">
        <ele>299.6</ele>
        <time>2024-05-20T08:57:18Z</time>
      </trkpt>
      <trkpt lat="43.53579" lon="1.09205">
        <ele>299.8</ele>
        <time>2024-05-20T08:57:19Z</time>
      </trkpt>
      <trkpt lat="43.53576" lon="1.09196">
        <ele>299.8</ele>
        <time>2024-05-20T08:57:20Z</time>
      </trkpt>
      <trkpt lat="43.53573" lon="1.09189">
        <ele>300</ele>
        <time>2024-05-20T08:57:21Z</time>
      </trkpt>
      <trkpt lat="43.5357" lon="1.09181">
        <ele>300.4</ele>
        <time>2024-05-20T08:57:22Z</time>
      </trkpt>
      <trkpt lat="43.53567" lon="1.09171">
        <ele>300.6</ele>
        <time>2024-05-20T08:57:23Z</time>
      </trkpt>
      <trkpt lat="43.53564" lon="1.09163">
        <ele>301</ele>
        <time>2024-05-20T08:57:24Z</time>
      </trkpt>
      <trkpt lat="43.53561" lon="1.09156">
        <ele>301.2</ele>
        <time>2024-05-20T08:57:25Z</time>
      </trkpt>
      <trkpt lat="43.53559" lon="1.09148">
        <ele>301.4</ele>
        <time>2024-05-20T08:57:26Z</time>
      </trkpt>
      <trkpt lat="43.53556" lon="1.09142">
        <ele>301.4</ele>
        <time>2024-05-20T08:57:27Z</time>
      </trkpt>
      <trkpt lat="43.53553" lon="1.09134">
        <ele>301.6</ele>
        <time>2024-05-20T08:57:28Z</time>
      </trkpt>
      <trkpt lat="43.5355" lon="1.09126">
        <ele>301.6</ele>
        <time>2024-05-20T08:57:29Z</time>
      </trkpt>
      <trkpt lat="43.53547" lon="1.09119">
        <ele>301.6</ele>
        <time>2024-05-20T08:57:30Z</time>
      </trkpt>
      <trkpt lat="43.53544" lon="1.09112">
        <ele>301.6</ele>
        <time>2024-05-20T08:57:31Z</time>
      </trkpt>
      <trkpt lat="43.53541" lon="1.09104">
        <ele>301.8</ele>
        <time>2024-05-20T08:57:32Z</time>
      </trkpt>
      <trkpt lat="43.53539" lon="1.09097">
        <ele>302</ele>
        <time>2024-05-20T08:57:33Z</time>
      </trkpt>
      <trkpt lat="43.53536" lon="1.09089">
        <ele>302.2</ele>
        <time>2024-05-20T08:57:34Z</time>
      </trkpt>
      <trkpt lat="43.53533" lon="1.09082">
        <ele>302.4</ele>
        <time>2024-05-20T08:57:35Z</time>
      </trkpt>
      <trkpt lat="43.5353" lon="1.09074">
        <ele>302.8</ele>
        <time>2024-05-20T08:57:36Z</time>
      </trkpt>
      <trkpt lat="43.53527" lon="1.09068">
        <ele>303</ele>
        <time>2024-05-20T08:57:37Z</time>
      </trkpt>
      <trkpt lat="43.53524" lon="1.09059">
        <ele>303.4</ele>
        <time>2024-05-20T08:57:38Z</time>
      </trkpt>
      <trkpt lat="43.53521" lon="1.09052">
        <ele>303.6</ele>
        <time>2024-05-20T08:57:39Z</time>
      </trkpt>
      <trkpt lat="43.53518" lon="1.09044">
        <ele>304</ele>
        <time>2024-05-20T08:57:40Z</time>
      </trkpt>
      <trkpt lat="43.53515" lon="1.09036">
        <ele>304.2</ele>
        <time>2024-05-20T08:57:41Z</time>
      </trkpt>
      <trkpt lat="43.53512" lon="1.09029">
        <ele>304.4</ele>
        <time>2024-05-20T08:57:42Z</time>
      </trkpt>
      <trkpt lat="43.53508" lon="1.09021">
        <ele>304.4</ele>
        <time>2024-05-20T08:57:43Z</time>
      </trkpt>
      <trkpt lat="43.53505" lon="1.09013">
        <ele>304.4</ele>
        <time>2024-05-20T08:57:44Z</time>
      </trkpt>
      <trkpt lat="43.53501" lon="1.09004">
        <ele>304.4</ele>
        <time>2024-05-20T08:57:45Z</time>
      </trkpt>
      <trkpt lat="43.53497" lon="1.08996">
        <ele>304.4</ele>
        <time>2024-05-20T08:57:46Z</time>
      </trkpt>
      <trkpt lat="43.53494" lon="1.08987">
        <ele>304.4</ele>
        <time>2024-05-20T08:57:47Z</time>
      </trkpt>
      <trkpt lat="43.5349" lon="1.08978">
        <ele>304.4</ele>
        <time>2024-05-20T08:57:48Z</time>
      </trkpt>
      <trkpt lat="43.53485" lon="1.0897">
        <ele>304.4</ele>
        <time>2024-05-20T08:57:49Z</time>
      </trkpt>
      <trkpt lat="43.53482" lon="1.08963">
        <ele>304.2</ele>
        <time>2024-05-20T08:57:50Z</time>
      </trkpt>
      <trkpt lat="43.53477" lon="1.08953">
        <ele>304.2</ele>
        <time>2024-05-20T08:57:51Z</time>
      </trkpt>
      <trkpt lat="43.53472" lon="1.08945">
        <ele>304.2</ele>
        <time>2024-05-20T08:57:52Z</time>
      </trkpt>
      <trkpt lat="43.53468" lon="1.08937">
        <ele>304</ele>
        <time>2024-05-20T08:57:53Z</time>
      </trkpt>
      <trkpt lat="43.53463" lon="1.08928">
        <ele>304</ele>
        <time>2024-05-20T08:57:54Z</time>
      </trkpt>
      <trkpt lat="43.53459" lon="1.0892">
        <ele>304</ele>
        <time>2024-05-20T08:57:55Z</time>
      </trkpt>
      <trkpt lat="43.53454" lon="1.08912">
        <ele>303.8</ele>
        <time>2024-05-20T08:57:56Z</time>
      </trkpt>
      <trkpt lat="43.53448" lon="1.08904">
        <ele>303.8</ele>
        <time>2024-05-20T08:57:57Z</time>
      </trkpt>
      <trkpt lat="43.53443" lon="1.08895">
        <ele>303.8</ele>
        <time>2024-05-20T08:57:58Z</time>
      </trkpt>
      <trkpt lat="43.53438" lon="1.08886">
        <ele>303.8</ele>
        <time>2024-05-20T08:57:59Z</time>
      </trkpt>
      <trkpt lat="43.53433" lon="1.08877">
        <ele>303.8</ele>
        <time>2024-05-20T08:58:00Z</time>
      </trkpt>
      <trkpt lat="43.53427" lon="1.08869">
        <ele>303.6</ele>
        <time>2024-05-20T08:58:01Z</time>
      </trkpt>
      <trkpt lat="43.53422" lon="1.0886">
        <ele>303.6</ele>
        <time>2024-05-20T08:58:02Z</time>
      </trkpt>
      <trkpt lat="43.53418" lon="1.08852">
        <ele>303.6</ele>
        <time>2024-05-20T08:58:03Z</time>
      </trkpt>
      <trkpt lat="43.53412" lon="1.08843">
        <ele>303.4</ele>
        <time>2024-05-20T08:58:04Z</time>
      </trkpt>
      <trkpt lat="43.53405" lon="1.08833">
        <ele>303.4</ele>
        <time>2024-05-20T08:58:05Z</time>
      </trkpt>
      <trkpt lat="43.53399" lon="1.08824">
        <ele>303.2</ele>
        <time>2024-05-20T08:58:06Z</time>
      </trkpt>
      <trkpt lat="43.53394" lon="1.08815">
        <ele>303</ele>
        <time>2024-05-20T08:58:07Z</time>
      </trkpt>
      <trkpt lat="43.53389" lon="1.08809">
        <ele>302.6</ele>
        <time>2024-05-20T08:58:08Z</time>
      </trkpt>
      <trkpt lat="43.53384" lon="1.08802">
        <ele>302.6</ele>
        <time>2024-05-20T08:58:09Z</time>
      </trkpt>
      <trkpt lat="43.53376" lon="1.08793">
        <ele>302.2</ele>
        <time>2024-05-20T08:58:10Z</time>
      </trkpt>
      <trkpt lat="43.5337" lon="1.08786">
        <ele>302</ele>
        <time>2024-05-20T08:58:11Z</time>
      </trkpt>
      <trkpt lat="43.53363" lon="1.0878">
        <ele>301.6</ele>
        <time>2024-05-20T08:58:12Z</time>
      </trkpt>
      <trkpt lat="43.53357" lon="1.08774">
        <ele>301.4</ele>
        <time>2024-05-20T08:58:13Z</time>
      </trkpt>
      <trkpt lat="43.5335" lon="1.08768">
        <ele>301.2</ele>
        <time>2024-05-20T08:58:14Z</time>
      </trkpt>
      <trkpt lat="43.53343" lon="1.08763">
        <ele>301</ele>
        <time>2024-05-20T08:58:15Z</time>
      </trkpt>
      <trkpt lat="43.53337" lon="1.08757">
        <ele>300.8</ele>
        <time>2024-05-20T08:58:16Z</time>
      </trkpt>
      <trkpt lat="43.53329" lon="1.08752">
        <ele>300.8</ele>
        <time>2024-05-20T08:58:17Z</time>
      </trkpt>
      <trkpt lat="43.53323" lon="1.08751">
        <ele>300.8</ele>
        <time>2024-05-20T08:58:18Z</time>
      </trkpt>
      <trkpt lat="43.53315" lon="1.08751">
        <ele>300.8</ele>
        <time>2024-05-20T08:58:19Z</time>
      </trkpt>
      <trkpt lat="43.53306" lon="1.08749">
        <ele>300.8</ele>
        <time>2024-05-20T08:58:20Z</time>
      </trkpt>
      <trkpt lat="43.53299" lon="1.08747">
        <ele>300.8</ele>
        <time>2024-05-20T08:58:21Z</time>
      </trkpt>
      <trkpt lat="43.53292" lon="1.08745">
        <ele>301</ele>
        <time>2024-05-20T08:58:22Z</time>
      </trkpt>
      <trkpt lat="43.53286" lon="1.08742">
        <ele>301</ele>
        <time>2024-05-20T08:58:23Z</time>
      </trkpt>
      <trkpt lat="43.53279" lon="1.08739">
        <ele>301.2</ele>
        <time>2024-05-20T08:58:24Z</time>
      </trkpt>
      <trkpt lat="43.53273" lon="1.08736">
        <ele>301.4</ele>
        <time>2024-05-20T08:58:25Z</time>
      </trkpt>
      <trkpt lat="43.53266" lon="1.08734">
        <ele>301.8</ele>
        <time>2024-05-20T08:58:26Z</time>
      </trkpt>
      <trkpt lat="43.53262" lon="1.08731">
        <ele>302.2</ele>
        <time>2024-05-20T08:58:27Z</time>
      </trkpt>
      <trkpt lat="43.53256" lon="1.08729">
        <ele>302.6</ele>
        <time>2024-05-20T08:58:28Z</time>
      </trkpt>
      <trkpt lat="43.5325" lon="1.08727">
        <ele>303</ele>
        <time>2024-05-20T08:58:29Z</time>
      </trkpt>
      <trkpt lat="43.53245" lon="1.08727">
        <ele>303.4</ele>
        <time>2024-05-20T08:58:30Z</time>
      </trkpt>
      <trkpt lat="43.53239" lon="1.08727">
        <ele>304</ele>
        <time>2024-05-20T08:58:31Z</time>
      </trkpt>
      <trkpt lat="43.53233" lon="1.08727">
        <ele>304.4</ele>
        <time>2024-05-20T08:58:32Z</time>
      </trkpt>
      <trkpt lat="43.53228" lon="1.08729">
        <ele>305</ele>
        <time>2024-05-20T08:58:33Z</time>
      </trkpt>
      <trkpt lat="43.53223" lon="1.08731">
        <ele>305.6</ele>
        <time>2024-05-20T08:58:34Z</time>
      </trkpt>
      <trkpt lat="43.53219" lon="1.08734">
        <ele>306.2</ele>
        <time>2024-05-20T08:58:35Z</time>
      </trkpt>
      <trkpt lat="43.53214" lon="1.08736">
        <ele>306.8</ele>
        <time>2024-05-20T08:58:36Z</time>
      </trkpt>
      <trkpt lat="43.53211" lon="1.08738">
        <ele>307.2</ele>
        <time>2024-05-20T08:58:37Z</time>
      </trkpt>
      <trkpt lat="43.53205" lon="1.08741">
        <ele>307.6</ele>
        <time>2024-05-20T08:58:38Z</time>
      </trkpt>
      <trkpt lat="43.53201" lon="1.08743">
        <ele>307.8</ele>
        <time>2024-05-20T08:58:39Z</time>
      </trkpt>
      <trkpt lat="43.53197" lon="1.08745">
        <ele>308.4</ele>
        <time>2024-05-20T08:58:40Z</time>
      </trkpt>
      <trkpt lat="43.53193" lon="1.08746">
        <ele>308.6</ele>
        <time>2024-05-20T08:58:41Z</time>
      </trkpt>
      <trkpt lat="43.53188" lon="1.08749">
        <ele>309.2</ele>
        <time>2024-05-20T08:58:42Z</time>
      </trkpt>
      <trkpt lat="43.53184" lon="1.08751">
        <ele>309.6</ele>
        <time>2024-05-20T08:58:43Z</time>
      </trkpt>
      <trkpt lat="43.5318" lon="1.08754">
        <ele>309.6</ele>
        <time>2024-05-20T08:58:44Z</time>
      </trkpt>
      <trkpt lat="43.53175" lon="1.08756">
        <ele>310</ele>
        <time>2024-05-20T08:58:45Z</time>
      </trkpt>
      <trkpt lat="43.53171" lon="1.08759">
        <ele>310</ele>
        <time>2024-05-20T08:58:46Z</time>
      </trkpt>
      <trkpt lat="43.53167" lon="1.08761">
        <ele>310.6</ele>
        <time>2024-05-20T08:58:47Z</time>
      </trkpt>
      <trkpt lat="43.53162" lon="1.08762">
        <ele>310.8</ele>
        <time>2024-05-20T08:58:48Z</time>
      </trkpt>
      <trkpt lat="43.53157" lon="1.08764">
        <ele>311.6</ele>
        <time>2024-05-20T08:58:49Z</time>
      </trkpt>
      <trkpt lat="43.53152" lon="1.08766">
        <ele>311.8</ele>
        <time>2024-05-20T08:58:50Z</time>
      </trkpt>
      <trkpt lat="43.53149" lon="1.08767">
        <ele>312.2</ele>
        <time>2024-05-20T08:58:51Z</time>
      </trkpt>
      <trkpt lat="43.53145" lon="1.08768">
        <ele>312.6</ele>
        <time>2024-05-20T08:58:52Z</time>
      </trkpt>
      <trkpt lat="43.5314" lon="1.08769">
        <ele>312.8</ele>
        <time>2024-05-20T08:58:53Z</time>
      </trkpt>
      <trkpt lat="43.53136" lon="1.0877">
        <ele>313.2</ele>
        <time>2024-05-20T08:58:54Z</time>
      </trkpt>
      <trkpt lat="43.53132" lon="1.08771">
        <ele>313.6</ele>
        <time>2024-05-20T08:58:55Z</time>
      </trkpt>
      <trkpt lat="43.53129" lon="1.08771">
        <ele>314</ele>
        <time>2024-05-20T08:58:56Z</time>
      </trkpt>
      <trkpt lat="43.53125" lon="1.08772">
        <ele>314.4</ele>
        <time>2024-05-20T08:58:57Z</time>
      </trkpt>
      <trkpt lat="43.53121" lon="1.08773">
        <ele>314.8</ele>
        <time>2024-05-20T08:58:58Z</time>
      </trkpt>
      <trkpt lat="43.53117" lon="1.08774">
        <ele>315.4</ele>
        <time>2024-05-20T08:58:59Z</time>
      </trkpt>
      <trkpt lat="43.53113" lon="1.08775">
        <ele>315.6</ele>
        <time>2024-05-20T08:59:00Z</time>
      </trkpt>
      <trkpt lat="43.5311" lon="1.08775">
        <ele>316.2</ele>
        <time>2024-05-20T08:59:01Z</time>
      </trkpt>
      <trkpt lat="43.53106" lon="1.08776">
        <ele>316.4</ele>
        <time>2024-05-20T08:59:02Z</time>
      </trkpt>
      <trkpt lat="43.53102" lon="1.08777">
        <ele>316.8</ele>
        <time>2024-05-20T08:59:03Z</time>
      </trkpt>
      <trkpt lat="43.53099" lon="1.08778">
        <ele>317</ele>
        <time>2024-05-20T08:59:04Z</time>
      </trkpt>
      <trkpt lat="43.53095" lon="1.08779">
        <ele>317.2</ele>
        <time>2024-05-20T08:59:05Z</time>
      </trkpt>
      <trkpt lat="43.53092" lon="1.08779">
        <ele>317.4</ele>
        <time>2024-05-20T08:59:06Z</time>
      </trkpt>
      <trkpt lat="43.53088" lon="1.0878">
        <ele>317.6</ele>
        <time>2024-05-20T08:59:07Z</time>
      </trkpt>
      <trkpt lat="43.53085" lon="1.0878">
        <ele>317.8</ele>
        <time>2024-05-20T08:59:08Z</time>
      </trkpt>
      <trkpt lat="43.53082" lon="1.08781">
        <ele>318.2</ele>
        <time>2024-05-20T08:59:09Z</time>
      </trkpt>
      <trkpt lat="43.53079" lon="1.08781">
        <ele>318.6</ele>
        <time>2024-05-20T08:59:10Z</time>
      </trkpt>
      <trkpt lat="43.53077" lon="1.08781">
        <ele>318.8</ele>
        <time>2024-05-20T08:59:11Z</time>
      </trkpt>
      <trkpt lat="43.53073" lon="1.08781">
        <ele>319</ele>
        <time>2024-05-20T08:59:12Z</time>
      </trkpt>
      <trkpt lat="43.53071" lon="1.08781">
        <ele>319.2</ele>
        <time>2024-05-20T08:59:13Z</time>
      </trkpt>
      <trkpt lat="43.53068" lon="1.0878">
        <ele>319.4</ele>
        <time>2024-05-20T08:59:14Z</time>
      </trkpt>
      <trkpt lat="43.53066" lon="1.0878">
        <ele>319.6</ele>
        <time>2024-05-20T08:59:15Z</time>
      </trkpt>
      <trkpt lat="43.53063" lon="1.08779">
        <ele>319.8</ele>
        <time>2024-05-20T08:59:16Z</time>
      </trkpt>
      <trkpt lat="43.53061" lon="1.08779">
        <ele>320</ele>
        <time>2024-05-20T08:59:17Z</time>
      </trkpt>
      <trkpt lat="43.53059" lon="1.08779">
        <ele>320.2</ele>
        <time>2024-05-20T08:59:18Z</time>
      </trkpt>
      <trkpt lat="43.53056" lon="1.08779">
        <ele>320.2</ele>
        <time>2024-05-20T08:59:19Z</time>
      </trkpt>
      <trkpt lat="43.53054" lon="1.0878">
        <ele>320.4</ele>
        <time>2024-05-20T08:59:20Z</time>
      </trkpt>
      <trkpt lat="43.53052" lon="1.0878">
        <ele>320.4</ele>
        <time>2024-05-20T08:59:21Z</time>
      </trkpt>
      <trkpt lat="43.5305" lon="1.0878">
        <ele>320.6</ele>
        <time>2024-05-20T08:59:22Z</time>
      </trkpt>
      <trkpt lat="43.53048" lon="1.0878">
        <ele>320.6</ele>
        <time>2024-05-20T08:59:23Z</time>
      </trkpt>
      <trkpt lat="43.53046" lon="1.08781">
        <ele>320.6</ele>
        <time>2024-05-20T08:59:24Z</time>
      </trkpt>
      <trkpt lat="43.53045" lon="1.08781">
        <ele>320.6</ele>
        <time>2024-05-20T08:59:25Z</time>
      </trkpt>
      <trkpt lat="43.53043" lon="1.08782">
        <ele>320.8</ele>
        <time>2024-05-20T08:59:26Z</time>
      </trkpt>
      <trkpt lat="43.53042" lon="1.08784">
        <ele>320.8</ele>
        <time>2024-05-20T08:59:27Z</time>
      </trkpt>
      <trkpt lat="43.53042" lon="1.08785">
        <ele>321</ele>
        <time>2024-05-20T08:59:28Z</time>
      </trkpt>
      <trkpt lat="43.53042" lon="1.08787">
        <ele>321</ele>
        <time>2024-05-20T08:59:29Z</time>
      </trkpt>
      <trkpt lat="43.53041" lon="1.08789">
        <ele>321.2</ele>
        <time>2024-05-20T08:59:30Z</time>
      </trkpt>
      <trkpt lat="43.53041" lon="1.0879">
        <ele>321.2</ele>
        <time>2024-05-20T08:59:31Z</time>
      </trkpt>
      <trkpt lat="43.53041" lon="1.08792">
        <ele>321.2</ele>
        <time>2024-05-20T08:59:32Z</time>
      </trkpt>
      <trkpt lat="43.53041" lon="1.08792">
        <ele>321.4</ele>
        <time>2024-05-20T08:59:33Z</time>
      </trkpt>
      <trkpt lat="43.53042" lon="1.08793">
        <ele>321.4</ele>
        <time>2024-05-20T08:59:34Z</time>
      </trkpt>
      <trkpt lat="43.53043" lon="1.08793">
        <ele>321.4</ele>
        <time>2024-05-20T08:59:35Z</time>
      </trkpt>
      <trkpt lat="43.53044" lon="1.08793">
        <ele>321.4</ele>
        <time>2024-05-20T08:59:36Z</time>
      </trkpt>
      <trkpt lat="43.53045" lon="1.08794">
        <ele>321.6</ele>
        <time>2024-05-20T08:59:37Z</time>
      </trkpt>
      <trkpt lat="43.53046" lon="1.08794">
        <ele>321.6</ele>
        <time>2024-05-20T08:59:38Z</time>
      </trkpt>
      <trkpt lat="43.53048" lon="1.08794">
        <ele>321.6</ele>
        <time>2024-05-20T08:59:39Z</time>
      </trkpt>
      <trkpt lat="43.53051" lon="1.08795">
        <ele>321.6</ele>
        <time>2024-05-20T08:59:40Z</time>
      </trkpt>
      <trkpt lat="43.53053" lon="1.08797">
        <ele>321.6</ele>
        <time>2024-05-20T08:59:41Z</time>
      </trkpt>
      <trkpt lat="43.53055" lon="1.08798">
        <ele>321.6</ele>
        <time>2024-05-20T08:59:42Z</time>
      </trkpt>
      <trkpt lat="43.53057" lon="1.08801">
        <ele>321.6</ele>
        <time>2024-05-20T08:59:43Z</time>
      </trkpt>
      <trkpt lat="43.53059" lon="1.08803">
        <ele>321.6</ele>
        <time>2024-05-20T08:59:44Z</time>
      </trkpt>
      <trkpt lat="43.53062" lon="1.08806">
        <ele>321.6</ele>
        <time>2024-05-20T08:59:45Z</time>
      </trkpt>
      <trkpt lat="43.53064" lon="1.08809">
        <ele>321.6</ele>
        <time>2024-05-20T08:59:46Z</time>
      </trkpt>
      <trkpt lat="43.53066" lon="1.08813">
        <ele>321.6</ele>
        <time>2024-05-20T08:59:47Z</time>
      </trkpt>
      <trkpt lat="43.53068" lon="1.08816">
        <ele>321.6</ele>
        <time>2024-05-20T08:59:48Z</time>
      </trkpt>
      <trkpt lat="43.5307" lon="1.08818">
        <ele>321.6</ele>
        <time>2024-05-20T08:59:49Z</time>
      </trkpt>
      <trkpt lat="43.53071" lon="1.0882">
        <ele>321.6</ele>
        <time>2024-05-20T08:59:50Z</time>
      </trkpt>
      <trkpt lat="43.53072" lon="1.08822">
        <ele>321.6</ele>
        <time>2024-05-20T08:59:51Z</time>
      </trkpt>
      <trkpt lat="43.53073" lon="1.08824">
        <ele>321.6</ele>
        <time>2024-05-20T08:59:52Z</time>
      </trkpt>
      <trkpt lat="43.53074" lon="1.08826">
        <ele>321.6</ele>
        <time>2024-05-20T08:59:53Z</time>
      </trkpt>
      <trkpt lat="43.53075" lon="1.08827">
        <ele>321.6</ele>
        <time>2024-05-20T08:59:54Z</time>
      </trkpt>
      <trkpt lat="43.53076" lon="1.08827">
        <ele>321.6</ele>
        <time>2024-05-20T08:59:55Z</time>
      </trkpt>
      <trkpt lat="43.53076" lon="1.08827">
        <ele>321.6</ele>
        <time>2024-05-20T08:59:56Z</time>
      </trkpt>
      <trkpt lat="43.53077" lon="1.08827">
        <ele>321.8</ele>
        <time>2024-05-20T08:59:57Z</time>
      </trkpt>
      <trkpt lat="43.53077" lon="1.08825">
        <ele>321.8</ele>
        <time>2024-05-20T08:59:58Z</time>
      </trkpt>
      <trkpt lat="43.53076" lon="1.08823">
        <ele>321.8</ele>
        <time>2024-05-20T08:59:59Z</time>
      </trkpt>
      <trkpt lat="43.53075" lon="1.08821">
        <ele>321.8</ele>
        <time>2024-05-20T09:00:00Z</time>
      </trkpt>
      <trkpt lat="43.53073" lon="1.08818">
        <ele>321.8</ele>
        <time>2024-05-20T09:00:01Z</time>
      </trkpt>
      <trkpt lat="43.53071" lon="1.08815">
        <ele>321.8</ele>
        <time>2024-05-20T09:00:02Z</time>
      </trkpt>
      <trkpt lat="43.53069" lon="1.08811">
        <ele>321.8</ele>
        <time>2024-05-20T09:00:03Z</time>
      </trkpt>
      <trkpt lat="43.53066" lon="1.08807">
        <ele>321.8</ele>
        <time>2024-05-20T09:00:04Z</time>
      </trkpt>
      <trkpt lat="43.53064" lon="1.08804">
        <ele>321.8</ele>
        <time>2024-05-20T09:00:05Z</time>
      </trkpt>
      <trkpt lat="43.53061" lon="1.088">
        <ele>321.8</ele>
        <time>2024-05-20T09:00:06Z</time>
      </trkpt>
      <trkpt lat="43.53058" lon="1.08797">
        <ele>321.6</ele>
        <time>2024-05-20T09:00:07Z</time>
      </trkpt>
      <trkpt lat="43.53055" lon="1.08794">
        <ele>321.6</ele>
        <time>2024-05-20T09:00:08Z</time>
      </trkpt>
      <trkpt lat="43.53052" lon="1.08791">
        <ele>321.4</ele>
        <time>2024-05-20T09:00:09Z</time>
      </trkpt>
      <trkpt lat="43.5305" lon="1.08788">
        <ele>321.4</ele>
        <time>2024-05-20T09:00:10Z</time>
      </trkpt>
      <trkpt lat="43.53046" lon="1.08784">
        <ele>321.4</ele>
        <time>2024-05-20T09:00:11Z</time>
      </trkpt>
      <trkpt lat="43.53042" lon="1.08782">
        <ele>321.2</ele>
        <time>2024-05-20T09:00:12Z</time>
      </trkpt>
      <trkpt lat="43.53038" lon="1.0878">
        <ele>321.2</ele>
        <time>2024-05-20T09:00:13Z</time>
      </trkpt>
      <trkpt lat="43.53034" lon="1.08778">
        <ele>321.2</ele>
        <time>2024-05-20T09:00:14Z</time>
      </trkpt>
      <trkpt lat="43.53031" lon="1.08776">
        <ele>321.2</ele>
        <time>2024-05-20T09:00:15Z</time>
      </trkpt>
      <trkpt lat="43.53026" lon="1.08775">
        <ele>321.2</ele>
        <time>2024-05-20T09:00:16Z</time>
      </trkpt>
      <trkpt lat="43.53022" lon="1.08773">
        <ele>321.2</ele>
        <time>2024-05-20T09:00:17Z</time>
      </trkpt>
      <trkpt lat="43.53018" lon="1.08771">
        <ele>321.2</ele>
        <time>2024-05-20T09:00:18Z</time>
      </trkpt>
      <trkpt lat="43.53014" lon="1.08769">
        <ele>321.4</ele>
        <time>2024-05-20T09:00:19Z</time>
      </trkpt>
      <trkpt lat="43.53009" lon="1.08768">
        <ele>321.4</ele>
        <time>2024-05-20T09:00:20Z</time>
      </trkpt>
      <trkpt lat="43.53005" lon="1.08766">
        <ele>321.6</ele>
        <time>2024-05-20T09:00:21Z</time>
      </trkpt>
      <trkpt lat="43.53" lon="1.08764">
        <ele>321.6</ele>
        <time>2024-05-20T09:00:22Z</time>
      </trkpt>
      <trkpt lat="43.52995" lon="1.08762">
        <ele>321.8</ele>
        <time>2024-05-20T09:00:23Z</time>
      </trkpt>
      <trkpt lat="43.52991" lon="1.0876">
        <ele>321.8</ele>
        <time>2024-05-20T09:00:24Z</time>
      </trkpt>
      <trkpt lat="43.52986" lon="1.08759">
        <ele>322</ele>
        <time>2024-05-20T09:00:25Z</time>
      </trkpt>
      <trkpt lat="43.52981" lon="1.08758">
        <ele>322</ele>
        <time>2024-05-20T09:00:26Z</time>
      </trkpt>
      <trkpt lat="43.52976" lon="1.08758">
        <ele>322.2</ele>
        <time>2024-05-20T09:00:27Z</time>
      </trkpt>
      <trkpt lat="43.5297" lon="1.08757">
        <ele>322.2</ele>
        <time>2024-05-20T09:00:28Z</time>
      </trkpt>
      <trkpt lat="43.52965" lon="1.08756">
        <ele>322.4</ele>
        <time>2024-05-20T09:00:29Z</time>
      </trkpt>
      <trkpt lat="43.52958" lon="1.08756">
        <ele>322.4</ele>
        <time>2024-05-20T09:00:30Z</time>
      </trkpt>
      <trkpt lat="43.52952" lon="1.08756">
        <ele>322.4</ele>
        <time>2024-05-20T09:00:31Z</time>
      </trkpt>
      <trkpt lat="43.52945" lon="1.08756">
        <ele>322.2</ele>
        <time>2024-05-20T09:00:32Z</time>
      </trkpt>
      <trkpt lat="43.52938" lon="1.08755">
        <ele>322.2</ele>
        <time>2024-05-20T09:00:33Z</time>
      </trkpt>
      <trkpt lat="43.52931" lon="1.08755">
        <ele>322.2</ele>
        <time>2024-05-20T09:00:34Z</time>
      </trkpt>
      <trkpt lat="43.52923" lon="1.08754">
        <ele>322.2</ele>
        <time>2024-05-20T09:00:35Z</time>
      </trkpt>
      <trkpt lat="43.52916" lon="1.08753">
        <ele>322</ele>
        <time>2024-05-20T09:00:36Z</time>
      </trkpt>
      <trkpt lat="43.52908" lon="1.08752">
        <ele>321.6</ele>
        <time>2024-05-20T09:00:37Z</time>
      </trkpt>
      <trkpt lat="43.52901" lon="1.08751">
        <ele>321.4</ele>
        <time>2024-05-20T09:00:38Z</time>
      </trkpt>
      <trkpt lat="43.52894" lon="1.08751">
        <ele>320.8</ele>
        <time>2024-05-20T09:00:39Z</time>
      </trkpt>
      <trkpt lat="43.52886" lon="1.0875">
        <ele>320.6</ele>
        <time>2024-05-20T09:00:40Z</time>
      </trkpt>
      <trkpt lat="43.52879" lon="1.08749">
        <ele>320.4</ele>
        <time>2024-05-20T09:00:41Z</time>
      </trkpt>
      <trkpt lat="43.52871" lon="1.08748">
        <ele>320.2</ele>
        <time>2024-05-20T09:00:42Z</time>
      </trkpt>
      <trkpt lat="43.52864" lon="1.08748">
        <ele>320</ele>
        <time>2024-05-20T09:00:43Z</time>
      </trkpt>
      <trkpt lat="43.52856" lon="1.08748">
        <ele>319.8</ele>
        <time>2024-05-20T09:00:44Z</time>
      </trkpt>
      <trkpt lat="43.52849" lon="1.08747">
        <ele>319.6</ele>
        <time>2024-05-20T09:00:45Z</time>
      </trkpt>
      <trkpt lat="43.52842" lon="1.08746">
        <ele>319.4</ele>
        <time>2024-05-20T09:00:46Z</time>
      </trkpt>
      <trkpt lat="43.52835" lon="1.08746">
        <ele>319.4</ele>
        <time>2024-05-20T09:00:47Z</time>
      </trkpt>
      <trkpt lat="43.52828" lon="1.08745">
        <ele>319.4</ele>
        <time>2024-05-20T09:00:48Z</time>
      </trkpt>
      <trkpt lat="43.52821" lon="1.08745">
        <ele>319.4</ele>
        <time>2024-05-20T09:00:49Z</time>
      </trkpt>
      <trkpt lat="43.52815" lon="1.08744">
        <ele>319.4</ele>
        <time>2024-05-20T09:00:50Z</time>
      </trkpt>
      <trkpt lat="43.52808" lon="1.08744">
        <ele>319.8</ele>
        <time>2024-05-20T09:00:51Z</time>
      </trkpt>
      <trkpt lat="43.52801" lon="1.08744">
        <ele>320</ele>
        <time>2024-05-20T09:00:52Z</time>
      </trkpt>
      <trkpt lat="43.52794" lon="1.08744">
        <ele>320</ele>
        <time>2024-05-20T09:00:53Z</time>
      </trkpt>
      <trkpt lat="43.52788" lon="1.08744">
        <ele>320</ele>
        <time>2024-05-20T09:00:54Z</time>
      </trkpt>
      <trkpt lat="43.5278" lon="1.08742">
        <ele>320.2</ele>
        <time>2024-05-20T09:00:55Z</time>
      </trkpt>
      <trkpt lat="43.52773" lon="1.08742">
        <ele>320.2</ele>
        <time>2024-05-20T09:00:56Z</time>
      </trkpt>
      <trkpt lat="43.52766" lon="1.08741">
        <ele>320.2</ele>
        <time>2024-05-20T09:00:57Z</time>
      </trkpt>
      <trkpt lat="43.52759" lon="1.08741">
        <ele>320.6</ele>
        <time>2024-05-20T09:00:58Z</time>
      </trkpt>
      <trkpt lat="43.52751" lon="1.0874">
        <ele>320.6</ele>
        <time>2024-05-20T09:00:59Z</time>
      </trkpt>
      <trkpt lat="43.52744" lon="1.0874">
        <ele>320.6</ele>
        <time>2024-05-20T09:01:00Z</time>
      </trkpt>
      <trkpt lat="43.52736" lon="1.08741">
        <ele>320.6</ele>
        <time>2024-05-20T09:01:01Z</time>
      </trkpt>
      <trkpt lat="43.52728" lon="1.08741">
        <ele>320.6</ele>
        <time>2024-05-20T09:01:02Z</time>
      </trkpt>
      <trkpt lat="43.5272" lon="1.08741">
        <ele>320.6</ele>
        <time>2024-05-20T09:01:03Z</time>
      </trkpt>
      <trkpt lat="43.52711" lon="1.08741">
        <ele>320.6</ele>
        <time>2024-05-20T09:01:04Z</time>
      </trkpt>
      <trkpt lat="43.52703" lon="1.0874">
        <ele>320.4</ele>
        <time>2024-05-20T09:01:05Z</time>
      </trkpt>
      <trkpt lat="43.52694" lon="1.08739">
        <ele>320.4</ele>
        <time>2024-05-20T09:01:06Z</time>
      </trkpt>
      <trkpt lat="43.52686" lon="1.08739">
        <ele>320</ele>
        <time>2024-05-20T09:01:07Z</time>
      </trkpt>
      <trkpt lat="43.52677" lon="1.08739">
        <ele>319.6</ele>
        <time>2024-05-20T09:01:08Z</time>
      </trkpt>
      <trkpt lat="43.52669" lon="1.08739">
        <ele>319.4</ele>
        <time>2024-05-20T09:01:09Z</time>
      </trkpt>
      <trkpt lat="43.52661" lon="1.0874">
        <ele>319.2</ele>
        <time>2024-05-20T09:01:10Z</time>
      </trkpt>
      <trkpt lat="43.52653" lon="1.0874">
        <ele>318.4</ele>
        <time>2024-05-20T09:01:11Z</time>
      </trkpt>
      <trkpt lat="43.52644" lon="1.08741">
        <ele>318.2</ele>
        <time>2024-05-20T09:01:12Z</time>
      </trkpt>
      <trkpt lat="43.52636" lon="1.08741">
        <ele>318</ele>
        <time>2024-05-20T09:01:13Z</time>
      </trkpt>
      <trkpt lat="43.52628" lon="1.08742">
        <ele>318</ele>
        <time>2024-05-20T09:01:14Z</time>
      </trkpt>
      <trkpt lat="43.5262" lon="1.08743">
        <ele>317.8</ele>
        <time>2024-05-20T09:01:15Z</time>
      </trkpt>
      <trkpt lat="43.52612" lon="1.08744">
        <ele>317.8</ele>
        <time>2024-05-20T09:01:16Z</time>
      </trkpt>
      <trkpt lat="43.52605" lon="1.08745">
        <ele>317.8</ele>
        <time>2024-05-20T09:01:17Z</time>
      </trkpt>
      <trkpt lat="43.52598" lon="1.08746">
        <ele>317.8</ele>
        <time>2024-05-20T09:01:18Z</time>
      </trkpt>
      <trkpt lat="43.5259" lon="1.08746">
        <ele>318</ele>
        <time>2024-05-20T09:01:19Z</time>
      </trkpt>
      <trkpt lat="43.52583" lon="1.08747">
        <ele>318</ele>
        <time>2024-05-20T09:01:20Z</time>
      </trkpt>
      <trkpt lat="43.52576" lon="1.08748">
        <ele>318</ele>
        <time>2024-05-20T09:01:21Z</time>
      </trkpt>
      <trkpt lat="43.52569" lon="1.08749">
        <ele>318</ele>
        <time>2024-05-20T09:01:22Z</time>
      </trkpt>
      <trkpt lat="43.52563" lon="1.08749">
        <ele>318.2</ele>
        <time>2024-05-20T09:01:23Z</time>
      </trkpt>
      <trkpt lat="43.52556" lon="1.0875">
        <ele>318.4</ele>
        <time>2024-05-20T09:01:24Z</time>
      </trkpt>
      <trkpt lat="43.5255" lon="1.08751">
        <ele>318.6</ele>
        <time>2024-05-20T09:01:25Z</time>
      </trkpt>
      <trkpt lat="43.52543" lon="1.08752">
        <ele>318.8</ele>
        <time>2024-05-20T09:01:26Z</time>
      </trkpt>
      <trkpt lat="43.52537" lon="1.08753">
        <ele>318.8</ele>
        <time>2024-05-20T09:01:27Z</time>
      </trkpt>
      <trkpt lat="43.5253" lon="1.08753">
        <ele>319</ele>
        <time>2024-05-20T09:01:28Z</time>
      </trkpt>
      <trkpt lat="43.52524" lon="1.08754">
        <ele>319.2</ele>
        <time>2024-05-20T09:01:29Z</time>
      </trkpt>
      <trkpt lat="43.52517" lon="1.08755">
        <ele>319.4</ele>
        <time>2024-05-20T09:01:30Z</time>
      </trkpt>
      <trkpt lat="43.5251" lon="1.08755">
        <ele>319.6</ele>
        <time>2024-05-20T09:01:31Z</time>
      </trkpt>
      <trkpt lat="43.52504" lon="1.08756">
        <ele>319.8</ele>
        <time>2024-05-20T09:01:32Z</time>
      </trkpt>
      <trkpt lat="43.52498" lon="1.08756">
        <ele>320</ele>
        <time>2024-05-20T09:01:33Z</time>
      </trkpt>
      <trkpt lat="43.52492" lon="1.08757">
        <ele>320.2</ele>
        <time>2024-05-20T09:01:34Z</time>
      </trkpt>
      <trkpt lat="43.52485" lon="1.08758">
        <ele>320.6</ele>
        <time>2024-05-20T09:01:35Z</time>
      </trkpt>
      <trkpt lat="43.52479" lon="1.08759">
        <ele>320.6</ele>
        <time>2024-05-20T09:01:36Z</time>
      </trkpt>
      <trkpt lat="43.52474" lon="1.0876">
        <ele>321</ele>
        <time>2024-05-20T09:01:37Z</time>
      </trkpt>
      <trkpt lat="43.52469" lon="1.08762">
        <ele>321</ele>
        <time>2024-05-20T09:01:38Z</time>
      </trkpt>
      <trkpt lat="43.52463" lon="1.08766">
        <ele>321.2</ele>
        <time>2024-05-20T09:01:39Z</time>
      </trkpt>
      <trkpt lat="43.52459" lon="1.08772">
        <ele>321.4</ele>
        <time>2024-05-20T09:01:40Z</time>
      </trkpt>
      <trkpt lat="43.52457" lon="1.08779">
        <ele>321.6</ele>
        <time>2024-05-20T09:01:41Z</time>
      </trkpt>
      <trkpt lat="43.52457" lon="1.08787">
        <ele>321.6</ele>
        <time>2024-05-20T09:01:42Z</time>
      </trkpt>
      <trkpt lat="43.52458" lon="1.08794">
        <ele>321.8</ele>
        <time>2024-05-20T09:01:43Z</time>
      </trkpt>
      <trkpt lat="43.52459" lon="1.08803">
        <ele>322</ele>
        <time>2024-05-20T09:01:44Z</time>
      </trkpt>
      <trkpt lat="43.52461" lon="1.08811">
        <ele>322</ele>
        <time>2024-05-20T09:01:45Z</time>
      </trkpt>
      <trkpt lat="43.52463" lon="1.08819">
        <ele>322.4</ele>
        <time>2024-05-20T09:01:46Z</time>
      </trkpt>
      <trkpt lat="43.52465" lon="1.08828">
        <ele>322.4</ele>
        <time>2024-05-20T09:01:47Z</time>
      </trkpt>
      <trkpt lat="43.52467" lon="1.08836">
        <ele>322.6</ele>
        <time>2024-05-20T09:01:48Z</time>
      </trkpt>
      <trkpt lat="43.52469" lon="1.08844">
        <ele>323</ele>
        <time>2024-05-20T09:01:49Z</time>
      </trkpt>
      <trkpt lat="43.52471" lon="1.08852">
        <ele>323.2</ele>
        <time>2024-05-20T09:01:50Z</time>
      </trkpt>
      <trkpt lat="43.52473" lon="1.0886">
        <ele>323.4</ele>
        <time>2024-05-20T09:01:51Z</time>
      </trkpt>
      <trkpt lat="43.52475" lon="1.08869">
        <ele>323.4</ele>
        <time>2024-05-20T09:01:52Z</time>
      </trkpt>
      <trkpt lat="43.52477" lon="1.08877">
        <ele>323.6</ele>
        <time>2024-05-20T09:01:53Z</time>
      </trkpt>
      <trkpt lat="43.52479" lon="1.08885">
        <ele>323.6</ele>
        <time>2024-05-20T09:01:54Z</time>
      </trkpt>
      <trkpt lat="43.52481" lon="1.08893">
        <ele>323.8</ele>
        <time>2024-05-20T09:01:55Z</time>
      </trkpt>
      <trkpt lat="43.52483" lon="1.08902">
        <ele>324</ele>
        <time>2024-05-20T09:01:56Z</time>
      </trkpt>
      <trkpt lat="43.52485" lon="1.0891">
        <ele>324</ele>
        <time>2024-05-20T09:01:57Z</time>
      </trkpt>
      <trkpt lat="43.52487" lon="1.08918">
        <ele>324.2</ele>
        <time>2024-05-20T09:01:58Z</time>
      </trkpt>
      <trkpt lat="43.52489" lon="1.08927">
        <ele>324.2</ele>
        <time>2024-05-20T09:01:59Z</time>
      </trkpt>
      <trkpt lat="43.52491" lon="1.08935">
        <ele>324.4</ele>
        <time>2024-05-20T09:02:00Z</time>
      </trkpt>
      <trkpt lat="43.52493" lon="1.08942">
        <ele>324.4</ele>
        <time>2024-05-20T09:02:01Z</time>
      </trkpt>
      <trkpt lat="43.52495" lon="1.08951">
        <ele>324.4</ele>
        <time>2024-05-20T09:02:02Z</time>
      </trkpt>
      <trkpt lat="43.52497" lon="1.0896">
        <ele>324.4</ele>
        <time>2024-05-20T09:02:03Z</time>
      </trkpt>
      <trkpt lat="43.525" lon="1.08968">
        <ele>324.6</ele>
        <time>2024-05-20T09:02:04Z</time>
      </trkpt>
      <trkpt lat="43.52502" lon="1.08977">
        <ele>324.8</ele>
        <time>2024-05-20T09:02:05Z</time>
      </trkpt>
      <trkpt lat="43.52503" lon="1.08985">
        <ele>325</ele>
        <time>2024-05-20T09:02:06Z</time>
      </trkpt>
      <trkpt lat="43.52505" lon="1.08994">
        <ele>325.2</ele>
        <time>2024-05-20T09:02:07Z</time>
      </trkpt>
      <trkpt lat="43.52506" lon="1.09002">
        <ele>325.2</ele>
        <time>2024-05-20T09:02:08Z</time>
      </trkpt>
      <trkpt lat="43.52507" lon="1.09011">
        <ele>325.4</ele>
        <time>2024-05-20T09:02:09Z</time>
      </trkpt>
      <trkpt lat="43.52508" lon="1.0902">
        <ele>325.6</ele>
        <time>2024-05-20T09:02:10Z</time>
      </trkpt>
      <trkpt lat="43.52509" lon="1.09029">
        <ele>326</ele>
        <time>2024-05-20T09:02:11Z</time>
      </trkpt>
      <trkpt lat="43.5251" lon="1.09038">
        <ele>326.4</ele>
        <time>2024-05-20T09:02:12Z</time>
      </trkpt>
      <trkpt lat="43.5251" lon="1.09047">
        <ele>326.4</ele>
        <time>2024-05-20T09:02:13Z</time>
      </trkpt>
      <trkpt lat="43.5251" lon="1.09055">
        <ele>327</ele>
        <time>2024-05-20T09:02:14Z</time>
      </trkpt>
      <trkpt lat="43.52511" lon="1.09064">
        <ele>327.2</ele>
        <time>2024-05-20T09:02:15Z</time>
      </trkpt>
      <trkpt lat="43.52511" lon="1.09073">
        <ele>327.4</ele>
        <time>2024-05-20T09:02:16Z</time>
      </trkpt>
      <trkpt lat="43.52511" lon="1.09082">
        <ele>327.6</ele>
        <time>2024-05-20T09:02:17Z</time>
      </trkpt>
      <trkpt lat="43.52511" lon="1.09092">
        <ele>328</ele>
        <time>2024-05-20T09:02:18Z</time>
      </trkpt>
      <trkpt lat="43.52512" lon="1.091">
        <ele>328.2</ele>
        <time>2024-05-20T09:02:19Z</time>
      </trkpt>
      <trkpt lat="43.52513" lon="1.09111">
        <ele>328.2</ele>
        <time>2024-05-20T09:02:20Z</time>
      </trkpt>
      <trkpt lat="43.52515" lon="1.09121">
        <ele>328.2</ele>
        <time>2024-05-20T09:02:21Z</time>
      </trkpt>
      <trkpt lat="43.52517" lon="1.09131">
        <ele>328.2</ele>
        <time>2024-05-20T09:02:22Z</time>
      </trkpt>
      <trkpt lat="43.52519" lon="1.09141">
        <ele>328.2</ele>
        <time>2024-05-20T09:02:23Z</time>
      </trkpt>
      <trkpt lat="43.52521" lon="1.0915">
        <ele>328.2</ele>
        <time>2024-05-20T09:02:24Z</time>
      </trkpt>
      <trkpt lat="43.52524" lon="1.0916">
        <ele>328.2</ele>
        <time>2024-05-20T09:02:25Z</time>
      </trkpt>
      <trkpt lat="43.52527" lon="1.0917">
        <ele>328</ele>
        <time>2024-05-20T09:02:26Z</time>
      </trkpt>
      <trkpt lat="43.52529" lon="1.0918">
        <ele>328</ele>
        <time>2024-05-20T09:02:27Z</time>
      </trkpt>
      <trkpt lat="43.52532" lon="1.0919">
        <ele>328</ele>
        <time>2024-05-20T09:02:28Z</time>
      </trkpt>
      <trkpt lat="43.52535" lon="1.092">
        <ele>327.8</ele>
        <time>2024-05-20T09:02:29Z</time>
      </trkpt>
      <trkpt lat="43.52537" lon="1.0921">
        <ele>327.8</ele>
        <time>2024-05-20T09:02:30Z</time>
      </trkpt>
      <trkpt lat="43.5254" lon="1.09221">
        <ele>327.8</ele>
        <time>2024-05-20T09:02:31Z</time>
      </trkpt>
      <trkpt lat="43.52542" lon="1.09231">
        <ele>327.8</ele>
        <time>2024-05-20T09:02:32Z</time>
      </trkpt>
      <trkpt lat="43.52545" lon="1.09242">
        <ele>327.8</ele>
        <time>2024-05-20T09:02:33Z</time>
      </trkpt>
      <trkpt lat="43.52548" lon="1.09252">
        <ele>327.8</ele>
        <time>2024-05-20T09:02:34Z</time>
      </trkpt>
      <trkpt lat="43.5255" lon="1.09263">
        <ele>327.6</ele>
        <time>2024-05-20T09:02:35Z</time>
      </trkpt>
      <trkpt lat="43.52553" lon="1.09274">
        <ele>327.4</ele>
        <time>2024-05-20T09:02:36Z</time>
      </trkpt>
      <trkpt lat="43.52556" lon="1.09284">
        <ele>327.4</ele>
        <time>2024-05-20T09:02:37Z</time>
      </trkpt>
      <trkpt lat="43.52558" lon="1.09295">
        <ele>327.4</ele>
        <time>2024-05-20T09:02:38Z</time>
      </trkpt>
      <trkpt lat="43.52561" lon="1.09306">
        <ele>327.4</ele>
        <time>2024-05-20T09:02:39Z</time>
      </trkpt>
      <trkpt lat="43.52564" lon="1.09316">
        <ele>327.4</ele>
        <time>2024-05-20T09:02:40Z</time>
      </trkpt>
      <trkpt lat="43.52567" lon="1.09327">
        <ele>327.4</ele>
        <time>2024-05-20T09:02:41Z</time>
      </trkpt>
      <trkpt lat="43.5257" lon="1.09337">
        <ele>327.4</ele>
        <time>2024-05-20T09:02:42Z</time>
      </trkpt>
      <trkpt lat="43.52573" lon="1.09348">
        <ele>327.4</ele>
        <time>2024-05-20T09:02:43Z</time>
      </trkpt>
      <trkpt lat="43.52575" lon="1.09358">
        <ele>327.6</ele>
        <time>2024-05-20T09:02:44Z</time>
      </trkpt>
      <trkpt lat="43.52578" lon="1.09369">
        <ele>327.6</ele>
        <time>2024-05-20T09:02:45Z</time>
      </trkpt>
      <trkpt lat="43.52581" lon="1.09379">
        <ele>327.8</ele>
        <time>2024-05-20T09:02:46Z</time>
      </trkpt>
      <trkpt lat="43.52584" lon="1.0939">
        <ele>327.8</ele>
        <time>2024-05-20T09:02:47Z</time>
      </trkpt>
      <trkpt lat="43.52587" lon="1.09401">
        <ele>327.8</ele>
        <time>2024-05-20T09:02:48Z</time>
      </trkpt>
      <trkpt lat="43.5259" lon="1.09411">
        <ele>327.8</ele>
        <time>2024-05-20T09:02:49Z</time>
      </trkpt>
      <trkpt lat="43.52593" lon="1.09422">
        <ele>327.8</ele>
        <time>2024-05-20T09:02:50Z</time>
      </trkpt>
      <trkpt lat="43.52596" lon="1.09432">
        <ele>328</ele>
        <time>2024-05-20T09:02:51Z</time>
      </trkpt>
      <trkpt lat="43.52599" lon="1.09443">
        <ele>328</ele>
        <time>2024-05-20T09:02:52Z</time>
      </trkpt>
      <trkpt lat="43.52603" lon="1.09453">
        <ele>328</ele>
        <time>2024-05-20T09:02:53Z</time>
      </trkpt>
      <trkpt lat="43.52607" lon="1.09463">
        <ele>328</ele>
        <time>2024-05-20T09:02:54Z</time>
      </trkpt>
      <trkpt lat="43.5261" lon="1.09473">
        <ele>328</ele>
        <time>2024-05-20T09:02:55Z</time>
      </trkpt>
      <trkpt lat="43.52614" lon="1.09483">
        <ele>328</ele>
        <time>2024-05-20T09:02:56Z</time>
      </trkpt>
      <trkpt lat="43.52618" lon="1.09494">
        <ele>328</ele>
        <time>2024-05-20T09:02:57Z</time>
      </trkpt>
      <trkpt lat="43.52621" lon="1.09505">
        <ele>328</ele>
        <time>2024-05-20T09:02:58Z</time>
      </trkpt>
      <trkpt lat="43.52624" lon="1.09516">
        <ele>328</ele>
        <time>2024-05-20T09:02:59Z</time>
      </trkpt>
      <trkpt lat="43.52627" lon="1.09527">
        <ele>328</ele>
        <time>2024-05-20T09:03:00Z</time>
      </trkpt>
      <trkpt lat="43.52629" lon="1.09536">
        <ele>328</ele>
        <time>2024-05-20T09:03:01Z</time>
      </trkpt>
      <trkpt lat="43.52631" lon="1.09551">
        <ele>327.8</ele>
        <time>2024-05-20T09:03:02Z</time>
      </trkpt>
      <trkpt lat="43.52634" lon="1.09563">
        <ele>327.8</ele>
        <time>2024-05-20T09:03:03Z</time>
      </trkpt>
      <trkpt lat="43.52636" lon="1.09575">
        <ele>327.6</ele>
        <time>2024-05-20T09:03:04Z</time>
      </trkpt>
      <trkpt lat="43.52638" lon="1.09588">
        <ele>327.6</ele>
        <time>2024-05-20T09:03:05Z</time>
      </trkpt>
      <trkpt lat="43.5264" lon="1.09601">
        <ele>327.4</ele>
        <time>2024-05-20T09:03:06Z</time>
      </trkpt>
      <trkpt lat="43.52642" lon="1.09614">
        <ele>327.4</ele>
        <time>2024-05-20T09:03:07Z</time>
      </trkpt>
      <trkpt lat="43.52644" lon="1.09627">
        <ele>327.2</ele>
        <time>2024-05-20T09:03:08Z</time>
      </trkpt>
      <trkpt lat="43.52646" lon="1.0964">
        <ele>327.2</ele>
        <time>2024-05-20T09:03:09Z</time>
      </trkpt>
      <trkpt lat="43.52647" lon="1.09654">
        <ele>327</ele>
        <time>2024-05-20T09:03:10Z</time>
      </trkpt>
      <trkpt lat="43.52649" lon="1.09667">
        <ele>327</ele>
        <time>2024-05-20T09:03:11Z</time>
      </trkpt>
      <trkpt lat="43.52651" lon="1.09681">
        <ele>327</ele>
        <time>2024-05-20T09:03:12Z</time>
      </trkpt>
      <trkpt lat="43.52653" lon="1.09694">
        <ele>327</ele>
        <time>2024-05-20T09:03:13Z</time>
      </trkpt>
      <trkpt lat="43.52654" lon="1.09707">
        <ele>327</ele>
        <time>2024-05-20T09:03:14Z</time>
      </trkpt>
      <trkpt lat="43.52656" lon="1.0972">
        <ele>327</ele>
        <time>2024-05-20T09:03:15Z</time>
      </trkpt>
      <trkpt lat="43.52658" lon="1.09733">
        <ele>327</ele>
        <time>2024-05-20T09:03:16Z</time>
      </trkpt>
      <trkpt lat="43.52659" lon="1.09746">
        <ele>327</ele>
        <time>2024-05-20T09:03:17Z</time>
      </trkpt>
      <trkpt lat="43.52661" lon="1.09759">
        <ele>327</ele>
        <time>2024-05-20T09:03:18Z</time>
      </trkpt>
      <trkpt lat="43.52663" lon="1.09772">
        <ele>327</ele>
        <time>2024-05-20T09:03:19Z</time>
      </trkpt>
      <trkpt lat="43.52665" lon="1.09785">
        <ele>327</ele>
        <time>2024-05-20T09:03:20Z</time>
      </trkpt>
      <trkpt lat="43.52666" lon="1.09798">
        <ele>326.8</ele>
        <time>2024-05-20T09:03:21Z</time>
      </trkpt>
      <trkpt lat="43.52667" lon="1.09811">
        <ele>326.8</ele>
        <time>2024-05-20T09:03:22Z</time>
      </trkpt>
      <trkpt lat="43.52668" lon="1.09825">
        <ele>326.8</ele>
        <time>2024-05-20T09:03:23Z</time>
      </trkpt>
      <trkpt lat="43.52669" lon="1.09838">
        <ele>326.8</ele>
        <time>2024-05-20T09:03:24Z</time>
      </trkpt>
      <trkpt lat="43.5267" lon="1.09852">
        <ele>326.8</ele>
        <time>2024-05-20T09:03:25Z</time>
      </trkpt>
      <trkpt lat="43.5267" lon="1.09865">
        <ele>326.8</ele>
        <time>2024-05-20T09:03:26Z</time>
      </trkpt>
      <trkpt lat="43.52671" lon="1.09879">
        <ele>326.6</ele>
        <time>2024-05-20T09:03:27Z</time>
      </trkpt>
      <trkpt lat="43.52671" lon="1.09893">
        <ele>326.6</ele>
        <time>2024-05-20T09:03:28Z</time>
      </trkpt>
      <trkpt lat="43.52671" lon="1.09904">
        <ele>326.6</ele>
        <time>2024-05-20T09:03:29Z</time>
      </trkpt>
      <trkpt lat="43.52672" lon="1.0992">
        <ele>326.6</ele>
        <time>2024-05-20T09:03:30Z</time>
      </trkpt>
      <trkpt lat="43.52672" lon="1.09933">
        <ele>326.4</ele>
        <time>2024-05-20T09:03:31Z</time>
      </trkpt>
      <trkpt lat="43.52673" lon="1.09947">
        <ele>326.4</ele>
        <time>2024-05-20T09:03:32Z</time>
      </trkpt>
      <trkpt lat="43.52673" lon="1.09958">
        <ele>326.4</ele>
        <time>2024-05-20T09:03:33Z</time>
      </trkpt>
      <trkpt lat="43.52674" lon="1.09974">
        <ele>326.4</ele>
        <time>2024-05-20T09:03:34Z</time>
      </trkpt>
      <trkpt lat="43.52674" lon="1.09988">
        <ele>326.2</ele>
        <time>2024-05-20T09:03:35Z</time>
      </trkpt>
      <trkpt lat="43.52674" lon="1.10002">
        <ele>326.2</ele>
        <time>2024-05-20T09:03:36Z</time>
      </trkpt>
      <trkpt lat="43.52675" lon="1.10015">
        <ele>326</ele>
        <time>2024-05-20T09:03:37Z</time>
      </trkpt>
      <trkpt lat="43.52675" lon="1.10029">
        <ele>325.8</ele>
        <time>2024-05-20T09:03:38Z</time>
      </trkpt>
      <trkpt lat="43.52675" lon="1.10043">
        <ele>325.4</ele>
        <time>2024-05-20T09:03:39Z</time>
      </trkpt>
      <trkpt lat="43.52676" lon="1.10056">
        <ele>325.2</ele>
        <time>2024-05-20T09:03:40Z</time>
      </trkpt>
      <trkpt lat="43.52676" lon="1.1007">
        <ele>324.8</ele>
        <time>2024-05-20T09:03:41Z</time>
      </trkpt>
      <trkpt lat="43.52676" lon="1.10084">
        <ele>324.8</ele>
        <time>2024-05-20T09:03:42Z</time>
      </trkpt>
      <trkpt lat="43.52675" lon="1.10098">
        <ele>324.6</ele>
        <time>2024-05-20T09:03:43Z</time>
      </trkpt>
      <trkpt lat="43.52675" lon="1.10113">
        <ele>324.4</ele>
        <time>2024-05-20T09:03:44Z</time>
      </trkpt>
      <trkpt lat="43.52675" lon="1.10127">
        <ele>324.2</ele>
        <time>2024-05-20T09:03:45Z</time>
      </trkpt>
      <trkpt lat="43.52675" lon="1.10142">
        <ele>323.8</ele>
        <time>2024-05-20T09:03:46Z</time>
      </trkpt>
      <trkpt lat="43.52674" lon="1.10156">
        <ele>323.8</ele>
        <time>2024-05-20T09:03:47Z</time>
      </trkpt>
      <trkpt lat="43.52673" lon="1.1017">
        <ele>323.4</ele>
        <time>2024-05-20T09:03:48Z</time>
      </trkpt>
      <trkpt lat="43.52673" lon="1.10185">
        <ele>323.2</ele>
        <time>2024-05-20T09:03:49Z</time>
      </trkpt>
      <trkpt lat="43.52671" lon="1.10199">
        <ele>323</ele>
        <time>2024-05-20T09:03:50Z</time>
      </trkpt>
      <trkpt lat="43.5267" lon="1.10214">
        <ele>323</ele>
        <time>2024-05-20T09:03:51Z</time>
      </trkpt>
      <trkpt lat="43.52667" lon="1.10228">
        <ele>322.8</ele>
        <time>2024-05-20T09:03:52Z</time>
      </trkpt>
      <trkpt lat="43.52664" lon="1.10243">
        <ele>322.4</ele>
        <time>2024-05-20T09:03:53Z</time>
      </trkpt>
      <trkpt lat="43.52661" lon="1.10257">
        <ele>322.4</ele>
        <time>2024-05-20T09:03:54Z</time>
      </trkpt>
      <trkpt lat="43.52658" lon="1.10271">
        <ele>322.2</ele>
        <time>2024-05-20T09:03:55Z</time>
      </trkpt>
      <trkpt lat="43.52655" lon="1.10286">
        <ele>322</ele>
        <time>2024-05-20T09:03:56Z</time>
      </trkpt>
      <trkpt lat="43.52652" lon="1.10301">
        <ele>322</ele>
        <time>2024-05-20T09:03:57Z</time>
      </trkpt>
      <trkpt lat="43.5265" lon="1.10316">
        <ele>322</ele>
        <time>2024-05-20T09:03:58Z</time>
      </trkpt>
      <trkpt lat="43.52647" lon="1.10331">
        <ele>322</ele>
        <time>2024-05-20T09:03:59Z</time>
      </trkpt>
      <trkpt lat="43.52645" lon="1.10346">
        <ele>322</ele>
        <time>2024-05-20T09:04:00Z</time>
      </trkpt>
      <trkpt lat="43.52643" lon="1.10361">
        <ele>321.8</ele>
        <time>2024-05-20T09:04:01Z</time>
      </trkpt>
      <trkpt lat="43.52641" lon="1.10376">
        <ele>321.8</ele>
        <time>2024-05-20T09:04:02Z</time>
      </trkpt>
      <trkpt lat="43.5264" lon="1.10391">
        <ele>321.8</ele>
        <time>2024-05-20T09:04:03Z</time>
      </trkpt>
      <trkpt lat="43.52639" lon="1.10405">
        <ele>321.8</ele>
        <time>2024-05-20T09:04:04Z</time>
      </trkpt>
      <trkpt lat="43.52638" lon="1.1042">
        <ele>321.8</ele>
        <time>2024-05-20T09:04:05Z</time>
      </trkpt>
      <trkpt lat="43.52637" lon="1.10435">
        <ele>321.8</ele>
        <time>2024-05-20T09:04:06Z</time>
      </trkpt>
      <trkpt lat="43.52637" lon="1.10449">
        <ele>321.6</ele>
        <time>2024-05-20T09:04:07Z</time>
      </trkpt>
      <trkpt lat="43.52637" lon="1.10464">
        <ele>321.6</ele>
        <time>2024-05-20T09:04:08Z</time>
      </trkpt>
      <trkpt lat="43.52637" lon="1.10478">
        <ele>321.4</ele>
        <time>2024-05-20T09:04:09Z</time>
      </trkpt>
      <trkpt lat="43.52637" lon="1.10493">
        <ele>321.4</ele>
        <time>2024-05-20T09:04:10Z</time>
      </trkpt>
      <trkpt lat="43.52638" lon="1.10507">
        <ele>321.2</ele>
        <time>2024-05-20T09:04:11Z</time>
      </trkpt>
      <trkpt lat="43.5264" lon="1.10521">
        <ele>321.2</ele>
        <time>2024-05-20T09:04:12Z</time>
      </trkpt>
      <trkpt lat="43.52641" lon="1.10535">
        <ele>321</ele>
        <time>2024-05-20T09:04:13Z</time>
      </trkpt>
      <trkpt lat="43.52643" lon="1.10549">
        <ele>321</ele>
        <time>2024-05-20T09:04:14Z</time>
      </trkpt>
      <trkpt lat="43.52644" lon="1.10563">
        <ele>321</ele>
        <time>2024-05-20T09:04:15Z</time>
      </trkpt>
      <trkpt lat="43.52646" lon="1.10578">
        <ele>320.8</ele>
        <time>2024-05-20T09:04:16Z</time>
      </trkpt>
      <trkpt lat="43.52649" lon="1.10593">
        <ele>320.8</ele>
        <time>2024-05-20T09:04:17Z</time>
      </trkpt>
      <trkpt lat="43.52651" lon="1.10607">
        <ele>320.8</ele>
        <time>2024-05-20T09:04:18Z</time>
      </trkpt>
      <trkpt lat="43.52654" lon="1.10621">
        <ele>320.8</ele>
        <time>2024-05-20T09:04:19Z</time>
      </trkpt>
      <trkpt lat="43.52657" lon="1.10635">
        <ele>320.8</ele>
        <time>2024-05-20T09:04:20Z</time>
      </trkpt>
      <trkpt lat="43.52661" lon="1.10648">
        <ele>320.8</ele>
        <time>2024-05-20T09:04:21Z</time>
      </trkpt>
      <trkpt lat="43.52665" lon="1.10662">
        <ele>320.6</ele>
        <time>2024-05-20T09:04:22Z</time>
      </trkpt>
      <trkpt lat="43.52669" lon="1.10675">
        <ele>320.8</ele>
        <time>2024-05-20T09:04:23Z</time>
      </trkpt>
      <trkpt lat="43.52673" lon="1.10688">
        <ele>320.8</ele>
        <time>2024-05-20T09:04:24Z</time>
      </trkpt>
      <trkpt lat="43.52677" lon="1.10701">
        <ele>320.8</ele>
        <time>2024-05-20T09:04:25Z</time>
      </trkpt>
      <trkpt lat="43.52681" lon="1.10714">
        <ele>320.8</ele>
        <time>2024-05-20T09:04:26Z</time>
      </trkpt>
      <trkpt lat="43.52686" lon="1.10728">
        <ele>320.6</ele>
        <time>2024-05-20T09:04:27Z</time>
      </trkpt>
      <trkpt lat="43.52689" lon="1.10738">
        <ele>320.6</ele>
        <time>2024-05-20T09:04:28Z</time>
      </trkpt>
      <trkpt lat="43.52694" lon="1.10754">
        <ele>320.6</ele>
        <time>2024-05-20T09:04:29Z</time>
      </trkpt>
      <trkpt lat="43.52698" lon="1.10768">
        <ele>320.4</ele>
        <time>2024-05-20T09:04:30Z</time>
      </trkpt>
      <trkpt lat="43.52703" lon="1.10781">
        <ele>320.4</ele>
        <time>2024-05-20T09:04:31Z</time>
      </trkpt>
      <trkpt lat="43.52707" lon="1.10794">
        <ele>320.4</ele>
        <time>2024-05-20T09:04:32Z</time>
      </trkpt>
      <trkpt lat="43.52712" lon="1.10807">
        <ele>320.4</ele>
        <time>2024-05-20T09:04:33Z</time>
      </trkpt>
      <trkpt lat="43.52718" lon="1.10819">
        <ele>320.4</ele>
        <time>2024-05-20T09:04:34Z</time>
      </trkpt>
      <trkpt lat="43.52725" lon="1.1083">
        <ele>320.4</ele>
        <time>2024-05-20T09:04:35Z</time>
      </trkpt>
      <trkpt lat="43.52732" lon="1.10841">
        <ele>320.4</ele>
        <time>2024-05-20T09:04:36Z</time>
      </trkpt>
      <trkpt lat="43.52738" lon="1.10852">
        <ele>320.2</ele>
        <time>2024-05-20T09:04:37Z</time>
      </trkpt>
      <trkpt lat="43.52745" lon="1.10862">
        <ele>320.2</ele>
        <time>2024-05-20T09:04:38Z</time>
      </trkpt>
      <trkpt lat="43.52752" lon="1.10872">
        <ele>320.2</ele>
        <time>2024-05-20T09:04:39Z</time>
      </trkpt>
      <trkpt lat="43.52759" lon="1.10882">
        <ele>320.2</ele>
        <time>2024-05-20T09:04:40Z</time>
      </trkpt>
      <trkpt lat="43.52766" lon="1.10892">
        <ele>320</ele>
        <time>2024-05-20T09:04:41Z</time>
      </trkpt>
      <trkpt lat="43.52771" lon="1.10903">
        <ele>319.8</ele>
        <time>2024-05-20T09:04:42Z</time>
      </trkpt>
      <trkpt lat="43.52776" lon="1.10914">
        <ele>319.6</ele>
        <time>2024-05-20T09:04:43Z</time>
      </trkpt>
      <trkpt lat="43.5278" lon="1.10926">
        <ele>319.6</ele>
        <time>2024-05-20T09:04:44Z</time>
      </trkpt>
      <trkpt lat="43.52783" lon="1.10939">
        <ele>319.6</ele>
        <time>2024-05-20T09:04:45Z</time>
      </trkpt>
      <trkpt lat="43.52785" lon="1.10952">
        <ele>319.6</ele>
        <time>2024-05-20T09:04:46Z</time>
      </trkpt>
      <trkpt lat="43.52785" lon="1.10965">
        <ele>319.6</ele>
        <time>2024-05-20T09:04:47Z</time>
      </trkpt>
      <trkpt lat="43.52784" lon="1.10978">
        <ele>319.6</ele>
        <time>2024-05-20T09:04:48Z</time>
      </trkpt>
      <trkpt lat="43.52781" lon="1.1099">
        <ele>319.6</ele>
        <time>2024-05-20T09:04:49Z</time>
      </trkpt>
      <trkpt lat="43.52777" lon="1.11003">
        <ele>319.6</ele>
        <time>2024-05-20T09:04:50Z</time>
      </trkpt>
      <trkpt lat="43.52772" lon="1.11014">
        <ele>319.4</ele>
        <time>2024-05-20T09:04:51Z</time>
      </trkpt>
      <trkpt lat="43.52766" lon="1.11025">
        <ele>319.4</ele>
        <time>2024-05-20T09:04:52Z</time>
      </trkpt>
      <trkpt lat="43.52759" lon="1.11037">
        <ele>319.4</ele>
        <time>2024-05-20T09:04:53Z</time>
      </trkpt>
      <trkpt lat="43.52752" lon="1.11048">
        <ele>319.2</ele>
        <time>2024-05-20T09:04:54Z</time>
      </trkpt>
      <trkpt lat="43.52746" lon="1.11061">
        <ele>319</ele>
        <time>2024-05-20T09:04:55Z</time>
      </trkpt>
      <trkpt lat="43.52741" lon="1.11076">
        <ele>318.8</ele>
        <time>2024-05-20T09:04:56Z</time>
      </trkpt>
      <trkpt lat="43.52737" lon="1.11093">
        <ele>317.8</ele>
        <time>2024-05-20T09:04:57Z</time>
      </trkpt>
      <trkpt lat="43.52735" lon="1.1111">
        <ele>317.2</ele>
        <time>2024-05-20T09:04:58Z</time>
      </trkpt>
      <trkpt lat="43.52735" lon="1.11128">
        <ele>317</ele>
        <time>2024-05-20T09:04:59Z</time>
      </trkpt>
      <trkpt lat="43.52736" lon="1.11147">
        <ele>316.6</ele>
        <time>2024-05-20T09:05:00Z</time>
      </trkpt>
      <trkpt lat="43.5274" lon="1.11165">
        <ele>316.2</ele>
        <time>2024-05-20T09:05:01Z</time>
      </trkpt>
      <trkpt lat="43.52744" lon="1.11184">
        <ele>314.8</ele>
        <time>2024-05-20T09:05:02Z</time>
      </trkpt>
      <trkpt lat="43.52748" lon="1.11202">
        <ele>314.4</ele>
        <time>2024-05-20T09:05:03Z</time>
      </trkpt>
      <trkpt lat="43.52751" lon="1.11222">
        <ele>312.4</ele>
        <time>2024-05-20T09:05:04Z</time>
      </trkpt>
      <trkpt lat="43.52753" lon="1.11242">
        <ele>310.4</ele>
        <time>2024-05-20T09:05:05Z</time>
      </trkpt>
      <trkpt lat="43.52753" lon="1.11261">
        <ele>309.6</ele>
        <time>2024-05-20T09:05:06Z</time>
      </trkpt>
      <trkpt lat="43.52751" lon="1.11281">
        <ele>308.2</ele>
        <time>2024-05-20T09:05:07Z</time>
      </trkpt>
      <trkpt lat="43.52748" lon="1.11299">
        <ele>307.8</ele>
        <time>2024-05-20T09:05:08Z</time>
      </trkpt>
      <trkpt lat="43.52743" lon="1.11317">
        <ele>306.4</ele>
        <time>2024-05-20T09:05:09Z</time>
      </trkpt>
      <trkpt lat="43.52736" lon="1.11335">
        <ele>306</ele>
        <time>2024-05-20T09:05:10Z</time>
      </trkpt>
      <trkpt lat="43.52729" lon="1.11353">
        <ele>305.2</ele>
        <time>2024-05-20T09:05:11Z</time>
      </trkpt>
      <trkpt lat="43.5272" lon="1.11371">
        <ele>304.2</ele>
        <time>2024-05-20T09:05:12Z</time>
      </trkpt>
      <trkpt lat="43.52711" lon="1.1139">
        <ele>303.6</ele>
        <time>2024-05-20T09:05:13Z</time>
      </trkpt>
      <trkpt lat="43.52702" lon="1.11408">
        <ele>302.6</ele>
        <time>2024-05-20T09:05:14Z</time>
      </trkpt>
      <trkpt lat="43.52693" lon="1.11426">
        <ele>301.8</ele>
        <time>2024-05-20T09:05:15Z</time>
      </trkpt>
      <trkpt lat="43.52686" lon="1.11446">
        <ele>300.4</ele>
        <time>2024-05-20T09:05:16Z</time>
      </trkpt>
      <trkpt lat="43.52679" lon="1.11467">
        <ele>299.2</ele>
        <time>2024-05-20T09:05:17Z</time>
      </trkpt>
      <trkpt lat="43.52672" lon="1.11488">
        <ele>296.8</ele>
        <time>2024-05-20T09:05:18Z</time>
      </trkpt>
      <trkpt lat="43.52665" lon="1.1151">
        <ele>296</ele>
        <time>2024-05-20T09:05:19Z</time>
      </trkpt>
      <trkpt lat="43.52658" lon="1.11533">
        <ele>294.6</ele>
        <time>2024-05-20T09:05:20Z</time>
      </trkpt>
      <trkpt lat="43.52651" lon="1.11555">
        <ele>293</ele>
        <time>2024-05-20T09:05:21Z</time>
      </trkpt>
      <trkpt lat="43.52645" lon="1.11577">
        <ele>291.8</ele>
        <time>2024-05-20T09:05:22Z</time>
      </trkpt>
      <trkpt lat="43.52639" lon="1.11599">
        <ele>290</ele>
        <time>2024-05-20T09:05:23Z</time>
      </trkpt>
      <trkpt lat="43.52633" lon="1.11621">
        <ele>289.2</ele>
        <time>2024-05-20T09:05:24Z</time>
      </trkpt>
      <trkpt lat="43.52628" lon="1.11643">
        <ele>287.6</ele>
        <time>2024-05-20T09:05:25Z</time>
      </trkpt>
      <trkpt lat="43.52623" lon="1.11664">
        <ele>286.8</ele>
        <time>2024-05-20T09:05:26Z</time>
      </trkpt>
      <trkpt lat="43.52619" lon="1.11685">
        <ele>285.4</ele>
        <time>2024-05-20T09:05:27Z</time>
      </trkpt>
      <trkpt lat="43.52615" lon="1.11706">
        <ele>284</ele>
        <time>2024-05-20T09:05:28Z</time>
      </trkpt>
      <trkpt lat="43.52612" lon="1.11726">
        <ele>283.4</ele>
        <time>2024-05-20T09:05:29Z</time>
      </trkpt>
      <trkpt lat="43.52609" lon="1.11747">
        <ele>282.6</ele>
        <time>2024-05-20T09:05:30Z</time>
      </trkpt>
      <trkpt lat="43.52606" lon="1.11768">
        <ele>282.2</ele>
        <time>2024-05-20T09:05:31Z</time>
      </trkpt>
      <trkpt lat="43.52603" lon="1.11788">
        <ele>281.4</ele>
        <time>2024-05-20T09:05:32Z</time>
      </trkpt>
      <trkpt lat="43.526" lon="1.11808">
        <ele>281.2</ele>
        <time>2024-05-20T09:05:33Z</time>
      </trkpt>
      <trkpt lat="43.52597" lon="1.11828">
        <ele>280.6</ele>
        <time>2024-05-20T09:05:34Z</time>
      </trkpt>
      <trkpt lat="43.52593" lon="1.11848">
        <ele>280.2</ele>
        <time>2024-05-20T09:05:35Z</time>
      </trkpt>
      <trkpt lat="43.5259" lon="1.11866">
        <ele>279.8</ele>
        <time>2024-05-20T09:05:36Z</time>
      </trkpt>
      <trkpt lat="43.52587" lon="1.11884">
        <ele>279.2</ele>
        <time>2024-05-20T09:05:37Z</time>
      </trkpt>
      <trkpt lat="43.52585" lon="1.11902">
        <ele>278.8</ele>
        <time>2024-05-20T09:05:38Z</time>
      </trkpt>
      <trkpt lat="43.52583" lon="1.11919">
        <ele>278</ele>
        <time>2024-05-20T09:05:39Z</time>
      </trkpt>
      <trkpt lat="43.52581" lon="1.11937">
        <ele>277.6</ele>
        <time>2024-05-20T09:05:40Z</time>
      </trkpt>
      <trkpt lat="43.52582" lon="1.11954">
        <ele>277</ele>
        <time>2024-05-20T09:05:41Z</time>
      </trkpt>
      <trkpt lat="43.52583" lon="1.11971">
        <ele>276.4</ele>
        <time>2024-05-20T09:05:42Z</time>
      </trkpt>
      <trkpt lat="43.52585" lon="1.11987">
        <ele>276.4</ele>
        <time>2024-05-20T09:05:43Z</time>
      </trkpt>
      <trkpt lat="43.52589" lon="1.12003">
        <ele>276.2</ele>
        <time>2024-05-20T09:05:44Z</time>
      </trkpt>
      <trkpt lat="43.52594" lon="1.12018">
        <ele>276</ele>
        <time>2024-05-20T09:05:45Z</time>
      </trkpt>
      <trkpt lat="43.526" lon="1.12034">
        <ele>275.8</ele>
        <time>2024-05-20T09:05:46Z</time>
      </trkpt>
      <trkpt lat="43.52606" lon="1.12049">
        <ele>275.8</ele>
        <time>2024-05-20T09:05:47Z</time>
      </trkpt>
      <trkpt lat="43.52611" lon="1.12064">
        <ele>275.4</ele>
        <time>2024-05-20T09:05:48Z</time>
      </trkpt>
      <trkpt lat="43.52617" lon="1.1208">
        <ele>275.4</ele>
        <time>2024-05-20T09:05:49Z</time>
      </trkpt>
      <trkpt lat="43.52622" lon="1.12095">
        <ele>275.4</ele>
        <time>2024-05-20T09:05:50Z</time>
      </trkpt>
      <trkpt lat="43.52627" lon="1.12107">
        <ele>274.8</ele>
        <time>2024-05-20T09:05:51Z</time>
      </trkpt>
      <trkpt lat="43.52634" lon="1.12126">
        <ele>274.6</ele>
        <time>2024-05-20T09:05:52Z</time>
      </trkpt>
      <trkpt lat="43.52639" lon="1.12141">
        <ele>274.4</ele>
        <time>2024-05-20T09:05:53Z</time>
      </trkpt>
      <trkpt lat="43.52645" lon="1.12156">
        <ele>274.4</ele>
        <time>2024-05-20T09:05:54Z</time>
      </trkpt>
      <trkpt lat="43.52651" lon="1.12171">
        <ele>273.8</ele>
        <time>2024-05-20T09:05:55Z</time>
      </trkpt>
      <trkpt lat="43.52657" lon="1.12186">
        <ele>274</ele>
        <time>2024-05-20T09:05:56Z</time>
      </trkpt>
      <trkpt lat="43.52663" lon="1.12202">
        <ele>273.6</ele>
        <time>2024-05-20T09:05:57Z</time>
      </trkpt>
      <trkpt lat="43.52669" lon="1.12217">
        <ele>272.8</ele>
        <time>2024-05-20T09:05:58Z</time>
      </trkpt>
      <trkpt lat="43.52675" lon="1.12233">
        <ele>272.6</ele>
        <time>2024-05-20T09:05:59Z</time>
      </trkpt>
      <trkpt lat="43.52681" lon="1.12248">
        <ele>272.2</ele>
        <time>2024-05-20T09:06:00Z</time>
      </trkpt>
      <trkpt lat="43.52687" lon="1.12264">
        <ele>272.2</ele>
        <time>2024-05-20T09:06:01Z</time>
      </trkpt>
      <trkpt lat="43.52693" lon="1.1228">
        <ele>271</ele>
        <time>2024-05-20T09:06:02Z</time>
      </trkpt>
      <trkpt lat="43.52699" lon="1.12296">
        <ele>270.4</ele>
        <time>2024-05-20T09:06:03Z</time>
      </trkpt>
      <trkpt lat="43.52705" lon="1.12311">
        <ele>269.4</ele>
        <time>2024-05-20T09:06:04Z</time>
      </trkpt>
      <trkpt lat="43.52711" lon="1.12328">
        <ele>268.4</ele>
        <time>2024-05-20T09:06:05Z</time>
      </trkpt>
      <trkpt lat="43.52716" lon="1.12344">
        <ele>268</ele>
        <time>2024-05-20T09:06:06Z</time>
      </trkpt>
      <trkpt lat="43.52721" lon="1.12361">
        <ele>267</ele>
        <time>2024-05-20T09:06:07Z</time>
      </trkpt>
      <trkpt lat="43.52725" lon="1.12378">
        <ele>266.8</ele>
        <time>2024-05-20T09:06:08Z</time>
      </trkpt>
      <trkpt lat="43.52729" lon="1.12394">
        <ele>266</ele>
        <time>2024-05-20T09:06:09Z</time>
      </trkpt>
      <trkpt lat="43.52733" lon="1.12411">
        <ele>265.6</ele>
        <time>2024-05-20T09:06:10Z</time>
      </trkpt>
      <trkpt lat="43.52736" lon="1.12427">
        <ele>264.8</ele>
        <time>2024-05-20T09:06:11Z</time>
      </trkpt>
      <trkpt lat="43.5274" lon="1.12444">
        <ele>264.6</ele>
        <time>2024-05-20T09:06:12Z</time>
      </trkpt>
      <trkpt lat="43.52744" lon="1.1246">
        <ele>264.4</ele>
        <time>2024-05-20T09:06:13Z</time>
      </trkpt>
      <trkpt lat="43.52747" lon="1.12476">
        <ele>263.8</ele>
        <time>2024-05-20T09:06:14Z</time>
      </trkpt>
      <trkpt lat="43.5275" lon="1.12493">
        <ele>263.6</ele>
        <time>2024-05-20T09:06:15Z</time>
      </trkpt>
      <trkpt lat="43.52754" lon="1.1251">
        <ele>262.6</ele>
        <time>2024-05-20T09:06:16Z</time>
      </trkpt>
      <trkpt lat="43.52757" lon="1.12526">
        <ele>262.4</ele>
        <time>2024-05-20T09:06:17Z</time>
      </trkpt>
      <trkpt lat="43.5276" lon="1.12543">
        <ele>262</ele>
        <time>2024-05-20T09:06:18Z</time>
      </trkpt>
      <trkpt lat="43.52763" lon="1.1256">
        <ele>261.6</ele>
        <time>2024-05-20T09:06:19Z</time>
      </trkpt>
      <trkpt lat="43.52766" lon="1.12578">
        <ele>261.2</ele>
        <time>2024-05-20T09:06:20Z</time>
      </trkpt>
      <trkpt lat="43.5277" lon="1.12595">
        <ele>260.6</ele>
        <time>2024-05-20T09:06:21Z</time>
      </trkpt>
      <trkpt lat="43.52773" lon="1.12613">
        <ele>260.2</ele>
        <time>2024-05-20T09:06:22Z</time>
      </trkpt>
      <trkpt lat="43.52776" lon="1.12631">
        <ele>259.8</ele>
        <time>2024-05-20T09:06:23Z</time>
      </trkpt>
      <trkpt lat="43.5278" lon="1.12649">
        <ele>259.4</ele>
        <time>2024-05-20T09:06:24Z</time>
      </trkpt>
      <trkpt lat="43.52783" lon="1.12667">
        <ele>259</ele>
        <time>2024-05-20T09:06:25Z</time>
      </trkpt>
      <trkpt lat="43.52786" lon="1.12684">
        <ele>259</ele>
        <time>2024-05-20T09:06:26Z</time>
      </trkpt>
      <trkpt lat="43.5279" lon="1.12701">
        <ele>258.8</ele>
        <time>2024-05-20T09:06:27Z</time>
      </trkpt>
      <trkpt lat="43.52794" lon="1.12717">
        <ele>258.8</ele>
        <time>2024-05-20T09:06:28Z</time>
      </trkpt>
      <trkpt lat="43.52799" lon="1.12733">
        <ele>258.6</ele>
        <time>2024-05-20T09:06:29Z</time>
      </trkpt>
      <trkpt lat="43.52804" lon="1.12749">
        <ele>258.2</ele>
        <time>2024-05-20T09:06:30Z</time>
      </trkpt>
      <trkpt lat="43.5281" lon="1.12765">
        <ele>258.2</ele>
        <time>2024-05-20T09:06:31Z</time>
      </trkpt>
      <trkpt lat="43.52815" lon="1.12781">
        <ele>258.2</ele>
        <time>2024-05-20T09:06:32Z</time>
      </trkpt>
      <trkpt lat="43.5282" lon="1.12797">
        <ele>258.2</ele>
        <time>2024-05-20T09:06:33Z</time>
      </trkpt>
      <trkpt lat="43.52825" lon="1.12812">
        <ele>258.6</ele>
        <time>2024-05-20T09:06:34Z</time>
      </trkpt>
      <trkpt lat="43.52831" lon="1.12828">
        <ele>258.8</ele>
        <time>2024-05-20T09:06:35Z</time>
      </trkpt>
      <trkpt lat="43.52837" lon="1.12843">
        <ele>258.8</ele>
        <time>2024-05-20T09:06:36Z</time>
      </trkpt>
      <trkpt lat="43.52843" lon="1.12857">
        <ele>259</ele>
        <time>2024-05-20T09:06:37Z</time>
      </trkpt>
      <trkpt lat="43.5285" lon="1.12871">
        <ele>259</ele>
        <time>2024-05-20T09:06:38Z</time>
      </trkpt>
      <trkpt lat="43.52857" lon="1.12885">
        <ele>259</ele>
        <time>2024-05-20T09:06:39Z</time>
      </trkpt>
      <trkpt lat="43.52864" lon="1.12899">
        <ele>259</ele>
        <time>2024-05-20T09:06:40Z</time>
      </trkpt>
      <trkpt lat="43.52871" lon="1.12912">
        <ele>259</ele>
        <time>2024-05-20T09:06:41Z</time>
      </trkpt>
      <trkpt lat="43.52877" lon="1.12923">
        <ele>259</ele>
        <time>2024-05-20T09:06:42Z</time>
      </trkpt>
      <trkpt lat="43.52886" lon="1.12939">
        <ele>259</ele>
        <time>2024-05-20T09:06:43Z</time>
      </trkpt>
      <trkpt lat="43.52893" lon="1.12952">
        <ele>258.6</ele>
        <time>2024-05-20T09:06:44Z</time>
      </trkpt>
      <trkpt lat="43.52899" lon="1.12966">
        <ele>258.4</ele>
        <time>2024-05-20T09:06:45Z</time>
      </trkpt>
      <trkpt lat="43.52905" lon="1.12981">
        <ele>258.2</ele>
        <time>2024-05-20T09:06:46Z</time>
      </trkpt>
      <trkpt lat="43.5291" lon="1.12995">
        <ele>258</ele>
        <time>2024-05-20T09:06:47Z</time>
      </trkpt>
      <trkpt lat="43.52914" lon="1.13009">
        <ele>257.8</ele>
        <time>2024-05-20T09:06:48Z</time>
      </trkpt>
      <trkpt lat="43.52918" lon="1.13023">
        <ele>257.6</ele>
        <time>2024-05-20T09:06:49Z</time>
      </trkpt>
      <trkpt lat="43.52922" lon="1.13037">
        <ele>257.2</ele>
        <time>2024-05-20T09:06:50Z</time>
      </trkpt>
      <trkpt lat="43.52926" lon="1.13051">
        <ele>257</ele>
        <time>2024-05-20T09:06:51Z</time>
      </trkpt>
      <trkpt lat="43.52929" lon="1.13066">
        <ele>257</ele>
        <time>2024-05-20T09:06:52Z</time>
      </trkpt>
      <trkpt lat="43.52933" lon="1.13081">
        <ele>256.6</ele>
        <time>2024-05-20T09:06:53Z</time>
      </trkpt>
      <trkpt lat="43.52936" lon="1.13098">
        <ele>256.6</ele>
        <time>2024-05-20T09:06:54Z</time>
      </trkpt>
      <trkpt lat="43.52939" lon="1.13114">
        <ele>256.4</ele>
        <time>2024-05-20T09:06:55Z</time>
      </trkpt>
      <trkpt lat="43.52942" lon="1.1313">
        <ele>256.4</ele>
        <time>2024-05-20T09:06:56Z</time>
      </trkpt>
      <trkpt lat="43.52944" lon="1.13147">
        <ele>256.2</ele>
        <time>2024-05-20T09:06:57Z</time>
      </trkpt>
      <trkpt lat="43.52947" lon="1.13164">
        <ele>256.2</ele>
        <time>2024-05-20T09:06:58Z</time>
      </trkpt>
      <trkpt lat="43.5295" lon="1.13181">
        <ele>256</ele>
        <time>2024-05-20T09:06:59Z</time>
      </trkpt>
      <trkpt lat="43.52952" lon="1.13197">
        <ele>255.6</ele>
        <time>2024-05-20T09:07:00Z</time>
      </trkpt>
      <trkpt lat="43.52953" lon="1.13214">
        <ele>255.4</ele>
        <time>2024-05-20T09:07:01Z</time>
      </trkpt>
      <trkpt lat="43.52955" lon="1.13231">
        <ele>255</ele>
        <time>2024-05-20T09:07:02Z</time>
      </trkpt>
      <trkpt lat="43.52956" lon="1.13248">
        <ele>254.8</ele>
        <time>2024-05-20T09:07:03Z</time>
      </trkpt>
      <trkpt lat="43.52956" lon="1.13265">
        <ele>254</ele>
        <time>2024-05-20T09:07:04Z</time>
      </trkpt>
      <trkpt lat="43.52957" lon="1.13282">
        <ele>253.8</ele>
        <time>2024-05-20T09:07:05Z</time>
      </trkpt>
      <trkpt lat="43.52957" lon="1.13299">
        <ele>253.2</ele>
        <time>2024-05-20T09:07:06Z</time>
      </trkpt>
      <trkpt lat="43.52956" lon="1.13316">
        <ele>252.8</ele>
        <time>2024-05-20T09:07:07Z</time>
      </trkpt>
      <trkpt lat="43.52956" lon="1.13333">
        <ele>252.4</ele>
        <time>2024-05-20T09:07:08Z</time>
      </trkpt>
      <trkpt lat="43.52956" lon="1.1335">
        <ele>251.8</ele>
        <time>2024-05-20T09:07:09Z</time>
      </trkpt>
      <trkpt lat="43.52956" lon="1.13367">
        <ele>251.6</ele>
        <time>2024-05-20T09:07:10Z</time>
      </trkpt>
      <trkpt lat="43.52956" lon="1.13383">
        <ele>251.2</ele>
        <time>2024-05-20T09:07:11Z</time>
      </trkpt>
      <trkpt lat="43.52956" lon="1.134">
        <ele>251.2</ele>
        <time>2024-05-20T09:07:12Z</time>
      </trkpt>
      <trkpt lat="43.52957" lon="1.13417">
        <ele>250.8</ele>
        <time>2024-05-20T09:07:13Z</time>
      </trkpt>
      <trkpt lat="43.52958" lon="1.13434">
        <ele>250.4</ele>
        <time>2024-05-20T09:07:14Z</time>
      </trkpt>
      <trkpt lat="43.52959" lon="1.1345">
        <ele>250.2</ele>
        <time>2024-05-20T09:07:15Z</time>
      </trkpt>
      <trkpt lat="43.52962" lon="1.13465">
        <ele>250</ele>
        <time>2024-05-20T09:07:16Z</time>
      </trkpt>
      <trkpt lat="43.52964" lon="1.13481">
        <ele>249.8</ele>
        <time>2024-05-20T09:07:17Z</time>
      </trkpt>
      <trkpt lat="43.52966" lon="1.13497">
        <ele>249.8</ele>
        <time>2024-05-20T09:07:18Z</time>
      </trkpt>
      <trkpt lat="43.52969" lon="1.13513">
        <ele>249.6</ele>
        <time>2024-05-20T09:07:19Z</time>
      </trkpt>
      <trkpt lat="43.52971" lon="1.1353">
        <ele>249.4</ele>
        <time>2024-05-20T09:07:20Z</time>
      </trkpt>
      <trkpt lat="43.52973" lon="1.13546">
        <ele>249.2</ele>
        <time>2024-05-20T09:07:21Z</time>
      </trkpt>
      <trkpt lat="43.52976" lon="1.13562">
        <ele>249.2</ele>
        <time>2024-05-20T09:07:22Z</time>
      </trkpt>
      <trkpt lat="43.52978" lon="1.13578">
        <ele>249</ele>
        <time>2024-05-20T09:07:23Z</time>
      </trkpt>
      <trkpt lat="43.52981" lon="1.13594">
        <ele>249</ele>
        <time>2024-05-20T09:07:24Z</time>
      </trkpt>
      <trkpt lat="43.52983" lon="1.1361">
        <ele>248.8</ele>
        <time>2024-05-20T09:07:25Z</time>
      </trkpt>
      <trkpt lat="43.52985" lon="1.13626">
        <ele>248.8</ele>
        <time>2024-05-20T09:07:26Z</time>
      </trkpt>
      <trkpt lat="43.52987" lon="1.13642">
        <ele>248.8</ele>
        <time>2024-05-20T09:07:27Z</time>
      </trkpt>
      <trkpt lat="43.52989" lon="1.13658">
        <ele>248.8</ele>
        <time>2024-05-20T09:07:28Z</time>
      </trkpt>
      <trkpt lat="43.52991" lon="1.13674">
        <ele>248.8</ele>
        <time>2024-05-20T09:07:29Z</time>
      </trkpt>
      <trkpt lat="43.52994" lon="1.1369">
        <ele>248.8</ele>
        <time>2024-05-20T09:07:30Z</time>
      </trkpt>
      <trkpt lat="43.52996" lon="1.13706">
        <ele>248.8</ele>
        <time>2024-05-20T09:07:31Z</time>
      </trkpt>
      <trkpt lat="43.52998" lon="1.13721">
        <ele>248.8</ele>
        <time>2024-05-20T09:07:32Z</time>
      </trkpt>
      <trkpt lat="43.53" lon="1.13737">
        <ele>248.8</ele>
        <time>2024-05-20T09:07:33Z</time>
      </trkpt>
      <trkpt lat="43.53001" lon="1.13753">
        <ele>248.6</ele>
        <time>2024-05-20T09:07:34Z</time>
      </trkpt>
      <trkpt lat="43.53002" lon="1.13768">
        <ele>248.6</ele>
        <time>2024-05-20T09:07:35Z</time>
      </trkpt>
      <trkpt lat="43.53002" lon="1.13784">
        <ele>248.6</ele>
        <time>2024-05-20T09:07:36Z</time>
      </trkpt>
      <trkpt lat="43.53002" lon="1.13799">
        <ele>248.4</ele>
        <time>2024-05-20T09:07:37Z</time>
      </trkpt>
      <trkpt lat="43.53002" lon="1.13815">
        <ele>248.4</ele>
        <time>2024-05-20T09:07:38Z</time>
      </trkpt>
      <trkpt lat="43.53002" lon="1.13831">
        <ele>248</ele>
        <time>2024-05-20T09:07:39Z</time>
      </trkpt>
      <trkpt lat="43.53002" lon="1.13847">
        <ele>248</ele>
        <time>2024-05-20T09:07:40Z</time>
      </trkpt>
      <trkpt lat="43.53001" lon="1.13863">
        <ele>247.6</ele>
        <time>2024-05-20T09:07:41Z</time>
      </trkpt>
      <trkpt lat="43.53001" lon="1.13879">
        <ele>247.4</ele>
        <time>2024-05-20T09:07:42Z</time>
      </trkpt>
      <trkpt lat="43.53" lon="1.13896">
        <ele>247</ele>
        <time>2024-05-20T09:07:43Z</time>
      </trkpt>
      <trkpt lat="43.52999" lon="1.13912">
        <ele>246.8</ele>
        <time>2024-05-20T09:07:44Z</time>
      </trkpt>
      <trkpt lat="43.52998" lon="1.13929">
        <ele>246.4</ele>
        <time>2024-05-20T09:07:45Z</time>
      </trkpt>
      <trkpt lat="43.52997" lon="1.13946">
        <ele>246</ele>
        <time>2024-05-20T09:07:46Z</time>
      </trkpt>
      <trkpt lat="43.52995" lon="1.13962">
        <ele>245.8</ele>
        <time>2024-05-20T09:07:47Z</time>
      </trkpt>
      <trkpt lat="43.52994" lon="1.13978">
        <ele>245.6</ele>
        <time>2024-05-20T09:07:48Z</time>
      </trkpt>
      <trkpt lat="43.52992" lon="1.13993">
        <ele>245.6</ele>
        <time>2024-05-20T09:07:49Z</time>
      </trkpt>
      <trkpt lat="43.5299" lon="1.14009">
        <ele>245.2</ele>
        <time>2024-05-20T09:07:50Z</time>
      </trkpt>
      <trkpt lat="43.52988" lon="1.14024">
        <ele>245.2</ele>
        <time>2024-05-20T09:07:51Z</time>
      </trkpt>
      <trkpt lat="43.52986" lon="1.14039">
        <ele>245</ele>
        <time>2024-05-20T09:07:52Z</time>
      </trkpt>
      <trkpt lat="43.52984" lon="1.14054">
        <ele>245</ele>
        <time>2024-05-20T09:07:53Z</time>
      </trkpt>
      <trkpt lat="43.52982" lon="1.14069">
        <ele>244.8</ele>
        <time>2024-05-20T09:07:54Z</time>
      </trkpt>
      <trkpt lat="43.5298" lon="1.14084">
        <ele>244.8</ele>
        <time>2024-05-20T09:07:55Z</time>
      </trkpt>
      <trkpt lat="43.52978" lon="1.14098">
        <ele>244.6</ele>
        <time>2024-05-20T09:07:56Z</time>
      </trkpt>
      <trkpt lat="43.52976" lon="1.14113">
        <ele>244.4</ele>
        <time>2024-05-20T09:07:57Z</time>
      </trkpt>
      <trkpt lat="43.52973" lon="1.14127">
        <ele>244.2</ele>
        <time>2024-05-20T09:07:58Z</time>
      </trkpt>
      <trkpt lat="43.5297" lon="1.14141">
        <ele>244</ele>
        <time>2024-05-20T09:07:59Z</time>
      </trkpt>
      <trkpt lat="43.52966" lon="1.14154">
        <ele>243.8</ele>
        <time>2024-05-20T09:08:00Z</time>
      </trkpt>
      <trkpt lat="43.5296" lon="1.14167">
        <ele>243.6</ele>
        <time>2024-05-20T09:08:01Z</time>
      </trkpt>
      <trkpt lat="43.52953" lon="1.14178">
        <ele>243.6</ele>
        <time>2024-05-20T09:08:02Z</time>
      </trkpt>
      <trkpt lat="43.52945" lon="1.14187">
        <ele>243.4</ele>
        <time>2024-05-20T09:08:03Z</time>
      </trkpt>
      <trkpt lat="43.52937" lon="1.14195">
        <ele>243.4</ele>
        <time>2024-05-20T09:08:04Z</time>
      </trkpt>
      <trkpt lat="43.52928" lon="1.14201">
        <ele>243.2</ele>
        <time>2024-05-20T09:08:05Z</time>
      </trkpt>
      <trkpt lat="43.52919" lon="1.14207">
        <ele>243.2</ele>
        <time>2024-05-20T09:08:06Z</time>
      </trkpt>
      <trkpt lat="43.52911" lon="1.14213">
        <ele>243.2</ele>
        <time>2024-05-20T09:08:07Z</time>
      </trkpt>
      <trkpt lat="43.52902" lon="1.14219">
        <ele>243</ele>
        <time>2024-05-20T09:08:08Z</time>
      </trkpt>
      <trkpt lat="43.52894" lon="1.14227">
        <ele>242.6</ele>
        <time>2024-05-20T09:08:09Z</time>
      </trkpt>
      <trkpt lat="43.52886" lon="1.14236">
        <ele>242.6</ele>
        <time>2024-05-20T09:08:10Z</time>
      </trkpt>
      <trkpt lat="43.52881" lon="1.14247">
        <ele>242.6</ele>
        <time>2024-05-20T09:08:11Z</time>
      </trkpt>
      <trkpt lat="43.52876" lon="1.14258">
        <ele>242.4</ele>
        <time>2024-05-20T09:08:12Z</time>
      </trkpt>
      <trkpt lat="43.52873" lon="1.1427">
        <ele>242.2</ele>
        <time>2024-05-20T09:08:13Z</time>
      </trkpt>
      <trkpt lat="43.52871" lon="1.14283">
        <ele>242.2</ele>
        <time>2024-05-20T09:08:14Z</time>
      </trkpt>
      <trkpt lat="43.52869" lon="1.14295">
        <ele>242.2</ele>
        <time>2024-05-20T09:08:15Z</time>
      </trkpt>
      <trkpt lat="43.52867" lon="1.14308">
        <ele>242.2</ele>
        <time>2024-05-20T09:08:16Z</time>
      </trkpt>
      <trkpt lat="43.52866" lon="1.14321">
        <ele>242.2</ele>
        <time>2024-05-20T09:08:17Z</time>
      </trkpt>
      <trkpt lat="43.52864" lon="1.14333">
        <ele>242</ele>
        <time>2024-05-20T09:08:18Z</time>
      </trkpt>
      <trkpt lat="43.52863" lon="1.14346">
        <ele>242</ele>
        <time>2024-05-20T09:08:19Z</time>
      </trkpt>
      <trkpt lat="43.52862" lon="1.14358">
        <ele>242</ele>
        <time>2024-05-20T09:08:20Z</time>
      </trkpt>
      <trkpt lat="43.5286" lon="1.14371">
        <ele>242</ele>
        <time>2024-05-20T09:08:21Z</time>
      </trkpt>
      <trkpt lat="43.52859" lon="1.14383">
        <ele>241.8</ele>
        <time>2024-05-20T09:08:22Z</time>
      </trkpt>
      <trkpt lat="43.52857" lon="1.14396">
        <ele>241.8</ele>
        <time>2024-05-20T09:08:23Z</time>
      </trkpt>
      <trkpt lat="43.52856" lon="1.14408">
        <ele>241.6</ele>
        <time>2024-05-20T09:08:24Z</time>
      </trkpt>
      <trkpt lat="43.52854" lon="1.1442">
        <ele>241.6</ele>
        <time>2024-05-20T09:08:25Z</time>
      </trkpt>
      <trkpt lat="43.52853" lon="1.14432">
        <ele>241.6</ele>
        <time>2024-05-20T09:08:26Z</time>
      </trkpt>
      <trkpt lat="43.52851" lon="1.14443">
        <ele>241.6</ele>
        <time>2024-05-20T09:08:27Z</time>
      </trkpt>
      <trkpt lat="43.5285" lon="1.14453">
        <ele>241.6</ele>
        <time>2024-05-20T09:08:28Z</time>
      </trkpt>
      <trkpt lat="43.52848" lon="1.14462">
        <ele>241.4</ele>
        <time>2024-05-20T09:08:29Z</time>
      </trkpt>
      <trkpt lat="43.52847" lon="1.14471">
        <ele>241.4</ele>
        <time>2024-05-20T09:08:30Z</time>
      </trkpt>
      <trkpt lat="43.52846" lon="1.1448">
        <ele>241.4</ele>
        <time>2024-05-20T09:08:31Z</time>
      </trkpt>
      <trkpt lat="43.52845" lon="1.1449">
        <ele>241.4</ele>
        <time>2024-05-20T09:08:32Z</time>
      </trkpt>
      <trkpt lat="43.52844" lon="1.14501">
        <ele>241.4</ele>
        <time>2024-05-20T09:08:33Z</time>
      </trkpt>
      <trkpt lat="43.52843" lon="1.14511">
        <ele>241.4</ele>
        <time>2024-05-20T09:08:34Z</time>
      </trkpt>
      <trkpt lat="43.52842" lon="1.14523">
        <ele>241.2</ele>
        <time>2024-05-20T09:08:35Z</time>
      </trkpt>
      <trkpt lat="43.5284" lon="1.14534">
        <ele>241.2</ele>
        <time>2024-05-20T09:08:36Z</time>
      </trkpt>
      <trkpt lat="43.52838" lon="1.14546">
        <ele>241</ele>
        <time>2024-05-20T09:08:37Z</time>
      </trkpt>
      <trkpt lat="43.52836" lon="1.14557">
        <ele>241</ele>
        <time>2024-05-20T09:08:38Z</time>
      </trkpt>
      <trkpt lat="43.52834" lon="1.14569">
        <ele>241</ele>
        <time>2024-05-20T09:08:39Z</time>
      </trkpt>
      <trkpt lat="43.52832" lon="1.14582">
        <ele>240.8</ele>
        <time>2024-05-20T09:08:40Z</time>
      </trkpt>
      <trkpt lat="43.5283" lon="1.14594">
        <ele>240.8</ele>
        <time>2024-05-20T09:08:41Z</time>
      </trkpt>
      <trkpt lat="43.52828" lon="1.14606">
        <ele>240.8</ele>
        <time>2024-05-20T09:08:42Z</time>
      </trkpt>
      <trkpt lat="43.52827" lon="1.14615">
        <ele>240.8</ele>
        <time>2024-05-20T09:08:43Z</time>
      </trkpt>
      <trkpt lat="43.52825" lon="1.1463">
        <ele>240.8</ele>
        <time>2024-05-20T09:08:44Z</time>
      </trkpt>
      <trkpt lat="43.52823" lon="1.14642">
        <ele>240.8</ele>
        <time>2024-05-20T09:08:45Z</time>
      </trkpt>
      <trkpt lat="43.52821" lon="1.14654">
        <ele>240.8</ele>
        <time>2024-05-20T09:08:46Z</time>
      </trkpt>
      <trkpt lat="43.52819" lon="1.14666">
        <ele>240.8</ele>
        <time>2024-05-20T09:08:47Z</time>
      </trkpt>
      <trkpt lat="43.52817" lon="1.14679">
        <ele>240.8</ele>
        <time>2024-05-20T09:08:48Z</time>
      </trkpt>
      <trkpt lat="43.52815" lon="1.14691">
        <ele>240.8</ele>
        <time>2024-05-20T09:08:49Z</time>
      </trkpt>
      <trkpt lat="43.52813" lon="1.14703">
        <ele>240.6</ele>
        <time>2024-05-20T09:08:50Z</time>
      </trkpt>
      <trkpt lat="43.52811" lon="1.14715">
        <ele>240.4</ele>
        <time>2024-05-20T09:08:51Z</time>
      </trkpt>
      <trkpt lat="43.52809" lon="1.14726">
        <ele>240.4</ele>
        <time>2024-05-20T09:08:52Z</time>
      </trkpt>
      <trkpt lat="43.52807" lon="1.14737">
        <ele>240.2</ele>
        <time>2024-05-20T09:08:53Z</time>
      </trkpt>
      <trkpt lat="43.52805" lon="1.14748">
        <ele>240</ele>
        <time>2024-05-20T09:08:54Z</time>
      </trkpt>
      <trkpt lat="43.52803" lon="1.1476">
        <ele>239.8</ele>
        <time>2024-05-20T09:08:55Z</time>
      </trkpt>
      <trkpt lat="43.52801" lon="1.14771">
        <ele>239.8</ele>
        <time>2024-05-20T09:08:56Z</time>
      </trkpt>
      <trkpt lat="43.52799" lon="1.14783">
        <ele>239.6</ele>
        <time>2024-05-20T09:08:57Z</time>
      </trkpt>
      <trkpt lat="43.52796" lon="1.14794">
        <ele>239.6</ele>
        <time>2024-05-20T09:08:58Z</time>
      </trkpt>
      <trkpt lat="43.52794" lon="1.14806">
        <ele>239.4</ele>
        <time>2024-05-20T09:08:59Z</time>
      </trkpt>
      <trkpt lat="43.52793" lon="1.14818">
        <ele>239.4</ele>
        <time>2024-05-20T09:09:00Z</time>
      </trkpt>
      <trkpt lat="43.52791" lon="1.1483">
        <ele>239.4</ele>
        <time>2024-05-20T09:09:01Z</time>
      </trkpt>
      <trkpt lat="43.52789" lon="1.14839">
        <ele>239.4</ele>
        <time>2024-05-20T09:09:02Z</time>
      </trkpt>
      <trkpt lat="43.52786" lon="1.14854">
        <ele>239.4</ele>
        <time>2024-05-20T09:09:03Z</time>
      </trkpt>
      <trkpt lat="43.52784" lon="1.14866">
        <ele>239.4</ele>
        <time>2024-05-20T09:09:04Z</time>
      </trkpt>
      <trkpt lat="43.52781" lon="1.14878">
        <ele>239.4</ele>
        <time>2024-05-20T09:09:05Z</time>
      </trkpt>
      <trkpt lat="43.52778" lon="1.1489">
        <ele>239.4</ele>
        <time>2024-05-20T09:09:06Z</time>
      </trkpt>
      <trkpt lat="43.52775" lon="1.14901">
        <ele>239.6</ele>
        <time>2024-05-20T09:09:07Z</time>
      </trkpt>
      <trkpt lat="43.52771" lon="1.14913">
        <ele>239.6</ele>
        <time>2024-05-20T09:09:08Z</time>
      </trkpt>
      <trkpt lat="43.52766" lon="1.14925">
        <ele>239.6</ele>
        <time>2024-05-20T09:09:09Z</time>
      </trkpt>
      <trkpt lat="43.52761" lon="1.14938">
        <ele>239.6</ele>
        <time>2024-05-20T09:09:10Z</time>
      </trkpt>
      <trkpt lat="43.52757" lon="1.1495">
        <ele>239.4</ele>
        <time>2024-05-20T09:09:11Z</time>
      </trkpt>
      <trkpt lat="43.52752" lon="1.14963">
        <ele>239.4</ele>
        <time>2024-05-20T09:09:12Z</time>
      </trkpt>
      <trkpt lat="43.52747" lon="1.14976">
        <ele>239.4</ele>
        <time>2024-05-20T09:09:13Z</time>
      </trkpt>
      <trkpt lat="43.52742" lon="1.14989">
        <ele>239.4</ele>
        <time>2024-05-20T09:09:14Z</time>
      </trkpt>
      <trkpt lat="43.52737" lon="1.15001">
        <ele>239.4</ele>
        <time>2024-05-20T09:09:15Z</time>
      </trkpt>
      <trkpt lat="43.52732" lon="1.15013">
        <ele>239.2</ele>
        <time>2024-05-20T09:09:16Z</time>
      </trkpt>
      <trkpt lat="43.52727" lon="1.15025">
        <ele>239.2</ele>
        <time>2024-05-20T09:09:17Z</time>
      </trkpt>
      <trkpt lat="43.52723" lon="1.15037">
        <ele>239.2</ele>
        <time>2024-05-20T09:09:18Z</time>
      </trkpt>
      <trkpt lat="43.52719" lon="1.15048">
        <ele>239.2</ele>
        <time>2024-05-20T09:09:19Z</time>
      </trkpt>
      <trkpt lat="43.52715" lon="1.15059">
        <ele>239.2</ele>
        <time>2024-05-20T09:09:20Z</time>
      </trkpt>
      <trkpt lat="43.52712" lon="1.1507">
        <ele>239.2</ele>
        <time>2024-05-20T09:09:21Z</time>
      </trkpt>
      <trkpt lat="43.52709" lon="1.15081">
        <ele>239.4</ele>
        <time>2024-05-20T09:09:22Z</time>
      </trkpt>
      <trkpt lat="43.52707" lon="1.15092">
        <ele>239.4</ele>
        <time>2024-05-20T09:09:23Z</time>
      </trkpt>
      <trkpt lat="43.52705" lon="1.15102">
        <ele>239.6</ele>
        <time>2024-05-20T09:09:24Z</time>
      </trkpt>
      <trkpt lat="43.52704" lon="1.15111">
        <ele>239.6</ele>
        <time>2024-05-20T09:09:25Z</time>
      </trkpt>
      <trkpt lat="43.52702" lon="1.15123">
        <ele>239.8</ele>
        <time>2024-05-20T09:09:26Z</time>
      </trkpt>
      <trkpt lat="43.52701" lon="1.15134">
        <ele>240</ele>
        <time>2024-05-20T09:09:27Z</time>
      </trkpt>
      <trkpt lat="43.527" lon="1.15145">
        <ele>240.2</ele>
        <time>2024-05-20T09:09:28Z</time>
      </trkpt>
      <trkpt lat="43.52699" lon="1.15156">
        <ele>240.2</ele>
        <time>2024-05-20T09:09:29Z</time>
      </trkpt>
      <trkpt lat="43.52698" lon="1.15167">
        <ele>240.2</ele>
        <time>2024-05-20T09:09:30Z</time>
      </trkpt>
      <trkpt lat="43.52697" lon="1.15178">
        <ele>240.2</ele>
        <time>2024-05-20T09:09:31Z</time>
      </trkpt>
      <trkpt lat="43.52696" lon="1.1519">
        <ele>240.2</ele>
        <time>2024-05-20T09:09:32Z</time>
      </trkpt>
      <trkpt lat="43.52695" lon="1.15202">
        <ele>240.2</ele>
        <time>2024-05-20T09:09:33Z</time>
      </trkpt>
      <trkpt lat="43.52693" lon="1.15215">
        <ele>240.2</ele>
        <time>2024-05-20T09:09:34Z</time>
      </trkpt>
      <trkpt lat="43.52691" lon="1.15227">
        <ele>240.2</ele>
        <time>2024-05-20T09:09:35Z</time>
      </trkpt>
      <trkpt lat="43.52688" lon="1.1524">
        <ele>240</ele>
        <time>2024-05-20T09:09:36Z</time>
      </trkpt>
      <trkpt lat="43.52686" lon="1.15253">
        <ele>239.8</ele>
        <time>2024-05-20T09:09:37Z</time>
      </trkpt>
      <trkpt lat="43.52683" lon="1.15265">
        <ele>239.4</ele>
        <time>2024-05-20T09:09:38Z</time>
      </trkpt>
      <trkpt lat="43.52681" lon="1.15275">
        <ele>239.2</ele>
        <time>2024-05-20T09:09:39Z</time>
      </trkpt>
      <trkpt lat="43.52677" lon="1.15291">
        <ele>238.8</ele>
        <time>2024-05-20T09:09:40Z</time>
      </trkpt>
      <trkpt lat="43.52674" lon="1.15304">
        <ele>238.8</ele>
        <time>2024-05-20T09:09:41Z</time>
      </trkpt>
      <trkpt lat="43.52671" lon="1.15317">
        <ele>238.4</ele>
        <time>2024-05-20T09:09:42Z</time>
      </trkpt>
      <trkpt lat="43.52668" lon="1.1533">
        <ele>238.2</ele>
        <time>2024-05-20T09:09:43Z</time>
      </trkpt>
      <trkpt lat="43.52665" lon="1.15343">
        <ele>238.2</ele>
        <time>2024-05-20T09:09:44Z</time>
      </trkpt>
      <trkpt lat="43.52662" lon="1.15356">
        <ele>237.6</ele>
        <time>2024-05-20T09:09:45Z</time>
      </trkpt>
      <trkpt lat="43.52658" lon="1.15369">
        <ele>237.4</ele>
        <time>2024-05-20T09:09:46Z</time>
      </trkpt>
      <trkpt lat="43.52655" lon="1.15382">
        <ele>237</ele>
        <time>2024-05-20T09:09:47Z</time>
      </trkpt>
      <trkpt lat="43.52652" lon="1.15394">
        <ele>236.8</ele>
        <time>2024-05-20T09:09:48Z</time>
      </trkpt>
      <trkpt lat="43.52648" lon="1.15406">
        <ele>236.4</ele>
        <time>2024-05-20T09:09:49Z</time>
      </trkpt>
      <trkpt lat="43.52643" lon="1.15417">
        <ele>236</ele>
        <time>2024-05-20T09:09:50Z</time>
      </trkpt>
      <trkpt lat="43.52638" lon="1.15427">
        <ele>236</ele>
        <time>2024-05-20T09:09:51Z</time>
      </trkpt>
      <trkpt lat="43.52634" lon="1.15437">
        <ele>235.8</ele>
        <time>2024-05-20T09:09:52Z</time>
      </trkpt>
      <trkpt lat="43.52629" lon="1.15446">
        <ele>235.6</ele>
        <time>2024-05-20T09:09:53Z</time>
      </trkpt>
      <trkpt lat="43.52624" lon="1.15456">
        <ele>235.6</ele>
        <time>2024-05-20T09:09:54Z</time>
      </trkpt>
      <trkpt lat="43.52619" lon="1.15465">
        <ele>235.4</ele>
        <time>2024-05-20T09:09:55Z</time>
      </trkpt>
      <trkpt lat="43.52614" lon="1.15475">
        <ele>235.4</ele>
        <time>2024-05-20T09:09:56Z</time>
      </trkpt>
      <trkpt lat="43.52609" lon="1.15485">
        <ele>235.4</ele>
        <time>2024-05-20T09:09:57Z</time>
      </trkpt>
      <trkpt lat="43.52604" lon="1.15495">
        <ele>235.4</ele>
        <time>2024-05-20T09:09:58Z</time>
      </trkpt>
      <trkpt lat="43.52599" lon="1.15505">
        <ele>235.2</ele>
        <time>2024-05-20T09:09:59Z</time>
      </trkpt>
      <trkpt lat="43.52594" lon="1.15515">
        <ele>235.2</ele>
        <time>2024-05-20T09:10:00Z</time>
      </trkpt>
      <trkpt lat="43.52589" lon="1.15524">
        <ele>235.2</ele>
        <time>2024-05-20T09:10:01Z</time>
      </trkpt>
      <trkpt lat="43.52584" lon="1.15534">
        <ele>235.2</ele>
        <time>2024-05-20T09:10:02Z</time>
      </trkpt>
      <trkpt lat="43.52579" lon="1.15544">
        <ele>235</ele>
        <time>2024-05-20T09:10:03Z</time>
      </trkpt>
      <trkpt lat="43.52574" lon="1.15554">
        <ele>235</ele>
        <time>2024-05-20T09:10:04Z</time>
      </trkpt>
      <trkpt lat="43.52569" lon="1.15564">
        <ele>235</ele>
        <time>2024-05-20T09:10:05Z</time>
      </trkpt>
      <trkpt lat="43.52564" lon="1.15573">
        <ele>234.8</ele>
        <time>2024-05-20T09:10:06Z</time>
      </trkpt>
      <trkpt lat="43.52558" lon="1.15585">
        <ele>234.8</ele>
        <time>2024-05-20T09:10:07Z</time>
      </trkpt>
      <trkpt lat="43.52553" lon="1.15597">
        <ele>234.8</ele>
        <time>2024-05-20T09:10:08Z</time>
      </trkpt>
      <trkpt lat="43.52548" lon="1.15608">
        <ele>234.8</ele>
        <time>2024-05-20T09:10:09Z</time>
      </trkpt>
      <trkpt lat="43.52542" lon="1.1562">
        <ele>234.6</ele>
        <time>2024-05-20T09:10:10Z</time>
      </trkpt>
      <trkpt lat="43.52537" lon="1.15632">
        <ele>234.6</ele>
        <time>2024-05-20T09:10:11Z</time>
      </trkpt>
      <trkpt lat="43.52532" lon="1.15644">
        <ele>234.4</ele>
        <time>2024-05-20T09:10:12Z</time>
      </trkpt>
      <trkpt lat="43.52527" lon="1.15657">
        <ele>234.4</ele>
        <time>2024-05-20T09:10:13Z</time>
      </trkpt>
      <trkpt lat="43.52522" lon="1.1567">
        <ele>234.2</ele>
        <time>2024-05-20T09:10:14Z</time>
      </trkpt>
      <trkpt lat="43.52517" lon="1.15682">
        <ele>234.2</ele>
        <time>2024-05-20T09:10:15Z</time>
      </trkpt>
      <trkpt lat="43.52512" lon="1.15695">
        <ele>234</ele>
        <time>2024-05-20T09:10:16Z</time>
      </trkpt>
      <trkpt lat="43.52507" lon="1.15708">
        <ele>233.8</ele>
        <time>2024-05-20T09:10:17Z</time>
      </trkpt>
      <trkpt lat="43.52502" lon="1.15721">
        <ele>233.6</ele>
        <time>2024-05-20T09:10:18Z</time>
      </trkpt>
      <trkpt lat="43.52498" lon="1.15733">
        <ele>233.4</ele>
        <time>2024-05-20T09:10:19Z</time>
      </trkpt>
      <trkpt lat="43.52493" lon="1.15746">
        <ele>233.4</ele>
        <time>2024-05-20T09:10:20Z</time>
      </trkpt>
      <trkpt lat="43.52488" lon="1.15758">
        <ele>233.2</ele>
        <time>2024-05-20T09:10:21Z</time>
      </trkpt>
      <trkpt lat="43.52483" lon="1.1577">
        <ele>233.2</ele>
        <time>2024-05-20T09:10:22Z</time>
      </trkpt>
      <trkpt lat="43.52478" lon="1.15783">
        <ele>233.2</ele>
        <time>2024-05-20T09:10:23Z</time>
      </trkpt>
      <trkpt lat="43.52473" lon="1.15795">
        <ele>233</ele>
        <time>2024-05-20T09:10:24Z</time>
      </trkpt>
      <trkpt lat="43.52468" lon="1.15807">
        <ele>233</ele>
        <time>2024-05-20T09:10:25Z</time>
      </trkpt>
      <trkpt lat="43.52464" lon="1.1582">
        <ele>232.8</ele>
        <time>2024-05-20T09:10:26Z</time>
      </trkpt>
      <trkpt lat="43.52459" lon="1.15832">
        <ele>232.6</ele>
        <time>2024-05-20T09:10:27Z</time>
      </trkpt>
      <trkpt lat="43.52454" lon="1.15845">
        <ele>232.6</ele>
        <time>2024-05-20T09:10:28Z</time>
      </trkpt>
      <trkpt lat="43.52449" lon="1.15857">
        <ele>232.4</ele>
        <time>2024-05-20T09:10:29Z</time>
      </trkpt>
      <trkpt lat="43.52443" lon="1.1587">
        <ele>232.4</ele>
        <time>2024-05-20T09:10:30Z</time>
      </trkpt>
      <trkpt lat="43.52438" lon="1.15883">
        <ele>232.2</ele>
        <time>2024-05-20T09:10:31Z</time>
      </trkpt>
      <trkpt lat="43.52433" lon="1.15896">
        <ele>232</ele>
        <time>2024-05-20T09:10:32Z</time>
      </trkpt>
      <trkpt lat="43.52428" lon="1.15909">
        <ele>231.6</ele>
        <time>2024-05-20T09:10:33Z</time>
      </trkpt>
      <trkpt lat="43.52423" lon="1.15922">
        <ele>231.6</ele>
        <time>2024-05-20T09:10:34Z</time>
      </trkpt>
      <trkpt lat="43.52418" lon="1.15935">
        <ele>231.4</ele>
        <time>2024-05-20T09:10:35Z</time>
      </trkpt>
      <trkpt lat="43.52413" lon="1.15948">
        <ele>231.4</ele>
        <time>2024-05-20T09:10:36Z</time>
      </trkpt>
      <trkpt lat="43.52408" lon="1.15961">
        <ele>231.4</ele>
        <time>2024-05-20T09:10:37Z</time>
      </trkpt>
      <trkpt lat="43.52403" lon="1.15973">
        <ele>231.2</ele>
        <time>2024-05-20T09:10:38Z</time>
      </trkpt>
      <trkpt lat="43.52398" lon="1.15985">
        <ele>231.2</ele>
        <time>2024-05-20T09:10:39Z</time>
      </trkpt>
      <trkpt lat="43.52393" lon="1.15998">
        <ele>231.2</ele>
        <time>2024-05-20T09:10:40Z</time>
      </trkpt>
      <trkpt lat="43.52388" lon="1.1601">
        <ele>231</ele>
        <time>2024-05-20T09:10:41Z</time>
      </trkpt>
      <trkpt lat="43.52382" lon="1.16022">
        <ele>231</ele>
        <time>2024-05-20T09:10:42Z</time>
      </trkpt>
      <trkpt lat="43.52377" lon="1.16034">
        <ele>231</ele>
        <time>2024-05-20T09:10:43Z</time>
      </trkpt>
      <trkpt lat="43.52372" lon="1.16047">
        <ele>230.8</ele>
        <time>2024-05-20T09:10:44Z</time>
      </trkpt>
      <trkpt lat="43.52367" lon="1.16059">
        <ele>230.8</ele>
        <time>2024-05-20T09:10:45Z</time>
      </trkpt>
      <trkpt lat="43.52361" lon="1.16071">
        <ele>230.6</ele>
        <time>2024-05-20T09:10:46Z</time>
      </trkpt>
      <trkpt lat="43.52356" lon="1.16083">
        <ele>230.4</ele>
        <time>2024-05-20T09:10:47Z</time>
      </trkpt>
      <trkpt lat="43.52351" lon="1.16096">
        <ele>230.4</ele>
        <time>2024-05-20T09:10:48Z</time>
      </trkpt>
      <trkpt lat="43.52345" lon="1.16108">
        <ele>230.4</ele>
        <time>2024-05-20T09:10:49Z</time>
      </trkpt>
      <trkpt lat="43.52339" lon="1.16121">
        <ele>230.2</ele>
        <time>2024-05-20T09:10:50Z</time>
      </trkpt>
      <trkpt lat="43.52334" lon="1.16134">
        <ele>230</ele>
        <time>2024-05-20T09:10:51Z</time>
      </trkpt>
      <trkpt lat="43.52328" lon="1.16147">
        <ele>230</ele>
        <time>2024-05-20T09:10:52Z</time>
      </trkpt>
      <trkpt lat="43.52323" lon="1.1616">
        <ele>229.8</ele>
        <time>2024-05-20T09:10:53Z</time>
      </trkpt>
      <trkpt lat="43.52317" lon="1.16173">
        <ele>229.4</ele>
        <time>2024-05-20T09:10:54Z</time>
      </trkpt>
      <trkpt lat="43.52312" lon="1.16186">
        <ele>229.4</ele>
        <time>2024-05-20T09:10:55Z</time>
      </trkpt>
      <trkpt lat="43.52306" lon="1.16199">
        <ele>229.2</ele>
        <time>2024-05-20T09:10:56Z</time>
      </trkpt>
      <trkpt lat="43.52301" lon="1.16211">
        <ele>229</ele>
        <time>2024-05-20T09:10:57Z</time>
      </trkpt>
      <trkpt lat="43.52295" lon="1.16224">
        <ele>228.8</ele>
        <time>2024-05-20T09:10:58Z</time>
      </trkpt>
      <trkpt lat="43.5229" lon="1.16237">
        <ele>228.6</ele>
        <time>2024-05-20T09:10:59Z</time>
      </trkpt>
      <trkpt lat="43.52285" lon="1.16249">
        <ele>228.4</ele>
        <time>2024-05-20T09:11:00Z</time>
      </trkpt>
      <trkpt lat="43.5228" lon="1.16261">
        <ele>228</ele>
        <time>2024-05-20T09:11:01Z</time>
      </trkpt>
      <trkpt lat="43.52275" lon="1.16273">
        <ele>227.8</ele>
        <time>2024-05-20T09:11:02Z</time>
      </trkpt>
      <trkpt lat="43.5227" lon="1.16285">
        <ele>227.6</ele>
        <time>2024-05-20T09:11:03Z</time>
      </trkpt>
      <trkpt lat="43.52265" lon="1.16297">
        <ele>227.6</ele>
        <time>2024-05-20T09:11:04Z</time>
      </trkpt>
      <trkpt lat="43.5226" lon="1.16308">
        <ele>227.6</ele>
        <time>2024-05-20T09:11:05Z</time>
      </trkpt>
      <trkpt lat="43.52255" lon="1.1632">
        <ele>227.4</ele>
        <time>2024-05-20T09:11:06Z</time>
      </trkpt>
      <trkpt lat="43.52249" lon="1.16331">
        <ele>227.4</ele>
        <time>2024-05-20T09:11:07Z</time>
      </trkpt>
      <trkpt lat="43.52244" lon="1.16342">
        <ele>227.4</ele>
        <time>2024-05-20T09:11:08Z</time>
      </trkpt>
      <trkpt lat="43.52238" lon="1.16353">
        <ele>227.4</ele>
        <time>2024-05-20T09:11:09Z</time>
      </trkpt>
      <trkpt lat="43.52231" lon="1.16362">
        <ele>227.4</ele>
        <time>2024-05-20T09:11:10Z</time>
      </trkpt>
      <trkpt lat="43.52223" lon="1.1637">
        <ele>227.4</ele>
        <time>2024-05-20T09:11:11Z</time>
      </trkpt>
      <trkpt lat="43.52215" lon="1.16376">
        <ele>227.2</ele>
        <time>2024-05-20T09:11:12Z</time>
      </trkpt>
      <trkpt lat="43.52207" lon="1.16381">
        <ele>227.2</ele>
        <time>2024-05-20T09:11:13Z</time>
      </trkpt>
      <trkpt lat="43.52198" lon="1.16385">
        <ele>227.2</ele>
        <time>2024-05-20T09:11:14Z</time>
      </trkpt>
      <trkpt lat="43.52189" lon="1.16388">
        <ele>227</ele>
        <time>2024-05-20T09:11:15Z</time>
      </trkpt>
      <trkpt lat="43.5218" lon="1.16392">
        <ele>227</ele>
        <time>2024-05-20T09:11:16Z</time>
      </trkpt>
      <trkpt lat="43.5217" lon="1.16395">
        <ele>226.8</ele>
        <time>2024-05-20T09:11:17Z</time>
      </trkpt>
      <trkpt lat="43.52161" lon="1.16398">
        <ele>226.8</ele>
        <time>2024-05-20T09:11:18Z</time>
      </trkpt>
      <trkpt lat="43.52152" lon="1.16402">
        <ele>226.8</ele>
        <time>2024-05-20T09:11:19Z</time>
      </trkpt>
      <trkpt lat="43.52143" lon="1.16407">
        <ele>226.8</ele>
        <time>2024-05-20T09:11:20Z</time>
      </trkpt>
      <trkpt lat="43.52134" lon="1.16412">
        <ele>226.8</ele>
        <time>2024-05-20T09:11:21Z</time>
      </trkpt>
      <trkpt lat="43.52126" lon="1.16418">
        <ele>226.8</ele>
        <time>2024-05-20T09:11:22Z</time>
      </trkpt>
      <trkpt lat="43.52119" lon="1.16425">
        <ele>226.8</ele>
        <time>2024-05-20T09:11:23Z</time>
      </trkpt>
      <trkpt lat="43.52112" lon="1.16433">
        <ele>226.8</ele>
        <time>2024-05-20T09:11:24Z</time>
      </trkpt>
      <trkpt lat="43.52105" lon="1.16441">
        <ele>226.8</ele>
        <time>2024-05-20T09:11:25Z</time>
      </trkpt>
      <trkpt lat="43.52099" lon="1.1645">
        <ele>226.8</ele>
        <time>2024-05-20T09:11:26Z</time>
      </trkpt>
      <trkpt lat="43.52093" lon="1.16458">
        <ele>227</ele>
        <time>2024-05-20T09:11:27Z</time>
      </trkpt>
      <trkpt lat="43.52087" lon="1.16467">
        <ele>227</ele>
        <time>2024-05-20T09:11:28Z</time>
      </trkpt>
      <trkpt lat="43.5208" lon="1.16475">
        <ele>227</ele>
        <time>2024-05-20T09:11:29Z</time>
      </trkpt>
      <trkpt lat="43.52074" lon="1.16484">
        <ele>227</ele>
        <time>2024-05-20T09:11:30Z</time>
      </trkpt>
      <trkpt lat="43.52068" lon="1.16492">
        <ele>227.2</ele>
        <time>2024-05-20T09:11:31Z</time>
      </trkpt>
      <trkpt lat="43.52062" lon="1.165">
        <ele>227.2</ele>
        <time>2024-05-20T09:11:32Z</time>
      </trkpt>
      <trkpt lat="43.52056" lon="1.16509">
        <ele>227.4</ele>
        <time>2024-05-20T09:11:33Z</time>
      </trkpt>
      <trkpt lat="43.52049" lon="1.16517">
        <ele>227.6</ele>
        <time>2024-05-20T09:11:34Z</time>
      </trkpt>
      <trkpt lat="43.52043" lon="1.16525">
        <ele>228</ele>
        <time>2024-05-20T09:11:35Z</time>
      </trkpt>
      <trkpt lat="43.52037" lon="1.16534">
        <ele>228</ele>
        <time>2024-05-20T09:11:36Z</time>
      </trkpt>
      <trkpt lat="43.5203" lon="1.16543">
        <ele>228.2</ele>
        <time>2024-05-20T09:11:37Z</time>
      </trkpt>
      <trkpt lat="43.52024" lon="1.16551">
        <ele>228.4</ele>
        <time>2024-05-20T09:11:38Z</time>
      </trkpt>
      <trkpt lat="43.52018" lon="1.16559">
        <ele>228.4</ele>
        <time>2024-05-20T09:11:39Z</time>
      </trkpt>
      <trkpt lat="43.52011" lon="1.16568">
        <ele>228.6</ele>
        <time>2024-05-20T09:11:40Z</time>
      </trkpt>
      <trkpt lat="43.52005" lon="1.16577">
        <ele>228.6</ele>
        <time>2024-05-20T09:11:41Z</time>
      </trkpt>
      <trkpt lat="43.51999" lon="1.16586">
        <ele>228.6</ele>
        <time>2024-05-20T09:11:42Z</time>
      </trkpt>
      <trkpt lat="43.51992" lon="1.16594">
        <ele>228.8</ele>
        <time>2024-05-20T09:11:43Z</time>
      </trkpt>
      <trkpt lat="43.51986" lon="1.16603">
        <ele>228.8</ele>
        <time>2024-05-20T09:11:44Z</time>
      </trkpt>
      <trkpt lat="43.51979" lon="1.16612">
        <ele>228.8</ele>
        <time>2024-05-20T09:11:45Z</time>
      </trkpt>
      <trkpt lat="43.51973" lon="1.16621">
        <ele>228.8</ele>
        <time>2024-05-20T09:11:46Z</time>
      </trkpt>
      <trkpt lat="43.51966" lon="1.1663">
        <ele>228.8</ele>
        <time>2024-05-20T09:11:47Z</time>
      </trkpt>
      <trkpt lat="43.5196" lon="1.16639">
        <ele>228.8</ele>
        <time>2024-05-20T09:11:48Z</time>
      </trkpt>
      <trkpt lat="43.51954" lon="1.16648">
        <ele>228.6</ele>
        <time>2024-05-20T09:11:49Z</time>
      </trkpt>
      <trkpt lat="43.51947" lon="1.16657">
        <ele>228.6</ele>
        <time>2024-05-20T09:11:50Z</time>
      </trkpt>
      <trkpt lat="43.51941" lon="1.16666">
        <ele>228.6</ele>
        <time>2024-05-20T09:11:51Z</time>
      </trkpt>
      <trkpt lat="43.51934" lon="1.16675">
        <ele>228.6</ele>
        <time>2024-05-20T09:11:52Z</time>
      </trkpt>
      <trkpt lat="43.51928" lon="1.16684">
        <ele>228.6</ele>
        <time>2024-05-20T09:11:53Z</time>
      </trkpt>
      <trkpt lat="43.51922" lon="1.16693">
        <ele>228.4</ele>
        <time>2024-05-20T09:11:54Z</time>
      </trkpt>
      <trkpt lat="43.51915" lon="1.16702">
        <ele>228.4</ele>
        <time>2024-05-20T09:11:55Z</time>
      </trkpt>
      <trkpt lat="43.51909" lon="1.16711">
        <ele>228.4</ele>
        <time>2024-05-20T09:11:56Z</time>
      </trkpt>
      <trkpt lat="43.51902" lon="1.1672">
        <ele>228.4</ele>
        <time>2024-05-20T09:11:57Z</time>
      </trkpt>
      <trkpt lat="43.51895" lon="1.1673">
        <ele>228.4</ele>
        <time>2024-05-20T09:11:58Z</time>
      </trkpt>
      <trkpt lat="43.51889" lon="1.16739">
        <ele>228.2</ele>
        <time>2024-05-20T09:11:59Z</time>
      </trkpt>
      <trkpt lat="43.51882" lon="1.16748">
        <ele>228.2</ele>
        <time>2024-05-20T09:12:00Z</time>
      </trkpt>
      <trkpt lat="43.51875" lon="1.16757">
        <ele>228.2</ele>
        <time>2024-05-20T09:12:01Z</time>
      </trkpt>
      <trkpt lat="43.51868" lon="1.16767">
        <ele>228</ele>
        <time>2024-05-20T09:12:02Z</time>
      </trkpt>
      <trkpt lat="43.51861" lon="1.16776">
        <ele>228</ele>
        <time>2024-05-20T09:12:03Z</time>
      </trkpt>
      <trkpt lat="43.51855" lon="1.16786">
        <ele>228</ele>
        <time>2024-05-20T09:12:04Z</time>
      </trkpt>
      <trkpt lat="43.51848" lon="1.16795">
        <ele>227.8</ele>
        <time>2024-05-20T09:12:05Z</time>
      </trkpt>
      <trkpt lat="43.51841" lon="1.16805">
        <ele>227.8</ele>
        <time>2024-05-20T09:12:06Z</time>
      </trkpt>
      <trkpt lat="43.51835" lon="1.16814">
        <ele>227.6</ele>
        <time>2024-05-20T09:12:07Z</time>
      </trkpt>
      <trkpt lat="43.51828" lon="1.16823">
        <ele>227.6</ele>
        <time>2024-05-20T09:12:08Z</time>
      </trkpt>
      <trkpt lat="43.51821" lon="1.16832">
        <ele>227.6</ele>
        <time>2024-05-20T09:12:09Z</time>
      </trkpt>
      <trkpt lat="43.51815" lon="1.16841">
        <ele>227.4</ele>
        <time>2024-05-20T09:12:10Z</time>
      </trkpt>
      <trkpt lat="43.51808" lon="1.1685">
        <ele>227.4</ele>
        <time>2024-05-20T09:12:11Z</time>
      </trkpt>
      <trkpt lat="43.51802" lon="1.16859">
        <ele>227.6</ele>
        <time>2024-05-20T09:12:12Z</time>
      </trkpt>
      <trkpt lat="43.51795" lon="1.16868">
        <ele>227.6</ele>
        <time>2024-05-20T09:12:13Z</time>
      </trkpt>
      <trkpt lat="43.5179" lon="1.16876">
        <ele>227.6</ele>
        <time>2024-05-20T09:12:14Z</time>
      </trkpt>
      <trkpt lat="43.51784" lon="1.16884">
        <ele>227.6</ele>
        <time>2024-05-20T09:12:15Z</time>
      </trkpt>
      <trkpt lat="43.51777" lon="1.16892">
        <ele>227.6</ele>
        <time>2024-05-20T09:12:16Z</time>
      </trkpt>
      <trkpt lat="43.51771" lon="1.16901">
        <ele>227.8</ele>
        <time>2024-05-20T09:12:17Z</time>
      </trkpt>
      <trkpt lat="43.51765" lon="1.1691">
        <ele>227.8</ele>
        <time>2024-05-20T09:12:18Z</time>
      </trkpt>
      <trkpt lat="43.51759" lon="1.16918">
        <ele>228</ele>
        <time>2024-05-20T09:12:19Z</time>
      </trkpt>
      <trkpt lat="43.51754" lon="1.16925">
        <ele>228</ele>
        <time>2024-05-20T09:12:20Z</time>
      </trkpt>
      <trkpt lat="43.51747" lon="1.16936">
        <ele>228.2</ele>
        <time>2024-05-20T09:12:21Z</time>
      </trkpt>
      <trkpt lat="43.51741" lon="1.16944">
        <ele>228.2</ele>
        <time>2024-05-20T09:12:22Z</time>
      </trkpt>
      <trkpt lat="43.51735" lon="1.16953">
        <ele>228.2</ele>
        <time>2024-05-20T09:12:23Z</time>
      </trkpt>
      <trkpt lat="43.51729" lon="1.16962">
        <ele>228.2</ele>
        <time>2024-05-20T09:12:24Z</time>
      </trkpt>
      <trkpt lat="43.51723" lon="1.16971">
        <ele>228.2</ele>
        <time>2024-05-20T09:12:25Z</time>
      </trkpt>
      <trkpt lat="43.51717" lon="1.1698">
        <ele>228.2</ele>
        <time>2024-05-20T09:12:26Z</time>
      </trkpt>
      <trkpt lat="43.51711" lon="1.16989">
        <ele>228.2</ele>
        <time>2024-05-20T09:12:27Z</time>
      </trkpt>
      <trkpt lat="43.51705" lon="1.16999">
        <ele>228.4</ele>
        <time>2024-05-20T09:12:28Z</time>
      </trkpt>
      <trkpt lat="43.517" lon="1.17009">
        <ele>228.4</ele>
        <time>2024-05-20T09:12:29Z</time>
      </trkpt>
      <trkpt lat="43.51694" lon="1.17019">
        <ele>228.4</ele>
        <time>2024-05-20T09:12:30Z</time>
      </trkpt>
      <trkpt lat="43.51689" lon="1.17029">
        <ele>228.4</ele>
        <time>2024-05-20T09:12:31Z</time>
      </trkpt>
      <trkpt lat="43.51684" lon="1.17038">
        <ele>228.4</ele>
        <time>2024-05-20T09:12:32Z</time>
      </trkpt>
      <trkpt lat="43.51679" lon="1.17048">
        <ele>228.4</ele>
        <time>2024-05-20T09:12:33Z</time>
      </trkpt>
      <trkpt lat="43.51675" lon="1.17059">
        <ele>228.4</ele>
        <time>2024-05-20T09:12:34Z</time>
      </trkpt>
      <trkpt lat="43.5167" lon="1.17069">
        <ele>228.4</ele>
        <time>2024-05-20T09:12:35Z</time>
      </trkpt>
      <trkpt lat="43.51666" lon="1.17079">
        <ele>228.4</ele>
        <time>2024-05-20T09:12:36Z</time>
      </trkpt>
      <trkpt lat="43.51662" lon="1.1709">
        <ele>228.4</ele>
        <time>2024-05-20T09:12:37Z</time>
      </trkpt>
      <trkpt lat="43.51658" lon="1.17101">
        <ele>228.4</ele>
        <time>2024-05-20T09:12:38Z</time>
      </trkpt>
      <trkpt lat="43.51655" lon="1.17111">
        <ele>228.4</ele>
        <time>2024-05-20T09:12:39Z</time>
      </trkpt>
      <trkpt lat="43.51651" lon="1.17122">
        <ele>228.4</ele>
        <time>2024-05-20T09:12:40Z</time>
      </trkpt>
      <trkpt lat="43.51648" lon="1.17132">
        <ele>228.4</ele>
        <time>2024-05-20T09:12:41Z</time>
      </trkpt>
      <trkpt lat="43.51645" lon="1.17143">
        <ele>228.2</ele>
        <time>2024-05-20T09:12:42Z</time>
      </trkpt>
      <trkpt lat="43.51642" lon="1.17153">
        <ele>228.2</ele>
        <time>2024-05-20T09:12:43Z</time>
      </trkpt>
      <trkpt lat="43.51639" lon="1.17164">
        <ele>228</ele>
        <time>2024-05-20T09:12:44Z</time>
      </trkpt>
      <trkpt lat="43.51635" lon="1.17174">
        <ele>228</ele>
        <time>2024-05-20T09:12:45Z</time>
      </trkpt>
      <trkpt lat="43.51632" lon="1.17185">
        <ele>228</ele>
        <time>2024-05-20T09:12:46Z</time>
      </trkpt>
      <trkpt lat="43.51629" lon="1.17196">
        <ele>227.8</ele>
        <time>2024-05-20T09:12:47Z</time>
      </trkpt>
      <trkpt lat="43.51626" lon="1.17207">
        <ele>227.8</ele>
        <time>2024-05-20T09:12:48Z</time>
      </trkpt>
      <trkpt lat="43.51623" lon="1.17218">
        <ele>227.6</ele>
        <time>2024-05-20T09:12:49Z</time>
      </trkpt>
      <trkpt lat="43.5162" lon="1.17229">
        <ele>227.6</ele>
        <time>2024-05-20T09:12:50Z</time>
      </trkpt>
      <trkpt lat="43.51617" lon="1.1724">
        <ele>227.4</ele>
        <time>2024-05-20T09:12:51Z</time>
      </trkpt>
      <trkpt lat="43.51614" lon="1.17251">
        <ele>227.4</ele>
        <time>2024-05-20T09:12:52Z</time>
      </trkpt>
      <trkpt lat="43.51612" lon="1.17261">
        <ele>227.4</ele>
        <time>2024-05-20T09:12:53Z</time>
      </trkpt>
      <trkpt lat="43.51609" lon="1.17271">
        <ele>227.2</ele>
        <time>2024-05-20T09:12:54Z</time>
      </trkpt>
      <trkpt lat="43.51607" lon="1.17282">
        <ele>227.2</ele>
        <time>2024-05-20T09:12:55Z</time>
      </trkpt>
      <trkpt lat="43.51604" lon="1.17292">
        <ele>227.2</ele>
        <time>2024-05-20T09:12:56Z</time>
      </trkpt>
      <trkpt lat="43.51602" lon="1.17303">
        <ele>227</ele>
        <time>2024-05-20T09:12:57Z</time>
      </trkpt>
      <trkpt lat="43.51599" lon="1.17315">
        <ele>227</ele>
        <time>2024-05-20T09:12:58Z</time>
      </trkpt>
      <trkpt lat="43.51597" lon="1.17326">
        <ele>226.8</ele>
        <time>2024-05-20T09:12:59Z</time>
      </trkpt>
      <trkpt lat="43.51594" lon="1.17338">
        <ele>226.6</ele>
        <time>2024-05-20T09:13:00Z</time>
      </trkpt>
      <trkpt lat="43.51591" lon="1.17351">
        <ele>226.4</ele>
        <time>2024-05-20T09:13:01Z</time>
      </trkpt>
      <trkpt lat="43.51589" lon="1.17364">
        <ele>226</ele>
        <time>2024-05-20T09:13:02Z</time>
      </trkpt>
      <trkpt lat="43.51586" lon="1.17377">
        <ele>225.6</ele>
        <time>2024-05-20T09:13:03Z</time>
      </trkpt>
      <trkpt lat="43.51583" lon="1.17391">
        <ele>225.2</ele>
        <time>2024-05-20T09:13:04Z</time>
      </trkpt>
      <trkpt lat="43.5158" lon="1.17405">
        <ele>224.2</ele>
        <time>2024-05-20T09:13:05Z</time>
      </trkpt>
      <trkpt lat="43.51577" lon="1.17419">
        <ele>223.8</ele>
        <time>2024-05-20T09:13:06Z</time>
      </trkpt>
      <trkpt lat="43.51574" lon="1.17433">
        <ele>223.2</ele>
        <time>2024-05-20T09:13:07Z</time>
      </trkpt>
      <trkpt lat="43.51571" lon="1.17445">
        <ele>222.8</ele>
        <time>2024-05-20T09:13:08Z</time>
      </trkpt>
      <trkpt lat="43.51568" lon="1.17457">
        <ele>221.8</ele>
        <time>2024-05-20T09:13:09Z</time>
      </trkpt>
      <trkpt lat="43.51565" lon="1.17467">
        <ele>220.6</ele>
        <time>2024-05-20T09:13:10Z</time>
      </trkpt>
      <trkpt lat="43.51563" lon="1.17478">
        <ele>220.4</ele>
        <time>2024-05-20T09:13:11Z</time>
      </trkpt>
      <trkpt lat="43.51561" lon="1.17487">
        <ele>219.8</ele>
        <time>2024-05-20T09:13:12Z</time>
      </trkpt>
      <trkpt lat="43.5156" lon="1.17494">
        <ele>219.4</ele>
        <time>2024-05-20T09:13:13Z</time>
      </trkpt>
      <trkpt lat="43.51558" lon="1.175">
        <ele>218.4</ele>
        <time>2024-05-20T09:13:14Z</time>
      </trkpt>
      <trkpt lat="43.51558" lon="1.17503">
        <ele>218</ele>
        <time>2024-05-20T09:13:15Z</time>
      </trkpt>
      <trkpt lat="43.51557" lon="1.17506">
        <ele>217.4</ele>
        <time>2024-05-20T09:13:16Z</time>
      </trkpt>
      <trkpt lat="43.51556" lon="1.17508">
        <ele>217</ele>
        <time>2024-05-20T09:13:17Z</time>
      </trkpt>
      <trkpt lat="43.51555" lon="1.17511">
        <ele>216.8</ele>
        <time>2024-05-20T09:13:18Z</time>
      </trkpt>
      <trkpt lat="43.51555" lon="1.17513">
        <ele>216.6</ele>
        <time>2024-05-20T09:13:19Z</time>
      </trkpt>
      <trkpt lat="43.51554" lon="1.17514">
        <ele>216.6</ele>
        <time>2024-05-20T09:13:20Z</time>
      </trkpt>
      <trkpt lat="43.51554" lon="1.17514">
        <ele>216.4</ele>
        <time>2024-05-20T09:13:21Z</time>
      </trkpt>
      <trkpt lat="43.51554" lon="1.17514">
        <ele>216.2</ele>
        <time>2024-05-20T09:13:22Z</time>
      </trkpt>
      <trkpt lat="43.51554" lon="1.17514">
        <ele>216.2</ele>
        <time>2024-05-20T09:13:23Z</time>
      </trkpt>
      <trkpt lat="43.51554" lon="1.17514">
        <ele>216</ele>
        <time>2024-05-20T09:13:24Z</time>
      </trkpt>
      <trkpt lat="43.51557" lon="1.17524">
        <ele>215.6</ele>
        <time>2024-05-20T09:13:36Z</time>
      </trkpt>
      <trkpt lat="43.51558" lon="1.17526">
        <ele>215.6</ele>
        <time>2024-05-20T09:13:37Z</time>
      </trkpt>
      <trkpt lat="43.5156" lon="1.17529">
        <ele>215.6</ele>
        <time>2024-05-20T09:13:38Z</time>
      </trkpt>
      <trkpt lat="43.51562" lon="1.17531">
        <ele>215.6</ele>
        <time>2024-05-20T09:13:39Z</time>
      </trkpt>
      <trkpt lat="43.51565" lon="1.17534">
        <ele>215.4</ele>
        <time>2024-05-20T09:13:40Z</time>
      </trkpt>
      <trkpt lat="43.51567" lon="1.17539">
        <ele>215.4</ele>
        <time>2024-05-20T09:13:41Z</time>
      </trkpt>
      <trkpt lat="43.5157" lon="1.17543">
        <ele>215.4</ele>
        <time>2024-05-20T09:13:42Z</time>
      </trkpt>
      <trkpt lat="43.51573" lon="1.17549">
        <ele>215.4</ele>
        <time>2024-05-20T09:13:43Z</time>
      </trkpt>
      <trkpt lat="43.51576" lon="1.17554">
        <ele>215.4</ele>
        <time>2024-05-20T09:13:44Z</time>
      </trkpt>
      <trkpt lat="43.51579" lon="1.1756">
        <ele>215.2</ele>
        <time>2024-05-20T09:13:45Z</time>
      </trkpt>
      <trkpt lat="43.51582" lon="1.17567">
        <ele>215.2</ele>
        <time>2024-05-20T09:13:46Z</time>
      </trkpt>
      <trkpt lat="43.51586" lon="1.17573">
        <ele>215.2</ele>
        <time>2024-05-20T09:13:47Z</time>
      </trkpt>
      <trkpt lat="43.5159" lon="1.17578">
        <ele>215</ele>
        <time>2024-05-20T09:13:48Z</time>
      </trkpt>
      <trkpt lat="43.51595" lon="1.17583">
        <ele>215</ele>
        <time>2024-05-20T09:13:49Z</time>
      </trkpt>
      <trkpt lat="43.51601" lon="1.17587">
        <ele>215</ele>
        <time>2024-05-20T09:13:50Z</time>
      </trkpt>
      <trkpt lat="43.51606" lon="1.17591">
        <ele>214.8</ele>
        <time>2024-05-20T09:13:51Z</time>
      </trkpt>
      <trkpt lat="43.51612" lon="1.17595">
        <ele>214.8</ele>
        <time>2024-05-20T09:13:52Z</time>
      </trkpt>
      <trkpt lat="43.51617" lon="1.17598">
        <ele>214.8</ele>
        <time>2024-05-20T09:13:53Z</time>
      </trkpt>
      <trkpt lat="43.51622" lon="1.17603">
        <ele>214.8</ele>
        <time>2024-05-20T09:13:54Z</time>
      </trkpt>
      <trkpt lat="43.51627" lon="1.17608">
        <ele>214.8</ele>
        <time>2024-05-20T09:13:55Z</time>
      </trkpt>
      <trkpt lat="43.51632" lon="1.17614">
        <ele>214.8</ele>
        <time>2024-05-20T09:13:56Z</time>
      </trkpt>
      <trkpt lat="43.51637" lon="1.1762">
        <ele>214.8</ele>
        <time>2024-05-20T09:13:57Z</time>
      </trkpt>
      <trkpt lat="43.51642" lon="1.17626">
        <ele>214.8</ele>
        <time>2024-05-20T09:13:58Z</time>
      </trkpt>
      <trkpt lat="43.51646" lon="1.17631">
        <ele>214.8</ele>
        <time>2024-05-20T09:13:59Z</time>
      </trkpt>
      <trkpt lat="43.51651" lon="1.17637">
        <ele>214.8</ele>
        <time>2024-05-20T09:14:00Z</time>
      </trkpt>
      <trkpt lat="43.51656" lon="1.17641">
        <ele>214.8</ele>
        <time>2024-05-20T09:14:01Z</time>
      </trkpt>
      <trkpt lat="43.51662" lon="1.17644">
        <ele>214.8</ele>
        <time>2024-05-20T09:14:02Z</time>
      </trkpt>
      <trkpt lat="43.51667" lon="1.17646">
        <ele>214.8</ele>
        <time>2024-05-20T09:14:03Z</time>
      </trkpt>
      <trkpt lat="43.51673" lon="1.17649">
        <ele>215</ele>
        <time>2024-05-20T09:14:04Z</time>
      </trkpt>
      <trkpt lat="43.51678" lon="1.17652">
        <ele>215</ele>
        <time>2024-05-20T09:14:05Z</time>
      </trkpt>
      <trkpt lat="43.51683" lon="1.17654">
        <ele>215.2</ele>
        <time>2024-05-20T09:14:06Z</time>
      </trkpt>
      <trkpt lat="43.51688" lon="1.17656">
        <ele>215.2</ele>
        <time>2024-05-20T09:14:07Z</time>
      </trkpt>
      <trkpt lat="43.51692" lon="1.17658">
        <ele>215.4</ele>
        <time>2024-05-20T09:14:08Z</time>
      </trkpt>
      <trkpt lat="43.51696" lon="1.17659">
        <ele>215.6</ele>
        <time>2024-05-20T09:14:09Z</time>
      </trkpt>
      <trkpt lat="43.517" lon="1.17661">
        <ele>215.8</ele>
        <time>2024-05-20T09:14:10Z</time>
      </trkpt>
      <trkpt lat="43.51703" lon="1.17661">
        <ele>216</ele>
        <time>2024-05-20T09:14:11Z</time>
      </trkpt>
      <trkpt lat="43.51708" lon="1.17662">
        <ele>216</ele>
        <time>2024-05-20T09:14:12Z</time>
      </trkpt>
      <trkpt lat="43.51711" lon="1.17662">
        <ele>216.2</ele>
        <time>2024-05-20T09:14:13Z</time>
      </trkpt>
      <trkpt lat="43.51714" lon="1.17663">
        <ele>216.8</ele>
        <time>2024-05-20T09:14:14Z</time>
      </trkpt>
      <trkpt lat="43.51717" lon="1.17664">
        <ele>217</ele>
        <time>2024-05-20T09:14:15Z</time>
      </trkpt>
      <trkpt lat="43.51719" lon="1.17666">
        <ele>217.4</ele>
        <time>2024-05-20T09:14:16Z</time>
      </trkpt>
      <trkpt lat="43.5172" lon="1.1767">
        <ele>218.2</ele>
        <time>2024-05-20T09:14:17Z</time>
      </trkpt>
      <trkpt lat="43.51722" lon="1.17675">
        <ele>218.4</ele>
        <time>2024-05-20T09:14:18Z</time>
      </trkpt>
      <trkpt lat="43.51724" lon="1.1768">
        <ele>219</ele>
        <time>2024-05-20T09:14:19Z</time>
      </trkpt>
      <trkpt lat="43.51727" lon="1.17685">
        <ele>219.4</ele>
        <time>2024-05-20T09:14:20Z</time>
      </trkpt>
      <trkpt lat="43.5173" lon="1.17691">
        <ele>219.8</ele>
        <time>2024-05-20T09:14:21Z</time>
      </trkpt>
      <trkpt lat="43.51732" lon="1.17697">
        <ele>219.8</ele>
        <time>2024-05-20T09:14:22Z</time>
      </trkpt>
      <trkpt lat="43.51734" lon="1.17705">
        <ele>220</ele>
        <time>2024-05-20T09:14:23Z</time>
      </trkpt>
      <trkpt lat="43.51736" lon="1.17711">
        <ele>220.2</ele>
        <time>2024-05-20T09:14:24Z</time>
      </trkpt>
      <trkpt lat="43.51738" lon="1.17718">
        <ele>220.2</ele>
        <time>2024-05-20T09:14:25Z</time>
      </trkpt>
      <trkpt lat="43.5174" lon="1.17725">
        <ele>220.4</ele>
        <time>2024-05-20T09:14:26Z</time>
      </trkpt>
      <trkpt lat="43.51742" lon="1.17733">
        <ele>220.4</ele>
        <time>2024-05-20T09:14:27Z</time>
      </trkpt>
      <trkpt lat="43.51743" lon="1.17739">
        <ele>220.6</ele>
        <time>2024-05-20T09:14:28Z</time>
      </trkpt>
      <trkpt lat="43.51744" lon="1.17747">
        <ele>220.8</ele>
        <time>2024-05-20T09:14:29Z</time>
      </trkpt>
      <trkpt lat="43.51745" lon="1.17754">
        <ele>220.8</ele>
        <time>2024-05-20T09:14:30Z</time>
      </trkpt>
      <trkpt lat="43.51745" lon="1.17761">
        <ele>221</ele>
        <time>2024-05-20T09:14:31Z</time>
      </trkpt>
      <trkpt lat="43.51745" lon="1.17769">
        <ele>221.2</ele>
        <time>2024-05-20T09:14:32Z</time>
      </trkpt>
      <trkpt lat="43.51745" lon="1.17777">
        <ele>221.4</ele>
        <time>2024-05-20T09:14:33Z</time>
      </trkpt>
      <trkpt lat="43.51745" lon="1.17785">
        <ele>221.4</ele>
        <time>2024-05-20T09:14:34Z</time>
      </trkpt>
      <trkpt lat="43.51744" lon="1.17793">
        <ele>221.6</ele>
        <time>2024-05-20T09:14:35Z</time>
      </trkpt>
      <trkpt lat="43.51744" lon="1.17802">
        <ele>221.8</ele>
        <time>2024-05-20T09:14:36Z</time>
      </trkpt>
      <trkpt lat="43.51743" lon="1.1781">
        <ele>222</ele>
        <time>2024-05-20T09:14:37Z</time>
      </trkpt>
      <trkpt lat="43.51742" lon="1.17818">
        <ele>222</ele>
        <time>2024-05-20T09:14:38Z</time>
      </trkpt>
      <trkpt lat="43.51742" lon="1.17827">
        <ele>222.2</ele>
        <time>2024-05-20T09:14:39Z</time>
      </trkpt>
      <trkpt lat="43.51741" lon="1.17836">
        <ele>222.2</ele>
        <time>2024-05-20T09:14:40Z</time>
      </trkpt>
      <trkpt lat="43.5174" lon="1.17845">
        <ele>222.2</ele>
        <time>2024-05-20T09:14:41Z</time>
      </trkpt>
      <trkpt lat="43.51739" lon="1.17854">
        <ele>222.2</ele>
        <time>2024-05-20T09:14:42Z</time>
      </trkpt>
      <trkpt lat="43.51739" lon="1.17862">
        <ele>222.2</ele>
        <time>2024-05-20T09:14:43Z</time>
      </trkpt>
      <trkpt lat="43.51738" lon="1.17871">
        <ele>222</ele>
        <time>2024-05-20T09:14:44Z</time>
      </trkpt>
      <trkpt lat="43.51738" lon="1.1788">
        <ele>222.4</ele>
        <time>2024-05-20T09:14:45Z</time>
      </trkpt>
      <trkpt lat="43.51737" lon="1.17888">
        <ele>222.4</ele>
        <time>2024-05-20T09:14:46Z</time>
      </trkpt>
      <trkpt lat="43.51737" lon="1.17897">
        <ele>222.2</ele>
        <time>2024-05-20T09:14:47Z</time>
      </trkpt>
      <trkpt lat="43.51736" lon="1.17905">
        <ele>222.2</ele>
        <time>2024-05-20T09:14:48Z</time>
      </trkpt>
      <trkpt lat="43.51736" lon="1.17914">
        <ele>222.2</ele>
        <time>2024-05-20T09:14:49Z</time>
      </trkpt>
      <trkpt lat="43.51736" lon="1.17922">
        <ele>222.4</ele>
        <time>2024-05-20T09:14:50Z</time>
      </trkpt>
      <trkpt lat="43.51736" lon="1.1793">
        <ele>222.6</ele>
        <time>2024-05-20T09:14:51Z</time>
      </trkpt>
      <trkpt lat="43.51735" lon="1.17937">
        <ele>222.4</ele>
        <time>2024-05-20T09:14:52Z</time>
      </trkpt>
      <trkpt lat="43.51735" lon="1.17943">
        <ele>222.6</ele>
        <time>2024-05-20T09:14:53Z</time>
      </trkpt>
      <trkpt lat="43.51735" lon="1.17947">
        <ele>222.4</ele>
        <time>2024-05-20T09:14:54Z</time>
      </trkpt>
      <trkpt lat="43.51734" lon="1.1795">
        <ele>222.4</ele>
        <time>2024-05-20T09:14:55Z</time>
      </trkpt>
      <trkpt lat="43.51735" lon="1.17952">
        <ele>222.4</ele>
        <time>2024-05-20T09:14:56Z</time>
      </trkpt>
      <trkpt lat="43.51735" lon="1.17954">
        <ele>222.4</ele>
        <time>2024-05-20T09:14:57Z</time>
      </trkpt>
      <trkpt lat="43.51735" lon="1.17955">
        <ele>222.4</ele>
        <time>2024-05-20T09:14:58Z</time>
      </trkpt>
      <trkpt lat="43.51735" lon="1.17956">
        <ele>222.4</ele>
        <time>2024-05-20T09:14:59Z</time>
      </trkpt>
      <trkpt lat="43.51735" lon="1.17957">
        <ele>222.2</ele>
        <time>2024-05-20T09:15:00Z</time>
      </trkpt>
      <trkpt lat="43.51735" lon="1.17958">
        <ele>222.2</ele>
        <time>2024-05-20T09:15:01Z</time>
      </trkpt>
      <trkpt lat="43.51736" lon="1.17959">
        <ele>222.2</ele>
        <time>2024-05-20T09:15:02Z</time>
      </trkpt>
      <trkpt lat="43.51736" lon="1.1796">
        <ele>222.2</ele>
        <time>2024-05-20T09:15:03Z</time>
      </trkpt>
      <trkpt lat="43.51738" lon="1.17962">
        <ele>222.2</ele>
        <time>2024-05-20T09:15:04Z</time>
      </trkpt>
      <trkpt lat="43.51739" lon="1.17964">
        <ele>222</ele>
        <time>2024-05-20T09:15:05Z</time>
      </trkpt>
      <trkpt lat="43.51742" lon="1.17965">
        <ele>222</ele>
        <time>2024-05-20T09:15:06Z</time>
      </trkpt>
      <trkpt lat="43.51745" lon="1.17965">
        <ele>222</ele>
        <time>2024-05-20T09:15:07Z</time>
      </trkpt>
      <trkpt lat="43.51748" lon="1.17965">
        <ele>222</ele>
        <time>2024-05-20T09:15:08Z</time>
      </trkpt>
      <trkpt lat="43.51751" lon="1.17965">
        <ele>222</ele>
        <time>2024-05-20T09:15:09Z</time>
      </trkpt>
      <trkpt lat="43.51754" lon="1.17965">
        <ele>222</ele>
        <time>2024-05-20T09:15:10Z</time>
      </trkpt>
      <trkpt lat="43.51758" lon="1.17966">
        <ele>222</ele>
        <time>2024-05-20T09:15:11Z</time>
      </trkpt>
      <trkpt lat="43.51761" lon="1.17966">
        <ele>222</ele>
        <time>2024-05-20T09:15:12Z</time>
      </trkpt>
      <trkpt lat="43.51765" lon="1.17967">
        <ele>222</ele>
        <time>2024-05-20T09:15:13Z</time>
      </trkpt>
      <trkpt lat="43.51769" lon="1.17968">
        <ele>222.2</ele>
        <time>2024-05-20T09:15:14Z</time>
      </trkpt>
      <trkpt lat="43.51773" lon="1.17969">
        <ele>222.4</ele>
        <time>2024-05-20T09:15:15Z</time>
      </trkpt>
      <trkpt lat="43.51776" lon="1.1797">
        <ele>222.6</ele>
        <time>2024-05-20T09:15:16Z</time>
      </trkpt>
      <trkpt lat="43.51781" lon="1.17971">
        <ele>222.8</ele>
        <time>2024-05-20T09:15:17Z</time>
      </trkpt>
      <trkpt lat="43.51785" lon="1.17972">
        <ele>223</ele>
        <time>2024-05-20T09:15:18Z</time>
      </trkpt>
      <trkpt lat="43.51789" lon="1.17973">
        <ele>223.4</ele>
        <time>2024-05-20T09:15:19Z</time>
      </trkpt>
      <trkpt lat="43.51794" lon="1.17974">
        <ele>223.6</ele>
        <time>2024-05-20T09:15:20Z</time>
      </trkpt>
      <trkpt lat="43.51799" lon="1.17975">
        <ele>224</ele>
        <time>2024-05-20T09:15:21Z</time>
      </trkpt>
      <trkpt lat="43.51805" lon="1.17976">
        <ele>224.4</ele>
        <time>2024-05-20T09:15:22Z</time>
      </trkpt>
      <trkpt lat="43.5181" lon="1.17977">
        <ele>224.6</ele>
        <time>2024-05-20T09:15:23Z</time>
      </trkpt>
      <trkpt lat="43.51816" lon="1.17978">
        <ele>224.8</ele>
        <time>2024-05-20T09:15:24Z</time>
      </trkpt>
      <trkpt lat="43.51822" lon="1.17979">
        <ele>224.8</ele>
        <time>2024-05-20T09:15:25Z</time>
      </trkpt>
      <trkpt lat="43.51828" lon="1.1798">
        <ele>225</ele>
        <time>2024-05-20T09:15:26Z</time>
      </trkpt>
      <trkpt lat="43.51835" lon="1.17981">
        <ele>225.2</ele>
        <time>2024-05-20T09:15:27Z</time>
      </trkpt>
      <trkpt lat="43.51841" lon="1.17983">
        <ele>225.4</ele>
        <time>2024-05-20T09:15:28Z</time>
      </trkpt>
      <trkpt lat="43.51848" lon="1.17984">
        <ele>225.6</ele>
        <time>2024-05-20T09:15:29Z</time>
      </trkpt>
      <trkpt lat="43.51854" lon="1.17985">
        <ele>225.8</ele>
        <time>2024-05-20T09:15:30Z</time>
      </trkpt>
      <trkpt lat="43.5186" lon="1.17986">
        <ele>226</ele>
        <time>2024-05-20T09:15:31Z</time>
      </trkpt>
      <trkpt lat="43.51867" lon="1.17987">
        <ele>226.4</ele>
        <time>2024-05-20T09:15:32Z</time>
      </trkpt>
      <trkpt lat="43.51874" lon="1.17989">
        <ele>226.8</ele>
        <time>2024-05-20T09:15:33Z</time>
      </trkpt>
      <trkpt lat="43.51881" lon="1.1799">
        <ele>227</ele>
        <time>2024-05-20T09:15:34Z</time>
      </trkpt>
      <trkpt lat="43.51888" lon="1.17991">
        <ele>227.2</ele>
        <time>2024-05-20T09:15:35Z</time>
      </trkpt>
      <trkpt lat="43.51895" lon="1.17992">
        <ele>227.2</ele>
        <time>2024-05-20T09:15:36Z</time>
      </trkpt>
      <trkpt lat="43.51902" lon="1.17995">
        <ele>227.4</ele>
        <time>2024-05-20T09:15:37Z</time>
      </trkpt>
      <trkpt lat="43.51909" lon="1.17996">
        <ele>227.6</ele>
        <time>2024-05-20T09:15:38Z</time>
      </trkpt>
      <trkpt lat="43.51916" lon="1.17998">
        <ele>227.6</ele>
        <time>2024-05-20T09:15:39Z</time>
      </trkpt>
      <trkpt lat="43.51923" lon="1.18001">
        <ele>227.6</ele>
        <time>2024-05-20T09:15:40Z</time>
      </trkpt>
      <trkpt lat="43.5193" lon="1.18003">
        <ele>227.6</ele>
        <time>2024-05-20T09:15:41Z</time>
      </trkpt>
      <trkpt lat="43.51937" lon="1.18006">
        <ele>227.6</ele>
        <time>2024-05-20T09:15:42Z</time>
      </trkpt>
      <trkpt lat="43.51944" lon="1.18008">
        <ele>227.6</ele>
        <time>2024-05-20T09:15:43Z</time>
      </trkpt>
      <trkpt lat="43.51951" lon="1.1801">
        <ele>227.6</ele>
        <time>2024-05-20T09:15:44Z</time>
      </trkpt>
      <trkpt lat="43.51958" lon="1.18013">
        <ele>227.6</ele>
        <time>2024-05-20T09:15:45Z</time>
      </trkpt>
      <trkpt lat="43.51965" lon="1.18016">
        <ele>227.6</ele>
        <time>2024-05-20T09:15:46Z</time>
      </trkpt>
      <trkpt lat="43.51972" lon="1.18019">
        <ele>227.6</ele>
        <time>2024-05-20T09:15:47Z</time>
      </trkpt>
      <trkpt lat="43.51979" lon="1.18021">
        <ele>227.6</ele>
        <time>2024-05-20T09:15:48Z</time>
      </trkpt>
      <trkpt lat="43.51986" lon="1.18024">
        <ele>227.6</ele>
        <time>2024-05-20T09:15:49Z</time>
      </trkpt>
      <trkpt lat="43.51992" lon="1.18026">
        <ele>227.6</ele>
        <time>2024-05-20T09:15:50Z</time>
      </trkpt>
      <trkpt lat="43.51999" lon="1.18028">
        <ele>227.6</ele>
        <time>2024-05-20T09:15:51Z</time>
      </trkpt>
      <trkpt lat="43.52005" lon="1.18031">
        <ele>227.6</ele>
        <time>2024-05-20T09:15:52Z</time>
      </trkpt>
      <trkpt lat="43.52011" lon="1.18033">
        <ele>227.6</ele>
        <time>2024-05-20T09:15:53Z</time>
      </trkpt>
      <trkpt lat="43.52018" lon="1.18036">
        <ele>227.6</ele>
        <time>2024-05-20T09:15:54Z</time>
      </trkpt>
      <trkpt lat="43.52025" lon="1.18038">
        <ele>227.6</ele>
        <time>2024-05-20T09:15:55Z</time>
      </trkpt>
      <trkpt lat="43.52031" lon="1.1804">
        <ele>227.6</ele>
        <time>2024-05-20T09:15:56Z</time>
      </trkpt>
      <trkpt lat="43.52037" lon="1.18042">
        <ele>227.6</ele>
        <time>2024-05-20T09:15:57Z</time>
      </trkpt>
      <trkpt lat="43.52045" lon="1.18045">
        <ele>227.6</ele>
        <time>2024-05-20T09:15:58Z</time>
      </trkpt>
      <trkpt lat="43.52052" lon="1.18048">
        <ele>227.6</ele>
        <time>2024-05-20T09:15:59Z</time>
      </trkpt>
      <trkpt lat="43.52059" lon="1.18051">
        <ele>227.6</ele>
        <time>2024-05-20T09:16:00Z</time>
      </trkpt>
      <trkpt lat="43.52066" lon="1.18053">
        <ele>227.6</ele>
        <time>2024-05-20T09:16:01Z</time>
      </trkpt>
      <trkpt lat="43.52072" lon="1.18056">
        <ele>227.6</ele>
        <time>2024-05-20T09:16:02Z</time>
      </trkpt>
      <trkpt lat="43.52079" lon="1.18058">
        <ele>227.6</ele>
        <time>2024-05-20T09:16:03Z</time>
      </trkpt>
      <trkpt lat="43.52086" lon="1.18061">
        <ele>227.6</ele>
        <time>2024-05-20T09:16:04Z</time>
      </trkpt>
      <trkpt lat="43.52093" lon="1.18063">
        <ele>227.6</ele>
        <time>2024-05-20T09:16:05Z</time>
      </trkpt>
      <trkpt lat="43.521" lon="1.18066">
        <ele>227.6</ele>
        <time>2024-05-20T09:16:06Z</time>
      </trkpt>
      <trkpt lat="43.52107" lon="1.18069">
        <ele>227.6</ele>
        <time>2024-05-20T09:16:07Z</time>
      </trkpt>
      <trkpt lat="43.52114" lon="1.18071">
        <ele>227.6</ele>
        <time>2024-05-20T09:16:08Z</time>
      </trkpt>
      <trkpt lat="43.52121" lon="1.18074">
        <ele>227.6</ele>
        <time>2024-05-20T09:16:09Z</time>
      </trkpt>
      <trkpt lat="43.52129" lon="1.18077">
        <ele>227.6</ele>
        <time>2024-05-20T09:16:10Z</time>
      </trkpt>
      <trkpt lat="43.52135" lon="1.18079">
        <ele>227.6</ele>
        <time>2024-05-20T09:16:11Z</time>
      </trkpt>
      <trkpt lat="43.52143" lon="1.18082">
        <ele>227.8</ele>
        <time>2024-05-20T09:16:12Z</time>
      </trkpt>
      <trkpt lat="43.52151" lon="1.18085">
        <ele>227.8</ele>
        <time>2024-05-20T09:16:13Z</time>
      </trkpt>
      <trkpt lat="43.52158" lon="1.18087">
        <ele>227.8</ele>
        <time>2024-05-20T09:16:14Z</time>
      </trkpt>
      <trkpt lat="43.52165" lon="1.1809">
        <ele>227.6</ele>
        <time>2024-05-20T09:16:15Z</time>
      </trkpt>
      <trkpt lat="43.52173" lon="1.18093">
        <ele>227.6</ele>
        <time>2024-05-20T09:16:16Z</time>
      </trkpt>
      <trkpt lat="43.5218" lon="1.18095">
        <ele>227.6</ele>
        <time>2024-05-20T09:16:17Z</time>
      </trkpt>
      <trkpt lat="43.52187" lon="1.18098">
        <ele>227.6</ele>
        <time>2024-05-20T09:16:18Z</time>
      </trkpt>
      <trkpt lat="43.52194" lon="1.181">
        <ele>227.6</ele>
        <time>2024-05-20T09:16:19Z</time>
      </trkpt>
      <trkpt lat="43.52201" lon="1.18103">
        <ele>227.6</ele>
        <time>2024-05-20T09:16:20Z</time>
      </trkpt>
      <trkpt lat="43.52209" lon="1.18105">
        <ele>227.6</ele>
        <time>2024-05-20T09:16:21Z</time>
      </trkpt>
      <trkpt lat="43.52216" lon="1.18107">
        <ele>227.6</ele>
        <time>2024-05-20T09:16:22Z</time>
      </trkpt>
      <trkpt lat="43.52223" lon="1.1811">
        <ele>227.4</ele>
        <time>2024-05-20T09:16:23Z</time>
      </trkpt>
      <trkpt lat="43.5223" lon="1.18112">
        <ele>227.4</ele>
        <time>2024-05-20T09:16:24Z</time>
      </trkpt>
      <trkpt lat="43.52238" lon="1.18115">
        <ele>227.2</ele>
        <time>2024-05-20T09:16:25Z</time>
      </trkpt>
      <trkpt lat="43.52246" lon="1.18117">
        <ele>227.2</ele>
        <time>2024-05-20T09:16:26Z</time>
      </trkpt>
      <trkpt lat="43.52253" lon="1.18119">
        <ele>227</ele>
        <time>2024-05-20T09:16:27Z</time>
      </trkpt>
      <trkpt lat="43.52261" lon="1.18121">
        <ele>227</ele>
        <time>2024-05-20T09:16:28Z</time>
      </trkpt>
      <trkpt lat="43.52268" lon="1.18123">
        <ele>226.8</ele>
        <time>2024-05-20T09:16:29Z</time>
      </trkpt>
      <trkpt lat="43.52277" lon="1.18126">
        <ele>226.8</ele>
        <time>2024-05-20T09:16:30Z</time>
      </trkpt>
      <trkpt lat="43.52283" lon="1.18128">
        <ele>226.8</ele>
        <time>2024-05-20T09:16:31Z</time>
      </trkpt>
      <trkpt lat="43.52292" lon="1.1813">
        <ele>226.8</ele>
        <time>2024-05-20T09:16:32Z</time>
      </trkpt>
      <trkpt lat="43.52299" lon="1.18132">
        <ele>226.8</ele>
        <time>2024-05-20T09:16:33Z</time>
      </trkpt>
      <trkpt lat="43.52307" lon="1.18134">
        <ele>226.8</ele>
        <time>2024-05-20T09:16:34Z</time>
      </trkpt>
      <trkpt lat="43.52316" lon="1.18137">
        <ele>226.8</ele>
        <time>2024-05-20T09:16:35Z</time>
      </trkpt>
      <trkpt lat="43.52324" lon="1.18139">
        <ele>226.8</ele>
        <time>2024-05-20T09:16:36Z</time>
      </trkpt>
      <trkpt lat="43.52332" lon="1.18142">
        <ele>226.8</ele>
        <time>2024-05-20T09:16:37Z</time>
      </trkpt>
      <trkpt lat="43.5234" lon="1.18144">
        <ele>226.8</ele>
        <time>2024-05-20T09:16:38Z</time>
      </trkpt>
      <trkpt lat="43.52347" lon="1.18147">
        <ele>226.8</ele>
        <time>2024-05-20T09:16:39Z</time>
      </trkpt>
      <trkpt lat="43.52355" lon="1.1815">
        <ele>226.8</ele>
        <time>2024-05-20T09:16:40Z</time>
      </trkpt>
      <trkpt lat="43.52362" lon="1.18154">
        <ele>226.8</ele>
        <time>2024-05-20T09:16:41Z</time>
      </trkpt>
      <trkpt lat="43.5237" lon="1.18157">
        <ele>226.8</ele>
        <time>2024-05-20T09:16:42Z</time>
      </trkpt>
      <trkpt lat="43.52377" lon="1.1816">
        <ele>226.6</ele>
        <time>2024-05-20T09:16:43Z</time>
      </trkpt>
      <trkpt lat="43.52385" lon="1.18163">
        <ele>226.6</ele>
        <time>2024-05-20T09:16:44Z</time>
      </trkpt>
      <trkpt lat="43.52393" lon="1.18165">
        <ele>226.6</ele>
        <time>2024-05-20T09:16:45Z</time>
      </trkpt>
      <trkpt lat="43.52401" lon="1.18167">
        <ele>226.6</ele>
        <time>2024-05-20T09:16:46Z</time>
      </trkpt>
      <trkpt lat="43.52409" lon="1.18169">
        <ele>226.4</ele>
        <time>2024-05-20T09:16:47Z</time>
      </trkpt>
      <trkpt lat="43.52417" lon="1.18171">
        <ele>226.4</ele>
        <time>2024-05-20T09:16:48Z</time>
      </trkpt>
      <trkpt lat="43.52425" lon="1.18173">
        <ele>226.4</ele>
        <time>2024-05-20T09:16:49Z</time>
      </trkpt>
      <trkpt lat="43.52433" lon="1.18176">
        <ele>226.4</ele>
        <time>2024-05-20T09:16:50Z</time>
      </trkpt>
      <trkpt lat="43.52441" lon="1.18178">
        <ele>226.4</ele>
        <time>2024-05-20T09:16:51Z</time>
      </trkpt>
      <trkpt lat="43.5245" lon="1.1818">
        <ele>226.4</ele>
        <time>2024-05-20T09:16:52Z</time>
      </trkpt>
      <trkpt lat="43.52458" lon="1.18182">
        <ele>226.4</ele>
        <time>2024-05-20T09:16:53Z</time>
      </trkpt>
      <trkpt lat="43.52466" lon="1.18183">
        <ele>226.2</ele>
        <time>2024-05-20T09:16:54Z</time>
      </trkpt>
      <trkpt lat="43.52475" lon="1.18185">
        <ele>226.2</ele>
        <time>2024-05-20T09:16:55Z</time>
      </trkpt>
      <trkpt lat="43.52484" lon="1.18186">
        <ele>226.2</ele>
        <time>2024-05-20T09:16:56Z</time>
      </trkpt>
      <trkpt lat="43.52492" lon="1.18188">
        <ele>226.2</ele>
        <time>2024-05-20T09:16:57Z</time>
      </trkpt>
      <trkpt lat="43.525" lon="1.1819">
        <ele>226.2</ele>
        <time>2024-05-20T09:16:58Z</time>
      </trkpt>
      <trkpt lat="43.52509" lon="1.18192">
        <ele>226.2</ele>
        <time>2024-05-20T09:16:59Z</time>
      </trkpt>
      <trkpt lat="43.52517" lon="1.18195">
        <ele>226</ele>
        <time>2024-05-20T09:17:00Z</time>
      </trkpt>
      <trkpt lat="43.52525" lon="1.18197">
        <ele>226</ele>
        <time>2024-05-20T09:17:01Z</time>
      </trkpt>
      <trkpt lat="43.52534" lon="1.18199">
        <ele>226</ele>
        <time>2024-05-20T09:17:02Z</time>
      </trkpt>
      <trkpt lat="43.52542" lon="1.18202">
        <ele>225.8</ele>
        <time>2024-05-20T09:17:03Z</time>
      </trkpt>
      <trkpt lat="43.5255" lon="1.18204">
        <ele>225.8</ele>
        <time>2024-05-20T09:17:04Z</time>
      </trkpt>
      <trkpt lat="43.52558" lon="1.18206">
        <ele>225.6</ele>
        <time>2024-05-20T09:17:05Z</time>
      </trkpt>
      <trkpt lat="43.52566" lon="1.18208">
        <ele>225.6</ele>
        <time>2024-05-20T09:17:06Z</time>
      </trkpt>
      <trkpt lat="43.52575" lon="1.18211">
        <ele>225.6</ele>
        <time>2024-05-20T09:17:07Z</time>
      </trkpt>
      <trkpt lat="43.52584" lon="1.18214">
        <ele>225.4</ele>
        <time>2024-05-20T09:17:08Z</time>
      </trkpt>
      <trkpt lat="43.52592" lon="1.18216">
        <ele>225.4</ele>
        <time>2024-05-20T09:17:09Z</time>
      </trkpt>
      <trkpt lat="43.52601" lon="1.18219">
        <ele>225.4</ele>
        <time>2024-05-20T09:17:10Z</time>
      </trkpt>
      <trkpt lat="43.52609" lon="1.18221">
        <ele>225.4</ele>
        <time>2024-05-20T09:17:11Z</time>
      </trkpt>
      <trkpt lat="43.52617" lon="1.18224">
        <ele>225.4</ele>
        <time>2024-05-20T09:17:12Z</time>
      </trkpt>
      <trkpt lat="43.52625" lon="1.18226">
        <ele>225.4</ele>
        <time>2024-05-20T09:17:13Z</time>
      </trkpt>
      <trkpt lat="43.52634" lon="1.18229">
        <ele>225.4</ele>
        <time>2024-05-20T09:17:14Z</time>
      </trkpt>
      <trkpt lat="43.52642" lon="1.18231">
        <ele>225.4</ele>
        <time>2024-05-20T09:17:15Z</time>
      </trkpt>
      <trkpt lat="43.5265" lon="1.18233">
        <ele>225.4</ele>
        <time>2024-05-20T09:17:16Z</time>
      </trkpt>
      <trkpt lat="43.52658" lon="1.18236">
        <ele>225.4</ele>
        <time>2024-05-20T09:17:17Z</time>
      </trkpt>
      <trkpt lat="43.52667" lon="1.18238">
        <ele>225.4</ele>
        <time>2024-05-20T09:17:18Z</time>
      </trkpt>
      <trkpt lat="43.52675" lon="1.1824">
        <ele>225.4</ele>
        <time>2024-05-20T09:17:19Z</time>
      </trkpt>
      <trkpt lat="43.52683" lon="1.18242">
        <ele>225.4</ele>
        <time>2024-05-20T09:17:20Z</time>
      </trkpt>
      <trkpt lat="43.52691" lon="1.18245">
        <ele>225.4</ele>
        <time>2024-05-20T09:17:21Z</time>
      </trkpt>
      <trkpt lat="43.527" lon="1.18247">
        <ele>225.4</ele>
        <time>2024-05-20T09:17:22Z</time>
      </trkpt>
      <trkpt lat="43.52708" lon="1.1825">
        <ele>225.4</ele>
        <time>2024-05-20T09:17:23Z</time>
      </trkpt>
      <trkpt lat="43.52717" lon="1.18252">
        <ele>225.2</ele>
        <time>2024-05-20T09:17:24Z</time>
      </trkpt>
      <trkpt lat="43.52725" lon="1.18254">
        <ele>225.2</ele>
        <time>2024-05-20T09:17:25Z</time>
      </trkpt>
      <trkpt lat="43.52734" lon="1.18257">
        <ele>225.2</ele>
        <time>2024-05-20T09:17:26Z</time>
      </trkpt>
      <trkpt lat="43.52742" lon="1.1826">
        <ele>225.2</ele>
        <time>2024-05-20T09:17:27Z</time>
      </trkpt>
      <trkpt lat="43.52751" lon="1.18263">
        <ele>225</ele>
        <time>2024-05-20T09:17:28Z</time>
      </trkpt>
      <trkpt lat="43.52759" lon="1.18266">
        <ele>225</ele>
        <time>2024-05-20T09:17:29Z</time>
      </trkpt>
      <trkpt lat="43.52768" lon="1.18269">
        <ele>225</ele>
        <time>2024-05-20T09:17:30Z</time>
      </trkpt>
      <trkpt lat="43.52776" lon="1.18273">
        <ele>225</ele>
        <time>2024-05-20T09:17:31Z</time>
      </trkpt>
      <trkpt lat="43.52785" lon="1.18276">
        <ele>225</ele>
        <time>2024-05-20T09:17:32Z</time>
      </trkpt>
      <trkpt lat="43.52794" lon="1.18279">
        <ele>225</ele>
        <time>2024-05-20T09:17:33Z</time>
      </trkpt>
      <trkpt lat="43.52802" lon="1.18283">
        <ele>225</ele>
        <time>2024-05-20T09:17:34Z</time>
      </trkpt>
      <trkpt lat="43.52811" lon="1.18286">
        <ele>225</ele>
        <time>2024-05-20T09:17:35Z</time>
      </trkpt>
      <trkpt lat="43.52819" lon="1.18289">
        <ele>225</ele>
        <time>2024-05-20T09:17:36Z</time>
      </trkpt>
      <trkpt lat="43.52828" lon="1.18292">
        <ele>225</ele>
        <time>2024-05-20T09:17:37Z</time>
      </trkpt>
      <trkpt lat="43.52836" lon="1.18295">
        <ele>225</ele>
        <time>2024-05-20T09:17:38Z</time>
      </trkpt>
      <trkpt lat="43.52844" lon="1.18299">
        <ele>225</ele>
        <time>2024-05-20T09:17:39Z</time>
      </trkpt>
      <trkpt lat="43.52853" lon="1.18303">
        <ele>225</ele>
        <time>2024-05-20T09:17:40Z</time>
      </trkpt>
      <trkpt lat="43.52862" lon="1.18306">
        <ele>225</ele>
        <time>2024-05-20T09:17:41Z</time>
      </trkpt>
      <trkpt lat="43.52871" lon="1.18309">
        <ele>225</ele>
        <time>2024-05-20T09:17:42Z</time>
      </trkpt>
      <trkpt lat="43.52879" lon="1.18312">
        <ele>225</ele>
        <time>2024-05-20T09:17:43Z</time>
      </trkpt>
      <trkpt lat="43.52888" lon="1.18316">
        <ele>225</ele>
        <time>2024-05-20T09:17:44Z</time>
      </trkpt>
      <trkpt lat="43.52897" lon="1.18319">
        <ele>225</ele>
        <time>2024-05-20T09:17:45Z</time>
      </trkpt>
      <trkpt lat="43.52905" lon="1.18323">
        <ele>225</ele>
        <time>2024-05-20T09:17:46Z</time>
      </trkpt>
      <trkpt lat="43.52914" lon="1.18326">
        <ele>225</ele>
        <time>2024-05-20T09:17:47Z</time>
      </trkpt>
      <trkpt lat="43.52923" lon="1.18329">
        <ele>225</ele>
        <time>2024-05-20T09:17:48Z</time>
      </trkpt>
      <trkpt lat="43.52932" lon="1.18333">
        <ele>225</ele>
        <time>2024-05-20T09:17:49Z</time>
      </trkpt>
      <trkpt lat="43.52941" lon="1.18337">
        <ele>225</ele>
        <time>2024-05-20T09:17:50Z</time>
      </trkpt>
      <trkpt lat="43.5295" lon="1.18341">
        <ele>224.8</ele>
        <time>2024-05-20T09:17:51Z</time>
      </trkpt>
      <trkpt lat="43.52959" lon="1.18345">
        <ele>224.8</ele>
        <time>2024-05-20T09:17:52Z</time>
      </trkpt>
      <trkpt lat="43.52968" lon="1.18348">
        <ele>224.8</ele>
        <time>2024-05-20T09:17:53Z</time>
      </trkpt>
      <trkpt lat="43.52977" lon="1.18351">
        <ele>224.8</ele>
        <time>2024-05-20T09:17:54Z</time>
      </trkpt>
      <trkpt lat="43.52986" lon="1.18355">
        <ele>224.6</ele>
        <time>2024-05-20T09:17:55Z</time>
      </trkpt>
      <trkpt lat="43.52994" lon="1.18358">
        <ele>224.6</ele>
        <time>2024-05-20T09:17:56Z</time>
      </trkpt>
      <trkpt lat="43.53003" lon="1.18362">
        <ele>224.4</ele>
        <time>2024-05-20T09:17:57Z</time>
      </trkpt>
      <trkpt lat="43.53012" lon="1.18365">
        <ele>224.4</ele>
        <time>2024-05-20T09:17:58Z</time>
      </trkpt>
      <trkpt lat="43.5302" lon="1.18369">
        <ele>224.2</ele>
        <time>2024-05-20T09:17:59Z</time>
      </trkpt>
      <trkpt lat="43.53029" lon="1.18372">
        <ele>224.2</ele>
        <time>2024-05-20T09:18:00Z</time>
      </trkpt>
      <trkpt lat="43.53037" lon="1.18375">
        <ele>224.2</ele>
        <time>2024-05-20T09:18:01Z</time>
      </trkpt>
      <trkpt lat="43.53046" lon="1.18379">
        <ele>224.2</ele>
        <time>2024-05-20T09:18:02Z</time>
      </trkpt>
      <trkpt lat="43.53054" lon="1.18382">
        <ele>224</ele>
        <time>2024-05-20T09:18:03Z</time>
      </trkpt>
      <trkpt lat="43.53063" lon="1.18385">
        <ele>224</ele>
        <time>2024-05-20T09:18:04Z</time>
      </trkpt>
      <trkpt lat="43.53071" lon="1.18388">
        <ele>224</ele>
        <time>2024-05-20T09:18:05Z</time>
      </trkpt>
      <trkpt lat="43.5308" lon="1.18391">
        <ele>224</ele>
        <time>2024-05-20T09:18:06Z</time>
      </trkpt>
      <trkpt lat="43.53089" lon="1.18395">
        <ele>224</ele>
        <time>2024-05-20T09:18:07Z</time>
      </trkpt>
      <trkpt lat="43.53097" lon="1.18399">
        <ele>224</ele>
        <time>2024-05-20T09:18:08Z</time>
      </trkpt>
      <trkpt lat="43.53105" lon="1.18403">
        <ele>224</ele>
        <time>2024-05-20T09:18:09Z</time>
      </trkpt>
      <trkpt lat="43.53114" lon="1.18407">
        <ele>224</ele>
        <time>2024-05-20T09:18:10Z</time>
      </trkpt>
      <trkpt lat="43.53122" lon="1.18412">
        <ele>224</ele>
        <time>2024-05-20T09:18:11Z</time>
      </trkpt>
      <trkpt lat="43.5313" lon="1.18418">
        <ele>224</ele>
        <time>2024-05-20T09:18:12Z</time>
      </trkpt>
      <trkpt lat="43.53137" lon="1.18424">
        <ele>224</ele>
        <time>2024-05-20T09:18:13Z</time>
      </trkpt>
      <trkpt lat="43.53145" lon="1.18432">
        <ele>224</ele>
        <time>2024-05-20T09:18:14Z</time>
      </trkpt>
      <trkpt lat="43.53151" lon="1.1844">
        <ele>224</ele>
        <time>2024-05-20T09:18:15Z</time>
      </trkpt>
      <trkpt lat="43.53157" lon="1.18448">
        <ele>224</ele>
        <time>2024-05-20T09:18:16Z</time>
      </trkpt>
      <trkpt lat="43.53162" lon="1.18457">
        <ele>224</ele>
        <time>2024-05-20T09:18:17Z</time>
      </trkpt>
      <trkpt lat="43.53166" lon="1.18466">
        <ele>224</ele>
        <time>2024-05-20T09:18:18Z</time>
      </trkpt>
      <trkpt lat="43.53167" lon="1.18476">
        <ele>224</ele>
        <time>2024-05-20T09:18:19Z</time>
      </trkpt>
      <trkpt lat="43.53169" lon="1.18487">
        <ele>224.2</ele>
        <time>2024-05-20T09:18:20Z</time>
      </trkpt>
      <trkpt lat="43.53171" lon="1.18496">
        <ele>224.2</ele>
        <time>2024-05-20T09:18:21Z</time>
      </trkpt>
      <trkpt lat="43.53175" lon="1.18504">
        <ele>224.2</ele>
        <time>2024-05-20T09:18:22Z</time>
      </trkpt>
      <trkpt lat="43.53181" lon="1.18508">
        <ele>224.4</ele>
        <time>2024-05-20T09:18:23Z</time>
      </trkpt>
      <trkpt lat="43.53188" lon="1.18509">
        <ele>224.4</ele>
        <time>2024-05-20T09:18:24Z</time>
      </trkpt>
      <trkpt lat="43.53194" lon="1.18505">
        <ele>224.6</ele>
        <time>2024-05-20T09:18:25Z</time>
      </trkpt>
      <trkpt lat="43.53199" lon="1.18499">
        <ele>224.6</ele>
        <time>2024-05-20T09:18:26Z</time>
      </trkpt>
      <trkpt lat="43.53203" lon="1.18491">
        <ele>224.6</ele>
        <time>2024-05-20T09:18:27Z</time>
      </trkpt>
      <trkpt lat="43.53206" lon="1.18483">
        <ele>224.6</ele>
        <time>2024-05-20T09:18:28Z</time>
      </trkpt>
      <trkpt lat="43.53211" lon="1.18476">
        <ele>224.6</ele>
        <time>2024-05-20T09:18:29Z</time>
      </trkpt>
      <trkpt lat="43.53217" lon="1.1847">
        <ele>224.6</ele>
        <time>2024-05-20T09:18:30Z</time>
      </trkpt>
      <trkpt lat="43.53224" lon="1.18466">
        <ele>224.6</ele>
        <time>2024-05-20T09:18:31Z</time>
      </trkpt>
      <trkpt lat="43.53232" lon="1.18463">
        <ele>224.4</ele>
        <time>2024-05-20T09:18:32Z</time>
      </trkpt>
      <trkpt lat="43.53241" lon="1.18463">
        <ele>224.4</ele>
        <time>2024-05-20T09:18:33Z</time>
      </trkpt>
      <trkpt lat="43.5325" lon="1.18464">
        <ele>224.2</ele>
        <time>2024-05-20T09:18:34Z</time>
      </trkpt>
      <trkpt lat="43.53259" lon="1.18467">
        <ele>224</ele>
        <time>2024-05-20T09:18:35Z</time>
      </trkpt>
      <trkpt lat="43.53268" lon="1.1847">
        <ele>223.8</ele>
        <time>2024-05-20T09:18:36Z</time>
      </trkpt>
      <trkpt lat="43.53277" lon="1.18474">
        <ele>223.6</ele>
        <time>2024-05-20T09:18:37Z</time>
      </trkpt>
      <trkpt lat="43.53286" lon="1.18477">
        <ele>223.2</ele>
        <time>2024-05-20T09:18:38Z</time>
      </trkpt>
      <trkpt lat="43.53295" lon="1.18481">
        <ele>223.2</ele>
        <time>2024-05-20T09:18:39Z</time>
      </trkpt>
      <trkpt lat="43.53305" lon="1.18484">
        <ele>222.8</ele>
        <time>2024-05-20T09:18:40Z</time>
      </trkpt>
      <trkpt lat="43.53314" lon="1.18488">
        <ele>222.8</ele>
        <time>2024-05-20T09:18:41Z</time>
      </trkpt>
      <trkpt lat="43.53324" lon="1.18491">
        <ele>222.6</ele>
        <time>2024-05-20T09:18:42Z</time>
      </trkpt>
      <trkpt lat="43.53333" lon="1.18495">
        <ele>222.6</ele>
        <time>2024-05-20T09:18:43Z</time>
      </trkpt>
      <trkpt lat="43.53343" lon="1.18498">
        <ele>222.6</ele>
        <time>2024-05-20T09:18:44Z</time>
      </trkpt>
      <trkpt lat="43.53352" lon="1.18501">
        <ele>222.6</ele>
        <time>2024-05-20T09:18:45Z</time>
      </trkpt>
      <trkpt lat="43.53361" lon="1.18505">
        <ele>222.6</ele>
        <time>2024-05-20T09:18:46Z</time>
      </trkpt>
      <trkpt lat="43.5337" lon="1.18508">
        <ele>222.6</ele>
        <time>2024-05-20T09:18:47Z</time>
      </trkpt>
      <trkpt lat="43.53379" lon="1.18512">
        <ele>222.4</ele>
        <time>2024-05-20T09:18:48Z</time>
      </trkpt>
      <trkpt lat="43.53388" lon="1.18515">
        <ele>222.4</ele>
        <time>2024-05-20T09:18:49Z</time>
      </trkpt>
      <trkpt lat="43.53396" lon="1.18519">
        <ele>222.4</ele>
        <time>2024-05-20T09:18:50Z</time>
      </trkpt>
      <trkpt lat="43.53405" lon="1.18522">
        <ele>222.4</ele>
        <time>2024-05-20T09:18:51Z</time>
      </trkpt>
      <trkpt lat="43.53414" lon="1.18525">
        <ele>222.4</ele>
        <time>2024-05-20T09:18:52Z</time>
      </trkpt>
      <trkpt lat="43.53422" lon="1.18528">
        <ele>222.4</ele>
        <time>2024-05-20T09:18:53Z</time>
      </trkpt>
      <trkpt lat="43.53431" lon="1.18532">
        <ele>222.6</ele>
        <time>2024-05-20T09:18:54Z</time>
      </trkpt>
      <trkpt lat="43.5344" lon="1.18535">
        <ele>222.6</ele>
        <time>2024-05-20T09:18:55Z</time>
      </trkpt>
      <trkpt lat="43.53449" lon="1.18538">
        <ele>222.8</ele>
        <time>2024-05-20T09:18:56Z</time>
      </trkpt>
      <trkpt lat="43.53457" lon="1.18541">
        <ele>222.8</ele>
        <time>2024-05-20T09:18:57Z</time>
      </trkpt>
      <trkpt lat="43.53466" lon="1.18545">
        <ele>222.8</ele>
        <time>2024-05-20T09:18:58Z</time>
      </trkpt>
      <trkpt lat="43.53475" lon="1.18548">
        <ele>222.8</ele>
        <time>2024-05-20T09:18:59Z</time>
      </trkpt>
      <trkpt lat="43.53483" lon="1.18552">
        <ele>222.8</ele>
        <time>2024-05-20T09:19:00Z</time>
      </trkpt>
      <trkpt lat="43.53492" lon="1.18556">
        <ele>222.8</ele>
        <time>2024-05-20T09:19:01Z</time>
      </trkpt>
      <trkpt lat="43.53501" lon="1.18559">
        <ele>222.8</ele>
        <time>2024-05-20T09:19:02Z</time>
      </trkpt>
      <trkpt lat="43.5351" lon="1.18563">
        <ele>222.8</ele>
        <time>2024-05-20T09:19:03Z</time>
      </trkpt>
      <trkpt lat="43.53519" lon="1.18567">
        <ele>222.8</ele>
        <time>2024-05-20T09:19:04Z</time>
      </trkpt>
      <trkpt lat="43.53528" lon="1.18571">
        <ele>222.6</ele>
        <time>2024-05-20T09:19:05Z</time>
      </trkpt>
      <trkpt lat="43.53536" lon="1.18575">
        <ele>222.6</ele>
        <time>2024-05-20T09:19:06Z</time>
      </trkpt>
      <trkpt lat="43.53545" lon="1.18579">
        <ele>222.6</ele>
        <time>2024-05-20T09:19:07Z</time>
      </trkpt>
      <trkpt lat="43.53554" lon="1.18583">
        <ele>222.2</ele>
        <time>2024-05-20T09:19:08Z</time>
      </trkpt>
      <trkpt lat="43.53563" lon="1.18587">
        <ele>222.4</ele>
        <time>2024-05-20T09:19:09Z</time>
      </trkpt>
      <trkpt lat="43.53571" lon="1.18592">
        <ele>222.4</ele>
        <time>2024-05-20T09:19:10Z</time>
      </trkpt>
      <trkpt lat="43.5358" lon="1.18596">
        <ele>222.4</ele>
        <time>2024-05-20T09:19:11Z</time>
      </trkpt>
      <trkpt lat="43.53589" lon="1.186">
        <ele>222.2</ele>
        <time>2024-05-20T09:19:12Z</time>
      </trkpt>
      <trkpt lat="43.53598" lon="1.18605">
        <ele>222.4</ele>
        <time>2024-05-20T09:19:13Z</time>
      </trkpt>
      <trkpt lat="43.53607" lon="1.18609">
        <ele>222.4</ele>
        <time>2024-05-20T09:19:14Z</time>
      </trkpt>
      <trkpt lat="43.53615" lon="1.18613">
        <ele>222.4</ele>
        <time>2024-05-20T09:19:15Z</time>
      </trkpt>
      <trkpt lat="43.53624" lon="1.18618">
        <ele>222.4</ele>
        <time>2024-05-20T09:19:16Z</time>
      </trkpt>
      <trkpt lat="43.53633" lon="1.18622">
        <ele>222.4</ele>
        <time>2024-05-20T09:19:17Z</time>
      </trkpt>
      <trkpt lat="43.53642" lon="1.18626">
        <ele>222.4</ele>
        <time>2024-05-20T09:19:18Z</time>
      </trkpt>
      <trkpt lat="43.5365" lon="1.1863">
        <ele>222.4</ele>
        <time>2024-05-20T09:19:19Z</time>
      </trkpt>
      <trkpt lat="43.53659" lon="1.18633">
        <ele>222</ele>
        <time>2024-05-20T09:19:20Z</time>
      </trkpt>
      <trkpt lat="43.53668" lon="1.18637">
        <ele>222</ele>
        <time>2024-05-20T09:19:21Z</time>
      </trkpt>
      <trkpt lat="43.53675" lon="1.18639">
        <ele>222.2</ele>
        <time>2024-05-20T09:19:22Z</time>
      </trkpt>
      <trkpt lat="43.53686" lon="1.18644">
        <ele>222.4</ele>
        <time>2024-05-20T09:19:23Z</time>
      </trkpt>
      <trkpt lat="43.53695" lon="1.18649">
        <ele>222.4</ele>
        <time>2024-05-20T09:19:24Z</time>
      </trkpt>
      <trkpt lat="43.53703" lon="1.18653">
        <ele>222.2</ele>
        <time>2024-05-20T09:19:25Z</time>
      </trkpt>
      <trkpt lat="43.53712" lon="1.18658">
        <ele>222</ele>
        <time>2024-05-20T09:19:26Z</time>
      </trkpt>
      <trkpt lat="43.53721" lon="1.18663">
        <ele>222</ele>
        <time>2024-05-20T09:19:27Z</time>
      </trkpt>
      <trkpt lat="43.5373" lon="1.18668">
        <ele>222</ele>
        <time>2024-05-20T09:19:28Z</time>
      </trkpt>
      <trkpt lat="43.53738" lon="1.18672">
        <ele>221.8</ele>
        <time>2024-05-20T09:19:29Z</time>
      </trkpt>
      <trkpt lat="43.53747" lon="1.18677">
        <ele>221.8</ele>
        <time>2024-05-20T09:19:30Z</time>
      </trkpt>
      <trkpt lat="43.53754" lon="1.18682">
        <ele>221.6</ele>
        <time>2024-05-20T09:19:31Z</time>
      </trkpt>
      <trkpt lat="43.53762" lon="1.18687">
        <ele>221.6</ele>
        <time>2024-05-20T09:19:32Z</time>
      </trkpt>
      <trkpt lat="43.5377" lon="1.18693">
        <ele>221.6</ele>
        <time>2024-05-20T09:19:33Z</time>
      </trkpt>
      <trkpt lat="43.53778" lon="1.18698">
        <ele>221.4</ele>
        <time>2024-05-20T09:19:34Z</time>
      </trkpt>
      <trkpt lat="43.53787" lon="1.18704">
        <ele>221.4</ele>
        <time>2024-05-20T09:19:35Z</time>
      </trkpt>
      <trkpt lat="43.53795" lon="1.1871">
        <ele>221.2</ele>
        <time>2024-05-20T09:19:36Z</time>
      </trkpt>
      <trkpt lat="43.53803" lon="1.18716">
        <ele>221.2</ele>
        <time>2024-05-20T09:19:37Z</time>
      </trkpt>
      <trkpt lat="43.53812" lon="1.18723">
        <ele>221.2</ele>
        <time>2024-05-20T09:19:38Z</time>
      </trkpt>
      <trkpt lat="43.5382" lon="1.1873">
        <ele>221.2</ele>
        <time>2024-05-20T09:19:39Z</time>
      </trkpt>
      <trkpt lat="43.53829" lon="1.18737">
        <ele>221</ele>
        <time>2024-05-20T09:19:40Z</time>
      </trkpt>
      <trkpt lat="43.53837" lon="1.18744">
        <ele>221</ele>
        <time>2024-05-20T09:19:41Z</time>
      </trkpt>
      <trkpt lat="43.53845" lon="1.1875">
        <ele>221</ele>
        <time>2024-05-20T09:19:42Z</time>
      </trkpt>
      <trkpt lat="43.53854" lon="1.18757">
        <ele>220.8</ele>
        <time>2024-05-20T09:19:43Z</time>
      </trkpt>
      <trkpt lat="43.53862" lon="1.18762">
        <ele>220.8</ele>
        <time>2024-05-20T09:19:44Z</time>
      </trkpt>
      <trkpt lat="43.5387" lon="1.18768">
        <ele>220.8</ele>
        <time>2024-05-20T09:19:45Z</time>
      </trkpt>
      <trkpt lat="43.53879" lon="1.18774">
        <ele>220.6</ele>
        <time>2024-05-20T09:19:46Z</time>
      </trkpt>
      <trkpt lat="43.53887" lon="1.1878">
        <ele>220.6</ele>
        <time>2024-05-20T09:19:47Z</time>
      </trkpt>
      <trkpt lat="43.53895" lon="1.18785">
        <ele>220.6</ele>
        <time>2024-05-20T09:19:48Z</time>
      </trkpt>
      <trkpt lat="43.53902" lon="1.18791">
        <ele>220.6</ele>
        <time>2024-05-20T09:19:49Z</time>
      </trkpt>
      <trkpt lat="43.5391" lon="1.18797">
        <ele>220.6</ele>
        <time>2024-05-20T09:19:50Z</time>
      </trkpt>
      <trkpt lat="43.53918" lon="1.18802">
        <ele>220.4</ele>
        <time>2024-05-20T09:19:51Z</time>
      </trkpt>
      <trkpt lat="43.53925" lon="1.18808">
        <ele>220.4</ele>
        <time>2024-05-20T09:19:52Z</time>
      </trkpt>
      <trkpt lat="43.53933" lon="1.18813">
        <ele>220.4</ele>
        <time>2024-05-20T09:19:53Z</time>
      </trkpt>
      <trkpt lat="43.53938" lon="1.18817">
        <ele>220.4</ele>
        <time>2024-05-20T09:19:54Z</time>
      </trkpt>
      <trkpt lat="43.53946" lon="1.18824">
        <ele>220.4</ele>
        <time>2024-05-20T09:19:55Z</time>
      </trkpt>
      <trkpt lat="43.53952" lon="1.1883">
        <ele>220.4</ele>
        <time>2024-05-20T09:19:56Z</time>
      </trkpt>
      <trkpt lat="43.53957" lon="1.18837">
        <ele>220.4</ele>
        <time>2024-05-20T09:19:57Z</time>
      </trkpt>
      <trkpt lat="43.53962" lon="1.18845">
        <ele>220.4</ele>
        <time>2024-05-20T09:19:58Z</time>
      </trkpt>
      <trkpt lat="43.53967" lon="1.18853">
        <ele>220.2</ele>
        <time>2024-05-20T09:19:59Z</time>
      </trkpt>
      <trkpt lat="43.53974" lon="1.1886">
        <ele>220.2</ele>
        <time>2024-05-20T09:20:00Z</time>
      </trkpt>
      <trkpt lat="43.53981" lon="1.18864">
        <ele>220.2</ele>
        <time>2024-05-20T09:20:01Z</time>
      </trkpt>
      <trkpt lat="43.53989" lon="1.18866">
        <ele>220.2</ele>
        <time>2024-05-20T09:20:02Z</time>
      </trkpt>
      <trkpt lat="43.53998" lon="1.18867">
        <ele>220.4</ele>
        <time>2024-05-20T09:20:03Z</time>
      </trkpt>
      <trkpt lat="43.54007" lon="1.1887">
        <ele>220.4</ele>
        <time>2024-05-20T09:20:04Z</time>
      </trkpt>
      <trkpt lat="43.54015" lon="1.18874">
        <ele>220.4</ele>
        <time>2024-05-20T09:20:05Z</time>
      </trkpt>
      <trkpt lat="43.54024" lon="1.18878">
        <ele>220.2</ele>
        <time>2024-05-20T09:20:06Z</time>
      </trkpt>
      <trkpt lat="43.54033" lon="1.18883">
        <ele>220.2</ele>
        <time>2024-05-20T09:20:07Z</time>
      </trkpt>
      <trkpt lat="43.54043" lon="1.18889">
        <ele>220.2</ele>
        <time>2024-05-20T09:20:08Z</time>
      </trkpt>
      <trkpt lat="43.54052" lon="1.18895">
        <ele>220.2</ele>
        <time>2024-05-20T09:20:09Z</time>
      </trkpt>
      <trkpt lat="43.54061" lon="1.18901">
        <ele>220</ele>
        <time>2024-05-20T09:20:10Z</time>
      </trkpt>
      <trkpt lat="43.5407" lon="1.18907">
        <ele>219.8</ele>
        <time>2024-05-20T09:20:11Z</time>
      </trkpt>
      <trkpt lat="43.5408" lon="1.18913">
        <ele>219.8</ele>
        <time>2024-05-20T09:20:12Z</time>
      </trkpt>
      <trkpt lat="43.54089" lon="1.18919">
        <ele>219.4</ele>
        <time>2024-05-20T09:20:13Z</time>
      </trkpt>
      <trkpt lat="43.54097" lon="1.18925">
        <ele>219.2</ele>
        <time>2024-05-20T09:20:14Z</time>
      </trkpt>
      <trkpt lat="43.54106" lon="1.18931">
        <ele>219</ele>
        <time>2024-05-20T09:20:15Z</time>
      </trkpt>
      <trkpt lat="43.54115" lon="1.18937">
        <ele>218.8</ele>
        <time>2024-05-20T09:20:16Z</time>
      </trkpt>
      <trkpt lat="43.54124" lon="1.18944">
        <ele>218.8</ele>
        <time>2024-05-20T09:20:17Z</time>
      </trkpt>
      <trkpt lat="43.54133" lon="1.1895">
        <ele>218.6</ele>
        <time>2024-05-20T09:20:18Z</time>
      </trkpt>
      <trkpt lat="43.54141" lon="1.18957">
        <ele>218.6</ele>
        <time>2024-05-20T09:20:19Z</time>
      </trkpt>
      <trkpt lat="43.54149" lon="1.18963">
        <ele>218.4</ele>
        <time>2024-05-20T09:20:20Z</time>
      </trkpt>
      <trkpt lat="43.54157" lon="1.18969">
        <ele>218.4</ele>
        <time>2024-05-20T09:20:21Z</time>
      </trkpt>
      <trkpt lat="43.54165" lon="1.18975">
        <ele>218.4</ele>
        <time>2024-05-20T09:20:22Z</time>
      </trkpt>
      <trkpt lat="43.54172" lon="1.18982">
        <ele>218.4</ele>
        <time>2024-05-20T09:20:23Z</time>
      </trkpt>
      <trkpt lat="43.5418" lon="1.18988">
        <ele>218.4</ele>
        <time>2024-05-20T09:20:24Z</time>
      </trkpt>
      <trkpt lat="43.54187" lon="1.18994">
        <ele>218.4</ele>
        <time>2024-05-20T09:20:25Z</time>
      </trkpt>
      <trkpt lat="43.54194" lon="1.19001">
        <ele>218.4</ele>
        <time>2024-05-20T09:20:26Z</time>
      </trkpt>
      <trkpt lat="43.54202" lon="1.19008">
        <ele>218.4</ele>
        <time>2024-05-20T09:20:27Z</time>
      </trkpt>
      <trkpt lat="43.5421" lon="1.19014">
        <ele>218.6</ele>
        <time>2024-05-20T09:20:28Z</time>
      </trkpt>
      <trkpt lat="43.54218" lon="1.19021">
        <ele>218.6</ele>
        <time>2024-05-20T09:20:29Z</time>
      </trkpt>
      <trkpt lat="43.54226" lon="1.19027">
        <ele>218.8</ele>
        <time>2024-05-20T09:20:30Z</time>
      </trkpt>
      <trkpt lat="43.54234" lon="1.19033">
        <ele>218.8</ele>
        <time>2024-05-20T09:20:31Z</time>
      </trkpt>
      <trkpt lat="43.54242" lon="1.19039">
        <ele>218.8</ele>
        <time>2024-05-20T09:20:32Z</time>
      </trkpt>
      <trkpt lat="43.5425" lon="1.19044">
        <ele>218.8</ele>
        <time>2024-05-20T09:20:33Z</time>
      </trkpt>
      <trkpt lat="43.54257" lon="1.19048">
        <ele>219</ele>
        <time>2024-05-20T09:20:34Z</time>
      </trkpt>
      <trkpt lat="43.54266" lon="1.19054">
        <ele>219</ele>
        <time>2024-05-20T09:20:35Z</time>
      </trkpt>
      <trkpt lat="43.54275" lon="1.19058">
        <ele>219</ele>
        <time>2024-05-20T09:20:36Z</time>
      </trkpt>
      <trkpt lat="43.54283" lon="1.19062">
        <ele>219.2</ele>
        <time>2024-05-20T09:20:37Z</time>
      </trkpt>
      <trkpt lat="43.54291" lon="1.19066">
        <ele>219.2</ele>
        <time>2024-05-20T09:20:38Z</time>
      </trkpt>
      <trkpt lat="43.54299" lon="1.1907">
        <ele>219.4</ele>
        <time>2024-05-20T09:20:39Z</time>
      </trkpt>
      <trkpt lat="43.54307" lon="1.19074">
        <ele>219.6</ele>
        <time>2024-05-20T09:20:40Z</time>
      </trkpt>
      <trkpt lat="43.54316" lon="1.19077">
        <ele>219.6</ele>
        <time>2024-05-20T09:20:41Z</time>
      </trkpt>
      <trkpt lat="43.54324" lon="1.19081">
        <ele>219.6</ele>
        <time>2024-05-20T09:20:42Z</time>
      </trkpt>
      <trkpt lat="43.54333" lon="1.19084">
        <ele>219.8</ele>
        <time>2024-05-20T09:20:43Z</time>
      </trkpt>
      <trkpt lat="43.54342" lon="1.19086">
        <ele>219.8</ele>
        <time>2024-05-20T09:20:44Z</time>
      </trkpt>
      <trkpt lat="43.54349" lon="1.19088">
        <ele>219.8</ele>
        <time>2024-05-20T09:20:45Z</time>
      </trkpt>
      <trkpt lat="43.5436" lon="1.19092">
        <ele>220</ele>
        <time>2024-05-20T09:20:46Z</time>
      </trkpt>
      <trkpt lat="43.54369" lon="1.19094">
        <ele>220</ele>
        <time>2024-05-20T09:20:47Z</time>
      </trkpt>
      <trkpt lat="43.54378" lon="1.19096">
        <ele>220</ele>
        <time>2024-05-20T09:20:48Z</time>
      </trkpt>
      <trkpt lat="43.54385" lon="1.19098">
        <ele>220</ele>
        <time>2024-05-20T09:20:49Z</time>
      </trkpt>
      <trkpt lat="43.54396" lon="1.19099">
        <ele>219.8</ele>
        <time>2024-05-20T09:20:50Z</time>
      </trkpt>
      <trkpt lat="43.54405" lon="1.191">
        <ele>219.8</ele>
        <time>2024-05-20T09:20:51Z</time>
      </trkpt>
      <trkpt lat="43.54413" lon="1.19101">
        <ele>219.8</ele>
        <time>2024-05-20T09:20:52Z</time>
      </trkpt>
      <trkpt lat="43.54421" lon="1.19102">
        <ele>219.6</ele>
        <time>2024-05-20T09:20:53Z</time>
      </trkpt>
      <trkpt lat="43.54429" lon="1.19103">
        <ele>219.6</ele>
        <time>2024-05-20T09:20:54Z</time>
      </trkpt>
      <trkpt lat="43.54437" lon="1.19103">
        <ele>219.4</ele>
        <time>2024-05-20T09:20:55Z</time>
      </trkpt>
      <trkpt lat="43.54444" lon="1.19104">
        <ele>219.4</ele>
        <time>2024-05-20T09:20:56Z</time>
      </trkpt>
      <trkpt lat="43.54451" lon="1.19104">
        <ele>219.4</ele>
        <time>2024-05-20T09:20:57Z</time>
      </trkpt>
      <trkpt lat="43.54457" lon="1.19105">
        <ele>219.4</ele>
        <time>2024-05-20T09:20:58Z</time>
      </trkpt>
      <trkpt lat="43.54463" lon="1.19105">
        <ele>219.4</ele>
        <time>2024-05-20T09:20:59Z</time>
      </trkpt>
      <trkpt lat="43.54468" lon="1.19105">
        <ele>219.4</ele>
        <time>2024-05-20T09:21:00Z</time>
      </trkpt>
      <trkpt lat="43.54471" lon="1.19105">
        <ele>219.4</ele>
        <time>2024-05-20T09:21:01Z</time>
      </trkpt>
      <trkpt lat="43.54473" lon="1.19106">
        <ele>219.4</ele>
        <time>2024-05-20T09:21:02Z</time>
      </trkpt>
      <trkpt lat="43.54475" lon="1.19107">
        <ele>219.4</ele>
        <time>2024-05-20T09:21:03Z</time>
      </trkpt>
      <trkpt lat="43.54477" lon="1.19107">
        <ele>219.4</ele>
        <time>2024-05-20T09:21:04Z</time>
      </trkpt>
      <trkpt lat="43.54479" lon="1.19108">
        <ele>219.4</ele>
        <time>2024-05-20T09:21:05Z</time>
      </trkpt>
      <trkpt lat="43.54481" lon="1.19108">
        <ele>219.4</ele>
        <time>2024-05-20T09:21:06Z</time>
      </trkpt>
      <trkpt lat="43.54483" lon="1.19109">
        <ele>219.4</ele>
        <time>2024-05-20T09:21:07Z</time>
      </trkpt>
      <trkpt lat="43.54486" lon="1.19112">
        <ele>219.4</ele>
        <time>2024-05-20T09:21:08Z</time>
      </trkpt>
      <trkpt lat="43.54488" lon="1.19114">
        <ele>219.4</ele>
        <time>2024-05-20T09:21:09Z</time>
      </trkpt>
      <trkpt lat="43.5449" lon="1.19118">
        <ele>219.4</ele>
        <time>2024-05-20T09:21:10Z</time>
      </trkpt>
      <trkpt lat="43.54492" lon="1.19121">
        <ele>219.4</ele>
        <time>2024-05-20T09:21:11Z</time>
      </trkpt>
      <trkpt lat="43.54495" lon="1.19124">
        <ele>219.4</ele>
        <time>2024-05-20T09:21:12Z</time>
      </trkpt>
      <trkpt lat="43.54498" lon="1.19127">
        <ele>219.4</ele>
        <time>2024-05-20T09:21:13Z</time>
      </trkpt>
      <trkpt lat="43.54502" lon="1.19129">
        <ele>219.4</ele>
        <time>2024-05-20T09:21:14Z</time>
      </trkpt>
      <trkpt lat="43.54506" lon="1.19131">
        <ele>219.4</ele>
        <time>2024-05-20T09:21:15Z</time>
      </trkpt>
      <trkpt lat="43.54511" lon="1.19132">
        <ele>219.4</ele>
        <time>2024-05-20T09:21:16Z</time>
      </trkpt>
      <trkpt lat="43.54516" lon="1.19131">
        <ele>219.4</ele>
        <time>2024-05-20T09:21:17Z</time>
      </trkpt>
      <trkpt lat="43.5452" lon="1.1913">
        <ele>219.4</ele>
        <time>2024-05-20T09:21:18Z</time>
      </trkpt>
      <trkpt lat="43.54525" lon="1.19129">
        <ele>219.4</ele>
        <time>2024-05-20T09:21:19Z</time>
      </trkpt>
      <trkpt lat="43.5453" lon="1.19129">
        <ele>219.4</ele>
        <time>2024-05-20T09:21:20Z</time>
      </trkpt>
      <trkpt lat="43.54535" lon="1.19128">
        <ele>219.2</ele>
        <time>2024-05-20T09:21:21Z</time>
      </trkpt>
      <trkpt lat="43.5454" lon="1.19129">
        <ele>219.2</ele>
        <time>2024-05-20T09:21:22Z</time>
      </trkpt>
      <trkpt lat="43.54545" lon="1.1913">
        <ele>219.2</ele>
        <time>2024-05-20T09:21:23Z</time>
      </trkpt>
      <trkpt lat="43.54551" lon="1.19131">
        <ele>219.2</ele>
        <time>2024-05-20T09:21:24Z</time>
      </trkpt>
      <trkpt lat="43.54557" lon="1.19132">
        <ele>219.2</ele>
        <time>2024-05-20T09:21:25Z</time>
      </trkpt>
      <trkpt lat="43.54562" lon="1.19133">
        <ele>219.2</ele>
        <time>2024-05-20T09:21:26Z</time>
      </trkpt>
      <trkpt lat="43.54568" lon="1.19134">
        <ele>219.2</ele>
        <time>2024-05-20T09:21:27Z</time>
      </trkpt>
      <trkpt lat="43.54574" lon="1.19134">
        <ele>219</ele>
        <time>2024-05-20T09:21:28Z</time>
      </trkpt>
      <trkpt lat="43.5458" lon="1.19134">
        <ele>219</ele>
        <time>2024-05-20T09:21:29Z</time>
      </trkpt>
      <trkpt lat="43.54586" lon="1.19134">
        <ele>219</ele>
        <time>2024-05-20T09:21:30Z</time>
      </trkpt>
      <trkpt lat="43.54592" lon="1.19135">
        <ele>219</ele>
        <time>2024-05-20T09:21:31Z</time>
      </trkpt>
      <trkpt lat="43.54599" lon="1.19135">
        <ele>219</ele>
        <time>2024-05-20T09:21:32Z</time>
      </trkpt>
      <trkpt lat="43.54605" lon="1.19135">
        <ele>219</ele>
        <time>2024-05-20T09:21:33Z</time>
      </trkpt>
      <trkpt lat="43.54612" lon="1.19136">
        <ele>219</ele>
        <time>2024-05-20T09:21:34Z</time>
      </trkpt>
      <trkpt lat="43.54619" lon="1.19136">
        <ele>218.8</ele>
        <time>2024-05-20T09:21:35Z</time>
      </trkpt>
      <trkpt lat="43.54626" lon="1.19137">
        <ele>218.8</ele>
        <time>2024-05-20T09:21:36Z</time>
      </trkpt>
      <trkpt lat="43.54633" lon="1.19137">
        <ele>218.8</ele>
        <time>2024-05-20T09:21:37Z</time>
      </trkpt>
      <trkpt lat="43.5464" lon="1.19138">
        <ele>218.8</ele>
        <time>2024-05-20T09:21:38Z</time>
      </trkpt>
      <trkpt lat="43.54646" lon="1.19139">
        <ele>218.6</ele>
        <time>2024-05-20T09:21:39Z</time>
      </trkpt>
      <trkpt lat="43.54653" lon="1.1914">
        <ele>218.6</ele>
        <time>2024-05-20T09:21:40Z</time>
      </trkpt>
      <trkpt lat="43.5466" lon="1.19141">
        <ele>218.6</ele>
        <time>2024-05-20T09:21:41Z</time>
      </trkpt>
      <trkpt lat="43.54667" lon="1.19142">
        <ele>218.6</ele>
        <time>2024-05-20T09:21:42Z</time>
      </trkpt>
      <trkpt lat="43.54673" lon="1.19143">
        <ele>218.6</ele>
        <time>2024-05-20T09:21:43Z</time>
      </trkpt>
      <trkpt lat="43.54679" lon="1.19144">
        <ele>218.6</ele>
        <time>2024-05-20T09:21:44Z</time>
      </trkpt>
      <trkpt lat="43.54685" lon="1.19147">
        <ele>218.6</ele>
        <time>2024-05-20T09:21:45Z</time>
      </trkpt>
      <trkpt lat="43.5469" lon="1.1915">
        <ele>218.6</ele>
        <time>2024-05-20T09:21:46Z</time>
      </trkpt>
      <trkpt lat="43.54695" lon="1.19154">
        <ele>218.6</ele>
        <time>2024-05-20T09:21:47Z</time>
      </trkpt>
      <trkpt lat="43.54699" lon="1.19158">
        <ele>218.6</ele>
        <time>2024-05-20T09:21:48Z</time>
      </trkpt>
      <trkpt lat="43.54703" lon="1.19163">
        <ele>218.6</ele>
        <time>2024-05-20T09:21:49Z</time>
      </trkpt>
      <trkpt lat="43.54707" lon="1.19168">
        <ele>218.6</ele>
        <time>2024-05-20T09:21:50Z</time>
      </trkpt>
      <trkpt lat="43.54711" lon="1.19173">
        <ele>218.6</ele>
        <time>2024-05-20T09:21:51Z</time>
      </trkpt>
      <trkpt lat="43.54717" lon="1.19175">
        <ele>218.6</ele>
        <time>2024-05-20T09:21:52Z</time>
      </trkpt>
      <trkpt lat="43.54723" lon="1.19175">
        <ele>218.6</ele>
        <time>2024-05-20T09:21:53Z</time>
      </trkpt>
      <trkpt lat="43.54729" lon="1.19173">
        <ele>218.6</ele>
        <time>2024-05-20T09:21:54Z</time>
      </trkpt>
      <trkpt lat="43.54735" lon="1.19171">
        <ele>218.6</ele>
        <time>2024-05-20T09:21:55Z</time>
      </trkpt>
      <trkpt lat="43.54741" lon="1.1917">
        <ele>218.6</ele>
        <time>2024-05-20T09:21:56Z</time>
      </trkpt>
      <trkpt lat="43.54748" lon="1.19171">
        <ele>218.6</ele>
        <time>2024-05-20T09:21:57Z</time>
      </trkpt>
      <trkpt lat="43.54755" lon="1.19172">
        <ele>218.6</ele>
        <time>2024-05-20T09:21:58Z</time>
      </trkpt>
      <trkpt lat="43.54761" lon="1.19174">
        <ele>218.6</ele>
        <time>2024-05-20T09:21:59Z</time>
      </trkpt>
      <trkpt lat="43.54768" lon="1.19175">
        <ele>218.6</ele>
        <time>2024-05-20T09:22:00Z</time>
      </trkpt>
      <trkpt lat="43.54775" lon="1.19178">
        <ele>218.6</ele>
        <time>2024-05-20T09:22:01Z</time>
      </trkpt>
      <trkpt lat="43.54782" lon="1.19181">
        <ele>218.8</ele>
        <time>2024-05-20T09:22:02Z</time>
      </trkpt>
      <trkpt lat="43.54788" lon="1.19184">
        <ele>218.8</ele>
        <time>2024-05-20T09:22:03Z</time>
      </trkpt>
      <trkpt lat="43.54795" lon="1.19187">
        <ele>218.8</ele>
        <time>2024-05-20T09:22:04Z</time>
      </trkpt>
      <trkpt lat="43.54802" lon="1.19191">
        <ele>219</ele>
        <time>2024-05-20T09:22:05Z</time>
      </trkpt>
      <trkpt lat="43.54808" lon="1.19195">
        <ele>219</ele>
        <time>2024-05-20T09:22:06Z</time>
      </trkpt>
      <trkpt lat="43.54815" lon="1.19199">
        <ele>219</ele>
        <time>2024-05-20T09:22:07Z</time>
      </trkpt>
      <trkpt lat="43.54822" lon="1.19203">
        <ele>219</ele>
        <time>2024-05-20T09:22:08Z</time>
      </trkpt>
      <trkpt lat="43.54828" lon="1.19207">
        <ele>219</ele>
        <time>2024-05-20T09:22:09Z</time>
      </trkpt>
      <trkpt lat="43.54834" lon="1.1921">
        <ele>219</ele>
        <time>2024-05-20T09:22:10Z</time>
      </trkpt>
      <trkpt lat="43.5484" lon="1.19214">
        <ele>219</ele>
        <time>2024-05-20T09:22:11Z</time>
      </trkpt>
      <trkpt lat="43.54845" lon="1.19217">
        <ele>219</ele>
        <time>2024-05-20T09:22:12Z</time>
      </trkpt>
      <trkpt lat="43.54853" lon="1.19221">
        <ele>219</ele>
        <time>2024-05-20T09:22:13Z</time>
      </trkpt>
      <trkpt lat="43.54859" lon="1.19224">
        <ele>219</ele>
        <time>2024-05-20T09:22:14Z</time>
      </trkpt>
      <trkpt lat="43.54865" lon="1.19228">
        <ele>219</ele>
        <time>2024-05-20T09:22:15Z</time>
      </trkpt>
      <trkpt lat="43.5487" lon="1.19231">
        <ele>219</ele>
        <time>2024-05-20T09:22:16Z</time>
      </trkpt>
      <trkpt lat="43.54877" lon="1.19234">
        <ele>219</ele>
        <time>2024-05-20T09:22:17Z</time>
      </trkpt>
      <trkpt lat="43.54885" lon="1.19238">
        <ele>219</ele>
        <time>2024-05-20T09:22:18Z</time>
      </trkpt>
      <trkpt lat="43.54892" lon="1.19241">
        <ele>218.8</ele>
        <time>2024-05-20T09:22:19Z</time>
      </trkpt>
      <trkpt lat="43.54899" lon="1.19244">
        <ele>218.8</ele>
        <time>2024-05-20T09:22:20Z</time>
      </trkpt>
      <trkpt lat="43.54906" lon="1.19247">
        <ele>218.8</ele>
        <time>2024-05-20T09:22:21Z</time>
      </trkpt>
      <trkpt lat="43.54913" lon="1.1925">
        <ele>218.6</ele>
        <time>2024-05-20T09:22:22Z</time>
      </trkpt>
      <trkpt lat="43.5492" lon="1.19251">
        <ele>218.6</ele>
        <time>2024-05-20T09:22:23Z</time>
      </trkpt>
      <trkpt lat="43.54927" lon="1.19253">
        <ele>218.6</ele>
        <time>2024-05-20T09:22:24Z</time>
      </trkpt>
      <trkpt lat="43.54934" lon="1.19253">
        <ele>218.6</ele>
        <time>2024-05-20T09:22:25Z</time>
      </trkpt>
      <trkpt lat="43.54941" lon="1.19253">
        <ele>218.6</ele>
        <time>2024-05-20T09:22:26Z</time>
      </trkpt>
      <trkpt lat="43.54949" lon="1.19253">
        <ele>218.6</ele>
        <time>2024-05-20T09:22:27Z</time>
      </trkpt>
      <trkpt lat="43.54956" lon="1.19252">
        <ele>218.6</ele>
        <time>2024-05-20T09:22:28Z</time>
      </trkpt>
      <trkpt lat="43.54963" lon="1.19251">
        <ele>218.6</ele>
        <time>2024-05-20T09:22:29Z</time>
      </trkpt>
      <trkpt lat="43.5497" lon="1.19249">
        <ele>218.4</ele>
        <time>2024-05-20T09:22:30Z</time>
      </trkpt>
      <trkpt lat="43.54976" lon="1.19247">
        <ele>218.4</ele>
        <time>2024-05-20T09:22:31Z</time>
      </trkpt>
      <trkpt lat="43.54983" lon="1.19245">
        <ele>218.4</ele>
        <time>2024-05-20T09:22:32Z</time>
      </trkpt>
      <trkpt lat="43.54989" lon="1.19243">
        <ele>218.2</ele>
        <time>2024-05-20T09:22:33Z</time>
      </trkpt>
      <trkpt lat="43.54994" lon="1.19241">
        <ele>218.2</ele>
        <time>2024-05-20T09:22:34Z</time>
      </trkpt>
      <trkpt lat="43.55001" lon="1.19238">
        <ele>218.2</ele>
        <time>2024-05-20T09:22:35Z</time>
      </trkpt>
      <trkpt lat="43.55007" lon="1.19236">
        <ele>218.2</ele>
        <time>2024-05-20T09:22:36Z</time>
      </trkpt>
      <trkpt lat="43.55015" lon="1.19232">
        <ele>218</ele>
        <time>2024-05-20T09:22:37Z</time>
      </trkpt>
      <trkpt lat="43.55022" lon="1.19228">
        <ele>218</ele>
        <time>2024-05-20T09:22:38Z</time>
      </trkpt>
      <trkpt lat="43.55028" lon="1.19225">
        <ele>218</ele>
        <time>2024-05-20T09:22:39Z</time>
      </trkpt>
      <trkpt lat="43.55034" lon="1.19221">
        <ele>217.8</ele>
        <time>2024-05-20T09:22:40Z</time>
      </trkpt>
      <trkpt lat="43.55041" lon="1.19216">
        <ele>217.6</ele>
        <time>2024-05-20T09:22:41Z</time>
      </trkpt>
      <trkpt lat="43.55046" lon="1.19212">
        <ele>217.6</ele>
        <time>2024-05-20T09:22:42Z</time>
      </trkpt>
      <trkpt lat="43.55052" lon="1.19206">
        <ele>217.6</ele>
        <time>2024-05-20T09:22:43Z</time>
      </trkpt>
      <trkpt lat="43.55057" lon="1.19199">
        <ele>217.4</ele>
        <time>2024-05-20T09:22:44Z</time>
      </trkpt>
      <trkpt lat="43.55062" lon="1.19193">
        <ele>217.4</ele>
        <time>2024-05-20T09:22:45Z</time>
      </trkpt>
      <trkpt lat="43.55067" lon="1.19186">
        <ele>217</ele>
        <time>2024-05-20T09:22:46Z</time>
      </trkpt>
      <trkpt lat="43.55072" lon="1.19178">
        <ele>216.8</ele>
        <time>2024-05-20T09:22:47Z</time>
      </trkpt>
      <trkpt lat="43.55078" lon="1.19171">
        <ele>216.8</ele>
        <time>2024-05-20T09:22:48Z</time>
      </trkpt>
      <trkpt lat="43.55084" lon="1.19163">
        <ele>216.4</ele>
        <time>2024-05-20T09:22:49Z</time>
      </trkpt>
      <trkpt lat="43.5509" lon="1.19155">
        <ele>216.4</ele>
        <time>2024-05-20T09:22:50Z</time>
      </trkpt>
      <trkpt lat="43.55097" lon="1.19147">
        <ele>216.2</ele>
        <time>2024-05-20T09:22:51Z</time>
      </trkpt>
      <trkpt lat="43.55105" lon="1.19137">
        <ele>216</ele>
        <time>2024-05-20T09:22:52Z</time>
      </trkpt>
      <trkpt lat="43.55113" lon="1.19132">
        <ele>215.8</ele>
        <time>2024-05-20T09:22:53Z</time>
      </trkpt>
      <trkpt lat="43.55122" lon="1.19128">
        <ele>215.4</ele>
        <time>2024-05-20T09:22:54Z</time>
      </trkpt>
      <trkpt lat="43.55131" lon="1.19126">
        <ele>215.2</ele>
        <time>2024-05-20T09:22:55Z</time>
      </trkpt>
      <trkpt lat="43.5514" lon="1.19124">
        <ele>214.6</ele>
        <time>2024-05-20T09:22:56Z</time>
      </trkpt>
      <trkpt lat="43.55149" lon="1.19124">
        <ele>214.4</ele>
        <time>2024-05-20T09:22:57Z</time>
      </trkpt>
      <trkpt lat="43.55157" lon="1.19124">
        <ele>213.8</ele>
        <time>2024-05-20T09:22:58Z</time>
      </trkpt>
      <trkpt lat="43.55165" lon="1.19124">
        <ele>213.6</ele>
        <time>2024-05-20T09:22:59Z</time>
      </trkpt>
      <trkpt lat="43.55173" lon="1.19124">
        <ele>213.2</ele>
        <time>2024-05-20T09:23:00Z</time>
      </trkpt>
      <trkpt lat="43.55181" lon="1.19124">
        <ele>213</ele>
        <time>2024-05-20T09:23:01Z</time>
      </trkpt>
      <trkpt lat="43.55189" lon="1.19125">
        <ele>212.8</ele>
        <time>2024-05-20T09:23:02Z</time>
      </trkpt>
      <trkpt lat="43.55196" lon="1.19125">
        <ele>212.8</ele>
        <time>2024-05-20T09:23:03Z</time>
      </trkpt>
      <trkpt lat="43.55203" lon="1.19126">
        <ele>212.6</ele>
        <time>2024-05-20T09:23:04Z</time>
      </trkpt>
      <trkpt lat="43.55209" lon="1.19126">
        <ele>212.6</ele>
        <time>2024-05-20T09:23:05Z</time>
      </trkpt>
      <trkpt lat="43.55216" lon="1.19126">
        <ele>212.6</ele>
        <time>2024-05-20T09:23:06Z</time>
      </trkpt>
      <trkpt lat="43.55221" lon="1.19127">
        <ele>212.6</ele>
        <time>2024-05-20T09:23:07Z</time>
      </trkpt>
      <trkpt lat="43.55227" lon="1.19127">
        <ele>212.6</ele>
        <time>2024-05-20T09:23:08Z</time>
      </trkpt>
      <trkpt lat="43.55233" lon="1.19127">
        <ele>212.8</ele>
        <time>2024-05-20T09:23:09Z</time>
      </trkpt>
      <trkpt lat="43.55239" lon="1.19127">
        <ele>213</ele>
        <time>2024-05-20T09:23:10Z</time>
      </trkpt>
      <trkpt lat="43.55245" lon="1.19127">
        <ele>213.2</ele>
        <time>2024-05-20T09:23:11Z</time>
      </trkpt>
      <trkpt lat="43.5525" lon="1.19127">
        <ele>213.4</ele>
        <time>2024-05-20T09:23:12Z</time>
      </trkpt>
      <trkpt lat="43.55256" lon="1.19128">
        <ele>213.6</ele>
        <time>2024-05-20T09:23:13Z</time>
      </trkpt>
      <trkpt lat="43.55261" lon="1.19128">
        <ele>213.8</ele>
        <time>2024-05-20T09:23:14Z</time>
      </trkpt>
      <trkpt lat="43.55266" lon="1.19128">
        <ele>214</ele>
        <time>2024-05-20T09:23:15Z</time>
      </trkpt>
      <trkpt lat="43.55271" lon="1.19128">
        <ele>214.2</ele>
        <time>2024-05-20T09:23:16Z</time>
      </trkpt>
      <trkpt lat="43.55276" lon="1.19128">
        <ele>214.6</ele>
        <time>2024-05-20T09:23:17Z</time>
      </trkpt>
      <trkpt lat="43.55281" lon="1.19129">
        <ele>214.8</ele>
        <time>2024-05-20T09:23:18Z</time>
      </trkpt>
      <trkpt lat="43.55286" lon="1.19129">
        <ele>215.4</ele>
        <time>2024-05-20T09:23:19Z</time>
      </trkpt>
      <trkpt lat="43.55291" lon="1.1913">
        <ele>215.6</ele>
        <time>2024-05-20T09:23:20Z</time>
      </trkpt>
      <trkpt lat="43.55297" lon="1.1913">
        <ele>216</ele>
        <time>2024-05-20T09:23:21Z</time>
      </trkpt>
      <trkpt lat="43.55302" lon="1.19131">
        <ele>216</ele>
        <time>2024-05-20T09:23:22Z</time>
      </trkpt>
      <trkpt lat="43.55307" lon="1.19132">
        <ele>216.2</ele>
        <time>2024-05-20T09:23:23Z</time>
      </trkpt>
      <trkpt lat="43.55313" lon="1.19133">
        <ele>216.2</ele>
        <time>2024-05-20T09:23:24Z</time>
      </trkpt>
      <trkpt lat="43.55318" lon="1.19133">
        <ele>216.2</ele>
        <time>2024-05-20T09:23:25Z</time>
      </trkpt>
      <trkpt lat="43.55324" lon="1.19134">
        <ele>216.2</ele>
        <time>2024-05-20T09:23:26Z</time>
      </trkpt>
      <trkpt lat="43.55329" lon="1.19135">
        <ele>216.2</ele>
        <time>2024-05-20T09:23:27Z</time>
      </trkpt>
      <trkpt lat="43.55335" lon="1.19136">
        <ele>216</ele>
        <time>2024-05-20T09:23:28Z</time>
      </trkpt>
      <trkpt lat="43.55341" lon="1.19137">
        <ele>216</ele>
        <time>2024-05-20T09:23:29Z</time>
      </trkpt>
      <trkpt lat="43.55347" lon="1.19138">
        <ele>216</ele>
        <time>2024-05-20T09:23:30Z</time>
      </trkpt>
      <trkpt lat="43.55353" lon="1.1914">
        <ele>215.8</ele>
        <time>2024-05-20T09:23:31Z</time>
      </trkpt>
      <trkpt lat="43.5536" lon="1.19143">
        <ele>215.8</ele>
        <time>2024-05-20T09:23:32Z</time>
      </trkpt>
      <trkpt lat="43.55366" lon="1.19145">
        <ele>215.6</ele>
        <time>2024-05-20T09:23:33Z</time>
      </trkpt>
      <trkpt lat="43.55373" lon="1.19147">
        <ele>215.6</ele>
        <time>2024-05-20T09:23:34Z</time>
      </trkpt>
      <trkpt lat="43.5538" lon="1.1915">
        <ele>215</ele>
        <time>2024-05-20T09:23:35Z</time>
      </trkpt>
      <trkpt lat="43.55385" lon="1.19152">
        <ele>214.8</ele>
        <time>2024-05-20T09:23:36Z</time>
      </trkpt>
      <trkpt lat="43.55394" lon="1.19155">
        <ele>214.4</ele>
        <time>2024-05-20T09:23:37Z</time>
      </trkpt>
      <trkpt lat="43.55401" lon="1.19157">
        <ele>214.2</ele>
        <time>2024-05-20T09:23:38Z</time>
      </trkpt>
      <trkpt lat="43.55409" lon="1.19159">
        <ele>214</ele>
        <time>2024-05-20T09:23:39Z</time>
      </trkpt>
      <trkpt lat="43.55416" lon="1.19161">
        <ele>213.8</ele>
        <time>2024-05-20T09:23:40Z</time>
      </trkpt>
      <trkpt lat="43.55424" lon="1.19164">
        <ele>213.6</ele>
        <time>2024-05-20T09:23:41Z</time>
      </trkpt>
      <trkpt lat="43.55431" lon="1.19167">
        <ele>213.4</ele>
        <time>2024-05-20T09:23:42Z</time>
      </trkpt>
      <trkpt lat="43.55439" lon="1.1917">
        <ele>213.2</ele>
        <time>2024-05-20T09:23:43Z</time>
      </trkpt>
      <trkpt lat="43.55447" lon="1.19172">
        <ele>213</ele>
        <time>2024-05-20T09:23:44Z</time>
      </trkpt>
      <trkpt lat="43.55454" lon="1.19176">
        <ele>213</ele>
        <time>2024-05-20T09:23:45Z</time>
      </trkpt>
      <trkpt lat="43.55462" lon="1.1918">
        <ele>213</ele>
        <time>2024-05-20T09:23:46Z</time>
      </trkpt>
      <trkpt lat="43.55469" lon="1.19184">
        <ele>212.8</ele>
        <time>2024-05-20T09:23:47Z</time>
      </trkpt>
      <trkpt lat="43.55476" lon="1.19189">
        <ele>212.8</ele>
        <time>2024-05-20T09:23:48Z</time>
      </trkpt>
      <trkpt lat="43.55482" lon="1.19194">
        <ele>212.8</ele>
        <time>2024-05-20T09:23:49Z</time>
      </trkpt>
      <trkpt lat="43.55488" lon="1.19197">
        <ele>212.8</ele>
        <time>2024-05-20T09:23:50Z</time>
      </trkpt>
      <trkpt lat="43.55495" lon="1.19202">
        <ele>213</ele>
        <time>2024-05-20T09:23:51Z</time>
      </trkpt>
      <trkpt lat="43.55502" lon="1.19207">
        <ele>213</ele>
        <time>2024-05-20T09:23:52Z</time>
      </trkpt>
      <trkpt lat="43.55508" lon="1.19211">
        <ele>213</ele>
        <time>2024-05-20T09:23:53Z</time>
      </trkpt>
      <trkpt lat="43.55515" lon="1.19216">
        <ele>213.2</ele>
        <time>2024-05-20T09:23:54Z</time>
      </trkpt>
      <trkpt lat="43.55521" lon="1.1922">
        <ele>213.2</ele>
        <time>2024-05-20T09:23:55Z</time>
      </trkpt>
      <trkpt lat="43.55527" lon="1.19224">
        <ele>213.4</ele>
        <time>2024-05-20T09:23:56Z</time>
      </trkpt>
      <trkpt lat="43.55534" lon="1.19228">
        <ele>213.8</ele>
        <time>2024-05-20T09:23:57Z</time>
      </trkpt>
      <trkpt lat="43.5554" lon="1.19232">
        <ele>214.2</ele>
        <time>2024-05-20T09:23:58Z</time>
      </trkpt>
      <trkpt lat="43.55546" lon="1.19236">
        <ele>214.6</ele>
        <time>2024-05-20T09:23:59Z</time>
      </trkpt>
      <trkpt lat="43.55553" lon="1.19239">
        <ele>214.8</ele>
        <time>2024-05-20T09:24:00Z</time>
      </trkpt>
      <trkpt lat="43.5556" lon="1.19243">
        <ele>215.4</ele>
        <time>2024-05-20T09:24:01Z</time>
      </trkpt>
      <trkpt lat="43.55566" lon="1.19246">
        <ele>215.6</ele>
        <time>2024-05-20T09:24:02Z</time>
      </trkpt>
      <trkpt lat="43.55573" lon="1.19249">
        <ele>216</ele>
        <time>2024-05-20T09:24:03Z</time>
      </trkpt>
      <trkpt lat="43.5558" lon="1.19251">
        <ele>216.2</ele>
        <time>2024-05-20T09:24:04Z</time>
      </trkpt>
      <trkpt lat="43.55587" lon="1.19255">
        <ele>216.4</ele>
        <time>2024-05-20T09:24:05Z</time>
      </trkpt>
      <trkpt lat="43.55594" lon="1.19258">
        <ele>216.6</ele>
        <time>2024-05-20T09:24:06Z</time>
      </trkpt>
      <trkpt lat="43.55601" lon="1.1926">
        <ele>216.8</ele>
        <time>2024-05-20T09:24:07Z</time>
      </trkpt>
      <trkpt lat="43.55608" lon="1.19262">
        <ele>217</ele>
        <time>2024-05-20T09:24:08Z</time>
      </trkpt>
      <trkpt lat="43.55616" lon="1.19264">
        <ele>217</ele>
        <time>2024-05-20T09:24:09Z</time>
      </trkpt>
      <trkpt lat="43.55623" lon="1.19266">
        <ele>217.2</ele>
        <time>2024-05-20T09:24:10Z</time>
      </trkpt>
      <trkpt lat="43.5563" lon="1.19268">
        <ele>217.2</ele>
        <time>2024-05-20T09:24:11Z</time>
      </trkpt>
      <trkpt lat="43.55638" lon="1.1927">
        <ele>217.2</ele>
        <time>2024-05-20T09:24:12Z</time>
      </trkpt>
      <trkpt lat="43.55644" lon="1.19271">
        <ele>217.2</ele>
        <time>2024-05-20T09:24:13Z</time>
      </trkpt>
      <trkpt lat="43.55653" lon="1.19273">
        <ele>217.2</ele>
        <time>2024-05-20T09:24:14Z</time>
      </trkpt>
      <trkpt lat="43.5566" lon="1.19275">
        <ele>217.2</ele>
        <time>2024-05-20T09:24:15Z</time>
      </trkpt>
      <trkpt lat="43.55667" lon="1.19277">
        <ele>217.4</ele>
        <time>2024-05-20T09:24:16Z</time>
      </trkpt>
      <trkpt lat="43.55673" lon="1.19279">
        <ele>217.4</ele>
        <time>2024-05-20T09:24:17Z</time>
      </trkpt>
      <trkpt lat="43.55681" lon="1.19281">
        <ele>217.2</ele>
        <time>2024-05-20T09:24:18Z</time>
      </trkpt>
      <trkpt lat="43.55688" lon="1.19283">
        <ele>217.2</ele>
        <time>2024-05-20T09:24:19Z</time>
      </trkpt>
      <trkpt lat="43.55695" lon="1.19284">
        <ele>217.2</ele>
        <time>2024-05-20T09:24:20Z</time>
      </trkpt>
      <trkpt lat="43.55703" lon="1.19286">
        <ele>217.2</ele>
        <time>2024-05-20T09:24:21Z</time>
      </trkpt>
      <trkpt lat="43.55709" lon="1.19287">
        <ele>217.2</ele>
        <time>2024-05-20T09:24:22Z</time>
      </trkpt>
      <trkpt lat="43.55717" lon="1.19289">
        <ele>217.2</ele>
        <time>2024-05-20T09:24:23Z</time>
      </trkpt>
      <trkpt lat="43.55725" lon="1.1929">
        <ele>217.2</ele>
        <time>2024-05-20T09:24:24Z</time>
      </trkpt>
      <trkpt lat="43.55732" lon="1.19292">
        <ele>217.2</ele>
        <time>2024-05-20T09:24:25Z</time>
      </trkpt>
      <trkpt lat="43.55739" lon="1.19294">
        <ele>217.2</ele>
        <time>2024-05-20T09:24:26Z</time>
      </trkpt>
      <trkpt lat="43.55746" lon="1.19295">
        <ele>217.2</ele>
        <time>2024-05-20T09:24:27Z</time>
      </trkpt>
      <trkpt lat="43.55752" lon="1.19297">
        <ele>217.2</ele>
        <time>2024-05-20T09:24:28Z</time>
      </trkpt>
      <trkpt lat="43.55759" lon="1.193">
        <ele>217</ele>
        <time>2024-05-20T09:24:29Z</time>
      </trkpt>
      <trkpt lat="43.55765" lon="1.19303">
        <ele>217</ele>
        <time>2024-05-20T09:24:30Z</time>
      </trkpt>
      <trkpt lat="43.55772" lon="1.19307">
        <ele>217</ele>
        <time>2024-05-20T09:24:31Z</time>
      </trkpt>
      <trkpt lat="43.55778" lon="1.19312">
        <ele>217</ele>
        <time>2024-05-20T09:24:32Z</time>
      </trkpt>
      <trkpt lat="43.55784" lon="1.19317">
        <ele>217</ele>
        <time>2024-05-20T09:24:33Z</time>
      </trkpt>
      <trkpt lat="43.55789" lon="1.19323">
        <ele>217</ele>
        <time>2024-05-20T09:24:34Z</time>
      </trkpt>
      <trkpt lat="43.55794" lon="1.19331">
        <ele>216.8</ele>
        <time>2024-05-20T09:24:35Z</time>
      </trkpt>
      <trkpt lat="43.55797" lon="1.1934">
        <ele>216.8</ele>
        <time>2024-05-20T09:24:36Z</time>
      </trkpt>
      <trkpt lat="43.558" lon="1.19349">
        <ele>216.8</ele>
        <time>2024-05-20T09:24:37Z</time>
      </trkpt>
      <trkpt lat="43.55802" lon="1.19358">
        <ele>216.8</ele>
        <time>2024-05-20T09:24:38Z</time>
      </trkpt>
      <trkpt lat="43.55803" lon="1.19368">
        <ele>216.8</ele>
        <time>2024-05-20T09:24:39Z</time>
      </trkpt>
      <trkpt lat="43.55803" lon="1.19378">
        <ele>216.6</ele>
        <time>2024-05-20T09:24:40Z</time>
      </trkpt>
      <trkpt lat="43.55802" lon="1.19389">
        <ele>216.6</ele>
        <time>2024-05-20T09:24:41Z</time>
      </trkpt>
      <trkpt lat="43.55801" lon="1.19399">
        <ele>216.6</ele>
        <time>2024-05-20T09:24:42Z</time>
      </trkpt>
      <trkpt lat="43.55801" lon="1.1941">
        <ele>216.6</ele>
        <time>2024-05-20T09:24:43Z</time>
      </trkpt>
      <trkpt lat="43.55801" lon="1.1942">
        <ele>216.6</ele>
        <time>2024-05-20T09:24:44Z</time>
      </trkpt>
      <trkpt lat="43.55801" lon="1.1943">
        <ele>216.6</ele>
        <time>2024-05-20T09:24:45Z</time>
      </trkpt>
      <trkpt lat="43.55801" lon="1.19441">
        <ele>216.6</ele>
        <time>2024-05-20T09:24:46Z</time>
      </trkpt>
      <trkpt lat="43.55801" lon="1.19452">
        <ele>216.6</ele>
        <time>2024-05-20T09:24:47Z</time>
      </trkpt>
      <trkpt lat="43.55801" lon="1.19462">
        <ele>216.6</ele>
        <time>2024-05-20T09:24:48Z</time>
      </trkpt>
      <trkpt lat="43.55801" lon="1.19473">
        <ele>216.6</ele>
        <time>2024-05-20T09:24:49Z</time>
      </trkpt>
      <trkpt lat="43.55801" lon="1.19484">
        <ele>216.6</ele>
        <time>2024-05-20T09:24:50Z</time>
      </trkpt>
      <trkpt lat="43.558" lon="1.19494">
        <ele>216.6</ele>
        <time>2024-05-20T09:24:51Z</time>
      </trkpt>
      <trkpt lat="43.55801" lon="1.19505">
        <ele>216.6</ele>
        <time>2024-05-20T09:24:52Z</time>
      </trkpt>
      <trkpt lat="43.55801" lon="1.19516">
        <ele>216.6</ele>
        <time>2024-05-20T09:24:53Z</time>
      </trkpt>
      <trkpt lat="43.55801" lon="1.19525">
        <ele>216.6</ele>
        <time>2024-05-20T09:24:54Z</time>
      </trkpt>
      <trkpt lat="43.55802" lon="1.19535">
        <ele>216.6</ele>
        <time>2024-05-20T09:24:55Z</time>
      </trkpt>
      <trkpt lat="43.55803" lon="1.19548">
        <ele>216.4</ele>
        <time>2024-05-20T09:24:56Z</time>
      </trkpt>
      <trkpt lat="43.55805" lon="1.19559">
        <ele>216.4</ele>
        <time>2024-05-20T09:24:57Z</time>
      </trkpt>
      <trkpt lat="43.55806" lon="1.1957">
        <ele>216.4</ele>
        <time>2024-05-20T09:24:58Z</time>
      </trkpt>
      <trkpt lat="43.55807" lon="1.19579">
        <ele>216.4</ele>
        <time>2024-05-20T09:24:59Z</time>
      </trkpt>
      <trkpt lat="43.55808" lon="1.19592">
        <ele>216.2</ele>
        <time>2024-05-20T09:25:00Z</time>
      </trkpt>
      <trkpt lat="43.5581" lon="1.19603">
        <ele>216.2</ele>
        <time>2024-05-20T09:25:01Z</time>
      </trkpt>
      <trkpt lat="43.55811" lon="1.19614">
        <ele>216.2</ele>
        <time>2024-05-20T09:25:02Z</time>
      </trkpt>
      <trkpt lat="43.55812" lon="1.19625">
        <ele>216.2</ele>
        <time>2024-05-20T09:25:03Z</time>
      </trkpt>
      <trkpt lat="43.55814" lon="1.19636">
        <ele>216.2</ele>
        <time>2024-05-20T09:25:04Z</time>
      </trkpt>
      <trkpt lat="43.55815" lon="1.19647">
        <ele>216.2</ele>
        <time>2024-05-20T09:25:05Z</time>
      </trkpt>
      <trkpt lat="43.55817" lon="1.19658">
        <ele>216.2</ele>
        <time>2024-05-20T09:25:06Z</time>
      </trkpt>
      <trkpt lat="43.55819" lon="1.19669">
        <ele>216.2</ele>
        <time>2024-05-20T09:25:07Z</time>
      </trkpt>
      <trkpt lat="43.55821" lon="1.1968">
        <ele>216.2</ele>
        <time>2024-05-20T09:25:08Z</time>
      </trkpt>
      <trkpt lat="43.55823" lon="1.1969">
        <ele>216.2</ele>
        <time>2024-05-20T09:25:09Z</time>
      </trkpt>
      <trkpt lat="43.55826" lon="1.19701">
        <ele>216.2</ele>
        <time>2024-05-20T09:25:10Z</time>
      </trkpt>
      <trkpt lat="43.5583" lon="1.19711">
        <ele>216.2</ele>
        <time>2024-05-20T09:25:11Z</time>
      </trkpt>
      <trkpt lat="43.55833" lon="1.19722">
        <ele>216.2</ele>
        <time>2024-05-20T09:25:12Z</time>
      </trkpt>
      <trkpt lat="43.55837" lon="1.19732">
        <ele>216.2</ele>
        <time>2024-05-20T09:25:13Z</time>
      </trkpt>
      <trkpt lat="43.5584" lon="1.19743">
        <ele>216.2</ele>
        <time>2024-05-20T09:25:14Z</time>
      </trkpt>
      <trkpt lat="43.55844" lon="1.19753">
        <ele>216.2</ele>
        <time>2024-05-20T09:25:15Z</time>
      </trkpt>
      <trkpt lat="43.55847" lon="1.19764">
        <ele>216.2</ele>
        <time>2024-05-20T09:25:16Z</time>
      </trkpt>
      <trkpt lat="43.5585" lon="1.19775">
        <ele>216.2</ele>
        <time>2024-05-20T09:25:17Z</time>
      </trkpt>
      <trkpt lat="43.55853" lon="1.19786">
        <ele>216.2</ele>
        <time>2024-05-20T09:25:18Z</time>
      </trkpt>
      <trkpt lat="43.55854" lon="1.19797">
        <ele>216.2</ele>
        <time>2024-05-20T09:25:19Z</time>
      </trkpt>
      <trkpt lat="43.55855" lon="1.19808">
        <ele>216.2</ele>
        <time>2024-05-20T09:25:20Z</time>
      </trkpt>
      <trkpt lat="43.55856" lon="1.19819">
        <ele>216.2</ele>
        <time>2024-05-20T09:25:21Z</time>
      </trkpt>
      <trkpt lat="43.55856" lon="1.19828">
        <ele>216.2</ele>
        <time>2024-05-20T09:25:22Z</time>
      </trkpt>
      <trkpt lat="43.55856" lon="1.1984">
        <ele>216.2</ele>
        <time>2024-05-20T09:25:23Z</time>
      </trkpt>
      <trkpt lat="43.55856" lon="1.19851">
        <ele>216.2</ele>
        <time>2024-05-20T09:25:24Z</time>
      </trkpt>
      <trkpt lat="43.55855" lon="1.19862">
        <ele>216.4</ele>
        <time>2024-05-20T09:25:25Z</time>
      </trkpt>
      <trkpt lat="43.55855" lon="1.19873">
        <ele>216.6</ele>
        <time>2024-05-20T09:25:26Z</time>
      </trkpt>
      <trkpt lat="43.55855" lon="1.19883">
        <ele>217</ele>
        <time>2024-05-20T09:25:27Z</time>
      </trkpt>
      <trkpt lat="43.55854" lon="1.19894">
        <ele>217</ele>
        <time>2024-05-20T09:25:28Z</time>
      </trkpt>
      <trkpt lat="43.55854" lon="1.19904">
        <ele>217.2</ele>
        <time>2024-05-20T09:25:29Z</time>
      </trkpt>
      <trkpt lat="43.55855" lon="1.19914">
        <ele>217.2</ele>
        <time>2024-05-20T09:25:30Z</time>
      </trkpt>
      <trkpt lat="43.55855" lon="1.19923">
        <ele>217.4</ele>
        <time>2024-05-20T09:25:31Z</time>
      </trkpt>
      <trkpt lat="43.55856" lon="1.19933">
        <ele>217.6</ele>
        <time>2024-05-20T09:25:32Z</time>
      </trkpt>
      <trkpt lat="43.55857" lon="1.19942">
        <ele>217.6</ele>
        <time>2024-05-20T09:25:33Z</time>
      </trkpt>
      <trkpt lat="43.55859" lon="1.19951">
        <ele>217.8</ele>
        <time>2024-05-20T09:25:34Z</time>
      </trkpt>
      <trkpt lat="43.55862" lon="1.1996">
        <ele>217.8</ele>
        <time>2024-05-20T09:25:35Z</time>
      </trkpt>
      <trkpt lat="43.55865" lon="1.19969">
        <ele>217.8</ele>
        <time>2024-05-20T09:25:36Z</time>
      </trkpt>
      <trkpt lat="43.55869" lon="1.19977">
        <ele>217.8</ele>
        <time>2024-05-20T09:25:37Z</time>
      </trkpt>
      <trkpt lat="43.55874" lon="1.19986">
        <ele>217.8</ele>
        <time>2024-05-20T09:25:38Z</time>
      </trkpt>
      <trkpt lat="43.55878" lon="1.19995">
        <ele>217.8</ele>
        <time>2024-05-20T09:25:39Z</time>
      </trkpt>
      <trkpt lat="43.55883" lon="1.20003">
        <ele>217.8</ele>
        <time>2024-05-20T09:25:40Z</time>
      </trkpt>
      <trkpt lat="43.55888" lon="1.20011">
        <ele>217.8</ele>
        <time>2024-05-20T09:25:41Z</time>
      </trkpt>
      <trkpt lat="43.55894" lon="1.2002">
        <ele>217.8</ele>
        <time>2024-05-20T09:25:42Z</time>
      </trkpt>
      <trkpt lat="43.55899" lon="1.20028">
        <ele>217.6</ele>
        <time>2024-05-20T09:25:43Z</time>
      </trkpt>
      <trkpt lat="43.55904" lon="1.20037">
        <ele>217.6</ele>
        <time>2024-05-20T09:25:44Z</time>
      </trkpt>
      <trkpt lat="43.55908" lon="1.20045">
        <ele>217.4</ele>
        <time>2024-05-20T09:25:45Z</time>
      </trkpt>
      <trkpt lat="43.55913" lon="1.20054">
        <ele>217.2</ele>
        <time>2024-05-20T09:25:46Z</time>
      </trkpt>
      <trkpt lat="43.5592" lon="1.20065">
        <ele>217.2</ele>
        <time>2024-05-20T09:25:47Z</time>
      </trkpt>
      <trkpt lat="43.55925" lon="1.20075">
        <ele>217</ele>
        <time>2024-05-20T09:25:48Z</time>
      </trkpt>
      <trkpt lat="43.5593" lon="1.20084">
        <ele>217</ele>
        <time>2024-05-20T09:25:49Z</time>
      </trkpt>
      <trkpt lat="43.55935" lon="1.20092">
        <ele>217</ele>
        <time>2024-05-20T09:25:50Z</time>
      </trkpt>
      <trkpt lat="43.55941" lon="1.20103">
        <ele>217</ele>
        <time>2024-05-20T09:25:51Z</time>
      </trkpt>
      <trkpt lat="43.55947" lon="1.20113">
        <ele>217</ele>
        <time>2024-05-20T09:25:52Z</time>
      </trkpt>
      <trkpt lat="43.55952" lon="1.20123">
        <ele>217</ele>
        <time>2024-05-20T09:25:53Z</time>
      </trkpt>
      <trkpt lat="43.55958" lon="1.20132">
        <ele>217</ele>
        <time>2024-05-20T09:25:54Z</time>
      </trkpt>
      <trkpt lat="43.55963" lon="1.20142">
        <ele>217</ele>
        <time>2024-05-20T09:25:55Z</time>
      </trkpt>
      <trkpt lat="43.55969" lon="1.2015">
        <ele>217</ele>
        <time>2024-05-20T09:25:56Z</time>
      </trkpt>
      <trkpt lat="43.55975" lon="1.20159">
        <ele>217</ele>
        <time>2024-05-20T09:25:57Z</time>
      </trkpt>
      <trkpt lat="43.55981" lon="1.20168">
        <ele>217.2</ele>
        <time>2024-05-20T09:25:58Z</time>
      </trkpt>
      <trkpt lat="43.55987" lon="1.20176">
        <ele>217.2</ele>
        <time>2024-05-20T09:25:59Z</time>
      </trkpt>
      <trkpt lat="43.55994" lon="1.20184">
        <ele>217.2</ele>
        <time>2024-05-20T09:26:00Z</time>
      </trkpt>
      <trkpt lat="43.56" lon="1.20192">
        <ele>217.2</ele>
        <time>2024-05-20T09:26:01Z</time>
      </trkpt>
      <trkpt lat="43.56006" lon="1.20199">
        <ele>217.2</ele>
        <time>2024-05-20T09:26:02Z</time>
      </trkpt>
      <trkpt lat="43.56012" lon="1.20207">
        <ele>217.2</ele>
        <time>2024-05-20T09:26:03Z</time>
      </trkpt>
      <trkpt lat="43.56017" lon="1.20212">
        <ele>217.4</ele>
        <time>2024-05-20T09:26:04Z</time>
      </trkpt>
      <trkpt lat="43.56031" lon="1.20229">
        <ele>217.4</ele>
        <time>2024-05-20T09:26:05Z</time>
      </trkpt>
      <trkpt lat="43.56037" lon="1.20236">
        <ele>217.4</ele>
        <time>2024-05-20T09:26:06Z</time>
      </trkpt>
      <trkpt lat="43.56037" lon="1.20236">
        <ele>217.4</ele>
        <time>2024-05-20T09:26:07Z</time>
      </trkpt>
      <trkpt lat="43.56044" lon="1.20245">
        <ele>217.4</ele>
        <time>2024-05-20T09:26:08Z</time>
      </trkpt>
      <trkpt lat="43.5605" lon="1.20253">
        <ele>217.4</ele>
        <time>2024-05-20T09:26:09Z</time>
      </trkpt>
      <trkpt lat="43.56056" lon="1.20261">
        <ele>217.4</ele>
        <time>2024-05-20T09:26:10Z</time>
      </trkpt>
      <trkpt lat="43.56068" lon="1.20277">
        <ele>217.4</ele>
        <time>2024-05-20T09:26:11Z</time>
      </trkpt>
      <trkpt lat="43.56068" lon="1.20277">
        <ele>217.4</ele>
        <time>2024-05-20T09:26:12Z</time>
      </trkpt>
      <trkpt lat="43.56074" lon="1.20286">
        <ele>217.2</ele>
        <time>2024-05-20T09:26:13Z</time>
      </trkpt>
      <trkpt lat="43.56086" lon="1.20305">
        <ele>217.2</ele>
        <time>2024-05-20T09:26:14Z</time>
      </trkpt>
      <trkpt lat="43.56091" lon="1.20314">
        <ele>217</ele>
        <time>2024-05-20T09:26:15Z</time>
      </trkpt>
      <trkpt lat="43.56097" lon="1.20324">
        <ele>216.6</ele>
        <time>2024-05-20T09:26:16Z</time>
      </trkpt>
      <trkpt lat="43.56102" lon="1.20334">
        <ele>216.6</ele>
        <time>2024-05-20T09:26:17Z</time>
      </trkpt>
      <trkpt lat="43.56102" lon="1.20334">
        <ele>216.2</ele>
        <time>2024-05-20T09:26:18Z</time>
      </trkpt>
      <trkpt lat="43.56107" lon="1.20344">
        <ele>215.8</ele>
        <time>2024-05-20T09:26:19Z</time>
      </trkpt>
      <trkpt lat="43.56119" lon="1.20367">
        <ele>215.4</ele>
        <time>2024-05-20T09:26:20Z</time>
      </trkpt>
      <trkpt lat="43.56119" lon="1.20367">
        <ele>215.4</ele>
        <time>2024-05-20T09:26:21Z</time>
      </trkpt>
      <trkpt lat="43.56124" lon="1.20378">
        <ele>215.2</ele>
        <time>2024-05-20T09:26:22Z</time>
      </trkpt>
      <trkpt lat="43.56128" lon="1.20388">
        <ele>214.8</ele>
        <time>2024-05-20T09:26:23Z</time>
      </trkpt>
      <trkpt lat="43.56141" lon="1.20415">
        <ele>214.6</ele>
        <time>2024-05-20T09:26:24Z</time>
      </trkpt>
      <trkpt lat="43.56147" lon="1.20428">
        <ele>214.4</ele>
        <time>2024-05-20T09:26:25Z</time>
      </trkpt>
      <trkpt lat="43.56147" lon="1.20428">
        <ele>214</ele>
        <time>2024-05-20T09:26:26Z</time>
      </trkpt>
      <trkpt lat="43.56153" lon="1.2044">
        <ele>213.4</ele>
        <time>2024-05-20T09:26:27Z</time>
      </trkpt>
      <trkpt lat="43.56165" lon="1.20465">
        <ele>213</ele>
        <time>2024-05-20T09:26:28Z</time>
      </trkpt>
      <trkpt lat="43.5617" lon="1.20478">
        <ele>212.2</ele>
        <time>2024-05-20T09:26:29Z</time>
      </trkpt>
      <trkpt lat="43.5617" lon="1.20478">
        <ele>212</ele>
        <time>2024-05-20T09:26:30Z</time>
      </trkpt>
      <trkpt lat="43.56176" lon="1.2049">
        <ele>211.8</ele>
        <time>2024-05-20T09:26:31Z</time>
      </trkpt>
      <trkpt lat="43.56182" lon="1.20502">
        <ele>211.4</ele>
        <time>2024-05-20T09:26:32Z</time>
      </trkpt>
      <trkpt lat="43.56187" lon="1.20514">
        <ele>211.2</ele>
        <time>2024-05-20T09:26:33Z</time>
      </trkpt>
      <trkpt lat="43.56192" lon="1.20526">
        <ele>210.8</ele>
        <time>2024-05-20T09:26:34Z</time>
      </trkpt>
      <trkpt lat="43.56198" lon="1.20537">
        <ele>210.6</ele>
        <time>2024-05-20T09:26:35Z</time>
      </trkpt>
      <trkpt lat="43.56203" lon="1.20548">
        <ele>210.6</ele>
        <time>2024-05-20T09:26:36Z</time>
      </trkpt>
      <trkpt lat="43.56213" lon="1.2057">
        <ele>210.6</ele>
        <time>2024-05-20T09:26:37Z</time>
      </trkpt>
      <trkpt lat="43.56217" lon="1.20581">
        <ele>210.6</ele>
        <time>2024-05-20T09:26:38Z</time>
      </trkpt>
      <trkpt lat="43.56222" lon="1.20591">
        <ele>210.4</ele>
        <time>2024-05-20T09:26:39Z</time>
      </trkpt>
      <trkpt lat="43.56227" lon="1.20601">
        <ele>210.4</ele>
        <time>2024-05-20T09:26:40Z</time>
      </trkpt>
      <trkpt lat="43.56231" lon="1.20612">
        <ele>210.4</ele>
        <time>2024-05-20T09:26:41Z</time>
      </trkpt>
      <trkpt lat="43.56231" lon="1.20612">
        <ele>210.6</ele>
        <time>2024-05-20T09:26:42Z</time>
      </trkpt>
      <trkpt lat="43.5624" lon="1.20632">
        <ele>210.6</ele>
        <time>2024-05-20T09:26:43Z</time>
      </trkpt>
      <trkpt lat="43.56245" lon="1.20642">
        <ele>210.8</ele>
        <time>2024-05-20T09:26:44Z</time>
      </trkpt>
      <trkpt lat="43.56245" lon="1.20642">
        <ele>211</ele>
        <time>2024-05-20T09:26:45Z</time>
      </trkpt>
      <trkpt lat="43.56254" lon="1.20662">
        <ele>211.4</ele>
        <time>2024-05-20T09:26:46Z</time>
      </trkpt>
      <trkpt lat="43.56258" lon="1.20672">
        <ele>211.8</ele>
        <time>2024-05-20T09:26:47Z</time>
      </trkpt>
      <trkpt lat="43.56262" lon="1.20682">
        <ele>212</ele>
        <time>2024-05-20T09:26:48Z</time>
      </trkpt>
      <trkpt lat="43.56267" lon="1.20692">
        <ele>212.2</ele>
        <time>2024-05-20T09:26:49Z</time>
      </trkpt>
      <trkpt lat="43.56267" lon="1.20692">
        <ele>212.4</ele>
        <time>2024-05-20T09:26:50Z</time>
      </trkpt>
      <trkpt lat="43.56274" lon="1.20712">
        <ele>212.8</ele>
        <time>2024-05-20T09:26:51Z</time>
      </trkpt>
      <trkpt lat="43.56278" lon="1.20722">
        <ele>213</ele>
        <time>2024-05-20T09:26:52Z</time>
      </trkpt>
      <trkpt lat="43.56278" lon="1.20722">
        <ele>213.4</ele>
        <time>2024-05-20T09:26:53Z</time>
      </trkpt>
      <trkpt lat="43.56286" lon="1.20742">
        <ele>213.6</ele>
        <time>2024-05-20T09:26:54Z</time>
      </trkpt>
      <trkpt lat="43.56286" lon="1.20742">
        <ele>214</ele>
        <time>2024-05-20T09:26:55Z</time>
      </trkpt>
      <trkpt lat="43.56289" lon="1.20752">
        <ele>214.2</ele>
        <time>2024-05-20T09:26:56Z</time>
      </trkpt>
      <trkpt lat="43.56296" lon="1.20773">
        <ele>214.6</ele>
        <time>2024-05-20T09:26:57Z</time>
      </trkpt>
      <trkpt lat="43.563" lon="1.20783">
        <ele>214.8</ele>
        <time>2024-05-20T09:26:58Z</time>
      </trkpt>
      <trkpt lat="43.563" lon="1.20783">
        <ele>215.2</ele>
        <time>2024-05-20T09:26:59Z</time>
      </trkpt>
      <trkpt lat="43.56303" lon="1.20794">
        <ele>215.4</ele>
        <time>2024-05-20T09:27:00Z</time>
      </trkpt>
      <trkpt lat="43.5631" lon="1.20815">
        <ele>215.6</ele>
        <time>2024-05-20T09:27:01Z</time>
      </trkpt>
      <trkpt lat="43.56313" lon="1.20825">
        <ele>215.8</ele>
        <time>2024-05-20T09:27:02Z</time>
      </trkpt>
      <trkpt lat="43.56316" lon="1.20835">
        <ele>215.8</ele>
        <time>2024-05-20T09:27:03Z</time>
      </trkpt>
      <trkpt lat="43.56319" lon="1.20845">
        <ele>216</ele>
        <time>2024-05-20T09:27:04Z</time>
      </trkpt>
      <trkpt lat="43.56321" lon="1.20855">
        <ele>216</ele>
        <time>2024-05-20T09:27:05Z</time>
      </trkpt>
      <trkpt lat="43.56324" lon="1.20864">
        <ele>216.2</ele>
        <time>2024-05-20T09:27:06Z</time>
      </trkpt>
      <trkpt lat="43.56327" lon="1.20872">
        <ele>216.2</ele>
        <time>2024-05-20T09:27:07Z</time>
      </trkpt>
      <trkpt lat="43.5633" lon="1.20881">
        <ele>216.2</ele>
        <time>2024-05-20T09:27:08Z</time>
      </trkpt>
      <trkpt lat="43.56333" lon="1.20893">
        <ele>216.2</ele>
        <time>2024-05-20T09:27:09Z</time>
      </trkpt>
      <trkpt lat="43.56336" lon="1.20902">
        <ele>216.2</ele>
        <time>2024-05-20T09:27:10Z</time>
      </trkpt>
      <trkpt lat="43.56338" lon="1.20913">
        <ele>216.4</ele>
        <time>2024-05-20T09:27:11Z</time>
      </trkpt>
      <trkpt lat="43.56341" lon="1.20923">
        <ele>216.4</ele>
        <time>2024-05-20T09:27:12Z</time>
      </trkpt>
      <trkpt lat="43.56344" lon="1.20933">
        <ele>216.4</ele>
        <time>2024-05-20T09:27:13Z</time>
      </trkpt>
      <trkpt lat="43.56346" lon="1.20943">
        <ele>216.6</ele>
        <time>2024-05-20T09:27:14Z</time>
      </trkpt>
      <trkpt lat="43.56349" lon="1.20954">
        <ele>216.6</ele>
        <time>2024-05-20T09:27:15Z</time>
      </trkpt>
      <trkpt lat="43.56351" lon="1.20965">
        <ele>216.6</ele>
        <time>2024-05-20T09:27:16Z</time>
      </trkpt>
      <trkpt lat="43.56353" lon="1.20975">
        <ele>216.6</ele>
        <time>2024-05-20T09:27:17Z</time>
      </trkpt>
      <trkpt lat="43.56353" lon="1.20975">
        <ele>216.6</ele>
        <time>2024-05-20T09:27:18Z</time>
      </trkpt>
      <trkpt lat="43.56356" lon="1.20997">
        <ele>216.6</ele>
        <time>2024-05-20T09:27:19Z</time>
      </trkpt>
      <trkpt lat="43.56357" lon="1.21009">
        <ele>216.6</ele>
        <time>2024-05-20T09:27:20Z</time>
      </trkpt>
      <trkpt lat="43.56358" lon="1.2102">
        <ele>216.6</ele>
        <time>2024-05-20T09:27:21Z</time>
      </trkpt>
      <trkpt lat="43.56359" lon="1.21031">
        <ele>216.6</ele>
        <time>2024-05-20T09:27:22Z</time>
      </trkpt>
      <trkpt lat="43.5636" lon="1.21043">
        <ele>216.4</ele>
        <time>2024-05-20T09:27:23Z</time>
      </trkpt>
      <trkpt lat="43.5636" lon="1.21054">
        <ele>216.4</ele>
        <time>2024-05-20T09:27:24Z</time>
      </trkpt>
      <trkpt lat="43.56361" lon="1.21066">
        <ele>216.2</ele>
        <time>2024-05-20T09:27:25Z</time>
      </trkpt>
      <trkpt lat="43.56362" lon="1.21078">
        <ele>216.4</ele>
        <time>2024-05-20T09:27:26Z</time>
      </trkpt>
      <trkpt lat="43.56362" lon="1.21078">
        <ele>216</ele>
        <time>2024-05-20T09:27:27Z</time>
      </trkpt>
      <trkpt lat="43.56364" lon="1.21102">
        <ele>216.2</ele>
        <time>2024-05-20T09:27:28Z</time>
      </trkpt>
      <trkpt lat="43.56366" lon="1.21115">
        <ele>216.2</ele>
        <time>2024-05-20T09:27:29Z</time>
      </trkpt>
      <trkpt lat="43.56368" lon="1.21126">
        <ele>216.2</ele>
        <time>2024-05-20T09:27:30Z</time>
      </trkpt>
      <trkpt lat="43.56371" lon="1.21138">
        <ele>216.2</ele>
        <time>2024-05-20T09:27:31Z</time>
      </trkpt>
      <trkpt lat="43.56373" lon="1.21147">
        <ele>216.2</ele>
        <time>2024-05-20T09:27:32Z</time>
      </trkpt>
      <trkpt lat="43.56376" lon="1.21158">
        <ele>216.2</ele>
        <time>2024-05-20T09:27:33Z</time>
      </trkpt>
      <trkpt lat="43.5638" lon="1.2117">
        <ele>216.2</ele>
        <time>2024-05-20T09:27:34Z</time>
      </trkpt>
      <trkpt lat="43.56383" lon="1.21182">
        <ele>216.2</ele>
        <time>2024-05-20T09:27:35Z</time>
      </trkpt>
      <trkpt lat="43.56386" lon="1.21193">
        <ele>216.2</ele>
        <time>2024-05-20T09:27:36Z</time>
      </trkpt>
      <trkpt lat="43.56389" lon="1.21205">
        <ele>216</ele>
        <time>2024-05-20T09:27:37Z</time>
      </trkpt>
      <trkpt lat="43.56393" lon="1.21217">
        <ele>216</ele>
        <time>2024-05-20T09:27:38Z</time>
      </trkpt>
      <trkpt lat="43.56396" lon="1.21229">
        <ele>216</ele>
        <time>2024-05-20T09:27:39Z</time>
      </trkpt>
      <trkpt lat="43.564" lon="1.21242">
        <ele>216</ele>
        <time>2024-05-20T09:27:40Z</time>
      </trkpt>
      <trkpt lat="43.564" lon="1.21242">
        <ele>216</ele>
        <time>2024-05-20T09:27:41Z</time>
      </trkpt>
      <trkpt lat="43.56408" lon="1.21269">
        <ele>216</ele>
        <time>2024-05-20T09:27:42Z</time>
      </trkpt>
      <trkpt lat="43.56412" lon="1.21284">
        <ele>216</ele>
        <time>2024-05-20T09:27:43Z</time>
      </trkpt>
      <trkpt lat="43.56416" lon="1.21299">
        <ele>215.8</ele>
        <time>2024-05-20T09:27:44Z</time>
      </trkpt>
      <trkpt lat="43.5642" lon="1.21314">
        <ele>215.8</ele>
        <time>2024-05-20T09:27:45Z</time>
      </trkpt>
      <trkpt lat="43.5642" lon="1.21314">
        <ele>215.4</ele>
        <time>2024-05-20T09:27:46Z</time>
      </trkpt>
      <trkpt lat="43.56428" lon="1.21344">
        <ele>215.4</ele>
        <time>2024-05-20T09:27:47Z</time>
      </trkpt>
      <trkpt lat="43.56433" lon="1.21362">
        <ele>215.2</ele>
        <time>2024-05-20T09:27:48Z</time>
      </trkpt>
      <trkpt lat="43.56436" lon="1.21374">
        <ele>215</ele>
        <time>2024-05-20T09:27:49Z</time>
      </trkpt>
      <trkpt lat="43.56441" lon="1.21389">
        <ele>215</ele>
        <time>2024-05-20T09:27:50Z</time>
      </trkpt>
      <trkpt lat="43.56441" lon="1.21389">
        <ele>214.8</ele>
        <time>2024-05-20T09:27:51Z</time>
      </trkpt>
      <trkpt lat="43.56448" lon="1.21419">
        <ele>214.8</ele>
        <time>2024-05-20T09:27:52Z</time>
      </trkpt>
      <trkpt lat="43.56452" lon="1.21433">
        <ele>214.6</ele>
        <time>2024-05-20T09:27:53Z</time>
      </trkpt>
      <trkpt lat="43.56456" lon="1.21448">
        <ele>214.6</ele>
        <time>2024-05-20T09:27:54Z</time>
      </trkpt>
      <trkpt lat="43.5646" lon="1.21463">
        <ele>214.4</ele>
        <time>2024-05-20T09:27:55Z</time>
      </trkpt>
      <trkpt lat="43.56463" lon="1.21477">
        <ele>214.4</ele>
        <time>2024-05-20T09:27:56Z</time>
      </trkpt>
      <trkpt lat="43.56466" lon="1.21492">
        <ele>214.4</ele>
        <time>2024-05-20T09:27:57Z</time>
      </trkpt>
      <trkpt lat="43.56469" lon="1.21506">
        <ele>214.6</ele>
        <time>2024-05-20T09:27:58Z</time>
      </trkpt>
      <trkpt lat="43.56472" lon="1.2152">
        <ele>214.6</ele>
        <time>2024-05-20T09:27:59Z</time>
      </trkpt>
      <trkpt lat="43.56475" lon="1.21534">
        <ele>215</ele>
        <time>2024-05-20T09:28:00Z</time>
      </trkpt>
      <trkpt lat="43.56475" lon="1.21534">
        <ele>215</ele>
        <time>2024-05-20T09:28:01Z</time>
      </trkpt>
      <trkpt lat="43.56482" lon="1.21561">
        <ele>215.2</ele>
        <time>2024-05-20T09:28:02Z</time>
      </trkpt>
      <trkpt lat="43.56485" lon="1.21574">
        <ele>215.2</ele>
        <time>2024-05-20T09:28:03Z</time>
      </trkpt>
      <trkpt lat="43.56489" lon="1.21587">
        <ele>215.4</ele>
        <time>2024-05-20T09:28:04Z</time>
      </trkpt>
      <trkpt lat="43.56492" lon="1.216">
        <ele>215.4</ele>
        <time>2024-05-20T09:28:05Z</time>
      </trkpt>
      <trkpt lat="43.56495" lon="1.21612">
        <ele>215.4</ele>
        <time>2024-05-20T09:28:06Z</time>
      </trkpt>
      <trkpt lat="43.56498" lon="1.21624">
        <ele>215.4</ele>
        <time>2024-05-20T09:28:07Z</time>
      </trkpt>
      <trkpt lat="43.56501" lon="1.21636">
        <ele>215.6</ele>
        <time>2024-05-20T09:28:08Z</time>
      </trkpt>
      <trkpt lat="43.56504" lon="1.21648">
        <ele>215.8</ele>
        <time>2024-05-20T09:28:09Z</time>
      </trkpt>
      <trkpt lat="43.56504" lon="1.21648">
        <ele>215.8</ele>
        <time>2024-05-20T09:28:10Z</time>
      </trkpt>
      <trkpt lat="43.5651" lon="1.2167">
        <ele>215.8</ele>
        <time>2024-05-20T09:28:11Z</time>
      </trkpt>
      <trkpt lat="43.56513" lon="1.21682">
        <ele>216</ele>
        <time>2024-05-20T09:28:12Z</time>
      </trkpt>
      <trkpt lat="43.56517" lon="1.21693">
        <ele>216</ele>
        <time>2024-05-20T09:28:13Z</time>
      </trkpt>
      <trkpt lat="43.56521" lon="1.21703">
        <ele>216</ele>
        <time>2024-05-20T09:28:14Z</time>
      </trkpt>
      <trkpt lat="43.56524" lon="1.21714">
        <ele>216.2</ele>
        <time>2024-05-20T09:28:15Z</time>
      </trkpt>
      <trkpt lat="43.56529" lon="1.21724">
        <ele>216.2</ele>
        <time>2024-05-20T09:28:16Z</time>
      </trkpt>
      <trkpt lat="43.56533" lon="1.21734">
        <ele>216.4</ele>
        <time>2024-05-20T09:28:17Z</time>
      </trkpt>
      <trkpt lat="43.56538" lon="1.21744">
        <ele>216.4</ele>
        <time>2024-05-20T09:28:18Z</time>
      </trkpt>
      <trkpt lat="43.56542" lon="1.21754">
        <ele>216.6</ele>
        <time>2024-05-20T09:28:19Z</time>
      </trkpt>
      <trkpt lat="43.56542" lon="1.21754">
        <ele>216.6</ele>
        <time>2024-05-20T09:28:20Z</time>
      </trkpt>
      <trkpt lat="43.56549" lon="1.21776">
        <ele>216.6</ele>
        <time>2024-05-20T09:28:21Z</time>
      </trkpt>
      <trkpt lat="43.56552" lon="1.21788">
        <ele>216.6</ele>
        <time>2024-05-20T09:28:22Z</time>
      </trkpt>
      <trkpt lat="43.56554" lon="1.21799">
        <ele>216.2</ele>
        <time>2024-05-20T09:28:23Z</time>
      </trkpt>
      <trkpt lat="43.56556" lon="1.2181">
        <ele>216</ele>
        <time>2024-05-20T09:28:24Z</time>
      </trkpt>
      <trkpt lat="43.56556" lon="1.2181">
        <ele>216</ele>
        <time>2024-05-20T09:28:25Z</time>
      </trkpt>
      <trkpt lat="43.56561" lon="1.21833">
        <ele>215.8</ele>
        <time>2024-05-20T09:28:26Z</time>
      </trkpt>
      <trkpt lat="43.56563" lon="1.21845">
        <ele>215.8</ele>
        <time>2024-05-20T09:28:27Z</time>
      </trkpt>
      <trkpt lat="43.56565" lon="1.21857">
        <ele>215.6</ele>
        <time>2024-05-20T09:28:28Z</time>
      </trkpt>
      <trkpt lat="43.56566" lon="1.21869">
        <ele>215.6</ele>
        <time>2024-05-20T09:28:29Z</time>
      </trkpt>
      <trkpt lat="43.56568" lon="1.21881">
        <ele>215.4</ele>
        <time>2024-05-20T09:28:30Z</time>
      </trkpt>
      <trkpt lat="43.5657" lon="1.21893">
        <ele>215.4</ele>
        <time>2024-05-20T09:28:31Z</time>
      </trkpt>
      <trkpt lat="43.56572" lon="1.21905">
        <ele>215.4</ele>
        <time>2024-05-20T09:28:32Z</time>
      </trkpt>
      <trkpt lat="43.56575" lon="1.21917">
        <ele>215.4</ele>
        <time>2024-05-20T09:28:33Z</time>
      </trkpt>
      <trkpt lat="43.56575" lon="1.21917">
        <ele>215.4</ele>
        <time>2024-05-20T09:28:34Z</time>
      </trkpt>
      <trkpt lat="43.56582" lon="1.21942">
        <ele>215.4</ele>
        <time>2024-05-20T09:28:35Z</time>
      </trkpt>
      <trkpt lat="43.56586" lon="1.21953">
        <ele>215.4</ele>
        <time>2024-05-20T09:28:36Z</time>
      </trkpt>
      <trkpt lat="43.56589" lon="1.21962">
        <ele>215.4</ele>
        <time>2024-05-20T09:28:37Z</time>
      </trkpt>
      <trkpt lat="43.56589" lon="1.21962">
        <ele>215.4</ele>
        <time>2024-05-20T09:28:38Z</time>
      </trkpt>
      <trkpt lat="43.56596" lon="1.21983">
        <ele>215.4</ele>
        <time>2024-05-20T09:28:39Z</time>
      </trkpt>
      <trkpt lat="43.56599" lon="1.21993">
        <ele>215.8</ele>
        <time>2024-05-20T09:28:40Z</time>
      </trkpt>
      <trkpt lat="43.56599" lon="1.21993">
        <ele>215.8</ele>
        <time>2024-05-20T09:28:41Z</time>
      </trkpt>
      <trkpt lat="43.56607" lon="1.22013">
        <ele>215.8</ele>
        <time>2024-05-20T09:28:42Z</time>
      </trkpt>
      <trkpt lat="43.5661" lon="1.22023">
        <ele>215.8</ele>
        <time>2024-05-20T09:28:43Z</time>
      </trkpt>
      <trkpt lat="43.56613" lon="1.22034">
        <ele>215.6</ele>
        <time>2024-05-20T09:28:44Z</time>
      </trkpt>
      <trkpt lat="43.56613" lon="1.22034">
        <ele>215.6</ele>
        <time>2024-05-20T09:28:45Z</time>
      </trkpt>
      <trkpt lat="43.5662" lon="1.22054">
        <ele>215.6</ele>
        <time>2024-05-20T09:28:46Z</time>
      </trkpt>
      <trkpt lat="43.5662" lon="1.22054">
        <ele>215.6</ele>
        <time>2024-05-20T09:28:47Z</time>
      </trkpt>
      <trkpt lat="43.56626" lon="1.22075">
        <ele>215.6</ele>
        <time>2024-05-20T09:28:48Z</time>
      </trkpt>
      <trkpt lat="43.56629" lon="1.22086">
        <ele>215.6</ele>
        <time>2024-05-20T09:28:49Z</time>
      </trkpt>
      <trkpt lat="43.56629" lon="1.22086">
        <ele>215.6</ele>
        <time>2024-05-20T09:28:50Z</time>
      </trkpt>
      <trkpt lat="43.56635" lon="1.22107">
        <ele>215.6</ele>
        <time>2024-05-20T09:28:51Z</time>
      </trkpt>
      <trkpt lat="43.56637" lon="1.22118">
        <ele>215.6</ele>
        <time>2024-05-20T09:28:52Z</time>
      </trkpt>
      <trkpt lat="43.5664" lon="1.22129">
        <ele>215.4</ele>
        <time>2024-05-20T09:28:53Z</time>
      </trkpt>
      <trkpt lat="43.56643" lon="1.22139">
        <ele>215.2</ele>
        <time>2024-05-20T09:28:54Z</time>
      </trkpt>
      <trkpt lat="43.56646" lon="1.22149">
        <ele>215.2</ele>
        <time>2024-05-20T09:28:55Z</time>
      </trkpt>
      <trkpt lat="43.56649" lon="1.22159">
        <ele>215</ele>
        <time>2024-05-20T09:28:56Z</time>
      </trkpt>
      <trkpt lat="43.56652" lon="1.2217">
        <ele>215</ele>
        <time>2024-05-20T09:28:57Z</time>
      </trkpt>
      <trkpt lat="43.56655" lon="1.2218">
        <ele>215</ele>
        <time>2024-05-20T09:28:58Z</time>
      </trkpt>
      <trkpt lat="43.56655" lon="1.2218">
        <ele>215</ele>
        <time>2024-05-20T09:28:59Z</time>
      </trkpt>
      <trkpt lat="43.56658" lon="1.22191">
        <ele>215</ele>
        <time>2024-05-20T09:29:00Z</time>
      </trkpt>
      <trkpt lat="43.56663" lon="1.22213">
        <ele>215</ele>
        <time>2024-05-20T09:29:01Z</time>
      </trkpt>
      <trkpt lat="43.56666" lon="1.22224">
        <ele>215</ele>
        <time>2024-05-20T09:29:02Z</time>
      </trkpt>
      <trkpt lat="43.56668" lon="1.22235">
        <ele>215</ele>
        <time>2024-05-20T09:29:03Z</time>
      </trkpt>
      <trkpt lat="43.56668" lon="1.22235">
        <ele>215</ele>
        <time>2024-05-20T09:29:04Z</time>
      </trkpt>
      <trkpt lat="43.56673" lon="1.22257">
        <ele>215.2</ele>
        <time>2024-05-20T09:29:05Z</time>
      </trkpt>
      <trkpt lat="43.56676" lon="1.22267">
        <ele>215.2</ele>
        <time>2024-05-20T09:29:06Z</time>
      </trkpt>
      <trkpt lat="43.56678" lon="1.22278">
        <ele>215</ele>
        <time>2024-05-20T09:29:07Z</time>
      </trkpt>
      <trkpt lat="43.5668" lon="1.22289">
        <ele>215.2</ele>
        <time>2024-05-20T09:29:08Z</time>
      </trkpt>
      <trkpt lat="43.5668" lon="1.22289">
        <ele>215.2</ele>
        <time>2024-05-20T09:29:09Z</time>
      </trkpt>
      <trkpt lat="43.56685" lon="1.2231">
        <ele>215</ele>
        <time>2024-05-20T09:29:10Z</time>
      </trkpt>
      <trkpt lat="43.56688" lon="1.22321">
        <ele>215.2</ele>
        <time>2024-05-20T09:29:11Z</time>
      </trkpt>
      <trkpt lat="43.56691" lon="1.22331">
        <ele>215.2</ele>
        <time>2024-05-20T09:29:12Z</time>
      </trkpt>
      <trkpt lat="43.56694" lon="1.22342">
        <ele>215.2</ele>
        <time>2024-05-20T09:29:13Z</time>
      </trkpt>
      <trkpt lat="43.56694" lon="1.22342">
        <ele>215</ele>
        <time>2024-05-20T09:29:14Z</time>
      </trkpt>
      <trkpt lat="43.56701" lon="1.22363">
        <ele>215.2</ele>
        <time>2024-05-20T09:29:15Z</time>
      </trkpt>
      <trkpt lat="43.56704" lon="1.22373">
        <ele>215.2</ele>
        <time>2024-05-20T09:29:16Z</time>
      </trkpt>
      <trkpt lat="43.56708" lon="1.22383">
        <ele>215.2</ele>
        <time>2024-05-20T09:29:17Z</time>
      </trkpt>
      <trkpt lat="43.56712" lon="1.22394">
        <ele>215.2</ele>
        <time>2024-05-20T09:29:18Z</time>
      </trkpt>
      <trkpt lat="43.56712" lon="1.22394">
        <ele>215.2</ele>
        <time>2024-05-20T09:29:19Z</time>
      </trkpt>
      <trkpt lat="43.56719" lon="1.22415">
        <ele>215.2</ele>
        <time>2024-05-20T09:29:20Z</time>
      </trkpt>
      <trkpt lat="43.56722" lon="1.22425">
        <ele>215.2</ele>
        <time>2024-05-20T09:29:21Z</time>
      </trkpt>
      <trkpt lat="43.56725" lon="1.22436">
        <ele>215.4</ele>
        <time>2024-05-20T09:29:22Z</time>
      </trkpt>
      <trkpt lat="43.56728" lon="1.22447">
        <ele>215.4</ele>
        <time>2024-05-20T09:29:23Z</time>
      </trkpt>
      <trkpt lat="43.56728" lon="1.22447">
        <ele>215.4</ele>
        <time>2024-05-20T09:29:24Z</time>
      </trkpt>
      <trkpt lat="43.56732" lon="1.22469">
        <ele>215.4</ele>
        <time>2024-05-20T09:29:25Z</time>
      </trkpt>
      <trkpt lat="43.56733" lon="1.2248">
        <ele>215.4</ele>
        <time>2024-05-20T09:29:26Z</time>
      </trkpt>
      <trkpt lat="43.56733" lon="1.2248">
        <ele>215.4</ele>
        <time>2024-05-20T09:29:27Z</time>
      </trkpt>
      <trkpt lat="43.56737" lon="1.22502">
        <ele>215.4</ele>
        <time>2024-05-20T09:29:28Z</time>
      </trkpt>
      <trkpt lat="43.56739" lon="1.22514">
        <ele>215.4</ele>
        <time>2024-05-20T09:29:29Z</time>
      </trkpt>
      <trkpt lat="43.5674" lon="1.22525">
        <ele>215.4</ele>
        <time>2024-05-20T09:29:30Z</time>
      </trkpt>
      <trkpt lat="43.56741" lon="1.22537">
        <ele>215.4</ele>
        <time>2024-05-20T09:29:31Z</time>
      </trkpt>
      <trkpt lat="43.56743" lon="1.22548">
        <ele>215.4</ele>
        <time>2024-05-20T09:29:32Z</time>
      </trkpt>
      <trkpt lat="43.56744" lon="1.2256">
        <ele>215.4</ele>
        <time>2024-05-20T09:29:33Z</time>
      </trkpt>
      <trkpt lat="43.56744" lon="1.22572">
        <ele>215.4</ele>
        <time>2024-05-20T09:29:34Z</time>
      </trkpt>
      <trkpt lat="43.56745" lon="1.22584">
        <ele>215.4</ele>
        <time>2024-05-20T09:29:35Z</time>
      </trkpt>
      <trkpt lat="43.56746" lon="1.22596">
        <ele>215.4</ele>
        <time>2024-05-20T09:29:36Z</time>
      </trkpt>
      <trkpt lat="43.56747" lon="1.22608">
        <ele>215.4</ele>
        <time>2024-05-20T09:29:37Z</time>
      </trkpt>
      <trkpt lat="43.56747" lon="1.2262">
        <ele>215.4</ele>
        <time>2024-05-20T09:29:38Z</time>
      </trkpt>
      <trkpt lat="43.56748" lon="1.22633">
        <ele>215.4</ele>
        <time>2024-05-20T09:29:39Z</time>
      </trkpt>
      <trkpt lat="43.56748" lon="1.22645">
        <ele>215.2</ele>
        <time>2024-05-20T09:29:40Z</time>
      </trkpt>
      <trkpt lat="43.56749" lon="1.22657">
        <ele>215.2</ele>
        <time>2024-05-20T09:29:41Z</time>
      </trkpt>
      <trkpt lat="43.5675" lon="1.2267">
        <ele>215</ele>
        <time>2024-05-20T09:29:42Z</time>
      </trkpt>
      <trkpt lat="43.5675" lon="1.2267">
        <ele>214.8</ele>
        <time>2024-05-20T09:29:43Z</time>
      </trkpt>
      <trkpt lat="43.56751" lon="1.22695">
        <ele>214.6</ele>
        <time>2024-05-20T09:29:44Z</time>
      </trkpt>
      <trkpt lat="43.56752" lon="1.22708">
        <ele>214.4</ele>
        <time>2024-05-20T09:29:45Z</time>
      </trkpt>
      <trkpt lat="43.56753" lon="1.2272">
        <ele>214.4</ele>
        <time>2024-05-20T09:29:46Z</time>
      </trkpt>
      <trkpt lat="43.56753" lon="1.22733">
        <ele>214.2</ele>
        <time>2024-05-20T09:29:47Z</time>
      </trkpt>
      <trkpt lat="43.56754" lon="1.22745">
        <ele>214.2</ele>
        <time>2024-05-20T09:29:48Z</time>
      </trkpt>
      <trkpt lat="43.56754" lon="1.22758">
        <ele>214</ele>
        <time>2024-05-20T09:29:49Z</time>
      </trkpt>
      <trkpt lat="43.56755" lon="1.22771">
        <ele>213.8</ele>
        <time>2024-05-20T09:29:50Z</time>
      </trkpt>
      <trkpt lat="43.56756" lon="1.22783">
        <ele>213.6</ele>
        <time>2024-05-20T09:29:51Z</time>
      </trkpt>
      <trkpt lat="43.56757" lon="1.22796">
        <ele>213.6</ele>
        <time>2024-05-20T09:29:52Z</time>
      </trkpt>
      <trkpt lat="43.56759" lon="1.22808">
        <ele>213.4</ele>
        <time>2024-05-20T09:29:53Z</time>
      </trkpt>
      <trkpt lat="43.5676" lon="1.22821">
        <ele>213.4</ele>
        <time>2024-05-20T09:29:54Z</time>
      </trkpt>
      <trkpt lat="43.56762" lon="1.22833">
        <ele>213.4</ele>
        <time>2024-05-20T09:29:55Z</time>
      </trkpt>
      <trkpt lat="43.56764" lon="1.22845">
        <ele>213.4</ele>
        <time>2024-05-20T09:29:56Z</time>
      </trkpt>
      <trkpt lat="43.56766" lon="1.22857">
        <ele>213.4</ele>
        <time>2024-05-20T09:29:57Z</time>
      </trkpt>
      <trkpt lat="43.56768" lon="1.22869">
        <ele>213.4</ele>
        <time>2024-05-20T09:29:58Z</time>
      </trkpt>
      <trkpt lat="43.56771" lon="1.22881">
        <ele>213.4</ele>
        <time>2024-05-20T09:29:59Z</time>
      </trkpt>
      <trkpt lat="43.56773" lon="1.22893">
        <ele>213.4</ele>
        <time>2024-05-20T09:30:00Z</time>
      </trkpt>
      <trkpt lat="43.56776" lon="1.22905">
        <ele>213.4</ele>
        <time>2024-05-20T09:30:01Z</time>
      </trkpt>
      <trkpt lat="43.56776" lon="1.22905">
        <ele>213.4</ele>
        <time>2024-05-20T09:30:02Z</time>
      </trkpt>
      <trkpt lat="43.56784" lon="1.2293">
        <ele>213.4</ele>
        <time>2024-05-20T09:30:03Z</time>
      </trkpt>
      <trkpt lat="43.56789" lon="1.22942">
        <ele>213.4</ele>
        <time>2024-05-20T09:30:04Z</time>
      </trkpt>
      <trkpt lat="43.56794" lon="1.22955">
        <ele>213.4</ele>
        <time>2024-05-20T09:30:05Z</time>
      </trkpt>
      <trkpt lat="43.568" lon="1.22968">
        <ele>213.4</ele>
        <time>2024-05-20T09:30:06Z</time>
      </trkpt>
      <trkpt lat="43.568" lon="1.22968">
        <ele>213.4</ele>
        <time>2024-05-20T09:30:07Z</time>
      </trkpt>
      <trkpt lat="43.56813" lon="1.22993">
        <ele>213.2</ele>
        <time>2024-05-20T09:30:08Z</time>
      </trkpt>
      <trkpt lat="43.56819" lon="1.23005">
        <ele>213.2</ele>
        <time>2024-05-20T09:30:09Z</time>
      </trkpt>
      <trkpt lat="43.56825" lon="1.23017">
        <ele>213</ele>
        <time>2024-05-20T09:30:10Z</time>
      </trkpt>
      <trkpt lat="43.56831" lon="1.23029">
        <ele>212.8</ele>
        <time>2024-05-20T09:30:11Z</time>
      </trkpt>
      <trkpt lat="43.56837" lon="1.23041">
        <ele>212.8</ele>
        <time>2024-05-20T09:30:12Z</time>
      </trkpt>
      <trkpt lat="43.56843" lon="1.23052">
        <ele>212.8</ele>
        <time>2024-05-20T09:30:13Z</time>
      </trkpt>
      <trkpt lat="43.56849" lon="1.23064">
        <ele>212.8</ele>
        <time>2024-05-20T09:30:14Z</time>
      </trkpt>
      <trkpt lat="43.56856" lon="1.23076">
        <ele>212.6</ele>
        <time>2024-05-20T09:30:15Z</time>
      </trkpt>
      <trkpt lat="43.56862" lon="1.23087">
        <ele>212.6</ele>
        <time>2024-05-20T09:30:16Z</time>
      </trkpt>
      <trkpt lat="43.56868" lon="1.23099">
        <ele>212.6</ele>
        <time>2024-05-20T09:30:17Z</time>
      </trkpt>
      <trkpt lat="43.56874" lon="1.23111">
        <ele>212.6</ele>
        <time>2024-05-20T09:30:18Z</time>
      </trkpt>
      <trkpt lat="43.5688" lon="1.23122">
        <ele>212.6</ele>
        <time>2024-05-20T09:30:19Z</time>
      </trkpt>
      <trkpt lat="43.56886" lon="1.23134">
        <ele>212.4</ele>
        <time>2024-05-20T09:30:20Z</time>
      </trkpt>
      <trkpt lat="43.56891" lon="1.23145">
        <ele>212.4</ele>
        <time>2024-05-20T09:30:21Z</time>
      </trkpt>
      <trkpt lat="43.56897" lon="1.23156">
        <ele>212.4</ele>
        <time>2024-05-20T09:30:22Z</time>
      </trkpt>
      <trkpt lat="43.56902" lon="1.23168">
        <ele>212.4</ele>
        <time>2024-05-20T09:30:23Z</time>
      </trkpt>
      <trkpt lat="43.56906" lon="1.23181">
        <ele>212.2</ele>
        <time>2024-05-20T09:30:24Z</time>
      </trkpt>
      <trkpt lat="43.56909" lon="1.23194">
        <ele>212.2</ele>
        <time>2024-05-20T09:30:25Z</time>
      </trkpt>
      <trkpt lat="43.56909" lon="1.23194">
        <ele>212.2</ele>
        <time>2024-05-20T09:30:26Z</time>
      </trkpt>
      <trkpt lat="43.56912" lon="1.23221">
        <ele>212.2</ele>
        <time>2024-05-20T09:30:27Z</time>
      </trkpt>
      <trkpt lat="43.56913" lon="1.23235">
        <ele>212.2</ele>
        <time>2024-05-20T09:30:28Z</time>
      </trkpt>
      <trkpt lat="43.56914" lon="1.23249">
        <ele>212.2</ele>
        <time>2024-05-20T09:30:29Z</time>
      </trkpt>
      <trkpt lat="43.56916" lon="1.23262">
        <ele>212.2</ele>
        <time>2024-05-20T09:30:30Z</time>
      </trkpt>
      <trkpt lat="43.56917" lon="1.23276">
        <ele>212.4</ele>
        <time>2024-05-20T09:30:31Z</time>
      </trkpt>
      <trkpt lat="43.56918" lon="1.2329">
        <ele>212.4</ele>
        <time>2024-05-20T09:30:32Z</time>
      </trkpt>
      <trkpt lat="43.5692" lon="1.23304">
        <ele>212.4</ele>
        <time>2024-05-20T09:30:33Z</time>
      </trkpt>
      <trkpt lat="43.56921" lon="1.23319">
        <ele>212.6</ele>
        <time>2024-05-20T09:30:34Z</time>
      </trkpt>
      <trkpt lat="43.56921" lon="1.23333">
        <ele>212.6</ele>
        <time>2024-05-20T09:30:35Z</time>
      </trkpt>
      <trkpt lat="43.56922" lon="1.23348">
        <ele>212.6</ele>
        <time>2024-05-20T09:30:36Z</time>
      </trkpt>
      <trkpt lat="43.56923" lon="1.23362">
        <ele>212.6</ele>
        <time>2024-05-20T09:30:37Z</time>
      </trkpt>
      <trkpt lat="43.56924" lon="1.23377">
        <ele>212.6</ele>
        <time>2024-05-20T09:30:38Z</time>
      </trkpt>
      <trkpt lat="43.56925" lon="1.23392">
        <ele>212.4</ele>
        <time>2024-05-20T09:30:39Z</time>
      </trkpt>
      <trkpt lat="43.56926" lon="1.23408">
        <ele>212.4</ele>
        <time>2024-05-20T09:30:40Z</time>
      </trkpt>
      <trkpt lat="43.56927" lon="1.23423">
        <ele>212.4</ele>
        <time>2024-05-20T09:30:41Z</time>
      </trkpt>
      <trkpt lat="43.56929" lon="1.23439">
        <ele>212.2</ele>
        <time>2024-05-20T09:30:42Z</time>
      </trkpt>
      <trkpt lat="43.5693" lon="1.23458">
        <ele>212</ele>
        <time>2024-05-20T09:30:43Z</time>
      </trkpt>
      <trkpt lat="43.56932" lon="1.23471">
        <ele>212</ele>
        <time>2024-05-20T09:30:44Z</time>
      </trkpt>
      <trkpt lat="43.56934" lon="1.23487">
        <ele>211.8</ele>
        <time>2024-05-20T09:30:45Z</time>
      </trkpt>
      <trkpt lat="43.56938" lon="1.23507">
        <ele>211.6</ele>
        <time>2024-05-20T09:30:46Z</time>
      </trkpt>
      <trkpt lat="43.56941" lon="1.23521">
        <ele>211.4</ele>
        <time>2024-05-20T09:30:47Z</time>
      </trkpt>
      <trkpt lat="43.56944" lon="1.23541">
        <ele>211.2</ele>
        <time>2024-05-20T09:30:48Z</time>
      </trkpt>
      <trkpt lat="43.56947" lon="1.23555">
        <ele>211</ele>
        <time>2024-05-20T09:30:49Z</time>
      </trkpt>
      <trkpt lat="43.56949" lon="1.23573">
        <ele>210.8</ele>
        <time>2024-05-20T09:30:50Z</time>
      </trkpt>
      <trkpt lat="43.56954" lon="1.23595">
        <ele>210.6</ele>
        <time>2024-05-20T09:30:51Z</time>
      </trkpt>
      <trkpt lat="43.56957" lon="1.23613">
        <ele>210.2</ele>
        <time>2024-05-20T09:30:52Z</time>
      </trkpt>
      <trkpt lat="43.5696" lon="1.23628">
        <ele>210</ele>
        <time>2024-05-20T09:30:53Z</time>
      </trkpt>
      <trkpt lat="43.56963" lon="1.23646">
        <ele>209.6</ele>
        <time>2024-05-20T09:30:54Z</time>
      </trkpt>
      <trkpt lat="43.56967" lon="1.23666">
        <ele>209.2</ele>
        <time>2024-05-20T09:30:55Z</time>
      </trkpt>
      <trkpt lat="43.5697" lon="1.23685">
        <ele>209.2</ele>
        <time>2024-05-20T09:30:56Z</time>
      </trkpt>
      <trkpt lat="43.56974" lon="1.23708">
        <ele>208.8</ele>
        <time>2024-05-20T09:30:57Z</time>
      </trkpt>
      <trkpt lat="43.56976" lon="1.23723">
        <ele>208.8</ele>
        <time>2024-05-20T09:30:58Z</time>
      </trkpt>
      <trkpt lat="43.56979" lon="1.23742">
        <ele>208.4</ele>
        <time>2024-05-20T09:30:59Z</time>
      </trkpt>
      <trkpt lat="43.56981" lon="1.23764">
        <ele>208.4</ele>
        <time>2024-05-20T09:31:00Z</time>
      </trkpt>
      <trkpt lat="43.56981" lon="1.23764">
        <ele>208</ele>
        <time>2024-05-20T09:31:01Z</time>
      </trkpt>
      <trkpt lat="43.5698" lon="1.23799">
        <ele>207.8</ele>
        <time>2024-05-20T09:31:02Z</time>
      </trkpt>
      <trkpt lat="43.56978" lon="1.23812">
        <ele>207.6</ele>
        <time>2024-05-20T09:31:03Z</time>
      </trkpt>
      <trkpt lat="43.56978" lon="1.23812">
        <ele>207.6</ele>
        <time>2024-05-20T09:31:04Z</time>
      </trkpt>
      <trkpt lat="43.5697" lon="1.23845">
        <ele>207.4</ele>
        <time>2024-05-20T09:31:05Z</time>
      </trkpt>
      <trkpt lat="43.56966" lon="1.2386">
        <ele>207.4</ele>
        <time>2024-05-20T09:31:06Z</time>
      </trkpt>
      <trkpt lat="43.56963" lon="1.23875">
        <ele>207.4</ele>
        <time>2024-05-20T09:31:07Z</time>
      </trkpt>
      <trkpt lat="43.5696" lon="1.23886">
        <ele>207.6</ele>
        <time>2024-05-20T09:31:08Z</time>
      </trkpt>
      <trkpt lat="43.56956" lon="1.23903">
        <ele>207.8</ele>
        <time>2024-05-20T09:31:09Z</time>
      </trkpt>
      <trkpt lat="43.56952" lon="1.23918">
        <ele>208</ele>
        <time>2024-05-20T09:31:10Z</time>
      </trkpt>
      <trkpt lat="43.56949" lon="1.23929">
        <ele>208</ele>
        <time>2024-05-20T09:31:11Z</time>
      </trkpt>
      <trkpt lat="43.56946" lon="1.23943">
        <ele>208.2</ele>
        <time>2024-05-20T09:31:12Z</time>
      </trkpt>
      <trkpt lat="43.56946" lon="1.23943">
        <ele>208.2</ele>
        <time>2024-05-20T09:31:13Z</time>
      </trkpt>
      <trkpt lat="43.5694" lon="1.23972">
        <ele>208.4</ele>
        <time>2024-05-20T09:31:14Z</time>
      </trkpt>
      <trkpt lat="43.56938" lon="1.23989">
        <ele>208.6</ele>
        <time>2024-05-20T09:31:15Z</time>
      </trkpt>
      <trkpt lat="43.56937" lon="1.24003">
        <ele>208.6</ele>
        <time>2024-05-20T09:31:16Z</time>
      </trkpt>
      <trkpt lat="43.56935" lon="1.24014">
        <ele>208.8</ele>
        <time>2024-05-20T09:31:17Z</time>
      </trkpt>
      <trkpt lat="43.56934" lon="1.24028">
        <ele>208.8</ele>
        <time>2024-05-20T09:31:18Z</time>
      </trkpt>
      <trkpt lat="43.56934" lon="1.24042">
        <ele>208.8</ele>
        <time>2024-05-20T09:31:19Z</time>
      </trkpt>
      <trkpt lat="43.56933" lon="1.24056">
        <ele>208.8</ele>
        <time>2024-05-20T09:31:20Z</time>
      </trkpt>
      <trkpt lat="43.56932" lon="1.2407">
        <ele>208.8</ele>
        <time>2024-05-20T09:31:21Z</time>
      </trkpt>
      <trkpt lat="43.56931" lon="1.24084">
        <ele>208.8</ele>
        <time>2024-05-20T09:31:22Z</time>
      </trkpt>
      <trkpt lat="43.5693" lon="1.24101">
        <ele>208.8</ele>
        <time>2024-05-20T09:31:23Z</time>
      </trkpt>
      <trkpt lat="43.56929" lon="1.24112">
        <ele>208.8</ele>
        <time>2024-05-20T09:31:24Z</time>
      </trkpt>
      <trkpt lat="43.56928" lon="1.24128">
        <ele>208.8</ele>
        <time>2024-05-20T09:31:25Z</time>
      </trkpt>
      <trkpt lat="43.56928" lon="1.24138">
        <ele>208.8</ele>
        <time>2024-05-20T09:31:26Z</time>
      </trkpt>
      <trkpt lat="43.56927" lon="1.24152">
        <ele>208.8</ele>
        <time>2024-05-20T09:31:27Z</time>
      </trkpt>
      <trkpt lat="43.56926" lon="1.24168">
        <ele>208.8</ele>
        <time>2024-05-20T09:31:28Z</time>
      </trkpt>
      <trkpt lat="43.56925" lon="1.24181">
        <ele>209</ele>
        <time>2024-05-20T09:31:29Z</time>
      </trkpt>
      <trkpt lat="43.56924" lon="1.24192">
        <ele>209</ele>
        <time>2024-05-20T09:31:30Z</time>
      </trkpt>
      <trkpt lat="43.56924" lon="1.24205">
        <ele>209</ele>
        <time>2024-05-20T09:31:31Z</time>
      </trkpt>
      <trkpt lat="43.56923" lon="1.24218">
        <ele>209</ele>
        <time>2024-05-20T09:31:32Z</time>
      </trkpt>
      <trkpt lat="43.56923" lon="1.24231">
        <ele>209</ele>
        <time>2024-05-20T09:31:33Z</time>
      </trkpt>
      <trkpt lat="43.56923" lon="1.24247">
        <ele>209</ele>
        <time>2024-05-20T09:31:34Z</time>
      </trkpt>
      <trkpt lat="43.56924" lon="1.24258">
        <ele>209</ele>
        <time>2024-05-20T09:31:35Z</time>
      </trkpt>
      <trkpt lat="43.56925" lon="1.24271">
        <ele>209.2</ele>
        <time>2024-05-20T09:31:36Z</time>
      </trkpt>
      <trkpt lat="43.56927" lon="1.24287">
        <ele>209.2</ele>
        <time>2024-05-20T09:31:37Z</time>
      </trkpt>
      <trkpt lat="43.56929" lon="1.24299">
        <ele>209.2</ele>
        <time>2024-05-20T09:31:38Z</time>
      </trkpt>
      <trkpt lat="43.56931" lon="1.2431">
        <ele>209.2</ele>
        <time>2024-05-20T09:31:39Z</time>
      </trkpt>
      <trkpt lat="43.56934" lon="1.24322">
        <ele>209.2</ele>
        <time>2024-05-20T09:31:40Z</time>
      </trkpt>
      <trkpt lat="43.56934" lon="1.24322">
        <ele>209.2</ele>
        <time>2024-05-20T09:31:41Z</time>
      </trkpt>
      <trkpt lat="43.56941" lon="1.24347">
        <ele>209.2</ele>
        <time>2024-05-20T09:31:42Z</time>
      </trkpt>
      <trkpt lat="43.56945" lon="1.24362">
        <ele>209</ele>
        <time>2024-05-20T09:31:43Z</time>
      </trkpt>
      <trkpt lat="43.56948" lon="1.24372">
        <ele>209</ele>
        <time>2024-05-20T09:31:44Z</time>
      </trkpt>
      <trkpt lat="43.56952" lon="1.24384">
        <ele>209</ele>
        <time>2024-05-20T09:31:45Z</time>
      </trkpt>
      <trkpt lat="43.56956" lon="1.24396">
        <ele>209</ele>
        <time>2024-05-20T09:31:46Z</time>
      </trkpt>
      <trkpt lat="43.56961" lon="1.24409">
        <ele>209</ele>
        <time>2024-05-20T09:31:47Z</time>
      </trkpt>
      <trkpt lat="43.56966" lon="1.24423">
        <ele>209</ele>
        <time>2024-05-20T09:31:48Z</time>
      </trkpt>
      <trkpt lat="43.56969" lon="1.24433">
        <ele>209</ele>
        <time>2024-05-20T09:31:49Z</time>
      </trkpt>
      <trkpt lat="43.56974" lon="1.24446">
        <ele>209</ele>
        <time>2024-05-20T09:31:50Z</time>
      </trkpt>
      <trkpt lat="43.56978" lon="1.2446">
        <ele>209</ele>
        <time>2024-05-20T09:31:51Z</time>
      </trkpt>
      <trkpt lat="43.56982" lon="1.24472">
        <ele>209</ele>
        <time>2024-05-20T09:31:52Z</time>
      </trkpt>
      <trkpt lat="43.56985" lon="1.24482">
        <ele>208.8</ele>
        <time>2024-05-20T09:31:53Z</time>
      </trkpt>
      <trkpt lat="43.56988" lon="1.24494">
        <ele>208.8</ele>
        <time>2024-05-20T09:31:54Z</time>
      </trkpt>
      <trkpt lat="43.56988" lon="1.24494">
        <ele>208.8</ele>
        <time>2024-05-20T09:31:55Z</time>
      </trkpt>
      <trkpt lat="43.56991" lon="1.24518">
        <ele>208.8</ele>
        <time>2024-05-20T09:31:56Z</time>
      </trkpt>
      <trkpt lat="43.5699" lon="1.24533">
        <ele>208.8</ele>
        <time>2024-05-20T09:31:57Z</time>
      </trkpt>
      <trkpt lat="43.56988" lon="1.24542">
        <ele>208.6</ele>
        <time>2024-05-20T09:31:58Z</time>
      </trkpt>
      <trkpt lat="43.56986" lon="1.24553">
        <ele>208.6</ele>
        <time>2024-05-20T09:31:59Z</time>
      </trkpt>
      <trkpt lat="43.56988" lon="1.24566">
        <ele>208.6</ele>
        <time>2024-05-20T09:32:00Z</time>
      </trkpt>
      <trkpt lat="43.56992" lon="1.24573">
        <ele>208.6</ele>
        <time>2024-05-20T09:32:01Z</time>
      </trkpt>
      <trkpt lat="43.56997" lon="1.2458">
        <ele>208.6</ele>
        <time>2024-05-20T09:32:02Z</time>
      </trkpt>
      <trkpt lat="43.57003" lon="1.24587">
        <ele>208.6</ele>
        <time>2024-05-20T09:32:03Z</time>
      </trkpt>
      <trkpt lat="43.57008" lon="1.24594">
        <ele>208.8</ele>
        <time>2024-05-20T09:32:04Z</time>
      </trkpt>
      <trkpt lat="43.57013" lon="1.24602">
        <ele>208.8</ele>
        <time>2024-05-20T09:32:05Z</time>
      </trkpt>
      <trkpt lat="43.57016" lon="1.24611">
        <ele>208.8</ele>
        <time>2024-05-20T09:32:06Z</time>
      </trkpt>
      <trkpt lat="43.57019" lon="1.24621">
        <ele>209</ele>
        <time>2024-05-20T09:32:07Z</time>
      </trkpt>
      <trkpt lat="43.57021" lon="1.24631">
        <ele>209.2</ele>
        <time>2024-05-20T09:32:08Z</time>
      </trkpt>
      <trkpt lat="43.57021" lon="1.24631">
        <ele>209.6</ele>
        <time>2024-05-20T09:32:09Z</time>
      </trkpt>
      <trkpt lat="43.57025" lon="1.24652">
        <ele>209.6</ele>
        <time>2024-05-20T09:32:10Z</time>
      </trkpt>
      <trkpt lat="43.57027" lon="1.2466">
        <ele>209.8</ele>
        <time>2024-05-20T09:32:11Z</time>
      </trkpt>
      <trkpt lat="43.5703" lon="1.24672">
        <ele>209.8</ele>
        <time>2024-05-20T09:32:12Z</time>
      </trkpt>
      <trkpt lat="43.57032" lon="1.2468">
        <ele>209.8</ele>
        <time>2024-05-20T09:32:13Z</time>
      </trkpt>
      <trkpt lat="43.57032" lon="1.2468">
        <ele>209.8</ele>
        <time>2024-05-20T09:32:14Z</time>
      </trkpt>
      <trkpt lat="43.57038" lon="1.247">
        <ele>209.8</ele>
        <time>2024-05-20T09:32:15Z</time>
      </trkpt>
      <trkpt lat="43.57043" lon="1.2471">
        <ele>209.8</ele>
        <time>2024-05-20T09:32:16Z</time>
      </trkpt>
      <trkpt lat="43.57048" lon="1.24719">
        <ele>209.8</ele>
        <time>2024-05-20T09:32:17Z</time>
      </trkpt>
      <trkpt lat="43.57052" lon="1.24725">
        <ele>209.6</ele>
        <time>2024-05-20T09:32:18Z</time>
      </trkpt>
      <trkpt lat="43.57057" lon="1.24733">
        <ele>209.6</ele>
        <time>2024-05-20T09:32:19Z</time>
      </trkpt>
      <trkpt lat="43.57063" lon="1.24742">
        <ele>209.2</ele>
        <time>2024-05-20T09:32:20Z</time>
      </trkpt>
      <trkpt lat="43.57069" lon="1.2475">
        <ele>209.2</ele>
        <time>2024-05-20T09:32:21Z</time>
      </trkpt>
      <trkpt lat="43.57073" lon="1.24756">
        <ele>209</ele>
        <time>2024-05-20T09:32:22Z</time>
      </trkpt>
      <trkpt lat="43.57079" lon="1.24763">
        <ele>208.8</ele>
        <time>2024-05-20T09:32:23Z</time>
      </trkpt>
      <trkpt lat="43.57084" lon="1.24771">
        <ele>208.6</ele>
        <time>2024-05-20T09:32:24Z</time>
      </trkpt>
      <trkpt lat="43.5709" lon="1.24778">
        <ele>208.4</ele>
        <time>2024-05-20T09:32:25Z</time>
      </trkpt>
      <trkpt lat="43.57096" lon="1.24788">
        <ele>208.2</ele>
        <time>2024-05-20T09:32:26Z</time>
      </trkpt>
      <trkpt lat="43.57101" lon="1.24794">
        <ele>208</ele>
        <time>2024-05-20T09:32:27Z</time>
      </trkpt>
      <trkpt lat="43.57101" lon="1.24794">
        <ele>208</ele>
        <time>2024-05-20T09:32:28Z</time>
      </trkpt>
      <trkpt lat="43.57113" lon="1.24811">
        <ele>208</ele>
        <time>2024-05-20T09:32:29Z</time>
      </trkpt>
      <trkpt lat="43.57117" lon="1.24816">
        <ele>207.8</ele>
        <time>2024-05-20T09:32:30Z</time>
      </trkpt>
      <trkpt lat="43.57122" lon="1.24824">
        <ele>207.6</ele>
        <time>2024-05-20T09:32:31Z</time>
      </trkpt>
      <trkpt lat="43.57128" lon="1.24832">
        <ele>207.6</ele>
        <time>2024-05-20T09:32:32Z</time>
      </trkpt>
      <trkpt lat="43.57134" lon="1.24842">
        <ele>207.6</ele>
        <time>2024-05-20T09:32:33Z</time>
      </trkpt>
      <trkpt lat="43.57138" lon="1.24848">
        <ele>207.4</ele>
        <time>2024-05-20T09:32:34Z</time>
      </trkpt>
      <trkpt lat="43.57143" lon="1.24858">
        <ele>207.4</ele>
        <time>2024-05-20T09:32:35Z</time>
      </trkpt>
      <trkpt lat="43.57147" lon="1.24865">
        <ele>207.4</ele>
        <time>2024-05-20T09:32:36Z</time>
      </trkpt>
      <trkpt lat="43.57152" lon="1.24874">
        <ele>207.4</ele>
        <time>2024-05-20T09:32:37Z</time>
      </trkpt>
      <trkpt lat="43.57158" lon="1.24885">
        <ele>207.4</ele>
        <time>2024-05-20T09:32:38Z</time>
      </trkpt>
      <trkpt lat="43.57162" lon="1.24893">
        <ele>207.4</ele>
        <time>2024-05-20T09:32:39Z</time>
      </trkpt>
      <trkpt lat="43.57167" lon="1.249">
        <ele>207.6</ele>
        <time>2024-05-20T09:32:40Z</time>
      </trkpt>
      <trkpt lat="43.57171" lon="1.24909">
        <ele>207.6</ele>
        <time>2024-05-20T09:32:41Z</time>
      </trkpt>
      <trkpt lat="43.57176" lon="1.24917">
        <ele>207.8</ele>
        <time>2024-05-20T09:32:42Z</time>
      </trkpt>
      <trkpt lat="43.57181" lon="1.24927">
        <ele>207.8</ele>
        <time>2024-05-20T09:32:43Z</time>
      </trkpt>
      <trkpt lat="43.57187" lon="1.24935">
        <ele>207.8</ele>
        <time>2024-05-20T09:32:44Z</time>
      </trkpt>
      <trkpt lat="43.57192" lon="1.24944">
        <ele>207.8</ele>
        <time>2024-05-20T09:32:45Z</time>
      </trkpt>
      <trkpt lat="43.57196" lon="1.24953">
        <ele>207.8</ele>
        <time>2024-05-20T09:32:46Z</time>
      </trkpt>
      <trkpt lat="43.57203" lon="1.24964">
        <ele>207.8</ele>
        <time>2024-05-20T09:32:47Z</time>
      </trkpt>
      <trkpt lat="43.57208" lon="1.24973">
        <ele>207.8</ele>
        <time>2024-05-20T09:32:48Z</time>
      </trkpt>
      <trkpt lat="43.57213" lon="1.24979">
        <ele>207.8</ele>
        <time>2024-05-20T09:32:49Z</time>
      </trkpt>
      <trkpt lat="43.5722" lon="1.24987">
        <ele>207.8</ele>
        <time>2024-05-20T09:32:50Z</time>
      </trkpt>
      <trkpt lat="43.57227" lon="1.24994">
        <ele>207.8</ele>
        <time>2024-05-20T09:32:51Z</time>
      </trkpt>
      <trkpt lat="43.57234" lon="1.25">
        <ele>207.8</ele>
        <time>2024-05-20T09:32:52Z</time>
      </trkpt>
      <trkpt lat="43.57244" lon="1.25008">
        <ele>207.8</ele>
        <time>2024-05-20T09:32:53Z</time>
      </trkpt>
      <trkpt lat="43.57252" lon="1.25014">
        <ele>207.8</ele>
        <time>2024-05-20T09:32:54Z</time>
      </trkpt>
      <trkpt lat="43.57258" lon="1.25019">
        <ele>207.6</ele>
        <time>2024-05-20T09:32:55Z</time>
      </trkpt>
      <trkpt lat="43.57266" lon="1.25027">
        <ele>207.6</ele>
        <time>2024-05-20T09:32:56Z</time>
      </trkpt>
      <trkpt lat="43.57274" lon="1.25033">
        <ele>207.6</ele>
        <time>2024-05-20T09:32:57Z</time>
      </trkpt>
      <trkpt lat="43.57282" lon="1.25039">
        <ele>207.4</ele>
        <time>2024-05-20T09:32:58Z</time>
      </trkpt>
      <trkpt lat="43.57287" lon="1.25045">
        <ele>207.4</ele>
        <time>2024-05-20T09:32:59Z</time>
      </trkpt>
      <trkpt lat="43.57294" lon="1.25052">
        <ele>207.4</ele>
        <time>2024-05-20T09:33:00Z</time>
      </trkpt>
      <trkpt lat="43.57302" lon="1.25062">
        <ele>207.4</ele>
        <time>2024-05-20T09:33:01Z</time>
      </trkpt>
      <trkpt lat="43.57307" lon="1.25072">
        <ele>207.4</ele>
        <time>2024-05-20T09:33:02Z</time>
      </trkpt>
      <trkpt lat="43.57312" lon="1.25082">
        <ele>207.4</ele>
        <time>2024-05-20T09:33:03Z</time>
      </trkpt>
      <trkpt lat="43.57316" lon="1.25091">
        <ele>207.2</ele>
        <time>2024-05-20T09:33:04Z</time>
      </trkpt>
      <trkpt lat="43.57316" lon="1.25091">
        <ele>207</ele>
        <time>2024-05-20T09:33:05Z</time>
      </trkpt>
      <trkpt lat="43.57323" lon="1.25113">
        <ele>207</ele>
        <time>2024-05-20T09:33:06Z</time>
      </trkpt>
      <trkpt lat="43.57326" lon="1.25124">
        <ele>206.8</ele>
        <time>2024-05-20T09:33:07Z</time>
      </trkpt>
      <trkpt lat="43.57329" lon="1.25136">
        <ele>206.8</ele>
        <time>2024-05-20T09:33:08Z</time>
      </trkpt>
      <trkpt lat="43.57331" lon="1.25148">
        <ele>206.6</ele>
        <time>2024-05-20T09:33:09Z</time>
      </trkpt>
      <trkpt lat="43.57334" lon="1.25159">
        <ele>206.6</ele>
        <time>2024-05-20T09:33:10Z</time>
      </trkpt>
      <trkpt lat="43.57337" lon="1.2517">
        <ele>206.4</ele>
        <time>2024-05-20T09:33:11Z</time>
      </trkpt>
      <trkpt lat="43.57341" lon="1.25184">
        <ele>206.4</ele>
        <time>2024-05-20T09:33:12Z</time>
      </trkpt>
      <trkpt lat="43.57343" lon="1.25193">
        <ele>206.2</ele>
        <time>2024-05-20T09:33:13Z</time>
      </trkpt>
      <trkpt lat="43.57346" lon="1.25205">
        <ele>206.2</ele>
        <time>2024-05-20T09:33:14Z</time>
      </trkpt>
      <trkpt lat="43.57351" lon="1.25217">
        <ele>206.2</ele>
        <time>2024-05-20T09:33:15Z</time>
      </trkpt>
      <trkpt lat="43.57355" lon="1.25227">
        <ele>206.2</ele>
        <time>2024-05-20T09:33:16Z</time>
      </trkpt>
      <trkpt lat="43.57359" lon="1.25235">
        <ele>206.2</ele>
        <time>2024-05-20T09:33:17Z</time>
      </trkpt>
      <trkpt lat="43.57363" lon="1.25245">
        <ele>206.4</ele>
        <time>2024-05-20T09:33:18Z</time>
      </trkpt>
      <trkpt lat="43.57363" lon="1.25245">
        <ele>206.4</ele>
        <time>2024-05-20T09:33:19Z</time>
      </trkpt>
      <trkpt lat="43.57372" lon="1.25265">
        <ele>206.4</ele>
        <time>2024-05-20T09:33:20Z</time>
      </trkpt>
      <trkpt lat="43.57377" lon="1.25276">
        <ele>206.4</ele>
        <time>2024-05-20T09:33:21Z</time>
      </trkpt>
      <trkpt lat="43.57377" lon="1.25276">
        <ele>206.4</ele>
        <time>2024-05-20T09:33:22Z</time>
      </trkpt>
      <trkpt lat="43.57385" lon="1.25292">
        <ele>206.4</ele>
        <time>2024-05-20T09:33:23Z</time>
      </trkpt>
      <trkpt lat="43.57391" lon="1.25303">
        <ele>206.6</ele>
        <time>2024-05-20T09:33:24Z</time>
      </trkpt>
      <trkpt lat="43.57391" lon="1.25303">
        <ele>206.6</ele>
        <time>2024-05-20T09:33:25Z</time>
      </trkpt>
      <trkpt lat="43.57399" lon="1.25318">
        <ele>206.6</ele>
        <time>2024-05-20T09:33:26Z</time>
      </trkpt>
      <trkpt lat="43.57403" lon="1.25327">
        <ele>206.6</ele>
        <time>2024-05-20T09:33:27Z</time>
      </trkpt>
      <trkpt lat="43.57407" lon="1.25334">
        <ele>206.6</ele>
        <time>2024-05-20T09:33:28Z</time>
      </trkpt>
      <trkpt lat="43.57411" lon="1.25342">
        <ele>206.6</ele>
        <time>2024-05-20T09:33:29Z</time>
      </trkpt>
      <trkpt lat="43.57411" lon="1.25342">
        <ele>206.8</ele>
        <time>2024-05-20T09:33:30Z</time>
      </trkpt>
      <trkpt lat="43.57418" lon="1.25359">
        <ele>206.8</ele>
        <time>2024-05-20T09:33:31Z</time>
      </trkpt>
      <trkpt lat="43.57422" lon="1.25366">
        <ele>206.8</ele>
        <time>2024-05-20T09:33:32Z</time>
      </trkpt>
      <trkpt lat="43.57426" lon="1.25373">
        <ele>206.8</ele>
        <time>2024-05-20T09:33:33Z</time>
      </trkpt>
      <trkpt lat="43.5743" lon="1.2538">
        <ele>206.8</ele>
        <time>2024-05-20T09:33:34Z</time>
      </trkpt>
      <trkpt lat="43.57435" lon="1.25388">
        <ele>207</ele>
        <time>2024-05-20T09:33:35Z</time>
      </trkpt>
      <trkpt lat="43.57439" lon="1.25396">
        <ele>207</ele>
        <time>2024-05-20T09:33:36Z</time>
      </trkpt>
      <trkpt lat="43.57442" lon="1.25403">
        <ele>206.8</ele>
        <time>2024-05-20T09:33:37Z</time>
      </trkpt>
      <trkpt lat="43.57446" lon="1.25412">
        <ele>206.8</ele>
        <time>2024-05-20T09:33:38Z</time>
      </trkpt>
      <trkpt lat="43.5745" lon="1.25421">
        <ele>206.8</ele>
        <time>2024-05-20T09:33:39Z</time>
      </trkpt>
      <trkpt lat="43.57453" lon="1.25428">
        <ele>206.8</ele>
        <time>2024-05-20T09:33:40Z</time>
      </trkpt>
      <trkpt lat="43.57457" lon="1.25436">
        <ele>206.8</ele>
        <time>2024-05-20T09:33:41Z</time>
      </trkpt>
      <trkpt lat="43.57461" lon="1.25444">
        <ele>206.8</ele>
        <time>2024-05-20T09:33:42Z</time>
      </trkpt>
      <trkpt lat="43.57465" lon="1.25453">
        <ele>206.8</ele>
        <time>2024-05-20T09:33:43Z</time>
      </trkpt>
      <trkpt lat="43.5747" lon="1.25463">
        <ele>206.8</ele>
        <time>2024-05-20T09:33:44Z</time>
      </trkpt>
      <trkpt lat="43.57474" lon="1.25471">
        <ele>206.8</ele>
        <time>2024-05-20T09:33:45Z</time>
      </trkpt>
      <trkpt lat="43.57477" lon="1.25478">
        <ele>206.8</ele>
        <time>2024-05-20T09:33:46Z</time>
      </trkpt>
      <trkpt lat="43.57477" lon="1.25478">
        <ele>206.8</ele>
        <time>2024-05-20T09:33:47Z</time>
      </trkpt>
      <trkpt lat="43.57486" lon="1.25495">
        <ele>206.8</ele>
        <time>2024-05-20T09:33:48Z</time>
      </trkpt>
      <trkpt lat="43.5749" lon="1.25503">
        <ele>206.8</ele>
        <time>2024-05-20T09:33:49Z</time>
      </trkpt>
      <trkpt lat="43.57494" lon="1.25511">
        <ele>206.8</ele>
        <time>2024-05-20T09:33:50Z</time>
      </trkpt>
      <trkpt lat="43.57498" lon="1.25519">
        <ele>206.8</ele>
        <time>2024-05-20T09:33:51Z</time>
      </trkpt>
      <trkpt lat="43.57502" lon="1.25526">
        <ele>206.8</ele>
        <time>2024-05-20T09:33:52Z</time>
      </trkpt>
      <trkpt lat="43.57507" lon="1.25536">
        <ele>206.8</ele>
        <time>2024-05-20T09:33:53Z</time>
      </trkpt>
      <trkpt lat="43.57511" lon="1.25544">
        <ele>206.8</ele>
        <time>2024-05-20T09:33:54Z</time>
      </trkpt>
      <trkpt lat="43.57514" lon="1.2555">
        <ele>206.8</ele>
        <time>2024-05-20T09:33:55Z</time>
      </trkpt>
      <trkpt lat="43.57518" lon="1.25558">
        <ele>207</ele>
        <time>2024-05-20T09:33:56Z</time>
      </trkpt>
      <trkpt lat="43.57523" lon="1.25567">
        <ele>207</ele>
        <time>2024-05-20T09:33:57Z</time>
      </trkpt>
      <trkpt lat="43.57527" lon="1.25574">
        <ele>207</ele>
        <time>2024-05-20T09:33:58Z</time>
      </trkpt>
      <trkpt lat="43.57532" lon="1.25583">
        <ele>207</ele>
        <time>2024-05-20T09:33:59Z</time>
      </trkpt>
      <trkpt lat="43.57536" lon="1.2559">
        <ele>207</ele>
        <time>2024-05-20T09:34:00Z</time>
      </trkpt>
      <trkpt lat="43.57536" lon="1.2559">
        <ele>207</ele>
        <time>2024-05-20T09:34:01Z</time>
      </trkpt>
      <trkpt lat="43.57545" lon="1.25605">
        <ele>207</ele>
        <time>2024-05-20T09:34:02Z</time>
      </trkpt>
      <trkpt lat="43.5755" lon="1.25614">
        <ele>207</ele>
        <time>2024-05-20T09:34:03Z</time>
      </trkpt>
      <trkpt lat="43.57554" lon="1.2562">
        <ele>206.8</ele>
        <time>2024-05-20T09:34:04Z</time>
      </trkpt>
      <trkpt lat="43.57558" lon="1.25628">
        <ele>206.8</ele>
        <time>2024-05-20T09:34:05Z</time>
      </trkpt>
      <trkpt lat="43.57564" lon="1.25637">
        <ele>206.8</ele>
        <time>2024-05-20T09:34:06Z</time>
      </trkpt>
      <trkpt lat="43.57568" lon="1.25645">
        <ele>206.8</ele>
        <time>2024-05-20T09:34:07Z</time>
      </trkpt>
      <trkpt lat="43.57573" lon="1.25652">
        <ele>206.8</ele>
        <time>2024-05-20T09:34:08Z</time>
      </trkpt>
      <trkpt lat="43.57576" lon="1.25658">
        <ele>206.8</ele>
        <time>2024-05-20T09:34:09Z</time>
      </trkpt>
      <trkpt lat="43.57581" lon="1.25666">
        <ele>206.8</ele>
        <time>2024-05-20T09:34:10Z</time>
      </trkpt>
      <trkpt lat="43.57586" lon="1.25674">
        <ele>206.8</ele>
        <time>2024-05-20T09:34:11Z</time>
      </trkpt>
      <trkpt lat="43.5759" lon="1.25681">
        <ele>206.8</ele>
        <time>2024-05-20T09:34:12Z</time>
      </trkpt>
      <trkpt lat="43.57596" lon="1.2569">
        <ele>206.8</ele>
        <time>2024-05-20T09:34:13Z</time>
      </trkpt>
      <trkpt lat="43.576" lon="1.25696">
        <ele>206.6</ele>
        <time>2024-05-20T09:34:14Z</time>
      </trkpt>
      <trkpt lat="43.57604" lon="1.25703">
        <ele>206.6</ele>
        <time>2024-05-20T09:34:15Z</time>
      </trkpt>
      <trkpt lat="43.5761" lon="1.25712">
        <ele>206.6</ele>
        <time>2024-05-20T09:34:16Z</time>
      </trkpt>
      <trkpt lat="43.57614" lon="1.25719">
        <ele>206.4</ele>
        <time>2024-05-20T09:34:17Z</time>
      </trkpt>
      <trkpt lat="43.57614" lon="1.25719">
        <ele>206.4</ele>
        <time>2024-05-20T09:34:18Z</time>
      </trkpt>
      <trkpt lat="43.5762" lon="1.25738">
        <ele>206.2</ele>
        <time>2024-05-20T09:34:19Z</time>
      </trkpt>
      <trkpt lat="43.57622" lon="1.25748">
        <ele>206.2</ele>
        <time>2024-05-20T09:34:20Z</time>
      </trkpt>
      <trkpt lat="43.57623" lon="1.25759">
        <ele>206</ele>
        <time>2024-05-20T09:34:21Z</time>
      </trkpt>
      <trkpt lat="43.57625" lon="1.25772">
        <ele>206</ele>
        <time>2024-05-20T09:34:22Z</time>
      </trkpt>
      <trkpt lat="43.57626" lon="1.25781">
        <ele>205.8</ele>
        <time>2024-05-20T09:34:23Z</time>
      </trkpt>
      <trkpt lat="43.57628" lon="1.25792">
        <ele>205.8</ele>
        <time>2024-05-20T09:34:24Z</time>
      </trkpt>
      <trkpt lat="43.57631" lon="1.25805">
        <ele>205.8</ele>
        <time>2024-05-20T09:34:25Z</time>
      </trkpt>
      <trkpt lat="43.57631" lon="1.25805">
        <ele>205.4</ele>
        <time>2024-05-20T09:34:26Z</time>
      </trkpt>
      <trkpt lat="43.57636" lon="1.25827">
        <ele>205.2</ele>
        <time>2024-05-20T09:34:27Z</time>
      </trkpt>
      <trkpt lat="43.57639" lon="1.2584">
        <ele>205</ele>
        <time>2024-05-20T09:34:28Z</time>
      </trkpt>
      <trkpt lat="43.57639" lon="1.2584">
        <ele>204.6</ele>
        <time>2024-05-20T09:34:29Z</time>
      </trkpt>
      <trkpt lat="43.57646" lon="1.25867">
        <ele>204</ele>
        <time>2024-05-20T09:34:30Z</time>
      </trkpt>
      <trkpt lat="43.57649" lon="1.25882">
        <ele>203.8</ele>
        <time>2024-05-20T09:34:31Z</time>
      </trkpt>
      <trkpt lat="43.57651" lon="1.25897">
        <ele>203.2</ele>
        <time>2024-05-20T09:34:32Z</time>
      </trkpt>
      <trkpt lat="43.57651" lon="1.25913">
        <ele>202.6</ele>
        <time>2024-05-20T09:34:33Z</time>
      </trkpt>
      <trkpt lat="43.57652" lon="1.25929">
        <ele>202.4</ele>
        <time>2024-05-20T09:34:34Z</time>
      </trkpt>
      <trkpt lat="43.57652" lon="1.25948">
        <ele>201.2</ele>
        <time>2024-05-20T09:34:35Z</time>
      </trkpt>
      <trkpt lat="43.57652" lon="1.25961">
        <ele>200.2</ele>
        <time>2024-05-20T09:34:36Z</time>
      </trkpt>
      <trkpt lat="43.57652" lon="1.25977">
        <ele>199.2</ele>
        <time>2024-05-20T09:34:37Z</time>
      </trkpt>
      <trkpt lat="43.57652" lon="1.25992">
        <ele>198.6</ele>
        <time>2024-05-20T09:34:38Z</time>
      </trkpt>
      <trkpt lat="43.57653" lon="1.26007">
        <ele>197.6</ele>
        <time>2024-05-20T09:34:39Z</time>
      </trkpt>
      <trkpt lat="43.57653" lon="1.26025">
        <ele>197</ele>
        <time>2024-05-20T09:34:40Z</time>
      </trkpt>
      <trkpt lat="43.57654" lon="1.2604">
        <ele>196.8</ele>
        <time>2024-05-20T09:34:41Z</time>
      </trkpt>
      <trkpt lat="43.57654" lon="1.26051">
        <ele>196.4</ele>
        <time>2024-05-20T09:34:42Z</time>
      </trkpt>
      <trkpt lat="43.57654" lon="1.26066">
        <ele>196</ele>
        <time>2024-05-20T09:34:43Z</time>
      </trkpt>
      <trkpt lat="43.57653" lon="1.26082">
        <ele>195.6</ele>
        <time>2024-05-20T09:34:44Z</time>
      </trkpt>
      <trkpt lat="43.57654" lon="1.26096">
        <ele>195.4</ele>
        <time>2024-05-20T09:34:45Z</time>
      </trkpt>
      <trkpt lat="43.57654" lon="1.26107">
        <ele>195</ele>
        <time>2024-05-20T09:34:46Z</time>
      </trkpt>
      <trkpt lat="43.57655" lon="1.2612">
        <ele>194.6</ele>
        <time>2024-05-20T09:34:47Z</time>
      </trkpt>
      <trkpt lat="43.57655" lon="1.26133">
        <ele>194.2</ele>
        <time>2024-05-20T09:34:48Z</time>
      </trkpt>
      <trkpt lat="43.57655" lon="1.26146">
        <ele>194</ele>
        <time>2024-05-20T09:34:49Z</time>
      </trkpt>
      <trkpt lat="43.57655" lon="1.2616">
        <ele>193.6</ele>
        <time>2024-05-20T09:34:50Z</time>
      </trkpt>
      <trkpt lat="43.57654" lon="1.26169">
        <ele>193.4</ele>
        <time>2024-05-20T09:34:51Z</time>
      </trkpt>
      <trkpt lat="43.57654" lon="1.26179">
        <ele>193.2</ele>
        <time>2024-05-20T09:34:52Z</time>
      </trkpt>
      <trkpt lat="43.57655" lon="1.2619">
        <ele>193</ele>
        <time>2024-05-20T09:34:53Z</time>
      </trkpt>
      <trkpt lat="43.57656" lon="1.26201">
        <ele>193</ele>
        <time>2024-05-20T09:34:54Z</time>
      </trkpt>
      <trkpt lat="43.57656" lon="1.26215">
        <ele>192.8</ele>
        <time>2024-05-20T09:34:55Z</time>
      </trkpt>
      <trkpt lat="43.57656" lon="1.26224">
        <ele>192.8</ele>
        <time>2024-05-20T09:34:56Z</time>
      </trkpt>
      <trkpt lat="43.57656" lon="1.26236">
        <ele>192.6</ele>
        <time>2024-05-20T09:34:57Z</time>
      </trkpt>
      <trkpt lat="43.57656" lon="1.26248">
        <ele>192.4</ele>
        <time>2024-05-20T09:34:58Z</time>
      </trkpt>
      <trkpt lat="43.57656" lon="1.26263">
        <ele>192.4</ele>
        <time>2024-05-20T09:34:59Z</time>
      </trkpt>
      <trkpt lat="43.57656" lon="1.26263">
        <ele>192.4</ele>
        <time>2024-05-20T09:35:00Z</time>
      </trkpt>
      <trkpt lat="43.57657" lon="1.26285">
        <ele>192.4</ele>
        <time>2024-05-20T09:35:01Z</time>
      </trkpt>
      <trkpt lat="43.57657" lon="1.26299">
        <ele>192.4</ele>
        <time>2024-05-20T09:35:02Z</time>
      </trkpt>
      <trkpt lat="43.57657" lon="1.26299">
        <ele>192.4</ele>
        <time>2024-05-20T09:35:03Z</time>
      </trkpt>
      <trkpt lat="43.57658" lon="1.26322">
        <ele>192.4</ele>
        <time>2024-05-20T09:35:04Z</time>
      </trkpt>
      <trkpt lat="43.57658" lon="1.26334">
        <ele>192.4</ele>
        <time>2024-05-20T09:35:05Z</time>
      </trkpt>
      <trkpt lat="43.57658" lon="1.26334">
        <ele>192.2</ele>
        <time>2024-05-20T09:35:06Z</time>
      </trkpt>
      <trkpt lat="43.57659" lon="1.26361">
        <ele>192.2</ele>
        <time>2024-05-20T09:35:07Z</time>
      </trkpt>
      <trkpt lat="43.57659" lon="1.26372">
        <ele>192.2</ele>
        <time>2024-05-20T09:35:08Z</time>
      </trkpt>
      <trkpt lat="43.57659" lon="1.26384">
        <ele>192</ele>
        <time>2024-05-20T09:35:09Z</time>
      </trkpt>
      <trkpt lat="43.57659" lon="1.26397">
        <ele>192</ele>
        <time>2024-05-20T09:35:10Z</time>
      </trkpt>
      <trkpt lat="43.5766" lon="1.2641">
        <ele>191.8</ele>
        <time>2024-05-20T09:35:11Z</time>
      </trkpt>
      <trkpt lat="43.5766" lon="1.26422">
        <ele>191.8</ele>
        <time>2024-05-20T09:35:12Z</time>
      </trkpt>
      <trkpt lat="43.57661" lon="1.26434">
        <ele>191.6</ele>
        <time>2024-05-20T09:35:13Z</time>
      </trkpt>
      <trkpt lat="43.57661" lon="1.26447">
        <ele>191.6</ele>
        <time>2024-05-20T09:35:14Z</time>
      </trkpt>
      <trkpt lat="43.57661" lon="1.2646">
        <ele>191.6</ele>
        <time>2024-05-20T09:35:15Z</time>
      </trkpt>
      <trkpt lat="43.57661" lon="1.26473">
        <ele>191.4</ele>
        <time>2024-05-20T09:35:16Z</time>
      </trkpt>
      <trkpt lat="43.57662" lon="1.26486">
        <ele>191.2</ele>
        <time>2024-05-20T09:35:17Z</time>
      </trkpt>
      <trkpt lat="43.57662" lon="1.26499">
        <ele>191</ele>
        <time>2024-05-20T09:35:18Z</time>
      </trkpt>
      <trkpt lat="43.57663" lon="1.26512">
        <ele>190.8</ele>
        <time>2024-05-20T09:35:19Z</time>
      </trkpt>
      <trkpt lat="43.57663" lon="1.26525">
        <ele>190.6</ele>
        <time>2024-05-20T09:35:20Z</time>
      </trkpt>
      <trkpt lat="43.57664" lon="1.26538">
        <ele>190.4</ele>
        <time>2024-05-20T09:35:21Z</time>
      </trkpt>
      <trkpt lat="43.57664" lon="1.2655">
        <ele>190.2</ele>
        <time>2024-05-20T09:35:22Z</time>
      </trkpt>
      <trkpt lat="43.57665" lon="1.26562">
        <ele>190</ele>
        <time>2024-05-20T09:35:23Z</time>
      </trkpt>
      <trkpt lat="43.57665" lon="1.26575">
        <ele>189.8</ele>
        <time>2024-05-20T09:35:24Z</time>
      </trkpt>
      <trkpt lat="43.57665" lon="1.26575">
        <ele>189.2</ele>
        <time>2024-05-20T09:35:25Z</time>
      </trkpt>
      <trkpt lat="43.57666" lon="1.26599">
        <ele>188.8</ele>
        <time>2024-05-20T09:35:26Z</time>
      </trkpt>
      <trkpt lat="43.57666" lon="1.26612">
        <ele>188.6</ele>
        <time>2024-05-20T09:35:27Z</time>
      </trkpt>
      <trkpt lat="43.57667" lon="1.26625">
        <ele>188.2</ele>
        <time>2024-05-20T09:35:28Z</time>
      </trkpt>
      <trkpt lat="43.57667" lon="1.26637">
        <ele>188.2</ele>
        <time>2024-05-20T09:35:29Z</time>
      </trkpt>
      <trkpt lat="43.57667" lon="1.2665">
        <ele>188</ele>
        <time>2024-05-20T09:35:30Z</time>
      </trkpt>
      <trkpt lat="43.57668" lon="1.26663">
        <ele>187.8</ele>
        <time>2024-05-20T09:35:31Z</time>
      </trkpt>
      <trkpt lat="43.57668" lon="1.26676">
        <ele>187.4</ele>
        <time>2024-05-20T09:35:32Z</time>
      </trkpt>
      <trkpt lat="43.57669" lon="1.26688">
        <ele>187</ele>
        <time>2024-05-20T09:35:33Z</time>
      </trkpt>
      <trkpt lat="43.5767" lon="1.26701">
        <ele>186.8</ele>
        <time>2024-05-20T09:35:34Z</time>
      </trkpt>
      <trkpt lat="43.57671" lon="1.26713">
        <ele>186.6</ele>
        <time>2024-05-20T09:35:35Z</time>
      </trkpt>
      <trkpt lat="43.57672" lon="1.26726">
        <ele>186.6</ele>
        <time>2024-05-20T09:35:36Z</time>
      </trkpt>
      <trkpt lat="43.57672" lon="1.26738">
        <ele>186.2</ele>
        <time>2024-05-20T09:35:37Z</time>
      </trkpt>
      <trkpt lat="43.57672" lon="1.2675">
        <ele>185.8</ele>
        <time>2024-05-20T09:35:38Z</time>
      </trkpt>
      <trkpt lat="43.57673" lon="1.26763">
        <ele>185.4</ele>
        <time>2024-05-20T09:35:39Z</time>
      </trkpt>
      <trkpt lat="43.57674" lon="1.26775">
        <ele>185.2</ele>
        <time>2024-05-20T09:35:40Z</time>
      </trkpt>
      <trkpt lat="43.57675" lon="1.26787">
        <ele>185</ele>
        <time>2024-05-20T09:35:41Z</time>
      </trkpt>
      <trkpt lat="43.57674" lon="1.26798">
        <ele>184.8</ele>
        <time>2024-05-20T09:35:42Z</time>
      </trkpt>
      <trkpt lat="43.57673" lon="1.26808">
        <ele>184.6</ele>
        <time>2024-05-20T09:35:43Z</time>
      </trkpt>
      <trkpt lat="43.57671" lon="1.26817">
        <ele>184.4</ele>
        <time>2024-05-20T09:35:44Z</time>
      </trkpt>
      <trkpt lat="43.57669" lon="1.26825">
        <ele>184.4</ele>
        <time>2024-05-20T09:35:45Z</time>
      </trkpt>
      <trkpt lat="43.57666" lon="1.26833">
        <ele>184</ele>
        <time>2024-05-20T09:35:46Z</time>
      </trkpt>
      <trkpt lat="43.57664" lon="1.2684">
        <ele>183.8</ele>
        <time>2024-05-20T09:35:47Z</time>
      </trkpt>
      <trkpt lat="43.57663" lon="1.26848">
        <ele>183.8</ele>
        <time>2024-05-20T09:35:48Z</time>
      </trkpt>
      <trkpt lat="43.57662" lon="1.26857">
        <ele>183.6</ele>
        <time>2024-05-20T09:35:49Z</time>
      </trkpt>
      <trkpt lat="43.57662" lon="1.26865">
        <ele>183.6</ele>
        <time>2024-05-20T09:35:50Z</time>
      </trkpt>
      <trkpt lat="43.57662" lon="1.26873">
        <ele>183.4</ele>
        <time>2024-05-20T09:35:51Z</time>
      </trkpt>
      <trkpt lat="43.57662" lon="1.26882">
        <ele>183.6</ele>
        <time>2024-05-20T09:35:52Z</time>
      </trkpt>
      <trkpt lat="43.57663" lon="1.26891">
        <ele>183.6</ele>
        <time>2024-05-20T09:35:53Z</time>
      </trkpt>
      <trkpt lat="43.57663" lon="1.269">
        <ele>183.6</ele>
        <time>2024-05-20T09:35:54Z</time>
      </trkpt>
      <trkpt lat="43.57663" lon="1.26909">
        <ele>183.8</ele>
        <time>2024-05-20T09:35:55Z</time>
      </trkpt>
      <trkpt lat="43.57661" lon="1.26917">
        <ele>183.8</ele>
        <time>2024-05-20T09:35:56Z</time>
      </trkpt>
      <trkpt lat="43.57659" lon="1.26926">
        <ele>183.8</ele>
        <time>2024-05-20T09:35:57Z</time>
      </trkpt>
      <trkpt lat="43.57655" lon="1.26934">
        <ele>183.8</ele>
        <time>2024-05-20T09:35:58Z</time>
      </trkpt>
      <trkpt lat="43.57652" lon="1.26942">
        <ele>183.8</ele>
        <time>2024-05-20T09:35:59Z</time>
      </trkpt>
      <trkpt lat="43.57648" lon="1.26949">
        <ele>183.8</ele>
        <time>2024-05-20T09:36:00Z</time>
      </trkpt>
      <trkpt lat="43.57644" lon="1.26957">
        <ele>183.8</ele>
        <time>2024-05-20T09:36:01Z</time>
      </trkpt>
      <trkpt lat="43.57641" lon="1.26965">
        <ele>184</ele>
        <time>2024-05-20T09:36:02Z</time>
      </trkpt>
      <trkpt lat="43.57637" lon="1.26973">
        <ele>184.2</ele>
        <time>2024-05-20T09:36:03Z</time>
      </trkpt>
      <trkpt lat="43.57633" lon="1.26981">
        <ele>184.4</ele>
        <time>2024-05-20T09:36:04Z</time>
      </trkpt>
      <trkpt lat="43.5763" lon="1.26989">
        <ele>184.6</ele>
        <time>2024-05-20T09:36:05Z</time>
      </trkpt>
      <trkpt lat="43.57626" lon="1.26997">
        <ele>184.6</ele>
        <time>2024-05-20T09:36:06Z</time>
      </trkpt>
      <trkpt lat="43.57622" lon="1.27005">
        <ele>184.8</ele>
        <time>2024-05-20T09:36:07Z</time>
      </trkpt>
      <trkpt lat="43.57619" lon="1.27014">
        <ele>184.8</ele>
        <time>2024-05-20T09:36:08Z</time>
      </trkpt>
      <trkpt lat="43.57616" lon="1.27023">
        <ele>185.2</ele>
        <time>2024-05-20T09:36:09Z</time>
      </trkpt>
      <trkpt lat="43.57614" lon="1.27032">
        <ele>185.6</ele>
        <time>2024-05-20T09:36:10Z</time>
      </trkpt>
      <trkpt lat="43.57613" lon="1.27041">
        <ele>185.6</ele>
        <time>2024-05-20T09:36:11Z</time>
      </trkpt>
      <trkpt lat="43.57613" lon="1.27051">
        <ele>185.8</ele>
        <time>2024-05-20T09:36:12Z</time>
      </trkpt>
      <trkpt lat="43.57614" lon="1.2706">
        <ele>185.8</ele>
        <time>2024-05-20T09:36:13Z</time>
      </trkpt>
      <trkpt lat="43.57616" lon="1.27069">
        <ele>186</ele>
        <time>2024-05-20T09:36:14Z</time>
      </trkpt>
      <trkpt lat="43.5762" lon="1.27076">
        <ele>186.2</ele>
        <time>2024-05-20T09:36:15Z</time>
      </trkpt>
      <trkpt lat="43.57624" lon="1.27083">
        <ele>186.4</ele>
        <time>2024-05-20T09:36:16Z</time>
      </trkpt>
      <trkpt lat="43.57628" lon="1.27089">
        <ele>187</ele>
        <time>2024-05-20T09:36:17Z</time>
      </trkpt>
      <trkpt lat="43.57633" lon="1.27095">
        <ele>187.4</ele>
        <time>2024-05-20T09:36:18Z</time>
      </trkpt>
      <trkpt lat="43.57638" lon="1.271">
        <ele>188.2</ele>
        <time>2024-05-20T09:36:19Z</time>
      </trkpt>
      <trkpt lat="43.57643" lon="1.27104">
        <ele>188.6</ele>
        <time>2024-05-20T09:36:20Z</time>
      </trkpt>
      <trkpt lat="43.57648" lon="1.27109">
        <ele>189</ele>
        <time>2024-05-20T09:36:21Z</time>
      </trkpt>
      <trkpt lat="43.57653" lon="1.27113">
        <ele>189.4</ele>
        <time>2024-05-20T09:36:22Z</time>
      </trkpt>
      <trkpt lat="43.57657" lon="1.27117">
        <ele>189.8</ele>
        <time>2024-05-20T09:36:23Z</time>
      </trkpt>
      <trkpt lat="43.57662" lon="1.27121">
        <ele>190.6</ele>
        <time>2024-05-20T09:36:24Z</time>
      </trkpt>
      <trkpt lat="43.57666" lon="1.27125">
        <ele>190.8</ele>
        <time>2024-05-20T09:36:25Z</time>
      </trkpt>
      <trkpt lat="43.5767" lon="1.27129">
        <ele>191.2</ele>
        <time>2024-05-20T09:36:26Z</time>
      </trkpt>
      <trkpt lat="43.57675" lon="1.27132">
        <ele>191.6</ele>
        <time>2024-05-20T09:36:27Z</time>
      </trkpt>
      <trkpt lat="43.57679" lon="1.27136">
        <ele>192.2</ele>
        <time>2024-05-20T09:36:28Z</time>
      </trkpt>
      <trkpt lat="43.57683" lon="1.27139">
        <ele>192.4</ele>
        <time>2024-05-20T09:36:29Z</time>
      </trkpt>
      <trkpt lat="43.57687" lon="1.27143">
        <ele>192.8</ele>
        <time>2024-05-20T09:36:30Z</time>
      </trkpt>
      <trkpt lat="43.5769" lon="1.27147">
        <ele>193.4</ele>
        <time>2024-05-20T09:36:31Z</time>
      </trkpt>
      <trkpt lat="43.57693" lon="1.2715">
        <ele>193.8</ele>
        <time>2024-05-20T09:36:32Z</time>
      </trkpt>
      <trkpt lat="43.57697" lon="1.27153">
        <ele>194.4</ele>
        <time>2024-05-20T09:36:33Z</time>
      </trkpt>
      <trkpt lat="43.57701" lon="1.27157">
        <ele>194.6</ele>
        <time>2024-05-20T09:36:34Z</time>
      </trkpt>
      <trkpt lat="43.57705" lon="1.2716">
        <ele>195.2</ele>
        <time>2024-05-20T09:36:35Z</time>
      </trkpt>
      <trkpt lat="43.57708" lon="1.27164">
        <ele>195.4</ele>
        <time>2024-05-20T09:36:36Z</time>
      </trkpt>
      <trkpt lat="43.57712" lon="1.27167">
        <ele>196</ele>
        <time>2024-05-20T09:36:37Z</time>
      </trkpt>
      <trkpt lat="43.57715" lon="1.2717">
        <ele>196.6</ele>
        <time>2024-05-20T09:36:38Z</time>
      </trkpt>
      <trkpt lat="43.57718" lon="1.27173">
        <ele>196.8</ele>
        <time>2024-05-20T09:36:39Z</time>
      </trkpt>
      <trkpt lat="43.57721" lon="1.27176">
        <ele>197.6</ele>
        <time>2024-05-20T09:36:40Z</time>
      </trkpt>
      <trkpt lat="43.57724" lon="1.2718">
        <ele>197.8</ele>
        <time>2024-05-20T09:36:41Z</time>
      </trkpt>
      <trkpt lat="43.57727" lon="1.27183">
        <ele>198.6</ele>
        <time>2024-05-20T09:36:42Z</time>
      </trkpt>
      <trkpt lat="43.57729" lon="1.27187">
        <ele>199</ele>
        <time>2024-05-20T09:36:43Z</time>
      </trkpt>
      <trkpt lat="43.5773" lon="1.27191">
        <ele>199.6</ele>
        <time>2024-05-20T09:36:44Z</time>
      </trkpt>
      <trkpt lat="43.57732" lon="1.27196">
        <ele>199.8</ele>
        <time>2024-05-20T09:36:45Z</time>
      </trkpt>
      <trkpt lat="43.57732" lon="1.27196">
        <ele>200.4</ele>
        <time>2024-05-20T09:36:46Z</time>
      </trkpt>
      <trkpt lat="43.57734" lon="1.27206">
        <ele>200.8</ele>
        <time>2024-05-20T09:36:47Z</time>
      </trkpt>
      <trkpt lat="43.57736" lon="1.27211">
        <ele>201</ele>
        <time>2024-05-20T09:36:48Z</time>
      </trkpt>
      <trkpt lat="43.57737" lon="1.27215">
        <ele>201.6</ele>
        <time>2024-05-20T09:36:49Z</time>
      </trkpt>
      <trkpt lat="43.57738" lon="1.27219">
        <ele>201.8</ele>
        <time>2024-05-20T09:36:50Z</time>
      </trkpt>
      <trkpt lat="43.57738" lon="1.27224">
        <ele>202.4</ele>
        <time>2024-05-20T09:36:51Z</time>
      </trkpt>
      <trkpt lat="43.57738" lon="1.27229">
        <ele>202.6</ele>
        <time>2024-05-20T09:36:52Z</time>
      </trkpt>
      <trkpt lat="43.57738" lon="1.27233">
        <ele>203</ele>
        <time>2024-05-20T09:36:53Z</time>
      </trkpt>
      <trkpt lat="43.57738" lon="1.27238">
        <ele>203.2</ele>
        <time>2024-05-20T09:36:54Z</time>
      </trkpt>
      <trkpt lat="43.57737" lon="1.27243">
        <ele>203.4</ele>
        <time>2024-05-20T09:36:55Z</time>
      </trkpt>
      <trkpt lat="43.57737" lon="1.27247">
        <ele>203.6</ele>
        <time>2024-05-20T09:36:56Z</time>
      </trkpt>
      <trkpt lat="43.57737" lon="1.27252">
        <ele>203.8</ele>
        <time>2024-05-20T09:36:57Z</time>
      </trkpt>
      <trkpt lat="43.57736" lon="1.27257">
        <ele>203.8</ele>
        <time>2024-05-20T09:36:58Z</time>
      </trkpt>
      <trkpt lat="43.57736" lon="1.27261">
        <ele>203.8</ele>
        <time>2024-05-20T09:36:59Z</time>
      </trkpt>
      <trkpt lat="43.57736" lon="1.27266">
        <ele>204.2</ele>
        <time>2024-05-20T09:37:00Z</time>
      </trkpt>
      <trkpt lat="43.57735" lon="1.27272">
        <ele>204.6</ele>
        <time>2024-05-20T09:37:01Z</time>
      </trkpt>
      <trkpt lat="43.57734" lon="1.27277">
        <ele>204.6</ele>
        <time>2024-05-20T09:37:02Z</time>
      </trkpt>
      <trkpt lat="43.57731" lon="1.27281">
        <ele>204.8</ele>
        <time>2024-05-20T09:37:03Z</time>
      </trkpt>
      <trkpt lat="43.57729" lon="1.27286">
        <ele>205</ele>
        <time>2024-05-20T09:37:04Z</time>
      </trkpt>
      <trkpt lat="43.57727" lon="1.27292">
        <ele>205</ele>
        <time>2024-05-20T09:37:05Z</time>
      </trkpt>
      <trkpt lat="43.57725" lon="1.27297">
        <ele>205.2</ele>
        <time>2024-05-20T09:37:06Z</time>
      </trkpt>
      <trkpt lat="43.57724" lon="1.27302">
        <ele>205.2</ele>
        <time>2024-05-20T09:37:07Z</time>
      </trkpt>
      <trkpt lat="43.57722" lon="1.27308">
        <ele>205.4</ele>
        <time>2024-05-20T09:37:08Z</time>
      </trkpt>
      <trkpt lat="43.57721" lon="1.27314">
        <ele>205.4</ele>
        <time>2024-05-20T09:37:09Z</time>
      </trkpt>
      <trkpt lat="43.57719" lon="1.27321">
        <ele>205.4</ele>
        <time>2024-05-20T09:37:10Z</time>
      </trkpt>
      <trkpt lat="43.57717" lon="1.27326">
        <ele>205.4</ele>
        <time>2024-05-20T09:37:11Z</time>
      </trkpt>
      <trkpt lat="43.57715" lon="1.27333">
        <ele>205.4</ele>
        <time>2024-05-20T09:37:12Z</time>
      </trkpt>
      <trkpt lat="43.57713" lon="1.27339">
        <ele>205.4</ele>
        <time>2024-05-20T09:37:13Z</time>
      </trkpt>
      <trkpt lat="43.57711" lon="1.27345">
        <ele>205.4</ele>
        <time>2024-05-20T09:37:14Z</time>
      </trkpt>
      <trkpt lat="43.57709" lon="1.27352">
        <ele>205.4</ele>
        <time>2024-05-20T09:37:15Z</time>
      </trkpt>
      <trkpt lat="43.57707" lon="1.27359">
        <ele>205.4</ele>
        <time>2024-05-20T09:37:16Z</time>
      </trkpt>
      <trkpt lat="43.57705" lon="1.27365">
        <ele>205.2</ele>
        <time>2024-05-20T09:37:17Z</time>
      </trkpt>
      <trkpt lat="43.57702" lon="1.27372">
        <ele>205.2</ele>
        <time>2024-05-20T09:37:18Z</time>
      </trkpt>
      <trkpt lat="43.577" lon="1.27379">
        <ele>205.2</ele>
        <time>2024-05-20T09:37:19Z</time>
      </trkpt>
      <trkpt lat="43.57697" lon="1.27385">
        <ele>205.2</ele>
        <time>2024-05-20T09:37:20Z</time>
      </trkpt>
      <trkpt lat="43.57697" lon="1.27385">
        <ele>205.4</ele>
        <time>2024-05-20T09:37:21Z</time>
      </trkpt>
      <trkpt lat="43.57693" lon="1.27399">
        <ele>205.4</ele>
        <time>2024-05-20T09:37:22Z</time>
      </trkpt>
      <trkpt lat="43.5769" lon="1.27406">
        <ele>205.4</ele>
        <time>2024-05-20T09:37:23Z</time>
      </trkpt>
      <trkpt lat="43.57687" lon="1.27413">
        <ele>205.4</ele>
        <time>2024-05-20T09:37:24Z</time>
      </trkpt>
      <trkpt lat="43.57685" lon="1.2742">
        <ele>205.4</ele>
        <time>2024-05-20T09:37:25Z</time>
      </trkpt>
      <trkpt lat="43.57682" lon="1.27427">
        <ele>205.4</ele>
        <time>2024-05-20T09:37:26Z</time>
      </trkpt>
      <trkpt lat="43.57679" lon="1.27434">
        <ele>205.6</ele>
        <time>2024-05-20T09:37:27Z</time>
      </trkpt>
      <trkpt lat="43.57677" lon="1.27441">
        <ele>205.6</ele>
        <time>2024-05-20T09:37:28Z</time>
      </trkpt>
      <trkpt lat="43.57674" lon="1.27448">
        <ele>205.6</ele>
        <time>2024-05-20T09:37:29Z</time>
      </trkpt>
      <trkpt lat="43.57672" lon="1.27455">
        <ele>205.6</ele>
        <time>2024-05-20T09:37:30Z</time>
      </trkpt>
      <trkpt lat="43.57669" lon="1.27462">
        <ele>205.4</ele>
        <time>2024-05-20T09:37:31Z</time>
      </trkpt>
      <trkpt lat="43.57666" lon="1.2747">
        <ele>205.4</ele>
        <time>2024-05-20T09:37:32Z</time>
      </trkpt>
      <trkpt lat="43.57663" lon="1.27477">
        <ele>205.4</ele>
        <time>2024-05-20T09:37:33Z</time>
      </trkpt>
      <trkpt lat="43.5766" lon="1.27485">
        <ele>205.2</ele>
        <time>2024-05-20T09:37:34Z</time>
      </trkpt>
      <trkpt lat="43.57657" lon="1.27493">
        <ele>205.2</ele>
        <time>2024-05-20T09:37:35Z</time>
      </trkpt>
      <trkpt lat="43.57655" lon="1.27501">
        <ele>205.2</ele>
        <time>2024-05-20T09:37:36Z</time>
      </trkpt>
      <trkpt lat="43.57652" lon="1.27509">
        <ele>205.2</ele>
        <time>2024-05-20T09:37:37Z</time>
      </trkpt>
      <trkpt lat="43.5765" lon="1.27517">
        <ele>205.2</ele>
        <time>2024-05-20T09:37:38Z</time>
      </trkpt>
      <trkpt lat="43.57648" lon="1.27525">
        <ele>205.2</ele>
        <time>2024-05-20T09:37:39Z</time>
      </trkpt>
      <trkpt lat="43.57645" lon="1.27533">
        <ele>205.2</ele>
        <time>2024-05-20T09:37:40Z</time>
      </trkpt>
      <trkpt lat="43.57643" lon="1.27541">
        <ele>205.2</ele>
        <time>2024-05-20T09:37:41Z</time>
      </trkpt>
      <trkpt lat="43.5764" lon="1.27548">
        <ele>205.2</ele>
        <time>2024-05-20T09:37:42Z</time>
      </trkpt>
      <trkpt lat="43.57638" lon="1.27556">
        <ele>205.2</ele>
        <time>2024-05-20T09:37:43Z</time>
      </trkpt>
      <trkpt lat="43.57635" lon="1.27564">
        <ele>205.2</ele>
        <time>2024-05-20T09:37:44Z</time>
      </trkpt>
      <trkpt lat="43.57633" lon="1.27571">
        <ele>205.2</ele>
        <time>2024-05-20T09:37:45Z</time>
      </trkpt>
      <trkpt lat="43.5763" lon="1.27579">
        <ele>205.2</ele>
        <time>2024-05-20T09:37:46Z</time>
      </trkpt>
      <trkpt lat="43.57628" lon="1.27587">
        <ele>205.2</ele>
        <time>2024-05-20T09:37:47Z</time>
      </trkpt>
      <trkpt lat="43.57625" lon="1.27595">
        <ele>205.2</ele>
        <time>2024-05-20T09:37:48Z</time>
      </trkpt>
      <trkpt lat="43.57623" lon="1.27603">
        <ele>205.2</ele>
        <time>2024-05-20T09:37:49Z</time>
      </trkpt>
      <trkpt lat="43.5762" lon="1.27611">
        <ele>205.2</ele>
        <time>2024-05-20T09:37:50Z</time>
      </trkpt>
      <trkpt lat="43.57617" lon="1.27619">
        <ele>205.4</ele>
        <time>2024-05-20T09:37:51Z</time>
      </trkpt>
      <trkpt lat="43.57615" lon="1.27627">
        <ele>205.4</ele>
        <time>2024-05-20T09:37:52Z</time>
      </trkpt>
      <trkpt lat="43.57612" lon="1.27635">
        <ele>205.4</ele>
        <time>2024-05-20T09:37:53Z</time>
      </trkpt>
      <trkpt lat="43.57609" lon="1.27643">
        <ele>205.4</ele>
        <time>2024-05-20T09:37:54Z</time>
      </trkpt>
      <trkpt lat="43.57606" lon="1.2765">
        <ele>205.4</ele>
        <time>2024-05-20T09:37:55Z</time>
      </trkpt>
      <trkpt lat="43.57603" lon="1.27658">
        <ele>205.6</ele>
        <time>2024-05-20T09:37:56Z</time>
      </trkpt>
      <trkpt lat="43.576" lon="1.27666">
        <ele>205.6</ele>
        <time>2024-05-20T09:37:57Z</time>
      </trkpt>
      <trkpt lat="43.57597" lon="1.27675">
        <ele>205.6</ele>
        <time>2024-05-20T09:37:58Z</time>
      </trkpt>
      <trkpt lat="43.57595" lon="1.27683">
        <ele>205.6</ele>
        <time>2024-05-20T09:37:59Z</time>
      </trkpt>
      <trkpt lat="43.57593" lon="1.2769">
        <ele>205.8</ele>
        <time>2024-05-20T09:38:00Z</time>
      </trkpt>
      <trkpt lat="43.57591" lon="1.27698">
        <ele>205.8</ele>
        <time>2024-05-20T09:38:01Z</time>
      </trkpt>
      <trkpt lat="43.57588" lon="1.27706">
        <ele>205.8</ele>
        <time>2024-05-20T09:38:02Z</time>
      </trkpt>
      <trkpt lat="43.57585" lon="1.27716">
        <ele>205.8</ele>
        <time>2024-05-20T09:38:03Z</time>
      </trkpt>
      <trkpt lat="43.57583" lon="1.27724">
        <ele>205.8</ele>
        <time>2024-05-20T09:38:04Z</time>
      </trkpt>
      <trkpt lat="43.57582" lon="1.2773">
        <ele>205.8</ele>
        <time>2024-05-20T09:38:05Z</time>
      </trkpt>
      <trkpt lat="43.5758" lon="1.27739">
        <ele>205.8</ele>
        <time>2024-05-20T09:38:06Z</time>
      </trkpt>
      <trkpt lat="43.57579" lon="1.27747">
        <ele>205.8</ele>
        <time>2024-05-20T09:38:07Z</time>
      </trkpt>
      <trkpt lat="43.57577" lon="1.27756">
        <ele>205.8</ele>
        <time>2024-05-20T09:38:08Z</time>
      </trkpt>
      <trkpt lat="43.57574" lon="1.27766">
        <ele>205.8</ele>
        <time>2024-05-20T09:38:09Z</time>
      </trkpt>
      <trkpt lat="43.57572" lon="1.27772">
        <ele>205.8</ele>
        <time>2024-05-20T09:38:10Z</time>
      </trkpt>
      <trkpt lat="43.5757" lon="1.27781">
        <ele>205.8</ele>
        <time>2024-05-20T09:38:11Z</time>
      </trkpt>
      <trkpt lat="43.57568" lon="1.27789">
        <ele>205.6</ele>
        <time>2024-05-20T09:38:12Z</time>
      </trkpt>
      <trkpt lat="43.57565" lon="1.27799">
        <ele>205.6</ele>
        <time>2024-05-20T09:38:13Z</time>
      </trkpt>
      <trkpt lat="43.57563" lon="1.27808">
        <ele>205.6</ele>
        <time>2024-05-20T09:38:14Z</time>
      </trkpt>
      <trkpt lat="43.57561" lon="1.27815">
        <ele>205.6</ele>
        <time>2024-05-20T09:38:15Z</time>
      </trkpt>
      <trkpt lat="43.57558" lon="1.27823">
        <ele>205.6</ele>
        <time>2024-05-20T09:38:16Z</time>
      </trkpt>
      <trkpt lat="43.57556" lon="1.27831">
        <ele>205.6</ele>
        <time>2024-05-20T09:38:17Z</time>
      </trkpt>
      <trkpt lat="43.57553" lon="1.27842">
        <ele>205.6</ele>
        <time>2024-05-20T09:38:18Z</time>
      </trkpt>
      <trkpt lat="43.5755" lon="1.2785">
        <ele>205.6</ele>
        <time>2024-05-20T09:38:19Z</time>
      </trkpt>
      <trkpt lat="43.57548" lon="1.27857">
        <ele>205.6</ele>
        <time>2024-05-20T09:38:20Z</time>
      </trkpt>
      <trkpt lat="43.57545" lon="1.27867">
        <ele>205.6</ele>
        <time>2024-05-20T09:38:21Z</time>
      </trkpt>
      <trkpt lat="43.57542" lon="1.27876">
        <ele>205.6</ele>
        <time>2024-05-20T09:38:22Z</time>
      </trkpt>
      <trkpt lat="43.5754" lon="1.27885">
        <ele>205.6</ele>
        <time>2024-05-20T09:38:23Z</time>
      </trkpt>
      <trkpt lat="43.57537" lon="1.27894">
        <ele>205.6</ele>
        <time>2024-05-20T09:38:24Z</time>
      </trkpt>
      <trkpt lat="43.57534" lon="1.27904">
        <ele>205.6</ele>
        <time>2024-05-20T09:38:25Z</time>
      </trkpt>
      <trkpt lat="43.5753" lon="1.27913">
        <ele>205.6</ele>
        <time>2024-05-20T09:38:26Z</time>
      </trkpt>
      <trkpt lat="43.57527" lon="1.27922">
        <ele>205.6</ele>
        <time>2024-05-20T09:38:27Z</time>
      </trkpt>
      <trkpt lat="43.57524" lon="1.27931">
        <ele>205.4</ele>
        <time>2024-05-20T09:38:28Z</time>
      </trkpt>
      <trkpt lat="43.57521" lon="1.27941">
        <ele>205.4</ele>
        <time>2024-05-20T09:38:29Z</time>
      </trkpt>
      <trkpt lat="43.57518" lon="1.2795">
        <ele>205.4</ele>
        <time>2024-05-20T09:38:30Z</time>
      </trkpt>
      <trkpt lat="43.57515" lon="1.2796">
        <ele>205.4</ele>
        <time>2024-05-20T09:38:31Z</time>
      </trkpt>
      <trkpt lat="43.57512" lon="1.27971">
        <ele>205.2</ele>
        <time>2024-05-20T09:38:32Z</time>
      </trkpt>
      <trkpt lat="43.5751" lon="1.27979">
        <ele>205.2</ele>
        <time>2024-05-20T09:38:33Z</time>
      </trkpt>
      <trkpt lat="43.57506" lon="1.27991">
        <ele>205.2</ele>
        <time>2024-05-20T09:38:34Z</time>
      </trkpt>
      <trkpt lat="43.57504" lon="1.27999">
        <ele>205.2</ele>
        <time>2024-05-20T09:38:35Z</time>
      </trkpt>
      <trkpt lat="43.57501" lon="1.28009">
        <ele>205.2</ele>
        <time>2024-05-20T09:38:36Z</time>
      </trkpt>
      <trkpt lat="43.57498" lon="1.28021">
        <ele>205.2</ele>
        <time>2024-05-20T09:38:37Z</time>
      </trkpt>
      <trkpt lat="43.57495" lon="1.28031">
        <ele>205.2</ele>
        <time>2024-05-20T09:38:38Z</time>
      </trkpt>
      <trkpt lat="43.57493" lon="1.28039">
        <ele>205.2</ele>
        <time>2024-05-20T09:38:39Z</time>
      </trkpt>
      <trkpt lat="43.57489" lon="1.2805">
        <ele>205.2</ele>
        <time>2024-05-20T09:38:40Z</time>
      </trkpt>
      <trkpt lat="43.57486" lon="1.28062">
        <ele>205.2</ele>
        <time>2024-05-20T09:38:41Z</time>
      </trkpt>
      <trkpt lat="43.57483" lon="1.2807">
        <ele>205.2</ele>
        <time>2024-05-20T09:38:42Z</time>
      </trkpt>
      <trkpt lat="43.5748" lon="1.2808">
        <ele>205.2</ele>
        <time>2024-05-20T09:38:43Z</time>
      </trkpt>
      <trkpt lat="43.57477" lon="1.2809">
        <ele>205.2</ele>
        <time>2024-05-20T09:38:44Z</time>
      </trkpt>
      <trkpt lat="43.57477" lon="1.2809">
        <ele>205.2</ele>
        <time>2024-05-20T09:38:45Z</time>
      </trkpt>
      <trkpt lat="43.57469" lon="1.28112">
        <ele>205.2</ele>
        <time>2024-05-20T09:38:46Z</time>
      </trkpt>
      <trkpt lat="43.57466" lon="1.28121">
        <ele>205.2</ele>
        <time>2024-05-20T09:38:47Z</time>
      </trkpt>
      <trkpt lat="43.57462" lon="1.28131">
        <ele>205.2</ele>
        <time>2024-05-20T09:38:48Z</time>
      </trkpt>
      <trkpt lat="43.57459" lon="1.28139">
        <ele>205.2</ele>
        <time>2024-05-20T09:38:49Z</time>
      </trkpt>
      <trkpt lat="43.57456" lon="1.28149">
        <ele>205.2</ele>
        <time>2024-05-20T09:38:50Z</time>
      </trkpt>
      <trkpt lat="43.57451" lon="1.28161">
        <ele>205.2</ele>
        <time>2024-05-20T09:38:51Z</time>
      </trkpt>
      <trkpt lat="43.57448" lon="1.28172">
        <ele>205</ele>
        <time>2024-05-20T09:38:52Z</time>
      </trkpt>
      <trkpt lat="43.57445" lon="1.2818">
        <ele>205</ele>
        <time>2024-05-20T09:38:53Z</time>
      </trkpt>
      <trkpt lat="43.57441" lon="1.2819">
        <ele>205</ele>
        <time>2024-05-20T09:38:54Z</time>
      </trkpt>
      <trkpt lat="43.57437" lon="1.28201">
        <ele>205</ele>
        <time>2024-05-20T09:38:55Z</time>
      </trkpt>
      <trkpt lat="43.57434" lon="1.28209">
        <ele>204.8</ele>
        <time>2024-05-20T09:38:56Z</time>
      </trkpt>
      <trkpt lat="43.5743" lon="1.28221">
        <ele>204.8</ele>
        <time>2024-05-20T09:38:57Z</time>
      </trkpt>
      <trkpt lat="43.57427" lon="1.2823">
        <ele>204.8</ele>
        <time>2024-05-20T09:38:58Z</time>
      </trkpt>
      <trkpt lat="43.57424" lon="1.2824">
        <ele>204.6</ele>
        <time>2024-05-20T09:38:59Z</time>
      </trkpt>
      <trkpt lat="43.5742" lon="1.2825">
        <ele>204.6</ele>
        <time>2024-05-20T09:39:00Z</time>
      </trkpt>
      <trkpt lat="43.57415" lon="1.28262">
        <ele>204.6</ele>
        <time>2024-05-20T09:39:01Z</time>
      </trkpt>
      <trkpt lat="43.57412" lon="1.2827">
        <ele>204.6</ele>
        <time>2024-05-20T09:39:02Z</time>
      </trkpt>
      <trkpt lat="43.57409" lon="1.28279">
        <ele>204.4</ele>
        <time>2024-05-20T09:39:03Z</time>
      </trkpt>
      <trkpt lat="43.57404" lon="1.28289">
        <ele>204.4</ele>
        <time>2024-05-20T09:39:04Z</time>
      </trkpt>
      <trkpt lat="43.574" lon="1.28299">
        <ele>204.4</ele>
        <time>2024-05-20T09:39:05Z</time>
      </trkpt>
      <trkpt lat="43.57396" lon="1.28309">
        <ele>204.4</ele>
        <time>2024-05-20T09:39:06Z</time>
      </trkpt>
      <trkpt lat="43.57392" lon="1.28319">
        <ele>204.4</ele>
        <time>2024-05-20T09:39:07Z</time>
      </trkpt>
      <trkpt lat="43.57388" lon="1.28328">
        <ele>204.4</ele>
        <time>2024-05-20T09:39:08Z</time>
      </trkpt>
      <trkpt lat="43.57383" lon="1.28338">
        <ele>204.4</ele>
        <time>2024-05-20T09:39:09Z</time>
      </trkpt>
      <trkpt lat="43.57378" lon="1.2835">
        <ele>204.4</ele>
        <time>2024-05-20T09:39:10Z</time>
      </trkpt>
      <trkpt lat="43.57374" lon="1.2836">
        <ele>204.4</ele>
        <time>2024-05-20T09:39:11Z</time>
      </trkpt>
      <trkpt lat="43.57371" lon="1.28368">
        <ele>204.4</ele>
        <time>2024-05-20T09:39:12Z</time>
      </trkpt>
      <trkpt lat="43.57366" lon="1.28376">
        <ele>204.4</ele>
        <time>2024-05-20T09:39:13Z</time>
      </trkpt>
      <trkpt lat="43.5736" lon="1.28386">
        <ele>204.2</ele>
        <time>2024-05-20T09:39:14Z</time>
      </trkpt>
      <trkpt lat="43.57354" lon="1.28392">
        <ele>204.2</ele>
        <time>2024-05-20T09:39:15Z</time>
      </trkpt>
      <trkpt lat="43.57348" lon="1.28396">
        <ele>204.2</ele>
        <time>2024-05-20T09:39:16Z</time>
      </trkpt>
      <trkpt lat="43.57342" lon="1.28398">
        <ele>204.2</ele>
        <time>2024-05-20T09:39:17Z</time>
      </trkpt>
      <trkpt lat="43.57336" lon="1.28401">
        <ele>204.2</ele>
        <time>2024-05-20T09:39:18Z</time>
      </trkpt>
      <trkpt lat="43.5733" lon="1.28406">
        <ele>204.2</ele>
        <time>2024-05-20T09:39:19Z</time>
      </trkpt>
      <trkpt lat="43.57328" lon="1.28413">
        <ele>204.2</ele>
        <time>2024-05-20T09:39:20Z</time>
      </trkpt>
      <trkpt lat="43.57328" lon="1.28422">
        <ele>204.2</ele>
        <time>2024-05-20T09:39:21Z</time>
      </trkpt>
      <trkpt lat="43.57329" lon="1.28429">
        <ele>204.2</ele>
        <time>2024-05-20T09:39:22Z</time>
      </trkpt>
      <trkpt lat="43.5733" lon="1.28438">
        <ele>204.2</ele>
        <time>2024-05-20T09:39:23Z</time>
      </trkpt>
      <trkpt lat="43.57332" lon="1.28449">
        <ele>204.2</ele>
        <time>2024-05-20T09:39:24Z</time>
      </trkpt>
      <trkpt lat="43.57333" lon="1.28455">
        <ele>204.2</ele>
        <time>2024-05-20T09:39:25Z</time>
      </trkpt>
      <trkpt lat="43.57335" lon="1.28464">
        <ele>204.2</ele>
        <time>2024-05-20T09:39:26Z</time>
      </trkpt>
      <trkpt lat="43.57339" lon="1.28471">
        <ele>204.2</ele>
        <time>2024-05-20T09:39:27Z</time>
      </trkpt>
      <trkpt lat="43.57343" lon="1.28478">
        <ele>204.4</ele>
        <time>2024-05-20T09:39:28Z</time>
      </trkpt>
      <trkpt lat="43.57348" lon="1.28485">
        <ele>204.4</ele>
        <time>2024-05-20T09:39:29Z</time>
      </trkpt>
      <trkpt lat="43.57352" lon="1.28491">
        <ele>204.4</ele>
        <time>2024-05-20T09:39:30Z</time>
      </trkpt>
      <trkpt lat="43.57356" lon="1.28496">
        <ele>204.4</ele>
        <time>2024-05-20T09:39:31Z</time>
      </trkpt>
      <trkpt lat="43.57361" lon="1.28502">
        <ele>204.4</ele>
        <time>2024-05-20T09:39:32Z</time>
      </trkpt>
      <trkpt lat="43.57367" lon="1.2851">
        <ele>204.4</ele>
        <time>2024-05-20T09:39:33Z</time>
      </trkpt>
      <trkpt lat="43.57371" lon="1.28515">
        <ele>204.4</ele>
        <time>2024-05-20T09:39:34Z</time>
      </trkpt>
      <trkpt lat="43.57376" lon="1.28522">
        <ele>204.4</ele>
        <time>2024-05-20T09:39:35Z</time>
      </trkpt>
      <trkpt lat="43.57381" lon="1.28529">
        <ele>204.4</ele>
        <time>2024-05-20T09:39:36Z</time>
      </trkpt>
      <trkpt lat="43.57386" lon="1.28536">
        <ele>204.4</ele>
        <time>2024-05-20T09:39:37Z</time>
      </trkpt>
      <trkpt lat="43.57391" lon="1.28542">
        <ele>204.4</ele>
        <time>2024-05-20T09:39:38Z</time>
      </trkpt>
      <trkpt lat="43.57395" lon="1.28549">
        <ele>204.4</ele>
        <time>2024-05-20T09:39:39Z</time>
      </trkpt>
      <trkpt lat="43.574" lon="1.28556">
        <ele>204.4</ele>
        <time>2024-05-20T09:39:40Z</time>
      </trkpt>
      <trkpt lat="43.57406" lon="1.28563">
        <ele>204.4</ele>
        <time>2024-05-20T09:39:41Z</time>
      </trkpt>
      <trkpt lat="43.57412" lon="1.28571">
        <ele>204.4</ele>
        <time>2024-05-20T09:39:42Z</time>
      </trkpt>
      <trkpt lat="43.57418" lon="1.28577">
        <ele>204.4</ele>
        <time>2024-05-20T09:39:43Z</time>
      </trkpt>
      <trkpt lat="43.57423" lon="1.28584">
        <ele>204.4</ele>
        <time>2024-05-20T09:39:44Z</time>
      </trkpt>
      <trkpt lat="43.57428" lon="1.28589">
        <ele>204.4</ele>
        <time>2024-05-20T09:39:45Z</time>
      </trkpt>
      <trkpt lat="43.57433" lon="1.28596">
        <ele>204.4</ele>
        <time>2024-05-20T09:39:46Z</time>
      </trkpt>
      <trkpt lat="43.57439" lon="1.28603">
        <ele>204.4</ele>
        <time>2024-05-20T09:39:47Z</time>
      </trkpt>
      <trkpt lat="43.57446" lon="1.28611">
        <ele>204.4</ele>
        <time>2024-05-20T09:39:48Z</time>
      </trkpt>
      <trkpt lat="43.57451" lon="1.28618">
        <ele>204.4</ele>
        <time>2024-05-20T09:39:49Z</time>
      </trkpt>
      <trkpt lat="43.57455" lon="1.28624">
        <ele>204.4</ele>
        <time>2024-05-20T09:39:50Z</time>
      </trkpt>
      <trkpt lat="43.57461" lon="1.28631">
        <ele>204.4</ele>
        <time>2024-05-20T09:39:51Z</time>
      </trkpt>
      <trkpt lat="43.57466" lon="1.28638">
        <ele>204.4</ele>
        <time>2024-05-20T09:39:52Z</time>
      </trkpt>
      <trkpt lat="43.57471" lon="1.28645">
        <ele>204.4</ele>
        <time>2024-05-20T09:39:53Z</time>
      </trkpt>
      <trkpt lat="43.57477" lon="1.28653">
        <ele>204.4</ele>
        <time>2024-05-20T09:39:54Z</time>
      </trkpt>
      <trkpt lat="43.57482" lon="1.2866">
        <ele>204.4</ele>
        <time>2024-05-20T09:39:55Z</time>
      </trkpt>
      <trkpt lat="43.57487" lon="1.28667">
        <ele>204.4</ele>
        <time>2024-05-20T09:39:56Z</time>
      </trkpt>
      <trkpt lat="43.57492" lon="1.28674">
        <ele>204.2</ele>
        <time>2024-05-20T09:39:57Z</time>
      </trkpt>
      <trkpt lat="43.57498" lon="1.28681">
        <ele>204.2</ele>
        <time>2024-05-20T09:39:58Z</time>
      </trkpt>
      <trkpt lat="43.57504" lon="1.28688">
        <ele>204.2</ele>
        <time>2024-05-20T09:39:59Z</time>
      </trkpt>
      <trkpt lat="43.57509" lon="1.28695">
        <ele>204</ele>
        <time>2024-05-20T09:40:00Z</time>
      </trkpt>
      <trkpt lat="43.57516" lon="1.28703">
        <ele>203.8</ele>
        <time>2024-05-20T09:40:01Z</time>
      </trkpt>
      <trkpt lat="43.5752" lon="1.28709">
        <ele>203.8</ele>
        <time>2024-05-20T09:40:02Z</time>
      </trkpt>
      <trkpt lat="43.57526" lon="1.28717">
        <ele>203.8</ele>
        <time>2024-05-20T09:40:03Z</time>
      </trkpt>
      <trkpt lat="43.5753" lon="1.28723">
        <ele>203.8</ele>
        <time>2024-05-20T09:40:04Z</time>
      </trkpt>
      <trkpt lat="43.57536" lon="1.2873">
        <ele>203.6</ele>
        <time>2024-05-20T09:40:05Z</time>
      </trkpt>
      <trkpt lat="43.57542" lon="1.28739">
        <ele>203.6</ele>
        <time>2024-05-20T09:40:06Z</time>
      </trkpt>
      <trkpt lat="43.57548" lon="1.28746">
        <ele>203.6</ele>
        <time>2024-05-20T09:40:07Z</time>
      </trkpt>
      <trkpt lat="43.57552" lon="1.28753">
        <ele>203.6</ele>
        <time>2024-05-20T09:40:08Z</time>
      </trkpt>
      <trkpt lat="43.57558" lon="1.2876">
        <ele>203.4</ele>
        <time>2024-05-20T09:40:09Z</time>
      </trkpt>
      <trkpt lat="43.57563" lon="1.28768">
        <ele>203.4</ele>
        <time>2024-05-20T09:40:10Z</time>
      </trkpt>
      <trkpt lat="43.5757" lon="1.28777">
        <ele>203.4</ele>
        <time>2024-05-20T09:40:11Z</time>
      </trkpt>
      <trkpt lat="43.57576" lon="1.28785">
        <ele>203.4</ele>
        <time>2024-05-20T09:40:12Z</time>
      </trkpt>
      <trkpt lat="43.57581" lon="1.28793">
        <ele>203.2</ele>
        <time>2024-05-20T09:40:13Z</time>
      </trkpt>
      <trkpt lat="43.57586" lon="1.28799">
        <ele>203.2</ele>
        <time>2024-05-20T09:40:14Z</time>
      </trkpt>
      <trkpt lat="43.57593" lon="1.28808">
        <ele>203.2</ele>
        <time>2024-05-20T09:40:15Z</time>
      </trkpt>
      <trkpt lat="43.57598" lon="1.28816">
        <ele>203.2</ele>
        <time>2024-05-20T09:40:16Z</time>
      </trkpt>
      <trkpt lat="43.57604" lon="1.28823">
        <ele>203.2</ele>
        <time>2024-05-20T09:40:17Z</time>
      </trkpt>
      <trkpt lat="43.57608" lon="1.28829">
        <ele>203.2</ele>
        <time>2024-05-20T09:40:18Z</time>
      </trkpt>
      <trkpt lat="43.57614" lon="1.28837">
        <ele>203</ele>
        <time>2024-05-20T09:40:19Z</time>
      </trkpt>
      <trkpt lat="43.57619" lon="1.28845">
        <ele>203</ele>
        <time>2024-05-20T09:40:20Z</time>
      </trkpt>
      <trkpt lat="43.57626" lon="1.28854">
        <ele>203</ele>
        <time>2024-05-20T09:40:21Z</time>
      </trkpt>
      <trkpt lat="43.5763" lon="1.28861">
        <ele>203</ele>
        <time>2024-05-20T09:40:22Z</time>
      </trkpt>
      <trkpt lat="43.57636" lon="1.28868">
        <ele>203</ele>
        <time>2024-05-20T09:40:23Z</time>
      </trkpt>
      <trkpt lat="43.57641" lon="1.28875">
        <ele>203</ele>
        <time>2024-05-20T09:40:24Z</time>
      </trkpt>
      <trkpt lat="43.57646" lon="1.28883">
        <ele>203</ele>
        <time>2024-05-20T09:40:25Z</time>
      </trkpt>
      <trkpt lat="43.57651" lon="1.2889">
        <ele>203.2</ele>
        <time>2024-05-20T09:40:26Z</time>
      </trkpt>
      <trkpt lat="43.57656" lon="1.28897">
        <ele>203.4</ele>
        <time>2024-05-20T09:40:27Z</time>
      </trkpt>
      <trkpt lat="43.5766" lon="1.28904">
        <ele>203.4</ele>
        <time>2024-05-20T09:40:28Z</time>
      </trkpt>
      <trkpt lat="43.57665" lon="1.2891">
        <ele>203.6</ele>
        <time>2024-05-20T09:40:29Z</time>
      </trkpt>
      <trkpt lat="43.57669" lon="1.28917">
        <ele>203.8</ele>
        <time>2024-05-20T09:40:30Z</time>
      </trkpt>
      <trkpt lat="43.57672" lon="1.28924">
        <ele>203.8</ele>
        <time>2024-05-20T09:40:31Z</time>
      </trkpt>
      <trkpt lat="43.57674" lon="1.28931">
        <ele>203.8</ele>
        <time>2024-05-20T09:40:32Z</time>
      </trkpt>
      <trkpt lat="43.57672" lon="1.28937">
        <ele>204</ele>
        <time>2024-05-20T09:40:33Z</time>
      </trkpt>
      <trkpt lat="43.57669" lon="1.28942">
        <ele>204</ele>
        <time>2024-05-20T09:40:34Z</time>
      </trkpt>
      <trkpt lat="43.57664" lon="1.28947">
        <ele>204.2</ele>
        <time>2024-05-20T09:40:35Z</time>
      </trkpt>
      <trkpt lat="43.57659" lon="1.2895">
        <ele>204.2</ele>
        <time>2024-05-20T09:40:36Z</time>
      </trkpt>
      <trkpt lat="43.57654" lon="1.28954">
        <ele>204.2</ele>
        <time>2024-05-20T09:40:37Z</time>
      </trkpt>
      <trkpt lat="43.5765" lon="1.28957">
        <ele>204.2</ele>
        <time>2024-05-20T09:40:38Z</time>
      </trkpt>
      <trkpt lat="43.57645" lon="1.2896">
        <ele>204.4</ele>
        <time>2024-05-20T09:40:39Z</time>
      </trkpt>
      <trkpt lat="43.57639" lon="1.28965">
        <ele>204.4</ele>
        <time>2024-05-20T09:40:40Z</time>
      </trkpt>
      <trkpt lat="43.57634" lon="1.28969">
        <ele>204.4</ele>
        <time>2024-05-20T09:40:41Z</time>
      </trkpt>
      <trkpt lat="43.57629" lon="1.28973">
        <ele>204.4</ele>
        <time>2024-05-20T09:40:42Z</time>
      </trkpt>
      <trkpt lat="43.57624" lon="1.28977">
        <ele>204.4</ele>
        <time>2024-05-20T09:40:43Z</time>
      </trkpt>
      <trkpt lat="43.57617" lon="1.28983">
        <ele>204.4</ele>
        <time>2024-05-20T09:40:44Z</time>
      </trkpt>
      <trkpt lat="43.57611" lon="1.28987">
        <ele>204.2</ele>
        <time>2024-05-20T09:40:45Z</time>
      </trkpt>
      <trkpt lat="43.57606" lon="1.28992">
        <ele>204.2</ele>
        <time>2024-05-20T09:40:46Z</time>
      </trkpt>
      <trkpt lat="43.57601" lon="1.28995">
        <ele>204.2</ele>
        <time>2024-05-20T09:40:47Z</time>
      </trkpt>
      <trkpt lat="43.57595" lon="1.29">
        <ele>204.2</ele>
        <time>2024-05-20T09:40:48Z</time>
      </trkpt>
      <trkpt lat="43.57589" lon="1.29005">
        <ele>204.2</ele>
        <time>2024-05-20T09:40:49Z</time>
      </trkpt>
      <trkpt lat="43.57582" lon="1.2901">
        <ele>204.2</ele>
        <time>2024-05-20T09:40:50Z</time>
      </trkpt>
      <trkpt lat="43.57576" lon="1.29015">
        <ele>204.2</ele>
        <time>2024-05-20T09:40:51Z</time>
      </trkpt>
      <trkpt lat="43.5757" lon="1.2902">
        <ele>204</ele>
        <time>2024-05-20T09:40:52Z</time>
      </trkpt>
      <trkpt lat="43.57564" lon="1.29025">
        <ele>204</ele>
        <time>2024-05-20T09:40:53Z</time>
      </trkpt>
      <trkpt lat="43.57556" lon="1.29032">
        <ele>204</ele>
        <time>2024-05-20T09:40:54Z</time>
      </trkpt>
      <trkpt lat="43.5755" lon="1.29037">
        <ele>204</ele>
        <time>2024-05-20T09:40:55Z</time>
      </trkpt>
      <trkpt lat="43.57545" lon="1.29042">
        <ele>203.8</ele>
        <time>2024-05-20T09:40:56Z</time>
      </trkpt>
      <trkpt lat="43.57539" lon="1.29048">
        <ele>203.8</ele>
        <time>2024-05-20T09:40:57Z</time>
      </trkpt>
      <trkpt lat="43.57533" lon="1.29055">
        <ele>203.6</ele>
        <time>2024-05-20T09:40:58Z</time>
      </trkpt>
      <trkpt lat="43.57527" lon="1.29061">
        <ele>203.6</ele>
        <time>2024-05-20T09:40:59Z</time>
      </trkpt>
      <trkpt lat="43.57521" lon="1.29068">
        <ele>203.4</ele>
        <time>2024-05-20T09:41:00Z</time>
      </trkpt>
      <trkpt lat="43.57518" lon="1.29074">
        <ele>203.4</ele>
        <time>2024-05-20T09:41:01Z</time>
      </trkpt>
      <trkpt lat="43.57514" lon="1.29081">
        <ele>203.4</ele>
        <time>2024-05-20T09:41:02Z</time>
      </trkpt>
      <trkpt lat="43.57512" lon="1.29088">
        <ele>203.2</ele>
        <time>2024-05-20T09:41:03Z</time>
      </trkpt>
      <trkpt lat="43.5751" lon="1.29096">
        <ele>203.2</ele>
        <time>2024-05-20T09:41:04Z</time>
      </trkpt>
      <trkpt lat="43.57505" lon="1.29104">
        <ele>203.2</ele>
        <time>2024-05-20T09:41:05Z</time>
      </trkpt>
      <trkpt lat="43.575" lon="1.29108">
        <ele>203</ele>
        <time>2024-05-20T09:41:06Z</time>
      </trkpt>
      <trkpt lat="43.57494" lon="1.29112">
        <ele>203</ele>
        <time>2024-05-20T09:41:07Z</time>
      </trkpt>
      <trkpt lat="43.57487" lon="1.29117">
        <ele>203</ele>
        <time>2024-05-20T09:41:08Z</time>
      </trkpt>
      <trkpt lat="43.57481" lon="1.29121">
        <ele>202.8</ele>
        <time>2024-05-20T09:41:09Z</time>
      </trkpt>
      <trkpt lat="43.57474" lon="1.29125">
        <ele>202.6</ele>
        <time>2024-05-20T09:41:10Z</time>
      </trkpt>
      <trkpt lat="43.57468" lon="1.29131">
        <ele>202.6</ele>
        <time>2024-05-20T09:41:11Z</time>
      </trkpt>
      <trkpt lat="43.5746" lon="1.29137">
        <ele>202.4</ele>
        <time>2024-05-20T09:41:12Z</time>
      </trkpt>
      <trkpt lat="43.57452" lon="1.29144">
        <ele>202</ele>
        <time>2024-05-20T09:41:13Z</time>
      </trkpt>
      <trkpt lat="43.57444" lon="1.29149">
        <ele>201.8</ele>
        <time>2024-05-20T09:41:14Z</time>
      </trkpt>
      <trkpt lat="43.57437" lon="1.29154">
        <ele>201.4</ele>
        <time>2024-05-20T09:41:15Z</time>
      </trkpt>
      <trkpt lat="43.57429" lon="1.29159">
        <ele>201.2</ele>
        <time>2024-05-20T09:41:16Z</time>
      </trkpt>
      <trkpt lat="43.5742" lon="1.29163">
        <ele>200.6</ele>
        <time>2024-05-20T09:41:17Z</time>
      </trkpt>
      <trkpt lat="43.57411" lon="1.29166">
        <ele>200.2</ele>
        <time>2024-05-20T09:41:18Z</time>
      </trkpt>
      <trkpt lat="43.574" lon="1.2917">
        <ele>199.8</ele>
        <time>2024-05-20T09:41:19Z</time>
      </trkpt>
      <trkpt lat="43.5739" lon="1.29172">
        <ele>199.6</ele>
        <time>2024-05-20T09:41:20Z</time>
      </trkpt>
      <trkpt lat="43.57382" lon="1.29175">
        <ele>199.4</ele>
        <time>2024-05-20T09:41:21Z</time>
      </trkpt>
      <trkpt lat="43.57372" lon="1.29177">
        <ele>199</ele>
        <time>2024-05-20T09:41:22Z</time>
      </trkpt>
      <trkpt lat="43.57362" lon="1.2918">
        <ele>198.8</ele>
        <time>2024-05-20T09:41:23Z</time>
      </trkpt>
      <trkpt lat="43.5735" lon="1.29184">
        <ele>198.2</ele>
        <time>2024-05-20T09:41:24Z</time>
      </trkpt>
      <trkpt lat="43.57343" lon="1.29187">
        <ele>197.6</ele>
        <time>2024-05-20T09:41:25Z</time>
      </trkpt>
      <trkpt lat="43.57333" lon="1.29191">
        <ele>197.2</ele>
        <time>2024-05-20T09:41:26Z</time>
      </trkpt>
      <trkpt lat="43.57325" lon="1.29195">
        <ele>197.2</ele>
        <time>2024-05-20T09:41:27Z</time>
      </trkpt>
      <trkpt lat="43.57316" lon="1.292">
        <ele>196.8</ele>
        <time>2024-05-20T09:41:28Z</time>
      </trkpt>
      <trkpt lat="43.57307" lon="1.29205">
        <ele>196.6</ele>
        <time>2024-05-20T09:41:29Z</time>
      </trkpt>
      <trkpt lat="43.57298" lon="1.2921">
        <ele>196.4</ele>
        <time>2024-05-20T09:41:30Z</time>
      </trkpt>
      <trkpt lat="43.57289" lon="1.29215">
        <ele>195.8</ele>
        <time>2024-05-20T09:41:31Z</time>
      </trkpt>
      <trkpt lat="43.5728" lon="1.2922">
        <ele>195.6</ele>
        <time>2024-05-20T09:41:32Z</time>
      </trkpt>
      <trkpt lat="43.57271" lon="1.29226">
        <ele>195.4</ele>
        <time>2024-05-20T09:41:33Z</time>
      </trkpt>
      <trkpt lat="43.57261" lon="1.29232">
        <ele>195</ele>
        <time>2024-05-20T09:41:34Z</time>
      </trkpt>
      <trkpt lat="43.57254" lon="1.29237">
        <ele>194.6</ele>
        <time>2024-05-20T09:41:35Z</time>
      </trkpt>
      <trkpt lat="43.57246" lon="1.29243">
        <ele>194</ele>
        <time>2024-05-20T09:41:36Z</time>
      </trkpt>
      <trkpt lat="43.57238" lon="1.2925">
        <ele>193.8</ele>
        <time>2024-05-20T09:41:37Z</time>
      </trkpt>
      <trkpt lat="43.5723" lon="1.29256">
        <ele>193.4</ele>
        <time>2024-05-20T09:41:38Z</time>
      </trkpt>
      <trkpt lat="43.57221" lon="1.29263">
        <ele>193.2</ele>
        <time>2024-05-20T09:41:39Z</time>
      </trkpt>
      <trkpt lat="43.57213" lon="1.29269">
        <ele>192.8</ele>
        <time>2024-05-20T09:41:40Z</time>
      </trkpt>
      <trkpt lat="43.57204" lon="1.29275">
        <ele>192.4</ele>
        <time>2024-05-20T09:41:41Z</time>
      </trkpt>
      <trkpt lat="43.57193" lon="1.29283">
        <ele>192</ele>
        <time>2024-05-20T09:41:42Z</time>
      </trkpt>
      <trkpt lat="43.57186" lon="1.29287">
        <ele>191.8</ele>
        <time>2024-05-20T09:41:43Z</time>
      </trkpt>
      <trkpt lat="43.57177" lon="1.29293">
        <ele>191.6</ele>
        <time>2024-05-20T09:41:44Z</time>
      </trkpt>
      <trkpt lat="43.57168" lon="1.29299">
        <ele>191.2</ele>
        <time>2024-05-20T09:41:45Z</time>
      </trkpt>
      <trkpt lat="43.57159" lon="1.29305">
        <ele>191</ele>
        <time>2024-05-20T09:41:46Z</time>
      </trkpt>
      <trkpt lat="43.5715" lon="1.29311">
        <ele>190.2</ele>
        <time>2024-05-20T09:41:47Z</time>
      </trkpt>
      <trkpt lat="43.57141" lon="1.29318">
        <ele>190</ele>
        <time>2024-05-20T09:41:48Z</time>
      </trkpt>
      <trkpt lat="43.57133" lon="1.29324">
        <ele>189.4</ele>
        <time>2024-05-20T09:41:49Z</time>
      </trkpt>
      <trkpt lat="43.57124" lon="1.2933">
        <ele>189</ele>
        <time>2024-05-20T09:41:50Z</time>
      </trkpt>
      <trkpt lat="43.57115" lon="1.29336">
        <ele>189</ele>
        <time>2024-05-20T09:41:51Z</time>
      </trkpt>
      <trkpt lat="43.57106" lon="1.29343">
        <ele>188.6</ele>
        <time>2024-05-20T09:41:52Z</time>
      </trkpt>
      <trkpt lat="43.57097" lon="1.2935">
        <ele>188.4</ele>
        <time>2024-05-20T09:41:53Z</time>
      </trkpt>
      <trkpt lat="43.57088" lon="1.29357">
        <ele>188</ele>
        <time>2024-05-20T09:41:54Z</time>
      </trkpt>
      <trkpt lat="43.5708" lon="1.29364">
        <ele>187.6</ele>
        <time>2024-05-20T09:41:55Z</time>
      </trkpt>
      <trkpt lat="43.57071" lon="1.29372">
        <ele>187</ele>
        <time>2024-05-20T09:41:56Z</time>
      </trkpt>
      <trkpt lat="43.57063" lon="1.2938">
        <ele>186.4</ele>
        <time>2024-05-20T09:41:57Z</time>
      </trkpt>
      <trkpt lat="43.57053" lon="1.2939">
        <ele>186.2</ele>
        <time>2024-05-20T09:41:58Z</time>
      </trkpt>
      <trkpt lat="43.57046" lon="1.29396">
        <ele>185.4</ele>
        <time>2024-05-20T09:41:59Z</time>
      </trkpt>
      <trkpt lat="43.57039" lon="1.29404">
        <ele>185</ele>
        <time>2024-05-20T09:42:00Z</time>
      </trkpt>
      <trkpt lat="43.57031" lon="1.29412">
        <ele>184.4</ele>
        <time>2024-05-20T09:42:01Z</time>
      </trkpt>
      <trkpt lat="43.57023" lon="1.29419">
        <ele>184.2</ele>
        <time>2024-05-20T09:42:02Z</time>
      </trkpt>
      <trkpt lat="43.57015" lon="1.29427">
        <ele>183.8</ele>
        <time>2024-05-20T09:42:03Z</time>
      </trkpt>
      <trkpt lat="43.57007" lon="1.29435">
        <ele>183.6</ele>
        <time>2024-05-20T09:42:04Z</time>
      </trkpt>
      <trkpt lat="43.57" lon="1.29443">
        <ele>183.6</ele>
        <time>2024-05-20T09:42:05Z</time>
      </trkpt>
      <trkpt lat="43.56992" lon="1.2945">
        <ele>183.4</ele>
        <time>2024-05-20T09:42:06Z</time>
      </trkpt>
      <trkpt lat="43.56984" lon="1.29458">
        <ele>183.2</ele>
        <time>2024-05-20T09:42:07Z</time>
      </trkpt>
      <trkpt lat="43.56974" lon="1.29467">
        <ele>183</ele>
        <time>2024-05-20T09:42:08Z</time>
      </trkpt>
      <trkpt lat="43.56968" lon="1.29473">
        <ele>182.8</ele>
        <time>2024-05-20T09:42:09Z</time>
      </trkpt>
      <trkpt lat="43.56961" lon="1.2948">
        <ele>182.8</ele>
        <time>2024-05-20T09:42:10Z</time>
      </trkpt>
      <trkpt lat="43.56954" lon="1.29486">
        <ele>182.6</ele>
        <time>2024-05-20T09:42:11Z</time>
      </trkpt>
      <trkpt lat="43.56949" lon="1.29491">
        <ele>182.4</ele>
        <time>2024-05-20T09:42:12Z</time>
      </trkpt>
      <trkpt lat="43.56943" lon="1.29497">
        <ele>182</ele>
        <time>2024-05-20T09:42:13Z</time>
      </trkpt>
      <trkpt lat="43.5694" lon="1.295">
        <ele>182</ele>
        <time>2024-05-20T09:42:14Z</time>
      </trkpt>
      <trkpt lat="43.56937" lon="1.29504">
        <ele>181.8</ele>
        <time>2024-05-20T09:42:15Z</time>
      </trkpt>
      <trkpt lat="43.56934" lon="1.29507">
        <ele>181.6</ele>
        <time>2024-05-20T09:42:16Z</time>
      </trkpt>
      <trkpt lat="43.56932" lon="1.29508">
        <ele>181.4</ele>
        <time>2024-05-20T09:42:17Z</time>
      </trkpt>
      <trkpt lat="43.56931" lon="1.2951">
        <ele>181.4</ele>
        <time>2024-05-20T09:42:18Z</time>
      </trkpt>
      <trkpt lat="43.5693" lon="1.2951">
        <ele>181.2</ele>
        <time>2024-05-20T09:42:19Z</time>
      </trkpt>
      <trkpt lat="43.56929" lon="1.29511">
        <ele>181.2</ele>
        <time>2024-05-20T09:42:20Z</time>
      </trkpt>
      <trkpt lat="43.56929" lon="1.29512">
        <ele>181.2</ele>
        <time>2024-05-20T09:42:21Z</time>
      </trkpt>
      <trkpt lat="43.56929" lon="1.29512">
        <ele>181</ele>
        <time>2024-05-20T09:42:22Z</time>
      </trkpt>
      <trkpt lat="43.56928" lon="1.29512">
        <ele>181</ele>
        <time>2024-05-20T09:42:23Z</time>
      </trkpt>
      <trkpt lat="43.56928" lon="1.29513">
        <ele>181</ele>
        <time>2024-05-20T09:42:24Z</time>
      </trkpt>
      <trkpt lat="43.56927" lon="1.29513">
        <ele>181</ele>
        <time>2024-05-20T09:42:25Z</time>
      </trkpt>
      <trkpt lat="43.56925" lon="1.29514">
        <ele>181</ele>
        <time>2024-05-20T09:42:26Z</time>
      </trkpt>
      <trkpt lat="43.56925" lon="1.29514">
        <ele>180.8</ele>
        <time>2024-05-20T09:42:27Z</time>
      </trkpt>
      <trkpt lat="43.5692" lon="1.29517">
        <ele>180.8</ele>
        <time>2024-05-20T09:42:28Z</time>
      </trkpt>
      <trkpt lat="43.5692" lon="1.29517">
        <ele>180.8</ele>
        <time>2024-05-20T09:42:29Z</time>
      </trkpt>
      <trkpt lat="43.56913" lon="1.29523">
        <ele>180.8</ele>
        <time>2024-05-20T09:42:30Z</time>
      </trkpt>
      <trkpt lat="43.56907" lon="1.29528">
        <ele>180.8</ele>
        <time>2024-05-20T09:42:31Z</time>
      </trkpt>
      <trkpt lat="43.56902" lon="1.29534">
        <ele>180.6</ele>
        <time>2024-05-20T09:42:32Z</time>
      </trkpt>
      <trkpt lat="43.56895" lon="1.2954">
        <ele>180.6</ele>
        <time>2024-05-20T09:42:33Z</time>
      </trkpt>
      <trkpt lat="43.5689" lon="1.29545">
        <ele>180.6</ele>
        <time>2024-05-20T09:42:34Z</time>
      </trkpt>
      <trkpt lat="43.56883" lon="1.29553">
        <ele>180.6</ele>
        <time>2024-05-20T09:42:35Z</time>
      </trkpt>
      <trkpt lat="43.56875" lon="1.29561">
        <ele>180.2</ele>
        <time>2024-05-20T09:42:36Z</time>
      </trkpt>
      <trkpt lat="43.56868" lon="1.29568">
        <ele>180.2</ele>
        <time>2024-05-20T09:42:37Z</time>
      </trkpt>
      <trkpt lat="43.5686" lon="1.29575">
        <ele>180</ele>
        <time>2024-05-20T09:42:38Z</time>
      </trkpt>
      <trkpt lat="43.56853" lon="1.29581">
        <ele>179.8</ele>
        <time>2024-05-20T09:42:39Z</time>
      </trkpt>
      <trkpt lat="43.56845" lon="1.29587">
        <ele>179.8</ele>
        <time>2024-05-20T09:42:40Z</time>
      </trkpt>
      <trkpt lat="43.56837" lon="1.29594">
        <ele>179.8</ele>
        <time>2024-05-20T09:42:41Z</time>
      </trkpt>
      <trkpt lat="43.56829" lon="1.296">
        <ele>179.4</ele>
        <time>2024-05-20T09:42:42Z</time>
      </trkpt>
      <trkpt lat="43.56821" lon="1.29607">
        <ele>179.4</ele>
        <time>2024-05-20T09:42:43Z</time>
      </trkpt>
      <trkpt lat="43.56813" lon="1.29614">
        <ele>179.2</ele>
        <time>2024-05-20T09:42:44Z</time>
      </trkpt>
      <trkpt lat="43.56805" lon="1.2962">
        <ele>179.2</ele>
        <time>2024-05-20T09:42:45Z</time>
      </trkpt>
      <trkpt lat="43.56798" lon="1.29627">
        <ele>179.2</ele>
        <time>2024-05-20T09:42:46Z</time>
      </trkpt>
      <trkpt lat="43.5679" lon="1.29634">
        <ele>179</ele>
        <time>2024-05-20T09:42:47Z</time>
      </trkpt>
      <trkpt lat="43.56782" lon="1.2964">
        <ele>179</ele>
        <time>2024-05-20T09:42:48Z</time>
      </trkpt>
      <trkpt lat="43.56774" lon="1.29647">
        <ele>178.8</ele>
        <time>2024-05-20T09:42:49Z</time>
      </trkpt>
      <trkpt lat="43.56766" lon="1.29653">
        <ele>179</ele>
        <time>2024-05-20T09:42:50Z</time>
      </trkpt>
      <trkpt lat="43.56758" lon="1.29659">
        <ele>178.6</ele>
        <time>2024-05-20T09:42:51Z</time>
      </trkpt>
      <trkpt lat="43.5675" lon="1.29664">
        <ele>178.6</ele>
        <time>2024-05-20T09:42:52Z</time>
      </trkpt>
      <trkpt lat="43.56741" lon="1.2967">
        <ele>178.6</ele>
        <time>2024-05-20T09:42:53Z</time>
      </trkpt>
      <trkpt lat="43.56734" lon="1.29676">
        <ele>178.4</ele>
        <time>2024-05-20T09:42:54Z</time>
      </trkpt>
      <trkpt lat="43.56726" lon="1.29682">
        <ele>178.6</ele>
        <time>2024-05-20T09:42:55Z</time>
      </trkpt>
      <trkpt lat="43.56719" lon="1.29689">
        <ele>178.4</ele>
        <time>2024-05-20T09:42:56Z</time>
      </trkpt>
      <trkpt lat="43.56712" lon="1.29696">
        <ele>178.4</ele>
        <time>2024-05-20T09:42:57Z</time>
      </trkpt>
      <trkpt lat="43.56706" lon="1.29703">
        <ele>178.2</ele>
        <time>2024-05-20T09:42:58Z</time>
      </trkpt>
      <trkpt lat="43.567" lon="1.29708">
        <ele>178.4</ele>
        <time>2024-05-20T09:42:59Z</time>
      </trkpt>
      <trkpt lat="43.56692" lon="1.29715">
        <ele>178.2</ele>
        <time>2024-05-20T09:43:00Z</time>
      </trkpt>
      <trkpt lat="43.56684" lon="1.29722">
        <ele>178.2</ele>
        <time>2024-05-20T09:43:01Z</time>
      </trkpt>
      <trkpt lat="43.56677" lon="1.29728">
        <ele>178.2</ele>
        <time>2024-05-20T09:43:02Z</time>
      </trkpt>
      <trkpt lat="43.56671" lon="1.29733">
        <ele>178.4</ele>
        <time>2024-05-20T09:43:03Z</time>
      </trkpt>
      <trkpt lat="43.56662" lon="1.2974">
        <ele>178.2</ele>
        <time>2024-05-20T09:43:04Z</time>
      </trkpt>
      <trkpt lat="43.56655" lon="1.29747">
        <ele>178.2</ele>
        <time>2024-05-20T09:43:05Z</time>
      </trkpt>
      <trkpt lat="43.56647" lon="1.29753">
        <ele>178.2</ele>
        <time>2024-05-20T09:43:06Z</time>
      </trkpt>
      <trkpt lat="43.5664" lon="1.2976">
        <ele>178.2</ele>
        <time>2024-05-20T09:43:07Z</time>
      </trkpt>
      <trkpt lat="43.56633" lon="1.29766">
        <ele>178</ele>
        <time>2024-05-20T09:43:08Z</time>
      </trkpt>
      <trkpt lat="43.56626" lon="1.29772">
        <ele>178</ele>
        <time>2024-05-20T09:43:09Z</time>
      </trkpt>
      <trkpt lat="43.56618" lon="1.29778">
        <ele>178</ele>
        <time>2024-05-20T09:43:10Z</time>
      </trkpt>
      <trkpt lat="43.56611" lon="1.29784">
        <ele>178</ele>
        <time>2024-05-20T09:43:11Z</time>
      </trkpt>
      <trkpt lat="43.56602" lon="1.29788">
        <ele>178</ele>
        <time>2024-05-20T09:43:12Z</time>
      </trkpt>
      <trkpt lat="43.56594" lon="1.29793">
        <ele>178</ele>
        <time>2024-05-20T09:43:13Z</time>
      </trkpt>
      <trkpt lat="43.56587" lon="1.29798">
        <ele>178</ele>
        <time>2024-05-20T09:43:14Z</time>
      </trkpt>
      <trkpt lat="43.5658" lon="1.29804">
        <ele>178</ele>
        <time>2024-05-20T09:43:15Z</time>
      </trkpt>
      <trkpt lat="43.56573" lon="1.2981">
        <ele>178</ele>
        <time>2024-05-20T09:43:16Z</time>
      </trkpt>
      <trkpt lat="43.56566" lon="1.29817">
        <ele>178</ele>
        <time>2024-05-20T09:43:17Z</time>
      </trkpt>
      <trkpt lat="43.56559" lon="1.29824">
        <ele>177.8</ele>
        <time>2024-05-20T09:43:18Z</time>
      </trkpt>
      <trkpt lat="43.56552" lon="1.29829">
        <ele>177.8</ele>
        <time>2024-05-20T09:43:19Z</time>
      </trkpt>
      <trkpt lat="43.56544" lon="1.29834">
        <ele>177.8</ele>
        <time>2024-05-20T09:43:20Z</time>
      </trkpt>
      <trkpt lat="43.56536" lon="1.29838">
        <ele>177.8</ele>
        <time>2024-05-20T09:43:21Z</time>
      </trkpt>
      <trkpt lat="43.56536" lon="1.29838">
        <ele>177.6</ele>
        <time>2024-05-20T09:43:22Z</time>
      </trkpt>
      <trkpt lat="43.56525" lon="1.29833">
        <ele>177.4</ele>
        <time>2024-05-20T09:43:23Z</time>
      </trkpt>
      <trkpt lat="43.56519" lon="1.29833">
        <ele>177.4</ele>
        <time>2024-05-20T09:43:24Z</time>
      </trkpt>
      <trkpt lat="43.56515" lon="1.29836">
        <ele>177.2</ele>
        <time>2024-05-20T09:43:25Z</time>
      </trkpt>
      <trkpt lat="43.56515" lon="1.29843">
        <ele>177.2</ele>
        <time>2024-05-20T09:43:26Z</time>
      </trkpt>
      <trkpt lat="43.56515" lon="1.29843">
        <ele>177.2</ele>
        <time>2024-05-20T09:43:27Z</time>
      </trkpt>
      <trkpt lat="43.56519" lon="1.29857">
        <ele>177</ele>
        <time>2024-05-20T09:43:28Z</time>
      </trkpt>
      <trkpt lat="43.56521" lon="1.29867">
        <ele>177</ele>
        <time>2024-05-20T09:43:29Z</time>
      </trkpt>
      <trkpt lat="43.56523" lon="1.29876">
        <ele>176.8</ele>
        <time>2024-05-20T09:43:30Z</time>
      </trkpt>
      <trkpt lat="43.56526" lon="1.29885">
        <ele>176.8</ele>
        <time>2024-05-20T09:43:31Z</time>
      </trkpt>
      <trkpt lat="43.56529" lon="1.29894">
        <ele>176.6</ele>
        <time>2024-05-20T09:43:32Z</time>
      </trkpt>
      <trkpt lat="43.56531" lon="1.29903">
        <ele>176.2</ele>
        <time>2024-05-20T09:43:33Z</time>
      </trkpt>
      <trkpt lat="43.56533" lon="1.29912">
        <ele>176</ele>
        <time>2024-05-20T09:43:34Z</time>
      </trkpt>
      <trkpt lat="43.56536" lon="1.29922">
        <ele>176</ele>
        <time>2024-05-20T09:43:35Z</time>
      </trkpt>
      <trkpt lat="43.56538" lon="1.29932">
        <ele>176</ele>
        <time>2024-05-20T09:43:36Z</time>
      </trkpt>
      <trkpt lat="43.56541" lon="1.29943">
        <ele>175.8</ele>
        <time>2024-05-20T09:43:37Z</time>
      </trkpt>
      <trkpt lat="43.56544" lon="1.29953">
        <ele>175.8</ele>
        <time>2024-05-20T09:43:38Z</time>
      </trkpt>
      <trkpt lat="43.56547" lon="1.29963">
        <ele>175.8</ele>
        <time>2024-05-20T09:43:39Z</time>
      </trkpt>
      <trkpt lat="43.5655" lon="1.29973">
        <ele>175.8</ele>
        <time>2024-05-20T09:43:40Z</time>
      </trkpt>
      <trkpt lat="43.56553" lon="1.29983">
        <ele>175.8</ele>
        <time>2024-05-20T09:43:41Z</time>
      </trkpt>
      <trkpt lat="43.56556" lon="1.29994">
        <ele>175.8</ele>
        <time>2024-05-20T09:43:42Z</time>
      </trkpt>
      <trkpt lat="43.56559" lon="1.30004">
        <ele>175.8</ele>
        <time>2024-05-20T09:43:43Z</time>
      </trkpt>
      <trkpt lat="43.56562" lon="1.30014">
        <ele>175.8</ele>
        <time>2024-05-20T09:43:44Z</time>
      </trkpt>
      <trkpt lat="43.56566" lon="1.30023">
        <ele>175.8</ele>
        <time>2024-05-20T09:43:45Z</time>
      </trkpt>
      <trkpt lat="43.5657" lon="1.30032">
        <ele>175.8</ele>
        <time>2024-05-20T09:43:46Z</time>
      </trkpt>
      <trkpt lat="43.56574" lon="1.30041">
        <ele>175.8</ele>
        <time>2024-05-20T09:43:47Z</time>
      </trkpt>
      <trkpt lat="43.56579" lon="1.3005">
        <ele>175.8</ele>
        <time>2024-05-20T09:43:48Z</time>
      </trkpt>
      <trkpt lat="43.56583" lon="1.30059">
        <ele>175.8</ele>
        <time>2024-05-20T09:43:49Z</time>
      </trkpt>
      <trkpt lat="43.56588" lon="1.30068">
        <ele>175.8</ele>
        <time>2024-05-20T09:43:50Z</time>
      </trkpt>
      <trkpt lat="43.56592" lon="1.30078">
        <ele>175.6</ele>
        <time>2024-05-20T09:43:51Z</time>
      </trkpt>
      <trkpt lat="43.56596" lon="1.30088">
        <ele>175.6</ele>
        <time>2024-05-20T09:43:52Z</time>
      </trkpt>
      <trkpt lat="43.566" lon="1.30098">
        <ele>175.6</ele>
        <time>2024-05-20T09:43:53Z</time>
      </trkpt>
      <trkpt lat="43.56604" lon="1.30108">
        <ele>175.6</ele>
        <time>2024-05-20T09:43:54Z</time>
      </trkpt>
      <trkpt lat="43.56608" lon="1.30117">
        <ele>175.6</ele>
        <time>2024-05-20T09:43:55Z</time>
      </trkpt>
      <trkpt lat="43.56611" lon="1.30128">
        <ele>175.4</ele>
        <time>2024-05-20T09:43:56Z</time>
      </trkpt>
      <trkpt lat="43.56613" lon="1.30138">
        <ele>175.4</ele>
        <time>2024-05-20T09:43:57Z</time>
      </trkpt>
      <trkpt lat="43.56614" lon="1.3015">
        <ele>175.4</ele>
        <time>2024-05-20T09:43:58Z</time>
      </trkpt>
      <trkpt lat="43.56615" lon="1.30161">
        <ele>175.4</ele>
        <time>2024-05-20T09:43:59Z</time>
      </trkpt>
      <trkpt lat="43.56616" lon="1.30173">
        <ele>175.4</ele>
        <time>2024-05-20T09:44:00Z</time>
      </trkpt>
      <trkpt lat="43.56618" lon="1.30185">
        <ele>175.4</ele>
        <time>2024-05-20T09:44:01Z</time>
      </trkpt>
      <trkpt lat="43.56619" lon="1.30197">
        <ele>175.4</ele>
        <time>2024-05-20T09:44:02Z</time>
      </trkpt>
      <trkpt lat="43.56621" lon="1.30208">
        <ele>175.4</ele>
        <time>2024-05-20T09:44:03Z</time>
      </trkpt>
      <trkpt lat="43.56622" lon="1.3022">
        <ele>175.4</ele>
        <time>2024-05-20T09:44:04Z</time>
      </trkpt>
      <trkpt lat="43.56624" lon="1.30232">
        <ele>175.4</ele>
        <time>2024-05-20T09:44:05Z</time>
      </trkpt>
      <trkpt lat="43.56625" lon="1.30244">
        <ele>175.4</ele>
        <time>2024-05-20T09:44:06Z</time>
      </trkpt>
      <trkpt lat="43.56626" lon="1.30256">
        <ele>175.4</ele>
        <time>2024-05-20T09:44:07Z</time>
      </trkpt>
      <trkpt lat="43.56626" lon="1.30267">
        <ele>175.4</ele>
        <time>2024-05-20T09:44:08Z</time>
      </trkpt>
      <trkpt lat="43.56628" lon="1.30278">
        <ele>175.4</ele>
        <time>2024-05-20T09:44:09Z</time>
      </trkpt>
      <trkpt lat="43.56628" lon="1.30287">
        <ele>175.4</ele>
        <time>2024-05-20T09:44:10Z</time>
      </trkpt>
      <trkpt lat="43.56629" lon="1.30301">
        <ele>175.4</ele>
        <time>2024-05-20T09:44:11Z</time>
      </trkpt>
      <trkpt lat="43.56628" lon="1.30312">
        <ele>175.4</ele>
        <time>2024-05-20T09:44:12Z</time>
      </trkpt>
      <trkpt lat="43.56628" lon="1.30323">
        <ele>175.4</ele>
        <time>2024-05-20T09:44:13Z</time>
      </trkpt>
      <trkpt lat="43.56627" lon="1.30333">
        <ele>175.4</ele>
        <time>2024-05-20T09:44:14Z</time>
      </trkpt>
      <trkpt lat="43.56626" lon="1.30343">
        <ele>175.4</ele>
        <time>2024-05-20T09:44:15Z</time>
      </trkpt>
      <trkpt lat="43.56625" lon="1.30351">
        <ele>175.4</ele>
        <time>2024-05-20T09:44:16Z</time>
      </trkpt>
      <trkpt lat="43.56624" lon="1.30362">
        <ele>175.4</ele>
        <time>2024-05-20T09:44:17Z</time>
      </trkpt>
      <trkpt lat="43.56623" lon="1.30369">
        <ele>175.4</ele>
        <time>2024-05-20T09:44:18Z</time>
      </trkpt>
      <trkpt lat="43.56624" lon="1.30376">
        <ele>175.4</ele>
        <time>2024-05-20T09:44:19Z</time>
      </trkpt>
      <trkpt lat="43.56625" lon="1.30383">
        <ele>175.4</ele>
        <time>2024-05-20T09:44:20Z</time>
      </trkpt>
      <trkpt lat="43.56628" lon="1.30389">
        <ele>175.4</ele>
        <time>2024-05-20T09:44:21Z</time>
      </trkpt>
      <trkpt lat="43.56631" lon="1.30396">
        <ele>175.2</ele>
        <time>2024-05-20T09:44:22Z</time>
      </trkpt>
      <trkpt lat="43.56633" lon="1.30404">
        <ele>175.2</ele>
        <time>2024-05-20T09:44:23Z</time>
      </trkpt>
      <trkpt lat="43.56635" lon="1.30412">
        <ele>175</ele>
        <time>2024-05-20T09:44:24Z</time>
      </trkpt>
      <trkpt lat="43.56636" lon="1.30421">
        <ele>174.8</ele>
        <time>2024-05-20T09:44:25Z</time>
      </trkpt>
      <trkpt lat="43.56638" lon="1.3043">
        <ele>174.8</ele>
        <time>2024-05-20T09:44:26Z</time>
      </trkpt>
      <trkpt lat="43.5664" lon="1.30438">
        <ele>174.6</ele>
        <time>2024-05-20T09:44:27Z</time>
      </trkpt>
      <trkpt lat="43.56642" lon="1.30447">
        <ele>174.6</ele>
        <time>2024-05-20T09:44:28Z</time>
      </trkpt>
      <trkpt lat="43.56645" lon="1.30456">
        <ele>174.4</ele>
        <time>2024-05-20T09:44:29Z</time>
      </trkpt>
      <trkpt lat="43.56648" lon="1.30465">
        <ele>174.4</ele>
        <time>2024-05-20T09:44:30Z</time>
      </trkpt>
      <trkpt lat="43.56651" lon="1.30474">
        <ele>174.2</ele>
        <time>2024-05-20T09:44:31Z</time>
      </trkpt>
      <trkpt lat="43.56654" lon="1.30483">
        <ele>174.2</ele>
        <time>2024-05-20T09:44:32Z</time>
      </trkpt>
      <trkpt lat="43.56657" lon="1.30491">
        <ele>174.2</ele>
        <time>2024-05-20T09:44:33Z</time>
      </trkpt>
      <trkpt lat="43.5666" lon="1.305">
        <ele>174.2</ele>
        <time>2024-05-20T09:44:34Z</time>
      </trkpt>
      <trkpt lat="43.56664" lon="1.30509">
        <ele>174.2</ele>
        <time>2024-05-20T09:44:35Z</time>
      </trkpt>
      <trkpt lat="43.56667" lon="1.30518">
        <ele>174</ele>
        <time>2024-05-20T09:44:36Z</time>
      </trkpt>
      <trkpt lat="43.5667" lon="1.30526">
        <ele>174</ele>
        <time>2024-05-20T09:44:37Z</time>
      </trkpt>
      <trkpt lat="43.56673" lon="1.30535">
        <ele>174</ele>
        <time>2024-05-20T09:44:38Z</time>
      </trkpt>
      <trkpt lat="43.56676" lon="1.30544">
        <ele>174</ele>
        <time>2024-05-20T09:44:39Z</time>
      </trkpt>
      <trkpt lat="43.56679" lon="1.30551">
        <ele>174.2</ele>
        <time>2024-05-20T09:44:40Z</time>
      </trkpt>
      <trkpt lat="43.56681" lon="1.30559">
        <ele>174.4</ele>
        <time>2024-05-20T09:44:41Z</time>
      </trkpt>
      <trkpt lat="43.56684" lon="1.30571">
        <ele>174.6</ele>
        <time>2024-05-20T09:44:42Z</time>
      </trkpt>
      <trkpt lat="43.56687" lon="1.30581">
        <ele>174.8</ele>
        <time>2024-05-20T09:44:43Z</time>
      </trkpt>
      <trkpt lat="43.56689" lon="1.3059">
        <ele>174.8</ele>
        <time>2024-05-20T09:44:44Z</time>
      </trkpt>
      <trkpt lat="43.5669" lon="1.30598">
        <ele>175</ele>
        <time>2024-05-20T09:44:45Z</time>
      </trkpt>
      <trkpt lat="43.56692" lon="1.3061">
        <ele>175</ele>
        <time>2024-05-20T09:44:46Z</time>
      </trkpt>
      <trkpt lat="43.56694" lon="1.3062">
        <ele>175.2</ele>
        <time>2024-05-20T09:44:47Z</time>
      </trkpt>
      <trkpt lat="43.56695" lon="1.3063">
        <ele>175.4</ele>
        <time>2024-05-20T09:44:48Z</time>
      </trkpt>
      <trkpt lat="43.56697" lon="1.3064">
        <ele>175.6</ele>
        <time>2024-05-20T09:44:49Z</time>
      </trkpt>
      <trkpt lat="43.56699" lon="1.3065">
        <ele>175.8</ele>
        <time>2024-05-20T09:44:50Z</time>
      </trkpt>
      <trkpt lat="43.567" lon="1.3066">
        <ele>175.8</ele>
        <time>2024-05-20T09:44:51Z</time>
      </trkpt>
      <trkpt lat="43.56702" lon="1.3067">
        <ele>175.8</ele>
        <time>2024-05-20T09:44:52Z</time>
      </trkpt>
      <trkpt lat="43.56704" lon="1.3068">
        <ele>176</ele>
        <time>2024-05-20T09:44:53Z</time>
      </trkpt>
      <trkpt lat="43.56705" lon="1.30688">
        <ele>176</ele>
        <time>2024-05-20T09:44:54Z</time>
      </trkpt>
      <trkpt lat="43.56705" lon="1.30699">
        <ele>176</ele>
        <time>2024-05-20T09:44:55Z</time>
      </trkpt>
      <trkpt lat="43.56702" lon="1.30707">
        <ele>176</ele>
        <time>2024-05-20T09:44:56Z</time>
      </trkpt>
      <trkpt lat="43.56698" lon="1.30714">
        <ele>176</ele>
        <time>2024-05-20T09:44:57Z</time>
      </trkpt>
      <trkpt lat="43.56693" lon="1.30718">
        <ele>176</ele>
        <time>2024-05-20T09:44:58Z</time>
      </trkpt>
      <trkpt lat="43.56687" lon="1.30721">
        <ele>176</ele>
        <time>2024-05-20T09:44:59Z</time>
      </trkpt>
      <trkpt lat="43.5668" lon="1.30725">
        <ele>176</ele>
        <time>2024-05-20T09:45:00Z</time>
      </trkpt>
      <trkpt lat="43.56673" lon="1.30728">
        <ele>176</ele>
        <time>2024-05-20T09:45:01Z</time>
      </trkpt>
      <trkpt lat="43.56664" lon="1.30733">
        <ele>176</ele>
        <time>2024-05-20T09:45:02Z</time>
      </trkpt>
      <trkpt lat="43.56656" lon="1.30737">
        <ele>175.8</ele>
        <time>2024-05-20T09:45:03Z</time>
      </trkpt>
      <trkpt lat="43.56649" lon="1.30742">
        <ele>175.8</ele>
        <time>2024-05-20T09:45:04Z</time>
      </trkpt>
      <trkpt lat="43.56642" lon="1.30746">
        <ele>175.8</ele>
        <time>2024-05-20T09:45:05Z</time>
      </trkpt>
      <trkpt lat="43.56635" lon="1.30751">
        <ele>175.8</ele>
        <time>2024-05-20T09:45:06Z</time>
      </trkpt>
      <trkpt lat="43.56627" lon="1.30757">
        <ele>175.8</ele>
        <time>2024-05-20T09:45:07Z</time>
      </trkpt>
      <trkpt lat="43.56621" lon="1.30762">
        <ele>175.4</ele>
        <time>2024-05-20T09:45:08Z</time>
      </trkpt>
      <trkpt lat="43.56613" lon="1.30767">
        <ele>175.2</ele>
        <time>2024-05-20T09:45:09Z</time>
      </trkpt>
      <trkpt lat="43.56606" lon="1.30772">
        <ele>175</ele>
        <time>2024-05-20T09:45:10Z</time>
      </trkpt>
      <trkpt lat="43.56599" lon="1.30777">
        <ele>174.8</ele>
        <time>2024-05-20T09:45:11Z</time>
      </trkpt>
      <trkpt lat="43.56593" lon="1.30783">
        <ele>174.8</ele>
        <time>2024-05-20T09:45:12Z</time>
      </trkpt>
      <trkpt lat="43.56587" lon="1.30788">
        <ele>174.8</ele>
        <time>2024-05-20T09:45:13Z</time>
      </trkpt>
      <trkpt lat="43.56582" lon="1.30793">
        <ele>174.6</ele>
        <time>2024-05-20T09:45:14Z</time>
      </trkpt>
      <trkpt lat="43.56582" lon="1.30793">
        <ele>174.6</ele>
        <time>2024-05-20T09:45:15Z</time>
      </trkpt>
      <trkpt lat="43.56575" lon="1.30803">
        <ele>174.6</ele>
        <time>2024-05-20T09:45:16Z</time>
      </trkpt>
      <trkpt lat="43.56572" lon="1.30809">
        <ele>174.4</ele>
        <time>2024-05-20T09:45:17Z</time>
      </trkpt>
      <trkpt lat="43.56571" lon="1.30815">
        <ele>174.4</ele>
        <time>2024-05-20T09:45:18Z</time>
      </trkpt>
      <trkpt lat="43.56572" lon="1.30819">
        <ele>174.4</ele>
        <time>2024-05-20T09:45:19Z</time>
      </trkpt>
      <trkpt lat="43.56575" lon="1.30823">
        <ele>174.4</ele>
        <time>2024-05-20T09:45:20Z</time>
      </trkpt>
      <trkpt lat="43.56578" lon="1.30827">
        <ele>174.4</ele>
        <time>2024-05-20T09:45:21Z</time>
      </trkpt>
      <trkpt lat="43.56581" lon="1.30832">
        <ele>174.4</ele>
        <time>2024-05-20T09:45:22Z</time>
      </trkpt>
      <trkpt lat="43.56583" lon="1.30836">
        <ele>174.4</ele>
        <time>2024-05-20T09:45:23Z</time>
      </trkpt>
      <trkpt lat="43.56585" lon="1.3084">
        <ele>174.6</ele>
        <time>2024-05-20T09:45:24Z</time>
      </trkpt>
      <trkpt lat="43.56586" lon="1.30842">
        <ele>174.6</ele>
        <time>2024-05-20T09:45:25Z</time>
      </trkpt>
      <trkpt lat="43.56589" lon="1.30842">
        <ele>174.6</ele>
        <time>2024-05-20T09:45:26Z</time>
      </trkpt>
      <trkpt lat="43.5659" lon="1.3084">
        <ele>174.6</ele>
        <time>2024-05-20T09:45:27Z</time>
      </trkpt>
      <trkpt lat="43.5659" lon="1.30838">
        <ele>174.6</ele>
        <time>2024-05-20T09:45:28Z</time>
      </trkpt>
      <trkpt lat="43.5659" lon="1.30834">
        <ele>174.6</ele>
        <time>2024-05-20T09:45:29Z</time>
      </trkpt>
      <trkpt lat="43.5659" lon="1.30831">
        <ele>174.6</ele>
        <time>2024-05-20T09:45:30Z</time>
      </trkpt>
      <trkpt lat="43.5659" lon="1.30829">
        <ele>174.8</ele>
        <time>2024-05-20T09:45:31Z</time>
      </trkpt>
      <trkpt lat="43.56589" lon="1.30827">
        <ele>174.8</ele>
        <time>2024-05-20T09:45:32Z</time>
      </trkpt>
      <trkpt lat="43.56589" lon="1.30827">
        <ele>174.8</ele>
        <time>2024-05-20T09:45:33Z</time>
      </trkpt>
      <trkpt lat="43.56589" lon="1.30827">
        <ele>174.8</ele>
        <time>2024-05-20T09:45:34Z</time>
      </trkpt>
      <trkpt lat="43.56589" lon="1.30827">
        <ele>174.8</ele>
        <time>2024-05-20T09:45:35Z</time>
      </trkpt>
      <trkpt lat="43.56589" lon="1.30827">
        <ele>174.8</ele>
        <time>2024-05-20T09:45:36Z</time>
      </trkpt>
      <trkpt lat="43.56587" lon="1.30825">
        <ele>175.6</ele>
        <time>2024-05-20T10:25:09Z</time>
      </trkpt>
      <trkpt lat="43.56586" lon="1.30823">
        <ele>175.6</ele>
        <time>2024-05-20T10:25:10Z</time>
      </trkpt>
      <trkpt lat="43.56586" lon="1.30821">
        <ele>175.6</ele>
        <time>2024-05-20T10:25:11Z</time>
      </trkpt>
      <trkpt lat="43.56585" lon="1.30819">
        <ele>175.6</ele>
        <time>2024-05-20T10:25:12Z</time>
      </trkpt>
      <trkpt lat="43.56585" lon="1.30818">
        <ele>175.6</ele>
        <time>2024-05-20T10:25:13Z</time>
      </trkpt>
      <trkpt lat="43.56584" lon="1.30816">
        <ele>175.6</ele>
        <time>2024-05-20T10:25:14Z</time>
      </trkpt>
      <trkpt lat="43.56583" lon="1.30814">
        <ele>175.6</ele>
        <time>2024-05-20T10:25:15Z</time>
      </trkpt>
      <trkpt lat="43.56581" lon="1.30812">
        <ele>175.6</ele>
        <time>2024-05-20T10:25:16Z</time>
      </trkpt>
      <trkpt lat="43.5658" lon="1.30808">
        <ele>175.6</ele>
        <time>2024-05-20T10:25:17Z</time>
      </trkpt>
      <trkpt lat="43.56581" lon="1.30805">
        <ele>175.4</ele>
        <time>2024-05-20T10:25:18Z</time>
      </trkpt>
      <trkpt lat="43.56582" lon="1.30801">
        <ele>175.6</ele>
        <time>2024-05-20T10:25:19Z</time>
      </trkpt>
      <trkpt lat="43.56584" lon="1.30797">
        <ele>175.6</ele>
        <time>2024-05-20T10:25:20Z</time>
      </trkpt>
      <trkpt lat="43.56587" lon="1.30794">
        <ele>175.6</ele>
        <time>2024-05-20T10:25:21Z</time>
      </trkpt>
      <trkpt lat="43.56591" lon="1.30791">
        <ele>175.6</ele>
        <time>2024-05-20T10:25:22Z</time>
      </trkpt>
      <trkpt lat="43.56595" lon="1.30788">
        <ele>175.6</ele>
        <time>2024-05-20T10:25:23Z</time>
      </trkpt>
      <trkpt lat="43.56599" lon="1.30786">
        <ele>175.6</ele>
        <time>2024-05-20T10:25:24Z</time>
      </trkpt>
      <trkpt lat="43.56603" lon="1.30782">
        <ele>175.6</ele>
        <time>2024-05-20T10:25:25Z</time>
      </trkpt>
      <trkpt lat="43.56608" lon="1.30779">
        <ele>175.6</ele>
        <time>2024-05-20T10:25:26Z</time>
      </trkpt>
      <trkpt lat="43.56612" lon="1.30776">
        <ele>175.6</ele>
        <time>2024-05-20T10:25:27Z</time>
      </trkpt>
      <trkpt lat="43.56617" lon="1.30774">
        <ele>175.8</ele>
        <time>2024-05-20T10:25:28Z</time>
      </trkpt>
      <trkpt lat="43.56621" lon="1.30771">
        <ele>175.8</ele>
        <time>2024-05-20T10:25:29Z</time>
      </trkpt>
      <trkpt lat="43.56625" lon="1.30768">
        <ele>175.8</ele>
        <time>2024-05-20T10:25:30Z</time>
      </trkpt>
      <trkpt lat="43.5663" lon="1.30765">
        <ele>175.8</ele>
        <time>2024-05-20T10:25:31Z</time>
      </trkpt>
      <trkpt lat="43.56634" lon="1.30762">
        <ele>175.8</ele>
        <time>2024-05-20T10:25:32Z</time>
      </trkpt>
      <trkpt lat="43.56639" lon="1.3076">
        <ele>176</ele>
        <time>2024-05-20T10:25:33Z</time>
      </trkpt>
      <trkpt lat="43.56644" lon="1.30757">
        <ele>176.2</ele>
        <time>2024-05-20T10:25:34Z</time>
      </trkpt>
      <trkpt lat="43.56649" lon="1.30754">
        <ele>176.4</ele>
        <time>2024-05-20T10:25:35Z</time>
      </trkpt>
      <trkpt lat="43.56654" lon="1.30751">
        <ele>176.6</ele>
        <time>2024-05-20T10:25:36Z</time>
      </trkpt>
      <trkpt lat="43.56659" lon="1.30748">
        <ele>176.8</ele>
        <time>2024-05-20T10:25:37Z</time>
      </trkpt>
      <trkpt lat="43.56664" lon="1.30745">
        <ele>177</ele>
        <time>2024-05-20T10:25:38Z</time>
      </trkpt>
      <trkpt lat="43.56669" lon="1.30741">
        <ele>177</ele>
        <time>2024-05-20T10:25:39Z</time>
      </trkpt>
      <trkpt lat="43.56674" lon="1.30738">
        <ele>177.2</ele>
        <time>2024-05-20T10:25:40Z</time>
      </trkpt>
      <trkpt lat="43.56679" lon="1.30735">
        <ele>177.2</ele>
        <time>2024-05-20T10:25:41Z</time>
      </trkpt>
      <trkpt lat="43.56683" lon="1.30732">
        <ele>177.4</ele>
        <time>2024-05-20T10:25:42Z</time>
      </trkpt>
      <trkpt lat="43.56688" lon="1.30729">
        <ele>177.6</ele>
        <time>2024-05-20T10:25:43Z</time>
      </trkpt>
      <trkpt lat="43.56692" lon="1.30727">
        <ele>177.6</ele>
        <time>2024-05-20T10:25:44Z</time>
      </trkpt>
      <trkpt lat="43.56697" lon="1.30724">
        <ele>177.8</ele>
        <time>2024-05-20T10:25:45Z</time>
      </trkpt>
      <trkpt lat="43.56701" lon="1.30723">
        <ele>178</ele>
        <time>2024-05-20T10:25:46Z</time>
      </trkpt>
      <trkpt lat="43.56704" lon="1.30725">
        <ele>178.2</ele>
        <time>2024-05-20T10:25:47Z</time>
      </trkpt>
      <trkpt lat="43.56707" lon="1.30726">
        <ele>178.4</ele>
        <time>2024-05-20T10:25:48Z</time>
      </trkpt>
      <trkpt lat="43.56709" lon="1.30726">
        <ele>178.4</ele>
        <time>2024-05-20T10:25:49Z</time>
      </trkpt>
      <trkpt lat="43.5671" lon="1.30726">
        <ele>178.6</ele>
        <time>2024-05-20T10:25:50Z</time>
      </trkpt>
      <trkpt lat="43.56712" lon="1.30724">
        <ele>178.6</ele>
        <time>2024-05-20T10:25:51Z</time>
      </trkpt>
      <trkpt lat="43.56714" lon="1.30722">
        <ele>178.8</ele>
        <time>2024-05-20T10:25:52Z</time>
      </trkpt>
      <trkpt lat="43.56715" lon="1.30718">
        <ele>178.8</ele>
        <time>2024-05-20T10:25:53Z</time>
      </trkpt>
      <trkpt lat="43.56717" lon="1.30714">
        <ele>178.8</ele>
        <time>2024-05-20T10:25:54Z</time>
      </trkpt>
      <trkpt lat="43.56719" lon="1.3071">
        <ele>178.8</ele>
        <time>2024-05-20T10:25:55Z</time>
      </trkpt>
      <trkpt lat="43.56721" lon="1.30706">
        <ele>178.8</ele>
        <time>2024-05-20T10:25:56Z</time>
      </trkpt>
      <trkpt lat="43.56723" lon="1.30701">
        <ele>178.8</ele>
        <time>2024-05-20T10:25:57Z</time>
      </trkpt>
      <trkpt lat="43.56724" lon="1.30696">
        <ele>178.6</ele>
        <time>2024-05-20T10:25:58Z</time>
      </trkpt>
      <trkpt lat="43.56724" lon="1.30691">
        <ele>178.6</ele>
        <time>2024-05-20T10:25:59Z</time>
      </trkpt>
      <trkpt lat="43.56725" lon="1.30686">
        <ele>178.6</ele>
        <time>2024-05-20T10:26:00Z</time>
      </trkpt>
      <trkpt lat="43.56727" lon="1.30682">
        <ele>178.6</ele>
        <time>2024-05-20T10:26:01Z</time>
      </trkpt>
      <trkpt lat="43.56731" lon="1.30679">
        <ele>178.6</ele>
        <time>2024-05-20T10:26:02Z</time>
      </trkpt>
      <trkpt lat="43.56735" lon="1.30677">
        <ele>178.6</ele>
        <time>2024-05-20T10:26:03Z</time>
      </trkpt>
      <trkpt lat="43.56739" lon="1.30674">
        <ele>178.6</ele>
        <time>2024-05-20T10:26:04Z</time>
      </trkpt>
      <trkpt lat="43.56744" lon="1.30672">
        <ele>178.6</ele>
        <time>2024-05-20T10:26:05Z</time>
      </trkpt>
      <trkpt lat="43.56749" lon="1.30669">
        <ele>178.6</ele>
        <time>2024-05-20T10:26:06Z</time>
      </trkpt>
      <trkpt lat="43.56754" lon="1.30667">
        <ele>178.6</ele>
        <time>2024-05-20T10:26:07Z</time>
      </trkpt>
      <trkpt lat="43.56759" lon="1.30664">
        <ele>178.6</ele>
        <time>2024-05-20T10:26:08Z</time>
      </trkpt>
      <trkpt lat="43.56764" lon="1.30661">
        <ele>178.6</ele>
        <time>2024-05-20T10:26:09Z</time>
      </trkpt>
      <trkpt lat="43.56769" lon="1.30658">
        <ele>178.6</ele>
        <time>2024-05-20T10:26:10Z</time>
      </trkpt>
      <trkpt lat="43.56774" lon="1.30655">
        <ele>178.6</ele>
        <time>2024-05-20T10:26:11Z</time>
      </trkpt>
      <trkpt lat="43.56779" lon="1.30652">
        <ele>178.6</ele>
        <time>2024-05-20T10:26:12Z</time>
      </trkpt>
      <trkpt lat="43.56785" lon="1.30648">
        <ele>178.8</ele>
        <time>2024-05-20T10:26:13Z</time>
      </trkpt>
      <trkpt lat="43.5679" lon="1.30645">
        <ele>178.8</ele>
        <time>2024-05-20T10:26:14Z</time>
      </trkpt>
      <trkpt lat="43.56795" lon="1.30642">
        <ele>179</ele>
        <time>2024-05-20T10:26:15Z</time>
      </trkpt>
      <trkpt lat="43.56801" lon="1.30638">
        <ele>179</ele>
        <time>2024-05-20T10:26:16Z</time>
      </trkpt>
      <trkpt lat="43.56806" lon="1.30634">
        <ele>179.2</ele>
        <time>2024-05-20T10:26:17Z</time>
      </trkpt>
      <trkpt lat="43.56811" lon="1.30631">
        <ele>179.2</ele>
        <time>2024-05-20T10:26:18Z</time>
      </trkpt>
      <trkpt lat="43.56816" lon="1.30627">
        <ele>179.2</ele>
        <time>2024-05-20T10:26:19Z</time>
      </trkpt>
      <trkpt lat="43.56822" lon="1.30622">
        <ele>179.4</ele>
        <time>2024-05-20T10:26:20Z</time>
      </trkpt>
      <trkpt lat="43.56826" lon="1.30617">
        <ele>179.4</ele>
        <time>2024-05-20T10:26:21Z</time>
      </trkpt>
      <trkpt lat="43.56831" lon="1.30613">
        <ele>179.4</ele>
        <time>2024-05-20T10:26:22Z</time>
      </trkpt>
      <trkpt lat="43.56836" lon="1.3061">
        <ele>179.4</ele>
        <time>2024-05-20T10:26:23Z</time>
      </trkpt>
      <trkpt lat="43.5684" lon="1.30606">
        <ele>179.4</ele>
        <time>2024-05-20T10:26:24Z</time>
      </trkpt>
      <trkpt lat="43.56845" lon="1.30603">
        <ele>179.6</ele>
        <time>2024-05-20T10:26:25Z</time>
      </trkpt>
      <trkpt lat="43.5685" lon="1.30599">
        <ele>179.6</ele>
        <time>2024-05-20T10:26:26Z</time>
      </trkpt>
      <trkpt lat="43.56855" lon="1.30596">
        <ele>179.6</ele>
        <time>2024-05-20T10:26:27Z</time>
      </trkpt>
      <trkpt lat="43.56859" lon="1.30593">
        <ele>179.6</ele>
        <time>2024-05-20T10:26:28Z</time>
      </trkpt>
      <trkpt lat="43.56863" lon="1.30589">
        <ele>179.6</ele>
        <time>2024-05-20T10:26:29Z</time>
      </trkpt>
      <trkpt lat="43.56867" lon="1.30586">
        <ele>179.4</ele>
        <time>2024-05-20T10:26:30Z</time>
      </trkpt>
      <trkpt lat="43.56872" lon="1.30583">
        <ele>179.4</ele>
        <time>2024-05-20T10:26:31Z</time>
      </trkpt>
      <trkpt lat="43.56877" lon="1.3058">
        <ele>179.2</ele>
        <time>2024-05-20T10:26:32Z</time>
      </trkpt>
      <trkpt lat="43.56881" lon="1.30576">
        <ele>179.2</ele>
        <time>2024-05-20T10:26:33Z</time>
      </trkpt>
      <trkpt lat="43.56886" lon="1.30572">
        <ele>179.2</ele>
        <time>2024-05-20T10:26:34Z</time>
      </trkpt>
      <trkpt lat="43.5689" lon="1.30569">
        <ele>179.2</ele>
        <time>2024-05-20T10:26:35Z</time>
      </trkpt>
      <trkpt lat="43.56895" lon="1.30566">
        <ele>179.2</ele>
        <time>2024-05-20T10:26:36Z</time>
      </trkpt>
      <trkpt lat="43.56899" lon="1.30564">
        <ele>179.2</ele>
        <time>2024-05-20T10:26:37Z</time>
      </trkpt>
      <trkpt lat="43.56902" lon="1.30565">
        <ele>179.2</ele>
        <time>2024-05-20T10:26:38Z</time>
      </trkpt>
      <trkpt lat="43.56905" lon="1.30569">
        <ele>179.2</ele>
        <time>2024-05-20T10:26:39Z</time>
      </trkpt>
      <trkpt lat="43.56906" lon="1.30575">
        <ele>179.2</ele>
        <time>2024-05-20T10:26:40Z</time>
      </trkpt>
      <trkpt lat="43.56908" lon="1.3058">
        <ele>179.2</ele>
        <time>2024-05-20T10:26:41Z</time>
      </trkpt>
      <trkpt lat="43.56911" lon="1.30586">
        <ele>179.2</ele>
        <time>2024-05-20T10:26:42Z</time>
      </trkpt>
      <trkpt lat="43.56913" lon="1.30591">
        <ele>179.2</ele>
        <time>2024-05-20T10:26:43Z</time>
      </trkpt>
      <trkpt lat="43.56916" lon="1.30594">
        <ele>179.2</ele>
        <time>2024-05-20T10:26:44Z</time>
      </trkpt>
      <trkpt lat="43.56919" lon="1.30595">
        <ele>179.2</ele>
        <time>2024-05-20T10:26:45Z</time>
      </trkpt>
      <trkpt lat="43.56922" lon="1.30594">
        <ele>179.2</ele>
        <time>2024-05-20T10:26:46Z</time>
      </trkpt>
      <trkpt lat="43.56924" lon="1.30594">
        <ele>179</ele>
        <time>2024-05-20T10:26:47Z</time>
      </trkpt>
      <trkpt lat="43.56925" lon="1.30592">
        <ele>179</ele>
        <time>2024-05-20T10:26:48Z</time>
      </trkpt>
      <trkpt lat="43.56927" lon="1.30591">
        <ele>178.8</ele>
        <time>2024-05-20T10:26:49Z</time>
      </trkpt>
      <trkpt lat="43.56929" lon="1.3059">
        <ele>178.8</ele>
        <time>2024-05-20T10:26:50Z</time>
      </trkpt>
      <trkpt lat="43.56932" lon="1.30589">
        <ele>178.8</ele>
        <time>2024-05-20T10:26:51Z</time>
      </trkpt>
      <trkpt lat="43.56935" lon="1.3059">
        <ele>178.8</ele>
        <time>2024-05-20T10:26:52Z</time>
      </trkpt>
      <trkpt lat="43.56938" lon="1.30589">
        <ele>178.6</ele>
        <time>2024-05-20T10:26:53Z</time>
      </trkpt>
      <trkpt lat="43.56939" lon="1.30586">
        <ele>178.6</ele>
        <time>2024-05-20T10:26:54Z</time>
      </trkpt>
      <trkpt lat="43.56941" lon="1.30582">
        <ele>178.6</ele>
        <time>2024-05-20T10:26:55Z</time>
      </trkpt>
      <trkpt lat="43.56941" lon="1.30578">
        <ele>178.6</ele>
        <time>2024-05-20T10:26:56Z</time>
      </trkpt>
      <trkpt lat="43.56942" lon="1.30574">
        <ele>178.6</ele>
        <time>2024-05-20T10:26:57Z</time>
      </trkpt>
      <trkpt lat="43.56943" lon="1.30571">
        <ele>178.6</ele>
        <time>2024-05-20T10:26:58Z</time>
      </trkpt>
      <trkpt lat="43.56945" lon="1.30569">
        <ele>178.6</ele>
        <time>2024-05-20T10:26:59Z</time>
      </trkpt>
      <trkpt lat="43.56948" lon="1.30566">
        <ele>178.6</ele>
        <time>2024-05-20T10:27:00Z</time>
      </trkpt>
      <trkpt lat="43.56951" lon="1.30565">
        <ele>178.8</ele>
        <time>2024-05-20T10:27:01Z</time>
      </trkpt>
      <trkpt lat="43.56952" lon="1.30564">
        <ele>178.8</ele>
        <time>2024-05-20T10:27:02Z</time>
      </trkpt>
      <trkpt lat="43.56954" lon="1.30563">
        <ele>178.8</ele>
        <time>2024-05-20T10:27:03Z</time>
      </trkpt>
      <trkpt lat="43.56956" lon="1.30562">
        <ele>178.8</ele>
        <time>2024-05-20T10:27:04Z</time>
      </trkpt>
      <trkpt lat="43.56959" lon="1.3056">
        <ele>179</ele>
        <time>2024-05-20T10:27:05Z</time>
      </trkpt>
      <trkpt lat="43.56962" lon="1.30558">
        <ele>179</ele>
        <time>2024-05-20T10:27:06Z</time>
      </trkpt>
      <trkpt lat="43.56965" lon="1.30556">
        <ele>179</ele>
        <time>2024-05-20T10:27:07Z</time>
      </trkpt>
      <trkpt lat="43.5697" lon="1.30555">
        <ele>179</ele>
        <time>2024-05-20T10:27:08Z</time>
      </trkpt>
      <trkpt lat="43.56975" lon="1.30553">
        <ele>179</ele>
        <time>2024-05-20T10:27:09Z</time>
      </trkpt>
      <trkpt lat="43.5698" lon="1.30551">
        <ele>179</ele>
        <time>2024-05-20T10:27:10Z</time>
      </trkpt>
      <trkpt lat="43.56985" lon="1.3055">
        <ele>179</ele>
        <time>2024-05-20T10:27:11Z</time>
      </trkpt>
      <trkpt lat="43.5699" lon="1.3055">
        <ele>179</ele>
        <time>2024-05-20T10:27:12Z</time>
      </trkpt>
      <trkpt lat="43.56995" lon="1.30549">
        <ele>178.8</ele>
        <time>2024-05-20T10:27:13Z</time>
      </trkpt>
      <trkpt lat="43.57001" lon="1.30548">
        <ele>178.8</ele>
        <time>2024-05-20T10:27:14Z</time>
      </trkpt>
      <trkpt lat="43.57007" lon="1.30546">
        <ele>178.8</ele>
        <time>2024-05-20T10:27:15Z</time>
      </trkpt>
      <trkpt lat="43.57012" lon="1.30545">
        <ele>178.8</ele>
        <time>2024-05-20T10:27:16Z</time>
      </trkpt>
      <trkpt lat="43.57018" lon="1.30543">
        <ele>178.8</ele>
        <time>2024-05-20T10:27:17Z</time>
      </trkpt>
      <trkpt lat="43.57023" lon="1.30541">
        <ele>178.8</ele>
        <time>2024-05-20T10:27:18Z</time>
      </trkpt>
      <trkpt lat="43.57028" lon="1.30539">
        <ele>178.8</ele>
        <time>2024-05-20T10:27:19Z</time>
      </trkpt>
      <trkpt lat="43.57033" lon="1.30536">
        <ele>178.8</ele>
        <time>2024-05-20T10:27:20Z</time>
      </trkpt>
      <trkpt lat="43.57039" lon="1.30533">
        <ele>178.8</ele>
        <time>2024-05-20T10:27:21Z</time>
      </trkpt>
      <trkpt lat="43.57044" lon="1.30531">
        <ele>178.6</ele>
        <time>2024-05-20T10:27:22Z</time>
      </trkpt>
      <trkpt lat="43.5705" lon="1.30529">
        <ele>178.6</ele>
        <time>2024-05-20T10:27:23Z</time>
      </trkpt>
      <trkpt lat="43.57055" lon="1.30526">
        <ele>178.6</ele>
        <time>2024-05-20T10:27:24Z</time>
      </trkpt>
      <trkpt lat="43.5706" lon="1.30524">
        <ele>178.8</ele>
        <time>2024-05-20T10:27:25Z</time>
      </trkpt>
      <trkpt lat="43.57065" lon="1.30523">
        <ele>178.8</ele>
        <time>2024-05-20T10:27:26Z</time>
      </trkpt>
      <trkpt lat="43.5707" lon="1.30523">
        <ele>179</ele>
        <time>2024-05-20T10:27:27Z</time>
      </trkpt>
      <trkpt lat="43.57075" lon="1.30525">
        <ele>179</ele>
        <time>2024-05-20T10:27:28Z</time>
      </trkpt>
      <trkpt lat="43.5708" lon="1.30529">
        <ele>179</ele>
        <time>2024-05-20T10:27:29Z</time>
      </trkpt>
      <trkpt lat="43.57084" lon="1.30533">
        <ele>179</ele>
        <time>2024-05-20T10:27:30Z</time>
      </trkpt>
      <trkpt lat="43.57088" lon="1.30539">
        <ele>179</ele>
        <time>2024-05-20T10:27:31Z</time>
      </trkpt>
      <trkpt lat="43.57091" lon="1.30546">
        <ele>179</ele>
        <time>2024-05-20T10:27:32Z</time>
      </trkpt>
      <trkpt lat="43.57094" lon="1.30553">
        <ele>179</ele>
        <time>2024-05-20T10:27:33Z</time>
      </trkpt>
      <trkpt lat="43.57097" lon="1.3056">
        <ele>179</ele>
        <time>2024-05-20T10:27:34Z</time>
      </trkpt>
      <trkpt lat="43.57101" lon="1.30567">
        <ele>179</ele>
        <time>2024-05-20T10:27:35Z</time>
      </trkpt>
      <trkpt lat="43.57104" lon="1.30574">
        <ele>179</ele>
        <time>2024-05-20T10:27:36Z</time>
      </trkpt>
      <trkpt lat="43.57107" lon="1.30581">
        <ele>179</ele>
        <time>2024-05-20T10:27:37Z</time>
      </trkpt>
      <trkpt lat="43.57111" lon="1.30588">
        <ele>179</ele>
        <time>2024-05-20T10:27:38Z</time>
      </trkpt>
      <trkpt lat="43.57115" lon="1.30594">
        <ele>179</ele>
        <time>2024-05-20T10:27:39Z</time>
      </trkpt>
      <trkpt lat="43.57119" lon="1.306">
        <ele>179</ele>
        <time>2024-05-20T10:27:40Z</time>
      </trkpt>
      <trkpt lat="43.57124" lon="1.30605">
        <ele>178.8</ele>
        <time>2024-05-20T10:27:41Z</time>
      </trkpt>
      <trkpt lat="43.57129" lon="1.30609">
        <ele>178.8</ele>
        <time>2024-05-20T10:27:42Z</time>
      </trkpt>
      <trkpt lat="43.57134" lon="1.30613">
        <ele>178.6</ele>
        <time>2024-05-20T10:27:43Z</time>
      </trkpt>
      <trkpt lat="43.5714" lon="1.30615">
        <ele>178.6</ele>
        <time>2024-05-20T10:27:44Z</time>
      </trkpt>
      <trkpt lat="43.57146" lon="1.30616">
        <ele>178.6</ele>
        <time>2024-05-20T10:27:45Z</time>
      </trkpt>
      <trkpt lat="43.57152" lon="1.30616">
        <ele>178.4</ele>
        <time>2024-05-20T10:27:46Z</time>
      </trkpt>
      <trkpt lat="43.57158" lon="1.30616">
        <ele>178.4</ele>
        <time>2024-05-20T10:27:47Z</time>
      </trkpt>
      <trkpt lat="43.57164" lon="1.30615">
        <ele>178.2</ele>
        <time>2024-05-20T10:27:48Z</time>
      </trkpt>
      <trkpt lat="43.5717" lon="1.30612">
        <ele>178</ele>
        <time>2024-05-20T10:27:49Z</time>
      </trkpt>
      <trkpt lat="43.57176" lon="1.30608">
        <ele>178</ele>
        <time>2024-05-20T10:27:50Z</time>
      </trkpt>
      <trkpt lat="43.57181" lon="1.30604">
        <ele>177.8</ele>
        <time>2024-05-20T10:27:51Z</time>
      </trkpt>
      <trkpt lat="43.57186" lon="1.30598">
        <ele>177.8</ele>
        <time>2024-05-20T10:27:52Z</time>
      </trkpt>
      <trkpt lat="43.57191" lon="1.30592">
        <ele>177.8</ele>
        <time>2024-05-20T10:27:53Z</time>
      </trkpt>
      <trkpt lat="43.57195" lon="1.30586">
        <ele>177.8</ele>
        <time>2024-05-20T10:27:54Z</time>
      </trkpt>
      <trkpt lat="43.57199" lon="1.3058">
        <ele>177.8</ele>
        <time>2024-05-20T10:27:55Z</time>
      </trkpt>
      <trkpt lat="43.57203" lon="1.30573">
        <ele>177.8</ele>
        <time>2024-05-20T10:27:56Z</time>
      </trkpt>
      <trkpt lat="43.57207" lon="1.30566">
        <ele>177.8</ele>
        <time>2024-05-20T10:27:57Z</time>
      </trkpt>
      <trkpt lat="43.57211" lon="1.30559">
        <ele>177.8</ele>
        <time>2024-05-20T10:27:58Z</time>
      </trkpt>
      <trkpt lat="43.57214" lon="1.30552">
        <ele>177.8</ele>
        <time>2024-05-20T10:27:59Z</time>
      </trkpt>
      <trkpt lat="43.57218" lon="1.30545">
        <ele>177.8</ele>
        <time>2024-05-20T10:28:00Z</time>
      </trkpt>
      <trkpt lat="43.57222" lon="1.30538">
        <ele>177.8</ele>
        <time>2024-05-20T10:28:01Z</time>
      </trkpt>
      <trkpt lat="43.57226" lon="1.3053">
        <ele>177.8</ele>
        <time>2024-05-20T10:28:02Z</time>
      </trkpt>
      <trkpt lat="43.57229" lon="1.30523">
        <ele>178</ele>
        <time>2024-05-20T10:28:03Z</time>
      </trkpt>
      <trkpt lat="43.57233" lon="1.30516">
        <ele>178</ele>
        <time>2024-05-20T10:28:04Z</time>
      </trkpt>
      <trkpt lat="43.57237" lon="1.30509">
        <ele>178</ele>
        <time>2024-05-20T10:28:05Z</time>
      </trkpt>
      <trkpt lat="43.57241" lon="1.30501">
        <ele>178</ele>
        <time>2024-05-20T10:28:06Z</time>
      </trkpt>
      <trkpt lat="43.57244" lon="1.30494">
        <ele>178</ele>
        <time>2024-05-20T10:28:07Z</time>
      </trkpt>
      <trkpt lat="43.57248" lon="1.30487">
        <ele>178</ele>
        <time>2024-05-20T10:28:08Z</time>
      </trkpt>
      <trkpt lat="43.57252" lon="1.30479">
        <ele>178</ele>
        <time>2024-05-20T10:28:09Z</time>
      </trkpt>
      <trkpt lat="43.57255" lon="1.30472">
        <ele>178</ele>
        <time>2024-05-20T10:28:10Z</time>
      </trkpt>
      <trkpt lat="43.57259" lon="1.30465">
        <ele>178</ele>
        <time>2024-05-20T10:28:11Z</time>
      </trkpt>
      <trkpt lat="43.57262" lon="1.30458">
        <ele>178</ele>
        <time>2024-05-20T10:28:12Z</time>
      </trkpt>
      <trkpt lat="43.57266" lon="1.30451">
        <ele>178</ele>
        <time>2024-05-20T10:28:13Z</time>
      </trkpt>
      <trkpt lat="43.5727" lon="1.30445">
        <ele>178</ele>
        <time>2024-05-20T10:28:14Z</time>
      </trkpt>
      <trkpt lat="43.57273" lon="1.30438">
        <ele>178</ele>
        <time>2024-05-20T10:28:15Z</time>
      </trkpt>
      <trkpt lat="43.57277" lon="1.30431">
        <ele>178</ele>
        <time>2024-05-20T10:28:16Z</time>
      </trkpt>
      <trkpt lat="43.5728" lon="1.30424">
        <ele>178</ele>
        <time>2024-05-20T10:28:17Z</time>
      </trkpt>
      <trkpt lat="43.57283" lon="1.30418">
        <ele>178</ele>
        <time>2024-05-20T10:28:18Z</time>
      </trkpt>
      <trkpt lat="43.57287" lon="1.30412">
        <ele>178</ele>
        <time>2024-05-20T10:28:19Z</time>
      </trkpt>
      <trkpt lat="43.57292" lon="1.30409">
        <ele>178</ele>
        <time>2024-05-20T10:28:20Z</time>
      </trkpt>
      <trkpt lat="43.57296" lon="1.30408">
        <ele>178</ele>
        <time>2024-05-20T10:28:21Z</time>
      </trkpt>
      <trkpt lat="43.57301" lon="1.3041">
        <ele>178</ele>
        <time>2024-05-20T10:28:22Z</time>
      </trkpt>
      <trkpt lat="43.57305" lon="1.30414">
        <ele>178</ele>
        <time>2024-05-20T10:28:23Z</time>
      </trkpt>
      <trkpt lat="43.5731" lon="1.30419">
        <ele>178</ele>
        <time>2024-05-20T10:28:24Z</time>
      </trkpt>
      <trkpt lat="43.57313" lon="1.30423">
        <ele>178</ele>
        <time>2024-05-20T10:28:25Z</time>
      </trkpt>
      <trkpt lat="43.57316" lon="1.30429">
        <ele>178</ele>
        <time>2024-05-20T10:28:26Z</time>
      </trkpt>
      <trkpt lat="43.5732" lon="1.30434">
        <ele>178</ele>
        <time>2024-05-20T10:28:27Z</time>
      </trkpt>
      <trkpt lat="43.57324" lon="1.30439">
        <ele>178</ele>
        <time>2024-05-20T10:28:28Z</time>
      </trkpt>
      <trkpt lat="43.57328" lon="1.30444">
        <ele>178</ele>
        <time>2024-05-20T10:28:29Z</time>
      </trkpt>
      <trkpt lat="43.57333" lon="1.30449">
        <ele>178</ele>
        <time>2024-05-20T10:28:30Z</time>
      </trkpt>
      <trkpt lat="43.57337" lon="1.30454">
        <ele>177.8</ele>
        <time>2024-05-20T10:28:31Z</time>
      </trkpt>
      <trkpt lat="43.57342" lon="1.30459">
        <ele>177.8</ele>
        <time>2024-05-20T10:28:32Z</time>
      </trkpt>
      <trkpt lat="43.57346" lon="1.30464">
        <ele>177.8</ele>
        <time>2024-05-20T10:28:33Z</time>
      </trkpt>
      <trkpt lat="43.57351" lon="1.30469">
        <ele>177.8</ele>
        <time>2024-05-20T10:28:34Z</time>
      </trkpt>
      <trkpt lat="43.57356" lon="1.30474">
        <ele>177.6</ele>
        <time>2024-05-20T10:28:35Z</time>
      </trkpt>
      <trkpt lat="43.57361" lon="1.30479">
        <ele>177.6</ele>
        <time>2024-05-20T10:28:36Z</time>
      </trkpt>
      <trkpt lat="43.57366" lon="1.30484">
        <ele>177.6</ele>
        <time>2024-05-20T10:28:37Z</time>
      </trkpt>
      <trkpt lat="43.5737" lon="1.30489">
        <ele>177.6</ele>
        <time>2024-05-20T10:28:38Z</time>
      </trkpt>
      <trkpt lat="43.57375" lon="1.30495">
        <ele>177.6</ele>
        <time>2024-05-20T10:28:39Z</time>
      </trkpt>
      <trkpt lat="43.57381" lon="1.305">
        <ele>177.6</ele>
        <time>2024-05-20T10:28:40Z</time>
      </trkpt>
      <trkpt lat="43.57386" lon="1.30506">
        <ele>177.6</ele>
        <time>2024-05-20T10:28:41Z</time>
      </trkpt>
      <trkpt lat="43.57391" lon="1.30512">
        <ele>177.6</ele>
        <time>2024-05-20T10:28:42Z</time>
      </trkpt>
      <trkpt lat="43.57396" lon="1.30518">
        <ele>177.6</ele>
        <time>2024-05-20T10:28:43Z</time>
      </trkpt>
      <trkpt lat="43.57401" lon="1.30524">
        <ele>177.6</ele>
        <time>2024-05-20T10:28:44Z</time>
      </trkpt>
      <trkpt lat="43.57407" lon="1.3053">
        <ele>177.6</ele>
        <time>2024-05-20T10:28:45Z</time>
      </trkpt>
      <trkpt lat="43.57412" lon="1.30535">
        <ele>177.6</ele>
        <time>2024-05-20T10:28:46Z</time>
      </trkpt>
      <trkpt lat="43.57418" lon="1.30541">
        <ele>177.6</ele>
        <time>2024-05-20T10:28:47Z</time>
      </trkpt>
      <trkpt lat="43.57423" lon="1.30547">
        <ele>177.6</ele>
        <time>2024-05-20T10:28:48Z</time>
      </trkpt>
      <trkpt lat="43.57429" lon="1.30553">
        <ele>177.6</ele>
        <time>2024-05-20T10:28:49Z</time>
      </trkpt>
      <trkpt lat="43.57435" lon="1.30559">
        <ele>177.6</ele>
        <time>2024-05-20T10:28:50Z</time>
      </trkpt>
      <trkpt lat="43.5744" lon="1.30565">
        <ele>177.6</ele>
        <time>2024-05-20T10:28:51Z</time>
      </trkpt>
      <trkpt lat="43.57446" lon="1.30572">
        <ele>177.6</ele>
        <time>2024-05-20T10:28:52Z</time>
      </trkpt>
      <trkpt lat="43.57451" lon="1.30578">
        <ele>177.4</ele>
        <time>2024-05-20T10:28:53Z</time>
      </trkpt>
      <trkpt lat="43.57457" lon="1.30585">
        <ele>177.4</ele>
        <time>2024-05-20T10:28:54Z</time>
      </trkpt>
      <trkpt lat="43.57463" lon="1.30591">
        <ele>177.4</ele>
        <time>2024-05-20T10:28:55Z</time>
      </trkpt>
      <trkpt lat="43.57469" lon="1.30597">
        <ele>177.6</ele>
        <time>2024-05-20T10:28:56Z</time>
      </trkpt>
      <trkpt lat="43.57475" lon="1.30604">
        <ele>177.8</ele>
        <time>2024-05-20T10:28:57Z</time>
      </trkpt>
      <trkpt lat="43.57482" lon="1.3061">
        <ele>177.6</ele>
        <time>2024-05-20T10:28:58Z</time>
      </trkpt>
      <trkpt lat="43.57488" lon="1.30616">
        <ele>177.8</ele>
        <time>2024-05-20T10:28:59Z</time>
      </trkpt>
      <trkpt lat="43.57493" lon="1.30622">
        <ele>177.6</ele>
        <time>2024-05-20T10:29:00Z</time>
      </trkpt>
      <trkpt lat="43.57499" lon="1.30628">
        <ele>177.4</ele>
        <time>2024-05-20T10:29:01Z</time>
      </trkpt>
      <trkpt lat="43.57505" lon="1.30634">
        <ele>177.8</ele>
        <time>2024-05-20T10:29:02Z</time>
      </trkpt>
      <trkpt lat="43.57511" lon="1.3064">
        <ele>177.6</ele>
        <time>2024-05-20T10:29:03Z</time>
      </trkpt>
      <trkpt lat="43.57517" lon="1.30646">
        <ele>177.8</ele>
        <time>2024-05-20T10:29:04Z</time>
      </trkpt>
      <trkpt lat="43.57523" lon="1.30652">
        <ele>177.8</ele>
        <time>2024-05-20T10:29:05Z</time>
      </trkpt>
      <trkpt lat="43.57529" lon="1.30659">
        <ele>177.8</ele>
        <time>2024-05-20T10:29:06Z</time>
      </trkpt>
      <trkpt lat="43.57534" lon="1.30666">
        <ele>177.8</ele>
        <time>2024-05-20T10:29:07Z</time>
      </trkpt>
      <trkpt lat="43.57539" lon="1.30673">
        <ele>178</ele>
        <time>2024-05-20T10:29:08Z</time>
      </trkpt>
      <trkpt lat="43.57545" lon="1.3068">
        <ele>178</ele>
        <time>2024-05-20T10:29:09Z</time>
      </trkpt>
      <trkpt lat="43.5755" lon="1.30687">
        <ele>178</ele>
        <time>2024-05-20T10:29:10Z</time>
      </trkpt>
      <trkpt lat="43.57556" lon="1.30693">
        <ele>178</ele>
        <time>2024-05-20T10:29:11Z</time>
      </trkpt>
      <trkpt lat="43.57561" lon="1.307">
        <ele>178</ele>
        <time>2024-05-20T10:29:12Z</time>
      </trkpt>
      <trkpt lat="43.57567" lon="1.30707">
        <ele>178.2</ele>
        <time>2024-05-20T10:29:13Z</time>
      </trkpt>
      <trkpt lat="43.57571" lon="1.30714">
        <ele>178.2</ele>
        <time>2024-05-20T10:29:14Z</time>
      </trkpt>
      <trkpt lat="43.57577" lon="1.30721">
        <ele>178.2</ele>
        <time>2024-05-20T10:29:15Z</time>
      </trkpt>
      <trkpt lat="43.57582" lon="1.30727">
        <ele>178.2</ele>
        <time>2024-05-20T10:29:16Z</time>
      </trkpt>
      <trkpt lat="43.57587" lon="1.30734">
        <ele>178.2</ele>
        <time>2024-05-20T10:29:17Z</time>
      </trkpt>
      <trkpt lat="43.57592" lon="1.30741">
        <ele>178.2</ele>
        <time>2024-05-20T10:29:18Z</time>
      </trkpt>
      <trkpt lat="43.57598" lon="1.30748">
        <ele>178.2</ele>
        <time>2024-05-20T10:29:19Z</time>
      </trkpt>
      <trkpt lat="43.57604" lon="1.30754">
        <ele>178.2</ele>
        <time>2024-05-20T10:29:20Z</time>
      </trkpt>
      <trkpt lat="43.57609" lon="1.30761">
        <ele>178.2</ele>
        <time>2024-05-20T10:29:21Z</time>
      </trkpt>
      <trkpt lat="43.57614" lon="1.30768">
        <ele>178</ele>
        <time>2024-05-20T10:29:22Z</time>
      </trkpt>
      <trkpt lat="43.57619" lon="1.30775">
        <ele>178</ele>
        <time>2024-05-20T10:29:23Z</time>
      </trkpt>
      <trkpt lat="43.57624" lon="1.30782">
        <ele>178</ele>
        <time>2024-05-20T10:29:24Z</time>
      </trkpt>
      <trkpt lat="43.5763" lon="1.30789">
        <ele>177.8</ele>
        <time>2024-05-20T10:29:25Z</time>
      </trkpt>
      <trkpt lat="43.57635" lon="1.30796">
        <ele>177.8</ele>
        <time>2024-05-20T10:29:26Z</time>
      </trkpt>
      <trkpt lat="43.5764" lon="1.30803">
        <ele>177.8</ele>
        <time>2024-05-20T10:29:27Z</time>
      </trkpt>
      <trkpt lat="43.57646" lon="1.3081">
        <ele>177.6</ele>
        <time>2024-05-20T10:29:28Z</time>
      </trkpt>
      <trkpt lat="43.57651" lon="1.30817">
        <ele>177.6</ele>
        <time>2024-05-20T10:29:29Z</time>
      </trkpt>
      <trkpt lat="43.57657" lon="1.30824">
        <ele>177.4</ele>
        <time>2024-05-20T10:29:30Z</time>
      </trkpt>
      <trkpt lat="43.57663" lon="1.3083">
        <ele>177.4</ele>
        <time>2024-05-20T10:29:31Z</time>
      </trkpt>
      <trkpt lat="43.57669" lon="1.30836">
        <ele>177.4</ele>
        <time>2024-05-20T10:29:32Z</time>
      </trkpt>
      <trkpt lat="43.57674" lon="1.30843">
        <ele>177.4</ele>
        <time>2024-05-20T10:29:33Z</time>
      </trkpt>
      <trkpt lat="43.57681" lon="1.30849">
        <ele>177.4</ele>
        <time>2024-05-20T10:29:34Z</time>
      </trkpt>
      <trkpt lat="43.57687" lon="1.30855">
        <ele>177.4</ele>
        <time>2024-05-20T10:29:35Z</time>
      </trkpt>
      <trkpt lat="43.57693" lon="1.30861">
        <ele>177.4</ele>
        <time>2024-05-20T10:29:36Z</time>
      </trkpt>
      <trkpt lat="43.57699" lon="1.30868">
        <ele>177.4</ele>
        <time>2024-05-20T10:29:37Z</time>
      </trkpt>
      <trkpt lat="43.57705" lon="1.30874">
        <ele>177.4</ele>
        <time>2024-05-20T10:29:38Z</time>
      </trkpt>
      <trkpt lat="43.57711" lon="1.3088">
        <ele>177.4</ele>
        <time>2024-05-20T10:29:39Z</time>
      </trkpt>
      <trkpt lat="43.57717" lon="1.30886">
        <ele>177.4</ele>
        <time>2024-05-20T10:29:40Z</time>
      </trkpt>
      <trkpt lat="43.57723" lon="1.30892">
        <ele>177.4</ele>
        <time>2024-05-20T10:29:41Z</time>
      </trkpt>
      <trkpt lat="43.57729" lon="1.30898">
        <ele>177.2</ele>
        <time>2024-05-20T10:29:42Z</time>
      </trkpt>
      <trkpt lat="43.57735" lon="1.30904">
        <ele>177.2</ele>
        <time>2024-05-20T10:29:43Z</time>
      </trkpt>
      <trkpt lat="43.57741" lon="1.3091">
        <ele>177</ele>
        <time>2024-05-20T10:29:44Z</time>
      </trkpt>
      <trkpt lat="43.57747" lon="1.30917">
        <ele>177</ele>
        <time>2024-05-20T10:29:45Z</time>
      </trkpt>
      <trkpt lat="43.57753" lon="1.30923">
        <ele>177</ele>
        <time>2024-05-20T10:29:46Z</time>
      </trkpt>
      <trkpt lat="43.57759" lon="1.3093">
        <ele>177</ele>
        <time>2024-05-20T10:29:47Z</time>
      </trkpt>
      <trkpt lat="43.57765" lon="1.30936">
        <ele>177</ele>
        <time>2024-05-20T10:29:48Z</time>
      </trkpt>
      <trkpt lat="43.57771" lon="1.30943">
        <ele>177</ele>
        <time>2024-05-20T10:29:49Z</time>
      </trkpt>
      <trkpt lat="43.57777" lon="1.30949">
        <ele>177</ele>
        <time>2024-05-20T10:29:50Z</time>
      </trkpt>
      <trkpt lat="43.57783" lon="1.30956">
        <ele>177</ele>
        <time>2024-05-20T10:29:51Z</time>
      </trkpt>
      <trkpt lat="43.57789" lon="1.30963">
        <ele>177</ele>
        <time>2024-05-20T10:29:52Z</time>
      </trkpt>
      <trkpt lat="43.57796" lon="1.30969">
        <ele>176.8</ele>
        <time>2024-05-20T10:29:53Z</time>
      </trkpt>
      <trkpt lat="43.57802" lon="1.30976">
        <ele>176.8</ele>
        <time>2024-05-20T10:29:54Z</time>
      </trkpt>
      <trkpt lat="43.57808" lon="1.30983">
        <ele>176.8</ele>
        <time>2024-05-20T10:29:55Z</time>
      </trkpt>
      <trkpt lat="43.57814" lon="1.30989">
        <ele>176.8</ele>
        <time>2024-05-20T10:29:56Z</time>
      </trkpt>
      <trkpt lat="43.5782" lon="1.30995">
        <ele>176.8</ele>
        <time>2024-05-20T10:29:57Z</time>
      </trkpt>
      <trkpt lat="43.57826" lon="1.31002">
        <ele>176.8</ele>
        <time>2024-05-20T10:29:58Z</time>
      </trkpt>
      <trkpt lat="43.57832" lon="1.31009">
        <ele>176.8</ele>
        <time>2024-05-20T10:29:59Z</time>
      </trkpt>
      <trkpt lat="43.57838" lon="1.31015">
        <ele>176.8</ele>
        <time>2024-05-20T10:30:00Z</time>
      </trkpt>
      <trkpt lat="43.57845" lon="1.31021">
        <ele>176.8</ele>
        <time>2024-05-20T10:30:01Z</time>
      </trkpt>
      <trkpt lat="43.5785" lon="1.31027">
        <ele>176.8</ele>
        <time>2024-05-20T10:30:02Z</time>
      </trkpt>
      <trkpt lat="43.57857" lon="1.31033">
        <ele>176.8</ele>
        <time>2024-05-20T10:30:03Z</time>
      </trkpt>
      <trkpt lat="43.57863" lon="1.31038">
        <ele>176.8</ele>
        <time>2024-05-20T10:30:04Z</time>
      </trkpt>
      <trkpt lat="43.57869" lon="1.31044">
        <ele>176.8</ele>
        <time>2024-05-20T10:30:05Z</time>
      </trkpt>
      <trkpt lat="43.57875" lon="1.3105">
        <ele>176.8</ele>
        <time>2024-05-20T10:30:06Z</time>
      </trkpt>
      <trkpt lat="43.57881" lon="1.31056">
        <ele>176.8</ele>
        <time>2024-05-20T10:30:07Z</time>
      </trkpt>
      <trkpt lat="43.57887" lon="1.31062">
        <ele>176.8</ele>
        <time>2024-05-20T10:30:08Z</time>
      </trkpt>
      <trkpt lat="43.57893" lon="1.31069">
        <ele>176.8</ele>
        <time>2024-05-20T10:30:09Z</time>
      </trkpt>
      <trkpt lat="43.57899" lon="1.31075">
        <ele>176.8</ele>
        <time>2024-05-20T10:30:10Z</time>
      </trkpt>
      <trkpt lat="43.57905" lon="1.31082">
        <ele>176.6</ele>
        <time>2024-05-20T10:30:11Z</time>
      </trkpt>
      <trkpt lat="43.57912" lon="1.31088">
        <ele>176.6</ele>
        <time>2024-05-20T10:30:12Z</time>
      </trkpt>
      <trkpt lat="43.57918" lon="1.31095">
        <ele>176.4</ele>
        <time>2024-05-20T10:30:13Z</time>
      </trkpt>
      <trkpt lat="43.57924" lon="1.31101">
        <ele>176.4</ele>
        <time>2024-05-20T10:30:14Z</time>
      </trkpt>
      <trkpt lat="43.5793" lon="1.31107">
        <ele>176.4</ele>
        <time>2024-05-20T10:30:15Z</time>
      </trkpt>
      <trkpt lat="43.57936" lon="1.31114">
        <ele>176.4</ele>
        <time>2024-05-20T10:30:16Z</time>
      </trkpt>
      <trkpt lat="43.57942" lon="1.3112">
        <ele>176.4</ele>
        <time>2024-05-20T10:30:17Z</time>
      </trkpt>
      <trkpt lat="43.57947" lon="1.31126">
        <ele>176.2</ele>
        <time>2024-05-20T10:30:18Z</time>
      </trkpt>
      <trkpt lat="43.57953" lon="1.31132">
        <ele>176.2</ele>
        <time>2024-05-20T10:30:19Z</time>
      </trkpt>
      <trkpt lat="43.57959" lon="1.31139">
        <ele>176.2</ele>
        <time>2024-05-20T10:30:20Z</time>
      </trkpt>
      <trkpt lat="43.57965" lon="1.31145">
        <ele>176.2</ele>
        <time>2024-05-20T10:30:21Z</time>
      </trkpt>
      <trkpt lat="43.5797" lon="1.31152">
        <ele>176.2</ele>
        <time>2024-05-20T10:30:22Z</time>
      </trkpt>
      <trkpt lat="43.57976" lon="1.31158">
        <ele>176.4</ele>
        <time>2024-05-20T10:30:23Z</time>
      </trkpt>
      <trkpt lat="43.57982" lon="1.31165">
        <ele>176.4</ele>
        <time>2024-05-20T10:30:24Z</time>
      </trkpt>
      <trkpt lat="43.57987" lon="1.31172">
        <ele>176.4</ele>
        <time>2024-05-20T10:30:25Z</time>
      </trkpt>
      <trkpt lat="43.57993" lon="1.31179">
        <ele>176.6</ele>
        <time>2024-05-20T10:30:26Z</time>
      </trkpt>
      <trkpt lat="43.57999" lon="1.31186">
        <ele>176.6</ele>
        <time>2024-05-20T10:30:27Z</time>
      </trkpt>
      <trkpt lat="43.58005" lon="1.31193">
        <ele>176.6</ele>
        <time>2024-05-20T10:30:28Z</time>
      </trkpt>
      <trkpt lat="43.5801" lon="1.31199">
        <ele>176.6</ele>
        <time>2024-05-20T10:30:29Z</time>
      </trkpt>
      <trkpt lat="43.58016" lon="1.31207">
        <ele>176.8</ele>
        <time>2024-05-20T10:30:30Z</time>
      </trkpt>
      <trkpt lat="43.58021" lon="1.31214">
        <ele>176.8</ele>
        <time>2024-05-20T10:30:31Z</time>
      </trkpt>
      <trkpt lat="43.58027" lon="1.31222">
        <ele>176.8</ele>
        <time>2024-05-20T10:30:32Z</time>
      </trkpt>
      <trkpt lat="43.58032" lon="1.3123">
        <ele>176.8</ele>
        <time>2024-05-20T10:30:33Z</time>
      </trkpt>
      <trkpt lat="43.58039" lon="1.31239">
        <ele>176.8</ele>
        <time>2024-05-20T10:30:34Z</time>
      </trkpt>
      <trkpt lat="43.58045" lon="1.31246">
        <ele>176.8</ele>
        <time>2024-05-20T10:30:35Z</time>
      </trkpt>
      <trkpt lat="43.5805" lon="1.31254">
        <ele>176.8</ele>
        <time>2024-05-20T10:30:36Z</time>
      </trkpt>
      <trkpt lat="43.58055" lon="1.3126">
        <ele>176.8</ele>
        <time>2024-05-20T10:30:37Z</time>
      </trkpt>
      <trkpt lat="43.5806" lon="1.31267">
        <ele>176.6</ele>
        <time>2024-05-20T10:30:38Z</time>
      </trkpt>
      <trkpt lat="43.58067" lon="1.31276">
        <ele>176.6</ele>
        <time>2024-05-20T10:30:39Z</time>
      </trkpt>
      <trkpt lat="43.58073" lon="1.31284">
        <ele>176.6</ele>
        <time>2024-05-20T10:30:40Z</time>
      </trkpt>
      <trkpt lat="43.58078" lon="1.31291">
        <ele>176.6</ele>
        <time>2024-05-20T10:30:41Z</time>
      </trkpt>
      <trkpt lat="43.58082" lon="1.31298">
        <ele>176.6</ele>
        <time>2024-05-20T10:30:42Z</time>
      </trkpt>
      <trkpt lat="43.58089" lon="1.31308">
        <ele>176.6</ele>
        <time>2024-05-20T10:30:43Z</time>
      </trkpt>
      <trkpt lat="43.58094" lon="1.31316">
        <ele>176.6</ele>
        <time>2024-05-20T10:30:44Z</time>
      </trkpt>
      <trkpt lat="43.58099" lon="1.31322">
        <ele>176.6</ele>
        <time>2024-05-20T10:30:45Z</time>
      </trkpt>
      <trkpt lat="43.58104" lon="1.31329">
        <ele>176.8</ele>
        <time>2024-05-20T10:30:46Z</time>
      </trkpt>
      <trkpt lat="43.5811" lon="1.31337">
        <ele>176.8</ele>
        <time>2024-05-20T10:30:47Z</time>
      </trkpt>
      <trkpt lat="43.58116" lon="1.31344">
        <ele>176.8</ele>
        <time>2024-05-20T10:30:48Z</time>
      </trkpt>
      <trkpt lat="43.58122" lon="1.31352">
        <ele>176.6</ele>
        <time>2024-05-20T10:30:49Z</time>
      </trkpt>
      <trkpt lat="43.58127" lon="1.31359">
        <ele>176.8</ele>
        <time>2024-05-20T10:30:50Z</time>
      </trkpt>
      <trkpt lat="43.58132" lon="1.31367">
        <ele>176.6</ele>
        <time>2024-05-20T10:30:51Z</time>
      </trkpt>
      <trkpt lat="43.58138" lon="1.31375">
        <ele>176.6</ele>
        <time>2024-05-20T10:30:52Z</time>
      </trkpt>
      <trkpt lat="43.58145" lon="1.31385">
        <ele>176.8</ele>
        <time>2024-05-20T10:30:53Z</time>
      </trkpt>
      <trkpt lat="43.58149" lon="1.31391">
        <ele>176.6</ele>
        <time>2024-05-20T10:30:54Z</time>
      </trkpt>
      <trkpt lat="43.58156" lon="1.314">
        <ele>176.8</ele>
        <time>2024-05-20T10:30:55Z</time>
      </trkpt>
      <trkpt lat="43.58161" lon="1.31406">
        <ele>176.8</ele>
        <time>2024-05-20T10:30:56Z</time>
      </trkpt>
      <trkpt lat="43.58166" lon="1.31414">
        <ele>176.8</ele>
        <time>2024-05-20T10:30:57Z</time>
      </trkpt>
      <trkpt lat="43.58172" lon="1.31421">
        <ele>176.8</ele>
        <time>2024-05-20T10:30:58Z</time>
      </trkpt>
      <trkpt lat="43.58179" lon="1.31431">
        <ele>177</ele>
        <time>2024-05-20T10:30:59Z</time>
      </trkpt>
      <trkpt lat="43.58184" lon="1.31438">
        <ele>177</ele>
        <time>2024-05-20T10:31:00Z</time>
      </trkpt>
      <trkpt lat="43.58188" lon="1.31444">
        <ele>177.2</ele>
        <time>2024-05-20T10:31:01Z</time>
      </trkpt>
      <trkpt lat="43.58195" lon="1.31453">
        <ele>177.2</ele>
        <time>2024-05-20T10:31:02Z</time>
      </trkpt>
      <trkpt lat="43.582" lon="1.3146">
        <ele>177.2</ele>
        <time>2024-05-20T10:31:03Z</time>
      </trkpt>
      <trkpt lat="43.58205" lon="1.31467">
        <ele>177.2</ele>
        <time>2024-05-20T10:31:04Z</time>
      </trkpt>
      <trkpt lat="43.58209" lon="1.31472">
        <ele>177.2</ele>
        <time>2024-05-20T10:31:05Z</time>
      </trkpt>
      <trkpt lat="43.58215" lon="1.31479">
        <ele>177.4</ele>
        <time>2024-05-20T10:31:06Z</time>
      </trkpt>
      <trkpt lat="43.58219" lon="1.31485">
        <ele>177.6</ele>
        <time>2024-05-20T10:31:07Z</time>
      </trkpt>
      <trkpt lat="43.58225" lon="1.31493">
        <ele>177.6</ele>
        <time>2024-05-20T10:31:08Z</time>
      </trkpt>
      <trkpt lat="43.58229" lon="1.31497">
        <ele>177.8</ele>
        <time>2024-05-20T10:31:09Z</time>
      </trkpt>
      <trkpt lat="43.58235" lon="1.31501">
        <ele>178.2</ele>
        <time>2024-05-20T10:31:10Z</time>
      </trkpt>
      <trkpt lat="43.58241" lon="1.31503">
        <ele>178.2</ele>
        <time>2024-05-20T10:31:11Z</time>
      </trkpt>
      <trkpt lat="43.58246" lon="1.31506">
        <ele>178.6</ele>
        <time>2024-05-20T10:31:12Z</time>
      </trkpt>
      <trkpt lat="43.5825" lon="1.3151">
        <ele>178.8</ele>
        <time>2024-05-20T10:31:13Z</time>
      </trkpt>
      <trkpt lat="43.58255" lon="1.31515">
        <ele>179</ele>
        <time>2024-05-20T10:31:14Z</time>
      </trkpt>
      <trkpt lat="43.58259" lon="1.31519">
        <ele>179.4</ele>
        <time>2024-05-20T10:31:15Z</time>
      </trkpt>
      <trkpt lat="43.58264" lon="1.31523">
        <ele>179.6</ele>
        <time>2024-05-20T10:31:16Z</time>
      </trkpt>
      <trkpt lat="43.58268" lon="1.31527">
        <ele>180</ele>
        <time>2024-05-20T10:31:17Z</time>
      </trkpt>
      <trkpt lat="43.58274" lon="1.31532">
        <ele>180.2</ele>
        <time>2024-05-20T10:31:18Z</time>
      </trkpt>
      <trkpt lat="43.58277" lon="1.31535">
        <ele>180.4</ele>
        <time>2024-05-20T10:31:19Z</time>
      </trkpt>
      <trkpt lat="43.58282" lon="1.31539">
        <ele>180.8</ele>
        <time>2024-05-20T10:31:20Z</time>
      </trkpt>
      <trkpt lat="43.58287" lon="1.31543">
        <ele>180.8</ele>
        <time>2024-05-20T10:31:21Z</time>
      </trkpt>
      <trkpt lat="43.58291" lon="1.31546">
        <ele>181</ele>
        <time>2024-05-20T10:31:22Z</time>
      </trkpt>
      <trkpt lat="43.58296" lon="1.31551">
        <ele>181.2</ele>
        <time>2024-05-20T10:31:23Z</time>
      </trkpt>
      <trkpt lat="43.58299" lon="1.31554">
        <ele>181.4</ele>
        <time>2024-05-20T10:31:24Z</time>
      </trkpt>
      <trkpt lat="43.58303" lon="1.31557">
        <ele>181.8</ele>
        <time>2024-05-20T10:31:25Z</time>
      </trkpt>
      <trkpt lat="43.58307" lon="1.31561">
        <ele>182</ele>
        <time>2024-05-20T10:31:26Z</time>
      </trkpt>
      <trkpt lat="43.5831" lon="1.31564">
        <ele>182.4</ele>
        <time>2024-05-20T10:31:27Z</time>
      </trkpt>
      <trkpt lat="43.58312" lon="1.31566">
        <ele>182.4</ele>
        <time>2024-05-20T10:31:28Z</time>
      </trkpt>
      <trkpt lat="43.58315" lon="1.31567">
        <ele>182.8</ele>
        <time>2024-05-20T10:31:29Z</time>
      </trkpt>
      <trkpt lat="43.58317" lon="1.31568">
        <ele>183</ele>
        <time>2024-05-20T10:31:30Z</time>
      </trkpt>
      <trkpt lat="43.58319" lon="1.3157">
        <ele>183</ele>
        <time>2024-05-20T10:31:31Z</time>
      </trkpt>
      <trkpt lat="43.58321" lon="1.31572">
        <ele>183.2</ele>
        <time>2024-05-20T10:31:32Z</time>
      </trkpt>
      <trkpt lat="43.58323" lon="1.31575">
        <ele>183.6</ele>
        <time>2024-05-20T10:31:33Z</time>
      </trkpt>
      <trkpt lat="43.58325" lon="1.31576">
        <ele>184</ele>
        <time>2024-05-20T10:31:34Z</time>
      </trkpt>
      <trkpt lat="43.58327" lon="1.31578">
        <ele>184.2</ele>
        <time>2024-05-20T10:31:35Z</time>
      </trkpt>
      <trkpt lat="43.5833" lon="1.31581">
        <ele>184.8</ele>
        <time>2024-05-20T10:31:36Z</time>
      </trkpt>
      <trkpt lat="43.58333" lon="1.31583">
        <ele>185</ele>
        <time>2024-05-20T10:31:37Z</time>
      </trkpt>
      <trkpt lat="43.58335" lon="1.31584">
        <ele>185.2</ele>
        <time>2024-05-20T10:31:38Z</time>
      </trkpt>
      <trkpt lat="43.58337" lon="1.31587">
        <ele>185.6</ele>
        <time>2024-05-20T10:31:39Z</time>
      </trkpt>
      <trkpt lat="43.58341" lon="1.3159">
        <ele>186.4</ele>
        <time>2024-05-20T10:31:40Z</time>
      </trkpt>
      <trkpt lat="43.58343" lon="1.31592">
        <ele>187.2</ele>
        <time>2024-05-20T10:31:41Z</time>
      </trkpt>
      <trkpt lat="43.58345" lon="1.31593">
        <ele>187.4</ele>
        <time>2024-05-20T10:31:42Z</time>
      </trkpt>
      <trkpt lat="43.58347" lon="1.31595">
        <ele>187.6</ele>
        <time>2024-05-20T10:31:43Z</time>
      </trkpt>
      <trkpt lat="43.5835" lon="1.31598">
        <ele>187.8</ele>
        <time>2024-05-20T10:31:44Z</time>
      </trkpt>
      <trkpt lat="43.58352" lon="1.316">
        <ele>189</ele>
        <time>2024-05-20T10:31:45Z</time>
      </trkpt>
      <trkpt lat="43.58355" lon="1.31603">
        <ele>189.4</ele>
        <time>2024-05-20T10:31:46Z</time>
      </trkpt>
      <trkpt lat="43.58357" lon="1.31605">
        <ele>190</ele>
        <time>2024-05-20T10:31:47Z</time>
      </trkpt>
      <trkpt lat="43.5836" lon="1.31608">
        <ele>190.6</ele>
        <time>2024-05-20T10:31:48Z</time>
      </trkpt>
      <trkpt lat="43.58363" lon="1.3161">
        <ele>191</ele>
        <time>2024-05-20T10:31:49Z</time>
      </trkpt>
      <trkpt lat="43.58366" lon="1.31614">
        <ele>191.6</ele>
        <time>2024-05-20T10:31:50Z</time>
      </trkpt>
      <trkpt lat="43.58369" lon="1.31617">
        <ele>192</ele>
        <time>2024-05-20T10:31:51Z</time>
      </trkpt>
      <trkpt lat="43.58372" lon="1.3162">
        <ele>192.8</ele>
        <time>2024-05-20T10:31:52Z</time>
      </trkpt>
      <trkpt lat="43.58375" lon="1.31622">
        <ele>193</ele>
        <time>2024-05-20T10:31:53Z</time>
      </trkpt>
      <trkpt lat="43.58377" lon="1.31625">
        <ele>193.6</ele>
        <time>2024-05-20T10:31:54Z</time>
      </trkpt>
      <trkpt lat="43.58379" lon="1.31628">
        <ele>194</ele>
        <time>2024-05-20T10:31:55Z</time>
      </trkpt>
      <trkpt lat="43.58383" lon="1.31633">
        <ele>194.6</ele>
        <time>2024-05-20T10:31:56Z</time>
      </trkpt>
      <trkpt lat="43.58386" lon="1.31636">
        <ele>195.4</ele>
        <time>2024-05-20T10:31:57Z</time>
      </trkpt>
      <trkpt lat="43.58388" lon="1.31638">
        <ele>195.8</ele>
        <time>2024-05-20T10:31:58Z</time>
      </trkpt>
      <trkpt lat="43.58392" lon="1.31642">
        <ele>196.2</ele>
        <time>2024-05-20T10:31:59Z</time>
      </trkpt>
      <trkpt lat="43.58394" lon="1.31645">
        <ele>196.4</ele>
        <time>2024-05-20T10:32:00Z</time>
      </trkpt>
      <trkpt lat="43.58396" lon="1.31646">
        <ele>196.6</ele>
        <time>2024-05-20T10:32:01Z</time>
      </trkpt>
      <trkpt lat="43.58398" lon="1.31647">
        <ele>197</ele>
        <time>2024-05-20T10:32:02Z</time>
      </trkpt>
      <trkpt lat="43.58401" lon="1.3165">
        <ele>197.4</ele>
        <time>2024-05-20T10:32:03Z</time>
      </trkpt>
      <trkpt lat="43.58403" lon="1.31653">
        <ele>197.8</ele>
        <time>2024-05-20T10:32:04Z</time>
      </trkpt>
      <trkpt lat="43.58406" lon="1.31657">
        <ele>198</ele>
        <time>2024-05-20T10:32:05Z</time>
      </trkpt>
      <trkpt lat="43.58408" lon="1.3166">
        <ele>198.4</ele>
        <time>2024-05-20T10:32:06Z</time>
      </trkpt>
      <trkpt lat="43.58412" lon="1.31664">
        <ele>198.6</ele>
        <time>2024-05-20T10:32:07Z</time>
      </trkpt>
      <trkpt lat="43.58414" lon="1.31667">
        <ele>198.8</ele>
        <time>2024-05-20T10:32:08Z</time>
      </trkpt>
      <trkpt lat="43.58417" lon="1.31672">
        <ele>199</ele>
        <time>2024-05-20T10:32:09Z</time>
      </trkpt>
      <trkpt lat="43.5842" lon="1.31675">
        <ele>199</ele>
        <time>2024-05-20T10:32:10Z</time>
      </trkpt>
      <trkpt lat="43.58423" lon="1.31679">
        <ele>199.2</ele>
        <time>2024-05-20T10:32:11Z</time>
      </trkpt>
      <trkpt lat="43.58428" lon="1.31684">
        <ele>199.2</ele>
        <time>2024-05-20T10:32:12Z</time>
      </trkpt>
      <trkpt lat="43.58431" lon="1.31688">
        <ele>199.4</ele>
        <time>2024-05-20T10:32:13Z</time>
      </trkpt>
      <trkpt lat="43.58435" lon="1.31693">
        <ele>199.4</ele>
        <time>2024-05-20T10:32:14Z</time>
      </trkpt>
      <trkpt lat="43.58438" lon="1.31696">
        <ele>199.4</ele>
        <time>2024-05-20T10:32:15Z</time>
      </trkpt>
      <trkpt lat="43.58441" lon="1.31701">
        <ele>199.4</ele>
        <time>2024-05-20T10:32:16Z</time>
      </trkpt>
      <trkpt lat="43.58445" lon="1.31705">
        <ele>199.4</ele>
        <time>2024-05-20T10:32:17Z</time>
      </trkpt>
      <trkpt lat="43.58449" lon="1.3171">
        <ele>199.4</ele>
        <time>2024-05-20T10:32:18Z</time>
      </trkpt>
      <trkpt lat="43.58453" lon="1.31715">
        <ele>199.6</ele>
        <time>2024-05-20T10:32:19Z</time>
      </trkpt>
      <trkpt lat="43.58456" lon="1.31719">
        <ele>199.6</ele>
        <time>2024-05-20T10:32:20Z</time>
      </trkpt>
      <trkpt lat="43.5846" lon="1.31723">
        <ele>199.6</ele>
        <time>2024-05-20T10:32:21Z</time>
      </trkpt>
      <trkpt lat="43.58464" lon="1.31728">
        <ele>199.6</ele>
        <time>2024-05-20T10:32:22Z</time>
      </trkpt>
      <trkpt lat="43.58467" lon="1.31732">
        <ele>199.6</ele>
        <time>2024-05-20T10:32:23Z</time>
      </trkpt>
      <trkpt lat="43.58472" lon="1.31738">
        <ele>199.6</ele>
        <time>2024-05-20T10:32:24Z</time>
      </trkpt>
      <trkpt lat="43.58475" lon="1.31742">
        <ele>199.6</ele>
        <time>2024-05-20T10:32:25Z</time>
      </trkpt>
      <trkpt lat="43.5848" lon="1.31747">
        <ele>199.6</ele>
        <time>2024-05-20T10:32:26Z</time>
      </trkpt>
      <trkpt lat="43.58484" lon="1.31752">
        <ele>199.6</ele>
        <time>2024-05-20T10:32:27Z</time>
      </trkpt>
      <trkpt lat="43.5849" lon="1.31759">
        <ele>199.6</ele>
        <time>2024-05-20T10:32:28Z</time>
      </trkpt>
      <trkpt lat="43.58493" lon="1.31763">
        <ele>199.6</ele>
        <time>2024-05-20T10:32:29Z</time>
      </trkpt>
      <trkpt lat="43.58498" lon="1.31769">
        <ele>199.4</ele>
        <time>2024-05-20T10:32:30Z</time>
      </trkpt>
      <trkpt lat="43.58504" lon="1.31776">
        <ele>199.4</ele>
        <time>2024-05-20T10:32:31Z</time>
      </trkpt>
      <trkpt lat="43.58508" lon="1.31782">
        <ele>199.2</ele>
        <time>2024-05-20T10:32:32Z</time>
      </trkpt>
      <trkpt lat="43.58512" lon="1.31788">
        <ele>199.2</ele>
        <time>2024-05-20T10:32:33Z</time>
      </trkpt>
      <trkpt lat="43.58517" lon="1.31794">
        <ele>199.2</ele>
        <time>2024-05-20T10:32:34Z</time>
      </trkpt>
      <trkpt lat="43.58522" lon="1.318">
        <ele>199</ele>
        <time>2024-05-20T10:32:35Z</time>
      </trkpt>
      <trkpt lat="43.58527" lon="1.31807">
        <ele>199</ele>
        <time>2024-05-20T10:32:36Z</time>
      </trkpt>
      <trkpt lat="43.58532" lon="1.31812">
        <ele>198.8</ele>
        <time>2024-05-20T10:32:37Z</time>
      </trkpt>
      <trkpt lat="43.58538" lon="1.31818">
        <ele>198.8</ele>
        <time>2024-05-20T10:32:38Z</time>
      </trkpt>
      <trkpt lat="43.58542" lon="1.31823">
        <ele>198.8</ele>
        <time>2024-05-20T10:32:39Z</time>
      </trkpt>
      <trkpt lat="43.58547" lon="1.31829">
        <ele>198.8</ele>
        <time>2024-05-20T10:32:40Z</time>
      </trkpt>
      <trkpt lat="43.58552" lon="1.31835">
        <ele>198.6</ele>
        <time>2024-05-20T10:32:41Z</time>
      </trkpt>
      <trkpt lat="43.58559" lon="1.31842">
        <ele>198.6</ele>
        <time>2024-05-20T10:32:42Z</time>
      </trkpt>
      <trkpt lat="43.58565" lon="1.31847">
        <ele>198.4</ele>
        <time>2024-05-20T10:32:43Z</time>
      </trkpt>
      <trkpt lat="43.5857" lon="1.31851">
        <ele>198.2</ele>
        <time>2024-05-20T10:32:44Z</time>
      </trkpt>
      <trkpt lat="43.58577" lon="1.31856">
        <ele>198</ele>
        <time>2024-05-20T10:32:45Z</time>
      </trkpt>
      <trkpt lat="43.58583" lon="1.31861">
        <ele>198</ele>
        <time>2024-05-20T10:32:46Z</time>
      </trkpt>
      <trkpt lat="43.58588" lon="1.31865">
        <ele>197.8</ele>
        <time>2024-05-20T10:32:47Z</time>
      </trkpt>
      <trkpt lat="43.58594" lon="1.3187">
        <ele>197.8</ele>
        <time>2024-05-20T10:32:48Z</time>
      </trkpt>
      <trkpt lat="43.586" lon="1.31874">
        <ele>197.8</ele>
        <time>2024-05-20T10:32:49Z</time>
      </trkpt>
      <trkpt lat="43.58607" lon="1.3188">
        <ele>197.6</ele>
        <time>2024-05-20T10:32:50Z</time>
      </trkpt>
      <trkpt lat="43.58613" lon="1.31885">
        <ele>197.4</ele>
        <time>2024-05-20T10:32:51Z</time>
      </trkpt>
      <trkpt lat="43.58619" lon="1.31891">
        <ele>197.4</ele>
        <time>2024-05-20T10:32:52Z</time>
      </trkpt>
      <trkpt lat="43.58623" lon="1.31896">
        <ele>197.2</ele>
        <time>2024-05-20T10:32:53Z</time>
      </trkpt>
      <trkpt lat="43.58628" lon="1.31902">
        <ele>197.2</ele>
        <time>2024-05-20T10:32:54Z</time>
      </trkpt>
      <trkpt lat="43.58632" lon="1.3191">
        <ele>196.8</ele>
        <time>2024-05-20T10:32:55Z</time>
      </trkpt>
      <trkpt lat="43.58637" lon="1.31917">
        <ele>196.8</ele>
        <time>2024-05-20T10:32:56Z</time>
      </trkpt>
      <trkpt lat="43.58642" lon="1.31926">
        <ele>196.6</ele>
        <time>2024-05-20T10:32:57Z</time>
      </trkpt>
      <trkpt lat="43.58645" lon="1.31931">
        <ele>196.4</ele>
        <time>2024-05-20T10:32:58Z</time>
      </trkpt>
      <trkpt lat="43.58649" lon="1.31939">
        <ele>196.4</ele>
        <time>2024-05-20T10:32:59Z</time>
      </trkpt>
      <trkpt lat="43.58654" lon="1.31945">
        <ele>196.4</ele>
        <time>2024-05-20T10:33:00Z</time>
      </trkpt>
      <trkpt lat="43.58659" lon="1.31952">
        <ele>196.2</ele>
        <time>2024-05-20T10:33:01Z</time>
      </trkpt>
      <trkpt lat="43.58662" lon="1.31956">
        <ele>196.2</ele>
        <time>2024-05-20T10:33:02Z</time>
      </trkpt>
      <trkpt lat="43.58665" lon="1.3196">
        <ele>196.4</ele>
        <time>2024-05-20T10:33:03Z</time>
      </trkpt>
      <trkpt lat="43.58669" lon="1.31965">
        <ele>196.2</ele>
        <time>2024-05-20T10:33:04Z</time>
      </trkpt>
      <trkpt lat="43.58671" lon="1.31969">
        <ele>196.2</ele>
        <time>2024-05-20T10:33:05Z</time>
      </trkpt>
      <trkpt lat="43.58674" lon="1.31974">
        <ele>196.2</ele>
        <time>2024-05-20T10:33:06Z</time>
      </trkpt>
      <trkpt lat="43.58676" lon="1.31978">
        <ele>196</ele>
        <time>2024-05-20T10:33:07Z</time>
      </trkpt>
      <trkpt lat="43.58679" lon="1.31982">
        <ele>196</ele>
        <time>2024-05-20T10:33:08Z</time>
      </trkpt>
      <trkpt lat="43.58682" lon="1.31987">
        <ele>196</ele>
        <time>2024-05-20T10:33:09Z</time>
      </trkpt>
      <trkpt lat="43.58684" lon="1.31994">
        <ele>196</ele>
        <time>2024-05-20T10:33:10Z</time>
      </trkpt>
      <trkpt lat="43.58685" lon="1.32002">
        <ele>196</ele>
        <time>2024-05-20T10:33:11Z</time>
      </trkpt>
      <trkpt lat="43.58686" lon="1.32009">
        <ele>195.8</ele>
        <time>2024-05-20T10:33:12Z</time>
      </trkpt>
      <trkpt lat="43.58687" lon="1.3202">
        <ele>195.8</ele>
        <time>2024-05-20T10:33:13Z</time>
      </trkpt>
      <trkpt lat="43.58688" lon="1.32027">
        <ele>195.6</ele>
        <time>2024-05-20T10:33:14Z</time>
      </trkpt>
      <trkpt lat="43.58688" lon="1.32036">
        <ele>195.6</ele>
        <time>2024-05-20T10:33:15Z</time>
      </trkpt>
      <trkpt lat="43.58688" lon="1.32046">
        <ele>195.4</ele>
        <time>2024-05-20T10:33:16Z</time>
      </trkpt>
      <trkpt lat="43.58688" lon="1.32055">
        <ele>195.4</ele>
        <time>2024-05-20T10:33:17Z</time>
      </trkpt>
      <trkpt lat="43.58688" lon="1.32067">
        <ele>195.2</ele>
        <time>2024-05-20T10:33:18Z</time>
      </trkpt>
      <trkpt lat="43.58688" lon="1.32075">
        <ele>195.2</ele>
        <time>2024-05-20T10:33:19Z</time>
      </trkpt>
      <trkpt lat="43.58687" lon="1.32086">
        <ele>195.2</ele>
        <time>2024-05-20T10:33:20Z</time>
      </trkpt>
      <trkpt lat="43.58687" lon="1.32094">
        <ele>195</ele>
        <time>2024-05-20T10:33:21Z</time>
      </trkpt>
      <trkpt lat="43.58687" lon="1.32103">
        <ele>195</ele>
        <time>2024-05-20T10:33:22Z</time>
      </trkpt>
      <trkpt lat="43.58686" lon="1.32112">
        <ele>195</ele>
        <time>2024-05-20T10:33:23Z</time>
      </trkpt>
      <trkpt lat="43.58686" lon="1.32124">
        <ele>195</ele>
        <time>2024-05-20T10:33:24Z</time>
      </trkpt>
      <trkpt lat="43.58685" lon="1.32133">
        <ele>195.2</ele>
        <time>2024-05-20T10:33:25Z</time>
      </trkpt>
      <trkpt lat="43.58685" lon="1.3214">
        <ele>195.2</ele>
        <time>2024-05-20T10:33:26Z</time>
      </trkpt>
      <trkpt lat="43.58684" lon="1.32151">
        <ele>195.2</ele>
        <time>2024-05-20T10:33:27Z</time>
      </trkpt>
      <trkpt lat="43.58683" lon="1.32161">
        <ele>195.2</ele>
        <time>2024-05-20T10:33:28Z</time>
      </trkpt>
      <trkpt lat="43.58682" lon="1.32168">
        <ele>195.4</ele>
        <time>2024-05-20T10:33:29Z</time>
      </trkpt>
      <trkpt lat="43.58682" lon="1.32177">
        <ele>195.6</ele>
        <time>2024-05-20T10:33:30Z</time>
      </trkpt>
      <trkpt lat="43.58681" lon="1.32186">
        <ele>195.6</ele>
        <time>2024-05-20T10:33:31Z</time>
      </trkpt>
      <trkpt lat="43.5868" lon="1.32194">
        <ele>195.8</ele>
        <time>2024-05-20T10:33:32Z</time>
      </trkpt>
      <trkpt lat="43.58679" lon="1.32204">
        <ele>195.8</ele>
        <time>2024-05-20T10:33:33Z</time>
      </trkpt>
      <trkpt lat="43.58678" lon="1.32211">
        <ele>195.8</ele>
        <time>2024-05-20T10:33:34Z</time>
      </trkpt>
      <trkpt lat="43.58678" lon="1.32216">
        <ele>196</ele>
        <time>2024-05-20T10:33:35Z</time>
      </trkpt>
      <trkpt lat="43.58677" lon="1.32222">
        <ele>196</ele>
        <time>2024-05-20T10:33:36Z</time>
      </trkpt>
      <trkpt lat="43.58677" lon="1.32227">
        <ele>196</ele>
        <time>2024-05-20T10:33:37Z</time>
      </trkpt>
      <trkpt lat="43.58676" lon="1.3223">
        <ele>196</ele>
        <time>2024-05-20T10:33:38Z</time>
      </trkpt>
      <trkpt lat="43.58678" lon="1.32233">
        <ele>196</ele>
        <time>2024-05-20T10:33:39Z</time>
      </trkpt>
      <trkpt lat="43.58679" lon="1.32233">
        <ele>196</ele>
        <time>2024-05-20T10:33:40Z</time>
      </trkpt>
      <trkpt lat="43.5868" lon="1.32232">
        <ele>196</ele>
        <time>2024-05-20T10:33:41Z</time>
      </trkpt>
      <trkpt lat="43.58682" lon="1.32231">
        <ele>196</ele>
        <time>2024-05-20T10:33:42Z</time>
      </trkpt>
      <trkpt lat="43.58682" lon="1.3223">
        <ele>195.8</ele>
        <time>2024-05-20T10:33:43Z</time>
      </trkpt>
      <trkpt lat="43.58682" lon="1.3223">
        <ele>195.8</ele>
        <time>2024-05-20T10:33:45Z</time>
      </trkpt>
    </trkseg>
  </trk>
</gpx>